<?xml version="1.0" encoding="UTF-8" standalone="no" ?>
<gpx xmlns="http://www.topografix.com/GPX/1/1" xmlns:xsi="http://www.w3.org/2001/XMLSchema-instance" xsi:schemaLocation="http://www.topografix.com/GPX/1/1 http://www.topografix.com/GPX/1/1/gpx.xsd" version="1.1" creator="VisuGPX - https://www.visugpx.com">
  <metadata>
    <name>Saint Médard / Martignas</name>
    <desc><![CDATA[La grande classique de la rive gauche, singles / bois avec peu de temps de repos.
Praticable toute l'année.]]></desc>
  </metadata>
  <trk>
    <name><![CDATA[Sortie St Médard Martignas SJI]]></name>
    <trkseg>
      <trkpt lat="44.88682" lon="-0.74649">
        <ele>30.5</ele>
        <time>2017-12-06T08:14:33Z</time>
      </trkpt>
      <trkpt lat="44.88679" lon="-0.74649">
        <ele>30.5</ele>
        <time>2017-12-06T08:15:50Z</time>
      </trkpt>
      <trkpt lat="44.88677" lon="-0.74655">
        <ele>30.5</ele>
        <time>2017-12-06T08:15:52Z</time>
      </trkpt>
      <trkpt lat="44.88675" lon="-0.74662">
        <ele>30.6</ele>
        <time>2017-12-06T08:15:54Z</time>
      </trkpt>
      <trkpt lat="44.88674" lon="-0.74665">
        <ele>30.6</ele>
        <time>2017-12-06T08:15:55Z</time>
      </trkpt>
      <trkpt lat="44.88672" lon="-0.74669">
        <ele>30.7</ele>
        <time>2017-12-06T08:15:56Z</time>
      </trkpt>
      <trkpt lat="44.8867" lon="-0.74671">
        <ele>30.7</ele>
        <time>2017-12-06T08:15:57Z</time>
      </trkpt>
      <trkpt lat="44.88667" lon="-0.74672">
        <ele>30.8</ele>
        <time>2017-12-06T08:15:58Z</time>
      </trkpt>
      <trkpt lat="44.88663" lon="-0.74674">
        <ele>30.8</ele>
        <time>2017-12-06T08:15:59Z</time>
      </trkpt>
      <trkpt lat="44.8866" lon="-0.74676">
        <ele>30.8</ele>
        <time>2017-12-06T08:16:00Z</time>
      </trkpt>
      <trkpt lat="44.88656" lon="-0.74679">
        <ele>30.9</ele>
        <time>2017-12-06T08:16:01Z</time>
      </trkpt>
      <trkpt lat="44.88653" lon="-0.74682">
        <ele>30.9</ele>
        <time>2017-12-06T08:16:02Z</time>
      </trkpt>
      <trkpt lat="44.8865" lon="-0.74684">
        <ele>31</ele>
        <time>2017-12-06T08:16:03Z</time>
      </trkpt>
      <trkpt lat="44.88645" lon="-0.74685">
        <ele>31.1</ele>
        <time>2017-12-06T08:16:04Z</time>
      </trkpt>
      <trkpt lat="44.88641" lon="-0.74685">
        <ele>31.2</ele>
        <time>2017-12-06T08:16:05Z</time>
      </trkpt>
      <trkpt lat="44.88637" lon="-0.74686">
        <ele>31.2</ele>
        <time>2017-12-06T08:16:06Z</time>
      </trkpt>
      <trkpt lat="44.88634" lon="-0.74688">
        <ele>31.3</ele>
        <time>2017-12-06T08:16:07Z</time>
      </trkpt>
      <trkpt lat="44.88632" lon="-0.74691">
        <ele>31.4</ele>
        <time>2017-12-06T08:16:08Z</time>
      </trkpt>
      <trkpt lat="44.88631" lon="-0.74697">
        <ele>31.4</ele>
        <time>2017-12-06T08:16:09Z</time>
      </trkpt>
      <trkpt lat="44.8863" lon="-0.74701">
        <ele>31.5</ele>
        <time>2017-12-06T08:16:10Z</time>
      </trkpt>
      <trkpt lat="44.88627" lon="-0.74703">
        <ele>31.5</ele>
        <time>2017-12-06T08:16:11Z</time>
      </trkpt>
      <trkpt lat="44.88624" lon="-0.74706">
        <ele>31.7</ele>
        <time>2017-12-06T08:16:12Z</time>
      </trkpt>
      <trkpt lat="44.88621" lon="-0.74708">
        <ele>31.7</ele>
        <time>2017-12-06T08:16:13Z</time>
      </trkpt>
      <trkpt lat="44.88617" lon="-0.7471">
        <ele>31.9</ele>
        <time>2017-12-06T08:16:14Z</time>
      </trkpt>
      <trkpt lat="44.88613" lon="-0.74712">
        <ele>32</ele>
        <time>2017-12-06T08:16:15Z</time>
      </trkpt>
      <trkpt lat="44.88609" lon="-0.74712">
        <ele>32.1</ele>
        <time>2017-12-06T08:16:16Z</time>
      </trkpt>
      <trkpt lat="44.88605" lon="-0.74714">
        <ele>32.3</ele>
        <time>2017-12-06T08:16:17Z</time>
      </trkpt>
      <trkpt lat="44.886" lon="-0.74716">
        <ele>32.4</ele>
        <time>2017-12-06T08:16:18Z</time>
      </trkpt>
      <trkpt lat="44.88596" lon="-0.74717">
        <ele>32.6</ele>
        <time>2017-12-06T08:16:19Z</time>
      </trkpt>
      <trkpt lat="44.88591" lon="-0.74719">
        <ele>32.7</ele>
        <time>2017-12-06T08:16:20Z</time>
      </trkpt>
      <trkpt lat="44.88587" lon="-0.74722">
        <ele>32.9</ele>
        <time>2017-12-06T08:16:21Z</time>
      </trkpt>
      <trkpt lat="44.88582" lon="-0.74724">
        <ele>33</ele>
        <time>2017-12-06T08:16:22Z</time>
      </trkpt>
      <trkpt lat="44.88579" lon="-0.74728">
        <ele>33.1</ele>
        <time>2017-12-06T08:16:23Z</time>
      </trkpt>
      <trkpt lat="44.88576" lon="-0.74732">
        <ele>33.3</ele>
        <time>2017-12-06T08:16:24Z</time>
      </trkpt>
      <trkpt lat="44.88572" lon="-0.74736">
        <ele>33.4</ele>
        <time>2017-12-06T08:16:25Z</time>
      </trkpt>
      <trkpt lat="44.88569" lon="-0.7474">
        <ele>33.5</ele>
        <time>2017-12-06T08:16:26Z</time>
      </trkpt>
      <trkpt lat="44.88565" lon="-0.74744">
        <ele>33.6</ele>
        <time>2017-12-06T08:16:27Z</time>
      </trkpt>
      <trkpt lat="44.88562" lon="-0.74748">
        <ele>33.6</ele>
        <time>2017-12-06T08:16:28Z</time>
      </trkpt>
      <trkpt lat="44.88559" lon="-0.74751">
        <ele>33.7</ele>
        <time>2017-12-06T08:16:29Z</time>
      </trkpt>
      <trkpt lat="44.88555" lon="-0.74753">
        <ele>33.7</ele>
        <time>2017-12-06T08:16:30Z</time>
      </trkpt>
      <trkpt lat="44.8855" lon="-0.74751">
        <ele>33.8</ele>
        <time>2017-12-06T08:16:31Z</time>
      </trkpt>
      <trkpt lat="44.88546" lon="-0.7475">
        <ele>33.8</ele>
        <time>2017-12-06T08:16:32Z</time>
      </trkpt>
      <trkpt lat="44.88542" lon="-0.74748">
        <ele>33.9</ele>
        <time>2017-12-06T08:16:33Z</time>
      </trkpt>
      <trkpt lat="44.88539" lon="-0.74746">
        <ele>33.9</ele>
        <time>2017-12-06T08:16:34Z</time>
      </trkpt>
      <trkpt lat="44.88535" lon="-0.74747">
        <ele>33.9</ele>
        <time>2017-12-06T08:16:35Z</time>
      </trkpt>
      <trkpt lat="44.88532" lon="-0.74749">
        <ele>33.8</ele>
        <time>2017-12-06T08:16:36Z</time>
      </trkpt>
      <trkpt lat="44.8853" lon="-0.74753">
        <ele>33.7</ele>
        <time>2017-12-06T08:16:37Z</time>
      </trkpt>
      <trkpt lat="44.88527" lon="-0.74758">
        <ele>33.5</ele>
        <time>2017-12-06T08:16:38Z</time>
      </trkpt>
      <trkpt lat="44.88524" lon="-0.74762">
        <ele>33.3</ele>
        <time>2017-12-06T08:16:39Z</time>
      </trkpt>
      <trkpt lat="44.88521" lon="-0.74767">
        <ele>32.9</ele>
        <time>2017-12-06T08:16:40Z</time>
      </trkpt>
      <trkpt lat="44.88517" lon="-0.74772">
        <ele>32.7</ele>
        <time>2017-12-06T08:16:41Z</time>
      </trkpt>
      <trkpt lat="44.88514" lon="-0.74777">
        <ele>32.5</ele>
        <time>2017-12-06T08:16:42Z</time>
      </trkpt>
      <trkpt lat="44.8851" lon="-0.74781">
        <ele>32.2</ele>
        <time>2017-12-06T08:16:43Z</time>
      </trkpt>
      <trkpt lat="44.88507" lon="-0.74786">
        <ele>32</ele>
        <time>2017-12-06T08:16:44Z</time>
      </trkpt>
      <trkpt lat="44.88504" lon="-0.7479">
        <ele>31.8</ele>
        <time>2017-12-06T08:16:45Z</time>
      </trkpt>
      <trkpt lat="44.88501" lon="-0.74794">
        <ele>31.6</ele>
        <time>2017-12-06T08:16:46Z</time>
      </trkpt>
      <trkpt lat="44.88499" lon="-0.74798">
        <ele>31.5</ele>
        <time>2017-12-06T08:16:47Z</time>
      </trkpt>
      <trkpt lat="44.88496" lon="-0.74803">
        <ele>31.3</ele>
        <time>2017-12-06T08:16:48Z</time>
      </trkpt>
      <trkpt lat="44.88493" lon="-0.74806">
        <ele>31.2</ele>
        <time>2017-12-06T08:16:49Z</time>
      </trkpt>
      <trkpt lat="44.8849" lon="-0.7481">
        <ele>31.2</ele>
        <time>2017-12-06T08:16:50Z</time>
      </trkpt>
      <trkpt lat="44.88487" lon="-0.74814">
        <ele>31.2</ele>
        <time>2017-12-06T08:16:51Z</time>
      </trkpt>
      <trkpt lat="44.88484" lon="-0.74818">
        <ele>31.1</ele>
        <time>2017-12-06T08:16:52Z</time>
      </trkpt>
      <trkpt lat="44.88481" lon="-0.74821">
        <ele>31.1</ele>
        <time>2017-12-06T08:16:53Z</time>
      </trkpt>
      <trkpt lat="44.88478" lon="-0.74825">
        <ele>31.1</ele>
        <time>2017-12-06T08:16:54Z</time>
      </trkpt>
      <trkpt lat="44.88475" lon="-0.74828">
        <ele>31.1</ele>
        <time>2017-12-06T08:16:55Z</time>
      </trkpt>
      <trkpt lat="44.88473" lon="-0.74832">
        <ele>31.1</ele>
        <time>2017-12-06T08:16:56Z</time>
      </trkpt>
      <trkpt lat="44.8847" lon="-0.74836">
        <ele>31.1</ele>
        <time>2017-12-06T08:16:57Z</time>
      </trkpt>
      <trkpt lat="44.88467" lon="-0.7484">
        <ele>31.1</ele>
        <time>2017-12-06T08:16:58Z</time>
      </trkpt>
      <trkpt lat="44.88464" lon="-0.74844">
        <ele>31</ele>
        <time>2017-12-06T08:16:59Z</time>
      </trkpt>
      <trkpt lat="44.88461" lon="-0.74848">
        <ele>31.2</ele>
        <time>2017-12-06T08:17:00Z</time>
      </trkpt>
      <trkpt lat="44.88458" lon="-0.74851">
        <ele>31.1</ele>
        <time>2017-12-06T08:17:01Z</time>
      </trkpt>
      <trkpt lat="44.88455" lon="-0.74855">
        <ele>31.2</ele>
        <time>2017-12-06T08:17:02Z</time>
      </trkpt>
      <trkpt lat="44.88452" lon="-0.74859">
        <ele>31.2</ele>
        <time>2017-12-06T08:17:03Z</time>
      </trkpt>
      <trkpt lat="44.88449" lon="-0.74863">
        <ele>31.2</ele>
        <time>2017-12-06T08:17:04Z</time>
      </trkpt>
      <trkpt lat="44.88446" lon="-0.74867">
        <ele>31.2</ele>
        <time>2017-12-06T08:17:05Z</time>
      </trkpt>
      <trkpt lat="44.88443" lon="-0.74871">
        <ele>31.1</ele>
        <time>2017-12-06T08:17:06Z</time>
      </trkpt>
      <trkpt lat="44.8844" lon="-0.74875">
        <ele>31.2</ele>
        <time>2017-12-06T08:17:07Z</time>
      </trkpt>
      <trkpt lat="44.88437" lon="-0.74879">
        <ele>31.2</ele>
        <time>2017-12-06T08:17:08Z</time>
      </trkpt>
      <trkpt lat="44.88435" lon="-0.74884">
        <ele>31.2</ele>
        <time>2017-12-06T08:17:09Z</time>
      </trkpt>
      <trkpt lat="44.88432" lon="-0.74888">
        <ele>31.3</ele>
        <time>2017-12-06T08:17:10Z</time>
      </trkpt>
      <trkpt lat="44.88429" lon="-0.74891">
        <ele>31.4</ele>
        <time>2017-12-06T08:17:11Z</time>
      </trkpt>
      <trkpt lat="44.88425" lon="-0.74893">
        <ele>31.5</ele>
        <time>2017-12-06T08:17:12Z</time>
      </trkpt>
      <trkpt lat="44.88422" lon="-0.74893">
        <ele>31.5</ele>
        <time>2017-12-06T08:17:13Z</time>
      </trkpt>
      <trkpt lat="44.88418" lon="-0.74892">
        <ele>31.6</ele>
        <time>2017-12-06T08:17:14Z</time>
      </trkpt>
      <trkpt lat="44.88414" lon="-0.7489">
        <ele>31.7</ele>
        <time>2017-12-06T08:17:15Z</time>
      </trkpt>
      <trkpt lat="44.88411" lon="-0.74889">
        <ele>31.8</ele>
        <time>2017-12-06T08:17:16Z</time>
      </trkpt>
      <trkpt lat="44.88407" lon="-0.74887">
        <ele>31.8</ele>
        <time>2017-12-06T08:17:17Z</time>
      </trkpt>
      <trkpt lat="44.88403" lon="-0.74885">
        <ele>31.8</ele>
        <time>2017-12-06T08:17:18Z</time>
      </trkpt>
      <trkpt lat="44.88399" lon="-0.74883">
        <ele>31.9</ele>
        <time>2017-12-06T08:17:19Z</time>
      </trkpt>
      <trkpt lat="44.88395" lon="-0.74881">
        <ele>31.9</ele>
        <time>2017-12-06T08:17:20Z</time>
      </trkpt>
      <trkpt lat="44.88391" lon="-0.74878">
        <ele>32</ele>
        <time>2017-12-06T08:17:21Z</time>
      </trkpt>
      <trkpt lat="44.88388" lon="-0.74875">
        <ele>32</ele>
        <time>2017-12-06T08:17:22Z</time>
      </trkpt>
      <trkpt lat="44.88384" lon="-0.74871">
        <ele>32</ele>
        <time>2017-12-06T08:17:23Z</time>
      </trkpt>
      <trkpt lat="44.8838" lon="-0.74868">
        <ele>32</ele>
        <time>2017-12-06T08:17:24Z</time>
      </trkpt>
      <trkpt lat="44.88377" lon="-0.74865">
        <ele>32.1</ele>
        <time>2017-12-06T08:17:25Z</time>
      </trkpt>
      <trkpt lat="44.88373" lon="-0.74863">
        <ele>32.1</ele>
        <time>2017-12-06T08:17:26Z</time>
      </trkpt>
      <trkpt lat="44.88369" lon="-0.7486">
        <ele>32.1</ele>
        <time>2017-12-06T08:17:27Z</time>
      </trkpt>
      <trkpt lat="44.88366" lon="-0.74857">
        <ele>32.1</ele>
        <time>2017-12-06T08:17:28Z</time>
      </trkpt>
      <trkpt lat="44.88362" lon="-0.74853">
        <ele>32.1</ele>
        <time>2017-12-06T08:17:29Z</time>
      </trkpt>
      <trkpt lat="44.88357" lon="-0.7485">
        <ele>32.1</ele>
        <time>2017-12-06T08:17:30Z</time>
      </trkpt>
      <trkpt lat="44.88354" lon="-0.74846">
        <ele>32</ele>
        <time>2017-12-06T08:17:31Z</time>
      </trkpt>
      <trkpt lat="44.88349" lon="-0.74842">
        <ele>32</ele>
        <time>2017-12-06T08:17:32Z</time>
      </trkpt>
      <trkpt lat="44.88345" lon="-0.74838">
        <ele>32</ele>
        <time>2017-12-06T08:17:33Z</time>
      </trkpt>
      <trkpt lat="44.8834" lon="-0.74834">
        <ele>32</ele>
        <time>2017-12-06T08:17:34Z</time>
      </trkpt>
      <trkpt lat="44.88335" lon="-0.7483">
        <ele>32</ele>
        <time>2017-12-06T08:17:35Z</time>
      </trkpt>
      <trkpt lat="44.88331" lon="-0.74826">
        <ele>32</ele>
        <time>2017-12-06T08:17:36Z</time>
      </trkpt>
      <trkpt lat="44.88326" lon="-0.74823">
        <ele>32</ele>
        <time>2017-12-06T08:17:37Z</time>
      </trkpt>
      <trkpt lat="44.88322" lon="-0.74819">
        <ele>31.9</ele>
        <time>2017-12-06T08:17:38Z</time>
      </trkpt>
      <trkpt lat="44.88317" lon="-0.74815">
        <ele>31.7</ele>
        <time>2017-12-06T08:17:39Z</time>
      </trkpt>
      <trkpt lat="44.88312" lon="-0.74812">
        <ele>31.4</ele>
        <time>2017-12-06T08:17:40Z</time>
      </trkpt>
      <trkpt lat="44.88307" lon="-0.74808">
        <ele>31.1</ele>
        <time>2017-12-06T08:17:41Z</time>
      </trkpt>
      <trkpt lat="44.88303" lon="-0.74804">
        <ele>30.7</ele>
        <time>2017-12-06T08:17:42Z</time>
      </trkpt>
      <trkpt lat="44.88298" lon="-0.74799">
        <ele>30.4</ele>
        <time>2017-12-06T08:17:43Z</time>
      </trkpt>
      <trkpt lat="44.88294" lon="-0.74795">
        <ele>30.2</ele>
        <time>2017-12-06T08:17:44Z</time>
      </trkpt>
      <trkpt lat="44.88289" lon="-0.74791">
        <ele>30</ele>
        <time>2017-12-06T08:17:45Z</time>
      </trkpt>
      <trkpt lat="44.88284" lon="-0.74787">
        <ele>29.8</ele>
        <time>2017-12-06T08:17:46Z</time>
      </trkpt>
      <trkpt lat="44.88279" lon="-0.74783">
        <ele>29.6</ele>
        <time>2017-12-06T08:17:47Z</time>
      </trkpt>
      <trkpt lat="44.88274" lon="-0.74778">
        <ele>29.4</ele>
        <time>2017-12-06T08:17:48Z</time>
      </trkpt>
      <trkpt lat="44.88269" lon="-0.74774">
        <ele>29.2</ele>
        <time>2017-12-06T08:17:49Z</time>
      </trkpt>
      <trkpt lat="44.88264" lon="-0.74771">
        <ele>29</ele>
        <time>2017-12-06T08:17:50Z</time>
      </trkpt>
      <trkpt lat="44.8826" lon="-0.74769">
        <ele>28.9</ele>
        <time>2017-12-06T08:17:51Z</time>
      </trkpt>
      <trkpt lat="44.88256" lon="-0.74764">
        <ele>28.7</ele>
        <time>2017-12-06T08:17:52Z</time>
      </trkpt>
      <trkpt lat="44.88252" lon="-0.7476">
        <ele>28.6</ele>
        <time>2017-12-06T08:17:53Z</time>
      </trkpt>
      <trkpt lat="44.88248" lon="-0.74757">
        <ele>28.4</ele>
        <time>2017-12-06T08:17:54Z</time>
      </trkpt>
      <trkpt lat="44.88244" lon="-0.74754">
        <ele>28.2</ele>
        <time>2017-12-06T08:17:55Z</time>
      </trkpt>
      <trkpt lat="44.8824" lon="-0.7475">
        <ele>28</ele>
        <time>2017-12-06T08:17:56Z</time>
      </trkpt>
      <trkpt lat="44.88236" lon="-0.74745">
        <ele>27.9</ele>
        <time>2017-12-06T08:17:57Z</time>
      </trkpt>
      <trkpt lat="44.88233" lon="-0.74741">
        <ele>27.7</ele>
        <time>2017-12-06T08:17:58Z</time>
      </trkpt>
      <trkpt lat="44.88229" lon="-0.74738">
        <ele>27.6</ele>
        <time>2017-12-06T08:17:59Z</time>
      </trkpt>
      <trkpt lat="44.88226" lon="-0.74734">
        <ele>27.5</ele>
        <time>2017-12-06T08:18:00Z</time>
      </trkpt>
      <trkpt lat="44.88222" lon="-0.7473">
        <ele>27.3</ele>
        <time>2017-12-06T08:18:01Z</time>
      </trkpt>
      <trkpt lat="44.88219" lon="-0.74725">
        <ele>27.1</ele>
        <time>2017-12-06T08:18:02Z</time>
      </trkpt>
      <trkpt lat="44.88217" lon="-0.74722">
        <ele>27</ele>
        <time>2017-12-06T08:18:03Z</time>
      </trkpt>
      <trkpt lat="44.88215" lon="-0.74717">
        <ele>27</ele>
        <time>2017-12-06T08:18:04Z</time>
      </trkpt>
      <trkpt lat="44.88215" lon="-0.74712">
        <ele>27</ele>
        <time>2017-12-06T08:18:05Z</time>
      </trkpt>
      <trkpt lat="44.88212" lon="-0.74708">
        <ele>27</ele>
        <time>2017-12-06T08:18:06Z</time>
      </trkpt>
      <trkpt lat="44.88209" lon="-0.74706">
        <ele>26.9</ele>
        <time>2017-12-06T08:18:07Z</time>
      </trkpt>
      <trkpt lat="44.88207" lon="-0.74702">
        <ele>26.9</ele>
        <time>2017-12-06T08:18:08Z</time>
      </trkpt>
      <trkpt lat="44.88204" lon="-0.74698">
        <ele>26.9</ele>
        <time>2017-12-06T08:18:09Z</time>
      </trkpt>
      <trkpt lat="44.88203" lon="-0.74693">
        <ele>26.9</ele>
        <time>2017-12-06T08:18:10Z</time>
      </trkpt>
      <trkpt lat="44.88201" lon="-0.74688">
        <ele>26.9</ele>
        <time>2017-12-06T08:18:11Z</time>
      </trkpt>
      <trkpt lat="44.88199" lon="-0.74683">
        <ele>26.9</ele>
        <time>2017-12-06T08:18:12Z</time>
      </trkpt>
      <trkpt lat="44.88197" lon="-0.74678">
        <ele>26.9</ele>
        <time>2017-12-06T08:18:13Z</time>
      </trkpt>
      <trkpt lat="44.88195" lon="-0.74672">
        <ele>26.9</ele>
        <time>2017-12-06T08:18:14Z</time>
      </trkpt>
      <trkpt lat="44.88192" lon="-0.74666">
        <ele>26.8</ele>
        <time>2017-12-06T08:18:15Z</time>
      </trkpt>
      <trkpt lat="44.8819" lon="-0.74661">
        <ele>26.8</ele>
        <time>2017-12-06T08:18:16Z</time>
      </trkpt>
      <trkpt lat="44.88188" lon="-0.74656">
        <ele>26.8</ele>
        <time>2017-12-06T08:18:17Z</time>
      </trkpt>
      <trkpt lat="44.88185" lon="-0.74651">
        <ele>26.7</ele>
        <time>2017-12-06T08:18:18Z</time>
      </trkpt>
      <trkpt lat="44.88181" lon="-0.74646">
        <ele>26.7</ele>
        <time>2017-12-06T08:18:19Z</time>
      </trkpt>
      <trkpt lat="44.88178" lon="-0.74643">
        <ele>26.6</ele>
        <time>2017-12-06T08:18:20Z</time>
      </trkpt>
      <trkpt lat="44.88173" lon="-0.7464">
        <ele>26.5</ele>
        <time>2017-12-06T08:18:21Z</time>
      </trkpt>
      <trkpt lat="44.88169" lon="-0.74635">
        <ele>26.4</ele>
        <time>2017-12-06T08:18:22Z</time>
      </trkpt>
      <trkpt lat="44.88165" lon="-0.74631">
        <ele>26.4</ele>
        <time>2017-12-06T08:18:23Z</time>
      </trkpt>
      <trkpt lat="44.8816" lon="-0.7463">
        <ele>26.2</ele>
        <time>2017-12-06T08:18:24Z</time>
      </trkpt>
      <trkpt lat="44.88155" lon="-0.74632">
        <ele>26.1</ele>
        <time>2017-12-06T08:18:25Z</time>
      </trkpt>
      <trkpt lat="44.88151" lon="-0.74638">
        <ele>25.7</ele>
        <time>2017-12-06T08:18:26Z</time>
      </trkpt>
      <trkpt lat="44.88147" lon="-0.74642">
        <ele>25.5</ele>
        <time>2017-12-06T08:18:27Z</time>
      </trkpt>
      <trkpt lat="44.88142" lon="-0.74646">
        <ele>25.3</ele>
        <time>2017-12-06T08:18:28Z</time>
      </trkpt>
      <trkpt lat="44.88138" lon="-0.74649">
        <ele>25.2</ele>
        <time>2017-12-06T08:18:29Z</time>
      </trkpt>
      <trkpt lat="44.88134" lon="-0.74653">
        <ele>25.2</ele>
        <time>2017-12-06T08:18:30Z</time>
      </trkpt>
      <trkpt lat="44.8813" lon="-0.74655">
        <ele>25.3</ele>
        <time>2017-12-06T08:18:31Z</time>
      </trkpt>
      <trkpt lat="44.88127" lon="-0.74659">
        <ele>25.4</ele>
        <time>2017-12-06T08:18:32Z</time>
      </trkpt>
      <trkpt lat="44.88124" lon="-0.74665">
        <ele>25.5</ele>
        <time>2017-12-06T08:18:33Z</time>
      </trkpt>
      <trkpt lat="44.88121" lon="-0.74669">
        <ele>25.6</ele>
        <time>2017-12-06T08:18:34Z</time>
      </trkpt>
      <trkpt lat="44.88118" lon="-0.74674">
        <ele>25.8</ele>
        <time>2017-12-06T08:18:35Z</time>
      </trkpt>
      <trkpt lat="44.88114" lon="-0.74674">
        <ele>25.9</ele>
        <time>2017-12-06T08:18:36Z</time>
      </trkpt>
      <trkpt lat="44.88112" lon="-0.74676">
        <ele>26</ele>
        <time>2017-12-06T08:18:37Z</time>
      </trkpt>
      <trkpt lat="44.88108" lon="-0.74678">
        <ele>26</ele>
        <time>2017-12-06T08:18:38Z</time>
      </trkpt>
      <trkpt lat="44.88106" lon="-0.74684">
        <ele>26.2</ele>
        <time>2017-12-06T08:18:39Z</time>
      </trkpt>
      <trkpt lat="44.88104" lon="-0.74687">
        <ele>26.2</ele>
        <time>2017-12-06T08:18:40Z</time>
      </trkpt>
      <trkpt lat="44.88101" lon="-0.74691">
        <ele>26.3</ele>
        <time>2017-12-06T08:18:41Z</time>
      </trkpt>
      <trkpt lat="44.88099" lon="-0.74694">
        <ele>26.4</ele>
        <time>2017-12-06T08:18:42Z</time>
      </trkpt>
      <trkpt lat="44.88097" lon="-0.74698">
        <ele>26.5</ele>
        <time>2017-12-06T08:18:43Z</time>
      </trkpt>
      <trkpt lat="44.88096" lon="-0.74704">
        <ele>26.6</ele>
        <time>2017-12-06T08:18:44Z</time>
      </trkpt>
      <trkpt lat="44.88095" lon="-0.74709">
        <ele>26.7</ele>
        <time>2017-12-06T08:18:45Z</time>
      </trkpt>
      <trkpt lat="44.88092" lon="-0.74715">
        <ele>26.8</ele>
        <time>2017-12-06T08:18:46Z</time>
      </trkpt>
      <trkpt lat="44.88087" lon="-0.74719">
        <ele>26.9</ele>
        <time>2017-12-06T08:18:47Z</time>
      </trkpt>
      <trkpt lat="44.88083" lon="-0.74723">
        <ele>27.1</ele>
        <time>2017-12-06T08:18:48Z</time>
      </trkpt>
      <trkpt lat="44.88081" lon="-0.74729">
        <ele>27.2</ele>
        <time>2017-12-06T08:18:49Z</time>
      </trkpt>
      <trkpt lat="44.88078" lon="-0.74734">
        <ele>27.3</ele>
        <time>2017-12-06T08:18:50Z</time>
      </trkpt>
      <trkpt lat="44.88076" lon="-0.74737">
        <ele>27.4</ele>
        <time>2017-12-06T08:18:51Z</time>
      </trkpt>
      <trkpt lat="44.88076" lon="-0.74743">
        <ele>27.5</ele>
        <time>2017-12-06T08:18:53Z</time>
      </trkpt>
      <trkpt lat="44.88074" lon="-0.7475">
        <ele>27.7</ele>
        <time>2017-12-06T08:18:55Z</time>
      </trkpt>
      <trkpt lat="44.88072" lon="-0.74753">
        <ele>27.8</ele>
        <time>2017-12-06T08:18:56Z</time>
      </trkpt>
      <trkpt lat="44.8807" lon="-0.74756">
        <ele>27.9</ele>
        <time>2017-12-06T08:18:57Z</time>
      </trkpt>
      <trkpt lat="44.88068" lon="-0.74759">
        <ele>28</ele>
        <time>2017-12-06T08:18:58Z</time>
      </trkpt>
      <trkpt lat="44.88065" lon="-0.74763">
        <ele>28.1</ele>
        <time>2017-12-06T08:18:59Z</time>
      </trkpt>
      <trkpt lat="44.88062" lon="-0.74769">
        <ele>28.2</ele>
        <time>2017-12-06T08:19:01Z</time>
      </trkpt>
      <trkpt lat="44.88059" lon="-0.74772">
        <ele>28.3</ele>
        <time>2017-12-06T08:19:02Z</time>
      </trkpt>
      <trkpt lat="44.88056" lon="-0.74775">
        <ele>28.4</ele>
        <time>2017-12-06T08:19:03Z</time>
      </trkpt>
      <trkpt lat="44.88052" lon="-0.74779">
        <ele>28.5</ele>
        <time>2017-12-06T08:19:04Z</time>
      </trkpt>
      <trkpt lat="44.88049" lon="-0.74783">
        <ele>28.6</ele>
        <time>2017-12-06T08:19:05Z</time>
      </trkpt>
      <trkpt lat="44.88045" lon="-0.74788">
        <ele>28.8</ele>
        <time>2017-12-06T08:19:06Z</time>
      </trkpt>
      <trkpt lat="44.88043" lon="-0.74792">
        <ele>28.9</ele>
        <time>2017-12-06T08:19:07Z</time>
      </trkpt>
      <trkpt lat="44.88039" lon="-0.74796">
        <ele>29</ele>
        <time>2017-12-06T08:19:08Z</time>
      </trkpt>
      <trkpt lat="44.88036" lon="-0.74801">
        <ele>29</ele>
        <time>2017-12-06T08:19:09Z</time>
      </trkpt>
      <trkpt lat="44.88033" lon="-0.74806">
        <ele>29</ele>
        <time>2017-12-06T08:19:10Z</time>
      </trkpt>
      <trkpt lat="44.88033" lon="-0.74814">
        <ele>29</ele>
        <time>2017-12-06T08:19:11Z</time>
      </trkpt>
      <trkpt lat="44.88032" lon="-0.74821">
        <ele>29</ele>
        <time>2017-12-06T08:19:12Z</time>
      </trkpt>
      <trkpt lat="44.88031" lon="-0.74827">
        <ele>28.9</ele>
        <time>2017-12-06T08:19:13Z</time>
      </trkpt>
      <trkpt lat="44.88029" lon="-0.74832">
        <ele>28.9</ele>
        <time>2017-12-06T08:19:14Z</time>
      </trkpt>
      <trkpt lat="44.88026" lon="-0.74834">
        <ele>28.9</ele>
        <time>2017-12-06T08:19:15Z</time>
      </trkpt>
      <trkpt lat="44.88024" lon="-0.74838">
        <ele>28.9</ele>
        <time>2017-12-06T08:19:16Z</time>
      </trkpt>
      <trkpt lat="44.88023" lon="-0.74842">
        <ele>28.9</ele>
        <time>2017-12-06T08:19:17Z</time>
      </trkpt>
      <trkpt lat="44.88022" lon="-0.74847">
        <ele>28.9</ele>
        <time>2017-12-06T08:19:18Z</time>
      </trkpt>
      <trkpt lat="44.8802" lon="-0.74851">
        <ele>28.9</ele>
        <time>2017-12-06T08:19:19Z</time>
      </trkpt>
      <trkpt lat="44.88019" lon="-0.7486">
        <ele>28.9</ele>
        <time>2017-12-06T08:19:20Z</time>
      </trkpt>
      <trkpt lat="44.88018" lon="-0.74867">
        <ele>28.9</ele>
        <time>2017-12-06T08:19:21Z</time>
      </trkpt>
      <trkpt lat="44.88017" lon="-0.74874">
        <ele>28.9</ele>
        <time>2017-12-06T08:19:22Z</time>
      </trkpt>
      <trkpt lat="44.88014" lon="-0.7488">
        <ele>28.9</ele>
        <time>2017-12-06T08:19:23Z</time>
      </trkpt>
      <trkpt lat="44.88012" lon="-0.74887">
        <ele>28.8</ele>
        <time>2017-12-06T08:19:24Z</time>
      </trkpt>
      <trkpt lat="44.88011" lon="-0.74893">
        <ele>28.8</ele>
        <time>2017-12-06T08:19:25Z</time>
      </trkpt>
      <trkpt lat="44.88008" lon="-0.74897">
        <ele>28.7</ele>
        <time>2017-12-06T08:19:26Z</time>
      </trkpt>
      <trkpt lat="44.88004" lon="-0.74901">
        <ele>28.5</ele>
        <time>2017-12-06T08:19:27Z</time>
      </trkpt>
      <trkpt lat="44.88" lon="-0.74906">
        <ele>28.3</ele>
        <time>2017-12-06T08:19:28Z</time>
      </trkpt>
      <trkpt lat="44.87998" lon="-0.74914">
        <ele>27.9</ele>
        <time>2017-12-06T08:19:29Z</time>
      </trkpt>
      <trkpt lat="44.87995" lon="-0.74921">
        <ele>27.6</ele>
        <time>2017-12-06T08:19:30Z</time>
      </trkpt>
      <trkpt lat="44.87993" lon="-0.74927">
        <ele>27.3</ele>
        <time>2017-12-06T08:19:31Z</time>
      </trkpt>
      <trkpt lat="44.87992" lon="-0.74932">
        <ele>27.1</ele>
        <time>2017-12-06T08:19:32Z</time>
      </trkpt>
      <trkpt lat="44.87991" lon="-0.74938">
        <ele>27</ele>
        <time>2017-12-06T08:19:33Z</time>
      </trkpt>
      <trkpt lat="44.87989" lon="-0.74943">
        <ele>26.9</ele>
        <time>2017-12-06T08:19:34Z</time>
      </trkpt>
      <trkpt lat="44.87988" lon="-0.74949">
        <ele>26.8</ele>
        <time>2017-12-06T08:19:35Z</time>
      </trkpt>
      <trkpt lat="44.87988" lon="-0.74954">
        <ele>26.8</ele>
        <time>2017-12-06T08:19:36Z</time>
      </trkpt>
      <trkpt lat="44.87989" lon="-0.74958">
        <ele>26.8</ele>
        <time>2017-12-06T08:19:37Z</time>
      </trkpt>
      <trkpt lat="44.87989" lon="-0.74962">
        <ele>26.8</ele>
        <time>2017-12-06T08:19:38Z</time>
      </trkpt>
      <trkpt lat="44.87984" lon="-0.74967">
        <ele>26.7</ele>
        <time>2017-12-06T08:19:40Z</time>
      </trkpt>
      <trkpt lat="44.87979" lon="-0.7497">
        <ele>26.7</ele>
        <time>2017-12-06T08:19:41Z</time>
      </trkpt>
      <trkpt lat="44.87975" lon="-0.74972">
        <ele>26.7</ele>
        <time>2017-12-06T08:19:42Z</time>
      </trkpt>
      <trkpt lat="44.87969" lon="-0.74974">
        <ele>26.7</ele>
        <time>2017-12-06T08:19:43Z</time>
      </trkpt>
      <trkpt lat="44.87964" lon="-0.74978">
        <ele>26.7</ele>
        <time>2017-12-06T08:19:44Z</time>
      </trkpt>
      <trkpt lat="44.87959" lon="-0.74981">
        <ele>26.7</ele>
        <time>2017-12-06T08:19:45Z</time>
      </trkpt>
      <trkpt lat="44.87955" lon="-0.74984">
        <ele>26.7</ele>
        <time>2017-12-06T08:19:46Z</time>
      </trkpt>
      <trkpt lat="44.87952" lon="-0.74986">
        <ele>26.7</ele>
        <time>2017-12-06T08:19:47Z</time>
      </trkpt>
      <trkpt lat="44.87949" lon="-0.74986">
        <ele>26.7</ele>
        <time>2017-12-06T08:19:49Z</time>
      </trkpt>
      <trkpt lat="44.87945" lon="-0.74986">
        <ele>26.7</ele>
        <time>2017-12-06T08:19:50Z</time>
      </trkpt>
      <trkpt lat="44.87942" lon="-0.74986">
        <ele>26.6</ele>
        <time>2017-12-06T08:19:51Z</time>
      </trkpt>
      <trkpt lat="44.87937" lon="-0.74986">
        <ele>26.6</ele>
        <time>2017-12-06T08:19:53Z</time>
      </trkpt>
      <trkpt lat="44.87934" lon="-0.74987">
        <ele>26.6</ele>
        <time>2017-12-06T08:19:54Z</time>
      </trkpt>
      <trkpt lat="44.87929" lon="-0.74988">
        <ele>26.6</ele>
        <time>2017-12-06T08:19:55Z</time>
      </trkpt>
      <trkpt lat="44.87926" lon="-0.74991">
        <ele>26.6</ele>
        <time>2017-12-06T08:19:56Z</time>
      </trkpt>
      <trkpt lat="44.87922" lon="-0.74995">
        <ele>26.6</ele>
        <time>2017-12-06T08:19:57Z</time>
      </trkpt>
      <trkpt lat="44.87919" lon="-0.74998">
        <ele>26.6</ele>
        <time>2017-12-06T08:19:58Z</time>
      </trkpt>
      <trkpt lat="44.87916" lon="-0.75002">
        <ele>26.6</ele>
        <time>2017-12-06T08:19:59Z</time>
      </trkpt>
      <trkpt lat="44.87916" lon="-0.75007">
        <ele>26.6</ele>
        <time>2017-12-06T08:20:00Z</time>
      </trkpt>
      <trkpt lat="44.87915" lon="-0.7501">
        <ele>26.6</ele>
        <time>2017-12-06T08:20:01Z</time>
      </trkpt>
      <trkpt lat="44.87914" lon="-0.75014">
        <ele>26.6</ele>
        <time>2017-12-06T08:20:02Z</time>
      </trkpt>
      <trkpt lat="44.87914" lon="-0.75019">
        <ele>26.6</ele>
        <time>2017-12-06T08:20:03Z</time>
      </trkpt>
      <trkpt lat="44.87913" lon="-0.75028">
        <ele>26.5</ele>
        <time>2017-12-06T08:20:05Z</time>
      </trkpt>
      <trkpt lat="44.87913" lon="-0.75032">
        <ele>26.5</ele>
        <time>2017-12-06T08:20:06Z</time>
      </trkpt>
      <trkpt lat="44.87914" lon="-0.75037">
        <ele>26.5</ele>
        <time>2017-12-06T08:20:07Z</time>
      </trkpt>
      <trkpt lat="44.87914" lon="-0.75044">
        <ele>26.5</ele>
        <time>2017-12-06T08:20:08Z</time>
      </trkpt>
      <trkpt lat="44.87915" lon="-0.7505">
        <ele>26.5</ele>
        <time>2017-12-06T08:20:09Z</time>
      </trkpt>
      <trkpt lat="44.87916" lon="-0.75056">
        <ele>26.5</ele>
        <time>2017-12-06T08:20:10Z</time>
      </trkpt>
      <trkpt lat="44.87917" lon="-0.75062">
        <ele>26.5</ele>
        <time>2017-12-06T08:20:11Z</time>
      </trkpt>
      <trkpt lat="44.87919" lon="-0.75069">
        <ele>26.5</ele>
        <time>2017-12-06T08:20:12Z</time>
      </trkpt>
      <trkpt lat="44.87922" lon="-0.75073">
        <ele>26.5</ele>
        <time>2017-12-06T08:20:13Z</time>
      </trkpt>
      <trkpt lat="44.87925" lon="-0.75077">
        <ele>26.5</ele>
        <time>2017-12-06T08:20:14Z</time>
      </trkpt>
      <trkpt lat="44.87925" lon="-0.75083">
        <ele>26.4</ele>
        <time>2017-12-06T08:20:15Z</time>
      </trkpt>
      <trkpt lat="44.87925" lon="-0.75089">
        <ele>26.4</ele>
        <time>2017-12-06T08:20:16Z</time>
      </trkpt>
      <trkpt lat="44.87926" lon="-0.75096">
        <ele>26.4</ele>
        <time>2017-12-06T08:20:17Z</time>
      </trkpt>
      <trkpt lat="44.87926" lon="-0.75102">
        <ele>26.3</ele>
        <time>2017-12-06T08:20:18Z</time>
      </trkpt>
      <trkpt lat="44.87927" lon="-0.75109">
        <ele>26.1</ele>
        <time>2017-12-06T08:20:19Z</time>
      </trkpt>
      <trkpt lat="44.87926" lon="-0.75114">
        <ele>26</ele>
        <time>2017-12-06T08:20:20Z</time>
      </trkpt>
      <trkpt lat="44.87925" lon="-0.75119">
        <ele>26.2</ele>
        <time>2017-12-06T08:20:21Z</time>
      </trkpt>
      <trkpt lat="44.87922" lon="-0.75121">
        <ele>26.4</ele>
        <time>2017-12-06T08:20:22Z</time>
      </trkpt>
      <trkpt lat="44.87919" lon="-0.75123">
        <ele>26.6</ele>
        <time>2017-12-06T08:20:23Z</time>
      </trkpt>
      <trkpt lat="44.87915" lon="-0.75126">
        <ele>27</ele>
        <time>2017-12-06T08:20:24Z</time>
      </trkpt>
      <trkpt lat="44.87911" lon="-0.7513">
        <ele>27.3</ele>
        <time>2017-12-06T08:20:25Z</time>
      </trkpt>
      <trkpt lat="44.87908" lon="-0.75137">
        <ele>27.7</ele>
        <time>2017-12-06T08:20:26Z</time>
      </trkpt>
      <trkpt lat="44.87904" lon="-0.75143">
        <ele>28</ele>
        <time>2017-12-06T08:20:27Z</time>
      </trkpt>
      <trkpt lat="44.87902" lon="-0.75148">
        <ele>27.9</ele>
        <time>2017-12-06T08:20:28Z</time>
      </trkpt>
      <trkpt lat="44.87898" lon="-0.75153">
        <ele>27.8</ele>
        <time>2017-12-06T08:20:29Z</time>
      </trkpt>
      <trkpt lat="44.87894" lon="-0.75157">
        <ele>27.7</ele>
        <time>2017-12-06T08:20:30Z</time>
      </trkpt>
      <trkpt lat="44.8789" lon="-0.75158">
        <ele>27.6</ele>
        <time>2017-12-06T08:20:31Z</time>
      </trkpt>
      <trkpt lat="44.87887" lon="-0.7516">
        <ele>27.5</ele>
        <time>2017-12-06T08:20:32Z</time>
      </trkpt>
      <trkpt lat="44.87884" lon="-0.75161">
        <ele>27.5</ele>
        <time>2017-12-06T08:20:33Z</time>
      </trkpt>
      <trkpt lat="44.87879" lon="-0.75164">
        <ele>27.4</ele>
        <time>2017-12-06T08:20:35Z</time>
      </trkpt>
      <trkpt lat="44.87875" lon="-0.75166">
        <ele>27.3</ele>
        <time>2017-12-06T08:20:37Z</time>
      </trkpt>
      <trkpt lat="44.87871" lon="-0.75166">
        <ele>27.2</ele>
        <time>2017-12-06T08:20:38Z</time>
      </trkpt>
      <trkpt lat="44.87868" lon="-0.75167">
        <ele>27.2</ele>
        <time>2017-12-06T08:20:39Z</time>
      </trkpt>
      <trkpt lat="44.87865" lon="-0.7517">
        <ele>27.1</ele>
        <time>2017-12-06T08:20:40Z</time>
      </trkpt>
      <trkpt lat="44.87863" lon="-0.75173">
        <ele>27</ele>
        <time>2017-12-06T08:20:41Z</time>
      </trkpt>
      <trkpt lat="44.8786" lon="-0.75176">
        <ele>27</ele>
        <time>2017-12-06T08:20:42Z</time>
      </trkpt>
      <trkpt lat="44.87857" lon="-0.75178">
        <ele>27</ele>
        <time>2017-12-06T08:20:43Z</time>
      </trkpt>
      <trkpt lat="44.87855" lon="-0.7518">
        <ele>27</ele>
        <time>2017-12-06T08:20:44Z</time>
      </trkpt>
      <trkpt lat="44.87852" lon="-0.75181">
        <ele>27</ele>
        <time>2017-12-06T08:20:45Z</time>
      </trkpt>
      <trkpt lat="44.87848" lon="-0.75181">
        <ele>27</ele>
        <time>2017-12-06T08:20:46Z</time>
      </trkpt>
      <trkpt lat="44.87845" lon="-0.75181">
        <ele>27</ele>
        <time>2017-12-06T08:20:47Z</time>
      </trkpt>
      <trkpt lat="44.87842" lon="-0.75182">
        <ele>27</ele>
        <time>2017-12-06T08:20:48Z</time>
      </trkpt>
      <trkpt lat="44.87839" lon="-0.75182">
        <ele>27.4</ele>
        <time>2017-12-06T08:20:49Z</time>
      </trkpt>
      <trkpt lat="44.87836" lon="-0.75183">
        <ele>27.6</ele>
        <time>2017-12-06T08:20:50Z</time>
      </trkpt>
      <trkpt lat="44.87833" lon="-0.75183">
        <ele>27.7</ele>
        <time>2017-12-06T08:20:51Z</time>
      </trkpt>
      <trkpt lat="44.8783" lon="-0.75182">
        <ele>27.9</ele>
        <time>2017-12-06T08:20:52Z</time>
      </trkpt>
      <trkpt lat="44.87826" lon="-0.7518">
        <ele>28</ele>
        <time>2017-12-06T08:20:53Z</time>
      </trkpt>
      <trkpt lat="44.87824" lon="-0.75178">
        <ele>28.2</ele>
        <time>2017-12-06T08:20:54Z</time>
      </trkpt>
      <trkpt lat="44.8782" lon="-0.75175">
        <ele>28.4</ele>
        <time>2017-12-06T08:20:55Z</time>
      </trkpt>
      <trkpt lat="44.87816" lon="-0.75175">
        <ele>28.5</ele>
        <time>2017-12-06T08:20:56Z</time>
      </trkpt>
      <trkpt lat="44.87812" lon="-0.75176">
        <ele>28.8</ele>
        <time>2017-12-06T08:20:57Z</time>
      </trkpt>
      <trkpt lat="44.87808" lon="-0.75178">
        <ele>29</ele>
        <time>2017-12-06T08:20:58Z</time>
      </trkpt>
      <trkpt lat="44.87802" lon="-0.75179">
        <ele>29.4</ele>
        <time>2017-12-06T08:20:59Z</time>
      </trkpt>
      <trkpt lat="44.87797" lon="-0.75178">
        <ele>29.8</ele>
        <time>2017-12-06T08:21:00Z</time>
      </trkpt>
      <trkpt lat="44.87794" lon="-0.75176">
        <ele>30.1</ele>
        <time>2017-12-06T08:21:01Z</time>
      </trkpt>
      <trkpt lat="44.87789" lon="-0.75173">
        <ele>30.4</ele>
        <time>2017-12-06T08:21:02Z</time>
      </trkpt>
      <trkpt lat="44.87785" lon="-0.7517">
        <ele>30.7</ele>
        <time>2017-12-06T08:21:03Z</time>
      </trkpt>
      <trkpt lat="44.87782" lon="-0.75168">
        <ele>30.9</ele>
        <time>2017-12-06T08:21:04Z</time>
      </trkpt>
      <trkpt lat="44.87779" lon="-0.75167">
        <ele>31</ele>
        <time>2017-12-06T08:21:05Z</time>
      </trkpt>
      <trkpt lat="44.87775" lon="-0.75166">
        <ele>31.5</ele>
        <time>2017-12-06T08:21:06Z</time>
      </trkpt>
      <trkpt lat="44.87771" lon="-0.75164">
        <ele>31.8</ele>
        <time>2017-12-06T08:21:07Z</time>
      </trkpt>
      <trkpt lat="44.87768" lon="-0.75163">
        <ele>32.1</ele>
        <time>2017-12-06T08:21:08Z</time>
      </trkpt>
      <trkpt lat="44.87765" lon="-0.75161">
        <ele>32.5</ele>
        <time>2017-12-06T08:21:09Z</time>
      </trkpt>
      <trkpt lat="44.87761" lon="-0.7516">
        <ele>32.8</ele>
        <time>2017-12-06T08:21:10Z</time>
      </trkpt>
      <trkpt lat="44.87758" lon="-0.75158">
        <ele>33.1</ele>
        <time>2017-12-06T08:21:11Z</time>
      </trkpt>
      <trkpt lat="44.87756" lon="-0.75157">
        <ele>33.4</ele>
        <time>2017-12-06T08:21:12Z</time>
      </trkpt>
      <trkpt lat="44.8775" lon="-0.75155">
        <ele>34</ele>
        <time>2017-12-06T08:21:14Z</time>
      </trkpt>
      <trkpt lat="44.87745" lon="-0.75155">
        <ele>33.8</ele>
        <time>2017-12-06T08:21:16Z</time>
      </trkpt>
      <trkpt lat="44.87741" lon="-0.75154">
        <ele>33.7</ele>
        <time>2017-12-06T08:21:17Z</time>
      </trkpt>
      <trkpt lat="44.87737" lon="-0.75153">
        <ele>33.6</ele>
        <time>2017-12-06T08:21:18Z</time>
      </trkpt>
      <trkpt lat="44.87732" lon="-0.75153">
        <ele>33.4</ele>
        <time>2017-12-06T08:21:19Z</time>
      </trkpt>
      <trkpt lat="44.87726" lon="-0.75152">
        <ele>33.4</ele>
        <time>2017-12-06T08:21:20Z</time>
      </trkpt>
      <trkpt lat="44.87719" lon="-0.75148">
        <ele>33.4</ele>
        <time>2017-12-06T08:21:21Z</time>
      </trkpt>
      <trkpt lat="44.87713" lon="-0.75144">
        <ele>33.3</ele>
        <time>2017-12-06T08:21:22Z</time>
      </trkpt>
      <trkpt lat="44.87709" lon="-0.75139">
        <ele>33.3</ele>
        <time>2017-12-06T08:21:23Z</time>
      </trkpt>
      <trkpt lat="44.87704" lon="-0.75136">
        <ele>33.3</ele>
        <time>2017-12-06T08:21:24Z</time>
      </trkpt>
      <trkpt lat="44.87699" lon="-0.75133">
        <ele>33.2</ele>
        <time>2017-12-06T08:21:25Z</time>
      </trkpt>
      <trkpt lat="44.87695" lon="-0.7513">
        <ele>33.2</ele>
        <time>2017-12-06T08:21:26Z</time>
      </trkpt>
      <trkpt lat="44.87692" lon="-0.75127">
        <ele>33.2</ele>
        <time>2017-12-06T08:21:27Z</time>
      </trkpt>
      <trkpt lat="44.87689" lon="-0.75125">
        <ele>33.2</ele>
        <time>2017-12-06T08:21:28Z</time>
      </trkpt>
      <trkpt lat="44.87687" lon="-0.75123">
        <ele>33.1</ele>
        <time>2017-12-06T08:21:30Z</time>
      </trkpt>
      <trkpt lat="44.87683" lon="-0.7512">
        <ele>33.1</ele>
        <time>2017-12-06T08:21:32Z</time>
      </trkpt>
      <trkpt lat="44.8768" lon="-0.75118">
        <ele>33.1</ele>
        <time>2017-12-06T08:21:33Z</time>
      </trkpt>
      <trkpt lat="44.87679" lon="-0.75114">
        <ele>33.1</ele>
        <time>2017-12-06T08:21:35Z</time>
      </trkpt>
      <trkpt lat="44.87674" lon="-0.75111">
        <ele>33.1</ele>
        <time>2017-12-06T08:21:37Z</time>
      </trkpt>
      <trkpt lat="44.87669" lon="-0.7511">
        <ele>33</ele>
        <time>2017-12-06T08:21:39Z</time>
      </trkpt>
      <trkpt lat="44.87666" lon="-0.75111">
        <ele>33</ele>
        <time>2017-12-06T08:21:40Z</time>
      </trkpt>
      <trkpt lat="44.87662" lon="-0.75112">
        <ele>33</ele>
        <time>2017-12-06T08:21:41Z</time>
      </trkpt>
      <trkpt lat="44.87657" lon="-0.75113">
        <ele>33</ele>
        <time>2017-12-06T08:21:42Z</time>
      </trkpt>
      <trkpt lat="44.87653" lon="-0.75113">
        <ele>33</ele>
        <time>2017-12-06T08:21:43Z</time>
      </trkpt>
      <trkpt lat="44.8765" lon="-0.75114">
        <ele>33.2</ele>
        <time>2017-12-06T08:21:44Z</time>
      </trkpt>
      <trkpt lat="44.87645" lon="-0.75114">
        <ele>33.5</ele>
        <time>2017-12-06T08:21:46Z</time>
      </trkpt>
      <trkpt lat="44.87642" lon="-0.75114">
        <ele>33.7</ele>
        <time>2017-12-06T08:21:48Z</time>
      </trkpt>
      <trkpt lat="44.87641" lon="-0.7511">
        <ele>31.4</ele>
        <time>2017-12-06T08:22:10Z</time>
      </trkpt>
      <trkpt lat="44.87638" lon="-0.75111">
        <ele>29.3</ele>
        <time>2017-12-06T08:22:16Z</time>
      </trkpt>
      <trkpt lat="44.87635" lon="-0.75112">
        <ele>29.4</ele>
        <time>2017-12-06T08:22:17Z</time>
      </trkpt>
      <trkpt lat="44.87632" lon="-0.75114">
        <ele>29.4</ele>
        <time>2017-12-06T08:22:18Z</time>
      </trkpt>
      <trkpt lat="44.8763" lon="-0.75116">
        <ele>29.5</ele>
        <time>2017-12-06T08:22:19Z</time>
      </trkpt>
      <trkpt lat="44.87628" lon="-0.75123">
        <ele>29.5</ele>
        <time>2017-12-06T08:22:21Z</time>
      </trkpt>
      <trkpt lat="44.87627" lon="-0.75131">
        <ele>29.6</ele>
        <time>2017-12-06T08:22:23Z</time>
      </trkpt>
      <trkpt lat="44.87627" lon="-0.75135">
        <ele>29.6</ele>
        <time>2017-12-06T08:22:24Z</time>
      </trkpt>
      <trkpt lat="44.87625" lon="-0.7514">
        <ele>29.6</ele>
        <time>2017-12-06T08:22:25Z</time>
      </trkpt>
      <trkpt lat="44.87624" lon="-0.75145">
        <ele>29.6</ele>
        <time>2017-12-06T08:22:26Z</time>
      </trkpt>
      <trkpt lat="44.87622" lon="-0.7515">
        <ele>29.6</ele>
        <time>2017-12-06T08:22:27Z</time>
      </trkpt>
      <trkpt lat="44.8762" lon="-0.75155">
        <ele>29.6</ele>
        <time>2017-12-06T08:22:28Z</time>
      </trkpt>
      <trkpt lat="44.87619" lon="-0.75159">
        <ele>29.5</ele>
        <time>2017-12-06T08:22:29Z</time>
      </trkpt>
      <trkpt lat="44.87616" lon="-0.75162">
        <ele>29.5</ele>
        <time>2017-12-06T08:22:30Z</time>
      </trkpt>
      <trkpt lat="44.87614" lon="-0.75166">
        <ele>29.5</ele>
        <time>2017-12-06T08:22:31Z</time>
      </trkpt>
      <trkpt lat="44.87613" lon="-0.75171">
        <ele>29.5</ele>
        <time>2017-12-06T08:22:32Z</time>
      </trkpt>
      <trkpt lat="44.87611" lon="-0.75177">
        <ele>29.4</ele>
        <time>2017-12-06T08:22:33Z</time>
      </trkpt>
      <trkpt lat="44.87609" lon="-0.75184">
        <ele>29.4</ele>
        <time>2017-12-06T08:22:34Z</time>
      </trkpt>
      <trkpt lat="44.87608" lon="-0.7519">
        <ele>29.3</ele>
        <time>2017-12-06T08:22:35Z</time>
      </trkpt>
      <trkpt lat="44.87606" lon="-0.75196">
        <ele>29.3</ele>
        <time>2017-12-06T08:22:36Z</time>
      </trkpt>
      <trkpt lat="44.87604" lon="-0.75202">
        <ele>29.3</ele>
        <time>2017-12-06T08:22:37Z</time>
      </trkpt>
      <trkpt lat="44.87602" lon="-0.75207">
        <ele>29.2</ele>
        <time>2017-12-06T08:22:38Z</time>
      </trkpt>
      <trkpt lat="44.876" lon="-0.75212">
        <ele>29.2</ele>
        <time>2017-12-06T08:22:39Z</time>
      </trkpt>
      <trkpt lat="44.87598" lon="-0.75217">
        <ele>29.1</ele>
        <time>2017-12-06T08:22:40Z</time>
      </trkpt>
      <trkpt lat="44.87596" lon="-0.75221">
        <ele>29</ele>
        <time>2017-12-06T08:22:41Z</time>
      </trkpt>
      <trkpt lat="44.87593" lon="-0.75226">
        <ele>28.9</ele>
        <time>2017-12-06T08:22:43Z</time>
      </trkpt>
      <trkpt lat="44.87591" lon="-0.75229">
        <ele>28.8</ele>
        <time>2017-12-06T08:22:45Z</time>
      </trkpt>
      <trkpt lat="44.87588" lon="-0.75235">
        <ele>28.6</ele>
        <time>2017-12-06T08:22:47Z</time>
      </trkpt>
      <trkpt lat="44.87586" lon="-0.75238">
        <ele>28.5</ele>
        <time>2017-12-06T08:22:48Z</time>
      </trkpt>
      <trkpt lat="44.87584" lon="-0.75242">
        <ele>28.3</ele>
        <time>2017-12-06T08:22:49Z</time>
      </trkpt>
      <trkpt lat="44.87583" lon="-0.75247">
        <ele>28.2</ele>
        <time>2017-12-06T08:22:50Z</time>
      </trkpt>
      <trkpt lat="44.87582" lon="-0.75252">
        <ele>28</ele>
        <time>2017-12-06T08:22:51Z</time>
      </trkpt>
      <trkpt lat="44.87582" lon="-0.75258">
        <ele>27.9</ele>
        <time>2017-12-06T08:22:52Z</time>
      </trkpt>
      <trkpt lat="44.87582" lon="-0.75263">
        <ele>27.7</ele>
        <time>2017-12-06T08:22:53Z</time>
      </trkpt>
      <trkpt lat="44.87582" lon="-0.75269">
        <ele>27.5</ele>
        <time>2017-12-06T08:22:54Z</time>
      </trkpt>
      <trkpt lat="44.87583" lon="-0.75275">
        <ele>27.3</ele>
        <time>2017-12-06T08:22:55Z</time>
      </trkpt>
      <trkpt lat="44.87584" lon="-0.75281">
        <ele>27</ele>
        <time>2017-12-06T08:22:56Z</time>
      </trkpt>
      <trkpt lat="44.87586" lon="-0.75287">
        <ele>26.8</ele>
        <time>2017-12-06T08:22:57Z</time>
      </trkpt>
      <trkpt lat="44.87588" lon="-0.75292">
        <ele>26.6</ele>
        <time>2017-12-06T08:22:58Z</time>
      </trkpt>
      <trkpt lat="44.8759" lon="-0.75298">
        <ele>26.4</ele>
        <time>2017-12-06T08:22:59Z</time>
      </trkpt>
      <trkpt lat="44.87591" lon="-0.75303">
        <ele>26.2</ele>
        <time>2017-12-06T08:23:00Z</time>
      </trkpt>
      <trkpt lat="44.87593" lon="-0.75309">
        <ele>26</ele>
        <time>2017-12-06T08:23:01Z</time>
      </trkpt>
      <trkpt lat="44.87594" lon="-0.75314">
        <ele>25.8</ele>
        <time>2017-12-06T08:23:02Z</time>
      </trkpt>
      <trkpt lat="44.87595" lon="-0.75321">
        <ele>25.7</ele>
        <time>2017-12-06T08:23:03Z</time>
      </trkpt>
      <trkpt lat="44.87597" lon="-0.75328">
        <ele>25.4</ele>
        <time>2017-12-06T08:23:04Z</time>
      </trkpt>
      <trkpt lat="44.87598" lon="-0.75335">
        <ele>25.3</ele>
        <time>2017-12-06T08:23:05Z</time>
      </trkpt>
      <trkpt lat="44.87599" lon="-0.75341">
        <ele>25.1</ele>
        <time>2017-12-06T08:23:06Z</time>
      </trkpt>
      <trkpt lat="44.87599" lon="-0.75348">
        <ele>24.9</ele>
        <time>2017-12-06T08:23:07Z</time>
      </trkpt>
      <trkpt lat="44.87598" lon="-0.75354">
        <ele>24.8</ele>
        <time>2017-12-06T08:23:08Z</time>
      </trkpt>
      <trkpt lat="44.87595" lon="-0.75358">
        <ele>24.6</ele>
        <time>2017-12-06T08:23:09Z</time>
      </trkpt>
      <trkpt lat="44.87592" lon="-0.75364">
        <ele>24.5</ele>
        <time>2017-12-06T08:23:10Z</time>
      </trkpt>
      <trkpt lat="44.8759" lon="-0.75371">
        <ele>24.4</ele>
        <time>2017-12-06T08:23:11Z</time>
      </trkpt>
      <trkpt lat="44.87587" lon="-0.75378">
        <ele>24.3</ele>
        <time>2017-12-06T08:23:12Z</time>
      </trkpt>
      <trkpt lat="44.87583" lon="-0.75383">
        <ele>24.3</ele>
        <time>2017-12-06T08:23:13Z</time>
      </trkpt>
      <trkpt lat="44.87582" lon="-0.75387">
        <ele>24.3</ele>
        <time>2017-12-06T08:23:14Z</time>
      </trkpt>
      <trkpt lat="44.87578" lon="-0.7539">
        <ele>24.4</ele>
        <time>2017-12-06T08:23:15Z</time>
      </trkpt>
      <trkpt lat="44.87575" lon="-0.75393">
        <ele>24.4</ele>
        <time>2017-12-06T08:23:16Z</time>
      </trkpt>
      <trkpt lat="44.87572" lon="-0.75393">
        <ele>24.4</ele>
        <time>2017-12-06T08:23:17Z</time>
      </trkpt>
      <trkpt lat="44.87565" lon="-0.7539">
        <ele>24.4</ele>
        <time>2017-12-06T08:23:19Z</time>
      </trkpt>
      <trkpt lat="44.87561" lon="-0.75388">
        <ele>24.4</ele>
        <time>2017-12-06T08:23:20Z</time>
      </trkpt>
      <trkpt lat="44.87556" lon="-0.75388">
        <ele>24.4</ele>
        <time>2017-12-06T08:23:21Z</time>
      </trkpt>
      <trkpt lat="44.87552" lon="-0.75388">
        <ele>24.4</ele>
        <time>2017-12-06T08:23:22Z</time>
      </trkpt>
      <trkpt lat="44.87548" lon="-0.75388">
        <ele>24.3</ele>
        <time>2017-12-06T08:23:23Z</time>
      </trkpt>
      <trkpt lat="44.87543" lon="-0.75389">
        <ele>24.3</ele>
        <time>2017-12-06T08:23:24Z</time>
      </trkpt>
      <trkpt lat="44.87538" lon="-0.75389">
        <ele>24.2</ele>
        <time>2017-12-06T08:23:25Z</time>
      </trkpt>
      <trkpt lat="44.87534" lon="-0.75391">
        <ele>24</ele>
        <time>2017-12-06T08:23:26Z</time>
      </trkpt>
      <trkpt lat="44.87529" lon="-0.75392">
        <ele>24</ele>
        <time>2017-12-06T08:23:27Z</time>
      </trkpt>
      <trkpt lat="44.87525" lon="-0.75394">
        <ele>24.1</ele>
        <time>2017-12-06T08:23:28Z</time>
      </trkpt>
      <trkpt lat="44.87523" lon="-0.75397">
        <ele>24.1</ele>
        <time>2017-12-06T08:23:29Z</time>
      </trkpt>
      <trkpt lat="44.8752" lon="-0.75401">
        <ele>24.1</ele>
        <time>2017-12-06T08:23:30Z</time>
      </trkpt>
      <trkpt lat="44.87516" lon="-0.75404">
        <ele>24.1</ele>
        <time>2017-12-06T08:23:31Z</time>
      </trkpt>
      <trkpt lat="44.87512" lon="-0.75407">
        <ele>24.2</ele>
        <time>2017-12-06T08:23:32Z</time>
      </trkpt>
      <trkpt lat="44.87508" lon="-0.75411">
        <ele>24.2</ele>
        <time>2017-12-06T08:23:33Z</time>
      </trkpt>
      <trkpt lat="44.87504" lon="-0.75414">
        <ele>24.3</ele>
        <time>2017-12-06T08:23:34Z</time>
      </trkpt>
      <trkpt lat="44.875" lon="-0.75418">
        <ele>24.3</ele>
        <time>2017-12-06T08:23:35Z</time>
      </trkpt>
      <trkpt lat="44.87496" lon="-0.75417">
        <ele>24.3</ele>
        <time>2017-12-06T08:23:36Z</time>
      </trkpt>
      <trkpt lat="44.87491" lon="-0.7542">
        <ele>24.4</ele>
        <time>2017-12-06T08:23:37Z</time>
      </trkpt>
      <trkpt lat="44.87486" lon="-0.75421">
        <ele>24.4</ele>
        <time>2017-12-06T08:23:38Z</time>
      </trkpt>
      <trkpt lat="44.87482" lon="-0.75422">
        <ele>24.5</ele>
        <time>2017-12-06T08:23:39Z</time>
      </trkpt>
      <trkpt lat="44.87478" lon="-0.75424">
        <ele>24.5</ele>
        <time>2017-12-06T08:23:40Z</time>
      </trkpt>
      <trkpt lat="44.87475" lon="-0.75426">
        <ele>24.5</ele>
        <time>2017-12-06T08:23:41Z</time>
      </trkpt>
      <trkpt lat="44.87471" lon="-0.75428">
        <ele>24.5</ele>
        <time>2017-12-06T08:23:42Z</time>
      </trkpt>
      <trkpt lat="44.87467" lon="-0.7543">
        <ele>24.6</ele>
        <time>2017-12-06T08:23:43Z</time>
      </trkpt>
      <trkpt lat="44.87463" lon="-0.75431">
        <ele>24.6</ele>
        <time>2017-12-06T08:23:44Z</time>
      </trkpt>
      <trkpt lat="44.87459" lon="-0.75433">
        <ele>24.6</ele>
        <time>2017-12-06T08:23:45Z</time>
      </trkpt>
      <trkpt lat="44.87455" lon="-0.75435">
        <ele>24.6</ele>
        <time>2017-12-06T08:23:46Z</time>
      </trkpt>
      <trkpt lat="44.8745" lon="-0.75438">
        <ele>24.6</ele>
        <time>2017-12-06T08:23:47Z</time>
      </trkpt>
      <trkpt lat="44.87445" lon="-0.75441">
        <ele>24.7</ele>
        <time>2017-12-06T08:23:48Z</time>
      </trkpt>
      <trkpt lat="44.87441" lon="-0.75445">
        <ele>24.7</ele>
        <time>2017-12-06T08:23:49Z</time>
      </trkpt>
      <trkpt lat="44.87437" lon="-0.75448">
        <ele>24.7</ele>
        <time>2017-12-06T08:23:50Z</time>
      </trkpt>
      <trkpt lat="44.87433" lon="-0.75452">
        <ele>24.8</ele>
        <time>2017-12-06T08:23:51Z</time>
      </trkpt>
      <trkpt lat="44.8743" lon="-0.75458">
        <ele>24.8</ele>
        <time>2017-12-06T08:23:52Z</time>
      </trkpt>
      <trkpt lat="44.87428" lon="-0.75462">
        <ele>24.9</ele>
        <time>2017-12-06T08:23:53Z</time>
      </trkpt>
      <trkpt lat="44.87426" lon="-0.7547">
        <ele>25</ele>
        <time>2017-12-06T08:23:54Z</time>
      </trkpt>
      <trkpt lat="44.87426" lon="-0.75477">
        <ele>25</ele>
        <time>2017-12-06T08:23:55Z</time>
      </trkpt>
      <trkpt lat="44.87425" lon="-0.75483">
        <ele>25</ele>
        <time>2017-12-06T08:23:56Z</time>
      </trkpt>
      <trkpt lat="44.87424" lon="-0.75488">
        <ele>25</ele>
        <time>2017-12-06T08:23:57Z</time>
      </trkpt>
      <trkpt lat="44.87421" lon="-0.75492">
        <ele>25.1</ele>
        <time>2017-12-06T08:23:58Z</time>
      </trkpt>
      <trkpt lat="44.87418" lon="-0.75496">
        <ele>25.1</ele>
        <time>2017-12-06T08:23:59Z</time>
      </trkpt>
      <trkpt lat="44.87415" lon="-0.75501">
        <ele>25.1</ele>
        <time>2017-12-06T08:24:00Z</time>
      </trkpt>
      <trkpt lat="44.87413" lon="-0.75507">
        <ele>25.2</ele>
        <time>2017-12-06T08:24:01Z</time>
      </trkpt>
      <trkpt lat="44.8741" lon="-0.75513">
        <ele>25.2</ele>
        <time>2017-12-06T08:24:02Z</time>
      </trkpt>
      <trkpt lat="44.87407" lon="-0.75518">
        <ele>25.2</ele>
        <time>2017-12-06T08:24:03Z</time>
      </trkpt>
      <trkpt lat="44.87402" lon="-0.75523">
        <ele>25.3</ele>
        <time>2017-12-06T08:24:04Z</time>
      </trkpt>
      <trkpt lat="44.87401" lon="-0.7553">
        <ele>25.3</ele>
        <time>2017-12-06T08:24:05Z</time>
      </trkpt>
      <trkpt lat="44.87401" lon="-0.75536">
        <ele>25.3</ele>
        <time>2017-12-06T08:24:06Z</time>
      </trkpt>
      <trkpt lat="44.874" lon="-0.75543">
        <ele>25.4</ele>
        <time>2017-12-06T08:24:07Z</time>
      </trkpt>
      <trkpt lat="44.87404" lon="-0.75547">
        <ele>25.4</ele>
        <time>2017-12-06T08:24:08Z</time>
      </trkpt>
      <trkpt lat="44.87407" lon="-0.75553">
        <ele>25.4</ele>
        <time>2017-12-06T08:24:09Z</time>
      </trkpt>
      <trkpt lat="44.87409" lon="-0.75557">
        <ele>25.5</ele>
        <time>2017-12-06T08:24:10Z</time>
      </trkpt>
      <trkpt lat="44.87411" lon="-0.75561">
        <ele>25.5</ele>
        <time>2017-12-06T08:24:11Z</time>
      </trkpt>
      <trkpt lat="44.87412" lon="-0.75566">
        <ele>25.5</ele>
        <time>2017-12-06T08:24:12Z</time>
      </trkpt>
      <trkpt lat="44.87414" lon="-0.75572">
        <ele>25.5</ele>
        <time>2017-12-06T08:24:13Z</time>
      </trkpt>
      <trkpt lat="44.87415" lon="-0.75577">
        <ele>25.6</ele>
        <time>2017-12-06T08:24:14Z</time>
      </trkpt>
      <trkpt lat="44.87416" lon="-0.75583">
        <ele>25.6</ele>
        <time>2017-12-06T08:24:15Z</time>
      </trkpt>
      <trkpt lat="44.87417" lon="-0.75588">
        <ele>26.5</ele>
        <time>2017-12-06T08:24:16Z</time>
      </trkpt>
      <trkpt lat="44.87419" lon="-0.75593">
        <ele>27.3</ele>
        <time>2017-12-06T08:24:17Z</time>
      </trkpt>
      <trkpt lat="44.87423" lon="-0.75597">
        <ele>27.4</ele>
        <time>2017-12-06T08:24:18Z</time>
      </trkpt>
      <trkpt lat="44.87426" lon="-0.75602">
        <ele>27.4</ele>
        <time>2017-12-06T08:24:19Z</time>
      </trkpt>
      <trkpt lat="44.87428" lon="-0.75608">
        <ele>27.4</ele>
        <time>2017-12-06T08:24:20Z</time>
      </trkpt>
      <trkpt lat="44.87431" lon="-0.75614">
        <ele>27.5</ele>
        <time>2017-12-06T08:24:21Z</time>
      </trkpt>
      <trkpt lat="44.87435" lon="-0.75619">
        <ele>27.4</ele>
        <time>2017-12-06T08:24:22Z</time>
      </trkpt>
      <trkpt lat="44.87438" lon="-0.75624">
        <ele>27.4</ele>
        <time>2017-12-06T08:24:23Z</time>
      </trkpt>
      <trkpt lat="44.87439" lon="-0.75627">
        <ele>27.3</ele>
        <time>2017-12-06T08:24:24Z</time>
      </trkpt>
      <trkpt lat="44.87441" lon="-0.75631">
        <ele>27.2</ele>
        <time>2017-12-06T08:24:25Z</time>
      </trkpt>
      <trkpt lat="44.87444" lon="-0.75636">
        <ele>27.1</ele>
        <time>2017-12-06T08:24:27Z</time>
      </trkpt>
      <trkpt lat="44.87445" lon="-0.7564">
        <ele>26.9</ele>
        <time>2017-12-06T08:24:28Z</time>
      </trkpt>
      <trkpt lat="44.87446" lon="-0.75646">
        <ele>26.7</ele>
        <time>2017-12-06T08:24:29Z</time>
      </trkpt>
      <trkpt lat="44.87446" lon="-0.75651">
        <ele>26.5</ele>
        <time>2017-12-06T08:24:30Z</time>
      </trkpt>
      <trkpt lat="44.87447" lon="-0.75657">
        <ele>26.3</ele>
        <time>2017-12-06T08:24:31Z</time>
      </trkpt>
      <trkpt lat="44.87447" lon="-0.75664">
        <ele>26.1</ele>
        <time>2017-12-06T08:24:32Z</time>
      </trkpt>
      <trkpt lat="44.87447" lon="-0.7567">
        <ele>26</ele>
        <time>2017-12-06T08:24:33Z</time>
      </trkpt>
      <trkpt lat="44.87448" lon="-0.75676">
        <ele>26</ele>
        <time>2017-12-06T08:24:34Z</time>
      </trkpt>
      <trkpt lat="44.8745" lon="-0.75682">
        <ele>26.1</ele>
        <time>2017-12-06T08:24:35Z</time>
      </trkpt>
      <trkpt lat="44.87452" lon="-0.75688">
        <ele>26.1</ele>
        <time>2017-12-06T08:24:36Z</time>
      </trkpt>
      <trkpt lat="44.87454" lon="-0.75694">
        <ele>26.2</ele>
        <time>2017-12-06T08:24:37Z</time>
      </trkpt>
      <trkpt lat="44.87455" lon="-0.757">
        <ele>26.2</ele>
        <time>2017-12-06T08:24:38Z</time>
      </trkpt>
      <trkpt lat="44.87457" lon="-0.75708">
        <ele>26.3</ele>
        <time>2017-12-06T08:24:39Z</time>
      </trkpt>
      <trkpt lat="44.87459" lon="-0.75713">
        <ele>26.4</ele>
        <time>2017-12-06T08:24:40Z</time>
      </trkpt>
      <trkpt lat="44.87464" lon="-0.75721">
        <ele>26.5</ele>
        <time>2017-12-06T08:24:41Z</time>
      </trkpt>
      <trkpt lat="44.87468" lon="-0.75727">
        <ele>26.6</ele>
        <time>2017-12-06T08:24:42Z</time>
      </trkpt>
      <trkpt lat="44.8747" lon="-0.7573">
        <ele>26.6</ele>
        <time>2017-12-06T08:24:43Z</time>
      </trkpt>
      <trkpt lat="44.87472" lon="-0.75735">
        <ele>26.6</ele>
        <time>2017-12-06T08:24:44Z</time>
      </trkpt>
      <trkpt lat="44.87473" lon="-0.7574">
        <ele>26.7</ele>
        <time>2017-12-06T08:24:45Z</time>
      </trkpt>
      <trkpt lat="44.87473" lon="-0.75746">
        <ele>26.8</ele>
        <time>2017-12-06T08:24:46Z</time>
      </trkpt>
      <trkpt lat="44.87473" lon="-0.75753">
        <ele>26.8</ele>
        <time>2017-12-06T08:24:47Z</time>
      </trkpt>
      <trkpt lat="44.87474" lon="-0.75761">
        <ele>26.9</ele>
        <time>2017-12-06T08:24:48Z</time>
      </trkpt>
      <trkpt lat="44.87476" lon="-0.75768">
        <ele>27</ele>
        <time>2017-12-06T08:24:49Z</time>
      </trkpt>
      <trkpt lat="44.87477" lon="-0.75774">
        <ele>27.1</ele>
        <time>2017-12-06T08:24:50Z</time>
      </trkpt>
      <trkpt lat="44.8748" lon="-0.7578">
        <ele>27.3</ele>
        <time>2017-12-06T08:24:51Z</time>
      </trkpt>
      <trkpt lat="44.87482" lon="-0.75786">
        <ele>27.4</ele>
        <time>2017-12-06T08:24:52Z</time>
      </trkpt>
      <trkpt lat="44.87485" lon="-0.75791">
        <ele>27.5</ele>
        <time>2017-12-06T08:24:53Z</time>
      </trkpt>
      <trkpt lat="44.87487" lon="-0.75797">
        <ele>27.7</ele>
        <time>2017-12-06T08:24:54Z</time>
      </trkpt>
      <trkpt lat="44.8749" lon="-0.75801">
        <ele>27.8</ele>
        <time>2017-12-06T08:24:55Z</time>
      </trkpt>
      <trkpt lat="44.87492" lon="-0.75806">
        <ele>27.9</ele>
        <time>2017-12-06T08:24:56Z</time>
      </trkpt>
      <trkpt lat="44.87495" lon="-0.7581">
        <ele>28</ele>
        <time>2017-12-06T08:24:57Z</time>
      </trkpt>
      <trkpt lat="44.87497" lon="-0.75815">
        <ele>28.1</ele>
        <time>2017-12-06T08:24:58Z</time>
      </trkpt>
      <trkpt lat="44.87499" lon="-0.7582">
        <ele>28.2</ele>
        <time>2017-12-06T08:24:59Z</time>
      </trkpt>
      <trkpt lat="44.87499" lon="-0.75826">
        <ele>28.4</ele>
        <time>2017-12-06T08:25:00Z</time>
      </trkpt>
      <trkpt lat="44.87498" lon="-0.75832">
        <ele>28.6</ele>
        <time>2017-12-06T08:25:01Z</time>
      </trkpt>
      <trkpt lat="44.87499" lon="-0.7584">
        <ele>28.7</ele>
        <time>2017-12-06T08:25:02Z</time>
      </trkpt>
      <trkpt lat="44.87501" lon="-0.75845">
        <ele>28.8</ele>
        <time>2017-12-06T08:25:03Z</time>
      </trkpt>
      <trkpt lat="44.87503" lon="-0.75851">
        <ele>28.9</ele>
        <time>2017-12-06T08:25:04Z</time>
      </trkpt>
      <trkpt lat="44.87504" lon="-0.75857">
        <ele>29.1</ele>
        <time>2017-12-06T08:25:05Z</time>
      </trkpt>
      <trkpt lat="44.87506" lon="-0.75863">
        <ele>29.1</ele>
        <time>2017-12-06T08:25:06Z</time>
      </trkpt>
      <trkpt lat="44.87507" lon="-0.75869">
        <ele>29.2</ele>
        <time>2017-12-06T08:25:07Z</time>
      </trkpt>
      <trkpt lat="44.87507" lon="-0.75875">
        <ele>29.3</ele>
        <time>2017-12-06T08:25:08Z</time>
      </trkpt>
      <trkpt lat="44.87508" lon="-0.75881">
        <ele>29.3</ele>
        <time>2017-12-06T08:25:09Z</time>
      </trkpt>
      <trkpt lat="44.87508" lon="-0.75887">
        <ele>29.4</ele>
        <time>2017-12-06T08:25:10Z</time>
      </trkpt>
      <trkpt lat="44.87508" lon="-0.75892">
        <ele>29.4</ele>
        <time>2017-12-06T08:25:11Z</time>
      </trkpt>
      <trkpt lat="44.87506" lon="-0.75897">
        <ele>29.5</ele>
        <time>2017-12-06T08:25:12Z</time>
      </trkpt>
      <trkpt lat="44.87503" lon="-0.75902">
        <ele>29.5</ele>
        <time>2017-12-06T08:25:13Z</time>
      </trkpt>
      <trkpt lat="44.87499" lon="-0.75907">
        <ele>29.5</ele>
        <time>2017-12-06T08:25:14Z</time>
      </trkpt>
      <trkpt lat="44.87497" lon="-0.75911">
        <ele>29.3</ele>
        <time>2017-12-06T08:25:15Z</time>
      </trkpt>
      <trkpt lat="44.87496" lon="-0.75915">
        <ele>29.3</ele>
        <time>2017-12-06T08:25:16Z</time>
      </trkpt>
      <trkpt lat="44.87497" lon="-0.75919">
        <ele>29.2</ele>
        <time>2017-12-06T08:25:17Z</time>
      </trkpt>
      <trkpt lat="44.87496" lon="-0.75923">
        <ele>29.1</ele>
        <time>2017-12-06T08:25:22Z</time>
      </trkpt>
      <trkpt lat="44.87496" lon="-0.75929">
        <ele>29</ele>
        <time>2017-12-06T08:25:25Z</time>
      </trkpt>
      <trkpt lat="44.87497" lon="-0.75936">
        <ele>29</ele>
        <time>2017-12-06T08:25:27Z</time>
      </trkpt>
      <trkpt lat="44.87497" lon="-0.7594">
        <ele>29</ele>
        <time>2017-12-06T08:25:28Z</time>
      </trkpt>
      <trkpt lat="44.87498" lon="-0.75944">
        <ele>29</ele>
        <time>2017-12-06T08:25:29Z</time>
      </trkpt>
      <trkpt lat="44.87499" lon="-0.75948">
        <ele>29</ele>
        <time>2017-12-06T08:25:30Z</time>
      </trkpt>
      <trkpt lat="44.87499" lon="-0.75953">
        <ele>29</ele>
        <time>2017-12-06T08:25:31Z</time>
      </trkpt>
      <trkpt lat="44.875" lon="-0.75959">
        <ele>29</ele>
        <time>2017-12-06T08:25:32Z</time>
      </trkpt>
      <trkpt lat="44.87502" lon="-0.75963">
        <ele>29</ele>
        <time>2017-12-06T08:25:33Z</time>
      </trkpt>
      <trkpt lat="44.87503" lon="-0.75968">
        <ele>28.9</ele>
        <time>2017-12-06T08:25:34Z</time>
      </trkpt>
      <trkpt lat="44.87504" lon="-0.75974">
        <ele>28.9</ele>
        <time>2017-12-06T08:25:35Z</time>
      </trkpt>
      <trkpt lat="44.87505" lon="-0.75981">
        <ele>28.9</ele>
        <time>2017-12-06T08:25:36Z</time>
      </trkpt>
      <trkpt lat="44.87505" lon="-0.75987">
        <ele>28.8</ele>
        <time>2017-12-06T08:25:37Z</time>
      </trkpt>
      <trkpt lat="44.87505" lon="-0.75994">
        <ele>28.8</ele>
        <time>2017-12-06T08:25:38Z</time>
      </trkpt>
      <trkpt lat="44.87504" lon="-0.76">
        <ele>28.9</ele>
        <time>2017-12-06T08:25:39Z</time>
      </trkpt>
      <trkpt lat="44.87502" lon="-0.76006">
        <ele>29</ele>
        <time>2017-12-06T08:25:40Z</time>
      </trkpt>
      <trkpt lat="44.87499" lon="-0.76012">
        <ele>29</ele>
        <time>2017-12-06T08:25:41Z</time>
      </trkpt>
      <trkpt lat="44.87496" lon="-0.76018">
        <ele>29</ele>
        <time>2017-12-06T08:25:42Z</time>
      </trkpt>
      <trkpt lat="44.87492" lon="-0.76022">
        <ele>29</ele>
        <time>2017-12-06T08:25:43Z</time>
      </trkpt>
      <trkpt lat="44.87489" lon="-0.76024">
        <ele>29.1</ele>
        <time>2017-12-06T08:25:44Z</time>
      </trkpt>
      <trkpt lat="44.87485" lon="-0.76027">
        <ele>29.1</ele>
        <time>2017-12-06T08:25:45Z</time>
      </trkpt>
      <trkpt lat="44.87482" lon="-0.7603">
        <ele>29</ele>
        <time>2017-12-06T08:25:46Z</time>
      </trkpt>
      <trkpt lat="44.87478" lon="-0.76033">
        <ele>28.9</ele>
        <time>2017-12-06T08:25:47Z</time>
      </trkpt>
      <trkpt lat="44.87473" lon="-0.76036">
        <ele>28.9</ele>
        <time>2017-12-06T08:25:48Z</time>
      </trkpt>
      <trkpt lat="44.87468" lon="-0.7604">
        <ele>28.8</ele>
        <time>2017-12-06T08:25:49Z</time>
      </trkpt>
      <trkpt lat="44.87464" lon="-0.76044">
        <ele>28.7</ele>
        <time>2017-12-06T08:25:50Z</time>
      </trkpt>
      <trkpt lat="44.8746" lon="-0.76048">
        <ele>28.6</ele>
        <time>2017-12-06T08:25:51Z</time>
      </trkpt>
      <trkpt lat="44.87457" lon="-0.76053">
        <ele>28.5</ele>
        <time>2017-12-06T08:25:52Z</time>
      </trkpt>
      <trkpt lat="44.87456" lon="-0.76059">
        <ele>28.4</ele>
        <time>2017-12-06T08:25:53Z</time>
      </trkpt>
      <trkpt lat="44.87453" lon="-0.76063">
        <ele>28.3</ele>
        <time>2017-12-06T08:25:54Z</time>
      </trkpt>
      <trkpt lat="44.8745" lon="-0.76063">
        <ele>28.3</ele>
        <time>2017-12-06T08:25:55Z</time>
      </trkpt>
      <trkpt lat="44.87448" lon="-0.76065">
        <ele>28.2</ele>
        <time>2017-12-06T08:25:56Z</time>
      </trkpt>
      <trkpt lat="44.87444" lon="-0.76069">
        <ele>28</ele>
        <time>2017-12-06T08:25:57Z</time>
      </trkpt>
      <trkpt lat="44.87439" lon="-0.76075">
        <ele>27.9</ele>
        <time>2017-12-06T08:25:58Z</time>
      </trkpt>
      <trkpt lat="44.87437" lon="-0.76081">
        <ele>27.8</ele>
        <time>2017-12-06T08:25:59Z</time>
      </trkpt>
      <trkpt lat="44.87437" lon="-0.76088">
        <ele>27.7</ele>
        <time>2017-12-06T08:26:00Z</time>
      </trkpt>
      <trkpt lat="44.87438" lon="-0.76095">
        <ele>27.7</ele>
        <time>2017-12-06T08:26:01Z</time>
      </trkpt>
      <trkpt lat="44.87439" lon="-0.76101">
        <ele>27.8</ele>
        <time>2017-12-06T08:26:02Z</time>
      </trkpt>
      <trkpt lat="44.87441" lon="-0.76108">
        <ele>27.9</ele>
        <time>2017-12-06T08:26:03Z</time>
      </trkpt>
      <trkpt lat="44.87443" lon="-0.76114">
        <ele>27.9</ele>
        <time>2017-12-06T08:26:04Z</time>
      </trkpt>
      <trkpt lat="44.87445" lon="-0.76121">
        <ele>28</ele>
        <time>2017-12-06T08:26:05Z</time>
      </trkpt>
      <trkpt lat="44.87448" lon="-0.76126">
        <ele>28</ele>
        <time>2017-12-06T08:26:06Z</time>
      </trkpt>
      <trkpt lat="44.87451" lon="-0.76131">
        <ele>28</ele>
        <time>2017-12-06T08:26:07Z</time>
      </trkpt>
      <trkpt lat="44.87453" lon="-0.76135">
        <ele>28.1</ele>
        <time>2017-12-06T08:26:08Z</time>
      </trkpt>
      <trkpt lat="44.87455" lon="-0.76139">
        <ele>28.1</ele>
        <time>2017-12-06T08:26:09Z</time>
      </trkpt>
      <trkpt lat="44.87456" lon="-0.76146">
        <ele>28.2</ele>
        <time>2017-12-06T08:26:10Z</time>
      </trkpt>
      <trkpt lat="44.87458" lon="-0.76152">
        <ele>28.2</ele>
        <time>2017-12-06T08:26:11Z</time>
      </trkpt>
      <trkpt lat="44.87461" lon="-0.76157">
        <ele>28.3</ele>
        <time>2017-12-06T08:26:12Z</time>
      </trkpt>
      <trkpt lat="44.87463" lon="-0.76162">
        <ele>28.3</ele>
        <time>2017-12-06T08:26:13Z</time>
      </trkpt>
      <trkpt lat="44.87466" lon="-0.76168">
        <ele>28.3</ele>
        <time>2017-12-06T08:26:14Z</time>
      </trkpt>
      <trkpt lat="44.87469" lon="-0.76173">
        <ele>28.4</ele>
        <time>2017-12-06T08:26:15Z</time>
      </trkpt>
      <trkpt lat="44.87472" lon="-0.76178">
        <ele>28.4</ele>
        <time>2017-12-06T08:26:16Z</time>
      </trkpt>
      <trkpt lat="44.87476" lon="-0.7618">
        <ele>28.4</ele>
        <time>2017-12-06T08:26:17Z</time>
      </trkpt>
      <trkpt lat="44.87482" lon="-0.76181">
        <ele>28.4</ele>
        <time>2017-12-06T08:26:18Z</time>
      </trkpt>
      <trkpt lat="44.87484" lon="-0.76183">
        <ele>28.5</ele>
        <time>2017-12-06T08:26:19Z</time>
      </trkpt>
      <trkpt lat="44.87487" lon="-0.76188">
        <ele>28.5</ele>
        <time>2017-12-06T08:26:20Z</time>
      </trkpt>
      <trkpt lat="44.87488" lon="-0.76194">
        <ele>28.5</ele>
        <time>2017-12-06T08:26:21Z</time>
      </trkpt>
      <trkpt lat="44.87492" lon="-0.76202">
        <ele>28.5</ele>
        <time>2017-12-06T08:26:22Z</time>
      </trkpt>
      <trkpt lat="44.87495" lon="-0.76207">
        <ele>28.5</ele>
        <time>2017-12-06T08:26:23Z</time>
      </trkpt>
      <trkpt lat="44.87497" lon="-0.76213">
        <ele>28.6</ele>
        <time>2017-12-06T08:26:24Z</time>
      </trkpt>
      <trkpt lat="44.87501" lon="-0.76219">
        <ele>28.7</ele>
        <time>2017-12-06T08:26:25Z</time>
      </trkpt>
      <trkpt lat="44.87503" lon="-0.76224">
        <ele>28.8</ele>
        <time>2017-12-06T08:26:26Z</time>
      </trkpt>
      <trkpt lat="44.87504" lon="-0.76228">
        <ele>28.9</ele>
        <time>2017-12-06T08:26:27Z</time>
      </trkpt>
      <trkpt lat="44.87501" lon="-0.76231">
        <ele>28.9</ele>
        <time>2017-12-06T08:26:28Z</time>
      </trkpt>
      <trkpt lat="44.87499" lon="-0.76237">
        <ele>28.8</ele>
        <time>2017-12-06T08:26:29Z</time>
      </trkpt>
      <trkpt lat="44.875" lon="-0.76242">
        <ele>28.6</ele>
        <time>2017-12-06T08:26:30Z</time>
      </trkpt>
      <trkpt lat="44.875" lon="-0.76247">
        <ele>28.5</ele>
        <time>2017-12-06T08:26:31Z</time>
      </trkpt>
      <trkpt lat="44.87498" lon="-0.76254">
        <ele>28.3</ele>
        <time>2017-12-06T08:26:33Z</time>
      </trkpt>
      <trkpt lat="44.87495" lon="-0.76257">
        <ele>28.2</ele>
        <time>2017-12-06T08:26:34Z</time>
      </trkpt>
      <trkpt lat="44.87492" lon="-0.7626">
        <ele>28</ele>
        <time>2017-12-06T08:26:35Z</time>
      </trkpt>
      <trkpt lat="44.87489" lon="-0.76265">
        <ele>27.8</ele>
        <time>2017-12-06T08:26:36Z</time>
      </trkpt>
      <trkpt lat="44.87487" lon="-0.76269">
        <ele>27.7</ele>
        <time>2017-12-06T08:26:37Z</time>
      </trkpt>
      <trkpt lat="44.87483" lon="-0.76272">
        <ele>27.5</ele>
        <time>2017-12-06T08:26:38Z</time>
      </trkpt>
      <trkpt lat="44.8748" lon="-0.76277">
        <ele>27.4</ele>
        <time>2017-12-06T08:26:39Z</time>
      </trkpt>
      <trkpt lat="44.87475" lon="-0.76282">
        <ele>27.2</ele>
        <time>2017-12-06T08:26:40Z</time>
      </trkpt>
      <trkpt lat="44.87473" lon="-0.76288">
        <ele>27</ele>
        <time>2017-12-06T08:26:41Z</time>
      </trkpt>
      <trkpt lat="44.87471" lon="-0.76293">
        <ele>26.9</ele>
        <time>2017-12-06T08:26:42Z</time>
      </trkpt>
      <trkpt lat="44.87468" lon="-0.76297">
        <ele>26.8</ele>
        <time>2017-12-06T08:26:43Z</time>
      </trkpt>
      <trkpt lat="44.87467" lon="-0.76303">
        <ele>26.7</ele>
        <time>2017-12-06T08:26:44Z</time>
      </trkpt>
      <trkpt lat="44.87465" lon="-0.76308">
        <ele>26.6</ele>
        <time>2017-12-06T08:26:45Z</time>
      </trkpt>
      <trkpt lat="44.87462" lon="-0.76312">
        <ele>26.5</ele>
        <time>2017-12-06T08:26:46Z</time>
      </trkpt>
      <trkpt lat="44.8746" lon="-0.76319">
        <ele>26.5</ele>
        <time>2017-12-06T08:26:47Z</time>
      </trkpt>
      <trkpt lat="44.87457" lon="-0.76325">
        <ele>26.4</ele>
        <time>2017-12-06T08:26:48Z</time>
      </trkpt>
      <trkpt lat="44.87457" lon="-0.76332">
        <ele>26.4</ele>
        <time>2017-12-06T08:26:49Z</time>
      </trkpt>
      <trkpt lat="44.87455" lon="-0.76337">
        <ele>26.3</ele>
        <time>2017-12-06T08:26:50Z</time>
      </trkpt>
      <trkpt lat="44.87456" lon="-0.76343">
        <ele>26.3</ele>
        <time>2017-12-06T08:26:51Z</time>
      </trkpt>
      <trkpt lat="44.87457" lon="-0.76348">
        <ele>26.2</ele>
        <time>2017-12-06T08:26:52Z</time>
      </trkpt>
      <trkpt lat="44.87458" lon="-0.76354">
        <ele>26.2</ele>
        <time>2017-12-06T08:26:53Z</time>
      </trkpt>
      <trkpt lat="44.87458" lon="-0.76358">
        <ele>26.2</ele>
        <time>2017-12-06T08:26:54Z</time>
      </trkpt>
      <trkpt lat="44.8746" lon="-0.76365">
        <ele>26.2</ele>
        <time>2017-12-06T08:26:56Z</time>
      </trkpt>
      <trkpt lat="44.87461" lon="-0.7637">
        <ele>26.3</ele>
        <time>2017-12-06T08:26:57Z</time>
      </trkpt>
      <trkpt lat="44.87461" lon="-0.76375">
        <ele>26.4</ele>
        <time>2017-12-06T08:26:58Z</time>
      </trkpt>
      <trkpt lat="44.87461" lon="-0.7638">
        <ele>26.6</ele>
        <time>2017-12-06T08:26:59Z</time>
      </trkpt>
      <trkpt lat="44.87461" lon="-0.76386">
        <ele>26.8</ele>
        <time>2017-12-06T08:27:00Z</time>
      </trkpt>
      <trkpt lat="44.87461" lon="-0.76393">
        <ele>26.9</ele>
        <time>2017-12-06T08:27:01Z</time>
      </trkpt>
      <trkpt lat="44.8746" lon="-0.764">
        <ele>27</ele>
        <time>2017-12-06T08:27:02Z</time>
      </trkpt>
      <trkpt lat="44.8746" lon="-0.76407">
        <ele>27.1</ele>
        <time>2017-12-06T08:27:03Z</time>
      </trkpt>
      <trkpt lat="44.87459" lon="-0.76413">
        <ele>27.1</ele>
        <time>2017-12-06T08:27:04Z</time>
      </trkpt>
      <trkpt lat="44.87458" lon="-0.76418">
        <ele>27.2</ele>
        <time>2017-12-06T08:27:05Z</time>
      </trkpt>
      <trkpt lat="44.87456" lon="-0.76424">
        <ele>27.2</ele>
        <time>2017-12-06T08:27:06Z</time>
      </trkpt>
      <trkpt lat="44.87455" lon="-0.76429">
        <ele>27.3</ele>
        <time>2017-12-06T08:27:07Z</time>
      </trkpt>
      <trkpt lat="44.87454" lon="-0.76435">
        <ele>27.4</ele>
        <time>2017-12-06T08:27:08Z</time>
      </trkpt>
      <trkpt lat="44.87453" lon="-0.7644">
        <ele>27.4</ele>
        <time>2017-12-06T08:27:09Z</time>
      </trkpt>
      <trkpt lat="44.87452" lon="-0.76446">
        <ele>27.4</ele>
        <time>2017-12-06T08:27:10Z</time>
      </trkpt>
      <trkpt lat="44.87453" lon="-0.76453">
        <ele>27.5</ele>
        <time>2017-12-06T08:27:11Z</time>
      </trkpt>
      <trkpt lat="44.87452" lon="-0.76458">
        <ele>27.5</ele>
        <time>2017-12-06T08:27:12Z</time>
      </trkpt>
      <trkpt lat="44.87451" lon="-0.76465">
        <ele>27.6</ele>
        <time>2017-12-06T08:27:13Z</time>
      </trkpt>
      <trkpt lat="44.87452" lon="-0.76472">
        <ele>27.6</ele>
        <time>2017-12-06T08:27:14Z</time>
      </trkpt>
      <trkpt lat="44.87453" lon="-0.76479">
        <ele>27.7</ele>
        <time>2017-12-06T08:27:15Z</time>
      </trkpt>
      <trkpt lat="44.87454" lon="-0.76485">
        <ele>27.7</ele>
        <time>2017-12-06T08:27:16Z</time>
      </trkpt>
      <trkpt lat="44.87455" lon="-0.76493">
        <ele>27.8</ele>
        <time>2017-12-06T08:27:17Z</time>
      </trkpt>
      <trkpt lat="44.87456" lon="-0.765">
        <ele>27.8</ele>
        <time>2017-12-06T08:27:18Z</time>
      </trkpt>
      <trkpt lat="44.87457" lon="-0.76507">
        <ele>27.9</ele>
        <time>2017-12-06T08:27:19Z</time>
      </trkpt>
      <trkpt lat="44.87459" lon="-0.76514">
        <ele>27.9</ele>
        <time>2017-12-06T08:27:20Z</time>
      </trkpt>
      <trkpt lat="44.8746" lon="-0.76519">
        <ele>28</ele>
        <time>2017-12-06T08:27:21Z</time>
      </trkpt>
      <trkpt lat="44.87462" lon="-0.76525">
        <ele>28</ele>
        <time>2017-12-06T08:27:22Z</time>
      </trkpt>
      <trkpt lat="44.87463" lon="-0.76529">
        <ele>28.1</ele>
        <time>2017-12-06T08:27:23Z</time>
      </trkpt>
      <trkpt lat="44.87466" lon="-0.76536">
        <ele>28.1</ele>
        <time>2017-12-06T08:27:25Z</time>
      </trkpt>
      <trkpt lat="44.87468" lon="-0.7654">
        <ele>28.2</ele>
        <time>2017-12-06T08:27:26Z</time>
      </trkpt>
      <trkpt lat="44.8747" lon="-0.76544">
        <ele>28.2</ele>
        <time>2017-12-06T08:27:27Z</time>
      </trkpt>
      <trkpt lat="44.87473" lon="-0.76549">
        <ele>28.2</ele>
        <time>2017-12-06T08:27:28Z</time>
      </trkpt>
      <trkpt lat="44.87475" lon="-0.76556">
        <ele>28.3</ele>
        <time>2017-12-06T08:27:29Z</time>
      </trkpt>
      <trkpt lat="44.87476" lon="-0.76561">
        <ele>28.3</ele>
        <time>2017-12-06T08:27:30Z</time>
      </trkpt>
      <trkpt lat="44.87478" lon="-0.76567">
        <ele>28.4</ele>
        <time>2017-12-06T08:27:31Z</time>
      </trkpt>
      <trkpt lat="44.8748" lon="-0.76572">
        <ele>28.4</ele>
        <time>2017-12-06T08:27:32Z</time>
      </trkpt>
      <trkpt lat="44.87483" lon="-0.76578">
        <ele>28.5</ele>
        <time>2017-12-06T08:27:33Z</time>
      </trkpt>
      <trkpt lat="44.87485" lon="-0.76583">
        <ele>28.6</ele>
        <time>2017-12-06T08:27:34Z</time>
      </trkpt>
      <trkpt lat="44.87489" lon="-0.76589">
        <ele>28.6</ele>
        <time>2017-12-06T08:27:35Z</time>
      </trkpt>
      <trkpt lat="44.87492" lon="-0.76593">
        <ele>28.7</ele>
        <time>2017-12-06T08:27:36Z</time>
      </trkpt>
      <trkpt lat="44.87494" lon="-0.76597">
        <ele>28.9</ele>
        <time>2017-12-06T08:27:37Z</time>
      </trkpt>
      <trkpt lat="44.87497" lon="-0.766">
        <ele>28.9</ele>
        <time>2017-12-06T08:27:38Z</time>
      </trkpt>
      <trkpt lat="44.87501" lon="-0.76603">
        <ele>28.8</ele>
        <time>2017-12-06T08:27:39Z</time>
      </trkpt>
      <trkpt lat="44.87504" lon="-0.76606">
        <ele>28.6</ele>
        <time>2017-12-06T08:27:40Z</time>
      </trkpt>
      <trkpt lat="44.87508" lon="-0.76609">
        <ele>28.3</ele>
        <time>2017-12-06T08:27:41Z</time>
      </trkpt>
      <trkpt lat="44.8751" lon="-0.76611">
        <ele>28.1</ele>
        <time>2017-12-06T08:27:42Z</time>
      </trkpt>
      <trkpt lat="44.87512" lon="-0.76613">
        <ele>27.9</ele>
        <time>2017-12-06T08:27:43Z</time>
      </trkpt>
      <trkpt lat="44.87516" lon="-0.76616">
        <ele>27.7</ele>
        <time>2017-12-06T08:27:44Z</time>
      </trkpt>
      <trkpt lat="44.87521" lon="-0.76621">
        <ele>27.2</ele>
        <time>2017-12-06T08:27:45Z</time>
      </trkpt>
      <trkpt lat="44.87526" lon="-0.76625">
        <ele>26.9</ele>
        <time>2017-12-06T08:27:46Z</time>
      </trkpt>
      <trkpt lat="44.8753" lon="-0.7663">
        <ele>26.5</ele>
        <time>2017-12-06T08:27:47Z</time>
      </trkpt>
      <trkpt lat="44.87532" lon="-0.76635">
        <ele>26.3</ele>
        <time>2017-12-06T08:27:48Z</time>
      </trkpt>
      <trkpt lat="44.87533" lon="-0.7664">
        <ele>26</ele>
        <time>2017-12-06T08:27:49Z</time>
      </trkpt>
      <trkpt lat="44.87533" lon="-0.76644">
        <ele>26.3</ele>
        <time>2017-12-06T08:27:50Z</time>
      </trkpt>
      <trkpt lat="44.87531" lon="-0.7665">
        <ele>26.6</ele>
        <time>2017-12-06T08:27:51Z</time>
      </trkpt>
      <trkpt lat="44.87529" lon="-0.76655">
        <ele>26.9</ele>
        <time>2017-12-06T08:27:52Z</time>
      </trkpt>
      <trkpt lat="44.87526" lon="-0.7666">
        <ele>27.2</ele>
        <time>2017-12-06T08:27:53Z</time>
      </trkpt>
      <trkpt lat="44.87524" lon="-0.76665">
        <ele>27.5</ele>
        <time>2017-12-06T08:27:54Z</time>
      </trkpt>
      <trkpt lat="44.8752" lon="-0.7667">
        <ele>27.9</ele>
        <time>2017-12-06T08:27:55Z</time>
      </trkpt>
      <trkpt lat="44.87516" lon="-0.76675">
        <ele>28.1</ele>
        <time>2017-12-06T08:27:56Z</time>
      </trkpt>
      <trkpt lat="44.87513" lon="-0.7668">
        <ele>28.3</ele>
        <time>2017-12-06T08:27:57Z</time>
      </trkpt>
      <trkpt lat="44.87508" lon="-0.76684">
        <ele>28.5</ele>
        <time>2017-12-06T08:27:58Z</time>
      </trkpt>
      <trkpt lat="44.87504" lon="-0.76689">
        <ele>28.6</ele>
        <time>2017-12-06T08:27:59Z</time>
      </trkpt>
      <trkpt lat="44.87501" lon="-0.76693">
        <ele>28.6</ele>
        <time>2017-12-06T08:28:00Z</time>
      </trkpt>
      <trkpt lat="44.87497" lon="-0.76698">
        <ele>28.7</ele>
        <time>2017-12-06T08:28:01Z</time>
      </trkpt>
      <trkpt lat="44.87493" lon="-0.76703">
        <ele>28.7</ele>
        <time>2017-12-06T08:28:02Z</time>
      </trkpt>
      <trkpt lat="44.87489" lon="-0.76708">
        <ele>28.8</ele>
        <time>2017-12-06T08:28:03Z</time>
      </trkpt>
      <trkpt lat="44.87485" lon="-0.76712">
        <ele>28.8</ele>
        <time>2017-12-06T08:28:04Z</time>
      </trkpt>
      <trkpt lat="44.87481" lon="-0.76715">
        <ele>28.8</ele>
        <time>2017-12-06T08:28:05Z</time>
      </trkpt>
      <trkpt lat="44.87477" lon="-0.76719">
        <ele>28.9</ele>
        <time>2017-12-06T08:28:06Z</time>
      </trkpt>
      <trkpt lat="44.87474" lon="-0.76724">
        <ele>28.9</ele>
        <time>2017-12-06T08:28:07Z</time>
      </trkpt>
      <trkpt lat="44.8747" lon="-0.76728">
        <ele>29</ele>
        <time>2017-12-06T08:28:08Z</time>
      </trkpt>
      <trkpt lat="44.87467" lon="-0.76732">
        <ele>29</ele>
        <time>2017-12-06T08:28:09Z</time>
      </trkpt>
      <trkpt lat="44.87463" lon="-0.76736">
        <ele>29</ele>
        <time>2017-12-06T08:28:10Z</time>
      </trkpt>
      <trkpt lat="44.8746" lon="-0.7674">
        <ele>29.1</ele>
        <time>2017-12-06T08:28:11Z</time>
      </trkpt>
      <trkpt lat="44.87456" lon="-0.76744">
        <ele>29.1</ele>
        <time>2017-12-06T08:28:12Z</time>
      </trkpt>
      <trkpt lat="44.87453" lon="-0.76747">
        <ele>29.1</ele>
        <time>2017-12-06T08:28:13Z</time>
      </trkpt>
      <trkpt lat="44.87449" lon="-0.7675">
        <ele>29.2</ele>
        <time>2017-12-06T08:28:14Z</time>
      </trkpt>
      <trkpt lat="44.87446" lon="-0.76754">
        <ele>29.2</ele>
        <time>2017-12-06T08:28:15Z</time>
      </trkpt>
      <trkpt lat="44.87443" lon="-0.76759">
        <ele>29.2</ele>
        <time>2017-12-06T08:28:16Z</time>
      </trkpt>
      <trkpt lat="44.87439" lon="-0.76763">
        <ele>29.3</ele>
        <time>2017-12-06T08:28:17Z</time>
      </trkpt>
      <trkpt lat="44.87436" lon="-0.76768">
        <ele>29.3</ele>
        <time>2017-12-06T08:28:18Z</time>
      </trkpt>
      <trkpt lat="44.87433" lon="-0.76772">
        <ele>29.3</ele>
        <time>2017-12-06T08:28:19Z</time>
      </trkpt>
      <trkpt lat="44.8743" lon="-0.76776">
        <ele>29.4</ele>
        <time>2017-12-06T08:28:20Z</time>
      </trkpt>
      <trkpt lat="44.87426" lon="-0.76781">
        <ele>29.4</ele>
        <time>2017-12-06T08:28:21Z</time>
      </trkpt>
      <trkpt lat="44.87423" lon="-0.76785">
        <ele>29.5</ele>
        <time>2017-12-06T08:28:22Z</time>
      </trkpt>
      <trkpt lat="44.87419" lon="-0.76789">
        <ele>29.5</ele>
        <time>2017-12-06T08:28:23Z</time>
      </trkpt>
      <trkpt lat="44.87415" lon="-0.76793">
        <ele>29.6</ele>
        <time>2017-12-06T08:28:24Z</time>
      </trkpt>
      <trkpt lat="44.87412" lon="-0.76798">
        <ele>29.6</ele>
        <time>2017-12-06T08:28:25Z</time>
      </trkpt>
      <trkpt lat="44.87409" lon="-0.76802">
        <ele>29.7</ele>
        <time>2017-12-06T08:28:26Z</time>
      </trkpt>
      <trkpt lat="44.87405" lon="-0.76806">
        <ele>29.7</ele>
        <time>2017-12-06T08:28:27Z</time>
      </trkpt>
      <trkpt lat="44.87401" lon="-0.7681">
        <ele>29.8</ele>
        <time>2017-12-06T08:28:28Z</time>
      </trkpt>
      <trkpt lat="44.87398" lon="-0.76813">
        <ele>29.9</ele>
        <time>2017-12-06T08:28:29Z</time>
      </trkpt>
      <trkpt lat="44.87393" lon="-0.76814">
        <ele>30</ele>
        <time>2017-12-06T08:28:30Z</time>
      </trkpt>
      <trkpt lat="44.87389" lon="-0.76812">
        <ele>29.9</ele>
        <time>2017-12-06T08:28:31Z</time>
      </trkpt>
      <trkpt lat="44.87386" lon="-0.76809">
        <ele>29.8</ele>
        <time>2017-12-06T08:28:32Z</time>
      </trkpt>
      <trkpt lat="44.87382" lon="-0.76806">
        <ele>29.6</ele>
        <time>2017-12-06T08:28:33Z</time>
      </trkpt>
      <trkpt lat="44.87378" lon="-0.76803">
        <ele>29.5</ele>
        <time>2017-12-06T08:28:34Z</time>
      </trkpt>
      <trkpt lat="44.87375" lon="-0.768">
        <ele>29.4</ele>
        <time>2017-12-06T08:28:35Z</time>
      </trkpt>
      <trkpt lat="44.87372" lon="-0.76797">
        <ele>29.4</ele>
        <time>2017-12-06T08:28:36Z</time>
      </trkpt>
      <trkpt lat="44.87369" lon="-0.76793">
        <ele>29.3</ele>
        <time>2017-12-06T08:28:37Z</time>
      </trkpt>
      <trkpt lat="44.87368" lon="-0.76788">
        <ele>29.3</ele>
        <time>2017-12-06T08:28:38Z</time>
      </trkpt>
      <trkpt lat="44.87368" lon="-0.76782">
        <ele>29.3</ele>
        <time>2017-12-06T08:28:40Z</time>
      </trkpt>
      <trkpt lat="44.87369" lon="-0.76776">
        <ele>29.3</ele>
        <time>2017-12-06T08:28:41Z</time>
      </trkpt>
      <trkpt lat="44.87369" lon="-0.7677">
        <ele>29.4</ele>
        <time>2017-12-06T08:28:42Z</time>
      </trkpt>
      <trkpt lat="44.8737" lon="-0.76763">
        <ele>29.4</ele>
        <time>2017-12-06T08:28:43Z</time>
      </trkpt>
      <trkpt lat="44.87371" lon="-0.76757">
        <ele>29.4</ele>
        <time>2017-12-06T08:28:44Z</time>
      </trkpt>
      <trkpt lat="44.87371" lon="-0.76753">
        <ele>29.4</ele>
        <time>2017-12-06T08:28:45Z</time>
      </trkpt>
      <trkpt lat="44.87369" lon="-0.76746">
        <ele>29.4</ele>
        <time>2017-12-06T08:28:46Z</time>
      </trkpt>
      <trkpt lat="44.87368" lon="-0.76741">
        <ele>29.4</ele>
        <time>2017-12-06T08:28:47Z</time>
      </trkpt>
      <trkpt lat="44.87367" lon="-0.76736">
        <ele>29.4</ele>
        <time>2017-12-06T08:28:48Z</time>
      </trkpt>
      <trkpt lat="44.87365" lon="-0.76731">
        <ele>29.3</ele>
        <time>2017-12-06T08:28:49Z</time>
      </trkpt>
      <trkpt lat="44.87365" lon="-0.76725">
        <ele>29.2</ele>
        <time>2017-12-06T08:28:50Z</time>
      </trkpt>
      <trkpt lat="44.87365" lon="-0.76719">
        <ele>29.2</ele>
        <time>2017-12-06T08:28:51Z</time>
      </trkpt>
      <trkpt lat="44.87366" lon="-0.76714">
        <ele>29.2</ele>
        <time>2017-12-06T08:28:52Z</time>
      </trkpt>
      <trkpt lat="44.87368" lon="-0.7671">
        <ele>29.2</ele>
        <time>2017-12-06T08:28:53Z</time>
      </trkpt>
      <trkpt lat="44.87368" lon="-0.76705">
        <ele>29.2</ele>
        <time>2017-12-06T08:28:54Z</time>
      </trkpt>
      <trkpt lat="44.8737" lon="-0.76699">
        <ele>29.3</ele>
        <time>2017-12-06T08:28:55Z</time>
      </trkpt>
      <trkpt lat="44.87369" lon="-0.76695">
        <ele>29.4</ele>
        <time>2017-12-06T08:28:56Z</time>
      </trkpt>
      <trkpt lat="44.87367" lon="-0.76688">
        <ele>29.6</ele>
        <time>2017-12-06T08:28:57Z</time>
      </trkpt>
      <trkpt lat="44.87365" lon="-0.76683">
        <ele>29.8</ele>
        <time>2017-12-06T08:28:58Z</time>
      </trkpt>
      <trkpt lat="44.87363" lon="-0.76678">
        <ele>30.2</ele>
        <time>2017-12-06T08:28:59Z</time>
      </trkpt>
      <trkpt lat="44.87362" lon="-0.76673">
        <ele>30.4</ele>
        <time>2017-12-06T08:29:00Z</time>
      </trkpt>
      <trkpt lat="44.87362" lon="-0.76667">
        <ele>30.6</ele>
        <time>2017-12-06T08:29:01Z</time>
      </trkpt>
      <trkpt lat="44.8736" lon="-0.76662">
        <ele>30.8</ele>
        <time>2017-12-06T08:29:02Z</time>
      </trkpt>
      <trkpt lat="44.87358" lon="-0.76658">
        <ele>31</ele>
        <time>2017-12-06T08:29:03Z</time>
      </trkpt>
      <trkpt lat="44.87358" lon="-0.76652">
        <ele>31.1</ele>
        <time>2017-12-06T08:29:04Z</time>
      </trkpt>
      <trkpt lat="44.87358" lon="-0.76646">
        <ele>31.1</ele>
        <time>2017-12-06T08:29:05Z</time>
      </trkpt>
      <trkpt lat="44.87359" lon="-0.76641">
        <ele>31.1</ele>
        <time>2017-12-06T08:29:06Z</time>
      </trkpt>
      <trkpt lat="44.87357" lon="-0.76638">
        <ele>31</ele>
        <time>2017-12-06T08:29:07Z</time>
      </trkpt>
      <trkpt lat="44.87355" lon="-0.76634">
        <ele>31</ele>
        <time>2017-12-06T08:29:08Z</time>
      </trkpt>
      <trkpt lat="44.87355" lon="-0.76629">
        <ele>30.9</ele>
        <time>2017-12-06T08:29:09Z</time>
      </trkpt>
      <trkpt lat="44.87354" lon="-0.76623">
        <ele>30.9</ele>
        <time>2017-12-06T08:29:11Z</time>
      </trkpt>
      <trkpt lat="44.87354" lon="-0.76619">
        <ele>30.8</ele>
        <time>2017-12-06T08:29:12Z</time>
      </trkpt>
      <trkpt lat="44.87354" lon="-0.76611">
        <ele>30.7</ele>
        <time>2017-12-06T08:29:14Z</time>
      </trkpt>
      <trkpt lat="44.87353" lon="-0.76605">
        <ele>30.6</ele>
        <time>2017-12-06T08:29:15Z</time>
      </trkpt>
      <trkpt lat="44.87354" lon="-0.766">
        <ele>30.5</ele>
        <time>2017-12-06T08:29:16Z</time>
      </trkpt>
      <trkpt lat="44.87356" lon="-0.76594">
        <ele>30.4</ele>
        <time>2017-12-06T08:29:17Z</time>
      </trkpt>
      <trkpt lat="44.87357" lon="-0.76588">
        <ele>30.4</ele>
        <time>2017-12-06T08:29:18Z</time>
      </trkpt>
      <trkpt lat="44.87357" lon="-0.76581">
        <ele>30.3</ele>
        <time>2017-12-06T08:29:19Z</time>
      </trkpt>
      <trkpt lat="44.8736" lon="-0.76577">
        <ele>30.3</ele>
        <time>2017-12-06T08:29:20Z</time>
      </trkpt>
      <trkpt lat="44.87363" lon="-0.76572">
        <ele>30.1</ele>
        <time>2017-12-06T08:29:21Z</time>
      </trkpt>
      <trkpt lat="44.87367" lon="-0.76567">
        <ele>30</ele>
        <time>2017-12-06T08:29:22Z</time>
      </trkpt>
      <trkpt lat="44.87371" lon="-0.76563">
        <ele>29.9</ele>
        <time>2017-12-06T08:29:23Z</time>
      </trkpt>
      <trkpt lat="44.87375" lon="-0.76558">
        <ele>29.7</ele>
        <time>2017-12-06T08:29:24Z</time>
      </trkpt>
      <trkpt lat="44.87378" lon="-0.76553">
        <ele>29.5</ele>
        <time>2017-12-06T08:29:25Z</time>
      </trkpt>
      <trkpt lat="44.8738" lon="-0.76547">
        <ele>29.2</ele>
        <time>2017-12-06T08:29:26Z</time>
      </trkpt>
      <trkpt lat="44.87379" lon="-0.76539">
        <ele>28.7</ele>
        <time>2017-12-06T08:29:27Z</time>
      </trkpt>
      <trkpt lat="44.8738" lon="-0.76532">
        <ele>28.5</ele>
        <time>2017-12-06T08:29:28Z</time>
      </trkpt>
      <trkpt lat="44.87382" lon="-0.76527">
        <ele>28.3</ele>
        <time>2017-12-06T08:29:29Z</time>
      </trkpt>
      <trkpt lat="44.87384" lon="-0.7652">
        <ele>28.1</ele>
        <time>2017-12-06T08:29:30Z</time>
      </trkpt>
      <trkpt lat="44.87383" lon="-0.76513">
        <ele>27.9</ele>
        <time>2017-12-06T08:29:31Z</time>
      </trkpt>
      <trkpt lat="44.87381" lon="-0.76508">
        <ele>27.7</ele>
        <time>2017-12-06T08:29:32Z</time>
      </trkpt>
      <trkpt lat="44.87378" lon="-0.76505">
        <ele>27.3</ele>
        <time>2017-12-06T08:29:33Z</time>
      </trkpt>
      <trkpt lat="44.87375" lon="-0.76502">
        <ele>27</ele>
        <time>2017-12-06T08:29:34Z</time>
      </trkpt>
      <trkpt lat="44.87371" lon="-0.765">
        <ele>26.7</ele>
        <time>2017-12-06T08:29:35Z</time>
      </trkpt>
      <trkpt lat="44.87368" lon="-0.76498">
        <ele>26.7</ele>
        <time>2017-12-06T08:29:36Z</time>
      </trkpt>
      <trkpt lat="44.87366" lon="-0.76496">
        <ele>26.6</ele>
        <time>2017-12-06T08:29:37Z</time>
      </trkpt>
      <trkpt lat="44.87363" lon="-0.76494">
        <ele>26.6</ele>
        <time>2017-12-06T08:29:38Z</time>
      </trkpt>
      <trkpt lat="44.8736" lon="-0.76492">
        <ele>26.6</ele>
        <time>2017-12-06T08:29:39Z</time>
      </trkpt>
      <trkpt lat="44.87356" lon="-0.76489">
        <ele>26.6</ele>
        <time>2017-12-06T08:29:40Z</time>
      </trkpt>
      <trkpt lat="44.87354" lon="-0.76485">
        <ele>26.6</ele>
        <time>2017-12-06T08:29:41Z</time>
      </trkpt>
      <trkpt lat="44.87352" lon="-0.76479">
        <ele>26.7</ele>
        <time>2017-12-06T08:29:42Z</time>
      </trkpt>
      <trkpt lat="44.8735" lon="-0.76474">
        <ele>26.7</ele>
        <time>2017-12-06T08:29:43Z</time>
      </trkpt>
      <trkpt lat="44.8735" lon="-0.76468">
        <ele>26.8</ele>
        <time>2017-12-06T08:29:44Z</time>
      </trkpt>
      <trkpt lat="44.8735" lon="-0.76461">
        <ele>26.9</ele>
        <time>2017-12-06T08:29:45Z</time>
      </trkpt>
      <trkpt lat="44.87349" lon="-0.76455">
        <ele>27</ele>
        <time>2017-12-06T08:29:46Z</time>
      </trkpt>
      <trkpt lat="44.87348" lon="-0.7645">
        <ele>27.1</ele>
        <time>2017-12-06T08:29:47Z</time>
      </trkpt>
      <trkpt lat="44.87349" lon="-0.76446">
        <ele>27.3</ele>
        <time>2017-12-06T08:29:48Z</time>
      </trkpt>
      <trkpt lat="44.87351" lon="-0.76442">
        <ele>27.5</ele>
        <time>2017-12-06T08:29:49Z</time>
      </trkpt>
      <trkpt lat="44.87352" lon="-0.76438">
        <ele>27.6</ele>
        <time>2017-12-06T08:29:50Z</time>
      </trkpt>
      <trkpt lat="44.87353" lon="-0.76434">
        <ele>27.8</ele>
        <time>2017-12-06T08:29:51Z</time>
      </trkpt>
      <trkpt lat="44.87355" lon="-0.76426">
        <ele>28</ele>
        <time>2017-12-06T08:29:53Z</time>
      </trkpt>
      <trkpt lat="44.87357" lon="-0.76421">
        <ele>28.2</ele>
        <time>2017-12-06T08:29:54Z</time>
      </trkpt>
      <trkpt lat="44.87359" lon="-0.76416">
        <ele>28.3</ele>
        <time>2017-12-06T08:29:55Z</time>
      </trkpt>
      <trkpt lat="44.87362" lon="-0.76408">
        <ele>28.3</ele>
        <time>2017-12-06T08:29:56Z</time>
      </trkpt>
      <trkpt lat="44.87364" lon="-0.76401">
        <ele>28.2</ele>
        <time>2017-12-06T08:29:57Z</time>
      </trkpt>
      <trkpt lat="44.87367" lon="-0.76393">
        <ele>27.9</ele>
        <time>2017-12-06T08:29:58Z</time>
      </trkpt>
      <trkpt lat="44.8737" lon="-0.76385">
        <ele>27.4</ele>
        <time>2017-12-06T08:29:59Z</time>
      </trkpt>
      <trkpt lat="44.87373" lon="-0.76377">
        <ele>27.1</ele>
        <time>2017-12-06T08:30:00Z</time>
      </trkpt>
      <trkpt lat="44.87375" lon="-0.7637">
        <ele>26.8</ele>
        <time>2017-12-06T08:30:01Z</time>
      </trkpt>
      <trkpt lat="44.87378" lon="-0.76364">
        <ele>26.8</ele>
        <time>2017-12-06T08:30:02Z</time>
      </trkpt>
      <trkpt lat="44.8738" lon="-0.76359">
        <ele>26.8</ele>
        <time>2017-12-06T08:30:03Z</time>
      </trkpt>
      <trkpt lat="44.87382" lon="-0.76353">
        <ele>27.1</ele>
        <time>2017-12-06T08:30:05Z</time>
      </trkpt>
      <trkpt lat="44.87384" lon="-0.76348">
        <ele>27.4</ele>
        <time>2017-12-06T08:30:06Z</time>
      </trkpt>
      <trkpt lat="44.87386" lon="-0.76342">
        <ele>27.8</ele>
        <time>2017-12-06T08:30:08Z</time>
      </trkpt>
      <trkpt lat="44.87386" lon="-0.76338">
        <ele>28.2</ele>
        <time>2017-12-06T08:30:09Z</time>
      </trkpt>
      <trkpt lat="44.87386" lon="-0.76334">
        <ele>28.5</ele>
        <time>2017-12-06T08:30:10Z</time>
      </trkpt>
      <trkpt lat="44.87387" lon="-0.7633">
        <ele>28.8</ele>
        <time>2017-12-06T08:30:11Z</time>
      </trkpt>
      <trkpt lat="44.87389" lon="-0.76321">
        <ele>29.5</ele>
        <time>2017-12-06T08:30:13Z</time>
      </trkpt>
      <trkpt lat="44.87389" lon="-0.76317">
        <ele>29.8</ele>
        <time>2017-12-06T08:30:14Z</time>
      </trkpt>
      <trkpt lat="44.8739" lon="-0.76309">
        <ele>30.3</ele>
        <time>2017-12-06T08:30:16Z</time>
      </trkpt>
      <trkpt lat="44.8739" lon="-0.76305">
        <ele>30.5</ele>
        <time>2017-12-06T08:30:17Z</time>
      </trkpt>
      <trkpt lat="44.87391" lon="-0.76301">
        <ele>30.8</ele>
        <time>2017-12-06T08:30:18Z</time>
      </trkpt>
      <trkpt lat="44.87392" lon="-0.76295">
        <ele>31.1</ele>
        <time>2017-12-06T08:30:19Z</time>
      </trkpt>
      <trkpt lat="44.87393" lon="-0.7629">
        <ele>31.3</ele>
        <time>2017-12-06T08:30:20Z</time>
      </trkpt>
      <trkpt lat="44.87394" lon="-0.76284">
        <ele>31.5</ele>
        <time>2017-12-06T08:30:21Z</time>
      </trkpt>
      <trkpt lat="44.87395" lon="-0.76278">
        <ele>31.6</ele>
        <time>2017-12-06T08:30:22Z</time>
      </trkpt>
      <trkpt lat="44.87397" lon="-0.76272">
        <ele>31.6</ele>
        <time>2017-12-06T08:30:23Z</time>
      </trkpt>
      <trkpt lat="44.87396" lon="-0.76267">
        <ele>31.6</ele>
        <time>2017-12-06T08:30:24Z</time>
      </trkpt>
      <trkpt lat="44.87396" lon="-0.76262">
        <ele>31.7</ele>
        <time>2017-12-06T08:30:25Z</time>
      </trkpt>
      <trkpt lat="44.87397" lon="-0.76258">
        <ele>31.7</ele>
        <time>2017-12-06T08:30:26Z</time>
      </trkpt>
      <trkpt lat="44.87398" lon="-0.76252">
        <ele>31.7</ele>
        <time>2017-12-06T08:30:27Z</time>
      </trkpt>
      <trkpt lat="44.874" lon="-0.76246">
        <ele>31.7</ele>
        <time>2017-12-06T08:30:28Z</time>
      </trkpt>
      <trkpt lat="44.87401" lon="-0.7624">
        <ele>31.6</ele>
        <time>2017-12-06T08:30:29Z</time>
      </trkpt>
      <trkpt lat="44.87403" lon="-0.76231">
        <ele>31.4</ele>
        <time>2017-12-06T08:30:30Z</time>
      </trkpt>
      <trkpt lat="44.87405" lon="-0.76222">
        <ele>30.8</ele>
        <time>2017-12-06T08:30:31Z</time>
      </trkpt>
      <trkpt lat="44.87408" lon="-0.76214">
        <ele>30.2</ele>
        <time>2017-12-06T08:30:32Z</time>
      </trkpt>
      <trkpt lat="44.87406" lon="-0.76204">
        <ele>29.3</ele>
        <time>2017-12-06T08:30:33Z</time>
      </trkpt>
      <trkpt lat="44.87407" lon="-0.76193">
        <ele>28.5</ele>
        <time>2017-12-06T08:30:34Z</time>
      </trkpt>
      <trkpt lat="44.87408" lon="-0.76185">
        <ele>28</ele>
        <time>2017-12-06T08:30:35Z</time>
      </trkpt>
      <trkpt lat="44.87411" lon="-0.76177">
        <ele>27.6</ele>
        <time>2017-12-06T08:30:36Z</time>
      </trkpt>
      <trkpt lat="44.87414" lon="-0.76171">
        <ele>27.4</ele>
        <time>2017-12-06T08:30:37Z</time>
      </trkpt>
      <trkpt lat="44.87418" lon="-0.76163">
        <ele>27.4</ele>
        <time>2017-12-06T08:30:38Z</time>
      </trkpt>
      <trkpt lat="44.87415" lon="-0.76154">
        <ele>27.8</ele>
        <time>2017-12-06T08:30:39Z</time>
      </trkpt>
      <trkpt lat="44.87413" lon="-0.76148">
        <ele>28.3</ele>
        <time>2017-12-06T08:30:40Z</time>
      </trkpt>
      <trkpt lat="44.87414" lon="-0.76142">
        <ele>29.1</ele>
        <time>2017-12-06T08:30:42Z</time>
      </trkpt>
      <trkpt lat="44.87412" lon="-0.76139">
        <ele>29.6</ele>
        <time>2017-12-06T08:30:43Z</time>
      </trkpt>
      <trkpt lat="44.87411" lon="-0.76135">
        <ele>30</ele>
        <time>2017-12-06T08:30:44Z</time>
      </trkpt>
      <trkpt lat="44.87406" lon="-0.76131">
        <ele>30.5</ele>
        <time>2017-12-06T08:30:46Z</time>
      </trkpt>
      <trkpt lat="44.87403" lon="-0.76126">
        <ele>30.7</ele>
        <time>2017-12-06T08:30:48Z</time>
      </trkpt>
      <trkpt lat="44.87403" lon="-0.76122">
        <ele>30.6</ele>
        <time>2017-12-06T08:30:49Z</time>
      </trkpt>
      <trkpt lat="44.87403" lon="-0.76118">
        <ele>30.5</ele>
        <time>2017-12-06T08:30:50Z</time>
      </trkpt>
      <trkpt lat="44.87402" lon="-0.76112">
        <ele>30.3</ele>
        <time>2017-12-06T08:30:51Z</time>
      </trkpt>
      <trkpt lat="44.87401" lon="-0.76108">
        <ele>30</ele>
        <time>2017-12-06T08:30:52Z</time>
      </trkpt>
      <trkpt lat="44.87398" lon="-0.76103">
        <ele>29.8</ele>
        <time>2017-12-06T08:30:53Z</time>
      </trkpt>
      <trkpt lat="44.87397" lon="-0.76096">
        <ele>29.6</ele>
        <time>2017-12-06T08:30:54Z</time>
      </trkpt>
      <trkpt lat="44.87396" lon="-0.7609">
        <ele>29.6</ele>
        <time>2017-12-06T08:30:55Z</time>
      </trkpt>
      <trkpt lat="44.87394" lon="-0.76082">
        <ele>29.5</ele>
        <time>2017-12-06T08:30:56Z</time>
      </trkpt>
      <trkpt lat="44.87392" lon="-0.76077">
        <ele>29.5</ele>
        <time>2017-12-06T08:30:57Z</time>
      </trkpt>
      <trkpt lat="44.87391" lon="-0.76073">
        <ele>29.5</ele>
        <time>2017-12-06T08:30:58Z</time>
      </trkpt>
      <trkpt lat="44.87392" lon="-0.76068">
        <ele>29.4</ele>
        <time>2017-12-06T08:30:59Z</time>
      </trkpt>
      <trkpt lat="44.87392" lon="-0.76061">
        <ele>29.3</ele>
        <time>2017-12-06T08:31:00Z</time>
      </trkpt>
      <trkpt lat="44.87393" lon="-0.76053">
        <ele>29.1</ele>
        <time>2017-12-06T08:31:01Z</time>
      </trkpt>
      <trkpt lat="44.87393" lon="-0.76043">
        <ele>28.6</ele>
        <time>2017-12-06T08:31:02Z</time>
      </trkpt>
      <trkpt lat="44.8739" lon="-0.76035">
        <ele>28.4</ele>
        <time>2017-12-06T08:31:03Z</time>
      </trkpt>
      <trkpt lat="44.87389" lon="-0.76029">
        <ele>28.5</ele>
        <time>2017-12-06T08:31:04Z</time>
      </trkpt>
      <trkpt lat="44.87389" lon="-0.76023">
        <ele>28.8</ele>
        <time>2017-12-06T08:31:06Z</time>
      </trkpt>
      <trkpt lat="44.87389" lon="-0.76016">
        <ele>29.2</ele>
        <time>2017-12-06T08:31:08Z</time>
      </trkpt>
      <trkpt lat="44.87387" lon="-0.76012">
        <ele>29.5</ele>
        <time>2017-12-06T08:31:09Z</time>
      </trkpt>
      <trkpt lat="44.87388" lon="-0.76004">
        <ele>29.9</ele>
        <time>2017-12-06T08:31:11Z</time>
      </trkpt>
      <trkpt lat="44.87387" lon="-0.75998">
        <ele>30.1</ele>
        <time>2017-12-06T08:31:12Z</time>
      </trkpt>
      <trkpt lat="44.87387" lon="-0.75991">
        <ele>30.3</ele>
        <time>2017-12-06T08:31:13Z</time>
      </trkpt>
      <trkpt lat="44.87387" lon="-0.75986">
        <ele>30.3</ele>
        <time>2017-12-06T08:31:14Z</time>
      </trkpt>
      <trkpt lat="44.87387" lon="-0.75981">
        <ele>30.3</ele>
        <time>2017-12-06T08:31:15Z</time>
      </trkpt>
      <trkpt lat="44.87386" lon="-0.75973">
        <ele>30.4</ele>
        <time>2017-12-06T08:31:16Z</time>
      </trkpt>
      <trkpt lat="44.87385" lon="-0.75966">
        <ele>30.7</ele>
        <time>2017-12-06T08:31:17Z</time>
      </trkpt>
      <trkpt lat="44.87384" lon="-0.7596">
        <ele>31</ele>
        <time>2017-12-06T08:31:18Z</time>
      </trkpt>
      <trkpt lat="44.87382" lon="-0.75955">
        <ele>31.3</ele>
        <time>2017-12-06T08:31:19Z</time>
      </trkpt>
      <trkpt lat="44.87381" lon="-0.75952">
        <ele>31.6</ele>
        <time>2017-12-06T08:31:20Z</time>
      </trkpt>
      <trkpt lat="44.87378" lon="-0.75947">
        <ele>32.1</ele>
        <time>2017-12-06T08:31:22Z</time>
      </trkpt>
      <trkpt lat="44.87376" lon="-0.75943">
        <ele>32.6</ele>
        <time>2017-12-06T08:31:24Z</time>
      </trkpt>
      <trkpt lat="44.87374" lon="-0.75934">
        <ele>33.5</ele>
        <time>2017-12-06T08:31:26Z</time>
      </trkpt>
      <trkpt lat="44.87371" lon="-0.75929">
        <ele>33.8</ele>
        <time>2017-12-06T08:31:27Z</time>
      </trkpt>
      <trkpt lat="44.8737" lon="-0.75923">
        <ele>34</ele>
        <time>2017-12-06T08:31:28Z</time>
      </trkpt>
      <trkpt lat="44.87369" lon="-0.75917">
        <ele>34.3</ele>
        <time>2017-12-06T08:31:29Z</time>
      </trkpt>
      <trkpt lat="44.87367" lon="-0.75909">
        <ele>34.7</ele>
        <time>2017-12-06T08:31:30Z</time>
      </trkpt>
      <trkpt lat="44.87366" lon="-0.75902">
        <ele>34.5</ele>
        <time>2017-12-06T08:31:31Z</time>
      </trkpt>
      <trkpt lat="44.87364" lon="-0.75897">
        <ele>34.4</ele>
        <time>2017-12-06T08:31:32Z</time>
      </trkpt>
      <trkpt lat="44.87361" lon="-0.75893">
        <ele>33.8</ele>
        <time>2017-12-06T08:31:33Z</time>
      </trkpt>
      <trkpt lat="44.87361" lon="-0.75887">
        <ele>33.6</ele>
        <time>2017-12-06T08:31:34Z</time>
      </trkpt>
      <trkpt lat="44.87362" lon="-0.75882">
        <ele>33.4</ele>
        <time>2017-12-06T08:31:35Z</time>
      </trkpt>
      <trkpt lat="44.87362" lon="-0.75877">
        <ele>33.1</ele>
        <time>2017-12-06T08:31:36Z</time>
      </trkpt>
      <trkpt lat="44.87362" lon="-0.75871">
        <ele>32.9</ele>
        <time>2017-12-06T08:31:37Z</time>
      </trkpt>
      <trkpt lat="44.87363" lon="-0.75866">
        <ele>32.7</ele>
        <time>2017-12-06T08:31:38Z</time>
      </trkpt>
      <trkpt lat="44.87363" lon="-0.7586">
        <ele>32.4</ele>
        <time>2017-12-06T08:31:39Z</time>
      </trkpt>
      <trkpt lat="44.87363" lon="-0.75855">
        <ele>32</ele>
        <time>2017-12-06T08:31:40Z</time>
      </trkpt>
      <trkpt lat="44.87364" lon="-0.75849">
        <ele>31.6</ele>
        <time>2017-12-06T08:31:41Z</time>
      </trkpt>
      <trkpt lat="44.87364" lon="-0.75844">
        <ele>31.1</ele>
        <time>2017-12-06T08:31:42Z</time>
      </trkpt>
      <trkpt lat="44.87364" lon="-0.75838">
        <ele>30.7</ele>
        <time>2017-12-06T08:31:43Z</time>
      </trkpt>
      <trkpt lat="44.87362" lon="-0.75831">
        <ele>30.2</ele>
        <time>2017-12-06T08:31:44Z</time>
      </trkpt>
      <trkpt lat="44.87361" lon="-0.75826">
        <ele>29.8</ele>
        <time>2017-12-06T08:31:45Z</time>
      </trkpt>
      <trkpt lat="44.8736" lon="-0.75821">
        <ele>29.6</ele>
        <time>2017-12-06T08:31:46Z</time>
      </trkpt>
      <trkpt lat="44.87362" lon="-0.75817">
        <ele>29.4</ele>
        <time>2017-12-06T08:31:47Z</time>
      </trkpt>
      <trkpt lat="44.87362" lon="-0.75812">
        <ele>29.3</ele>
        <time>2017-12-06T08:31:48Z</time>
      </trkpt>
      <trkpt lat="44.87361" lon="-0.75807">
        <ele>29.2</ele>
        <time>2017-12-06T08:31:49Z</time>
      </trkpt>
      <trkpt lat="44.87361" lon="-0.75802">
        <ele>29.1</ele>
        <time>2017-12-06T08:31:50Z</time>
      </trkpt>
      <trkpt lat="44.8736" lon="-0.75798">
        <ele>29</ele>
        <time>2017-12-06T08:31:51Z</time>
      </trkpt>
      <trkpt lat="44.87361" lon="-0.75793">
        <ele>28.9</ele>
        <time>2017-12-06T08:31:52Z</time>
      </trkpt>
      <trkpt lat="44.87361" lon="-0.75787">
        <ele>28.8</ele>
        <time>2017-12-06T08:31:53Z</time>
      </trkpt>
      <trkpt lat="44.87361" lon="-0.75782">
        <ele>28.6</ele>
        <time>2017-12-06T08:31:54Z</time>
      </trkpt>
      <trkpt lat="44.87359" lon="-0.75775">
        <ele>28.5</ele>
        <time>2017-12-06T08:31:56Z</time>
      </trkpt>
      <trkpt lat="44.87359" lon="-0.75771">
        <ele>28.4</ele>
        <time>2017-12-06T08:31:57Z</time>
      </trkpt>
      <trkpt lat="44.87361" lon="-0.75766">
        <ele>28.2</ele>
        <time>2017-12-06T08:31:58Z</time>
      </trkpt>
      <trkpt lat="44.87363" lon="-0.75761">
        <ele>28.1</ele>
        <time>2017-12-06T08:31:59Z</time>
      </trkpt>
      <trkpt lat="44.87366" lon="-0.75755">
        <ele>27.8</ele>
        <time>2017-12-06T08:32:00Z</time>
      </trkpt>
      <trkpt lat="44.87367" lon="-0.75747">
        <ele>27.7</ele>
        <time>2017-12-06T08:32:01Z</time>
      </trkpt>
      <trkpt lat="44.87368" lon="-0.75739">
        <ele>27.6</ele>
        <time>2017-12-06T08:32:02Z</time>
      </trkpt>
      <trkpt lat="44.87369" lon="-0.7573">
        <ele>27.3</ele>
        <time>2017-12-06T08:32:03Z</time>
      </trkpt>
      <trkpt lat="44.8737" lon="-0.75722">
        <ele>26.8</ele>
        <time>2017-12-06T08:32:04Z</time>
      </trkpt>
      <trkpt lat="44.87371" lon="-0.75715">
        <ele>26.3</ele>
        <time>2017-12-06T08:32:05Z</time>
      </trkpt>
      <trkpt lat="44.87372" lon="-0.75708">
        <ele>25.9</ele>
        <time>2017-12-06T08:32:06Z</time>
      </trkpt>
      <trkpt lat="44.87373" lon="-0.75701">
        <ele>25.6</ele>
        <time>2017-12-06T08:32:07Z</time>
      </trkpt>
      <trkpt lat="44.87372" lon="-0.75695">
        <ele>25.5</ele>
        <time>2017-12-06T08:32:08Z</time>
      </trkpt>
      <trkpt lat="44.87372" lon="-0.75688">
        <ele>25.4</ele>
        <time>2017-12-06T08:32:09Z</time>
      </trkpt>
      <trkpt lat="44.87374" lon="-0.75683">
        <ele>25.3</ele>
        <time>2017-12-06T08:32:10Z</time>
      </trkpt>
      <trkpt lat="44.87375" lon="-0.75676">
        <ele>25.3</ele>
        <time>2017-12-06T08:32:11Z</time>
      </trkpt>
      <trkpt lat="44.87374" lon="-0.75668">
        <ele>25.2</ele>
        <time>2017-12-06T08:32:12Z</time>
      </trkpt>
      <trkpt lat="44.87373" lon="-0.75661">
        <ele>25.1</ele>
        <time>2017-12-06T08:32:13Z</time>
      </trkpt>
      <trkpt lat="44.8737" lon="-0.75655">
        <ele>25.1</ele>
        <time>2017-12-06T08:32:14Z</time>
      </trkpt>
      <trkpt lat="44.87366" lon="-0.75652">
        <ele>25</ele>
        <time>2017-12-06T08:32:15Z</time>
      </trkpt>
      <trkpt lat="44.87364" lon="-0.75645">
        <ele>25</ele>
        <time>2017-12-06T08:32:16Z</time>
      </trkpt>
      <trkpt lat="44.87363" lon="-0.7564">
        <ele>24.9</ele>
        <time>2017-12-06T08:32:17Z</time>
      </trkpt>
      <trkpt lat="44.87361" lon="-0.75635">
        <ele>24.9</ele>
        <time>2017-12-06T08:32:18Z</time>
      </trkpt>
      <trkpt lat="44.87357" lon="-0.75628">
        <ele>24.8</ele>
        <time>2017-12-06T08:32:19Z</time>
      </trkpt>
      <trkpt lat="44.87355" lon="-0.75624">
        <ele>24.8</ele>
        <time>2017-12-06T08:32:20Z</time>
      </trkpt>
      <trkpt lat="44.87353" lon="-0.75619">
        <ele>24.8</ele>
        <time>2017-12-06T08:32:21Z</time>
      </trkpt>
      <trkpt lat="44.87351" lon="-0.75613">
        <ele>24.7</ele>
        <time>2017-12-06T08:32:22Z</time>
      </trkpt>
      <trkpt lat="44.87349" lon="-0.75607">
        <ele>24.7</ele>
        <time>2017-12-06T08:32:23Z</time>
      </trkpt>
      <trkpt lat="44.87347" lon="-0.75601">
        <ele>24.6</ele>
        <time>2017-12-06T08:32:24Z</time>
      </trkpt>
      <trkpt lat="44.87348" lon="-0.75596">
        <ele>24.6</ele>
        <time>2017-12-06T08:32:25Z</time>
      </trkpt>
      <trkpt lat="44.8735" lon="-0.75591">
        <ele>24.6</ele>
        <time>2017-12-06T08:32:26Z</time>
      </trkpt>
      <trkpt lat="44.87351" lon="-0.75585">
        <ele>24.5</ele>
        <time>2017-12-06T08:32:27Z</time>
      </trkpt>
      <trkpt lat="44.87351" lon="-0.75579">
        <ele>24.5</ele>
        <time>2017-12-06T08:32:28Z</time>
      </trkpt>
      <trkpt lat="44.87353" lon="-0.75574">
        <ele>24.5</ele>
        <time>2017-12-06T08:32:29Z</time>
      </trkpt>
      <trkpt lat="44.87351" lon="-0.75571">
        <ele>24.4</ele>
        <time>2017-12-06T08:32:30Z</time>
      </trkpt>
      <trkpt lat="44.87348" lon="-0.75566">
        <ele>24.4</ele>
        <time>2017-12-06T08:32:31Z</time>
      </trkpt>
      <trkpt lat="44.87346" lon="-0.75562">
        <ele>24.4</ele>
        <time>2017-12-06T08:32:32Z</time>
      </trkpt>
      <trkpt lat="44.87343" lon="-0.75558">
        <ele>24.4</ele>
        <time>2017-12-06T08:32:33Z</time>
      </trkpt>
      <trkpt lat="44.87342" lon="-0.75554">
        <ele>24.3</ele>
        <time>2017-12-06T08:32:34Z</time>
      </trkpt>
      <trkpt lat="44.8734" lon="-0.75548">
        <ele>24.3</ele>
        <time>2017-12-06T08:32:35Z</time>
      </trkpt>
      <trkpt lat="44.87338" lon="-0.75542">
        <ele>24.3</ele>
        <time>2017-12-06T08:32:36Z</time>
      </trkpt>
      <trkpt lat="44.87339" lon="-0.75534">
        <ele>24.2</ele>
        <time>2017-12-06T08:32:37Z</time>
      </trkpt>
      <trkpt lat="44.87341" lon="-0.7553">
        <ele>24.2</ele>
        <time>2017-12-06T08:32:38Z</time>
      </trkpt>
      <trkpt lat="44.87342" lon="-0.75524">
        <ele>24.1</ele>
        <time>2017-12-06T08:32:39Z</time>
      </trkpt>
      <trkpt lat="44.87342" lon="-0.75518">
        <ele>24.1</ele>
        <time>2017-12-06T08:32:40Z</time>
      </trkpt>
      <trkpt lat="44.87339" lon="-0.75514">
        <ele>24.1</ele>
        <time>2017-12-06T08:32:41Z</time>
      </trkpt>
      <trkpt lat="44.87337" lon="-0.75511">
        <ele>24.1</ele>
        <time>2017-12-06T08:32:42Z</time>
      </trkpt>
      <trkpt lat="44.8733" lon="-0.7551">
        <ele>25</ele>
        <time>2017-12-06T08:32:44Z</time>
      </trkpt>
      <trkpt lat="44.87326" lon="-0.7551">
        <ele>25.5</ele>
        <time>2017-12-06T08:32:45Z</time>
      </trkpt>
      <trkpt lat="44.87321" lon="-0.75511">
        <ele>26</ele>
        <time>2017-12-06T08:32:46Z</time>
      </trkpt>
      <trkpt lat="44.87318" lon="-0.75512">
        <ele>26.4</ele>
        <time>2017-12-06T08:32:47Z</time>
      </trkpt>
      <trkpt lat="44.87314" lon="-0.75514">
        <ele>26.8</ele>
        <time>2017-12-06T08:32:48Z</time>
      </trkpt>
      <trkpt lat="44.87311" lon="-0.75515">
        <ele>27.2</ele>
        <time>2017-12-06T08:32:49Z</time>
      </trkpt>
      <trkpt lat="44.87308" lon="-0.75515">
        <ele>27.5</ele>
        <time>2017-12-06T08:32:50Z</time>
      </trkpt>
      <trkpt lat="44.87305" lon="-0.75516">
        <ele>27.9</ele>
        <time>2017-12-06T08:32:51Z</time>
      </trkpt>
      <trkpt lat="44.87302" lon="-0.75517">
        <ele>28.3</ele>
        <time>2017-12-06T08:32:52Z</time>
      </trkpt>
      <trkpt lat="44.87299" lon="-0.75517">
        <ele>28.7</ele>
        <time>2017-12-06T08:32:53Z</time>
      </trkpt>
      <trkpt lat="44.87295" lon="-0.7552">
        <ele>29.1</ele>
        <time>2017-12-06T08:32:55Z</time>
      </trkpt>
      <trkpt lat="44.87293" lon="-0.75522">
        <ele>29.3</ele>
        <time>2017-12-06T08:32:56Z</time>
      </trkpt>
      <trkpt lat="44.8729" lon="-0.75525">
        <ele>29.6</ele>
        <time>2017-12-06T08:32:58Z</time>
      </trkpt>
      <trkpt lat="44.87286" lon="-0.75527">
        <ele>30</ele>
        <time>2017-12-06T08:33:00Z</time>
      </trkpt>
      <trkpt lat="44.87283" lon="-0.75528">
        <ele>30.2</ele>
        <time>2017-12-06T08:33:01Z</time>
      </trkpt>
      <trkpt lat="44.87279" lon="-0.7553">
        <ele>30.5</ele>
        <time>2017-12-06T08:33:03Z</time>
      </trkpt>
      <trkpt lat="44.87275" lon="-0.75531">
        <ele>30.7</ele>
        <time>2017-12-06T08:33:04Z</time>
      </trkpt>
      <trkpt lat="44.87272" lon="-0.75533">
        <ele>30.9</ele>
        <time>2017-12-06T08:33:05Z</time>
      </trkpt>
      <trkpt lat="44.8727" lon="-0.75534">
        <ele>31</ele>
        <time>2017-12-06T08:33:06Z</time>
      </trkpt>
      <trkpt lat="44.87267" lon="-0.75535">
        <ele>31.2</ele>
        <time>2017-12-06T08:33:07Z</time>
      </trkpt>
      <trkpt lat="44.87263" lon="-0.75536">
        <ele>31.3</ele>
        <time>2017-12-06T08:33:08Z</time>
      </trkpt>
      <trkpt lat="44.87259" lon="-0.75538">
        <ele>31.4</ele>
        <time>2017-12-06T08:33:09Z</time>
      </trkpt>
      <trkpt lat="44.87256" lon="-0.75539">
        <ele>31.6</ele>
        <time>2017-12-06T08:33:10Z</time>
      </trkpt>
      <trkpt lat="44.87252" lon="-0.75542">
        <ele>31.7</ele>
        <time>2017-12-06T08:33:11Z</time>
      </trkpt>
      <trkpt lat="44.87248" lon="-0.75544">
        <ele>31.8</ele>
        <time>2017-12-06T08:33:12Z</time>
      </trkpt>
      <trkpt lat="44.87244" lon="-0.75546">
        <ele>32</ele>
        <time>2017-12-06T08:33:13Z</time>
      </trkpt>
      <trkpt lat="44.8724" lon="-0.75547">
        <ele>32.1</ele>
        <time>2017-12-06T08:33:14Z</time>
      </trkpt>
      <trkpt lat="44.87237" lon="-0.75549">
        <ele>32.2</ele>
        <time>2017-12-06T08:33:15Z</time>
      </trkpt>
      <trkpt lat="44.87234" lon="-0.75551">
        <ele>32.3</ele>
        <time>2017-12-06T08:33:16Z</time>
      </trkpt>
      <trkpt lat="44.87229" lon="-0.75553">
        <ele>32.5</ele>
        <time>2017-12-06T08:33:17Z</time>
      </trkpt>
      <trkpt lat="44.87225" lon="-0.75555">
        <ele>32.6</ele>
        <time>2017-12-06T08:33:18Z</time>
      </trkpt>
      <trkpt lat="44.87221" lon="-0.75557">
        <ele>32.8</ele>
        <time>2017-12-06T08:33:19Z</time>
      </trkpt>
      <trkpt lat="44.87217" lon="-0.75559">
        <ele>32.9</ele>
        <time>2017-12-06T08:33:20Z</time>
      </trkpt>
      <trkpt lat="44.87214" lon="-0.7556">
        <ele>33.1</ele>
        <time>2017-12-06T08:33:21Z</time>
      </trkpt>
      <trkpt lat="44.8721" lon="-0.75561">
        <ele>33.3</ele>
        <time>2017-12-06T08:33:22Z</time>
      </trkpt>
      <trkpt lat="44.87207" lon="-0.75562">
        <ele>33.4</ele>
        <time>2017-12-06T08:33:23Z</time>
      </trkpt>
      <trkpt lat="44.87201" lon="-0.75564">
        <ele>33.7</ele>
        <time>2017-12-06T08:33:25Z</time>
      </trkpt>
      <trkpt lat="44.87197" lon="-0.75565">
        <ele>33.9</ele>
        <time>2017-12-06T08:33:26Z</time>
      </trkpt>
      <trkpt lat="44.87193" lon="-0.75566">
        <ele>34.1</ele>
        <time>2017-12-06T08:33:27Z</time>
      </trkpt>
      <trkpt lat="44.87186" lon="-0.75569">
        <ele>34.4</ele>
        <time>2017-12-06T08:33:29Z</time>
      </trkpt>
      <trkpt lat="44.87182" lon="-0.7557">
        <ele>34.6</ele>
        <time>2017-12-06T08:33:30Z</time>
      </trkpt>
      <trkpt lat="44.87177" lon="-0.75572">
        <ele>34.7</ele>
        <time>2017-12-06T08:33:31Z</time>
      </trkpt>
      <trkpt lat="44.87173" lon="-0.75575">
        <ele>34.9</ele>
        <time>2017-12-06T08:33:32Z</time>
      </trkpt>
      <trkpt lat="44.8717" lon="-0.75579">
        <ele>35</ele>
        <time>2017-12-06T08:33:33Z</time>
      </trkpt>
      <trkpt lat="44.87166" lon="-0.75582">
        <ele>35</ele>
        <time>2017-12-06T08:33:34Z</time>
      </trkpt>
      <trkpt lat="44.87162" lon="-0.75584">
        <ele>35</ele>
        <time>2017-12-06T08:33:35Z</time>
      </trkpt>
      <trkpt lat="44.87158" lon="-0.75586">
        <ele>35</ele>
        <time>2017-12-06T08:33:36Z</time>
      </trkpt>
      <trkpt lat="44.87153" lon="-0.75588">
        <ele>35</ele>
        <time>2017-12-06T08:33:37Z</time>
      </trkpt>
      <trkpt lat="44.87149" lon="-0.7559">
        <ele>35</ele>
        <time>2017-12-06T08:33:38Z</time>
      </trkpt>
      <trkpt lat="44.87145" lon="-0.75592">
        <ele>34.9</ele>
        <time>2017-12-06T08:33:39Z</time>
      </trkpt>
      <trkpt lat="44.8714" lon="-0.75593">
        <ele>34.8</ele>
        <time>2017-12-06T08:33:40Z</time>
      </trkpt>
      <trkpt lat="44.87136" lon="-0.75595">
        <ele>34.6</ele>
        <time>2017-12-06T08:33:41Z</time>
      </trkpt>
      <trkpt lat="44.87132" lon="-0.75598">
        <ele>34.4</ele>
        <time>2017-12-06T08:33:42Z</time>
      </trkpt>
      <trkpt lat="44.87128" lon="-0.756">
        <ele>34.3</ele>
        <time>2017-12-06T08:33:43Z</time>
      </trkpt>
      <trkpt lat="44.87123" lon="-0.75602">
        <ele>34</ele>
        <time>2017-12-06T08:33:44Z</time>
      </trkpt>
      <trkpt lat="44.87118" lon="-0.75605">
        <ele>33.8</ele>
        <time>2017-12-06T08:33:45Z</time>
      </trkpt>
      <trkpt lat="44.87113" lon="-0.75606">
        <ele>33.5</ele>
        <time>2017-12-06T08:33:46Z</time>
      </trkpt>
      <trkpt lat="44.87107" lon="-0.75608">
        <ele>33.2</ele>
        <time>2017-12-06T08:33:47Z</time>
      </trkpt>
      <trkpt lat="44.87102" lon="-0.75611">
        <ele>33</ele>
        <time>2017-12-06T08:33:48Z</time>
      </trkpt>
      <trkpt lat="44.87096" lon="-0.75614">
        <ele>32.7</ele>
        <time>2017-12-06T08:33:49Z</time>
      </trkpt>
      <trkpt lat="44.87091" lon="-0.75617">
        <ele>32.6</ele>
        <time>2017-12-06T08:33:50Z</time>
      </trkpt>
      <trkpt lat="44.87085" lon="-0.75622">
        <ele>32.5</ele>
        <time>2017-12-06T08:33:51Z</time>
      </trkpt>
      <trkpt lat="44.87078" lon="-0.75626">
        <ele>32.4</ele>
        <time>2017-12-06T08:33:52Z</time>
      </trkpt>
      <trkpt lat="44.87073" lon="-0.75629">
        <ele>32.3</ele>
        <time>2017-12-06T08:33:53Z</time>
      </trkpt>
      <trkpt lat="44.87067" lon="-0.75632">
        <ele>32.2</ele>
        <time>2017-12-06T08:33:54Z</time>
      </trkpt>
      <trkpt lat="44.87062" lon="-0.75636">
        <ele>32</ele>
        <time>2017-12-06T08:33:55Z</time>
      </trkpt>
      <trkpt lat="44.87057" lon="-0.75641">
        <ele>31.8</ele>
        <time>2017-12-06T08:33:56Z</time>
      </trkpt>
      <trkpt lat="44.87052" lon="-0.75646">
        <ele>31.7</ele>
        <time>2017-12-06T08:33:57Z</time>
      </trkpt>
      <trkpt lat="44.87048" lon="-0.7565">
        <ele>31.5</ele>
        <time>2017-12-06T08:33:58Z</time>
      </trkpt>
      <trkpt lat="44.87044" lon="-0.75655">
        <ele>31.4</ele>
        <time>2017-12-06T08:33:59Z</time>
      </trkpt>
      <trkpt lat="44.87039" lon="-0.75658">
        <ele>31.3</ele>
        <time>2017-12-06T08:34:00Z</time>
      </trkpt>
      <trkpt lat="44.87034" lon="-0.7566">
        <ele>31.3</ele>
        <time>2017-12-06T08:34:01Z</time>
      </trkpt>
      <trkpt lat="44.8703" lon="-0.75663">
        <ele>31.4</ele>
        <time>2017-12-06T08:34:02Z</time>
      </trkpt>
      <trkpt lat="44.87026" lon="-0.75666">
        <ele>31.5</ele>
        <time>2017-12-06T08:34:03Z</time>
      </trkpt>
      <trkpt lat="44.87022" lon="-0.75669">
        <ele>31.6</ele>
        <time>2017-12-06T08:34:04Z</time>
      </trkpt>
      <trkpt lat="44.87017" lon="-0.75672">
        <ele>31.8</ele>
        <time>2017-12-06T08:34:05Z</time>
      </trkpt>
      <trkpt lat="44.87013" lon="-0.75675">
        <ele>31.9</ele>
        <time>2017-12-06T08:34:06Z</time>
      </trkpt>
      <trkpt lat="44.8701" lon="-0.75678">
        <ele>32.1</ele>
        <time>2017-12-06T08:34:07Z</time>
      </trkpt>
      <trkpt lat="44.87007" lon="-0.75679">
        <ele>32.2</ele>
        <time>2017-12-06T08:34:08Z</time>
      </trkpt>
      <trkpt lat="44.87002" lon="-0.75679">
        <ele>32.2</ele>
        <time>2017-12-06T08:34:09Z</time>
      </trkpt>
      <trkpt lat="44.86998" lon="-0.75678">
        <ele>32.3</ele>
        <time>2017-12-06T08:34:10Z</time>
      </trkpt>
      <trkpt lat="44.86994" lon="-0.75678">
        <ele>32.3</ele>
        <time>2017-12-06T08:34:11Z</time>
      </trkpt>
      <trkpt lat="44.8699" lon="-0.75677">
        <ele>32.3</ele>
        <time>2017-12-06T08:34:12Z</time>
      </trkpt>
      <trkpt lat="44.86985" lon="-0.75676">
        <ele>32.3</ele>
        <time>2017-12-06T08:34:13Z</time>
      </trkpt>
      <trkpt lat="44.86981" lon="-0.75675">
        <ele>32.4</ele>
        <time>2017-12-06T08:34:14Z</time>
      </trkpt>
      <trkpt lat="44.86977" lon="-0.75674">
        <ele>32.4</ele>
        <time>2017-12-06T08:34:15Z</time>
      </trkpt>
      <trkpt lat="44.86973" lon="-0.75674">
        <ele>32.5</ele>
        <time>2017-12-06T08:34:16Z</time>
      </trkpt>
      <trkpt lat="44.86969" lon="-0.75673">
        <ele>32.6</ele>
        <time>2017-12-06T08:34:17Z</time>
      </trkpt>
      <trkpt lat="44.86966" lon="-0.75672">
        <ele>32.7</ele>
        <time>2017-12-06T08:34:18Z</time>
      </trkpt>
      <trkpt lat="44.86962" lon="-0.7567">
        <ele>32.8</ele>
        <time>2017-12-06T08:34:19Z</time>
      </trkpt>
      <trkpt lat="44.8696" lon="-0.75669">
        <ele>32.8</ele>
        <time>2017-12-06T08:34:20Z</time>
      </trkpt>
      <trkpt lat="44.86957" lon="-0.75667">
        <ele>32.9</ele>
        <time>2017-12-06T08:34:21Z</time>
      </trkpt>
      <trkpt lat="44.86954" lon="-0.75665">
        <ele>32.9</ele>
        <time>2017-12-06T08:34:22Z</time>
      </trkpt>
      <trkpt lat="44.8695" lon="-0.75662">
        <ele>32.9</ele>
        <time>2017-12-06T08:34:23Z</time>
      </trkpt>
      <trkpt lat="44.86947" lon="-0.7566">
        <ele>32.8</ele>
        <time>2017-12-06T08:34:24Z</time>
      </trkpt>
      <trkpt lat="44.86943" lon="-0.7566">
        <ele>32.7</ele>
        <time>2017-12-06T08:34:25Z</time>
      </trkpt>
      <trkpt lat="44.86938" lon="-0.75659">
        <ele>32.5</ele>
        <time>2017-12-06T08:34:26Z</time>
      </trkpt>
      <trkpt lat="44.86934" lon="-0.75657">
        <ele>32.2</ele>
        <time>2017-12-06T08:34:27Z</time>
      </trkpt>
      <trkpt lat="44.86928" lon="-0.75655">
        <ele>31.8</ele>
        <time>2017-12-06T08:34:28Z</time>
      </trkpt>
      <trkpt lat="44.86922" lon="-0.75652">
        <ele>31.4</ele>
        <time>2017-12-06T08:34:29Z</time>
      </trkpt>
      <trkpt lat="44.86915" lon="-0.7565">
        <ele>30.7</ele>
        <time>2017-12-06T08:34:30Z</time>
      </trkpt>
      <trkpt lat="44.86909" lon="-0.75649">
        <ele>30.2</ele>
        <time>2017-12-06T08:34:31Z</time>
      </trkpt>
      <trkpt lat="44.86903" lon="-0.75646">
        <ele>29.8</ele>
        <time>2017-12-06T08:34:32Z</time>
      </trkpt>
      <trkpt lat="44.86898" lon="-0.75643">
        <ele>29.4</ele>
        <time>2017-12-06T08:34:33Z</time>
      </trkpt>
      <trkpt lat="44.86895" lon="-0.7564">
        <ele>29.3</ele>
        <time>2017-12-06T08:34:34Z</time>
      </trkpt>
      <trkpt lat="44.86891" lon="-0.75636">
        <ele>29</ele>
        <time>2017-12-06T08:34:35Z</time>
      </trkpt>
      <trkpt lat="44.86888" lon="-0.75634">
        <ele>28.9</ele>
        <time>2017-12-06T08:34:36Z</time>
      </trkpt>
      <trkpt lat="44.86884" lon="-0.75633">
        <ele>28.8</ele>
        <time>2017-12-06T08:34:37Z</time>
      </trkpt>
      <trkpt lat="44.86882" lon="-0.75636">
        <ele>28.8</ele>
        <time>2017-12-06T08:34:38Z</time>
      </trkpt>
      <trkpt lat="44.86878" lon="-0.75636">
        <ele>28.8</ele>
        <time>2017-12-06T08:34:40Z</time>
      </trkpt>
      <trkpt lat="44.86875" lon="-0.75635">
        <ele>28.9</ele>
        <time>2017-12-06T08:34:41Z</time>
      </trkpt>
      <trkpt lat="44.86872" lon="-0.75632">
        <ele>29</ele>
        <time>2017-12-06T08:34:42Z</time>
      </trkpt>
      <trkpt lat="44.8687" lon="-0.75628">
        <ele>29.1</ele>
        <time>2017-12-06T08:34:43Z</time>
      </trkpt>
      <trkpt lat="44.86866" lon="-0.75624">
        <ele>29.2</ele>
        <time>2017-12-06T08:34:44Z</time>
      </trkpt>
      <trkpt lat="44.86863" lon="-0.75621">
        <ele>29.2</ele>
        <time>2017-12-06T08:34:45Z</time>
      </trkpt>
      <trkpt lat="44.86859" lon="-0.75618">
        <ele>29.1</ele>
        <time>2017-12-06T08:34:46Z</time>
      </trkpt>
      <trkpt lat="44.86855" lon="-0.75616">
        <ele>29</ele>
        <time>2017-12-06T08:34:47Z</time>
      </trkpt>
      <trkpt lat="44.86852" lon="-0.75616">
        <ele>28.9</ele>
        <time>2017-12-06T08:34:48Z</time>
      </trkpt>
      <trkpt lat="44.8685" lon="-0.7561">
        <ele>28.7</ele>
        <time>2017-12-06T08:34:50Z</time>
      </trkpt>
      <trkpt lat="44.86848" lon="-0.75607">
        <ele>28.7</ele>
        <time>2017-12-06T08:34:51Z</time>
      </trkpt>
      <trkpt lat="44.86846" lon="-0.75604">
        <ele>28.7</ele>
        <time>2017-12-06T08:34:52Z</time>
      </trkpt>
      <trkpt lat="44.86844" lon="-0.75605">
        <ele>28.7</ele>
        <time>2017-12-06T08:34:53Z</time>
      </trkpt>
      <trkpt lat="44.8684" lon="-0.75605">
        <ele>28.8</ele>
        <time>2017-12-06T08:34:54Z</time>
      </trkpt>
      <trkpt lat="44.86836" lon="-0.75605">
        <ele>28.9</ele>
        <time>2017-12-06T08:34:55Z</time>
      </trkpt>
      <trkpt lat="44.86831" lon="-0.75607">
        <ele>29</ele>
        <time>2017-12-06T08:34:56Z</time>
      </trkpt>
      <trkpt lat="44.86827" lon="-0.75607">
        <ele>29</ele>
        <time>2017-12-06T08:34:57Z</time>
      </trkpt>
      <trkpt lat="44.86822" lon="-0.75608">
        <ele>29</ele>
        <time>2017-12-06T08:34:58Z</time>
      </trkpt>
      <trkpt lat="44.86818" lon="-0.75606">
        <ele>29</ele>
        <time>2017-12-06T08:34:59Z</time>
      </trkpt>
      <trkpt lat="44.86813" lon="-0.75607">
        <ele>28.9</ele>
        <time>2017-12-06T08:35:00Z</time>
      </trkpt>
      <trkpt lat="44.86809" lon="-0.75607">
        <ele>28.8</ele>
        <time>2017-12-06T08:35:01Z</time>
      </trkpt>
      <trkpt lat="44.86806" lon="-0.75609">
        <ele>28.7</ele>
        <time>2017-12-06T08:35:02Z</time>
      </trkpt>
      <trkpt lat="44.86804" lon="-0.75612">
        <ele>28.7</ele>
        <time>2017-12-06T08:35:03Z</time>
      </trkpt>
      <trkpt lat="44.86801" lon="-0.75617">
        <ele>28.6</ele>
        <time>2017-12-06T08:35:04Z</time>
      </trkpt>
      <trkpt lat="44.86798" lon="-0.7562">
        <ele>28.6</ele>
        <time>2017-12-06T08:35:05Z</time>
      </trkpt>
      <trkpt lat="44.86795" lon="-0.75624">
        <ele>28.6</ele>
        <time>2017-12-06T08:35:06Z</time>
      </trkpt>
      <trkpt lat="44.86792" lon="-0.75627">
        <ele>28.6</ele>
        <time>2017-12-06T08:35:07Z</time>
      </trkpt>
      <trkpt lat="44.86789" lon="-0.75628">
        <ele>28.7</ele>
        <time>2017-12-06T08:35:08Z</time>
      </trkpt>
      <trkpt lat="44.86785" lon="-0.75629">
        <ele>28.8</ele>
        <time>2017-12-06T08:35:09Z</time>
      </trkpt>
      <trkpt lat="44.86782" lon="-0.75629">
        <ele>28.9</ele>
        <time>2017-12-06T08:35:10Z</time>
      </trkpt>
      <trkpt lat="44.86779" lon="-0.75629">
        <ele>29</ele>
        <time>2017-12-06T08:35:11Z</time>
      </trkpt>
      <trkpt lat="44.86775" lon="-0.75629">
        <ele>29.1</ele>
        <time>2017-12-06T08:35:12Z</time>
      </trkpt>
      <trkpt lat="44.86769" lon="-0.7563">
        <ele>29.2</ele>
        <time>2017-12-06T08:35:13Z</time>
      </trkpt>
      <trkpt lat="44.86766" lon="-0.75632">
        <ele>29.2</ele>
        <time>2017-12-06T08:35:14Z</time>
      </trkpt>
      <trkpt lat="44.86766" lon="-0.75637">
        <ele>29.2</ele>
        <time>2017-12-06T08:35:15Z</time>
      </trkpt>
      <trkpt lat="44.86765" lon="-0.75641">
        <ele>29.1</ele>
        <time>2017-12-06T08:35:16Z</time>
      </trkpt>
      <trkpt lat="44.86767" lon="-0.75646">
        <ele>29.1</ele>
        <time>2017-12-06T08:35:17Z</time>
      </trkpt>
      <trkpt lat="44.86768" lon="-0.7565">
        <ele>29</ele>
        <time>2017-12-06T08:35:18Z</time>
      </trkpt>
      <trkpt lat="44.86768" lon="-0.75654">
        <ele>29</ele>
        <time>2017-12-06T08:35:19Z</time>
      </trkpt>
      <trkpt lat="44.86772" lon="-0.75656">
        <ele>29</ele>
        <time>2017-12-06T08:35:21Z</time>
      </trkpt>
      <trkpt lat="44.86775" lon="-0.7566">
        <ele>29</ele>
        <time>2017-12-06T08:35:22Z</time>
      </trkpt>
      <trkpt lat="44.86777" lon="-0.75663">
        <ele>29</ele>
        <time>2017-12-06T08:35:23Z</time>
      </trkpt>
      <trkpt lat="44.86778" lon="-0.75668">
        <ele>29</ele>
        <time>2017-12-06T08:35:24Z</time>
      </trkpt>
      <trkpt lat="44.86778" lon="-0.75674">
        <ele>29</ele>
        <time>2017-12-06T08:35:25Z</time>
      </trkpt>
      <trkpt lat="44.86778" lon="-0.75679">
        <ele>28.9</ele>
        <time>2017-12-06T08:35:26Z</time>
      </trkpt>
      <trkpt lat="44.86777" lon="-0.75684">
        <ele>28.9</ele>
        <time>2017-12-06T08:35:27Z</time>
      </trkpt>
      <trkpt lat="44.86778" lon="-0.75691">
        <ele>28.8</ele>
        <time>2017-12-06T08:35:28Z</time>
      </trkpt>
      <trkpt lat="44.86779" lon="-0.75696">
        <ele>28.7</ele>
        <time>2017-12-06T08:35:29Z</time>
      </trkpt>
      <trkpt lat="44.86779" lon="-0.75702">
        <ele>28.7</ele>
        <time>2017-12-06T08:35:30Z</time>
      </trkpt>
      <trkpt lat="44.86778" lon="-0.75708">
        <ele>28.6</ele>
        <time>2017-12-06T08:35:31Z</time>
      </trkpt>
      <trkpt lat="44.86777" lon="-0.75714">
        <ele>28.6</ele>
        <time>2017-12-06T08:35:32Z</time>
      </trkpt>
      <trkpt lat="44.86775" lon="-0.7572">
        <ele>28.5</ele>
        <time>2017-12-06T08:35:33Z</time>
      </trkpt>
      <trkpt lat="44.86774" lon="-0.75727">
        <ele>28.5</ele>
        <time>2017-12-06T08:35:34Z</time>
      </trkpt>
      <trkpt lat="44.86772" lon="-0.75734">
        <ele>28.4</ele>
        <time>2017-12-06T08:35:35Z</time>
      </trkpt>
      <trkpt lat="44.8677" lon="-0.75741">
        <ele>28.3</ele>
        <time>2017-12-06T08:35:36Z</time>
      </trkpt>
      <trkpt lat="44.86768" lon="-0.75748">
        <ele>28.2</ele>
        <time>2017-12-06T08:35:37Z</time>
      </trkpt>
      <trkpt lat="44.86767" lon="-0.75755">
        <ele>28.2</ele>
        <time>2017-12-06T08:35:38Z</time>
      </trkpt>
      <trkpt lat="44.86765" lon="-0.75762">
        <ele>28.2</ele>
        <time>2017-12-06T08:35:39Z</time>
      </trkpt>
      <trkpt lat="44.86763" lon="-0.75766">
        <ele>28.2</ele>
        <time>2017-12-06T08:35:40Z</time>
      </trkpt>
      <trkpt lat="44.86762" lon="-0.75774">
        <ele>28.2</ele>
        <time>2017-12-06T08:35:41Z</time>
      </trkpt>
      <trkpt lat="44.8676" lon="-0.75781">
        <ele>28.3</ele>
        <time>2017-12-06T08:35:42Z</time>
      </trkpt>
      <trkpt lat="44.86758" lon="-0.75785">
        <ele>28.3</ele>
        <time>2017-12-06T08:35:43Z</time>
      </trkpt>
      <trkpt lat="44.86756" lon="-0.75791">
        <ele>28.3</ele>
        <time>2017-12-06T08:35:44Z</time>
      </trkpt>
      <trkpt lat="44.86755" lon="-0.75797">
        <ele>28.4</ele>
        <time>2017-12-06T08:35:45Z</time>
      </trkpt>
      <trkpt lat="44.86753" lon="-0.75802">
        <ele>28.4</ele>
        <time>2017-12-06T08:35:46Z</time>
      </trkpt>
      <trkpt lat="44.86751" lon="-0.75807">
        <ele>28.5</ele>
        <time>2017-12-06T08:35:47Z</time>
      </trkpt>
      <trkpt lat="44.86749" lon="-0.75813">
        <ele>28.5</ele>
        <time>2017-12-06T08:35:48Z</time>
      </trkpt>
      <trkpt lat="44.86748" lon="-0.75818">
        <ele>28.6</ele>
        <time>2017-12-06T08:35:49Z</time>
      </trkpt>
      <trkpt lat="44.8675" lon="-0.75824">
        <ele>28.7</ele>
        <time>2017-12-06T08:35:50Z</time>
      </trkpt>
      <trkpt lat="44.8675" lon="-0.75828">
        <ele>28.8</ele>
        <time>2017-12-06T08:35:51Z</time>
      </trkpt>
      <trkpt lat="44.86748" lon="-0.75835">
        <ele>28.9</ele>
        <time>2017-12-06T08:35:53Z</time>
      </trkpt>
      <trkpt lat="44.86745" lon="-0.75841">
        <ele>29</ele>
        <time>2017-12-06T08:35:55Z</time>
      </trkpt>
      <trkpt lat="44.86742" lon="-0.75843">
        <ele>29</ele>
        <time>2017-12-06T08:35:56Z</time>
      </trkpt>
      <trkpt lat="44.86739" lon="-0.75846">
        <ele>29.1</ele>
        <time>2017-12-06T08:35:57Z</time>
      </trkpt>
      <trkpt lat="44.86736" lon="-0.75848">
        <ele>29.3</ele>
        <time>2017-12-06T08:35:58Z</time>
      </trkpt>
      <trkpt lat="44.86733" lon="-0.75853">
        <ele>29.3</ele>
        <time>2017-12-06T08:35:59Z</time>
      </trkpt>
      <trkpt lat="44.86731" lon="-0.75858">
        <ele>29.3</ele>
        <time>2017-12-06T08:36:00Z</time>
      </trkpt>
      <trkpt lat="44.86729" lon="-0.75862">
        <ele>29.3</ele>
        <time>2017-12-06T08:36:01Z</time>
      </trkpt>
      <trkpt lat="44.86726" lon="-0.75866">
        <ele>29.2</ele>
        <time>2017-12-06T08:36:02Z</time>
      </trkpt>
      <trkpt lat="44.86723" lon="-0.75869">
        <ele>29.2</ele>
        <time>2017-12-06T08:36:03Z</time>
      </trkpt>
      <trkpt lat="44.8672" lon="-0.75872">
        <ele>29.2</ele>
        <time>2017-12-06T08:36:04Z</time>
      </trkpt>
      <trkpt lat="44.86718" lon="-0.75877">
        <ele>29.2</ele>
        <time>2017-12-06T08:36:05Z</time>
      </trkpt>
      <trkpt lat="44.86715" lon="-0.75883">
        <ele>29.2</ele>
        <time>2017-12-06T08:36:06Z</time>
      </trkpt>
      <trkpt lat="44.86712" lon="-0.75888">
        <ele>29.2</ele>
        <time>2017-12-06T08:36:07Z</time>
      </trkpt>
      <trkpt lat="44.86707" lon="-0.75889">
        <ele>29.2</ele>
        <time>2017-12-06T08:36:08Z</time>
      </trkpt>
      <trkpt lat="44.86703" lon="-0.75891">
        <ele>29.1</ele>
        <time>2017-12-06T08:36:09Z</time>
      </trkpt>
      <trkpt lat="44.86699" lon="-0.75893">
        <ele>29</ele>
        <time>2017-12-06T08:36:10Z</time>
      </trkpt>
      <trkpt lat="44.86695" lon="-0.75893">
        <ele>29</ele>
        <time>2017-12-06T08:36:11Z</time>
      </trkpt>
      <trkpt lat="44.86692" lon="-0.75894">
        <ele>29</ele>
        <time>2017-12-06T08:36:12Z</time>
      </trkpt>
      <trkpt lat="44.86689" lon="-0.75897">
        <ele>29</ele>
        <time>2017-12-06T08:36:13Z</time>
      </trkpt>
      <trkpt lat="44.86688" lon="-0.759">
        <ele>28.9</ele>
        <time>2017-12-06T08:36:14Z</time>
      </trkpt>
      <trkpt lat="44.86686" lon="-0.75907">
        <ele>28.9</ele>
        <time>2017-12-06T08:36:16Z</time>
      </trkpt>
      <trkpt lat="44.86684" lon="-0.7591">
        <ele>29</ele>
        <time>2017-12-06T08:36:17Z</time>
      </trkpt>
      <trkpt lat="44.86678" lon="-0.7591">
        <ele>28.9</ele>
        <time>2017-12-06T08:36:19Z</time>
      </trkpt>
      <trkpt lat="44.86675" lon="-0.75908">
        <ele>28.9</ele>
        <time>2017-12-06T08:36:20Z</time>
      </trkpt>
      <trkpt lat="44.86669" lon="-0.75903">
        <ele>28.9</ele>
        <time>2017-12-06T08:36:22Z</time>
      </trkpt>
      <trkpt lat="44.86667" lon="-0.75899">
        <ele>28.9</ele>
        <time>2017-12-06T08:36:23Z</time>
      </trkpt>
      <trkpt lat="44.86664" lon="-0.75898">
        <ele>28.9</ele>
        <time>2017-12-06T08:36:24Z</time>
      </trkpt>
      <trkpt lat="44.86661" lon="-0.75894">
        <ele>28.9</ele>
        <time>2017-12-06T08:36:26Z</time>
      </trkpt>
      <trkpt lat="44.86658" lon="-0.7589">
        <ele>28.9</ele>
        <time>2017-12-06T08:36:27Z</time>
      </trkpt>
      <trkpt lat="44.86653" lon="-0.75886">
        <ele>29</ele>
        <time>2017-12-06T08:36:29Z</time>
      </trkpt>
      <trkpt lat="44.8665" lon="-0.75883">
        <ele>29.1</ele>
        <time>2017-12-06T08:36:30Z</time>
      </trkpt>
      <trkpt lat="44.86647" lon="-0.75883">
        <ele>29.1</ele>
        <time>2017-12-06T08:36:31Z</time>
      </trkpt>
      <trkpt lat="44.86644" lon="-0.75882">
        <ele>29.1</ele>
        <time>2017-12-06T08:36:32Z</time>
      </trkpt>
      <trkpt lat="44.8664" lon="-0.7588">
        <ele>29.1</ele>
        <time>2017-12-06T08:36:33Z</time>
      </trkpt>
      <trkpt lat="44.86637" lon="-0.7588">
        <ele>29.1</ele>
        <time>2017-12-06T08:36:34Z</time>
      </trkpt>
      <trkpt lat="44.86634" lon="-0.75879">
        <ele>29.1</ele>
        <time>2017-12-06T08:36:35Z</time>
      </trkpt>
      <trkpt lat="44.8663" lon="-0.75878">
        <ele>29.1</ele>
        <time>2017-12-06T08:36:36Z</time>
      </trkpt>
      <trkpt lat="44.86625" lon="-0.75877">
        <ele>29.1</ele>
        <time>2017-12-06T08:36:37Z</time>
      </trkpt>
      <trkpt lat="44.86621" lon="-0.75875">
        <ele>29.2</ele>
        <time>2017-12-06T08:36:38Z</time>
      </trkpt>
      <trkpt lat="44.86617" lon="-0.75874">
        <ele>29.3</ele>
        <time>2017-12-06T08:36:39Z</time>
      </trkpt>
      <trkpt lat="44.86612" lon="-0.75875">
        <ele>29.4</ele>
        <time>2017-12-06T08:36:40Z</time>
      </trkpt>
      <trkpt lat="44.86608" lon="-0.75877">
        <ele>29.4</ele>
        <time>2017-12-06T08:36:41Z</time>
      </trkpt>
      <trkpt lat="44.86604" lon="-0.75878">
        <ele>29.5</ele>
        <time>2017-12-06T08:36:42Z</time>
      </trkpt>
      <trkpt lat="44.86601" lon="-0.7588">
        <ele>29.5</ele>
        <time>2017-12-06T08:36:43Z</time>
      </trkpt>
      <trkpt lat="44.86598" lon="-0.75883">
        <ele>29.5</ele>
        <time>2017-12-06T08:36:44Z</time>
      </trkpt>
      <trkpt lat="44.86595" lon="-0.75887">
        <ele>29.5</ele>
        <time>2017-12-06T08:36:45Z</time>
      </trkpt>
      <trkpt lat="44.86592" lon="-0.75891">
        <ele>29.6</ele>
        <time>2017-12-06T08:36:46Z</time>
      </trkpt>
      <trkpt lat="44.86586" lon="-0.75893">
        <ele>29.6</ele>
        <time>2017-12-06T08:36:47Z</time>
      </trkpt>
      <trkpt lat="44.86584" lon="-0.75897">
        <ele>29.7</ele>
        <time>2017-12-06T08:36:48Z</time>
      </trkpt>
      <trkpt lat="44.86583" lon="-0.75903">
        <ele>29.7</ele>
        <time>2017-12-06T08:36:49Z</time>
      </trkpt>
      <trkpt lat="44.86582" lon="-0.75909">
        <ele>29.8</ele>
        <time>2017-12-06T08:36:50Z</time>
      </trkpt>
      <trkpt lat="44.8658" lon="-0.75914">
        <ele>29.8</ele>
        <time>2017-12-06T08:36:51Z</time>
      </trkpt>
      <trkpt lat="44.8658" lon="-0.75921">
        <ele>29.8</ele>
        <time>2017-12-06T08:36:52Z</time>
      </trkpt>
      <trkpt lat="44.8658" lon="-0.75928">
        <ele>29.9</ele>
        <time>2017-12-06T08:36:53Z</time>
      </trkpt>
      <trkpt lat="44.8658" lon="-0.75934">
        <ele>30</ele>
        <time>2017-12-06T08:36:54Z</time>
      </trkpt>
      <trkpt lat="44.86581" lon="-0.7594">
        <ele>30</ele>
        <time>2017-12-06T08:36:55Z</time>
      </trkpt>
      <trkpt lat="44.86581" lon="-0.75946">
        <ele>30</ele>
        <time>2017-12-06T08:36:56Z</time>
      </trkpt>
      <trkpt lat="44.86581" lon="-0.75953">
        <ele>30</ele>
        <time>2017-12-06T08:36:57Z</time>
      </trkpt>
      <trkpt lat="44.8658" lon="-0.75959">
        <ele>30</ele>
        <time>2017-12-06T08:36:58Z</time>
      </trkpt>
      <trkpt lat="44.86579" lon="-0.75965">
        <ele>30</ele>
        <time>2017-12-06T08:36:59Z</time>
      </trkpt>
      <trkpt lat="44.86578" lon="-0.75971">
        <ele>30</ele>
        <time>2017-12-06T08:37:00Z</time>
      </trkpt>
      <trkpt lat="44.86576" lon="-0.75978">
        <ele>30.1</ele>
        <time>2017-12-06T08:37:01Z</time>
      </trkpt>
      <trkpt lat="44.86575" lon="-0.75985">
        <ele>30.1</ele>
        <time>2017-12-06T08:37:02Z</time>
      </trkpt>
      <trkpt lat="44.86573" lon="-0.75992">
        <ele>30.1</ele>
        <time>2017-12-06T08:37:03Z</time>
      </trkpt>
      <trkpt lat="44.86571" lon="-0.75998">
        <ele>30.2</ele>
        <time>2017-12-06T08:37:04Z</time>
      </trkpt>
      <trkpt lat="44.86569" lon="-0.76004">
        <ele>30.2</ele>
        <time>2017-12-06T08:37:05Z</time>
      </trkpt>
      <trkpt lat="44.86567" lon="-0.76009">
        <ele>30.3</ele>
        <time>2017-12-06T08:37:06Z</time>
      </trkpt>
      <trkpt lat="44.86563" lon="-0.76013">
        <ele>30.3</ele>
        <time>2017-12-06T08:37:07Z</time>
      </trkpt>
      <trkpt lat="44.8656" lon="-0.76017">
        <ele>30.4</ele>
        <time>2017-12-06T08:37:08Z</time>
      </trkpt>
      <trkpt lat="44.86557" lon="-0.76022">
        <ele>30.4</ele>
        <time>2017-12-06T08:37:09Z</time>
      </trkpt>
      <trkpt lat="44.86554" lon="-0.76025">
        <ele>30.5</ele>
        <time>2017-12-06T08:37:10Z</time>
      </trkpt>
      <trkpt lat="44.86551" lon="-0.76031">
        <ele>30.6</ele>
        <time>2017-12-06T08:37:11Z</time>
      </trkpt>
      <trkpt lat="44.86548" lon="-0.76036">
        <ele>30.7</ele>
        <time>2017-12-06T08:37:12Z</time>
      </trkpt>
      <trkpt lat="44.86546" lon="-0.76041">
        <ele>30.8</ele>
        <time>2017-12-06T08:37:13Z</time>
      </trkpt>
      <trkpt lat="44.86545" lon="-0.76048">
        <ele>30.8</ele>
        <time>2017-12-06T08:37:14Z</time>
      </trkpt>
      <trkpt lat="44.86545" lon="-0.76053">
        <ele>30.9</ele>
        <time>2017-12-06T08:37:15Z</time>
      </trkpt>
      <trkpt lat="44.86542" lon="-0.76057">
        <ele>30.9</ele>
        <time>2017-12-06T08:37:16Z</time>
      </trkpt>
      <trkpt lat="44.86539" lon="-0.7606">
        <ele>30.9</ele>
        <time>2017-12-06T08:37:17Z</time>
      </trkpt>
      <trkpt lat="44.86537" lon="-0.76064">
        <ele>31</ele>
        <time>2017-12-06T08:37:18Z</time>
      </trkpt>
      <trkpt lat="44.86535" lon="-0.76067">
        <ele>31</ele>
        <time>2017-12-06T08:37:19Z</time>
      </trkpt>
      <trkpt lat="44.86532" lon="-0.7607">
        <ele>31.1</ele>
        <time>2017-12-06T08:37:20Z</time>
      </trkpt>
      <trkpt lat="44.8653" lon="-0.76074">
        <ele>31.1</ele>
        <time>2017-12-06T08:37:21Z</time>
      </trkpt>
      <trkpt lat="44.86528" lon="-0.76078">
        <ele>31.2</ele>
        <time>2017-12-06T08:37:22Z</time>
      </trkpt>
      <trkpt lat="44.86525" lon="-0.76082">
        <ele>31.2</ele>
        <time>2017-12-06T08:37:23Z</time>
      </trkpt>
      <trkpt lat="44.86522" lon="-0.76086">
        <ele>31.3</ele>
        <time>2017-12-06T08:37:24Z</time>
      </trkpt>
      <trkpt lat="44.86519" lon="-0.7609">
        <ele>31.3</ele>
        <time>2017-12-06T08:37:25Z</time>
      </trkpt>
      <trkpt lat="44.86517" lon="-0.76094">
        <ele>31.4</ele>
        <time>2017-12-06T08:37:26Z</time>
      </trkpt>
      <trkpt lat="44.86514" lon="-0.76098">
        <ele>31.4</ele>
        <time>2017-12-06T08:37:27Z</time>
      </trkpt>
      <trkpt lat="44.86511" lon="-0.76101">
        <ele>31.4</ele>
        <time>2017-12-06T08:37:28Z</time>
      </trkpt>
      <trkpt lat="44.86509" lon="-0.76104">
        <ele>31.4</ele>
        <time>2017-12-06T08:37:29Z</time>
      </trkpt>
      <trkpt lat="44.86507" lon="-0.76108">
        <ele>31.4</ele>
        <time>2017-12-06T08:37:30Z</time>
      </trkpt>
      <trkpt lat="44.86505" lon="-0.76112">
        <ele>31.3</ele>
        <time>2017-12-06T08:37:31Z</time>
      </trkpt>
      <trkpt lat="44.86502" lon="-0.76116">
        <ele>31.3</ele>
        <time>2017-12-06T08:37:32Z</time>
      </trkpt>
      <trkpt lat="44.86499" lon="-0.7612">
        <ele>31.4</ele>
        <time>2017-12-06T08:37:33Z</time>
      </trkpt>
      <trkpt lat="44.86496" lon="-0.76124">
        <ele>31.5</ele>
        <time>2017-12-06T08:37:34Z</time>
      </trkpt>
      <trkpt lat="44.86494" lon="-0.76128">
        <ele>31.6</ele>
        <time>2017-12-06T08:37:35Z</time>
      </trkpt>
      <trkpt lat="44.86491" lon="-0.76133">
        <ele>31.7</ele>
        <time>2017-12-06T08:37:36Z</time>
      </trkpt>
      <trkpt lat="44.86488" lon="-0.76137">
        <ele>31.8</ele>
        <time>2017-12-06T08:37:37Z</time>
      </trkpt>
      <trkpt lat="44.86485" lon="-0.76142">
        <ele>31.9</ele>
        <time>2017-12-06T08:37:38Z</time>
      </trkpt>
      <trkpt lat="44.86483" lon="-0.76147">
        <ele>32</ele>
        <time>2017-12-06T08:37:39Z</time>
      </trkpt>
      <trkpt lat="44.86481" lon="-0.76153">
        <ele>32</ele>
        <time>2017-12-06T08:37:40Z</time>
      </trkpt>
      <trkpt lat="44.86479" lon="-0.76158">
        <ele>32</ele>
        <time>2017-12-06T08:37:41Z</time>
      </trkpt>
      <trkpt lat="44.86476" lon="-0.76164">
        <ele>32</ele>
        <time>2017-12-06T08:37:42Z</time>
      </trkpt>
      <trkpt lat="44.86474" lon="-0.76168">
        <ele>32</ele>
        <time>2017-12-06T08:37:43Z</time>
      </trkpt>
      <trkpt lat="44.86471" lon="-0.76172">
        <ele>32</ele>
        <time>2017-12-06T08:37:44Z</time>
      </trkpt>
      <trkpt lat="44.86467" lon="-0.76175">
        <ele>32</ele>
        <time>2017-12-06T08:37:45Z</time>
      </trkpt>
      <trkpt lat="44.86465" lon="-0.76179">
        <ele>32</ele>
        <time>2017-12-06T08:37:46Z</time>
      </trkpt>
      <trkpt lat="44.86463" lon="-0.76185">
        <ele>32</ele>
        <time>2017-12-06T08:37:47Z</time>
      </trkpt>
      <trkpt lat="44.86461" lon="-0.7619">
        <ele>32.1</ele>
        <time>2017-12-06T08:37:48Z</time>
      </trkpt>
      <trkpt lat="44.8646" lon="-0.76195">
        <ele>32.2</ele>
        <time>2017-12-06T08:37:49Z</time>
      </trkpt>
      <trkpt lat="44.86458" lon="-0.76199">
        <ele>32.3</ele>
        <time>2017-12-06T08:37:50Z</time>
      </trkpt>
      <trkpt lat="44.86457" lon="-0.76205">
        <ele>32.3</ele>
        <time>2017-12-06T08:37:51Z</time>
      </trkpt>
      <trkpt lat="44.86457" lon="-0.7621">
        <ele>32.2</ele>
        <time>2017-12-06T08:37:52Z</time>
      </trkpt>
      <trkpt lat="44.86456" lon="-0.76215">
        <ele>32.2</ele>
        <time>2017-12-06T08:37:53Z</time>
      </trkpt>
      <trkpt lat="44.86455" lon="-0.76221">
        <ele>32.1</ele>
        <time>2017-12-06T08:37:54Z</time>
      </trkpt>
      <trkpt lat="44.86452" lon="-0.76225">
        <ele>32</ele>
        <time>2017-12-06T08:37:55Z</time>
      </trkpt>
      <trkpt lat="44.86448" lon="-0.76231">
        <ele>32</ele>
        <time>2017-12-06T08:37:56Z</time>
      </trkpt>
      <trkpt lat="44.86445" lon="-0.76237">
        <ele>32.1</ele>
        <time>2017-12-06T08:37:57Z</time>
      </trkpt>
      <trkpt lat="44.86442" lon="-0.76244">
        <ele>32.3</ele>
        <time>2017-12-06T08:37:58Z</time>
      </trkpt>
      <trkpt lat="44.86439" lon="-0.76249">
        <ele>32.4</ele>
        <time>2017-12-06T08:37:59Z</time>
      </trkpt>
      <trkpt lat="44.86437" lon="-0.76253">
        <ele>32.4</ele>
        <time>2017-12-06T08:38:00Z</time>
      </trkpt>
      <trkpt lat="44.86433" lon="-0.76256">
        <ele>32.4</ele>
        <time>2017-12-06T08:38:01Z</time>
      </trkpt>
      <trkpt lat="44.8643" lon="-0.7626">
        <ele>32.4</ele>
        <time>2017-12-06T08:38:02Z</time>
      </trkpt>
      <trkpt lat="44.86426" lon="-0.76263">
        <ele>32.3</ele>
        <time>2017-12-06T08:38:03Z</time>
      </trkpt>
      <trkpt lat="44.86423" lon="-0.76268">
        <ele>32.2</ele>
        <time>2017-12-06T08:38:04Z</time>
      </trkpt>
      <trkpt lat="44.86419" lon="-0.76272">
        <ele>32</ele>
        <time>2017-12-06T08:38:05Z</time>
      </trkpt>
      <trkpt lat="44.86415" lon="-0.76276">
        <ele>31.9</ele>
        <time>2017-12-06T08:38:06Z</time>
      </trkpt>
      <trkpt lat="44.8641" lon="-0.76282">
        <ele>31.8</ele>
        <time>2017-12-06T08:38:07Z</time>
      </trkpt>
      <trkpt lat="44.86406" lon="-0.76286">
        <ele>31.8</ele>
        <time>2017-12-06T08:38:08Z</time>
      </trkpt>
      <trkpt lat="44.86404" lon="-0.76289">
        <ele>31.9</ele>
        <time>2017-12-06T08:38:09Z</time>
      </trkpt>
      <trkpt lat="44.86399" lon="-0.7629">
        <ele>32</ele>
        <time>2017-12-06T08:38:10Z</time>
      </trkpt>
      <trkpt lat="44.86395" lon="-0.76293">
        <ele>32.2</ele>
        <time>2017-12-06T08:38:11Z</time>
      </trkpt>
      <trkpt lat="44.86392" lon="-0.76294">
        <ele>32.4</ele>
        <time>2017-12-06T08:38:12Z</time>
      </trkpt>
      <trkpt lat="44.86388" lon="-0.76296">
        <ele>32.6</ele>
        <time>2017-12-06T08:38:13Z</time>
      </trkpt>
      <trkpt lat="44.86385" lon="-0.76299">
        <ele>32.8</ele>
        <time>2017-12-06T08:38:14Z</time>
      </trkpt>
      <trkpt lat="44.86382" lon="-0.76302">
        <ele>33.1</ele>
        <time>2017-12-06T08:38:15Z</time>
      </trkpt>
      <trkpt lat="44.8638" lon="-0.76304">
        <ele>33.3</ele>
        <time>2017-12-06T08:38:16Z</time>
      </trkpt>
      <trkpt lat="44.86378" lon="-0.76308">
        <ele>33.6</ele>
        <time>2017-12-06T08:38:18Z</time>
      </trkpt>
      <trkpt lat="44.86375" lon="-0.76311">
        <ele>33.9</ele>
        <time>2017-12-06T08:38:19Z</time>
      </trkpt>
      <trkpt lat="44.86372" lon="-0.76313">
        <ele>34.2</ele>
        <time>2017-12-06T08:38:20Z</time>
      </trkpt>
      <trkpt lat="44.8637" lon="-0.76316">
        <ele>34.4</ele>
        <time>2017-12-06T08:38:21Z</time>
      </trkpt>
      <trkpt lat="44.86368" lon="-0.76319">
        <ele>34.6</ele>
        <time>2017-12-06T08:38:22Z</time>
      </trkpt>
      <trkpt lat="44.86365" lon="-0.76322">
        <ele>34.8</ele>
        <time>2017-12-06T08:38:23Z</time>
      </trkpt>
      <trkpt lat="44.86362" lon="-0.76325">
        <ele>34.9</ele>
        <time>2017-12-06T08:38:24Z</time>
      </trkpt>
      <trkpt lat="44.8636" lon="-0.76328">
        <ele>34.9</ele>
        <time>2017-12-06T08:38:25Z</time>
      </trkpt>
      <trkpt lat="44.86355" lon="-0.76333">
        <ele>35</ele>
        <time>2017-12-06T08:38:27Z</time>
      </trkpt>
      <trkpt lat="44.86354" lon="-0.76339">
        <ele>35</ele>
        <time>2017-12-06T08:38:28Z</time>
      </trkpt>
      <trkpt lat="44.86352" lon="-0.76344">
        <ele>34.9</ele>
        <time>2017-12-06T08:38:29Z</time>
      </trkpt>
      <trkpt lat="44.8635" lon="-0.76351">
        <ele>34.7</ele>
        <time>2017-12-06T08:38:30Z</time>
      </trkpt>
      <trkpt lat="44.86349" lon="-0.76355">
        <ele>34.6</ele>
        <time>2017-12-06T08:38:31Z</time>
      </trkpt>
      <trkpt lat="44.86347" lon="-0.76363">
        <ele>34.4</ele>
        <time>2017-12-06T08:38:32Z</time>
      </trkpt>
      <trkpt lat="44.86346" lon="-0.76371">
        <ele>34</ele>
        <time>2017-12-06T08:38:33Z</time>
      </trkpt>
      <trkpt lat="44.86345" lon="-0.76379">
        <ele>33.7</ele>
        <time>2017-12-06T08:38:34Z</time>
      </trkpt>
      <trkpt lat="44.86343" lon="-0.76387">
        <ele>33.3</ele>
        <time>2017-12-06T08:38:35Z</time>
      </trkpt>
      <trkpt lat="44.86341" lon="-0.76395">
        <ele>32.9</ele>
        <time>2017-12-06T08:38:36Z</time>
      </trkpt>
      <trkpt lat="44.8634" lon="-0.76404">
        <ele>32.4</ele>
        <time>2017-12-06T08:38:37Z</time>
      </trkpt>
      <trkpt lat="44.86341" lon="-0.76413">
        <ele>32.2</ele>
        <time>2017-12-06T08:38:38Z</time>
      </trkpt>
      <trkpt lat="44.86343" lon="-0.76421">
        <ele>32.1</ele>
        <time>2017-12-06T08:38:39Z</time>
      </trkpt>
      <trkpt lat="44.86342" lon="-0.76428">
        <ele>32.2</ele>
        <time>2017-12-06T08:38:40Z</time>
      </trkpt>
      <trkpt lat="44.86341" lon="-0.76435">
        <ele>32.3</ele>
        <time>2017-12-06T08:38:41Z</time>
      </trkpt>
      <trkpt lat="44.86342" lon="-0.76442">
        <ele>32.6</ele>
        <time>2017-12-06T08:38:42Z</time>
      </trkpt>
      <trkpt lat="44.86343" lon="-0.76448">
        <ele>33</ele>
        <time>2017-12-06T08:38:43Z</time>
      </trkpt>
      <trkpt lat="44.86344" lon="-0.76453">
        <ele>33.2</ele>
        <time>2017-12-06T08:38:44Z</time>
      </trkpt>
      <trkpt lat="44.86343" lon="-0.76459">
        <ele>33.5</ele>
        <time>2017-12-06T08:38:45Z</time>
      </trkpt>
      <trkpt lat="44.86344" lon="-0.76465">
        <ele>33.5</ele>
        <time>2017-12-06T08:38:46Z</time>
      </trkpt>
      <trkpt lat="44.86345" lon="-0.76471">
        <ele>33.4</ele>
        <time>2017-12-06T08:38:47Z</time>
      </trkpt>
      <trkpt lat="44.86345" lon="-0.76475">
        <ele>33.2</ele>
        <time>2017-12-06T08:38:48Z</time>
      </trkpt>
      <trkpt lat="44.86346" lon="-0.76481">
        <ele>32.9</ele>
        <time>2017-12-06T08:38:49Z</time>
      </trkpt>
      <trkpt lat="44.86347" lon="-0.76486">
        <ele>32.6</ele>
        <time>2017-12-06T08:38:50Z</time>
      </trkpt>
      <trkpt lat="44.86348" lon="-0.7649">
        <ele>32.3</ele>
        <time>2017-12-06T08:38:51Z</time>
      </trkpt>
      <trkpt lat="44.86349" lon="-0.76495">
        <ele>32</ele>
        <time>2017-12-06T08:38:53Z</time>
      </trkpt>
      <trkpt lat="44.86348" lon="-0.76499">
        <ele>31.8</ele>
        <time>2017-12-06T08:38:55Z</time>
      </trkpt>
      <trkpt lat="44.86344" lon="-0.76506">
        <ele>31.4</ele>
        <time>2017-12-06T08:38:57Z</time>
      </trkpt>
      <trkpt lat="44.8634" lon="-0.7651">
        <ele>31.2</ele>
        <time>2017-12-06T08:38:58Z</time>
      </trkpt>
      <trkpt lat="44.86335" lon="-0.76513">
        <ele>31</ele>
        <time>2017-12-06T08:38:59Z</time>
      </trkpt>
      <trkpt lat="44.8633" lon="-0.76516">
        <ele>30.9</ele>
        <time>2017-12-06T08:39:00Z</time>
      </trkpt>
      <trkpt lat="44.86325" lon="-0.76518">
        <ele>30.8</ele>
        <time>2017-12-06T08:39:01Z</time>
      </trkpt>
      <trkpt lat="44.86319" lon="-0.76516">
        <ele>30.8</ele>
        <time>2017-12-06T08:39:02Z</time>
      </trkpt>
      <trkpt lat="44.86315" lon="-0.76513">
        <ele>30.8</ele>
        <time>2017-12-06T08:39:03Z</time>
      </trkpt>
      <trkpt lat="44.8631" lon="-0.76511">
        <ele>30.9</ele>
        <time>2017-12-06T08:39:04Z</time>
      </trkpt>
      <trkpt lat="44.86305" lon="-0.76508">
        <ele>31</ele>
        <time>2017-12-06T08:39:05Z</time>
      </trkpt>
      <trkpt lat="44.863" lon="-0.76507">
        <ele>31.1</ele>
        <time>2017-12-06T08:39:06Z</time>
      </trkpt>
      <trkpt lat="44.86295" lon="-0.76506">
        <ele>31.2</ele>
        <time>2017-12-06T08:39:07Z</time>
      </trkpt>
      <trkpt lat="44.86291" lon="-0.76506">
        <ele>31.4</ele>
        <time>2017-12-06T08:39:08Z</time>
      </trkpt>
      <trkpt lat="44.86287" lon="-0.76508">
        <ele>31.6</ele>
        <time>2017-12-06T08:39:09Z</time>
      </trkpt>
      <trkpt lat="44.86283" lon="-0.76509">
        <ele>31.8</ele>
        <time>2017-12-06T08:39:10Z</time>
      </trkpt>
      <trkpt lat="44.86281" lon="-0.7651">
        <ele>32</ele>
        <time>2017-12-06T08:39:11Z</time>
      </trkpt>
      <trkpt lat="44.86278" lon="-0.76513">
        <ele>32.1</ele>
        <time>2017-12-06T08:39:12Z</time>
      </trkpt>
      <trkpt lat="44.86276" lon="-0.7652">
        <ele>32.4</ele>
        <time>2017-12-06T08:39:14Z</time>
      </trkpt>
      <trkpt lat="44.86273" lon="-0.76525">
        <ele>32.5</ele>
        <time>2017-12-06T08:39:16Z</time>
      </trkpt>
      <trkpt lat="44.8627" lon="-0.76528">
        <ele>32.6</ele>
        <time>2017-12-06T08:39:17Z</time>
      </trkpt>
      <trkpt lat="44.86267" lon="-0.7653">
        <ele>32.7</ele>
        <time>2017-12-06T08:39:18Z</time>
      </trkpt>
      <trkpt lat="44.86264" lon="-0.76532">
        <ele>32.6</ele>
        <time>2017-12-06T08:39:19Z</time>
      </trkpt>
      <trkpt lat="44.86261" lon="-0.76537">
        <ele>32.5</ele>
        <time>2017-12-06T08:39:20Z</time>
      </trkpt>
      <trkpt lat="44.86258" lon="-0.76541">
        <ele>32.4</ele>
        <time>2017-12-06T08:39:21Z</time>
      </trkpt>
      <trkpt lat="44.86255" lon="-0.76543">
        <ele>32.2</ele>
        <time>2017-12-06T08:39:22Z</time>
      </trkpt>
      <trkpt lat="44.86253" lon="-0.76547">
        <ele>32.1</ele>
        <time>2017-12-06T08:39:23Z</time>
      </trkpt>
      <trkpt lat="44.8625" lon="-0.76551">
        <ele>31.9</ele>
        <time>2017-12-06T08:39:24Z</time>
      </trkpt>
      <trkpt lat="44.86245" lon="-0.76555">
        <ele>31.7</ele>
        <time>2017-12-06T08:39:26Z</time>
      </trkpt>
      <trkpt lat="44.86242" lon="-0.76556">
        <ele>31.6</ele>
        <time>2017-12-06T08:39:27Z</time>
      </trkpt>
      <trkpt lat="44.86239" lon="-0.76558">
        <ele>31.5</ele>
        <time>2017-12-06T08:39:28Z</time>
      </trkpt>
      <trkpt lat="44.86235" lon="-0.76562">
        <ele>31.3</ele>
        <time>2017-12-06T08:39:29Z</time>
      </trkpt>
      <trkpt lat="44.86231" lon="-0.76565">
        <ele>31.3</ele>
        <time>2017-12-06T08:39:30Z</time>
      </trkpt>
      <trkpt lat="44.86227" lon="-0.76568">
        <ele>31.2</ele>
        <time>2017-12-06T08:39:31Z</time>
      </trkpt>
      <trkpt lat="44.86223" lon="-0.76572">
        <ele>31.2</ele>
        <time>2017-12-06T08:39:32Z</time>
      </trkpt>
      <trkpt lat="44.8622" lon="-0.76578">
        <ele>31.2</ele>
        <time>2017-12-06T08:39:33Z</time>
      </trkpt>
      <trkpt lat="44.86219" lon="-0.76584">
        <ele>31.2</ele>
        <time>2017-12-06T08:39:34Z</time>
      </trkpt>
      <trkpt lat="44.86218" lon="-0.76588">
        <ele>31.1</ele>
        <time>2017-12-06T08:39:35Z</time>
      </trkpt>
      <trkpt lat="44.86214" lon="-0.76592">
        <ele>31</ele>
        <time>2017-12-06T08:39:37Z</time>
      </trkpt>
      <trkpt lat="44.86214" lon="-0.76596">
        <ele>31</ele>
        <time>2017-12-06T08:39:38Z</time>
      </trkpt>
      <trkpt lat="44.86212" lon="-0.766">
        <ele>31</ele>
        <time>2017-12-06T08:39:39Z</time>
      </trkpt>
      <trkpt lat="44.86211" lon="-0.76605">
        <ele>31.1</ele>
        <time>2017-12-06T08:39:40Z</time>
      </trkpt>
      <trkpt lat="44.86209" lon="-0.7661">
        <ele>31.1</ele>
        <time>2017-12-06T08:39:41Z</time>
      </trkpt>
      <trkpt lat="44.86208" lon="-0.76614">
        <ele>31.1</ele>
        <time>2017-12-06T08:39:42Z</time>
      </trkpt>
      <trkpt lat="44.86207" lon="-0.76619">
        <ele>31.2</ele>
        <time>2017-12-06T08:39:43Z</time>
      </trkpt>
      <trkpt lat="44.86204" lon="-0.76621">
        <ele>31.2</ele>
        <time>2017-12-06T08:39:44Z</time>
      </trkpt>
      <trkpt lat="44.862" lon="-0.76623">
        <ele>31.2</ele>
        <time>2017-12-06T08:39:45Z</time>
      </trkpt>
      <trkpt lat="44.86197" lon="-0.76625">
        <ele>31.3</ele>
        <time>2017-12-06T08:39:46Z</time>
      </trkpt>
      <trkpt lat="44.86197" lon="-0.76631">
        <ele>31.3</ele>
        <time>2017-12-06T08:39:47Z</time>
      </trkpt>
      <trkpt lat="44.86199" lon="-0.76637">
        <ele>31.3</ele>
        <time>2017-12-06T08:39:48Z</time>
      </trkpt>
      <trkpt lat="44.862" lon="-0.76642">
        <ele>31.3</ele>
        <time>2017-12-06T08:39:49Z</time>
      </trkpt>
      <trkpt lat="44.86202" lon="-0.76644">
        <ele>31.4</ele>
        <time>2017-12-06T08:39:50Z</time>
      </trkpt>
      <trkpt lat="44.86203" lon="-0.76649">
        <ele>31.4</ele>
        <time>2017-12-06T08:39:51Z</time>
      </trkpt>
      <trkpt lat="44.86204" lon="-0.76653">
        <ele>31.4</ele>
        <time>2017-12-06T08:39:52Z</time>
      </trkpt>
      <trkpt lat="44.86206" lon="-0.76658">
        <ele>31.4</ele>
        <time>2017-12-06T08:39:53Z</time>
      </trkpt>
      <trkpt lat="44.86206" lon="-0.76662">
        <ele>31.5</ele>
        <time>2017-12-06T08:39:54Z</time>
      </trkpt>
      <trkpt lat="44.86208" lon="-0.76666">
        <ele>31.5</ele>
        <time>2017-12-06T08:39:55Z</time>
      </trkpt>
      <trkpt lat="44.8621" lon="-0.76671">
        <ele>31.5</ele>
        <time>2017-12-06T08:39:56Z</time>
      </trkpt>
      <trkpt lat="44.86211" lon="-0.76675">
        <ele>31.5</ele>
        <time>2017-12-06T08:39:57Z</time>
      </trkpt>
      <trkpt lat="44.86213" lon="-0.7668">
        <ele>31.6</ele>
        <time>2017-12-06T08:39:58Z</time>
      </trkpt>
      <trkpt lat="44.86214" lon="-0.76685">
        <ele>31.6</ele>
        <time>2017-12-06T08:39:59Z</time>
      </trkpt>
      <trkpt lat="44.86216" lon="-0.76689">
        <ele>31.6</ele>
        <time>2017-12-06T08:40:00Z</time>
      </trkpt>
      <trkpt lat="44.86217" lon="-0.76694">
        <ele>31.7</ele>
        <time>2017-12-06T08:40:01Z</time>
      </trkpt>
      <trkpt lat="44.86217" lon="-0.767">
        <ele>31.7</ele>
        <time>2017-12-06T08:40:02Z</time>
      </trkpt>
      <trkpt lat="44.86219" lon="-0.76707">
        <ele>31.7</ele>
        <time>2017-12-06T08:40:03Z</time>
      </trkpt>
      <trkpt lat="44.8622" lon="-0.76714">
        <ele>31.8</ele>
        <time>2017-12-06T08:40:04Z</time>
      </trkpt>
      <trkpt lat="44.86221" lon="-0.76723">
        <ele>31.9</ele>
        <time>2017-12-06T08:40:05Z</time>
      </trkpt>
      <trkpt lat="44.86222" lon="-0.76731">
        <ele>32</ele>
        <time>2017-12-06T08:40:06Z</time>
      </trkpt>
      <trkpt lat="44.86222" lon="-0.76738">
        <ele>32.2</ele>
        <time>2017-12-06T08:40:07Z</time>
      </trkpt>
      <trkpt lat="44.86223" lon="-0.76746">
        <ele>32.5</ele>
        <time>2017-12-06T08:40:08Z</time>
      </trkpt>
      <trkpt lat="44.86223" lon="-0.76754">
        <ele>32.9</ele>
        <time>2017-12-06T08:40:09Z</time>
      </trkpt>
      <trkpt lat="44.86224" lon="-0.76763">
        <ele>33.3</ele>
        <time>2017-12-06T08:40:10Z</time>
      </trkpt>
      <trkpt lat="44.86225" lon="-0.76769">
        <ele>33.6</ele>
        <time>2017-12-06T08:40:11Z</time>
      </trkpt>
      <trkpt lat="44.86225" lon="-0.76774">
        <ele>34</ele>
        <time>2017-12-06T08:40:12Z</time>
      </trkpt>
      <trkpt lat="44.86222" lon="-0.76778">
        <ele>34.2</ele>
        <time>2017-12-06T08:40:14Z</time>
      </trkpt>
      <trkpt lat="44.86216" lon="-0.76781">
        <ele>34.7</ele>
        <time>2017-12-06T08:40:16Z</time>
      </trkpt>
      <trkpt lat="44.86213" lon="-0.76784">
        <ele>35</ele>
        <time>2017-12-06T08:40:17Z</time>
      </trkpt>
      <trkpt lat="44.86208" lon="-0.76787">
        <ele>35.2</ele>
        <time>2017-12-06T08:40:18Z</time>
      </trkpt>
      <trkpt lat="44.86205" lon="-0.76789">
        <ele>35.3</ele>
        <time>2017-12-06T08:40:19Z</time>
      </trkpt>
      <trkpt lat="44.86203" lon="-0.76791">
        <ele>35.4</ele>
        <time>2017-12-06T08:40:20Z</time>
      </trkpt>
      <trkpt lat="44.862" lon="-0.76792">
        <ele>35.4</ele>
        <time>2017-12-06T08:40:21Z</time>
      </trkpt>
      <trkpt lat="44.86196" lon="-0.76794">
        <ele>35.4</ele>
        <time>2017-12-06T08:40:23Z</time>
      </trkpt>
      <trkpt lat="44.86193" lon="-0.76795">
        <ele>35.4</ele>
        <time>2017-12-06T08:40:25Z</time>
      </trkpt>
      <trkpt lat="44.8619" lon="-0.76799">
        <ele>35.3</ele>
        <time>2017-12-06T08:40:27Z</time>
      </trkpt>
      <trkpt lat="44.86188" lon="-0.76804">
        <ele>35.3</ele>
        <time>2017-12-06T08:40:29Z</time>
      </trkpt>
      <trkpt lat="44.86184" lon="-0.76808">
        <ele>35.2</ele>
        <time>2017-12-06T08:40:31Z</time>
      </trkpt>
      <trkpt lat="44.86182" lon="-0.76809">
        <ele>35.2</ele>
        <time>2017-12-06T08:40:32Z</time>
      </trkpt>
      <trkpt lat="44.86177" lon="-0.7681">
        <ele>35.3</ele>
        <time>2017-12-06T08:40:34Z</time>
      </trkpt>
      <trkpt lat="44.86174" lon="-0.76811">
        <ele>35.4</ele>
        <time>2017-12-06T08:40:35Z</time>
      </trkpt>
      <trkpt lat="44.86171" lon="-0.7681">
        <ele>35.4</ele>
        <time>2017-12-06T08:40:36Z</time>
      </trkpt>
      <trkpt lat="44.86168" lon="-0.76809">
        <ele>35.6</ele>
        <time>2017-12-06T08:40:37Z</time>
      </trkpt>
      <trkpt lat="44.86164" lon="-0.7681">
        <ele>35.7</ele>
        <time>2017-12-06T08:40:38Z</time>
      </trkpt>
      <trkpt lat="44.86161" lon="-0.76812">
        <ele>35.9</ele>
        <time>2017-12-06T08:40:39Z</time>
      </trkpt>
      <trkpt lat="44.86159" lon="-0.76817">
        <ele>36.2</ele>
        <time>2017-12-06T08:40:41Z</time>
      </trkpt>
      <trkpt lat="44.86156" lon="-0.7682">
        <ele>36.6</ele>
        <time>2017-12-06T08:40:43Z</time>
      </trkpt>
      <trkpt lat="44.86152" lon="-0.76821">
        <ele>36.9</ele>
        <time>2017-12-06T08:40:45Z</time>
      </trkpt>
      <trkpt lat="44.86147" lon="-0.76822">
        <ele>37.7</ele>
        <time>2017-12-06T08:40:47Z</time>
      </trkpt>
      <trkpt lat="44.86142" lon="-0.76822">
        <ele>38.1</ele>
        <time>2017-12-06T08:40:49Z</time>
      </trkpt>
      <trkpt lat="44.86139" lon="-0.76823">
        <ele>38.3</ele>
        <time>2017-12-06T08:40:51Z</time>
      </trkpt>
      <trkpt lat="44.86136" lon="-0.76824">
        <ele>38.5</ele>
        <time>2017-12-06T08:40:53Z</time>
      </trkpt>
      <trkpt lat="44.86134" lon="-0.76825">
        <ele>38.7</ele>
        <time>2017-12-06T08:40:55Z</time>
      </trkpt>
      <trkpt lat="44.86129" lon="-0.76825">
        <ele>39</ele>
        <time>2017-12-06T08:40:58Z</time>
      </trkpt>
      <trkpt lat="44.86126" lon="-0.76826">
        <ele>38.8</ele>
        <time>2017-12-06T08:41:00Z</time>
      </trkpt>
      <trkpt lat="44.86123" lon="-0.76828">
        <ele>38.7</ele>
        <time>2017-12-06T08:41:02Z</time>
      </trkpt>
      <trkpt lat="44.8612" lon="-0.7683">
        <ele>38.5</ele>
        <time>2017-12-06T08:41:03Z</time>
      </trkpt>
      <trkpt lat="44.86115" lon="-0.76831">
        <ele>38.2</ele>
        <time>2017-12-06T08:41:05Z</time>
      </trkpt>
      <trkpt lat="44.86112" lon="-0.76831">
        <ele>38</ele>
        <time>2017-12-06T08:41:06Z</time>
      </trkpt>
      <trkpt lat="44.86108" lon="-0.7683">
        <ele>37.7</ele>
        <time>2017-12-06T08:41:08Z</time>
      </trkpt>
      <trkpt lat="44.86102" lon="-0.76828">
        <ele>37</ele>
        <time>2017-12-06T08:41:10Z</time>
      </trkpt>
      <trkpt lat="44.86099" lon="-0.76825">
        <ele>36.4</ele>
        <time>2017-12-06T08:41:11Z</time>
      </trkpt>
      <trkpt lat="44.86095" lon="-0.76823">
        <ele>36</ele>
        <time>2017-12-06T08:41:12Z</time>
      </trkpt>
      <trkpt lat="44.86088" lon="-0.76819">
        <ele>35.4</ele>
        <time>2017-12-06T08:41:13Z</time>
      </trkpt>
      <trkpt lat="44.86082" lon="-0.76815">
        <ele>34.5</ele>
        <time>2017-12-06T08:41:14Z</time>
      </trkpt>
      <trkpt lat="44.86075" lon="-0.76811">
        <ele>33.9</ele>
        <time>2017-12-06T08:41:15Z</time>
      </trkpt>
      <trkpt lat="44.86069" lon="-0.76805">
        <ele>33.5</ele>
        <time>2017-12-06T08:41:16Z</time>
      </trkpt>
      <trkpt lat="44.86063" lon="-0.76802">
        <ele>33.2</ele>
        <time>2017-12-06T08:41:17Z</time>
      </trkpt>
      <trkpt lat="44.86057" lon="-0.76801">
        <ele>33.1</ele>
        <time>2017-12-06T08:41:18Z</time>
      </trkpt>
      <trkpt lat="44.86052" lon="-0.76803">
        <ele>33</ele>
        <time>2017-12-06T08:41:19Z</time>
      </trkpt>
      <trkpt lat="44.86047" lon="-0.76805">
        <ele>32.9</ele>
        <time>2017-12-06T08:41:20Z</time>
      </trkpt>
      <trkpt lat="44.86043" lon="-0.76803">
        <ele>32.9</ele>
        <time>2017-12-06T08:41:21Z</time>
      </trkpt>
      <trkpt lat="44.86039" lon="-0.76801">
        <ele>32.8</ele>
        <time>2017-12-06T08:41:22Z</time>
      </trkpt>
      <trkpt lat="44.86035" lon="-0.76798">
        <ele>32.7</ele>
        <time>2017-12-06T08:41:23Z</time>
      </trkpt>
      <trkpt lat="44.8603" lon="-0.76795">
        <ele>32.6</ele>
        <time>2017-12-06T08:41:24Z</time>
      </trkpt>
      <trkpt lat="44.86026" lon="-0.76792">
        <ele>32.6</ele>
        <time>2017-12-06T08:41:25Z</time>
      </trkpt>
      <trkpt lat="44.86022" lon="-0.7679">
        <ele>32.5</ele>
        <time>2017-12-06T08:41:26Z</time>
      </trkpt>
      <trkpt lat="44.86016" lon="-0.76787">
        <ele>32.4</ele>
        <time>2017-12-06T08:41:27Z</time>
      </trkpt>
      <trkpt lat="44.86011" lon="-0.76784">
        <ele>32.3</ele>
        <time>2017-12-06T08:41:28Z</time>
      </trkpt>
      <trkpt lat="44.86006" lon="-0.7678">
        <ele>32.2</ele>
        <time>2017-12-06T08:41:29Z</time>
      </trkpt>
      <trkpt lat="44.86002" lon="-0.76776">
        <ele>32.2</ele>
        <time>2017-12-06T08:41:30Z</time>
      </trkpt>
      <trkpt lat="44.85998" lon="-0.76772">
        <ele>32.2</ele>
        <time>2017-12-06T08:41:31Z</time>
      </trkpt>
      <trkpt lat="44.85994" lon="-0.76768">
        <ele>32.3</ele>
        <time>2017-12-06T08:41:32Z</time>
      </trkpt>
      <trkpt lat="44.8599" lon="-0.76764">
        <ele>32.4</ele>
        <time>2017-12-06T08:41:33Z</time>
      </trkpt>
      <trkpt lat="44.85986" lon="-0.76761">
        <ele>32.6</ele>
        <time>2017-12-06T08:41:34Z</time>
      </trkpt>
      <trkpt lat="44.85982" lon="-0.76757">
        <ele>32.8</ele>
        <time>2017-12-06T08:41:35Z</time>
      </trkpt>
      <trkpt lat="44.85979" lon="-0.76752">
        <ele>33</ele>
        <time>2017-12-06T08:41:36Z</time>
      </trkpt>
      <trkpt lat="44.85975" lon="-0.7675">
        <ele>33.2</ele>
        <time>2017-12-06T08:41:37Z</time>
      </trkpt>
      <trkpt lat="44.85972" lon="-0.76746">
        <ele>33.3</ele>
        <time>2017-12-06T08:41:38Z</time>
      </trkpt>
      <trkpt lat="44.85967" lon="-0.76742">
        <ele>33.4</ele>
        <time>2017-12-06T08:41:39Z</time>
      </trkpt>
      <trkpt lat="44.85963" lon="-0.76738">
        <ele>33.5</ele>
        <time>2017-12-06T08:41:40Z</time>
      </trkpt>
      <trkpt lat="44.8596" lon="-0.76734">
        <ele>33.6</ele>
        <time>2017-12-06T08:41:41Z</time>
      </trkpt>
      <trkpt lat="44.85955" lon="-0.76731">
        <ele>33.7</ele>
        <time>2017-12-06T08:41:42Z</time>
      </trkpt>
      <trkpt lat="44.85952" lon="-0.76726">
        <ele>33.8</ele>
        <time>2017-12-06T08:41:43Z</time>
      </trkpt>
      <trkpt lat="44.85949" lon="-0.76722">
        <ele>33.9</ele>
        <time>2017-12-06T08:41:44Z</time>
      </trkpt>
      <trkpt lat="44.85945" lon="-0.76718">
        <ele>34</ele>
        <time>2017-12-06T08:41:45Z</time>
      </trkpt>
      <trkpt lat="44.85941" lon="-0.76715">
        <ele>34</ele>
        <time>2017-12-06T08:41:46Z</time>
      </trkpt>
      <trkpt lat="44.85937" lon="-0.76711">
        <ele>33.9</ele>
        <time>2017-12-06T08:41:47Z</time>
      </trkpt>
      <trkpt lat="44.85933" lon="-0.76708">
        <ele>33.9</ele>
        <time>2017-12-06T08:41:48Z</time>
      </trkpt>
      <trkpt lat="44.8593" lon="-0.76706">
        <ele>33.8</ele>
        <time>2017-12-06T08:41:49Z</time>
      </trkpt>
      <trkpt lat="44.85926" lon="-0.76702">
        <ele>33.8</ele>
        <time>2017-12-06T08:41:50Z</time>
      </trkpt>
      <trkpt lat="44.85922" lon="-0.76698">
        <ele>33.8</ele>
        <time>2017-12-06T08:41:51Z</time>
      </trkpt>
      <trkpt lat="44.85919" lon="-0.76695">
        <ele>33.7</ele>
        <time>2017-12-06T08:41:52Z</time>
      </trkpt>
      <trkpt lat="44.85917" lon="-0.76692">
        <ele>33.7</ele>
        <time>2017-12-06T08:41:53Z</time>
      </trkpt>
      <trkpt lat="44.85915" lon="-0.76689">
        <ele>33.7</ele>
        <time>2017-12-06T08:41:54Z</time>
      </trkpt>
      <trkpt lat="44.85911" lon="-0.76689">
        <ele>33.6</ele>
        <time>2017-12-06T08:41:55Z</time>
      </trkpt>
      <trkpt lat="44.85908" lon="-0.7669">
        <ele>33.6</ele>
        <time>2017-12-06T08:41:56Z</time>
      </trkpt>
      <trkpt lat="44.85904" lon="-0.7669">
        <ele>33.6</ele>
        <time>2017-12-06T08:41:57Z</time>
      </trkpt>
      <trkpt lat="44.85901" lon="-0.7669">
        <ele>33.5</ele>
        <time>2017-12-06T08:41:58Z</time>
      </trkpt>
      <trkpt lat="44.85897" lon="-0.7669">
        <ele>33.5</ele>
        <time>2017-12-06T08:41:59Z</time>
      </trkpt>
      <trkpt lat="44.85894" lon="-0.7669">
        <ele>33.6</ele>
        <time>2017-12-06T08:42:00Z</time>
      </trkpt>
      <trkpt lat="44.85891" lon="-0.7669">
        <ele>33.6</ele>
        <time>2017-12-06T08:42:01Z</time>
      </trkpt>
      <trkpt lat="44.85887" lon="-0.7669">
        <ele>33.7</ele>
        <time>2017-12-06T08:42:02Z</time>
      </trkpt>
      <trkpt lat="44.85883" lon="-0.76691">
        <ele>33.8</ele>
        <time>2017-12-06T08:42:03Z</time>
      </trkpt>
      <trkpt lat="44.85879" lon="-0.76691">
        <ele>34</ele>
        <time>2017-12-06T08:42:04Z</time>
      </trkpt>
      <trkpt lat="44.85876" lon="-0.76691">
        <ele>34.2</ele>
        <time>2017-12-06T08:42:05Z</time>
      </trkpt>
      <trkpt lat="44.85873" lon="-0.76692">
        <ele>34.3</ele>
        <time>2017-12-06T08:42:06Z</time>
      </trkpt>
      <trkpt lat="44.85869" lon="-0.76692">
        <ele>34.5</ele>
        <time>2017-12-06T08:42:07Z</time>
      </trkpt>
      <trkpt lat="44.85865" lon="-0.76692">
        <ele>34.7</ele>
        <time>2017-12-06T08:42:09Z</time>
      </trkpt>
      <trkpt lat="44.85862" lon="-0.76693">
        <ele>34.8</ele>
        <time>2017-12-06T08:42:11Z</time>
      </trkpt>
      <trkpt lat="44.85858" lon="-0.76693">
        <ele>34.9</ele>
        <time>2017-12-06T08:42:13Z</time>
      </trkpt>
      <trkpt lat="44.85854" lon="-0.76695">
        <ele>35</ele>
        <time>2017-12-06T08:42:15Z</time>
      </trkpt>
      <trkpt lat="44.85851" lon="-0.76696">
        <ele>35</ele>
        <time>2017-12-06T08:42:16Z</time>
      </trkpt>
      <trkpt lat="44.85848" lon="-0.76701">
        <ele>35.1</ele>
        <time>2017-12-06T08:42:18Z</time>
      </trkpt>
      <trkpt lat="44.85844" lon="-0.76702">
        <ele>35.2</ele>
        <time>2017-12-06T08:42:19Z</time>
      </trkpt>
      <trkpt lat="44.85842" lon="-0.76705">
        <ele>35.3</ele>
        <time>2017-12-06T08:42:20Z</time>
      </trkpt>
      <trkpt lat="44.85842" lon="-0.76709">
        <ele>35.4</ele>
        <time>2017-12-06T08:42:21Z</time>
      </trkpt>
      <trkpt lat="44.85842" lon="-0.76714">
        <ele>35.6</ele>
        <time>2017-12-06T08:42:22Z</time>
      </trkpt>
      <trkpt lat="44.85842" lon="-0.76719">
        <ele>35.8</ele>
        <time>2017-12-06T08:42:23Z</time>
      </trkpt>
      <trkpt lat="44.85844" lon="-0.76727">
        <ele>36.2</ele>
        <time>2017-12-06T08:42:25Z</time>
      </trkpt>
      <trkpt lat="44.85845" lon="-0.76733">
        <ele>36.4</ele>
        <time>2017-12-06T08:42:26Z</time>
      </trkpt>
      <trkpt lat="44.85847" lon="-0.76738">
        <ele>36.6</ele>
        <time>2017-12-06T08:42:27Z</time>
      </trkpt>
      <trkpt lat="44.85849" lon="-0.76743">
        <ele>36.6</ele>
        <time>2017-12-06T08:42:28Z</time>
      </trkpt>
      <trkpt lat="44.8585" lon="-0.76748">
        <ele>36.6</ele>
        <time>2017-12-06T08:42:29Z</time>
      </trkpt>
      <trkpt lat="44.85851" lon="-0.76753">
        <ele>36.6</ele>
        <time>2017-12-06T08:42:30Z</time>
      </trkpt>
      <trkpt lat="44.85852" lon="-0.76758">
        <ele>36.6</ele>
        <time>2017-12-06T08:42:31Z</time>
      </trkpt>
      <trkpt lat="44.85854" lon="-0.76764">
        <ele>36.6</ele>
        <time>2017-12-06T08:42:32Z</time>
      </trkpt>
      <trkpt lat="44.85855" lon="-0.76773">
        <ele>36.7</ele>
        <time>2017-12-06T08:42:34Z</time>
      </trkpt>
      <trkpt lat="44.85856" lon="-0.76778">
        <ele>36.9</ele>
        <time>2017-12-06T08:42:35Z</time>
      </trkpt>
      <trkpt lat="44.85856" lon="-0.76782">
        <ele>37</ele>
        <time>2017-12-06T08:42:36Z</time>
      </trkpt>
      <trkpt lat="44.85857" lon="-0.76787">
        <ele>37.2</ele>
        <time>2017-12-06T08:42:37Z</time>
      </trkpt>
      <trkpt lat="44.85857" lon="-0.76791">
        <ele>37.4</ele>
        <time>2017-12-06T08:42:38Z</time>
      </trkpt>
      <trkpt lat="44.85856" lon="-0.76796">
        <ele>37.6</ele>
        <time>2017-12-06T08:42:39Z</time>
      </trkpt>
      <trkpt lat="44.85855" lon="-0.76801">
        <ele>37.8</ele>
        <time>2017-12-06T08:42:40Z</time>
      </trkpt>
      <trkpt lat="44.85854" lon="-0.76806">
        <ele>38</ele>
        <time>2017-12-06T08:42:41Z</time>
      </trkpt>
      <trkpt lat="44.85852" lon="-0.76811">
        <ele>38.1</ele>
        <time>2017-12-06T08:42:42Z</time>
      </trkpt>
      <trkpt lat="44.8585" lon="-0.76815">
        <ele>38.1</ele>
        <time>2017-12-06T08:42:43Z</time>
      </trkpt>
      <trkpt lat="44.85849" lon="-0.7682">
        <ele>38.2</ele>
        <time>2017-12-06T08:42:44Z</time>
      </trkpt>
      <trkpt lat="44.85848" lon="-0.76826">
        <ele>38.2</ele>
        <time>2017-12-06T08:42:45Z</time>
      </trkpt>
      <trkpt lat="44.85847" lon="-0.76832">
        <ele>38.2</ele>
        <time>2017-12-06T08:42:46Z</time>
      </trkpt>
      <trkpt lat="44.85845" lon="-0.76836">
        <ele>38.1</ele>
        <time>2017-12-06T08:42:47Z</time>
      </trkpt>
      <trkpt lat="44.85841" lon="-0.76839">
        <ele>38</ele>
        <time>2017-12-06T08:42:49Z</time>
      </trkpt>
      <trkpt lat="44.85836" lon="-0.76839">
        <ele>37.9</ele>
        <time>2017-12-06T08:42:51Z</time>
      </trkpt>
      <trkpt lat="44.85832" lon="-0.76837">
        <ele>37.8</ele>
        <time>2017-12-06T08:42:52Z</time>
      </trkpt>
      <trkpt lat="44.85829" lon="-0.76833">
        <ele>37.9</ele>
        <time>2017-12-06T08:42:53Z</time>
      </trkpt>
      <trkpt lat="44.85827" lon="-0.76829">
        <ele>38</ele>
        <time>2017-12-06T08:42:54Z</time>
      </trkpt>
      <trkpt lat="44.85825" lon="-0.76825">
        <ele>38.2</ele>
        <time>2017-12-06T08:42:55Z</time>
      </trkpt>
      <trkpt lat="44.85824" lon="-0.7682">
        <ele>38.4</ele>
        <time>2017-12-06T08:42:56Z</time>
      </trkpt>
      <trkpt lat="44.8582" lon="-0.76816">
        <ele>38.7</ele>
        <time>2017-12-06T08:42:57Z</time>
      </trkpt>
      <trkpt lat="44.85818" lon="-0.76812">
        <ele>39.1</ele>
        <time>2017-12-06T08:42:58Z</time>
      </trkpt>
      <trkpt lat="44.85816" lon="-0.76808">
        <ele>39.4</ele>
        <time>2017-12-06T08:42:59Z</time>
      </trkpt>
      <trkpt lat="44.85814" lon="-0.76804">
        <ele>39.6</ele>
        <time>2017-12-06T08:43:00Z</time>
      </trkpt>
      <trkpt lat="44.85811" lon="-0.768">
        <ele>39.9</ele>
        <time>2017-12-06T08:43:01Z</time>
      </trkpt>
      <trkpt lat="44.85808" lon="-0.76796">
        <ele>40.1</ele>
        <time>2017-12-06T08:43:02Z</time>
      </trkpt>
      <trkpt lat="44.85806" lon="-0.76792">
        <ele>40.2</ele>
        <time>2017-12-06T08:43:03Z</time>
      </trkpt>
      <trkpt lat="44.85803" lon="-0.76788">
        <ele>40.1</ele>
        <time>2017-12-06T08:43:04Z</time>
      </trkpt>
      <trkpt lat="44.85801" lon="-0.76786">
        <ele>40</ele>
        <time>2017-12-06T08:43:05Z</time>
      </trkpt>
      <trkpt lat="44.85798" lon="-0.76784">
        <ele>39.8</ele>
        <time>2017-12-06T08:43:06Z</time>
      </trkpt>
      <trkpt lat="44.85796" lon="-0.76781">
        <ele>39.5</ele>
        <time>2017-12-06T08:43:07Z</time>
      </trkpt>
      <trkpt lat="44.85793" lon="-0.76778">
        <ele>39</ele>
        <time>2017-12-06T08:43:08Z</time>
      </trkpt>
      <trkpt lat="44.85791" lon="-0.76774">
        <ele>38.7</ele>
        <time>2017-12-06T08:43:09Z</time>
      </trkpt>
      <trkpt lat="44.85788" lon="-0.76771">
        <ele>38.2</ele>
        <time>2017-12-06T08:43:10Z</time>
      </trkpt>
      <trkpt lat="44.85785" lon="-0.76764">
        <ele>37.4</ele>
        <time>2017-12-06T08:43:12Z</time>
      </trkpt>
      <trkpt lat="44.85781" lon="-0.76757">
        <ele>36.3</ele>
        <time>2017-12-06T08:43:14Z</time>
      </trkpt>
      <trkpt lat="44.85776" lon="-0.76754">
        <ele>35.5</ele>
        <time>2017-12-06T08:43:15Z</time>
      </trkpt>
      <trkpt lat="44.85771" lon="-0.7675">
        <ele>34.4</ele>
        <time>2017-12-06T08:43:16Z</time>
      </trkpt>
      <trkpt lat="44.85768" lon="-0.76742">
        <ele>33.2</ele>
        <time>2017-12-06T08:43:17Z</time>
      </trkpt>
      <trkpt lat="44.85763" lon="-0.76734">
        <ele>31.5</ele>
        <time>2017-12-06T08:43:18Z</time>
      </trkpt>
      <trkpt lat="44.85757" lon="-0.76726">
        <ele>29.9</ele>
        <time>2017-12-06T08:43:19Z</time>
      </trkpt>
      <trkpt lat="44.85752" lon="-0.7672">
        <ele>28.8</ele>
        <time>2017-12-06T08:43:20Z</time>
      </trkpt>
      <trkpt lat="44.85746" lon="-0.76718">
        <ele>27.9</ele>
        <time>2017-12-06T08:43:21Z</time>
      </trkpt>
      <trkpt lat="44.85739" lon="-0.76717">
        <ele>27.6</ele>
        <time>2017-12-06T08:43:22Z</time>
      </trkpt>
      <trkpt lat="44.85734" lon="-0.76716">
        <ele>27.6</ele>
        <time>2017-12-06T08:43:23Z</time>
      </trkpt>
      <trkpt lat="44.8573" lon="-0.76713">
        <ele>27.8</ele>
        <time>2017-12-06T08:43:24Z</time>
      </trkpt>
      <trkpt lat="44.85729" lon="-0.76709">
        <ele>27.8</ele>
        <time>2017-12-06T08:43:25Z</time>
      </trkpt>
      <trkpt lat="44.85729" lon="-0.76702">
        <ele>27.9</ele>
        <time>2017-12-06T08:43:26Z</time>
      </trkpt>
      <trkpt lat="44.85727" lon="-0.76692">
        <ele>28</ele>
        <time>2017-12-06T08:43:27Z</time>
      </trkpt>
      <trkpt lat="44.85725" lon="-0.76681">
        <ele>28</ele>
        <time>2017-12-06T08:43:28Z</time>
      </trkpt>
      <trkpt lat="44.85721" lon="-0.76671">
        <ele>28</ele>
        <time>2017-12-06T08:43:29Z</time>
      </trkpt>
      <trkpt lat="44.85715" lon="-0.76668">
        <ele>28.1</ele>
        <time>2017-12-06T08:43:30Z</time>
      </trkpt>
      <trkpt lat="44.85711" lon="-0.76667">
        <ele>28.1</ele>
        <time>2017-12-06T08:43:31Z</time>
      </trkpt>
      <trkpt lat="44.85706" lon="-0.76668">
        <ele>28.1</ele>
        <time>2017-12-06T08:43:32Z</time>
      </trkpt>
      <trkpt lat="44.85701" lon="-0.7667">
        <ele>28.1</ele>
        <time>2017-12-06T08:43:33Z</time>
      </trkpt>
      <trkpt lat="44.85696" lon="-0.76672">
        <ele>28.1</ele>
        <time>2017-12-06T08:43:34Z</time>
      </trkpt>
      <trkpt lat="44.85692" lon="-0.7667">
        <ele>28.2</ele>
        <time>2017-12-06T08:43:35Z</time>
      </trkpt>
      <trkpt lat="44.85687" lon="-0.76667">
        <ele>28.4</ele>
        <time>2017-12-06T08:43:36Z</time>
      </trkpt>
      <trkpt lat="44.85683" lon="-0.76664">
        <ele>28.6</ele>
        <time>2017-12-06T08:43:37Z</time>
      </trkpt>
      <trkpt lat="44.8568" lon="-0.7666">
        <ele>28.9</ele>
        <time>2017-12-06T08:43:38Z</time>
      </trkpt>
      <trkpt lat="44.85677" lon="-0.76655">
        <ele>29.2</ele>
        <time>2017-12-06T08:43:39Z</time>
      </trkpt>
      <trkpt lat="44.85674" lon="-0.7665">
        <ele>29.5</ele>
        <time>2017-12-06T08:43:40Z</time>
      </trkpt>
      <trkpt lat="44.85671" lon="-0.76647">
        <ele>29.8</ele>
        <time>2017-12-06T08:43:41Z</time>
      </trkpt>
      <trkpt lat="44.85666" lon="-0.76645">
        <ele>30.2</ele>
        <time>2017-12-06T08:43:42Z</time>
      </trkpt>
      <trkpt lat="44.85662" lon="-0.76643">
        <ele>30.5</ele>
        <time>2017-12-06T08:43:43Z</time>
      </trkpt>
      <trkpt lat="44.85657" lon="-0.76644">
        <ele>30.8</ele>
        <time>2017-12-06T08:43:44Z</time>
      </trkpt>
      <trkpt lat="44.85652" lon="-0.76647">
        <ele>31.1</ele>
        <time>2017-12-06T08:43:45Z</time>
      </trkpt>
      <trkpt lat="44.85648" lon="-0.76649">
        <ele>31.4</ele>
        <time>2017-12-06T08:43:46Z</time>
      </trkpt>
      <trkpt lat="44.85643" lon="-0.7665">
        <ele>31.8</ele>
        <time>2017-12-06T08:43:47Z</time>
      </trkpt>
      <trkpt lat="44.85638" lon="-0.76651">
        <ele>32.1</ele>
        <time>2017-12-06T08:43:48Z</time>
      </trkpt>
      <trkpt lat="44.85634" lon="-0.76652">
        <ele>32.4</ele>
        <time>2017-12-06T08:43:49Z</time>
      </trkpt>
      <trkpt lat="44.85631" lon="-0.76655">
        <ele>32.6</ele>
        <time>2017-12-06T08:43:50Z</time>
      </trkpt>
      <trkpt lat="44.85628" lon="-0.76658">
        <ele>32.8</ele>
        <time>2017-12-06T08:43:51Z</time>
      </trkpt>
      <trkpt lat="44.85625" lon="-0.76662">
        <ele>33</ele>
        <time>2017-12-06T08:43:52Z</time>
      </trkpt>
      <trkpt lat="44.85622" lon="-0.76665">
        <ele>33.1</ele>
        <time>2017-12-06T08:43:53Z</time>
      </trkpt>
      <trkpt lat="44.85619" lon="-0.76667">
        <ele>33.3</ele>
        <time>2017-12-06T08:43:54Z</time>
      </trkpt>
      <trkpt lat="44.85616" lon="-0.76669">
        <ele>33.4</ele>
        <time>2017-12-06T08:43:55Z</time>
      </trkpt>
      <trkpt lat="44.85613" lon="-0.76671">
        <ele>33.5</ele>
        <time>2017-12-06T08:43:56Z</time>
      </trkpt>
      <trkpt lat="44.85608" lon="-0.76675">
        <ele>33.6</ele>
        <time>2017-12-06T08:43:58Z</time>
      </trkpt>
      <trkpt lat="44.85606" lon="-0.76677">
        <ele>33.7</ele>
        <time>2017-12-06T08:43:59Z</time>
      </trkpt>
      <trkpt lat="44.85601" lon="-0.7668">
        <ele>33.8</ele>
        <time>2017-12-06T08:44:01Z</time>
      </trkpt>
      <trkpt lat="44.85598" lon="-0.76681">
        <ele>33.9</ele>
        <time>2017-12-06T08:44:02Z</time>
      </trkpt>
      <trkpt lat="44.85595" lon="-0.76683">
        <ele>33.9</ele>
        <time>2017-12-06T08:44:03Z</time>
      </trkpt>
      <trkpt lat="44.85592" lon="-0.76685">
        <ele>34</ele>
        <time>2017-12-06T08:44:04Z</time>
      </trkpt>
      <trkpt lat="44.85589" lon="-0.76686">
        <ele>34.1</ele>
        <time>2017-12-06T08:44:05Z</time>
      </trkpt>
      <trkpt lat="44.85586" lon="-0.76687">
        <ele>34.2</ele>
        <time>2017-12-06T08:44:06Z</time>
      </trkpt>
      <trkpt lat="44.85582" lon="-0.7669">
        <ele>34.3</ele>
        <time>2017-12-06T08:44:08Z</time>
      </trkpt>
      <trkpt lat="44.85579" lon="-0.76692">
        <ele>34.4</ele>
        <time>2017-12-06T08:44:09Z</time>
      </trkpt>
      <trkpt lat="44.85575" lon="-0.76693">
        <ele>34.6</ele>
        <time>2017-12-06T08:44:10Z</time>
      </trkpt>
      <trkpt lat="44.85572" lon="-0.76693">
        <ele>34.7</ele>
        <time>2017-12-06T08:44:11Z</time>
      </trkpt>
      <trkpt lat="44.85569" lon="-0.76695">
        <ele>34.8</ele>
        <time>2017-12-06T08:44:12Z</time>
      </trkpt>
      <trkpt lat="44.85566" lon="-0.76695">
        <ele>34.9</ele>
        <time>2017-12-06T08:44:13Z</time>
      </trkpt>
      <trkpt lat="44.85563" lon="-0.76696">
        <ele>35</ele>
        <time>2017-12-06T08:44:14Z</time>
      </trkpt>
      <trkpt lat="44.8556" lon="-0.76696">
        <ele>35.1</ele>
        <time>2017-12-06T08:44:15Z</time>
      </trkpt>
      <trkpt lat="44.85557" lon="-0.76697">
        <ele>35.1</ele>
        <time>2017-12-06T08:44:16Z</time>
      </trkpt>
      <trkpt lat="44.85553" lon="-0.76697">
        <ele>35.1</ele>
        <time>2017-12-06T08:44:17Z</time>
      </trkpt>
      <trkpt lat="44.85549" lon="-0.76697">
        <ele>35.2</ele>
        <time>2017-12-06T08:44:18Z</time>
      </trkpt>
      <trkpt lat="44.85546" lon="-0.76696">
        <ele>35.2</ele>
        <time>2017-12-06T08:44:19Z</time>
      </trkpt>
      <trkpt lat="44.85542" lon="-0.76694">
        <ele>35.2</ele>
        <time>2017-12-06T08:44:20Z</time>
      </trkpt>
      <trkpt lat="44.85539" lon="-0.76693">
        <ele>35.2</ele>
        <time>2017-12-06T08:44:21Z</time>
      </trkpt>
      <trkpt lat="44.85536" lon="-0.76691">
        <ele>35.2</ele>
        <time>2017-12-06T08:44:22Z</time>
      </trkpt>
      <trkpt lat="44.85533" lon="-0.76689">
        <ele>35.3</ele>
        <time>2017-12-06T08:44:23Z</time>
      </trkpt>
      <trkpt lat="44.8553" lon="-0.76687">
        <ele>35.3</ele>
        <time>2017-12-06T08:44:24Z</time>
      </trkpt>
      <trkpt lat="44.85527" lon="-0.76684">
        <ele>35.3</ele>
        <time>2017-12-06T08:44:25Z</time>
      </trkpt>
      <trkpt lat="44.85524" lon="-0.76682">
        <ele>35.3</ele>
        <time>2017-12-06T08:44:26Z</time>
      </trkpt>
      <trkpt lat="44.85521" lon="-0.7668">
        <ele>35.2</ele>
        <time>2017-12-06T08:44:27Z</time>
      </trkpt>
      <trkpt lat="44.85517" lon="-0.7668">
        <ele>35.2</ele>
        <time>2017-12-06T08:44:28Z</time>
      </trkpt>
      <trkpt lat="44.85513" lon="-0.76679">
        <ele>35.1</ele>
        <time>2017-12-06T08:44:29Z</time>
      </trkpt>
      <trkpt lat="44.85509" lon="-0.76679">
        <ele>35.1</ele>
        <time>2017-12-06T08:44:30Z</time>
      </trkpt>
      <trkpt lat="44.85505" lon="-0.7668">
        <ele>35.2</ele>
        <time>2017-12-06T08:44:31Z</time>
      </trkpt>
      <trkpt lat="44.85502" lon="-0.7668">
        <ele>35.4</ele>
        <time>2017-12-06T08:44:32Z</time>
      </trkpt>
      <trkpt lat="44.85498" lon="-0.7668">
        <ele>35.5</ele>
        <time>2017-12-06T08:44:33Z</time>
      </trkpt>
      <trkpt lat="44.85494" lon="-0.7668">
        <ele>35.6</ele>
        <time>2017-12-06T08:44:34Z</time>
      </trkpt>
      <trkpt lat="44.85491" lon="-0.76679">
        <ele>35.7</ele>
        <time>2017-12-06T08:44:35Z</time>
      </trkpt>
      <trkpt lat="44.85488" lon="-0.76677">
        <ele>35.8</ele>
        <time>2017-12-06T08:44:36Z</time>
      </trkpt>
      <trkpt lat="44.85484" lon="-0.76675">
        <ele>36</ele>
        <time>2017-12-06T08:44:37Z</time>
      </trkpt>
      <trkpt lat="44.85481" lon="-0.76674">
        <ele>36.1</ele>
        <time>2017-12-06T08:44:38Z</time>
      </trkpt>
      <trkpt lat="44.85479" lon="-0.76673">
        <ele>36.2</ele>
        <time>2017-12-06T08:44:39Z</time>
      </trkpt>
      <trkpt lat="44.85475" lon="-0.76672">
        <ele>36.3</ele>
        <time>2017-12-06T08:44:40Z</time>
      </trkpt>
      <trkpt lat="44.85471" lon="-0.76672">
        <ele>36.4</ele>
        <time>2017-12-06T08:44:41Z</time>
      </trkpt>
      <trkpt lat="44.85467" lon="-0.76674">
        <ele>36.5</ele>
        <time>2017-12-06T08:44:42Z</time>
      </trkpt>
      <trkpt lat="44.85463" lon="-0.76676">
        <ele>36.6</ele>
        <time>2017-12-06T08:44:43Z</time>
      </trkpt>
      <trkpt lat="44.8546" lon="-0.76678">
        <ele>36.6</ele>
        <time>2017-12-06T08:44:44Z</time>
      </trkpt>
      <trkpt lat="44.85456" lon="-0.7668">
        <ele>36.8</ele>
        <time>2017-12-06T08:44:45Z</time>
      </trkpt>
      <trkpt lat="44.85453" lon="-0.76682">
        <ele>37</ele>
        <time>2017-12-06T08:44:46Z</time>
      </trkpt>
      <trkpt lat="44.85448" lon="-0.76684">
        <ele>37.2</ele>
        <time>2017-12-06T08:44:48Z</time>
      </trkpt>
      <trkpt lat="44.85444" lon="-0.76684">
        <ele>37.3</ele>
        <time>2017-12-06T08:44:49Z</time>
      </trkpt>
      <trkpt lat="44.8544" lon="-0.76685">
        <ele>37.4</ele>
        <time>2017-12-06T08:44:50Z</time>
      </trkpt>
      <trkpt lat="44.85437" lon="-0.76686">
        <ele>37.5</ele>
        <time>2017-12-06T08:44:51Z</time>
      </trkpt>
      <trkpt lat="44.85434" lon="-0.76687">
        <ele>37.6</ele>
        <time>2017-12-06T08:44:52Z</time>
      </trkpt>
      <trkpt lat="44.8543" lon="-0.76689">
        <ele>37.7</ele>
        <time>2017-12-06T08:44:53Z</time>
      </trkpt>
      <trkpt lat="44.85426" lon="-0.76693">
        <ele>38</ele>
        <time>2017-12-06T08:44:54Z</time>
      </trkpt>
      <trkpt lat="44.85423" lon="-0.76695">
        <ele>38.1</ele>
        <time>2017-12-06T08:44:55Z</time>
      </trkpt>
      <trkpt lat="44.85419" lon="-0.76699">
        <ele>38.2</ele>
        <time>2017-12-06T08:44:56Z</time>
      </trkpt>
      <trkpt lat="44.85415" lon="-0.76703">
        <ele>38.2</ele>
        <time>2017-12-06T08:44:57Z</time>
      </trkpt>
      <trkpt lat="44.85411" lon="-0.76706">
        <ele>38.1</ele>
        <time>2017-12-06T08:44:58Z</time>
      </trkpt>
      <trkpt lat="44.85407" lon="-0.76708">
        <ele>37.8</ele>
        <time>2017-12-06T08:44:59Z</time>
      </trkpt>
      <trkpt lat="44.85403" lon="-0.7671">
        <ele>37.5</ele>
        <time>2017-12-06T08:45:00Z</time>
      </trkpt>
      <trkpt lat="44.85398" lon="-0.76712">
        <ele>37.1</ele>
        <time>2017-12-06T08:45:01Z</time>
      </trkpt>
      <trkpt lat="44.85393" lon="-0.76713">
        <ele>36.6</ele>
        <time>2017-12-06T08:45:02Z</time>
      </trkpt>
      <trkpt lat="44.85387" lon="-0.76713">
        <ele>36.1</ele>
        <time>2017-12-06T08:45:03Z</time>
      </trkpt>
      <trkpt lat="44.85381" lon="-0.76713">
        <ele>35.6</ele>
        <time>2017-12-06T08:45:04Z</time>
      </trkpt>
      <trkpt lat="44.85374" lon="-0.76712">
        <ele>35.3</ele>
        <time>2017-12-06T08:45:05Z</time>
      </trkpt>
      <trkpt lat="44.85367" lon="-0.76708">
        <ele>34.9</ele>
        <time>2017-12-06T08:45:06Z</time>
      </trkpt>
      <trkpt lat="44.85361" lon="-0.76706">
        <ele>34.7</ele>
        <time>2017-12-06T08:45:07Z</time>
      </trkpt>
      <trkpt lat="44.85354" lon="-0.76704">
        <ele>34.4</ele>
        <time>2017-12-06T08:45:08Z</time>
      </trkpt>
      <trkpt lat="44.85348" lon="-0.76704">
        <ele>34.2</ele>
        <time>2017-12-06T08:45:09Z</time>
      </trkpt>
      <trkpt lat="44.85341" lon="-0.76706">
        <ele>34.1</ele>
        <time>2017-12-06T08:45:10Z</time>
      </trkpt>
      <trkpt lat="44.85335" lon="-0.76708">
        <ele>33.9</ele>
        <time>2017-12-06T08:45:11Z</time>
      </trkpt>
      <trkpt lat="44.8533" lon="-0.76711">
        <ele>33.7</ele>
        <time>2017-12-06T08:45:12Z</time>
      </trkpt>
      <trkpt lat="44.85325" lon="-0.76715">
        <ele>33.6</ele>
        <time>2017-12-06T08:45:13Z</time>
      </trkpt>
      <trkpt lat="44.85321" lon="-0.76718">
        <ele>33.6</ele>
        <time>2017-12-06T08:45:14Z</time>
      </trkpt>
      <trkpt lat="44.85316" lon="-0.76721">
        <ele>33.7</ele>
        <time>2017-12-06T08:45:15Z</time>
      </trkpt>
      <trkpt lat="44.85312" lon="-0.76723">
        <ele>33.7</ele>
        <time>2017-12-06T08:45:16Z</time>
      </trkpt>
      <trkpt lat="44.85308" lon="-0.76727">
        <ele>33.9</ele>
        <time>2017-12-06T08:45:17Z</time>
      </trkpt>
      <trkpt lat="44.85305" lon="-0.76731">
        <ele>34</ele>
        <time>2017-12-06T08:45:18Z</time>
      </trkpt>
      <trkpt lat="44.85301" lon="-0.76735">
        <ele>34.2</ele>
        <time>2017-12-06T08:45:19Z</time>
      </trkpt>
      <trkpt lat="44.85298" lon="-0.76738">
        <ele>34.3</ele>
        <time>2017-12-06T08:45:20Z</time>
      </trkpt>
      <trkpt lat="44.85294" lon="-0.7674">
        <ele>34.4</ele>
        <time>2017-12-06T08:45:21Z</time>
      </trkpt>
      <trkpt lat="44.8529" lon="-0.76743">
        <ele>34.6</ele>
        <time>2017-12-06T08:45:22Z</time>
      </trkpt>
      <trkpt lat="44.85286" lon="-0.76745">
        <ele>34.7</ele>
        <time>2017-12-06T08:45:23Z</time>
      </trkpt>
      <trkpt lat="44.85282" lon="-0.76748">
        <ele>34.8</ele>
        <time>2017-12-06T08:45:24Z</time>
      </trkpt>
      <trkpt lat="44.85277" lon="-0.76749">
        <ele>34.9</ele>
        <time>2017-12-06T08:45:25Z</time>
      </trkpt>
      <trkpt lat="44.85273" lon="-0.76751">
        <ele>35</ele>
        <time>2017-12-06T08:45:26Z</time>
      </trkpt>
      <trkpt lat="44.85269" lon="-0.76752">
        <ele>34.9</ele>
        <time>2017-12-06T08:45:27Z</time>
      </trkpt>
      <trkpt lat="44.85265" lon="-0.7675">
        <ele>34.8</ele>
        <time>2017-12-06T08:45:28Z</time>
      </trkpt>
      <trkpt lat="44.85263" lon="-0.76746">
        <ele>34.7</ele>
        <time>2017-12-06T08:45:29Z</time>
      </trkpt>
      <trkpt lat="44.85263" lon="-0.7674">
        <ele>34</ele>
        <time>2017-12-06T08:45:30Z</time>
      </trkpt>
      <trkpt lat="44.85263" lon="-0.76734">
        <ele>33.8</ele>
        <time>2017-12-06T08:45:31Z</time>
      </trkpt>
      <trkpt lat="44.85262" lon="-0.76728">
        <ele>33.6</ele>
        <time>2017-12-06T08:45:32Z</time>
      </trkpt>
      <trkpt lat="44.8526" lon="-0.76724">
        <ele>33.4</ele>
        <time>2017-12-06T08:45:33Z</time>
      </trkpt>
      <trkpt lat="44.85258" lon="-0.76721">
        <ele>33.3</ele>
        <time>2017-12-06T08:45:34Z</time>
      </trkpt>
      <trkpt lat="44.85255" lon="-0.7672">
        <ele>33.2</ele>
        <time>2017-12-06T08:45:35Z</time>
      </trkpt>
      <trkpt lat="44.85252" lon="-0.7672">
        <ele>33</ele>
        <time>2017-12-06T08:45:36Z</time>
      </trkpt>
      <trkpt lat="44.85248" lon="-0.76724">
        <ele>32.8</ele>
        <time>2017-12-06T08:45:37Z</time>
      </trkpt>
      <trkpt lat="44.85245" lon="-0.76725">
        <ele>32.7</ele>
        <time>2017-12-06T08:45:38Z</time>
      </trkpt>
      <trkpt lat="44.85239" lon="-0.76727">
        <ele>32.5</ele>
        <time>2017-12-06T08:45:40Z</time>
      </trkpt>
      <trkpt lat="44.85236" lon="-0.76728">
        <ele>32.4</ele>
        <time>2017-12-06T08:45:41Z</time>
      </trkpt>
      <trkpt lat="44.85231" lon="-0.76728">
        <ele>32.3</ele>
        <time>2017-12-06T08:45:43Z</time>
      </trkpt>
      <trkpt lat="44.85228" lon="-0.76727">
        <ele>32.3</ele>
        <time>2017-12-06T08:45:44Z</time>
      </trkpt>
      <trkpt lat="44.85226" lon="-0.76724">
        <ele>32.2</ele>
        <time>2017-12-06T08:45:46Z</time>
      </trkpt>
      <trkpt lat="44.85222" lon="-0.76719">
        <ele>32.1</ele>
        <time>2017-12-06T08:45:49Z</time>
      </trkpt>
      <trkpt lat="44.85218" lon="-0.76716">
        <ele>32.1</ele>
        <time>2017-12-06T08:45:51Z</time>
      </trkpt>
      <trkpt lat="44.85217" lon="-0.76712">
        <ele>32</ele>
        <time>2017-12-06T08:45:52Z</time>
      </trkpt>
      <trkpt lat="44.85214" lon="-0.76709">
        <ele>32</ele>
        <time>2017-12-06T08:45:53Z</time>
      </trkpt>
      <trkpt lat="44.85211" lon="-0.76706">
        <ele>32</ele>
        <time>2017-12-06T08:45:54Z</time>
      </trkpt>
      <trkpt lat="44.85208" lon="-0.76703">
        <ele>32</ele>
        <time>2017-12-06T08:45:55Z</time>
      </trkpt>
      <trkpt lat="44.85205" lon="-0.76699">
        <ele>32</ele>
        <time>2017-12-06T08:45:56Z</time>
      </trkpt>
      <trkpt lat="44.85203" lon="-0.76696">
        <ele>31.9</ele>
        <time>2017-12-06T08:45:57Z</time>
      </trkpt>
      <trkpt lat="44.85199" lon="-0.76694">
        <ele>31.9</ele>
        <time>2017-12-06T08:45:58Z</time>
      </trkpt>
      <trkpt lat="44.85194" lon="-0.76696">
        <ele>31.9</ele>
        <time>2017-12-06T08:45:59Z</time>
      </trkpt>
      <trkpt lat="44.8519" lon="-0.76696">
        <ele>31.9</ele>
        <time>2017-12-06T08:46:00Z</time>
      </trkpt>
      <trkpt lat="44.85186" lon="-0.76697">
        <ele>31.9</ele>
        <time>2017-12-06T08:46:01Z</time>
      </trkpt>
      <trkpt lat="44.85182" lon="-0.76697">
        <ele>31.9</ele>
        <time>2017-12-06T08:46:02Z</time>
      </trkpt>
      <trkpt lat="44.85179" lon="-0.76697">
        <ele>31.9</ele>
        <time>2017-12-06T08:46:03Z</time>
      </trkpt>
      <trkpt lat="44.85175" lon="-0.76697">
        <ele>31.8</ele>
        <time>2017-12-06T08:46:04Z</time>
      </trkpt>
      <trkpt lat="44.85171" lon="-0.76694">
        <ele>31.8</ele>
        <time>2017-12-06T08:46:05Z</time>
      </trkpt>
      <trkpt lat="44.85168" lon="-0.76692">
        <ele>31.8</ele>
        <time>2017-12-06T08:46:06Z</time>
      </trkpt>
      <trkpt lat="44.85166" lon="-0.76687">
        <ele>31.8</ele>
        <time>2017-12-06T08:46:07Z</time>
      </trkpt>
      <trkpt lat="44.85165" lon="-0.76683">
        <ele>31.8</ele>
        <time>2017-12-06T08:46:08Z</time>
      </trkpt>
      <trkpt lat="44.85162" lon="-0.7668">
        <ele>31.8</ele>
        <time>2017-12-06T08:46:09Z</time>
      </trkpt>
      <trkpt lat="44.85159" lon="-0.76679">
        <ele>31.8</ele>
        <time>2017-12-06T08:46:10Z</time>
      </trkpt>
      <trkpt lat="44.85155" lon="-0.76679">
        <ele>31.8</ele>
        <time>2017-12-06T08:46:11Z</time>
      </trkpt>
      <trkpt lat="44.85151" lon="-0.7668">
        <ele>31.8</ele>
        <time>2017-12-06T08:46:12Z</time>
      </trkpt>
      <trkpt lat="44.85148" lon="-0.76679">
        <ele>31.8</ele>
        <time>2017-12-06T08:46:13Z</time>
      </trkpt>
      <trkpt lat="44.85144" lon="-0.76678">
        <ele>31.8</ele>
        <time>2017-12-06T08:46:14Z</time>
      </trkpt>
      <trkpt lat="44.8514" lon="-0.76676">
        <ele>31.7</ele>
        <time>2017-12-06T08:46:15Z</time>
      </trkpt>
      <trkpt lat="44.85137" lon="-0.76674">
        <ele>31.7</ele>
        <time>2017-12-06T08:46:16Z</time>
      </trkpt>
      <trkpt lat="44.85134" lon="-0.76673">
        <ele>31.7</ele>
        <time>2017-12-06T08:46:17Z</time>
      </trkpt>
      <trkpt lat="44.85131" lon="-0.7667">
        <ele>31.7</ele>
        <time>2017-12-06T08:46:18Z</time>
      </trkpt>
      <trkpt lat="44.85128" lon="-0.76666">
        <ele>31.7</ele>
        <time>2017-12-06T08:46:19Z</time>
      </trkpt>
      <trkpt lat="44.85124" lon="-0.76662">
        <ele>31.6</ele>
        <time>2017-12-06T08:46:20Z</time>
      </trkpt>
      <trkpt lat="44.85121" lon="-0.76657">
        <ele>31.6</ele>
        <time>2017-12-06T08:46:21Z</time>
      </trkpt>
      <trkpt lat="44.85117" lon="-0.76654">
        <ele>31.6</ele>
        <time>2017-12-06T08:46:22Z</time>
      </trkpt>
      <trkpt lat="44.85113" lon="-0.76651">
        <ele>31.6</ele>
        <time>2017-12-06T08:46:23Z</time>
      </trkpt>
      <trkpt lat="44.85109" lon="-0.76649">
        <ele>31.5</ele>
        <time>2017-12-06T08:46:24Z</time>
      </trkpt>
      <trkpt lat="44.85104" lon="-0.76646">
        <ele>31.5</ele>
        <time>2017-12-06T08:46:25Z</time>
      </trkpt>
      <trkpt lat="44.85101" lon="-0.76644">
        <ele>31.5</ele>
        <time>2017-12-06T08:46:26Z</time>
      </trkpt>
      <trkpt lat="44.85095" lon="-0.7664">
        <ele>31.5</ele>
        <time>2017-12-06T08:46:28Z</time>
      </trkpt>
      <trkpt lat="44.85092" lon="-0.76638">
        <ele>31.5</ele>
        <time>2017-12-06T08:46:29Z</time>
      </trkpt>
      <trkpt lat="44.85088" lon="-0.76636">
        <ele>31.4</ele>
        <time>2017-12-06T08:46:30Z</time>
      </trkpt>
      <trkpt lat="44.85084" lon="-0.76635">
        <ele>31.4</ele>
        <time>2017-12-06T08:46:31Z</time>
      </trkpt>
      <trkpt lat="44.85081" lon="-0.76632">
        <ele>31.4</ele>
        <time>2017-12-06T08:46:32Z</time>
      </trkpt>
      <trkpt lat="44.85078" lon="-0.76629">
        <ele>31.4</ele>
        <time>2017-12-06T08:46:33Z</time>
      </trkpt>
      <trkpt lat="44.85074" lon="-0.76627">
        <ele>31.4</ele>
        <time>2017-12-06T08:46:34Z</time>
      </trkpt>
      <trkpt lat="44.85072" lon="-0.76625">
        <ele>31.4</ele>
        <time>2017-12-06T08:46:35Z</time>
      </trkpt>
      <trkpt lat="44.85068" lon="-0.76625">
        <ele>31.4</ele>
        <time>2017-12-06T08:46:37Z</time>
      </trkpt>
      <trkpt lat="44.85068" lon="-0.76621">
        <ele>31.4</ele>
        <time>2017-12-06T08:46:49Z</time>
      </trkpt>
      <trkpt lat="44.85066" lon="-0.76617">
        <ele>31.4</ele>
        <time>2017-12-06T08:46:58Z</time>
      </trkpt>
      <trkpt lat="44.85066" lon="-0.76613">
        <ele>31.4</ele>
        <time>2017-12-06T08:47:00Z</time>
      </trkpt>
      <trkpt lat="44.85066" lon="-0.76608">
        <ele>31.4</ele>
        <time>2017-12-06T08:47:02Z</time>
      </trkpt>
      <trkpt lat="44.85063" lon="-0.76602">
        <ele>31.4</ele>
        <time>2017-12-06T08:47:04Z</time>
      </trkpt>
      <trkpt lat="44.8506" lon="-0.766">
        <ele>31.4</ele>
        <time>2017-12-06T08:47:05Z</time>
      </trkpt>
      <trkpt lat="44.85057" lon="-0.76597">
        <ele>31.4</ele>
        <time>2017-12-06T08:47:06Z</time>
      </trkpt>
      <trkpt lat="44.85055" lon="-0.76595">
        <ele>31.4</ele>
        <time>2017-12-06T08:47:07Z</time>
      </trkpt>
      <trkpt lat="44.85051" lon="-0.76595">
        <ele>31.4</ele>
        <time>2017-12-06T08:47:08Z</time>
      </trkpt>
      <trkpt lat="44.85048" lon="-0.76594">
        <ele>31.4</ele>
        <time>2017-12-06T08:47:09Z</time>
      </trkpt>
      <trkpt lat="44.85045" lon="-0.76593">
        <ele>31.4</ele>
        <time>2017-12-06T08:47:10Z</time>
      </trkpt>
      <trkpt lat="44.85041" lon="-0.76593">
        <ele>31.4</ele>
        <time>2017-12-06T08:47:11Z</time>
      </trkpt>
      <trkpt lat="44.85037" lon="-0.76594">
        <ele>31.5</ele>
        <time>2017-12-06T08:47:12Z</time>
      </trkpt>
      <trkpt lat="44.85033" lon="-0.76594">
        <ele>31.5</ele>
        <time>2017-12-06T08:47:13Z</time>
      </trkpt>
      <trkpt lat="44.85029" lon="-0.76594">
        <ele>31.5</ele>
        <time>2017-12-06T08:47:14Z</time>
      </trkpt>
      <trkpt lat="44.85025" lon="-0.76593">
        <ele>31.4</ele>
        <time>2017-12-06T08:47:15Z</time>
      </trkpt>
      <trkpt lat="44.85022" lon="-0.76592">
        <ele>31.4</ele>
        <time>2017-12-06T08:47:16Z</time>
      </trkpt>
      <trkpt lat="44.85018" lon="-0.7659">
        <ele>31.4</ele>
        <time>2017-12-06T08:47:17Z</time>
      </trkpt>
      <trkpt lat="44.85015" lon="-0.7659">
        <ele>31.4</ele>
        <time>2017-12-06T08:47:18Z</time>
      </trkpt>
      <trkpt lat="44.85012" lon="-0.76592">
        <ele>31.4</ele>
        <time>2017-12-06T08:47:19Z</time>
      </trkpt>
      <trkpt lat="44.85008" lon="-0.76593">
        <ele>31.4</ele>
        <time>2017-12-06T08:47:20Z</time>
      </trkpt>
      <trkpt lat="44.85002" lon="-0.76595">
        <ele>31.3</ele>
        <time>2017-12-06T08:47:22Z</time>
      </trkpt>
      <trkpt lat="44.84998" lon="-0.76594">
        <ele>31.3</ele>
        <time>2017-12-06T08:47:23Z</time>
      </trkpt>
      <trkpt lat="44.84994" lon="-0.76595">
        <ele>31.3</ele>
        <time>2017-12-06T08:47:24Z</time>
      </trkpt>
      <trkpt lat="44.8499" lon="-0.76595">
        <ele>31.2</ele>
        <time>2017-12-06T08:47:25Z</time>
      </trkpt>
      <trkpt lat="44.84986" lon="-0.76594">
        <ele>31.2</ele>
        <time>2017-12-06T08:47:26Z</time>
      </trkpt>
      <trkpt lat="44.84981" lon="-0.76595">
        <ele>31.2</ele>
        <time>2017-12-06T08:47:27Z</time>
      </trkpt>
      <trkpt lat="44.84977" lon="-0.76595">
        <ele>31.1</ele>
        <time>2017-12-06T08:47:28Z</time>
      </trkpt>
      <trkpt lat="44.84973" lon="-0.76596">
        <ele>31.1</ele>
        <time>2017-12-06T08:47:29Z</time>
      </trkpt>
      <trkpt lat="44.84969" lon="-0.76598">
        <ele>31.1</ele>
        <time>2017-12-06T08:47:30Z</time>
      </trkpt>
      <trkpt lat="44.84965" lon="-0.766">
        <ele>31.1</ele>
        <time>2017-12-06T08:47:31Z</time>
      </trkpt>
      <trkpt lat="44.84961" lon="-0.76599">
        <ele>31.1</ele>
        <time>2017-12-06T08:47:34Z</time>
      </trkpt>
      <trkpt lat="44.84955" lon="-0.76598">
        <ele>31</ele>
        <time>2017-12-06T08:47:36Z</time>
      </trkpt>
      <trkpt lat="44.84951" lon="-0.76599">
        <ele>31</ele>
        <time>2017-12-06T08:47:37Z</time>
      </trkpt>
      <trkpt lat="44.84949" lon="-0.766">
        <ele>31</ele>
        <time>2017-12-06T08:47:38Z</time>
      </trkpt>
      <trkpt lat="44.84945" lon="-0.76604">
        <ele>31</ele>
        <time>2017-12-06T08:47:39Z</time>
      </trkpt>
      <trkpt lat="44.84943" lon="-0.76609">
        <ele>31</ele>
        <time>2017-12-06T08:47:40Z</time>
      </trkpt>
      <trkpt lat="44.84941" lon="-0.76615">
        <ele>31</ele>
        <time>2017-12-06T08:47:41Z</time>
      </trkpt>
      <trkpt lat="44.84939" lon="-0.7662">
        <ele>31</ele>
        <time>2017-12-06T08:47:42Z</time>
      </trkpt>
      <trkpt lat="44.84937" lon="-0.76624">
        <ele>31</ele>
        <time>2017-12-06T08:47:43Z</time>
      </trkpt>
      <trkpt lat="44.84935" lon="-0.76626">
        <ele>31</ele>
        <time>2017-12-06T08:47:44Z</time>
      </trkpt>
      <trkpt lat="44.84932" lon="-0.76628">
        <ele>31</ele>
        <time>2017-12-06T08:47:45Z</time>
      </trkpt>
      <trkpt lat="44.84928" lon="-0.76631">
        <ele>31</ele>
        <time>2017-12-06T08:47:46Z</time>
      </trkpt>
      <trkpt lat="44.84926" lon="-0.76636">
        <ele>31</ele>
        <time>2017-12-06T08:47:47Z</time>
      </trkpt>
      <trkpt lat="44.84924" lon="-0.7664">
        <ele>31</ele>
        <time>2017-12-06T08:47:48Z</time>
      </trkpt>
      <trkpt lat="44.84923" lon="-0.76646">
        <ele>31</ele>
        <time>2017-12-06T08:47:49Z</time>
      </trkpt>
      <trkpt lat="44.84921" lon="-0.7665">
        <ele>31</ele>
        <time>2017-12-06T08:47:50Z</time>
      </trkpt>
      <trkpt lat="44.84918" lon="-0.76653">
        <ele>31.1</ele>
        <time>2017-12-06T08:47:51Z</time>
      </trkpt>
      <trkpt lat="44.84915" lon="-0.76654">
        <ele>31.1</ele>
        <time>2017-12-06T08:47:52Z</time>
      </trkpt>
      <trkpt lat="44.84911" lon="-0.76658">
        <ele>31.1</ele>
        <time>2017-12-06T08:47:53Z</time>
      </trkpt>
      <trkpt lat="44.84908" lon="-0.76661">
        <ele>31.2</ele>
        <time>2017-12-06T08:47:54Z</time>
      </trkpt>
      <trkpt lat="44.84905" lon="-0.76664">
        <ele>31.2</ele>
        <time>2017-12-06T08:47:55Z</time>
      </trkpt>
      <trkpt lat="44.849" lon="-0.76666">
        <ele>31.3</ele>
        <time>2017-12-06T08:47:57Z</time>
      </trkpt>
      <trkpt lat="44.84894" lon="-0.76669">
        <ele>31.4</ele>
        <time>2017-12-06T08:47:59Z</time>
      </trkpt>
      <trkpt lat="44.84891" lon="-0.76672">
        <ele>31.4</ele>
        <time>2017-12-06T08:48:00Z</time>
      </trkpt>
      <trkpt lat="44.84889" lon="-0.76676">
        <ele>31.5</ele>
        <time>2017-12-06T08:48:01Z</time>
      </trkpt>
      <trkpt lat="44.84886" lon="-0.76679">
        <ele>31.6</ele>
        <time>2017-12-06T08:48:02Z</time>
      </trkpt>
      <trkpt lat="44.84884" lon="-0.76682">
        <ele>31.7</ele>
        <time>2017-12-06T08:48:03Z</time>
      </trkpt>
      <trkpt lat="44.84882" lon="-0.76686">
        <ele>31.8</ele>
        <time>2017-12-06T08:48:04Z</time>
      </trkpt>
      <trkpt lat="44.84878" lon="-0.7669">
        <ele>31.9</ele>
        <time>2017-12-06T08:48:06Z</time>
      </trkpt>
      <trkpt lat="44.84875" lon="-0.76692">
        <ele>31.9</ele>
        <time>2017-12-06T08:48:07Z</time>
      </trkpt>
      <trkpt lat="44.84872" lon="-0.76696">
        <ele>32</ele>
        <time>2017-12-06T08:48:08Z</time>
      </trkpt>
      <trkpt lat="44.8487" lon="-0.76698">
        <ele>32</ele>
        <time>2017-12-06T08:48:09Z</time>
      </trkpt>
      <trkpt lat="44.84867" lon="-0.76701">
        <ele>32.1</ele>
        <time>2017-12-06T08:48:10Z</time>
      </trkpt>
      <trkpt lat="44.84861" lon="-0.76705">
        <ele>32.2</ele>
        <time>2017-12-06T08:48:12Z</time>
      </trkpt>
      <trkpt lat="44.84856" lon="-0.76708">
        <ele>32.3</ele>
        <time>2017-12-06T08:48:13Z</time>
      </trkpt>
      <trkpt lat="44.84856" lon="-0.76714">
        <ele>32.3</ele>
        <time>2017-12-06T08:48:14Z</time>
      </trkpt>
      <trkpt lat="44.84854" lon="-0.76719">
        <ele>32.3</ele>
        <time>2017-12-06T08:48:15Z</time>
      </trkpt>
      <trkpt lat="44.84853" lon="-0.76724">
        <ele>32.3</ele>
        <time>2017-12-06T08:48:16Z</time>
      </trkpt>
      <trkpt lat="44.84852" lon="-0.76729">
        <ele>32.3</ele>
        <time>2017-12-06T08:48:17Z</time>
      </trkpt>
      <trkpt lat="44.8485" lon="-0.76735">
        <ele>32.3</ele>
        <time>2017-12-06T08:48:18Z</time>
      </trkpt>
      <trkpt lat="44.84848" lon="-0.7674">
        <ele>32.3</ele>
        <time>2017-12-06T08:48:19Z</time>
      </trkpt>
      <trkpt lat="44.84847" lon="-0.76745">
        <ele>32.3</ele>
        <time>2017-12-06T08:48:20Z</time>
      </trkpt>
      <trkpt lat="44.84845" lon="-0.76749">
        <ele>32.3</ele>
        <time>2017-12-06T08:48:21Z</time>
      </trkpt>
      <trkpt lat="44.84843" lon="-0.76754">
        <ele>32.3</ele>
        <time>2017-12-06T08:48:22Z</time>
      </trkpt>
      <trkpt lat="44.84841" lon="-0.76756">
        <ele>32.3</ele>
        <time>2017-12-06T08:48:23Z</time>
      </trkpt>
      <trkpt lat="44.84836" lon="-0.76758">
        <ele>32.3</ele>
        <time>2017-12-06T08:48:24Z</time>
      </trkpt>
      <trkpt lat="44.84832" lon="-0.76759">
        <ele>32.3</ele>
        <time>2017-12-06T08:48:25Z</time>
      </trkpt>
      <trkpt lat="44.84828" lon="-0.76763">
        <ele>32.2</ele>
        <time>2017-12-06T08:48:26Z</time>
      </trkpt>
      <trkpt lat="44.84825" lon="-0.76768">
        <ele>32.2</ele>
        <time>2017-12-06T08:48:27Z</time>
      </trkpt>
      <trkpt lat="44.84822" lon="-0.76772">
        <ele>32.2</ele>
        <time>2017-12-06T08:48:28Z</time>
      </trkpt>
      <trkpt lat="44.8482" lon="-0.76776">
        <ele>32.2</ele>
        <time>2017-12-06T08:48:29Z</time>
      </trkpt>
      <trkpt lat="44.84818" lon="-0.7678">
        <ele>32.2</ele>
        <time>2017-12-06T08:48:30Z</time>
      </trkpt>
      <trkpt lat="44.84814" lon="-0.76783">
        <ele>32.1</ele>
        <time>2017-12-06T08:48:31Z</time>
      </trkpt>
      <trkpt lat="44.84811" lon="-0.76787">
        <ele>32.1</ele>
        <time>2017-12-06T08:48:32Z</time>
      </trkpt>
      <trkpt lat="44.84808" lon="-0.76788">
        <ele>32.1</ele>
        <time>2017-12-06T08:48:33Z</time>
      </trkpt>
      <trkpt lat="44.84804" lon="-0.76789">
        <ele>32.1</ele>
        <time>2017-12-06T08:48:34Z</time>
      </trkpt>
      <trkpt lat="44.84801" lon="-0.76789">
        <ele>32.1</ele>
        <time>2017-12-06T08:48:35Z</time>
      </trkpt>
      <trkpt lat="44.84796" lon="-0.76789">
        <ele>32</ele>
        <time>2017-12-06T08:48:36Z</time>
      </trkpt>
      <trkpt lat="44.84792" lon="-0.76788">
        <ele>32.1</ele>
        <time>2017-12-06T08:48:37Z</time>
      </trkpt>
      <trkpt lat="44.84788" lon="-0.76787">
        <ele>32.1</ele>
        <time>2017-12-06T08:48:38Z</time>
      </trkpt>
      <trkpt lat="44.84784" lon="-0.76785">
        <ele>32.2</ele>
        <time>2017-12-06T08:48:39Z</time>
      </trkpt>
      <trkpt lat="44.84781" lon="-0.76782">
        <ele>32.2</ele>
        <time>2017-12-06T08:48:40Z</time>
      </trkpt>
      <trkpt lat="44.84777" lon="-0.76779">
        <ele>32.3</ele>
        <time>2017-12-06T08:48:41Z</time>
      </trkpt>
      <trkpt lat="44.84772" lon="-0.76776">
        <ele>32.4</ele>
        <time>2017-12-06T08:48:42Z</time>
      </trkpt>
      <trkpt lat="44.84767" lon="-0.76774">
        <ele>32.4</ele>
        <time>2017-12-06T08:48:43Z</time>
      </trkpt>
      <trkpt lat="44.84763" lon="-0.76772">
        <ele>32.5</ele>
        <time>2017-12-06T08:48:44Z</time>
      </trkpt>
      <trkpt lat="44.8476" lon="-0.76771">
        <ele>32.5</ele>
        <time>2017-12-06T08:48:45Z</time>
      </trkpt>
      <trkpt lat="44.84757" lon="-0.76771">
        <ele>32.6</ele>
        <time>2017-12-06T08:48:46Z</time>
      </trkpt>
      <trkpt lat="44.84752" lon="-0.76767">
        <ele>32.7</ele>
        <time>2017-12-06T08:48:48Z</time>
      </trkpt>
      <trkpt lat="44.8475" lon="-0.76765">
        <ele>32.7</ele>
        <time>2017-12-06T08:48:49Z</time>
      </trkpt>
      <trkpt lat="44.84747" lon="-0.76763">
        <ele>32.8</ele>
        <time>2017-12-06T08:48:50Z</time>
      </trkpt>
      <trkpt lat="44.84743" lon="-0.76761">
        <ele>32.8</ele>
        <time>2017-12-06T08:48:51Z</time>
      </trkpt>
      <trkpt lat="44.84741" lon="-0.76758">
        <ele>32.9</ele>
        <time>2017-12-06T08:48:52Z</time>
      </trkpt>
      <trkpt lat="44.84737" lon="-0.76756">
        <ele>32.9</ele>
        <time>2017-12-06T08:48:53Z</time>
      </trkpt>
      <trkpt lat="44.84734" lon="-0.76753">
        <ele>33</ele>
        <time>2017-12-06T08:48:54Z</time>
      </trkpt>
      <trkpt lat="44.8473" lon="-0.76752">
        <ele>33</ele>
        <time>2017-12-06T08:48:55Z</time>
      </trkpt>
      <trkpt lat="44.84726" lon="-0.76751">
        <ele>33</ele>
        <time>2017-12-06T08:48:56Z</time>
      </trkpt>
      <trkpt lat="44.84723" lon="-0.76751">
        <ele>33</ele>
        <time>2017-12-06T08:48:57Z</time>
      </trkpt>
      <trkpt lat="44.84717" lon="-0.76749">
        <ele>33.1</ele>
        <time>2017-12-06T08:48:59Z</time>
      </trkpt>
      <trkpt lat="44.84714" lon="-0.76748">
        <ele>33.3</ele>
        <time>2017-12-06T08:49:00Z</time>
      </trkpt>
      <trkpt lat="44.84711" lon="-0.76748">
        <ele>33.5</ele>
        <time>2017-12-06T08:49:01Z</time>
      </trkpt>
      <trkpt lat="44.84707" lon="-0.76747">
        <ele>33.6</ele>
        <time>2017-12-06T08:49:02Z</time>
      </trkpt>
      <trkpt lat="44.84704" lon="-0.76747">
        <ele>33.8</ele>
        <time>2017-12-06T08:49:03Z</time>
      </trkpt>
      <trkpt lat="44.84701" lon="-0.76747">
        <ele>33.9</ele>
        <time>2017-12-06T08:49:04Z</time>
      </trkpt>
      <trkpt lat="44.84698" lon="-0.76746">
        <ele>34.1</ele>
        <time>2017-12-06T08:49:05Z</time>
      </trkpt>
      <trkpt lat="44.84695" lon="-0.76746">
        <ele>34.3</ele>
        <time>2017-12-06T08:49:06Z</time>
      </trkpt>
      <trkpt lat="44.84692" lon="-0.76747">
        <ele>34.4</ele>
        <time>2017-12-06T08:49:07Z</time>
      </trkpt>
      <trkpt lat="44.84689" lon="-0.76747">
        <ele>34.5</ele>
        <time>2017-12-06T08:49:08Z</time>
      </trkpt>
      <trkpt lat="44.84685" lon="-0.76749">
        <ele>34.7</ele>
        <time>2017-12-06T08:49:10Z</time>
      </trkpt>
      <trkpt lat="44.84681" lon="-0.76751">
        <ele>34.9</ele>
        <time>2017-12-06T08:49:11Z</time>
      </trkpt>
      <trkpt lat="44.84677" lon="-0.76753">
        <ele>35.1</ele>
        <time>2017-12-06T08:49:12Z</time>
      </trkpt>
      <trkpt lat="44.84673" lon="-0.76755">
        <ele>35.3</ele>
        <time>2017-12-06T08:49:13Z</time>
      </trkpt>
      <trkpt lat="44.84669" lon="-0.76756">
        <ele>35.5</ele>
        <time>2017-12-06T08:49:14Z</time>
      </trkpt>
      <trkpt lat="44.84665" lon="-0.76757">
        <ele>35.7</ele>
        <time>2017-12-06T08:49:15Z</time>
      </trkpt>
      <trkpt lat="44.84659" lon="-0.76758">
        <ele>35.9</ele>
        <time>2017-12-06T08:49:16Z</time>
      </trkpt>
      <trkpt lat="44.84654" lon="-0.76759">
        <ele>36.2</ele>
        <time>2017-12-06T08:49:17Z</time>
      </trkpt>
      <trkpt lat="44.8465" lon="-0.7676">
        <ele>36.6</ele>
        <time>2017-12-06T08:49:18Z</time>
      </trkpt>
      <trkpt lat="44.84645" lon="-0.7676">
        <ele>37</ele>
        <time>2017-12-06T08:49:19Z</time>
      </trkpt>
      <trkpt lat="44.8464" lon="-0.76759">
        <ele>37.4</ele>
        <time>2017-12-06T08:49:20Z</time>
      </trkpt>
      <trkpt lat="44.84635" lon="-0.76757">
        <ele>37.7</ele>
        <time>2017-12-06T08:49:21Z</time>
      </trkpt>
      <trkpt lat="44.84633" lon="-0.76752">
        <ele>38</ele>
        <time>2017-12-06T08:49:22Z</time>
      </trkpt>
      <trkpt lat="44.84631" lon="-0.76747">
        <ele>38.3</ele>
        <time>2017-12-06T08:49:23Z</time>
      </trkpt>
      <trkpt lat="44.84629" lon="-0.76742">
        <ele>38.6</ele>
        <time>2017-12-06T08:49:24Z</time>
      </trkpt>
      <trkpt lat="44.84626" lon="-0.76737">
        <ele>38.9</ele>
        <time>2017-12-06T08:49:25Z</time>
      </trkpt>
      <trkpt lat="44.84624" lon="-0.76731">
        <ele>39</ele>
        <time>2017-12-06T08:49:26Z</time>
      </trkpt>
      <trkpt lat="44.84622" lon="-0.76725">
        <ele>38.8</ele>
        <time>2017-12-06T08:49:27Z</time>
      </trkpt>
      <trkpt lat="44.8462" lon="-0.76721">
        <ele>38.7</ele>
        <time>2017-12-06T08:49:28Z</time>
      </trkpt>
      <trkpt lat="44.84618" lon="-0.76715">
        <ele>38.7</ele>
        <time>2017-12-06T08:49:29Z</time>
      </trkpt>
      <trkpt lat="44.84615" lon="-0.7671">
        <ele>38.6</ele>
        <time>2017-12-06T08:49:30Z</time>
      </trkpt>
      <trkpt lat="44.84612" lon="-0.76705">
        <ele>38.6</ele>
        <time>2017-12-06T08:49:31Z</time>
      </trkpt>
      <trkpt lat="44.84609" lon="-0.767">
        <ele>38.6</ele>
        <time>2017-12-06T08:49:32Z</time>
      </trkpt>
      <trkpt lat="44.84606" lon="-0.76695">
        <ele>38.6</ele>
        <time>2017-12-06T08:49:33Z</time>
      </trkpt>
      <trkpt lat="44.84602" lon="-0.7669">
        <ele>38.7</ele>
        <time>2017-12-06T08:49:34Z</time>
      </trkpt>
      <trkpt lat="44.84598" lon="-0.76685">
        <ele>38.7</ele>
        <time>2017-12-06T08:49:35Z</time>
      </trkpt>
      <trkpt lat="44.84594" lon="-0.76681">
        <ele>38.7</ele>
        <time>2017-12-06T08:49:36Z</time>
      </trkpt>
      <trkpt lat="44.84589" lon="-0.76676">
        <ele>38.7</ele>
        <time>2017-12-06T08:49:37Z</time>
      </trkpt>
      <trkpt lat="44.84586" lon="-0.76672">
        <ele>38.7</ele>
        <time>2017-12-06T08:49:38Z</time>
      </trkpt>
      <trkpt lat="44.84581" lon="-0.76668">
        <ele>38.8</ele>
        <time>2017-12-06T08:49:39Z</time>
      </trkpt>
      <trkpt lat="44.84576" lon="-0.76663">
        <ele>38.9</ele>
        <time>2017-12-06T08:49:40Z</time>
      </trkpt>
      <trkpt lat="44.84572" lon="-0.76659">
        <ele>38.9</ele>
        <time>2017-12-06T08:49:41Z</time>
      </trkpt>
      <trkpt lat="44.84568" lon="-0.76656">
        <ele>39</ele>
        <time>2017-12-06T08:49:42Z</time>
      </trkpt>
      <trkpt lat="44.84564" lon="-0.76652">
        <ele>39.1</ele>
        <time>2017-12-06T08:49:43Z</time>
      </trkpt>
      <trkpt lat="44.84559" lon="-0.76649">
        <ele>39.1</ele>
        <time>2017-12-06T08:49:44Z</time>
      </trkpt>
      <trkpt lat="44.84555" lon="-0.76648">
        <ele>39.2</ele>
        <time>2017-12-06T08:49:45Z</time>
      </trkpt>
      <trkpt lat="44.8455" lon="-0.76647">
        <ele>39.2</ele>
        <time>2017-12-06T08:49:46Z</time>
      </trkpt>
      <trkpt lat="44.84546" lon="-0.76648">
        <ele>39.3</ele>
        <time>2017-12-06T08:49:47Z</time>
      </trkpt>
      <trkpt lat="44.84541" lon="-0.7665">
        <ele>39.3</ele>
        <time>2017-12-06T08:49:48Z</time>
      </trkpt>
      <trkpt lat="44.84537" lon="-0.76653">
        <ele>39.4</ele>
        <time>2017-12-06T08:49:49Z</time>
      </trkpt>
      <trkpt lat="44.84533" lon="-0.76656">
        <ele>39.5</ele>
        <time>2017-12-06T08:49:50Z</time>
      </trkpt>
      <trkpt lat="44.84528" lon="-0.76659">
        <ele>39.6</ele>
        <time>2017-12-06T08:49:51Z</time>
      </trkpt>
      <trkpt lat="44.84524" lon="-0.76661">
        <ele>39.6</ele>
        <time>2017-12-06T08:49:52Z</time>
      </trkpt>
      <trkpt lat="44.84519" lon="-0.76664">
        <ele>39.7</ele>
        <time>2017-12-06T08:49:53Z</time>
      </trkpt>
      <trkpt lat="44.84515" lon="-0.76667">
        <ele>39.7</ele>
        <time>2017-12-06T08:49:54Z</time>
      </trkpt>
      <trkpt lat="44.84511" lon="-0.76669">
        <ele>39.8</ele>
        <time>2017-12-06T08:49:55Z</time>
      </trkpt>
      <trkpt lat="44.84507" lon="-0.76672">
        <ele>39.8</ele>
        <time>2017-12-06T08:49:56Z</time>
      </trkpt>
      <trkpt lat="44.84503" lon="-0.76674">
        <ele>39.9</ele>
        <time>2017-12-06T08:49:57Z</time>
      </trkpt>
      <trkpt lat="44.84499" lon="-0.76678">
        <ele>39.9</ele>
        <time>2017-12-06T08:49:58Z</time>
      </trkpt>
      <trkpt lat="44.84495" lon="-0.76682">
        <ele>40</ele>
        <time>2017-12-06T08:49:59Z</time>
      </trkpt>
      <trkpt lat="44.84491" lon="-0.76687">
        <ele>40</ele>
        <time>2017-12-06T08:50:00Z</time>
      </trkpt>
      <trkpt lat="44.84488" lon="-0.76691">
        <ele>40</ele>
        <time>2017-12-06T08:50:01Z</time>
      </trkpt>
      <trkpt lat="44.84483" lon="-0.76696">
        <ele>40.1</ele>
        <time>2017-12-06T08:50:02Z</time>
      </trkpt>
      <trkpt lat="44.84479" lon="-0.76701">
        <ele>40.1</ele>
        <time>2017-12-06T08:50:03Z</time>
      </trkpt>
      <trkpt lat="44.84475" lon="-0.76706">
        <ele>40.1</ele>
        <time>2017-12-06T08:50:04Z</time>
      </trkpt>
      <trkpt lat="44.8447" lon="-0.76711">
        <ele>40.1</ele>
        <time>2017-12-06T08:50:05Z</time>
      </trkpt>
      <trkpt lat="44.84466" lon="-0.76716">
        <ele>40.2</ele>
        <time>2017-12-06T08:50:06Z</time>
      </trkpt>
      <trkpt lat="44.84461" lon="-0.76718">
        <ele>40.2</ele>
        <time>2017-12-06T08:50:07Z</time>
      </trkpt>
      <trkpt lat="44.84455" lon="-0.76718">
        <ele>40.1</ele>
        <time>2017-12-06T08:50:08Z</time>
      </trkpt>
      <trkpt lat="44.8445" lon="-0.76717">
        <ele>40.1</ele>
        <time>2017-12-06T08:50:09Z</time>
      </trkpt>
      <trkpt lat="44.84445" lon="-0.76716">
        <ele>40.1</ele>
        <time>2017-12-06T08:50:10Z</time>
      </trkpt>
      <trkpt lat="44.8444" lon="-0.76715">
        <ele>40.1</ele>
        <time>2017-12-06T08:50:11Z</time>
      </trkpt>
      <trkpt lat="44.84435" lon="-0.76715">
        <ele>40</ele>
        <time>2017-12-06T08:50:12Z</time>
      </trkpt>
      <trkpt lat="44.8443" lon="-0.76717">
        <ele>40</ele>
        <time>2017-12-06T08:50:13Z</time>
      </trkpt>
      <trkpt lat="44.84426" lon="-0.76719">
        <ele>39.9</ele>
        <time>2017-12-06T08:50:14Z</time>
      </trkpt>
      <trkpt lat="44.84422" lon="-0.76721">
        <ele>39.8</ele>
        <time>2017-12-06T08:50:15Z</time>
      </trkpt>
      <trkpt lat="44.84418" lon="-0.76725">
        <ele>39.7</ele>
        <time>2017-12-06T08:50:16Z</time>
      </trkpt>
      <trkpt lat="44.84414" lon="-0.76729">
        <ele>39.5</ele>
        <time>2017-12-06T08:50:17Z</time>
      </trkpt>
      <trkpt lat="44.84411" lon="-0.76734">
        <ele>39.3</ele>
        <time>2017-12-06T08:50:18Z</time>
      </trkpt>
      <trkpt lat="44.84408" lon="-0.76741">
        <ele>39</ele>
        <time>2017-12-06T08:50:19Z</time>
      </trkpt>
      <trkpt lat="44.84405" lon="-0.76749">
        <ele>38.7</ele>
        <time>2017-12-06T08:50:20Z</time>
      </trkpt>
      <trkpt lat="44.84402" lon="-0.76757">
        <ele>38.5</ele>
        <time>2017-12-06T08:50:21Z</time>
      </trkpt>
      <trkpt lat="44.84399" lon="-0.76765">
        <ele>38.4</ele>
        <time>2017-12-06T08:50:22Z</time>
      </trkpt>
      <trkpt lat="44.84397" lon="-0.76774">
        <ele>38.2</ele>
        <time>2017-12-06T08:50:23Z</time>
      </trkpt>
      <trkpt lat="44.84394" lon="-0.76782">
        <ele>38.1</ele>
        <time>2017-12-06T08:50:24Z</time>
      </trkpt>
      <trkpt lat="44.84391" lon="-0.76791">
        <ele>38</ele>
        <time>2017-12-06T08:50:25Z</time>
      </trkpt>
      <trkpt lat="44.84388" lon="-0.76799">
        <ele>38</ele>
        <time>2017-12-06T08:50:26Z</time>
      </trkpt>
      <trkpt lat="44.84384" lon="-0.76806">
        <ele>38</ele>
        <time>2017-12-06T08:50:27Z</time>
      </trkpt>
      <trkpt lat="44.8438" lon="-0.76814">
        <ele>38</ele>
        <time>2017-12-06T08:50:28Z</time>
      </trkpt>
      <trkpt lat="44.84376" lon="-0.76821">
        <ele>38</ele>
        <time>2017-12-06T08:50:29Z</time>
      </trkpt>
      <trkpt lat="44.84373" lon="-0.76827">
        <ele>38</ele>
        <time>2017-12-06T08:50:30Z</time>
      </trkpt>
      <trkpt lat="44.84369" lon="-0.76834">
        <ele>38</ele>
        <time>2017-12-06T08:50:31Z</time>
      </trkpt>
      <trkpt lat="44.84365" lon="-0.76841">
        <ele>37.9</ele>
        <time>2017-12-06T08:50:32Z</time>
      </trkpt>
      <trkpt lat="44.84362" lon="-0.76848">
        <ele>37.8</ele>
        <time>2017-12-06T08:50:33Z</time>
      </trkpt>
      <trkpt lat="44.84358" lon="-0.76855">
        <ele>37.8</ele>
        <time>2017-12-06T08:50:34Z</time>
      </trkpt>
      <trkpt lat="44.84355" lon="-0.76861">
        <ele>37.7</ele>
        <time>2017-12-06T08:50:35Z</time>
      </trkpt>
      <trkpt lat="44.84351" lon="-0.76868">
        <ele>37.6</ele>
        <time>2017-12-06T08:50:36Z</time>
      </trkpt>
      <trkpt lat="44.84348" lon="-0.76874">
        <ele>37.5</ele>
        <time>2017-12-06T08:50:37Z</time>
      </trkpt>
      <trkpt lat="44.84345" lon="-0.76881">
        <ele>37.4</ele>
        <time>2017-12-06T08:50:38Z</time>
      </trkpt>
      <trkpt lat="44.84342" lon="-0.76888">
        <ele>37.3</ele>
        <time>2017-12-06T08:50:39Z</time>
      </trkpt>
      <trkpt lat="44.8434" lon="-0.76894">
        <ele>37.2</ele>
        <time>2017-12-06T08:50:40Z</time>
      </trkpt>
      <trkpt lat="44.84338" lon="-0.76901">
        <ele>37</ele>
        <time>2017-12-06T08:50:41Z</time>
      </trkpt>
      <trkpt lat="44.84336" lon="-0.76906">
        <ele>36.9</ele>
        <time>2017-12-06T08:50:42Z</time>
      </trkpt>
      <trkpt lat="44.84334" lon="-0.76912">
        <ele>36.7</ele>
        <time>2017-12-06T08:50:43Z</time>
      </trkpt>
      <trkpt lat="44.84332" lon="-0.76919">
        <ele>36.5</ele>
        <time>2017-12-06T08:50:44Z</time>
      </trkpt>
      <trkpt lat="44.84329" lon="-0.76925">
        <ele>36.4</ele>
        <time>2017-12-06T08:50:45Z</time>
      </trkpt>
      <trkpt lat="44.84327" lon="-0.76932">
        <ele>36.1</ele>
        <time>2017-12-06T08:50:46Z</time>
      </trkpt>
      <trkpt lat="44.84326" lon="-0.76939">
        <ele>35.9</ele>
        <time>2017-12-06T08:50:47Z</time>
      </trkpt>
      <trkpt lat="44.84324" lon="-0.76946">
        <ele>35.9</ele>
        <time>2017-12-06T08:50:48Z</time>
      </trkpt>
      <trkpt lat="44.84323" lon="-0.76953">
        <ele>35.8</ele>
        <time>2017-12-06T08:50:49Z</time>
      </trkpt>
      <trkpt lat="44.84322" lon="-0.76961">
        <ele>35.7</ele>
        <time>2017-12-06T08:50:50Z</time>
      </trkpt>
      <trkpt lat="44.84321" lon="-0.76969">
        <ele>35.6</ele>
        <time>2017-12-06T08:50:51Z</time>
      </trkpt>
      <trkpt lat="44.84321" lon="-0.76977">
        <ele>35.5</ele>
        <time>2017-12-06T08:50:52Z</time>
      </trkpt>
      <trkpt lat="44.8432" lon="-0.76984">
        <ele>35.5</ele>
        <time>2017-12-06T08:50:53Z</time>
      </trkpt>
      <trkpt lat="44.8432" lon="-0.76991">
        <ele>35.4</ele>
        <time>2017-12-06T08:50:54Z</time>
      </trkpt>
      <trkpt lat="44.8432" lon="-0.76998">
        <ele>35.3</ele>
        <time>2017-12-06T08:50:55Z</time>
      </trkpt>
      <trkpt lat="44.8432" lon="-0.77005">
        <ele>35.2</ele>
        <time>2017-12-06T08:50:56Z</time>
      </trkpt>
      <trkpt lat="44.84319" lon="-0.77011">
        <ele>35.1</ele>
        <time>2017-12-06T08:50:57Z</time>
      </trkpt>
      <trkpt lat="44.84318" lon="-0.77018">
        <ele>35.1</ele>
        <time>2017-12-06T08:50:58Z</time>
      </trkpt>
      <trkpt lat="44.84315" lon="-0.77022">
        <ele>35.3</ele>
        <time>2017-12-06T08:50:59Z</time>
      </trkpt>
      <trkpt lat="44.84311" lon="-0.77026">
        <ele>35.6</ele>
        <time>2017-12-06T08:51:00Z</time>
      </trkpt>
      <trkpt lat="44.84307" lon="-0.77027">
        <ele>35.8</ele>
        <time>2017-12-06T08:51:01Z</time>
      </trkpt>
      <trkpt lat="44.84303" lon="-0.77027">
        <ele>36</ele>
        <time>2017-12-06T08:51:02Z</time>
      </trkpt>
      <trkpt lat="44.84298" lon="-0.77027">
        <ele>36.2</ele>
        <time>2017-12-06T08:51:03Z</time>
      </trkpt>
      <trkpt lat="44.84294" lon="-0.77029">
        <ele>36.4</ele>
        <time>2017-12-06T08:51:04Z</time>
      </trkpt>
      <trkpt lat="44.8429" lon="-0.7703">
        <ele>36.6</ele>
        <time>2017-12-06T08:51:05Z</time>
      </trkpt>
      <trkpt lat="44.84285" lon="-0.77031">
        <ele>36.8</ele>
        <time>2017-12-06T08:51:06Z</time>
      </trkpt>
      <trkpt lat="44.8428" lon="-0.77031">
        <ele>37</ele>
        <time>2017-12-06T08:51:07Z</time>
      </trkpt>
      <trkpt lat="44.84276" lon="-0.77032">
        <ele>37.2</ele>
        <time>2017-12-06T08:51:08Z</time>
      </trkpt>
      <trkpt lat="44.84272" lon="-0.77034">
        <ele>37.5</ele>
        <time>2017-12-06T08:51:09Z</time>
      </trkpt>
      <trkpt lat="44.84268" lon="-0.77035">
        <ele>37.7</ele>
        <time>2017-12-06T08:51:10Z</time>
      </trkpt>
      <trkpt lat="44.84265" lon="-0.77037">
        <ele>37.8</ele>
        <time>2017-12-06T08:51:11Z</time>
      </trkpt>
      <trkpt lat="44.84261" lon="-0.77041">
        <ele>38.1</ele>
        <time>2017-12-06T08:51:13Z</time>
      </trkpt>
      <trkpt lat="44.84261" lon="-0.77045">
        <ele>38.3</ele>
        <time>2017-12-06T08:51:14Z</time>
      </trkpt>
      <trkpt lat="44.84261" lon="-0.77049">
        <ele>37.5</ele>
        <time>2017-12-06T08:51:15Z</time>
      </trkpt>
      <trkpt lat="44.84261" lon="-0.77054">
        <ele>37.1</ele>
        <time>2017-12-06T08:51:16Z</time>
      </trkpt>
      <trkpt lat="44.84262" lon="-0.77059">
        <ele>36.6</ele>
        <time>2017-12-06T08:51:17Z</time>
      </trkpt>
      <trkpt lat="44.84262" lon="-0.77065">
        <ele>36.1</ele>
        <time>2017-12-06T08:51:18Z</time>
      </trkpt>
      <trkpt lat="44.84262" lon="-0.77071">
        <ele>35.6</ele>
        <time>2017-12-06T08:51:19Z</time>
      </trkpt>
      <trkpt lat="44.84263" lon="-0.77076">
        <ele>35.1</ele>
        <time>2017-12-06T08:51:20Z</time>
      </trkpt>
      <trkpt lat="44.84263" lon="-0.77082">
        <ele>34.5</ele>
        <time>2017-12-06T08:51:21Z</time>
      </trkpt>
      <trkpt lat="44.84264" lon="-0.77088">
        <ele>34</ele>
        <time>2017-12-06T08:51:22Z</time>
      </trkpt>
      <trkpt lat="44.84264" lon="-0.77095">
        <ele>34</ele>
        <time>2017-12-06T08:51:23Z</time>
      </trkpt>
      <trkpt lat="44.84265" lon="-0.77102">
        <ele>34</ele>
        <time>2017-12-06T08:51:24Z</time>
      </trkpt>
      <trkpt lat="44.84266" lon="-0.77109">
        <ele>34</ele>
        <time>2017-12-06T08:51:25Z</time>
      </trkpt>
      <trkpt lat="44.84268" lon="-0.77116">
        <ele>34</ele>
        <time>2017-12-06T08:51:26Z</time>
      </trkpt>
      <trkpt lat="44.84269" lon="-0.77124">
        <ele>34</ele>
        <time>2017-12-06T08:51:27Z</time>
      </trkpt>
      <trkpt lat="44.84269" lon="-0.77131">
        <ele>34</ele>
        <time>2017-12-06T08:51:28Z</time>
      </trkpt>
      <trkpt lat="44.84271" lon="-0.77139">
        <ele>34</ele>
        <time>2017-12-06T08:51:29Z</time>
      </trkpt>
      <trkpt lat="44.84272" lon="-0.77147">
        <ele>34</ele>
        <time>2017-12-06T08:51:30Z</time>
      </trkpt>
      <trkpt lat="44.84273" lon="-0.77155">
        <ele>34</ele>
        <time>2017-12-06T08:51:31Z</time>
      </trkpt>
      <trkpt lat="44.84274" lon="-0.77164">
        <ele>34</ele>
        <time>2017-12-06T08:51:32Z</time>
      </trkpt>
      <trkpt lat="44.84276" lon="-0.77172">
        <ele>34</ele>
        <time>2017-12-06T08:51:33Z</time>
      </trkpt>
      <trkpt lat="44.84277" lon="-0.77181">
        <ele>34</ele>
        <time>2017-12-06T08:51:34Z</time>
      </trkpt>
      <trkpt lat="44.84279" lon="-0.77189">
        <ele>34</ele>
        <time>2017-12-06T08:51:35Z</time>
      </trkpt>
      <trkpt lat="44.8428" lon="-0.77197">
        <ele>34</ele>
        <time>2017-12-06T08:51:36Z</time>
      </trkpt>
      <trkpt lat="44.84282" lon="-0.77206">
        <ele>34</ele>
        <time>2017-12-06T08:51:37Z</time>
      </trkpt>
      <trkpt lat="44.84283" lon="-0.77213">
        <ele>34</ele>
        <time>2017-12-06T08:51:38Z</time>
      </trkpt>
      <trkpt lat="44.84285" lon="-0.77222">
        <ele>34</ele>
        <time>2017-12-06T08:51:39Z</time>
      </trkpt>
      <trkpt lat="44.84286" lon="-0.7723">
        <ele>34</ele>
        <time>2017-12-06T08:51:40Z</time>
      </trkpt>
      <trkpt lat="44.84287" lon="-0.77238">
        <ele>34</ele>
        <time>2017-12-06T08:51:41Z</time>
      </trkpt>
      <trkpt lat="44.84288" lon="-0.77246">
        <ele>34</ele>
        <time>2017-12-06T08:51:42Z</time>
      </trkpt>
      <trkpt lat="44.84288" lon="-0.77255">
        <ele>34</ele>
        <time>2017-12-06T08:51:43Z</time>
      </trkpt>
      <trkpt lat="44.84288" lon="-0.77263">
        <ele>33.9</ele>
        <time>2017-12-06T08:51:44Z</time>
      </trkpt>
      <trkpt lat="44.84287" lon="-0.77271">
        <ele>33.8</ele>
        <time>2017-12-06T08:51:45Z</time>
      </trkpt>
      <trkpt lat="44.84287" lon="-0.77279">
        <ele>33.7</ele>
        <time>2017-12-06T08:51:46Z</time>
      </trkpt>
      <trkpt lat="44.84287" lon="-0.77287">
        <ele>33.5</ele>
        <time>2017-12-06T08:51:47Z</time>
      </trkpt>
      <trkpt lat="44.84286" lon="-0.77295">
        <ele>33.5</ele>
        <time>2017-12-06T08:51:48Z</time>
      </trkpt>
      <trkpt lat="44.84284" lon="-0.77302">
        <ele>33.4</ele>
        <time>2017-12-06T08:51:49Z</time>
      </trkpt>
      <trkpt lat="44.84282" lon="-0.77309">
        <ele>33.4</ele>
        <time>2017-12-06T08:51:50Z</time>
      </trkpt>
      <trkpt lat="44.8428" lon="-0.77315">
        <ele>33.4</ele>
        <time>2017-12-06T08:51:51Z</time>
      </trkpt>
      <trkpt lat="44.84277" lon="-0.77322">
        <ele>33.3</ele>
        <time>2017-12-06T08:51:52Z</time>
      </trkpt>
      <trkpt lat="44.84275" lon="-0.77328">
        <ele>33.3</ele>
        <time>2017-12-06T08:51:53Z</time>
      </trkpt>
      <trkpt lat="44.84272" lon="-0.77335">
        <ele>33.2</ele>
        <time>2017-12-06T08:51:54Z</time>
      </trkpt>
      <trkpt lat="44.84269" lon="-0.7734">
        <ele>33.2</ele>
        <time>2017-12-06T08:51:55Z</time>
      </trkpt>
      <trkpt lat="44.84266" lon="-0.77346">
        <ele>33.1</ele>
        <time>2017-12-06T08:51:56Z</time>
      </trkpt>
      <trkpt lat="44.84263" lon="-0.77352">
        <ele>33.1</ele>
        <time>2017-12-06T08:51:57Z</time>
      </trkpt>
      <trkpt lat="44.8426" lon="-0.77358">
        <ele>33.1</ele>
        <time>2017-12-06T08:51:58Z</time>
      </trkpt>
      <trkpt lat="44.84257" lon="-0.77364">
        <ele>33.1</ele>
        <time>2017-12-06T08:51:59Z</time>
      </trkpt>
      <trkpt lat="44.84254" lon="-0.77372">
        <ele>33.1</ele>
        <time>2017-12-06T08:52:00Z</time>
      </trkpt>
      <trkpt lat="44.84251" lon="-0.77378">
        <ele>33.1</ele>
        <time>2017-12-06T08:52:01Z</time>
      </trkpt>
      <trkpt lat="44.84247" lon="-0.77385">
        <ele>33.1</ele>
        <time>2017-12-06T08:52:02Z</time>
      </trkpt>
      <trkpt lat="44.84244" lon="-0.77391">
        <ele>33.1</ele>
        <time>2017-12-06T08:52:03Z</time>
      </trkpt>
      <trkpt lat="44.84241" lon="-0.77398">
        <ele>33.1</ele>
        <time>2017-12-06T08:52:04Z</time>
      </trkpt>
      <trkpt lat="44.84238" lon="-0.77405">
        <ele>33</ele>
        <time>2017-12-06T08:52:05Z</time>
      </trkpt>
      <trkpt lat="44.84235" lon="-0.77411">
        <ele>33</ele>
        <time>2017-12-06T08:52:06Z</time>
      </trkpt>
      <trkpt lat="44.84232" lon="-0.77417">
        <ele>33</ele>
        <time>2017-12-06T08:52:07Z</time>
      </trkpt>
      <trkpt lat="44.84229" lon="-0.77424">
        <ele>33</ele>
        <time>2017-12-06T08:52:08Z</time>
      </trkpt>
      <trkpt lat="44.84225" lon="-0.77431">
        <ele>33</ele>
        <time>2017-12-06T08:52:09Z</time>
      </trkpt>
      <trkpt lat="44.84222" lon="-0.77438">
        <ele>33</ele>
        <time>2017-12-06T08:52:10Z</time>
      </trkpt>
      <trkpt lat="44.84219" lon="-0.77444">
        <ele>33</ele>
        <time>2017-12-06T08:52:11Z</time>
      </trkpt>
      <trkpt lat="44.84217" lon="-0.7745">
        <ele>33</ele>
        <time>2017-12-06T08:52:12Z</time>
      </trkpt>
      <trkpt lat="44.84214" lon="-0.77455">
        <ele>33</ele>
        <time>2017-12-06T08:52:13Z</time>
      </trkpt>
      <trkpt lat="44.84212" lon="-0.77461">
        <ele>33</ele>
        <time>2017-12-06T08:52:14Z</time>
      </trkpt>
      <trkpt lat="44.8421" lon="-0.77466">
        <ele>33</ele>
        <time>2017-12-06T08:52:15Z</time>
      </trkpt>
      <trkpt lat="44.8421" lon="-0.77471">
        <ele>33</ele>
        <time>2017-12-06T08:52:16Z</time>
      </trkpt>
      <trkpt lat="44.8421" lon="-0.77475">
        <ele>33</ele>
        <time>2017-12-06T08:52:17Z</time>
      </trkpt>
      <trkpt lat="44.84209" lon="-0.77479">
        <ele>33</ele>
        <time>2017-12-06T08:52:19Z</time>
      </trkpt>
      <trkpt lat="44.84206" lon="-0.77483">
        <ele>33</ele>
        <time>2017-12-06T08:52:24Z</time>
      </trkpt>
      <trkpt lat="44.84203" lon="-0.77488">
        <ele>33</ele>
        <time>2017-12-06T08:52:32Z</time>
      </trkpt>
      <trkpt lat="44.84198" lon="-0.77491">
        <ele>33</ele>
        <time>2017-12-06T08:52:34Z</time>
      </trkpt>
      <trkpt lat="44.84195" lon="-0.77492">
        <ele>33</ele>
        <time>2017-12-06T08:52:35Z</time>
      </trkpt>
      <trkpt lat="44.84191" lon="-0.77494">
        <ele>33</ele>
        <time>2017-12-06T08:52:36Z</time>
      </trkpt>
      <trkpt lat="44.84188" lon="-0.77497">
        <ele>33.3</ele>
        <time>2017-12-06T08:52:37Z</time>
      </trkpt>
      <trkpt lat="44.84184" lon="-0.775">
        <ele>33.6</ele>
        <time>2017-12-06T08:52:38Z</time>
      </trkpt>
      <trkpt lat="44.84181" lon="-0.77503">
        <ele>34</ele>
        <time>2017-12-06T08:52:39Z</time>
      </trkpt>
      <trkpt lat="44.84177" lon="-0.77507">
        <ele>34.4</ele>
        <time>2017-12-06T08:52:40Z</time>
      </trkpt>
      <trkpt lat="44.84173" lon="-0.77509">
        <ele>34.8</ele>
        <time>2017-12-06T08:52:41Z</time>
      </trkpt>
      <trkpt lat="44.84168" lon="-0.77512">
        <ele>35.3</ele>
        <time>2017-12-06T08:52:42Z</time>
      </trkpt>
      <trkpt lat="44.84164" lon="-0.77514">
        <ele>35.8</ele>
        <time>2017-12-06T08:52:43Z</time>
      </trkpt>
      <trkpt lat="44.84159" lon="-0.77517">
        <ele>36.2</ele>
        <time>2017-12-06T08:52:44Z</time>
      </trkpt>
      <trkpt lat="44.84153" lon="-0.7752">
        <ele>36.8</ele>
        <time>2017-12-06T08:52:45Z</time>
      </trkpt>
      <trkpt lat="44.84148" lon="-0.77522">
        <ele>37</ele>
        <time>2017-12-06T08:52:46Z</time>
      </trkpt>
      <trkpt lat="44.84143" lon="-0.77525">
        <ele>37</ele>
        <time>2017-12-06T08:52:47Z</time>
      </trkpt>
      <trkpt lat="44.84138" lon="-0.77527">
        <ele>37.1</ele>
        <time>2017-12-06T08:52:48Z</time>
      </trkpt>
      <trkpt lat="44.84132" lon="-0.7753">
        <ele>37.1</ele>
        <time>2017-12-06T08:52:49Z</time>
      </trkpt>
      <trkpt lat="44.84127" lon="-0.77533">
        <ele>37.1</ele>
        <time>2017-12-06T08:52:50Z</time>
      </trkpt>
      <trkpt lat="44.84121" lon="-0.77535">
        <ele>37.1</ele>
        <time>2017-12-06T08:52:51Z</time>
      </trkpt>
      <trkpt lat="44.84116" lon="-0.77538">
        <ele>37.1</ele>
        <time>2017-12-06T08:52:52Z</time>
      </trkpt>
      <trkpt lat="44.84111" lon="-0.7754">
        <ele>37.1</ele>
        <time>2017-12-06T08:52:53Z</time>
      </trkpt>
      <trkpt lat="44.84106" lon="-0.77542">
        <ele>37.1</ele>
        <time>2017-12-06T08:52:54Z</time>
      </trkpt>
      <trkpt lat="44.841" lon="-0.77544">
        <ele>37.1</ele>
        <time>2017-12-06T08:52:55Z</time>
      </trkpt>
      <trkpt lat="44.84095" lon="-0.77546">
        <ele>37</ele>
        <time>2017-12-06T08:52:56Z</time>
      </trkpt>
      <trkpt lat="44.8409" lon="-0.77549">
        <ele>37.1</ele>
        <time>2017-12-06T08:52:57Z</time>
      </trkpt>
      <trkpt lat="44.84085" lon="-0.77551">
        <ele>37.2</ele>
        <time>2017-12-06T08:52:58Z</time>
      </trkpt>
      <trkpt lat="44.84079" lon="-0.77553">
        <ele>37.4</ele>
        <time>2017-12-06T08:52:59Z</time>
      </trkpt>
      <trkpt lat="44.84074" lon="-0.77555">
        <ele>37.5</ele>
        <time>2017-12-06T08:53:00Z</time>
      </trkpt>
      <trkpt lat="44.84069" lon="-0.77558">
        <ele>37.7</ele>
        <time>2017-12-06T08:53:01Z</time>
      </trkpt>
      <trkpt lat="44.84063" lon="-0.77561">
        <ele>37.8</ele>
        <time>2017-12-06T08:53:02Z</time>
      </trkpt>
      <trkpt lat="44.84058" lon="-0.77564">
        <ele>38</ele>
        <time>2017-12-06T08:53:03Z</time>
      </trkpt>
      <trkpt lat="44.84054" lon="-0.77568">
        <ele>38</ele>
        <time>2017-12-06T08:53:04Z</time>
      </trkpt>
      <trkpt lat="44.8405" lon="-0.7757">
        <ele>38</ele>
        <time>2017-12-06T08:53:05Z</time>
      </trkpt>
      <trkpt lat="44.84045" lon="-0.7757">
        <ele>38</ele>
        <time>2017-12-06T08:53:06Z</time>
      </trkpt>
      <trkpt lat="44.84041" lon="-0.77566">
        <ele>38</ele>
        <time>2017-12-06T08:53:07Z</time>
      </trkpt>
      <trkpt lat="44.84038" lon="-0.77562">
        <ele>38</ele>
        <time>2017-12-06T08:53:08Z</time>
      </trkpt>
      <trkpt lat="44.84034" lon="-0.77557">
        <ele>38</ele>
        <time>2017-12-06T08:53:09Z</time>
      </trkpt>
      <trkpt lat="44.8403" lon="-0.77552">
        <ele>38.1</ele>
        <time>2017-12-06T08:53:10Z</time>
      </trkpt>
      <trkpt lat="44.84026" lon="-0.77548">
        <ele>38.2</ele>
        <time>2017-12-06T08:53:11Z</time>
      </trkpt>
      <trkpt lat="44.84021" lon="-0.77544">
        <ele>38.2</ele>
        <time>2017-12-06T08:53:12Z</time>
      </trkpt>
      <trkpt lat="44.84016" lon="-0.77541">
        <ele>38.3</ele>
        <time>2017-12-06T08:53:13Z</time>
      </trkpt>
      <trkpt lat="44.84012" lon="-0.77537">
        <ele>38.4</ele>
        <time>2017-12-06T08:53:14Z</time>
      </trkpt>
      <trkpt lat="44.84007" lon="-0.77534">
        <ele>38.4</ele>
        <time>2017-12-06T08:53:15Z</time>
      </trkpt>
      <trkpt lat="44.84001" lon="-0.77531">
        <ele>38.5</ele>
        <time>2017-12-06T08:53:16Z</time>
      </trkpt>
      <trkpt lat="44.83996" lon="-0.77528">
        <ele>38.6</ele>
        <time>2017-12-06T08:53:17Z</time>
      </trkpt>
      <trkpt lat="44.83991" lon="-0.77525">
        <ele>38.7</ele>
        <time>2017-12-06T08:53:18Z</time>
      </trkpt>
      <trkpt lat="44.83986" lon="-0.77523">
        <ele>38.7</ele>
        <time>2017-12-06T08:53:19Z</time>
      </trkpt>
      <trkpt lat="44.8398" lon="-0.77521">
        <ele>38.8</ele>
        <time>2017-12-06T08:53:20Z</time>
      </trkpt>
      <trkpt lat="44.83975" lon="-0.77518">
        <ele>38.9</ele>
        <time>2017-12-06T08:53:21Z</time>
      </trkpt>
      <trkpt lat="44.8397" lon="-0.77515">
        <ele>38.9</ele>
        <time>2017-12-06T08:53:22Z</time>
      </trkpt>
      <trkpt lat="44.83965" lon="-0.77512">
        <ele>39</ele>
        <time>2017-12-06T08:53:23Z</time>
      </trkpt>
      <trkpt lat="44.83959" lon="-0.7751">
        <ele>38.4</ele>
        <time>2017-12-06T08:53:24Z</time>
      </trkpt>
      <trkpt lat="44.83954" lon="-0.77507">
        <ele>37.7</ele>
        <time>2017-12-06T08:53:25Z</time>
      </trkpt>
      <trkpt lat="44.83949" lon="-0.77504">
        <ele>37</ele>
        <time>2017-12-06T08:53:26Z</time>
      </trkpt>
      <trkpt lat="44.83944" lon="-0.775">
        <ele>36.2</ele>
        <time>2017-12-06T08:53:27Z</time>
      </trkpt>
      <trkpt lat="44.8394" lon="-0.77495">
        <ele>36</ele>
        <time>2017-12-06T08:53:28Z</time>
      </trkpt>
      <trkpt lat="44.83935" lon="-0.77491">
        <ele>36</ele>
        <time>2017-12-06T08:53:29Z</time>
      </trkpt>
      <trkpt lat="44.8393" lon="-0.77486">
        <ele>36</ele>
        <time>2017-12-06T08:53:30Z</time>
      </trkpt>
      <trkpt lat="44.83925" lon="-0.77483">
        <ele>36</ele>
        <time>2017-12-06T08:53:31Z</time>
      </trkpt>
      <trkpt lat="44.8392" lon="-0.77481">
        <ele>36</ele>
        <time>2017-12-06T08:53:32Z</time>
      </trkpt>
      <trkpt lat="44.83914" lon="-0.77479">
        <ele>36</ele>
        <time>2017-12-06T08:53:33Z</time>
      </trkpt>
      <trkpt lat="44.83909" lon="-0.77478">
        <ele>36</ele>
        <time>2017-12-06T08:53:34Z</time>
      </trkpt>
      <trkpt lat="44.83903" lon="-0.77476">
        <ele>35.9</ele>
        <time>2017-12-06T08:53:35Z</time>
      </trkpt>
      <trkpt lat="44.83898" lon="-0.77475">
        <ele>35.9</ele>
        <time>2017-12-06T08:53:36Z</time>
      </trkpt>
      <trkpt lat="44.83892" lon="-0.77474">
        <ele>35.8</ele>
        <time>2017-12-06T08:53:37Z</time>
      </trkpt>
      <trkpt lat="44.83887" lon="-0.77473">
        <ele>35.8</ele>
        <time>2017-12-06T08:53:38Z</time>
      </trkpt>
      <trkpt lat="44.83882" lon="-0.77471">
        <ele>35.7</ele>
        <time>2017-12-06T08:53:39Z</time>
      </trkpt>
      <trkpt lat="44.83876" lon="-0.7747">
        <ele>35.7</ele>
        <time>2017-12-06T08:53:40Z</time>
      </trkpt>
      <trkpt lat="44.8387" lon="-0.77469">
        <ele>35.6</ele>
        <time>2017-12-06T08:53:41Z</time>
      </trkpt>
      <trkpt lat="44.83865" lon="-0.77468">
        <ele>35.6</ele>
        <time>2017-12-06T08:53:42Z</time>
      </trkpt>
      <trkpt lat="44.8386" lon="-0.77466">
        <ele>35.5</ele>
        <time>2017-12-06T08:53:43Z</time>
      </trkpt>
      <trkpt lat="44.83854" lon="-0.77465">
        <ele>35.4</ele>
        <time>2017-12-06T08:53:44Z</time>
      </trkpt>
      <trkpt lat="44.83848" lon="-0.77464">
        <ele>35.4</ele>
        <time>2017-12-06T08:53:45Z</time>
      </trkpt>
      <trkpt lat="44.83842" lon="-0.77463">
        <ele>35.3</ele>
        <time>2017-12-06T08:53:46Z</time>
      </trkpt>
      <trkpt lat="44.83836" lon="-0.77461">
        <ele>35.2</ele>
        <time>2017-12-06T08:53:47Z</time>
      </trkpt>
      <trkpt lat="44.8383" lon="-0.77461">
        <ele>35.2</ele>
        <time>2017-12-06T08:53:48Z</time>
      </trkpt>
      <trkpt lat="44.83825" lon="-0.77459">
        <ele>35.1</ele>
        <time>2017-12-06T08:53:49Z</time>
      </trkpt>
      <trkpt lat="44.8382" lon="-0.77456">
        <ele>35.1</ele>
        <time>2017-12-06T08:53:50Z</time>
      </trkpt>
      <trkpt lat="44.83816" lon="-0.77453">
        <ele>35</ele>
        <time>2017-12-06T08:53:51Z</time>
      </trkpt>
      <trkpt lat="44.83812" lon="-0.77447">
        <ele>35.1</ele>
        <time>2017-12-06T08:53:52Z</time>
      </trkpt>
      <trkpt lat="44.83808" lon="-0.77441">
        <ele>35.3</ele>
        <time>2017-12-06T08:53:53Z</time>
      </trkpt>
      <trkpt lat="44.83805" lon="-0.77435">
        <ele>35.5</ele>
        <time>2017-12-06T08:53:54Z</time>
      </trkpt>
      <trkpt lat="44.83802" lon="-0.77428">
        <ele>35.7</ele>
        <time>2017-12-06T08:53:55Z</time>
      </trkpt>
      <trkpt lat="44.838" lon="-0.77421">
        <ele>35.9</ele>
        <time>2017-12-06T08:53:56Z</time>
      </trkpt>
      <trkpt lat="44.83798" lon="-0.77415">
        <ele>36</ele>
        <time>2017-12-06T08:53:57Z</time>
      </trkpt>
      <trkpt lat="44.83795" lon="-0.77408">
        <ele>36</ele>
        <time>2017-12-06T08:53:58Z</time>
      </trkpt>
      <trkpt lat="44.83792" lon="-0.77402">
        <ele>36</ele>
        <time>2017-12-06T08:53:59Z</time>
      </trkpt>
      <trkpt lat="44.83789" lon="-0.77395">
        <ele>36</ele>
        <time>2017-12-06T08:54:00Z</time>
      </trkpt>
      <trkpt lat="44.83785" lon="-0.77389">
        <ele>36</ele>
        <time>2017-12-06T08:54:01Z</time>
      </trkpt>
      <trkpt lat="44.8378" lon="-0.77383">
        <ele>36</ele>
        <time>2017-12-06T08:54:02Z</time>
      </trkpt>
      <trkpt lat="44.83775" lon="-0.77378">
        <ele>36.1</ele>
        <time>2017-12-06T08:54:03Z</time>
      </trkpt>
      <trkpt lat="44.83769" lon="-0.77374">
        <ele>36.1</ele>
        <time>2017-12-06T08:54:04Z</time>
      </trkpt>
      <trkpt lat="44.83763" lon="-0.7737">
        <ele>36.2</ele>
        <time>2017-12-06T08:54:05Z</time>
      </trkpt>
      <trkpt lat="44.83757" lon="-0.77367">
        <ele>36.2</ele>
        <time>2017-12-06T08:54:06Z</time>
      </trkpt>
      <trkpt lat="44.83751" lon="-0.77363">
        <ele>36.3</ele>
        <time>2017-12-06T08:54:07Z</time>
      </trkpt>
      <trkpt lat="44.83746" lon="-0.77359">
        <ele>36.3</ele>
        <time>2017-12-06T08:54:08Z</time>
      </trkpt>
      <trkpt lat="44.83741" lon="-0.77354">
        <ele>36.4</ele>
        <time>2017-12-06T08:54:09Z</time>
      </trkpt>
      <trkpt lat="44.83736" lon="-0.7735">
        <ele>36.4</ele>
        <time>2017-12-06T08:54:10Z</time>
      </trkpt>
      <trkpt lat="44.8373" lon="-0.77344">
        <ele>36.5</ele>
        <time>2017-12-06T08:54:11Z</time>
      </trkpt>
      <trkpt lat="44.83726" lon="-0.77339">
        <ele>36.5</ele>
        <time>2017-12-06T08:54:12Z</time>
      </trkpt>
      <trkpt lat="44.8372" lon="-0.77335">
        <ele>36.5</ele>
        <time>2017-12-06T08:54:13Z</time>
      </trkpt>
      <trkpt lat="44.83716" lon="-0.77329">
        <ele>36.6</ele>
        <time>2017-12-06T08:54:14Z</time>
      </trkpt>
      <trkpt lat="44.83712" lon="-0.77324">
        <ele>36.6</ele>
        <time>2017-12-06T08:54:15Z</time>
      </trkpt>
      <trkpt lat="44.83708" lon="-0.7732">
        <ele>36.7</ele>
        <time>2017-12-06T08:54:16Z</time>
      </trkpt>
      <trkpt lat="44.83705" lon="-0.77315">
        <ele>36.8</ele>
        <time>2017-12-06T08:54:17Z</time>
      </trkpt>
      <trkpt lat="44.83701" lon="-0.7731">
        <ele>37</ele>
        <time>2017-12-06T08:54:18Z</time>
      </trkpt>
      <trkpt lat="44.83698" lon="-0.77305">
        <ele>37.2</ele>
        <time>2017-12-06T08:54:19Z</time>
      </trkpt>
      <trkpt lat="44.83694" lon="-0.77299">
        <ele>37.5</ele>
        <time>2017-12-06T08:54:20Z</time>
      </trkpt>
      <trkpt lat="44.8369" lon="-0.77294">
        <ele>37.9</ele>
        <time>2017-12-06T08:54:21Z</time>
      </trkpt>
      <trkpt lat="44.83687" lon="-0.77289">
        <ele>38.3</ele>
        <time>2017-12-06T08:54:22Z</time>
      </trkpt>
      <trkpt lat="44.83684" lon="-0.77283">
        <ele>38.6</ele>
        <time>2017-12-06T08:54:23Z</time>
      </trkpt>
      <trkpt lat="44.83681" lon="-0.77278">
        <ele>38.9</ele>
        <time>2017-12-06T08:54:24Z</time>
      </trkpt>
      <trkpt lat="44.83678" lon="-0.77272">
        <ele>39.1</ele>
        <time>2017-12-06T08:54:25Z</time>
      </trkpt>
      <trkpt lat="44.83675" lon="-0.77266">
        <ele>39.3</ele>
        <time>2017-12-06T08:54:26Z</time>
      </trkpt>
      <trkpt lat="44.83673" lon="-0.77261">
        <ele>39.5</ele>
        <time>2017-12-06T08:54:27Z</time>
      </trkpt>
      <trkpt lat="44.8367" lon="-0.77255">
        <ele>39.7</ele>
        <time>2017-12-06T08:54:28Z</time>
      </trkpt>
      <trkpt lat="44.83668" lon="-0.7725">
        <ele>40</ele>
        <time>2017-12-06T08:54:29Z</time>
      </trkpt>
      <trkpt lat="44.83666" lon="-0.77244">
        <ele>40.4</ele>
        <time>2017-12-06T08:54:30Z</time>
      </trkpt>
      <trkpt lat="44.83663" lon="-0.77237">
        <ele>40.8</ele>
        <time>2017-12-06T08:54:31Z</time>
      </trkpt>
      <trkpt lat="44.8366" lon="-0.77232">
        <ele>41.1</ele>
        <time>2017-12-06T08:54:32Z</time>
      </trkpt>
      <trkpt lat="44.83658" lon="-0.77226">
        <ele>41.4</ele>
        <time>2017-12-06T08:54:33Z</time>
      </trkpt>
      <trkpt lat="44.83655" lon="-0.7722">
        <ele>41.6</ele>
        <time>2017-12-06T08:54:34Z</time>
      </trkpt>
      <trkpt lat="44.83653" lon="-0.77214">
        <ele>41.8</ele>
        <time>2017-12-06T08:54:35Z</time>
      </trkpt>
      <trkpt lat="44.83651" lon="-0.77208">
        <ele>41.9</ele>
        <time>2017-12-06T08:54:36Z</time>
      </trkpt>
      <trkpt lat="44.83649" lon="-0.77202">
        <ele>41.9</ele>
        <time>2017-12-06T08:54:37Z</time>
      </trkpt>
      <trkpt lat="44.83646" lon="-0.77195">
        <ele>42</ele>
        <time>2017-12-06T08:54:38Z</time>
      </trkpt>
      <trkpt lat="44.83643" lon="-0.77189">
        <ele>42</ele>
        <time>2017-12-06T08:54:39Z</time>
      </trkpt>
      <trkpt lat="44.8364" lon="-0.77183">
        <ele>42.1</ele>
        <time>2017-12-06T08:54:40Z</time>
      </trkpt>
      <trkpt lat="44.83637" lon="-0.77177">
        <ele>42.1</ele>
        <time>2017-12-06T08:54:41Z</time>
      </trkpt>
      <trkpt lat="44.83635" lon="-0.7717">
        <ele>42.2</ele>
        <time>2017-12-06T08:54:42Z</time>
      </trkpt>
      <trkpt lat="44.83632" lon="-0.77164">
        <ele>42.2</ele>
        <time>2017-12-06T08:54:43Z</time>
      </trkpt>
      <trkpt lat="44.8363" lon="-0.77158">
        <ele>42.3</ele>
        <time>2017-12-06T08:54:44Z</time>
      </trkpt>
      <trkpt lat="44.83627" lon="-0.77152">
        <ele>42.3</ele>
        <time>2017-12-06T08:54:45Z</time>
      </trkpt>
      <trkpt lat="44.83624" lon="-0.77146">
        <ele>42.4</ele>
        <time>2017-12-06T08:54:46Z</time>
      </trkpt>
      <trkpt lat="44.83622" lon="-0.7714">
        <ele>42.4</ele>
        <time>2017-12-06T08:54:47Z</time>
      </trkpt>
      <trkpt lat="44.83619" lon="-0.77134">
        <ele>42.5</ele>
        <time>2017-12-06T08:54:48Z</time>
      </trkpt>
      <trkpt lat="44.83616" lon="-0.77128">
        <ele>42.5</ele>
        <time>2017-12-06T08:54:49Z</time>
      </trkpt>
      <trkpt lat="44.83613" lon="-0.77121">
        <ele>42.6</ele>
        <time>2017-12-06T08:54:50Z</time>
      </trkpt>
      <trkpt lat="44.83611" lon="-0.77115">
        <ele>42.6</ele>
        <time>2017-12-06T08:54:51Z</time>
      </trkpt>
      <trkpt lat="44.83608" lon="-0.77109">
        <ele>42.7</ele>
        <time>2017-12-06T08:54:52Z</time>
      </trkpt>
      <trkpt lat="44.83605" lon="-0.77103">
        <ele>42.7</ele>
        <time>2017-12-06T08:54:53Z</time>
      </trkpt>
      <trkpt lat="44.83602" lon="-0.77096">
        <ele>42.7</ele>
        <time>2017-12-06T08:54:54Z</time>
      </trkpt>
      <trkpt lat="44.836" lon="-0.7709">
        <ele>42.8</ele>
        <time>2017-12-06T08:54:55Z</time>
      </trkpt>
      <trkpt lat="44.83597" lon="-0.77083">
        <ele>42.8</ele>
        <time>2017-12-06T08:54:56Z</time>
      </trkpt>
      <trkpt lat="44.83594" lon="-0.77077">
        <ele>42.9</ele>
        <time>2017-12-06T08:54:57Z</time>
      </trkpt>
      <trkpt lat="44.83589" lon="-0.77073">
        <ele>42.9</ele>
        <time>2017-12-06T08:54:58Z</time>
      </trkpt>
      <trkpt lat="44.83585" lon="-0.77068">
        <ele>42.9</ele>
        <time>2017-12-06T08:54:59Z</time>
      </trkpt>
      <trkpt lat="44.83581" lon="-0.77062">
        <ele>43</ele>
        <time>2017-12-06T08:55:00Z</time>
      </trkpt>
      <trkpt lat="44.83579" lon="-0.77056">
        <ele>43</ele>
        <time>2017-12-06T08:55:01Z</time>
      </trkpt>
      <trkpt lat="44.83576" lon="-0.7705">
        <ele>43.1</ele>
        <time>2017-12-06T08:55:02Z</time>
      </trkpt>
      <trkpt lat="44.83573" lon="-0.77044">
        <ele>43.1</ele>
        <time>2017-12-06T08:55:03Z</time>
      </trkpt>
      <trkpt lat="44.83571" lon="-0.77038">
        <ele>43.1</ele>
        <time>2017-12-06T08:55:04Z</time>
      </trkpt>
      <trkpt lat="44.83568" lon="-0.77032">
        <ele>43.2</ele>
        <time>2017-12-06T08:55:05Z</time>
      </trkpt>
      <trkpt lat="44.83566" lon="-0.77025">
        <ele>43.2</ele>
        <time>2017-12-06T08:55:06Z</time>
      </trkpt>
      <trkpt lat="44.83563" lon="-0.77019">
        <ele>43.3</ele>
        <time>2017-12-06T08:55:07Z</time>
      </trkpt>
      <trkpt lat="44.8356" lon="-0.77013">
        <ele>43.3</ele>
        <time>2017-12-06T08:55:08Z</time>
      </trkpt>
      <trkpt lat="44.83558" lon="-0.77007">
        <ele>43.4</ele>
        <time>2017-12-06T08:55:09Z</time>
      </trkpt>
      <trkpt lat="44.83555" lon="-0.77001">
        <ele>43.4</ele>
        <time>2017-12-06T08:55:10Z</time>
      </trkpt>
      <trkpt lat="44.83553" lon="-0.76994">
        <ele>43.5</ele>
        <time>2017-12-06T08:55:11Z</time>
      </trkpt>
      <trkpt lat="44.83552" lon="-0.76988">
        <ele>43.6</ele>
        <time>2017-12-06T08:55:12Z</time>
      </trkpt>
      <trkpt lat="44.8355" lon="-0.76982">
        <ele>43.8</ele>
        <time>2017-12-06T08:55:13Z</time>
      </trkpt>
      <trkpt lat="44.83548" lon="-0.76977">
        <ele>43.9</ele>
        <time>2017-12-06T08:55:14Z</time>
      </trkpt>
      <trkpt lat="44.83546" lon="-0.76973">
        <ele>44</ele>
        <time>2017-12-06T08:55:15Z</time>
      </trkpt>
      <trkpt lat="44.83544" lon="-0.7697">
        <ele>43.9</ele>
        <time>2017-12-06T08:55:16Z</time>
      </trkpt>
      <trkpt lat="44.83539" lon="-0.76971">
        <ele>43.9</ele>
        <time>2017-12-06T08:55:18Z</time>
      </trkpt>
      <trkpt lat="44.83536" lon="-0.76973">
        <ele>43.8</ele>
        <time>2017-12-06T08:55:19Z</time>
      </trkpt>
      <trkpt lat="44.83533" lon="-0.76976">
        <ele>43.8</ele>
        <time>2017-12-06T08:55:20Z</time>
      </trkpt>
      <trkpt lat="44.8353" lon="-0.76979">
        <ele>43.7</ele>
        <time>2017-12-06T08:55:21Z</time>
      </trkpt>
      <trkpt lat="44.83527" lon="-0.76982">
        <ele>43.7</ele>
        <time>2017-12-06T08:55:22Z</time>
      </trkpt>
      <trkpt lat="44.83524" lon="-0.76986">
        <ele>43.7</ele>
        <time>2017-12-06T08:55:23Z</time>
      </trkpt>
      <trkpt lat="44.83521" lon="-0.76989">
        <ele>43.6</ele>
        <time>2017-12-06T08:55:24Z</time>
      </trkpt>
      <trkpt lat="44.83517" lon="-0.76992">
        <ele>43.6</ele>
        <time>2017-12-06T08:55:25Z</time>
      </trkpt>
      <trkpt lat="44.83513" lon="-0.76994">
        <ele>43.5</ele>
        <time>2017-12-06T08:55:26Z</time>
      </trkpt>
      <trkpt lat="44.8351" lon="-0.76998">
        <ele>43.5</ele>
        <time>2017-12-06T08:55:27Z</time>
      </trkpt>
      <trkpt lat="44.83507" lon="-0.77002">
        <ele>43.4</ele>
        <time>2017-12-06T08:55:28Z</time>
      </trkpt>
      <trkpt lat="44.83505" lon="-0.77008">
        <ele>43.3</ele>
        <time>2017-12-06T08:55:29Z</time>
      </trkpt>
      <trkpt lat="44.83501" lon="-0.77013">
        <ele>43.2</ele>
        <time>2017-12-06T08:55:30Z</time>
      </trkpt>
      <trkpt lat="44.835" lon="-0.77018">
        <ele>43.2</ele>
        <time>2017-12-06T08:55:32Z</time>
      </trkpt>
      <trkpt lat="44.83498" lon="-0.77024">
        <ele>43.1</ele>
        <time>2017-12-06T08:55:34Z</time>
      </trkpt>
      <trkpt lat="44.83496" lon="-0.77028">
        <ele>43.1</ele>
        <time>2017-12-06T08:55:35Z</time>
      </trkpt>
      <trkpt lat="44.83494" lon="-0.77031">
        <ele>43.1</ele>
        <time>2017-12-06T08:55:36Z</time>
      </trkpt>
      <trkpt lat="44.83493" lon="-0.77036">
        <ele>43.1</ele>
        <time>2017-12-06T08:55:37Z</time>
      </trkpt>
      <trkpt lat="44.8349" lon="-0.77039">
        <ele>43.1</ele>
        <time>2017-12-06T08:55:38Z</time>
      </trkpt>
      <trkpt lat="44.83486" lon="-0.77043">
        <ele>43</ele>
        <time>2017-12-06T08:55:39Z</time>
      </trkpt>
      <trkpt lat="44.83483" lon="-0.77048">
        <ele>43</ele>
        <time>2017-12-06T08:55:40Z</time>
      </trkpt>
      <trkpt lat="44.83479" lon="-0.77053">
        <ele>43</ele>
        <time>2017-12-06T08:55:41Z</time>
      </trkpt>
      <trkpt lat="44.83474" lon="-0.77057">
        <ele>42.9</ele>
        <time>2017-12-06T08:55:42Z</time>
      </trkpt>
      <trkpt lat="44.8347" lon="-0.77061">
        <ele>42.9</ele>
        <time>2017-12-06T08:55:43Z</time>
      </trkpt>
      <trkpt lat="44.83465" lon="-0.77066">
        <ele>42.8</ele>
        <time>2017-12-06T08:55:44Z</time>
      </trkpt>
      <trkpt lat="44.83461" lon="-0.77068">
        <ele>42.8</ele>
        <time>2017-12-06T08:55:45Z</time>
      </trkpt>
      <trkpt lat="44.83456" lon="-0.7707">
        <ele>42.8</ele>
        <time>2017-12-06T08:55:46Z</time>
      </trkpt>
      <trkpt lat="44.83452" lon="-0.7707">
        <ele>42.7</ele>
        <time>2017-12-06T08:55:47Z</time>
      </trkpt>
      <trkpt lat="44.83447" lon="-0.77072">
        <ele>42.6</ele>
        <time>2017-12-06T08:55:48Z</time>
      </trkpt>
      <trkpt lat="44.83443" lon="-0.77076">
        <ele>42.6</ele>
        <time>2017-12-06T08:55:49Z</time>
      </trkpt>
      <trkpt lat="44.83437" lon="-0.77081">
        <ele>42.5</ele>
        <time>2017-12-06T08:55:50Z</time>
      </trkpt>
      <trkpt lat="44.83431" lon="-0.77086">
        <ele>42.5</ele>
        <time>2017-12-06T08:55:51Z</time>
      </trkpt>
      <trkpt lat="44.83426" lon="-0.77089">
        <ele>42.4</ele>
        <time>2017-12-06T08:55:52Z</time>
      </trkpt>
      <trkpt lat="44.83422" lon="-0.77092">
        <ele>42.4</ele>
        <time>2017-12-06T08:55:53Z</time>
      </trkpt>
      <trkpt lat="44.83417" lon="-0.77095">
        <ele>42.3</ele>
        <time>2017-12-06T08:55:54Z</time>
      </trkpt>
      <trkpt lat="44.83413" lon="-0.77097">
        <ele>42.3</ele>
        <time>2017-12-06T08:55:55Z</time>
      </trkpt>
      <trkpt lat="44.8341" lon="-0.771">
        <ele>42.3</ele>
        <time>2017-12-06T08:55:56Z</time>
      </trkpt>
      <trkpt lat="44.83408" lon="-0.77103">
        <ele>42.3</ele>
        <time>2017-12-06T08:55:57Z</time>
      </trkpt>
      <trkpt lat="44.83406" lon="-0.77109">
        <ele>42.2</ele>
        <time>2017-12-06T08:55:58Z</time>
      </trkpt>
      <trkpt lat="44.83401" lon="-0.77114">
        <ele>42.2</ele>
        <time>2017-12-06T08:55:59Z</time>
      </trkpt>
      <trkpt lat="44.83398" lon="-0.77117">
        <ele>42.2</ele>
        <time>2017-12-06T08:56:00Z</time>
      </trkpt>
      <trkpt lat="44.83393" lon="-0.7712">
        <ele>42.1</ele>
        <time>2017-12-06T08:56:01Z</time>
      </trkpt>
      <trkpt lat="44.8339" lon="-0.77122">
        <ele>42.1</ele>
        <time>2017-12-06T08:56:02Z</time>
      </trkpt>
      <trkpt lat="44.83385" lon="-0.77124">
        <ele>42</ele>
        <time>2017-12-06T08:56:03Z</time>
      </trkpt>
      <trkpt lat="44.8338" lon="-0.77126">
        <ele>42</ele>
        <time>2017-12-06T08:56:04Z</time>
      </trkpt>
      <trkpt lat="44.83374" lon="-0.77128">
        <ele>41.9</ele>
        <time>2017-12-06T08:56:05Z</time>
      </trkpt>
      <trkpt lat="44.83369" lon="-0.77132">
        <ele>41.9</ele>
        <time>2017-12-06T08:56:06Z</time>
      </trkpt>
      <trkpt lat="44.83365" lon="-0.77136">
        <ele>41.8</ele>
        <time>2017-12-06T08:56:07Z</time>
      </trkpt>
      <trkpt lat="44.8336" lon="-0.77142">
        <ele>41.8</ele>
        <time>2017-12-06T08:56:08Z</time>
      </trkpt>
      <trkpt lat="44.83356" lon="-0.77146">
        <ele>41.7</ele>
        <time>2017-12-06T08:56:09Z</time>
      </trkpt>
      <trkpt lat="44.83353" lon="-0.7715">
        <ele>41.7</ele>
        <time>2017-12-06T08:56:10Z</time>
      </trkpt>
      <trkpt lat="44.8335" lon="-0.77154">
        <ele>41.6</ele>
        <time>2017-12-06T08:56:11Z</time>
      </trkpt>
      <trkpt lat="44.83345" lon="-0.77158">
        <ele>41.6</ele>
        <time>2017-12-06T08:56:12Z</time>
      </trkpt>
      <trkpt lat="44.83342" lon="-0.77161">
        <ele>41.6</ele>
        <time>2017-12-06T08:56:13Z</time>
      </trkpt>
      <trkpt lat="44.83339" lon="-0.77166">
        <ele>41.5</ele>
        <time>2017-12-06T08:56:14Z</time>
      </trkpt>
      <trkpt lat="44.83337" lon="-0.77172">
        <ele>41.5</ele>
        <time>2017-12-06T08:56:15Z</time>
      </trkpt>
      <trkpt lat="44.83335" lon="-0.77177">
        <ele>41.4</ele>
        <time>2017-12-06T08:56:16Z</time>
      </trkpt>
      <trkpt lat="44.83334" lon="-0.77183">
        <ele>41.3</ele>
        <time>2017-12-06T08:56:17Z</time>
      </trkpt>
      <trkpt lat="44.83331" lon="-0.77188">
        <ele>41.3</ele>
        <time>2017-12-06T08:56:18Z</time>
      </trkpt>
      <trkpt lat="44.83328" lon="-0.77192">
        <ele>41.2</ele>
        <time>2017-12-06T08:56:19Z</time>
      </trkpt>
      <trkpt lat="44.83325" lon="-0.77197">
        <ele>41.2</ele>
        <time>2017-12-06T08:56:20Z</time>
      </trkpt>
      <trkpt lat="44.83323" lon="-0.77202">
        <ele>41.2</ele>
        <time>2017-12-06T08:56:21Z</time>
      </trkpt>
      <trkpt lat="44.83327" lon="-0.77207">
        <ele>40.9</ele>
        <time>2017-12-06T08:56:22Z</time>
      </trkpt>
      <trkpt lat="44.8333" lon="-0.77212">
        <ele>40.8</ele>
        <time>2017-12-06T08:56:23Z</time>
      </trkpt>
      <trkpt lat="44.83334" lon="-0.77217">
        <ele>40.6</ele>
        <time>2017-12-06T08:56:24Z</time>
      </trkpt>
      <trkpt lat="44.83337" lon="-0.77224">
        <ele>40.3</ele>
        <time>2017-12-06T08:56:25Z</time>
      </trkpt>
      <trkpt lat="44.8334" lon="-0.77231">
        <ele>40</ele>
        <time>2017-12-06T08:56:26Z</time>
      </trkpt>
      <trkpt lat="44.83342" lon="-0.77238">
        <ele>39.7</ele>
        <time>2017-12-06T08:56:27Z</time>
      </trkpt>
      <trkpt lat="44.83345" lon="-0.77244">
        <ele>39.5</ele>
        <time>2017-12-06T08:56:28Z</time>
      </trkpt>
      <trkpt lat="44.83341" lon="-0.77246">
        <ele>40</ele>
        <time>2017-12-06T08:56:29Z</time>
      </trkpt>
      <trkpt lat="44.83337" lon="-0.77246">
        <ele>40.3</ele>
        <time>2017-12-06T08:56:31Z</time>
      </trkpt>
      <trkpt lat="44.83333" lon="-0.77245">
        <ele>40.7</ele>
        <time>2017-12-06T08:56:33Z</time>
      </trkpt>
      <trkpt lat="44.83329" lon="-0.77247">
        <ele>41.2</ele>
        <time>2017-12-06T08:56:34Z</time>
      </trkpt>
      <trkpt lat="44.83325" lon="-0.77247">
        <ele>41.4</ele>
        <time>2017-12-06T08:56:35Z</time>
      </trkpt>
      <trkpt lat="44.83321" lon="-0.77247">
        <ele>41.6</ele>
        <time>2017-12-06T08:56:36Z</time>
      </trkpt>
      <trkpt lat="44.83316" lon="-0.77247">
        <ele>41.9</ele>
        <time>2017-12-06T08:56:37Z</time>
      </trkpt>
      <trkpt lat="44.83313" lon="-0.77245">
        <ele>42</ele>
        <time>2017-12-06T08:56:38Z</time>
      </trkpt>
      <trkpt lat="44.83311" lon="-0.77242">
        <ele>42.2</ele>
        <time>2017-12-06T08:56:39Z</time>
      </trkpt>
      <trkpt lat="44.83308" lon="-0.77241">
        <ele>42.4</ele>
        <time>2017-12-06T08:56:40Z</time>
      </trkpt>
      <trkpt lat="44.83305" lon="-0.77242">
        <ele>42.4</ele>
        <time>2017-12-06T08:56:41Z</time>
      </trkpt>
      <trkpt lat="44.83302" lon="-0.77246">
        <ele>42.4</ele>
        <time>2017-12-06T08:56:42Z</time>
      </trkpt>
      <trkpt lat="44.83298" lon="-0.77248">
        <ele>42.3</ele>
        <time>2017-12-06T08:56:43Z</time>
      </trkpt>
      <trkpt lat="44.83294" lon="-0.77252">
        <ele>42.2</ele>
        <time>2017-12-06T08:56:44Z</time>
      </trkpt>
      <trkpt lat="44.8329" lon="-0.77254">
        <ele>42.2</ele>
        <time>2017-12-06T08:56:45Z</time>
      </trkpt>
      <trkpt lat="44.83286" lon="-0.77256">
        <ele>42.2</ele>
        <time>2017-12-06T08:56:46Z</time>
      </trkpt>
      <trkpt lat="44.83283" lon="-0.77259">
        <ele>42.1</ele>
        <time>2017-12-06T08:56:47Z</time>
      </trkpt>
      <trkpt lat="44.83279" lon="-0.77261">
        <ele>42</ele>
        <time>2017-12-06T08:56:48Z</time>
      </trkpt>
      <trkpt lat="44.83276" lon="-0.77264">
        <ele>42</ele>
        <time>2017-12-06T08:56:49Z</time>
      </trkpt>
      <trkpt lat="44.83273" lon="-0.77266">
        <ele>41.9</ele>
        <time>2017-12-06T08:56:50Z</time>
      </trkpt>
      <trkpt lat="44.83268" lon="-0.77267">
        <ele>41.9</ele>
        <time>2017-12-06T08:56:51Z</time>
      </trkpt>
      <trkpt lat="44.83265" lon="-0.77269">
        <ele>41.8</ele>
        <time>2017-12-06T08:56:52Z</time>
      </trkpt>
      <trkpt lat="44.8326" lon="-0.7727">
        <ele>41.7</ele>
        <time>2017-12-06T08:56:53Z</time>
      </trkpt>
      <trkpt lat="44.83256" lon="-0.77272">
        <ele>41.5</ele>
        <time>2017-12-06T08:56:54Z</time>
      </trkpt>
      <trkpt lat="44.83252" lon="-0.77274">
        <ele>41.3</ele>
        <time>2017-12-06T08:56:55Z</time>
      </trkpt>
      <trkpt lat="44.83248" lon="-0.77276">
        <ele>41.2</ele>
        <time>2017-12-06T08:56:56Z</time>
      </trkpt>
      <trkpt lat="44.83244" lon="-0.77279">
        <ele>40.7</ele>
        <time>2017-12-06T08:56:57Z</time>
      </trkpt>
      <trkpt lat="44.83239" lon="-0.7728">
        <ele>40.6</ele>
        <time>2017-12-06T08:56:58Z</time>
      </trkpt>
      <trkpt lat="44.83234" lon="-0.77281">
        <ele>40.3</ele>
        <time>2017-12-06T08:56:59Z</time>
      </trkpt>
      <trkpt lat="44.8323" lon="-0.77281">
        <ele>40.2</ele>
        <time>2017-12-06T08:57:00Z</time>
      </trkpt>
      <trkpt lat="44.83225" lon="-0.77281">
        <ele>39.8</ele>
        <time>2017-12-06T08:57:01Z</time>
      </trkpt>
      <trkpt lat="44.8322" lon="-0.77282">
        <ele>39.6</ele>
        <time>2017-12-06T08:57:02Z</time>
      </trkpt>
      <trkpt lat="44.83215" lon="-0.77283">
        <ele>39.2</ele>
        <time>2017-12-06T08:57:03Z</time>
      </trkpt>
      <trkpt lat="44.83211" lon="-0.77284">
        <ele>39.1</ele>
        <time>2017-12-06T08:57:04Z</time>
      </trkpt>
      <trkpt lat="44.83207" lon="-0.77284">
        <ele>38.8</ele>
        <time>2017-12-06T08:57:05Z</time>
      </trkpt>
      <trkpt lat="44.83203" lon="-0.77286">
        <ele>38.7</ele>
        <time>2017-12-06T08:57:06Z</time>
      </trkpt>
      <trkpt lat="44.83201" lon="-0.77288">
        <ele>38.6</ele>
        <time>2017-12-06T08:57:07Z</time>
      </trkpt>
      <trkpt lat="44.83197" lon="-0.7729">
        <ele>38.6</ele>
        <time>2017-12-06T08:57:08Z</time>
      </trkpt>
      <trkpt lat="44.83194" lon="-0.77292">
        <ele>38.5</ele>
        <time>2017-12-06T08:57:09Z</time>
      </trkpt>
      <trkpt lat="44.83192" lon="-0.77296">
        <ele>38.4</ele>
        <time>2017-12-06T08:57:10Z</time>
      </trkpt>
      <trkpt lat="44.83189" lon="-0.773">
        <ele>38.3</ele>
        <time>2017-12-06T08:57:11Z</time>
      </trkpt>
      <trkpt lat="44.83187" lon="-0.77303">
        <ele>38.4</ele>
        <time>2017-12-06T08:57:12Z</time>
      </trkpt>
      <trkpt lat="44.83184" lon="-0.77306">
        <ele>38.3</ele>
        <time>2017-12-06T08:57:13Z</time>
      </trkpt>
      <trkpt lat="44.83183" lon="-0.7731">
        <ele>38.3</ele>
        <time>2017-12-06T08:57:14Z</time>
      </trkpt>
      <trkpt lat="44.83179" lon="-0.77314">
        <ele>38.3</ele>
        <time>2017-12-06T08:57:15Z</time>
      </trkpt>
      <trkpt lat="44.83173" lon="-0.77317">
        <ele>38.3</ele>
        <time>2017-12-06T08:57:16Z</time>
      </trkpt>
      <trkpt lat="44.83169" lon="-0.77319">
        <ele>38.3</ele>
        <time>2017-12-06T08:57:17Z</time>
      </trkpt>
      <trkpt lat="44.83163" lon="-0.77321">
        <ele>38.4</ele>
        <time>2017-12-06T08:57:18Z</time>
      </trkpt>
      <trkpt lat="44.83159" lon="-0.77324">
        <ele>38.4</ele>
        <time>2017-12-06T08:57:19Z</time>
      </trkpt>
      <trkpt lat="44.83155" lon="-0.77326">
        <ele>38.5</ele>
        <time>2017-12-06T08:57:20Z</time>
      </trkpt>
      <trkpt lat="44.83152" lon="-0.77329">
        <ele>38.5</ele>
        <time>2017-12-06T08:57:21Z</time>
      </trkpt>
      <trkpt lat="44.83149" lon="-0.7733">
        <ele>38.7</ele>
        <time>2017-12-06T08:57:22Z</time>
      </trkpt>
      <trkpt lat="44.83145" lon="-0.77333">
        <ele>38.8</ele>
        <time>2017-12-06T08:57:23Z</time>
      </trkpt>
      <trkpt lat="44.83142" lon="-0.77334">
        <ele>39</ele>
        <time>2017-12-06T08:57:24Z</time>
      </trkpt>
      <trkpt lat="44.83138" lon="-0.77337">
        <ele>39.1</ele>
        <time>2017-12-06T08:57:25Z</time>
      </trkpt>
      <trkpt lat="44.83134" lon="-0.77339">
        <ele>39.4</ele>
        <time>2017-12-06T08:57:26Z</time>
      </trkpt>
      <trkpt lat="44.8313" lon="-0.77341">
        <ele>39.5</ele>
        <time>2017-12-06T08:57:27Z</time>
      </trkpt>
      <trkpt lat="44.83125" lon="-0.77343">
        <ele>39.9</ele>
        <time>2017-12-06T08:57:28Z</time>
      </trkpt>
      <trkpt lat="44.83121" lon="-0.77345">
        <ele>40</ele>
        <time>2017-12-06T08:57:29Z</time>
      </trkpt>
      <trkpt lat="44.83117" lon="-0.77347">
        <ele>40.4</ele>
        <time>2017-12-06T08:57:30Z</time>
      </trkpt>
      <trkpt lat="44.83113" lon="-0.77349">
        <ele>40.5</ele>
        <time>2017-12-06T08:57:31Z</time>
      </trkpt>
      <trkpt lat="44.83109" lon="-0.77352">
        <ele>40.9</ele>
        <time>2017-12-06T08:57:32Z</time>
      </trkpt>
      <trkpt lat="44.83102" lon="-0.77357">
        <ele>41.3</ele>
        <time>2017-12-06T08:57:34Z</time>
      </trkpt>
      <trkpt lat="44.83097" lon="-0.77359">
        <ele>41.3</ele>
        <time>2017-12-06T08:57:35Z</time>
      </trkpt>
      <trkpt lat="44.83093" lon="-0.77361">
        <ele>41.6</ele>
        <time>2017-12-06T08:57:36Z</time>
      </trkpt>
      <trkpt lat="44.83088" lon="-0.77363">
        <ele>41.5</ele>
        <time>2017-12-06T08:57:37Z</time>
      </trkpt>
      <trkpt lat="44.83084" lon="-0.77363">
        <ele>41.6</ele>
        <time>2017-12-06T08:57:38Z</time>
      </trkpt>
      <trkpt lat="44.8308" lon="-0.77363">
        <ele>41.5</ele>
        <time>2017-12-06T08:57:39Z</time>
      </trkpt>
      <trkpt lat="44.83076" lon="-0.77363">
        <ele>41.5</ele>
        <time>2017-12-06T08:57:40Z</time>
      </trkpt>
      <trkpt lat="44.83073" lon="-0.7736">
        <ele>41.5</ele>
        <time>2017-12-06T08:57:42Z</time>
      </trkpt>
      <trkpt lat="44.83072" lon="-0.77352">
        <ele>41.2</ele>
        <time>2017-12-06T08:57:44Z</time>
      </trkpt>
      <trkpt lat="44.83072" lon="-0.77345">
        <ele>40.9</ele>
        <time>2017-12-06T08:57:46Z</time>
      </trkpt>
      <trkpt lat="44.83071" lon="-0.77339">
        <ele>40.8</ele>
        <time>2017-12-06T08:57:48Z</time>
      </trkpt>
      <trkpt lat="44.83071" lon="-0.77332">
        <ele>40.5</ele>
        <time>2017-12-06T08:57:50Z</time>
      </trkpt>
      <trkpt lat="44.83072" lon="-0.77328">
        <ele>40.4</ele>
        <time>2017-12-06T08:57:51Z</time>
      </trkpt>
      <trkpt lat="44.83072" lon="-0.77324">
        <ele>40.3</ele>
        <time>2017-12-06T08:57:52Z</time>
      </trkpt>
      <trkpt lat="44.83073" lon="-0.77317">
        <ele>40.2</ele>
        <time>2017-12-06T08:57:54Z</time>
      </trkpt>
      <trkpt lat="44.83073" lon="-0.77309">
        <ele>40.2</ele>
        <time>2017-12-06T08:57:56Z</time>
      </trkpt>
      <trkpt lat="44.83073" lon="-0.77305">
        <ele>40.2</ele>
        <time>2017-12-06T08:57:57Z</time>
      </trkpt>
      <trkpt lat="44.83074" lon="-0.77301">
        <ele>40.2</ele>
        <time>2017-12-06T08:57:58Z</time>
      </trkpt>
      <trkpt lat="44.83074" lon="-0.77295">
        <ele>40.2</ele>
        <time>2017-12-06T08:58:00Z</time>
      </trkpt>
      <trkpt lat="44.83075" lon="-0.77289">
        <ele>40.3</ele>
        <time>2017-12-06T08:58:02Z</time>
      </trkpt>
      <trkpt lat="44.83076" lon="-0.77285">
        <ele>40.3</ele>
        <time>2017-12-06T08:58:03Z</time>
      </trkpt>
      <trkpt lat="44.83077" lon="-0.77281">
        <ele>40.3</ele>
        <time>2017-12-06T08:58:04Z</time>
      </trkpt>
      <trkpt lat="44.83078" lon="-0.77277">
        <ele>40.4</ele>
        <time>2017-12-06T08:58:05Z</time>
      </trkpt>
      <trkpt lat="44.83079" lon="-0.77273">
        <ele>40.4</ele>
        <time>2017-12-06T08:58:06Z</time>
      </trkpt>
      <trkpt lat="44.8308" lon="-0.77268">
        <ele>40.4</ele>
        <time>2017-12-06T08:58:07Z</time>
      </trkpt>
      <trkpt lat="44.83081" lon="-0.77263">
        <ele>40.4</ele>
        <time>2017-12-06T08:58:08Z</time>
      </trkpt>
      <trkpt lat="44.83082" lon="-0.77258">
        <ele>40.4</ele>
        <time>2017-12-06T08:58:09Z</time>
      </trkpt>
      <trkpt lat="44.83083" lon="-0.77254">
        <ele>40.4</ele>
        <time>2017-12-06T08:58:10Z</time>
      </trkpt>
      <trkpt lat="44.83084" lon="-0.77249">
        <ele>40.4</ele>
        <time>2017-12-06T08:58:11Z</time>
      </trkpt>
      <trkpt lat="44.83086" lon="-0.77244">
        <ele>40.5</ele>
        <time>2017-12-06T08:58:12Z</time>
      </trkpt>
      <trkpt lat="44.83087" lon="-0.7724">
        <ele>40.5</ele>
        <time>2017-12-06T08:58:13Z</time>
      </trkpt>
      <trkpt lat="44.83088" lon="-0.77235">
        <ele>40.5</ele>
        <time>2017-12-06T08:58:14Z</time>
      </trkpt>
      <trkpt lat="44.8309" lon="-0.7723">
        <ele>40.5</ele>
        <time>2017-12-06T08:58:15Z</time>
      </trkpt>
      <trkpt lat="44.83091" lon="-0.77223">
        <ele>40.5</ele>
        <time>2017-12-06T08:58:16Z</time>
      </trkpt>
      <trkpt lat="44.83092" lon="-0.77217">
        <ele>40.5</ele>
        <time>2017-12-06T08:58:17Z</time>
      </trkpt>
      <trkpt lat="44.83094" lon="-0.77211">
        <ele>40.6</ele>
        <time>2017-12-06T08:58:18Z</time>
      </trkpt>
      <trkpt lat="44.83096" lon="-0.77206">
        <ele>40.6</ele>
        <time>2017-12-06T08:58:19Z</time>
      </trkpt>
      <trkpt lat="44.83097" lon="-0.772">
        <ele>40.6</ele>
        <time>2017-12-06T08:58:20Z</time>
      </trkpt>
      <trkpt lat="44.83098" lon="-0.77195">
        <ele>40.6</ele>
        <time>2017-12-06T08:58:21Z</time>
      </trkpt>
      <trkpt lat="44.83099" lon="-0.77189">
        <ele>40.6</ele>
        <time>2017-12-06T08:58:22Z</time>
      </trkpt>
      <trkpt lat="44.83101" lon="-0.77184">
        <ele>40.6</ele>
        <time>2017-12-06T08:58:23Z</time>
      </trkpt>
      <trkpt lat="44.83102" lon="-0.77178">
        <ele>40.7</ele>
        <time>2017-12-06T08:58:24Z</time>
      </trkpt>
      <trkpt lat="44.83103" lon="-0.77173">
        <ele>40.7</ele>
        <time>2017-12-06T08:58:25Z</time>
      </trkpt>
      <trkpt lat="44.83104" lon="-0.77167">
        <ele>40.7</ele>
        <time>2017-12-06T08:58:26Z</time>
      </trkpt>
      <trkpt lat="44.83106" lon="-0.77163">
        <ele>40.7</ele>
        <time>2017-12-06T08:58:27Z</time>
      </trkpt>
      <trkpt lat="44.83107" lon="-0.77159">
        <ele>40.7</ele>
        <time>2017-12-06T08:58:28Z</time>
      </trkpt>
      <trkpt lat="44.83108" lon="-0.77154">
        <ele>40.7</ele>
        <time>2017-12-06T08:58:29Z</time>
      </trkpt>
      <trkpt lat="44.8311" lon="-0.77149">
        <ele>40.8</ele>
        <time>2017-12-06T08:58:30Z</time>
      </trkpt>
      <trkpt lat="44.8311" lon="-0.77144">
        <ele>40.8</ele>
        <time>2017-12-06T08:58:31Z</time>
      </trkpt>
      <trkpt lat="44.83112" lon="-0.77139">
        <ele>40.8</ele>
        <time>2017-12-06T08:58:32Z</time>
      </trkpt>
      <trkpt lat="44.83114" lon="-0.77135">
        <ele>40.8</ele>
        <time>2017-12-06T08:58:33Z</time>
      </trkpt>
      <trkpt lat="44.83115" lon="-0.7713">
        <ele>40.8</ele>
        <time>2017-12-06T08:58:34Z</time>
      </trkpt>
      <trkpt lat="44.83115" lon="-0.77125">
        <ele>40.8</ele>
        <time>2017-12-06T08:58:35Z</time>
      </trkpt>
      <trkpt lat="44.83117" lon="-0.77118">
        <ele>40.9</ele>
        <time>2017-12-06T08:58:37Z</time>
      </trkpt>
      <trkpt lat="44.83118" lon="-0.77114">
        <ele>40.9</ele>
        <time>2017-12-06T08:58:38Z</time>
      </trkpt>
      <trkpt lat="44.8312" lon="-0.7711">
        <ele>40.9</ele>
        <time>2017-12-06T08:58:39Z</time>
      </trkpt>
      <trkpt lat="44.83121" lon="-0.77105">
        <ele>40.9</ele>
        <time>2017-12-06T08:58:40Z</time>
      </trkpt>
      <trkpt lat="44.83123" lon="-0.771">
        <ele>40.9</ele>
        <time>2017-12-06T08:58:41Z</time>
      </trkpt>
      <trkpt lat="44.83124" lon="-0.77095">
        <ele>40.9</ele>
        <time>2017-12-06T08:58:42Z</time>
      </trkpt>
      <trkpt lat="44.83126" lon="-0.7709">
        <ele>41</ele>
        <time>2017-12-06T08:58:43Z</time>
      </trkpt>
      <trkpt lat="44.83127" lon="-0.77085">
        <ele>41</ele>
        <time>2017-12-06T08:58:44Z</time>
      </trkpt>
      <trkpt lat="44.83129" lon="-0.77079">
        <ele>41</ele>
        <time>2017-12-06T08:58:45Z</time>
      </trkpt>
      <trkpt lat="44.8313" lon="-0.77074">
        <ele>41</ele>
        <time>2017-12-06T08:58:46Z</time>
      </trkpt>
      <trkpt lat="44.83132" lon="-0.77068">
        <ele>41</ele>
        <time>2017-12-06T08:58:47Z</time>
      </trkpt>
      <trkpt lat="44.83133" lon="-0.77062">
        <ele>41.1</ele>
        <time>2017-12-06T08:58:48Z</time>
      </trkpt>
      <trkpt lat="44.83135" lon="-0.77056">
        <ele>41.1</ele>
        <time>2017-12-06T08:58:49Z</time>
      </trkpt>
      <trkpt lat="44.83137" lon="-0.77051">
        <ele>41.1</ele>
        <time>2017-12-06T08:58:50Z</time>
      </trkpt>
      <trkpt lat="44.83138" lon="-0.77045">
        <ele>41.1</ele>
        <time>2017-12-06T08:58:51Z</time>
      </trkpt>
      <trkpt lat="44.8314" lon="-0.77039">
        <ele>41.2</ele>
        <time>2017-12-06T08:58:52Z</time>
      </trkpt>
      <trkpt lat="44.83142" lon="-0.77034">
        <ele>41.2</ele>
        <time>2017-12-06T08:58:53Z</time>
      </trkpt>
      <trkpt lat="44.83143" lon="-0.77028">
        <ele>41.2</ele>
        <time>2017-12-06T08:58:54Z</time>
      </trkpt>
      <trkpt lat="44.83144" lon="-0.77022">
        <ele>41.3</ele>
        <time>2017-12-06T08:58:55Z</time>
      </trkpt>
      <trkpt lat="44.83146" lon="-0.77017">
        <ele>41.3</ele>
        <time>2017-12-06T08:58:56Z</time>
      </trkpt>
      <trkpt lat="44.83148" lon="-0.77011">
        <ele>41.3</ele>
        <time>2017-12-06T08:58:57Z</time>
      </trkpt>
      <trkpt lat="44.8315" lon="-0.77006">
        <ele>41.4</ele>
        <time>2017-12-06T08:58:58Z</time>
      </trkpt>
      <trkpt lat="44.83152" lon="-0.77">
        <ele>41.4</ele>
        <time>2017-12-06T08:58:59Z</time>
      </trkpt>
      <trkpt lat="44.83154" lon="-0.76993">
        <ele>41.4</ele>
        <time>2017-12-06T08:59:00Z</time>
      </trkpt>
      <trkpt lat="44.83156" lon="-0.76988">
        <ele>41.5</ele>
        <time>2017-12-06T08:59:01Z</time>
      </trkpt>
      <trkpt lat="44.83158" lon="-0.76981">
        <ele>41.5</ele>
        <time>2017-12-06T08:59:02Z</time>
      </trkpt>
      <trkpt lat="44.8316" lon="-0.76975">
        <ele>41.6</ele>
        <time>2017-12-06T08:59:03Z</time>
      </trkpt>
      <trkpt lat="44.83162" lon="-0.76969">
        <ele>41.6</ele>
        <time>2017-12-06T08:59:04Z</time>
      </trkpt>
      <trkpt lat="44.83164" lon="-0.76962">
        <ele>41.6</ele>
        <time>2017-12-06T08:59:05Z</time>
      </trkpt>
      <trkpt lat="44.83167" lon="-0.76956">
        <ele>41.8</ele>
        <time>2017-12-06T08:59:06Z</time>
      </trkpt>
      <trkpt lat="44.83169" lon="-0.7695">
        <ele>42.1</ele>
        <time>2017-12-06T08:59:07Z</time>
      </trkpt>
      <trkpt lat="44.83171" lon="-0.76944">
        <ele>42.3</ele>
        <time>2017-12-06T08:59:08Z</time>
      </trkpt>
      <trkpt lat="44.83173" lon="-0.76938">
        <ele>42.7</ele>
        <time>2017-12-06T08:59:09Z</time>
      </trkpt>
      <trkpt lat="44.83175" lon="-0.76933">
        <ele>42.9</ele>
        <time>2017-12-06T08:59:10Z</time>
      </trkpt>
      <trkpt lat="44.83177" lon="-0.76927">
        <ele>43.3</ele>
        <time>2017-12-06T08:59:11Z</time>
      </trkpt>
      <trkpt lat="44.83179" lon="-0.76921">
        <ele>43.6</ele>
        <time>2017-12-06T08:59:12Z</time>
      </trkpt>
      <trkpt lat="44.83181" lon="-0.76915">
        <ele>43.9</ele>
        <time>2017-12-06T08:59:13Z</time>
      </trkpt>
      <trkpt lat="44.83183" lon="-0.76909">
        <ele>44.1</ele>
        <time>2017-12-06T08:59:14Z</time>
      </trkpt>
      <trkpt lat="44.83185" lon="-0.76903">
        <ele>44.3</ele>
        <time>2017-12-06T08:59:15Z</time>
      </trkpt>
      <trkpt lat="44.83188" lon="-0.76898">
        <ele>44.5</ele>
        <time>2017-12-06T08:59:16Z</time>
      </trkpt>
      <trkpt lat="44.8319" lon="-0.76892">
        <ele>44.7</ele>
        <time>2017-12-06T08:59:17Z</time>
      </trkpt>
      <trkpt lat="44.83193" lon="-0.76886">
        <ele>44.8</ele>
        <time>2017-12-06T08:59:18Z</time>
      </trkpt>
      <trkpt lat="44.83195" lon="-0.7688">
        <ele>44.9</ele>
        <time>2017-12-06T08:59:19Z</time>
      </trkpt>
      <trkpt lat="44.83197" lon="-0.76874">
        <ele>45</ele>
        <time>2017-12-06T08:59:20Z</time>
      </trkpt>
      <trkpt lat="44.832" lon="-0.76867">
        <ele>45.1</ele>
        <time>2017-12-06T08:59:21Z</time>
      </trkpt>
      <trkpt lat="44.83202" lon="-0.76861">
        <ele>45.2</ele>
        <time>2017-12-06T08:59:22Z</time>
      </trkpt>
      <trkpt lat="44.83204" lon="-0.76855">
        <ele>45.3</ele>
        <time>2017-12-06T08:59:23Z</time>
      </trkpt>
      <trkpt lat="44.83206" lon="-0.76849">
        <ele>45.4</ele>
        <time>2017-12-06T08:59:24Z</time>
      </trkpt>
      <trkpt lat="44.83206" lon="-0.76843">
        <ele>45.5</ele>
        <time>2017-12-06T08:59:25Z</time>
      </trkpt>
      <trkpt lat="44.83208" lon="-0.76837">
        <ele>45.6</ele>
        <time>2017-12-06T08:59:26Z</time>
      </trkpt>
      <trkpt lat="44.8321" lon="-0.76832">
        <ele>45.6</ele>
        <time>2017-12-06T08:59:27Z</time>
      </trkpt>
      <trkpt lat="44.83211" lon="-0.76827">
        <ele>45.7</ele>
        <time>2017-12-06T08:59:28Z</time>
      </trkpt>
      <trkpt lat="44.83212" lon="-0.76822">
        <ele>45.7</ele>
        <time>2017-12-06T08:59:29Z</time>
      </trkpt>
      <trkpt lat="44.83213" lon="-0.76817">
        <ele>45.8</ele>
        <time>2017-12-06T08:59:30Z</time>
      </trkpt>
      <trkpt lat="44.83212" lon="-0.76811">
        <ele>45.8</ele>
        <time>2017-12-06T08:59:32Z</time>
      </trkpt>
      <trkpt lat="44.83208" lon="-0.76807">
        <ele>45.9</ele>
        <time>2017-12-06T08:59:34Z</time>
      </trkpt>
      <trkpt lat="44.83205" lon="-0.76805">
        <ele>46</ele>
        <time>2017-12-06T08:59:35Z</time>
      </trkpt>
      <trkpt lat="44.83203" lon="-0.76803">
        <ele>46</ele>
        <time>2017-12-06T08:59:36Z</time>
      </trkpt>
      <trkpt lat="44.83199" lon="-0.76803">
        <ele>46</ele>
        <time>2017-12-06T08:59:37Z</time>
      </trkpt>
      <trkpt lat="44.83196" lon="-0.76804">
        <ele>46</ele>
        <time>2017-12-06T08:59:38Z</time>
      </trkpt>
      <trkpt lat="44.83193" lon="-0.76805">
        <ele>46</ele>
        <time>2017-12-06T08:59:39Z</time>
      </trkpt>
      <trkpt lat="44.8319" lon="-0.76808">
        <ele>45.5</ele>
        <time>2017-12-06T08:59:40Z</time>
      </trkpt>
      <trkpt lat="44.83187" lon="-0.76811">
        <ele>45.5</ele>
        <time>2017-12-06T08:59:41Z</time>
      </trkpt>
      <trkpt lat="44.83184" lon="-0.76815">
        <ele>45.4</ele>
        <time>2017-12-06T08:59:42Z</time>
      </trkpt>
      <trkpt lat="44.83181" lon="-0.76819">
        <ele>45.4</ele>
        <time>2017-12-06T08:59:43Z</time>
      </trkpt>
      <trkpt lat="44.83179" lon="-0.76825">
        <ele>45.3</ele>
        <time>2017-12-06T08:59:44Z</time>
      </trkpt>
      <trkpt lat="44.83177" lon="-0.76832">
        <ele>45.2</ele>
        <time>2017-12-06T08:59:45Z</time>
      </trkpt>
      <trkpt lat="44.83175" lon="-0.76839">
        <ele>45.2</ele>
        <time>2017-12-06T08:59:46Z</time>
      </trkpt>
      <trkpt lat="44.83172" lon="-0.76845">
        <ele>45.1</ele>
        <time>2017-12-06T08:59:47Z</time>
      </trkpt>
      <trkpt lat="44.83169" lon="-0.76852">
        <ele>45</ele>
        <time>2017-12-06T08:59:48Z</time>
      </trkpt>
      <trkpt lat="44.83167" lon="-0.76859">
        <ele>45</ele>
        <time>2017-12-06T08:59:49Z</time>
      </trkpt>
      <trkpt lat="44.83164" lon="-0.76867">
        <ele>44.9</ele>
        <time>2017-12-06T08:59:50Z</time>
      </trkpt>
      <trkpt lat="44.83162" lon="-0.76874">
        <ele>44.8</ele>
        <time>2017-12-06T08:59:51Z</time>
      </trkpt>
      <trkpt lat="44.83159" lon="-0.76881">
        <ele>44.8</ele>
        <time>2017-12-06T08:59:52Z</time>
      </trkpt>
      <trkpt lat="44.83157" lon="-0.76888">
        <ele>44.7</ele>
        <time>2017-12-06T08:59:53Z</time>
      </trkpt>
      <trkpt lat="44.83154" lon="-0.76895">
        <ele>44.6</ele>
        <time>2017-12-06T08:59:54Z</time>
      </trkpt>
      <trkpt lat="44.83152" lon="-0.76901">
        <ele>44.6</ele>
        <time>2017-12-06T08:59:55Z</time>
      </trkpt>
      <trkpt lat="44.8315" lon="-0.76908">
        <ele>44.5</ele>
        <time>2017-12-06T08:59:56Z</time>
      </trkpt>
      <trkpt lat="44.83148" lon="-0.76915">
        <ele>44.4</ele>
        <time>2017-12-06T08:59:57Z</time>
      </trkpt>
      <trkpt lat="44.83145" lon="-0.76923">
        <ele>44.3</ele>
        <time>2017-12-06T08:59:58Z</time>
      </trkpt>
      <trkpt lat="44.83143" lon="-0.7693">
        <ele>44.3</ele>
        <time>2017-12-06T08:59:59Z</time>
      </trkpt>
      <trkpt lat="44.8314" lon="-0.76937">
        <ele>44.2</ele>
        <time>2017-12-06T09:00:00Z</time>
      </trkpt>
      <trkpt lat="44.83138" lon="-0.76945">
        <ele>44.1</ele>
        <time>2017-12-06T09:00:01Z</time>
      </trkpt>
      <trkpt lat="44.83135" lon="-0.76952">
        <ele>44.1</ele>
        <time>2017-12-06T09:00:02Z</time>
      </trkpt>
      <trkpt lat="44.83133" lon="-0.7696">
        <ele>44</ele>
        <time>2017-12-06T09:00:03Z</time>
      </trkpt>
      <trkpt lat="44.8313" lon="-0.76968">
        <ele>43.9</ele>
        <time>2017-12-06T09:00:04Z</time>
      </trkpt>
      <trkpt lat="44.83128" lon="-0.76976">
        <ele>43.9</ele>
        <time>2017-12-06T09:00:05Z</time>
      </trkpt>
      <trkpt lat="44.83126" lon="-0.76984">
        <ele>43.8</ele>
        <time>2017-12-06T09:00:06Z</time>
      </trkpt>
      <trkpt lat="44.83123" lon="-0.76991">
        <ele>43.7</ele>
        <time>2017-12-06T09:00:07Z</time>
      </trkpt>
      <trkpt lat="44.83121" lon="-0.76999">
        <ele>43.7</ele>
        <time>2017-12-06T09:00:08Z</time>
      </trkpt>
      <trkpt lat="44.83119" lon="-0.77007">
        <ele>43.6</ele>
        <time>2017-12-06T09:00:09Z</time>
      </trkpt>
      <trkpt lat="44.83116" lon="-0.77016">
        <ele>43.5</ele>
        <time>2017-12-06T09:00:10Z</time>
      </trkpt>
      <trkpt lat="44.83114" lon="-0.77023">
        <ele>43.5</ele>
        <time>2017-12-06T09:00:11Z</time>
      </trkpt>
      <trkpt lat="44.83111" lon="-0.7703">
        <ele>43.4</ele>
        <time>2017-12-06T09:00:12Z</time>
      </trkpt>
      <trkpt lat="44.83109" lon="-0.77038">
        <ele>43.3</ele>
        <time>2017-12-06T09:00:13Z</time>
      </trkpt>
      <trkpt lat="44.83107" lon="-0.77045">
        <ele>43.3</ele>
        <time>2017-12-06T09:00:14Z</time>
      </trkpt>
      <trkpt lat="44.83104" lon="-0.77053">
        <ele>43.2</ele>
        <time>2017-12-06T09:00:15Z</time>
      </trkpt>
      <trkpt lat="44.83102" lon="-0.7706">
        <ele>43.1</ele>
        <time>2017-12-06T09:00:16Z</time>
      </trkpt>
      <trkpt lat="44.831" lon="-0.77068">
        <ele>43.1</ele>
        <time>2017-12-06T09:00:17Z</time>
      </trkpt>
      <trkpt lat="44.83099" lon="-0.77076">
        <ele>43</ele>
        <time>2017-12-06T09:00:18Z</time>
      </trkpt>
      <trkpt lat="44.83097" lon="-0.77083">
        <ele>42.9</ele>
        <time>2017-12-06T09:00:19Z</time>
      </trkpt>
      <trkpt lat="44.83094" lon="-0.77091">
        <ele>42.9</ele>
        <time>2017-12-06T09:00:20Z</time>
      </trkpt>
      <trkpt lat="44.83092" lon="-0.77098">
        <ele>42.8</ele>
        <time>2017-12-06T09:00:21Z</time>
      </trkpt>
      <trkpt lat="44.8309" lon="-0.77106">
        <ele>42.7</ele>
        <time>2017-12-06T09:00:22Z</time>
      </trkpt>
      <trkpt lat="44.83088" lon="-0.77114">
        <ele>42.7</ele>
        <time>2017-12-06T09:00:23Z</time>
      </trkpt>
      <trkpt lat="44.83086" lon="-0.77122">
        <ele>42.6</ele>
        <time>2017-12-06T09:00:24Z</time>
      </trkpt>
      <trkpt lat="44.83083" lon="-0.77129">
        <ele>42.6</ele>
        <time>2017-12-06T09:00:25Z</time>
      </trkpt>
      <trkpt lat="44.8308" lon="-0.77135">
        <ele>42.5</ele>
        <time>2017-12-06T09:00:26Z</time>
      </trkpt>
      <trkpt lat="44.83077" lon="-0.7714">
        <ele>42.4</ele>
        <time>2017-12-06T09:00:27Z</time>
      </trkpt>
      <trkpt lat="44.83073" lon="-0.77144">
        <ele>42.4</ele>
        <time>2017-12-06T09:00:28Z</time>
      </trkpt>
      <trkpt lat="44.83069" lon="-0.77149">
        <ele>42.3</ele>
        <time>2017-12-06T09:00:29Z</time>
      </trkpt>
      <trkpt lat="44.83065" lon="-0.77153">
        <ele>42.3</ele>
        <time>2017-12-06T09:00:30Z</time>
      </trkpt>
      <trkpt lat="44.83061" lon="-0.77158">
        <ele>42.2</ele>
        <time>2017-12-06T09:00:31Z</time>
      </trkpt>
      <trkpt lat="44.83057" lon="-0.77162">
        <ele>42.1</ele>
        <time>2017-12-06T09:00:32Z</time>
      </trkpt>
      <trkpt lat="44.83054" lon="-0.77167">
        <ele>42.1</ele>
        <time>2017-12-06T09:00:33Z</time>
      </trkpt>
      <trkpt lat="44.8305" lon="-0.77171">
        <ele>42</ele>
        <time>2017-12-06T09:00:34Z</time>
      </trkpt>
      <trkpt lat="44.83046" lon="-0.77173">
        <ele>42</ele>
        <time>2017-12-06T09:00:35Z</time>
      </trkpt>
      <trkpt lat="44.83042" lon="-0.77172">
        <ele>42</ele>
        <time>2017-12-06T09:00:36Z</time>
      </trkpt>
      <trkpt lat="44.83039" lon="-0.77172">
        <ele>42.1</ele>
        <time>2017-12-06T09:00:37Z</time>
      </trkpt>
      <trkpt lat="44.83036" lon="-0.77171">
        <ele>42.1</ele>
        <time>2017-12-06T09:00:38Z</time>
      </trkpt>
      <trkpt lat="44.83033" lon="-0.7717">
        <ele>42.1</ele>
        <time>2017-12-06T09:00:39Z</time>
      </trkpt>
      <trkpt lat="44.83029" lon="-0.77169">
        <ele>42.1</ele>
        <time>2017-12-06T09:00:40Z</time>
      </trkpt>
      <trkpt lat="44.83025" lon="-0.77168">
        <ele>42.2</ele>
        <time>2017-12-06T09:00:41Z</time>
      </trkpt>
      <trkpt lat="44.83021" lon="-0.77166">
        <ele>42.2</ele>
        <time>2017-12-06T09:00:42Z</time>
      </trkpt>
      <trkpt lat="44.83016" lon="-0.77164">
        <ele>42.2</ele>
        <time>2017-12-06T09:00:43Z</time>
      </trkpt>
      <trkpt lat="44.83013" lon="-0.7716">
        <ele>42.3</ele>
        <time>2017-12-06T09:00:44Z</time>
      </trkpt>
      <trkpt lat="44.83009" lon="-0.77158">
        <ele>42.3</ele>
        <time>2017-12-06T09:00:45Z</time>
      </trkpt>
      <trkpt lat="44.83006" lon="-0.77159">
        <ele>42.3</ele>
        <time>2017-12-06T09:00:46Z</time>
      </trkpt>
      <trkpt lat="44.83002" lon="-0.77162">
        <ele>42.3</ele>
        <time>2017-12-06T09:00:47Z</time>
      </trkpt>
      <trkpt lat="44.82999" lon="-0.77163">
        <ele>42.4</ele>
        <time>2017-12-06T09:00:48Z</time>
      </trkpt>
      <trkpt lat="44.82996" lon="-0.77161">
        <ele>42.4</ele>
        <time>2017-12-06T09:00:49Z</time>
      </trkpt>
      <trkpt lat="44.82993" lon="-0.77157">
        <ele>42.4</ele>
        <time>2017-12-06T09:00:51Z</time>
      </trkpt>
      <trkpt lat="44.8299" lon="-0.77157">
        <ele>42.4</ele>
        <time>2017-12-06T09:00:52Z</time>
      </trkpt>
      <trkpt lat="44.82985" lon="-0.77159">
        <ele>42.5</ele>
        <time>2017-12-06T09:00:53Z</time>
      </trkpt>
      <trkpt lat="44.82983" lon="-0.77162">
        <ele>42.5</ele>
        <time>2017-12-06T09:00:54Z</time>
      </trkpt>
      <trkpt lat="44.8298" lon="-0.77164">
        <ele>42.5</ele>
        <time>2017-12-06T09:00:55Z</time>
      </trkpt>
      <trkpt lat="44.82977" lon="-0.77164">
        <ele>42.5</ele>
        <time>2017-12-06T09:00:56Z</time>
      </trkpt>
      <trkpt lat="44.82972" lon="-0.77162">
        <ele>42.5</ele>
        <time>2017-12-06T09:00:58Z</time>
      </trkpt>
      <trkpt lat="44.82968" lon="-0.7716">
        <ele>42.6</ele>
        <time>2017-12-06T09:00:59Z</time>
      </trkpt>
      <trkpt lat="44.82965" lon="-0.77158">
        <ele>42.6</ele>
        <time>2017-12-06T09:01:00Z</time>
      </trkpt>
      <trkpt lat="44.82962" lon="-0.77154">
        <ele>42.6</ele>
        <time>2017-12-06T09:01:01Z</time>
      </trkpt>
      <trkpt lat="44.82959" lon="-0.77149">
        <ele>42.6</ele>
        <time>2017-12-06T09:01:02Z</time>
      </trkpt>
      <trkpt lat="44.82957" lon="-0.77144">
        <ele>42.7</ele>
        <time>2017-12-06T09:01:03Z</time>
      </trkpt>
      <trkpt lat="44.82955" lon="-0.77139">
        <ele>42.7</ele>
        <time>2017-12-06T09:01:04Z</time>
      </trkpt>
      <trkpt lat="44.82953" lon="-0.77133">
        <ele>42.7</ele>
        <time>2017-12-06T09:01:05Z</time>
      </trkpt>
      <trkpt lat="44.8295" lon="-0.77128">
        <ele>42.7</ele>
        <time>2017-12-06T09:01:06Z</time>
      </trkpt>
      <trkpt lat="44.82947" lon="-0.77123">
        <ele>42.7</ele>
        <time>2017-12-06T09:01:07Z</time>
      </trkpt>
      <trkpt lat="44.82944" lon="-0.77119">
        <ele>42.8</ele>
        <time>2017-12-06T09:01:08Z</time>
      </trkpt>
      <trkpt lat="44.8294" lon="-0.77116">
        <ele>42.8</ele>
        <time>2017-12-06T09:01:09Z</time>
      </trkpt>
      <trkpt lat="44.82937" lon="-0.77112">
        <ele>42.8</ele>
        <time>2017-12-06T09:01:10Z</time>
      </trkpt>
      <trkpt lat="44.82934" lon="-0.77109">
        <ele>42.8</ele>
        <time>2017-12-06T09:01:11Z</time>
      </trkpt>
      <trkpt lat="44.82931" lon="-0.77107">
        <ele>42.9</ele>
        <time>2017-12-06T09:01:12Z</time>
      </trkpt>
      <trkpt lat="44.82927" lon="-0.77103">
        <ele>42.9</ele>
        <time>2017-12-06T09:01:14Z</time>
      </trkpt>
      <trkpt lat="44.82925" lon="-0.77099">
        <ele>42.9</ele>
        <time>2017-12-06T09:01:16Z</time>
      </trkpt>
      <trkpt lat="44.82923" lon="-0.771">
        <ele>42.9</ele>
        <time>2017-12-06T09:01:17Z</time>
      </trkpt>
      <trkpt lat="44.82918" lon="-0.77102">
        <ele>42.9</ele>
        <time>2017-12-06T09:01:19Z</time>
      </trkpt>
      <trkpt lat="44.82916" lon="-0.77098">
        <ele>43</ele>
        <time>2017-12-06T09:01:20Z</time>
      </trkpt>
      <trkpt lat="44.82911" lon="-0.77093">
        <ele>43</ele>
        <time>2017-12-06T09:01:22Z</time>
      </trkpt>
      <trkpt lat="44.82907" lon="-0.77092">
        <ele>43</ele>
        <time>2017-12-06T09:01:23Z</time>
      </trkpt>
      <trkpt lat="44.82904" lon="-0.77092">
        <ele>43</ele>
        <time>2017-12-06T09:01:24Z</time>
      </trkpt>
      <trkpt lat="44.82901" lon="-0.77092">
        <ele>43</ele>
        <time>2017-12-06T09:01:25Z</time>
      </trkpt>
      <trkpt lat="44.82898" lon="-0.77092">
        <ele>43.1</ele>
        <time>2017-12-06T09:01:26Z</time>
      </trkpt>
      <trkpt lat="44.82894" lon="-0.77094">
        <ele>43.1</ele>
        <time>2017-12-06T09:01:27Z</time>
      </trkpt>
      <trkpt lat="44.8289" lon="-0.77095">
        <ele>43.1</ele>
        <time>2017-12-06T09:01:28Z</time>
      </trkpt>
      <trkpt lat="44.82888" lon="-0.77097">
        <ele>43.1</ele>
        <time>2017-12-06T09:01:29Z</time>
      </trkpt>
      <trkpt lat="44.82886" lon="-0.77101">
        <ele>43.1</ele>
        <time>2017-12-06T09:01:30Z</time>
      </trkpt>
      <trkpt lat="44.82884" lon="-0.77104">
        <ele>43.1</ele>
        <time>2017-12-06T09:01:31Z</time>
      </trkpt>
      <trkpt lat="44.82883" lon="-0.77112">
        <ele>43.2</ele>
        <time>2017-12-06T09:01:33Z</time>
      </trkpt>
      <trkpt lat="44.82883" lon="-0.77117">
        <ele>43.2</ele>
        <time>2017-12-06T09:01:34Z</time>
      </trkpt>
      <trkpt lat="44.82885" lon="-0.77123">
        <ele>43.2</ele>
        <time>2017-12-06T09:01:35Z</time>
      </trkpt>
      <trkpt lat="44.82887" lon="-0.77128">
        <ele>43.2</ele>
        <time>2017-12-06T09:01:36Z</time>
      </trkpt>
      <trkpt lat="44.8289" lon="-0.77132">
        <ele>43.2</ele>
        <time>2017-12-06T09:01:37Z</time>
      </trkpt>
      <trkpt lat="44.82892" lon="-0.77135">
        <ele>43.2</ele>
        <time>2017-12-06T09:01:38Z</time>
      </trkpt>
      <trkpt lat="44.82895" lon="-0.77136">
        <ele>43.3</ele>
        <time>2017-12-06T09:01:39Z</time>
      </trkpt>
      <trkpt lat="44.82901" lon="-0.77138">
        <ele>43.3</ele>
        <time>2017-12-06T09:01:41Z</time>
      </trkpt>
      <trkpt lat="44.82905" lon="-0.7714">
        <ele>43.3</ele>
        <time>2017-12-06T09:01:42Z</time>
      </trkpt>
      <trkpt lat="44.82907" lon="-0.77142">
        <ele>43.3</ele>
        <time>2017-12-06T09:01:43Z</time>
      </trkpt>
      <trkpt lat="44.82909" lon="-0.77146">
        <ele>43.3</ele>
        <time>2017-12-06T09:01:44Z</time>
      </trkpt>
      <trkpt lat="44.82912" lon="-0.7715">
        <ele>43.3</ele>
        <time>2017-12-06T09:01:45Z</time>
      </trkpt>
      <trkpt lat="44.82916" lon="-0.77154">
        <ele>43.3</ele>
        <time>2017-12-06T09:01:46Z</time>
      </trkpt>
      <trkpt lat="44.82919" lon="-0.77157">
        <ele>43.3</ele>
        <time>2017-12-06T09:01:47Z</time>
      </trkpt>
      <trkpt lat="44.82922" lon="-0.77161">
        <ele>43.3</ele>
        <time>2017-12-06T09:01:48Z</time>
      </trkpt>
      <trkpt lat="44.82926" lon="-0.77164">
        <ele>43.3</ele>
        <time>2017-12-06T09:01:49Z</time>
      </trkpt>
      <trkpt lat="44.82928" lon="-0.77168">
        <ele>43.2</ele>
        <time>2017-12-06T09:01:50Z</time>
      </trkpt>
      <trkpt lat="44.82932" lon="-0.77172">
        <ele>43.2</ele>
        <time>2017-12-06T09:01:51Z</time>
      </trkpt>
      <trkpt lat="44.82935" lon="-0.77173">
        <ele>43.2</ele>
        <time>2017-12-06T09:01:52Z</time>
      </trkpt>
      <trkpt lat="44.82939" lon="-0.77175">
        <ele>43.1</ele>
        <time>2017-12-06T09:01:53Z</time>
      </trkpt>
      <trkpt lat="44.82943" lon="-0.77181">
        <ele>43.1</ele>
        <time>2017-12-06T09:01:55Z</time>
      </trkpt>
      <trkpt lat="44.82944" lon="-0.77185">
        <ele>43</ele>
        <time>2017-12-06T09:01:56Z</time>
      </trkpt>
      <trkpt lat="44.82944" lon="-0.77191">
        <ele>41.8</ele>
        <time>2017-12-06T09:01:57Z</time>
      </trkpt>
      <trkpt lat="44.82944" lon="-0.772">
        <ele>40.5</ele>
        <time>2017-12-06T09:01:58Z</time>
      </trkpt>
      <trkpt lat="44.82944" lon="-0.77205">
        <ele>40.5</ele>
        <time>2017-12-06T09:01:59Z</time>
      </trkpt>
      <trkpt lat="44.82941" lon="-0.77206">
        <ele>40.5</ele>
        <time>2017-12-06T09:02:00Z</time>
      </trkpt>
      <trkpt lat="44.82939" lon="-0.77208">
        <ele>40.5</ele>
        <time>2017-12-06T09:02:01Z</time>
      </trkpt>
      <trkpt lat="44.82933" lon="-0.77207">
        <ele>40.4</ele>
        <time>2017-12-06T09:02:03Z</time>
      </trkpt>
      <trkpt lat="44.82931" lon="-0.77204">
        <ele>40.4</ele>
        <time>2017-12-06T09:02:04Z</time>
      </trkpt>
      <trkpt lat="44.82926" lon="-0.77206">
        <ele>40.4</ele>
        <time>2017-12-06T09:02:06Z</time>
      </trkpt>
      <trkpt lat="44.8292" lon="-0.77205">
        <ele>40.3</ele>
        <time>2017-12-06T09:02:08Z</time>
      </trkpt>
      <trkpt lat="44.82916" lon="-0.77205">
        <ele>40.3</ele>
        <time>2017-12-06T09:02:09Z</time>
      </trkpt>
      <trkpt lat="44.82913" lon="-0.77203">
        <ele>40.3</ele>
        <time>2017-12-06T09:02:10Z</time>
      </trkpt>
      <trkpt lat="44.8291" lon="-0.772">
        <ele>40.3</ele>
        <time>2017-12-06T09:02:11Z</time>
      </trkpt>
      <trkpt lat="44.82906" lon="-0.77199">
        <ele>40.3</ele>
        <time>2017-12-06T09:02:12Z</time>
      </trkpt>
      <trkpt lat="44.82903" lon="-0.77199">
        <ele>40.2</ele>
        <time>2017-12-06T09:02:13Z</time>
      </trkpt>
      <trkpt lat="44.82899" lon="-0.77199">
        <ele>40.2</ele>
        <time>2017-12-06T09:02:14Z</time>
      </trkpt>
      <trkpt lat="44.82895" lon="-0.77196">
        <ele>40.2</ele>
        <time>2017-12-06T09:02:15Z</time>
      </trkpt>
      <trkpt lat="44.82892" lon="-0.77193">
        <ele>40.2</ele>
        <time>2017-12-06T09:02:16Z</time>
      </trkpt>
      <trkpt lat="44.82892" lon="-0.77187">
        <ele>40.1</ele>
        <time>2017-12-06T09:02:17Z</time>
      </trkpt>
      <trkpt lat="44.82891" lon="-0.77182">
        <ele>40.1</ele>
        <time>2017-12-06T09:02:18Z</time>
      </trkpt>
      <trkpt lat="44.82889" lon="-0.77177">
        <ele>40.1</ele>
        <time>2017-12-06T09:02:19Z</time>
      </trkpt>
      <trkpt lat="44.82886" lon="-0.77172">
        <ele>40.1</ele>
        <time>2017-12-06T09:02:20Z</time>
      </trkpt>
      <trkpt lat="44.82883" lon="-0.77168">
        <ele>40</ele>
        <time>2017-12-06T09:02:21Z</time>
      </trkpt>
      <trkpt lat="44.82879" lon="-0.77168">
        <ele>40</ele>
        <time>2017-12-06T09:02:22Z</time>
      </trkpt>
      <trkpt lat="44.82876" lon="-0.77168">
        <ele>40</ele>
        <time>2017-12-06T09:02:23Z</time>
      </trkpt>
      <trkpt lat="44.82872" lon="-0.7717">
        <ele>40</ele>
        <time>2017-12-06T09:02:24Z</time>
      </trkpt>
      <trkpt lat="44.82869" lon="-0.77171">
        <ele>40</ele>
        <time>2017-12-06T09:02:25Z</time>
      </trkpt>
      <trkpt lat="44.82863" lon="-0.77168">
        <ele>39.9</ele>
        <time>2017-12-06T09:02:27Z</time>
      </trkpt>
      <trkpt lat="44.8286" lon="-0.77166">
        <ele>39.9</ele>
        <time>2017-12-06T09:02:28Z</time>
      </trkpt>
      <trkpt lat="44.82856" lon="-0.77164">
        <ele>39.9</ele>
        <time>2017-12-06T09:02:29Z</time>
      </trkpt>
      <trkpt lat="44.82853" lon="-0.77161">
        <ele>39.9</ele>
        <time>2017-12-06T09:02:30Z</time>
      </trkpt>
      <trkpt lat="44.8285" lon="-0.77159">
        <ele>39.9</ele>
        <time>2017-12-06T09:02:31Z</time>
      </trkpt>
      <trkpt lat="44.82845" lon="-0.77156">
        <ele>39.9</ele>
        <time>2017-12-06T09:02:32Z</time>
      </trkpt>
      <trkpt lat="44.82842" lon="-0.77153">
        <ele>39.8</ele>
        <time>2017-12-06T09:02:33Z</time>
      </trkpt>
      <trkpt lat="44.82839" lon="-0.7715">
        <ele>39.8</ele>
        <time>2017-12-06T09:02:34Z</time>
      </trkpt>
      <trkpt lat="44.82836" lon="-0.77147">
        <ele>39.8</ele>
        <time>2017-12-06T09:02:35Z</time>
      </trkpt>
      <trkpt lat="44.82833" lon="-0.77144">
        <ele>39.8</ele>
        <time>2017-12-06T09:02:36Z</time>
      </trkpt>
      <trkpt lat="44.82829" lon="-0.7714">
        <ele>39.8</ele>
        <time>2017-12-06T09:02:37Z</time>
      </trkpt>
      <trkpt lat="44.82824" lon="-0.77136">
        <ele>39.7</ele>
        <time>2017-12-06T09:02:38Z</time>
      </trkpt>
      <trkpt lat="44.8282" lon="-0.77132">
        <ele>39.7</ele>
        <time>2017-12-06T09:02:39Z</time>
      </trkpt>
      <trkpt lat="44.82816" lon="-0.7713">
        <ele>39.7</ele>
        <time>2017-12-06T09:02:40Z</time>
      </trkpt>
      <trkpt lat="44.82814" lon="-0.77127">
        <ele>39.7</ele>
        <time>2017-12-06T09:02:41Z</time>
      </trkpt>
      <trkpt lat="44.8281" lon="-0.77124">
        <ele>39.7</ele>
        <time>2017-12-06T09:02:42Z</time>
      </trkpt>
      <trkpt lat="44.82807" lon="-0.77122">
        <ele>39.6</ele>
        <time>2017-12-06T09:02:43Z</time>
      </trkpt>
      <trkpt lat="44.82803" lon="-0.77121">
        <ele>39.6</ele>
        <time>2017-12-06T09:02:44Z</time>
      </trkpt>
      <trkpt lat="44.82798" lon="-0.77119">
        <ele>39.6</ele>
        <time>2017-12-06T09:02:45Z</time>
      </trkpt>
      <trkpt lat="44.82794" lon="-0.77117">
        <ele>39.6</ele>
        <time>2017-12-06T09:02:46Z</time>
      </trkpt>
      <trkpt lat="44.8279" lon="-0.77115">
        <ele>39.6</ele>
        <time>2017-12-06T09:02:47Z</time>
      </trkpt>
      <trkpt lat="44.82785" lon="-0.77112">
        <ele>39.5</ele>
        <time>2017-12-06T09:02:48Z</time>
      </trkpt>
      <trkpt lat="44.82781" lon="-0.77109">
        <ele>39.5</ele>
        <time>2017-12-06T09:02:49Z</time>
      </trkpt>
      <trkpt lat="44.82777" lon="-0.77107">
        <ele>39.5</ele>
        <time>2017-12-06T09:02:50Z</time>
      </trkpt>
      <trkpt lat="44.82773" lon="-0.77105">
        <ele>39.5</ele>
        <time>2017-12-06T09:02:51Z</time>
      </trkpt>
      <trkpt lat="44.82768" lon="-0.77105">
        <ele>39.5</ele>
        <time>2017-12-06T09:02:52Z</time>
      </trkpt>
      <trkpt lat="44.82763" lon="-0.77102">
        <ele>39.4</ele>
        <time>2017-12-06T09:02:53Z</time>
      </trkpt>
      <trkpt lat="44.8276" lon="-0.77099">
        <ele>39.4</ele>
        <time>2017-12-06T09:02:54Z</time>
      </trkpt>
      <trkpt lat="44.82757" lon="-0.77096">
        <ele>39.4</ele>
        <time>2017-12-06T09:02:55Z</time>
      </trkpt>
      <trkpt lat="44.82754" lon="-0.77094">
        <ele>39.4</ele>
        <time>2017-12-06T09:02:56Z</time>
      </trkpt>
      <trkpt lat="44.8275" lon="-0.77093">
        <ele>39.4</ele>
        <time>2017-12-06T09:02:57Z</time>
      </trkpt>
      <trkpt lat="44.82745" lon="-0.77091">
        <ele>39.4</ele>
        <time>2017-12-06T09:02:58Z</time>
      </trkpt>
      <trkpt lat="44.82743" lon="-0.77089">
        <ele>39.4</ele>
        <time>2017-12-06T09:02:59Z</time>
      </trkpt>
      <trkpt lat="44.82737" lon="-0.77087">
        <ele>39.4</ele>
        <time>2017-12-06T09:03:00Z</time>
      </trkpt>
      <trkpt lat="44.82734" lon="-0.77087">
        <ele>39.5</ele>
        <time>2017-12-06T09:03:01Z</time>
      </trkpt>
      <trkpt lat="44.82731" lon="-0.77085">
        <ele>39.5</ele>
        <time>2017-12-06T09:03:02Z</time>
      </trkpt>
      <trkpt lat="44.82728" lon="-0.77083">
        <ele>39.6</ele>
        <time>2017-12-06T09:03:03Z</time>
      </trkpt>
      <trkpt lat="44.82727" lon="-0.77078">
        <ele>39.8</ele>
        <time>2017-12-06T09:03:05Z</time>
      </trkpt>
      <trkpt lat="44.82723" lon="-0.77078">
        <ele>39.9</ele>
        <time>2017-12-06T09:03:08Z</time>
      </trkpt>
      <trkpt lat="44.82719" lon="-0.77074">
        <ele>40.1</ele>
        <time>2017-12-06T09:03:10Z</time>
      </trkpt>
      <trkpt lat="44.82717" lon="-0.77071">
        <ele>40.3</ele>
        <time>2017-12-06T09:03:11Z</time>
      </trkpt>
      <trkpt lat="44.82715" lon="-0.77067">
        <ele>40.5</ele>
        <time>2017-12-06T09:03:12Z</time>
      </trkpt>
      <trkpt lat="44.82712" lon="-0.77065">
        <ele>40.6</ele>
        <time>2017-12-06T09:03:13Z</time>
      </trkpt>
      <trkpt lat="44.82708" lon="-0.77064">
        <ele>40.8</ele>
        <time>2017-12-06T09:03:14Z</time>
      </trkpt>
      <trkpt lat="44.82704" lon="-0.77062">
        <ele>40.9</ele>
        <time>2017-12-06T09:03:15Z</time>
      </trkpt>
      <trkpt lat="44.827" lon="-0.7706">
        <ele>40.9</ele>
        <time>2017-12-06T09:03:16Z</time>
      </trkpt>
      <trkpt lat="44.82697" lon="-0.77057">
        <ele>41</ele>
        <time>2017-12-06T09:03:17Z</time>
      </trkpt>
      <trkpt lat="44.82693" lon="-0.77055">
        <ele>41</ele>
        <time>2017-12-06T09:03:18Z</time>
      </trkpt>
      <trkpt lat="44.8269" lon="-0.77053">
        <ele>41</ele>
        <time>2017-12-06T09:03:19Z</time>
      </trkpt>
      <trkpt lat="44.82687" lon="-0.77051">
        <ele>41</ele>
        <time>2017-12-06T09:03:20Z</time>
      </trkpt>
      <trkpt lat="44.82682" lon="-0.77055">
        <ele>41</ele>
        <time>2017-12-06T09:03:21Z</time>
      </trkpt>
      <trkpt lat="44.82676" lon="-0.77055">
        <ele>41</ele>
        <time>2017-12-06T09:03:22Z</time>
      </trkpt>
      <trkpt lat="44.82672" lon="-0.77053">
        <ele>41</ele>
        <time>2017-12-06T09:03:23Z</time>
      </trkpt>
      <trkpt lat="44.82668" lon="-0.7705">
        <ele>41</ele>
        <time>2017-12-06T09:03:24Z</time>
      </trkpt>
      <trkpt lat="44.82664" lon="-0.77047">
        <ele>41</ele>
        <time>2017-12-06T09:03:25Z</time>
      </trkpt>
      <trkpt lat="44.8266" lon="-0.77044">
        <ele>40.9</ele>
        <time>2017-12-06T09:03:26Z</time>
      </trkpt>
      <trkpt lat="44.82655" lon="-0.7704">
        <ele>40.9</ele>
        <time>2017-12-06T09:03:27Z</time>
      </trkpt>
      <trkpt lat="44.82651" lon="-0.77037">
        <ele>40.9</ele>
        <time>2017-12-06T09:03:28Z</time>
      </trkpt>
      <trkpt lat="44.82648" lon="-0.77032">
        <ele>40.9</ele>
        <time>2017-12-06T09:03:29Z</time>
      </trkpt>
      <trkpt lat="44.82644" lon="-0.77028">
        <ele>40.9</ele>
        <time>2017-12-06T09:03:30Z</time>
      </trkpt>
      <trkpt lat="44.8264" lon="-0.77023">
        <ele>40.8</ele>
        <time>2017-12-06T09:03:31Z</time>
      </trkpt>
      <trkpt lat="44.82638" lon="-0.77018">
        <ele>40.8</ele>
        <time>2017-12-06T09:03:32Z</time>
      </trkpt>
      <trkpt lat="44.82635" lon="-0.77012">
        <ele>40.8</ele>
        <time>2017-12-06T09:03:33Z</time>
      </trkpt>
      <trkpt lat="44.82632" lon="-0.77008">
        <ele>40.8</ele>
        <time>2017-12-06T09:03:34Z</time>
      </trkpt>
      <trkpt lat="44.8263" lon="-0.77002">
        <ele>40.8</ele>
        <time>2017-12-06T09:03:35Z</time>
      </trkpt>
      <trkpt lat="44.82627" lon="-0.76998">
        <ele>40.7</ele>
        <time>2017-12-06T09:03:36Z</time>
      </trkpt>
      <trkpt lat="44.82624" lon="-0.76994">
        <ele>40.7</ele>
        <time>2017-12-06T09:03:37Z</time>
      </trkpt>
      <trkpt lat="44.82621" lon="-0.76991">
        <ele>40.7</ele>
        <time>2017-12-06T09:03:38Z</time>
      </trkpt>
      <trkpt lat="44.82618" lon="-0.76985">
        <ele>40.7</ele>
        <time>2017-12-06T09:03:39Z</time>
      </trkpt>
      <trkpt lat="44.82615" lon="-0.7698">
        <ele>40.7</ele>
        <time>2017-12-06T09:03:40Z</time>
      </trkpt>
      <trkpt lat="44.82611" lon="-0.76978">
        <ele>40.6</ele>
        <time>2017-12-06T09:03:41Z</time>
      </trkpt>
      <trkpt lat="44.82607" lon="-0.76974">
        <ele>40.6</ele>
        <time>2017-12-06T09:03:42Z</time>
      </trkpt>
      <trkpt lat="44.82605" lon="-0.76969">
        <ele>40.6</ele>
        <time>2017-12-06T09:03:43Z</time>
      </trkpt>
      <trkpt lat="44.82603" lon="-0.76964">
        <ele>40.6</ele>
        <time>2017-12-06T09:03:44Z</time>
      </trkpt>
      <trkpt lat="44.82599" lon="-0.76959">
        <ele>40.6</ele>
        <time>2017-12-06T09:03:45Z</time>
      </trkpt>
      <trkpt lat="44.82595" lon="-0.76954">
        <ele>40.5</ele>
        <time>2017-12-06T09:03:46Z</time>
      </trkpt>
      <trkpt lat="44.82592" lon="-0.76949">
        <ele>40.5</ele>
        <time>2017-12-06T09:03:47Z</time>
      </trkpt>
      <trkpt lat="44.82588" lon="-0.76945">
        <ele>40.5</ele>
        <time>2017-12-06T09:03:48Z</time>
      </trkpt>
      <trkpt lat="44.82585" lon="-0.76939">
        <ele>40.5</ele>
        <time>2017-12-06T09:03:49Z</time>
      </trkpt>
      <trkpt lat="44.82582" lon="-0.76935">
        <ele>40.4</ele>
        <time>2017-12-06T09:03:50Z</time>
      </trkpt>
      <trkpt lat="44.8258" lon="-0.76931">
        <ele>40.4</ele>
        <time>2017-12-06T09:03:51Z</time>
      </trkpt>
      <trkpt lat="44.82576" lon="-0.76927">
        <ele>40.4</ele>
        <time>2017-12-06T09:03:52Z</time>
      </trkpt>
      <trkpt lat="44.82572" lon="-0.76923">
        <ele>40.4</ele>
        <time>2017-12-06T09:03:53Z</time>
      </trkpt>
      <trkpt lat="44.82569" lon="-0.76918">
        <ele>40.3</ele>
        <time>2017-12-06T09:03:54Z</time>
      </trkpt>
      <trkpt lat="44.82564" lon="-0.76915">
        <ele>40.3</ele>
        <time>2017-12-06T09:03:55Z</time>
      </trkpt>
      <trkpt lat="44.82559" lon="-0.76912">
        <ele>40.3</ele>
        <time>2017-12-06T09:03:56Z</time>
      </trkpt>
      <trkpt lat="44.82556" lon="-0.76909">
        <ele>40.2</ele>
        <time>2017-12-06T09:03:57Z</time>
      </trkpt>
      <trkpt lat="44.82552" lon="-0.76904">
        <ele>40.2</ele>
        <time>2017-12-06T09:03:58Z</time>
      </trkpt>
      <trkpt lat="44.82549" lon="-0.769">
        <ele>40.1</ele>
        <time>2017-12-06T09:03:59Z</time>
      </trkpt>
      <trkpt lat="44.82546" lon="-0.76894">
        <ele>40</ele>
        <time>2017-12-06T09:04:00Z</time>
      </trkpt>
      <trkpt lat="44.82543" lon="-0.7689">
        <ele>40</ele>
        <time>2017-12-06T09:04:01Z</time>
      </trkpt>
      <trkpt lat="44.82541" lon="-0.76886">
        <ele>40</ele>
        <time>2017-12-06T09:04:02Z</time>
      </trkpt>
      <trkpt lat="44.82537" lon="-0.76883">
        <ele>39.9</ele>
        <time>2017-12-06T09:04:03Z</time>
      </trkpt>
      <trkpt lat="44.82532" lon="-0.76881">
        <ele>39.7</ele>
        <time>2017-12-06T09:04:04Z</time>
      </trkpt>
      <trkpt lat="44.82529" lon="-0.76878">
        <ele>39.6</ele>
        <time>2017-12-06T09:04:05Z</time>
      </trkpt>
      <trkpt lat="44.82527" lon="-0.76874">
        <ele>39.5</ele>
        <time>2017-12-06T09:04:06Z</time>
      </trkpt>
      <trkpt lat="44.82526" lon="-0.7687">
        <ele>39.4</ele>
        <time>2017-12-06T09:04:08Z</time>
      </trkpt>
      <trkpt lat="44.82523" lon="-0.76868">
        <ele>39.2</ele>
        <time>2017-12-06T09:04:09Z</time>
      </trkpt>
      <trkpt lat="44.8252" lon="-0.76865">
        <ele>39.1</ele>
        <time>2017-12-06T09:04:10Z</time>
      </trkpt>
      <trkpt lat="44.82516" lon="-0.76864">
        <ele>39</ele>
        <time>2017-12-06T09:04:11Z</time>
      </trkpt>
      <trkpt lat="44.82512" lon="-0.76865">
        <ele>39</ele>
        <time>2017-12-06T09:04:12Z</time>
      </trkpt>
      <trkpt lat="44.82509" lon="-0.76864">
        <ele>38.8</ele>
        <time>2017-12-06T09:04:13Z</time>
      </trkpt>
      <trkpt lat="44.82506" lon="-0.76862">
        <ele>38.6</ele>
        <time>2017-12-06T09:04:14Z</time>
      </trkpt>
      <trkpt lat="44.82505" lon="-0.76858">
        <ele>38.5</ele>
        <time>2017-12-06T09:04:15Z</time>
      </trkpt>
      <trkpt lat="44.82503" lon="-0.76855">
        <ele>38.6</ele>
        <time>2017-12-06T09:04:16Z</time>
      </trkpt>
      <trkpt lat="44.82502" lon="-0.7685">
        <ele>38.6</ele>
        <time>2017-12-06T09:04:17Z</time>
      </trkpt>
      <trkpt lat="44.82502" lon="-0.76845">
        <ele>38.7</ele>
        <time>2017-12-06T09:04:18Z</time>
      </trkpt>
      <trkpt lat="44.82503" lon="-0.7684">
        <ele>38.9</ele>
        <time>2017-12-06T09:04:19Z</time>
      </trkpt>
      <trkpt lat="44.82503" lon="-0.76835">
        <ele>39</ele>
        <time>2017-12-06T09:04:20Z</time>
      </trkpt>
      <trkpt lat="44.82504" lon="-0.7683">
        <ele>39.2</ele>
        <time>2017-12-06T09:04:21Z</time>
      </trkpt>
      <trkpt lat="44.82505" lon="-0.76824">
        <ele>39.4</ele>
        <time>2017-12-06T09:04:22Z</time>
      </trkpt>
      <trkpt lat="44.82507" lon="-0.7682">
        <ele>39.6</ele>
        <time>2017-12-06T09:04:23Z</time>
      </trkpt>
      <trkpt lat="44.82509" lon="-0.76816">
        <ele>39.7</ele>
        <time>2017-12-06T09:04:24Z</time>
      </trkpt>
      <trkpt lat="44.82512" lon="-0.7681">
        <ele>39.9</ele>
        <time>2017-12-06T09:04:25Z</time>
      </trkpt>
      <trkpt lat="44.82514" lon="-0.76804">
        <ele>40.2</ele>
        <time>2017-12-06T09:04:26Z</time>
      </trkpt>
      <trkpt lat="44.82515" lon="-0.76797">
        <ele>40.4</ele>
        <time>2017-12-06T09:04:27Z</time>
      </trkpt>
      <trkpt lat="44.82516" lon="-0.76792">
        <ele>40.5</ele>
        <time>2017-12-06T09:04:28Z</time>
      </trkpt>
      <trkpt lat="44.82515" lon="-0.76785">
        <ele>40.6</ele>
        <time>2017-12-06T09:04:29Z</time>
      </trkpt>
      <trkpt lat="44.82513" lon="-0.76779">
        <ele>40.7</ele>
        <time>2017-12-06T09:04:30Z</time>
      </trkpt>
      <trkpt lat="44.82511" lon="-0.76772">
        <ele>40.8</ele>
        <time>2017-12-06T09:04:31Z</time>
      </trkpt>
      <trkpt lat="44.82509" lon="-0.76767">
        <ele>40.8</ele>
        <time>2017-12-06T09:04:32Z</time>
      </trkpt>
      <trkpt lat="44.82507" lon="-0.76762">
        <ele>40.8</ele>
        <time>2017-12-06T09:04:33Z</time>
      </trkpt>
      <trkpt lat="44.82506" lon="-0.76756">
        <ele>40.9</ele>
        <time>2017-12-06T09:04:34Z</time>
      </trkpt>
      <trkpt lat="44.82507" lon="-0.76751">
        <ele>41</ele>
        <time>2017-12-06T09:04:35Z</time>
      </trkpt>
      <trkpt lat="44.82506" lon="-0.76744">
        <ele>41.1</ele>
        <time>2017-12-06T09:04:36Z</time>
      </trkpt>
      <trkpt lat="44.82505" lon="-0.76738">
        <ele>41.1</ele>
        <time>2017-12-06T09:04:37Z</time>
      </trkpt>
      <trkpt lat="44.82503" lon="-0.76731">
        <ele>41.1</ele>
        <time>2017-12-06T09:04:38Z</time>
      </trkpt>
      <trkpt lat="44.82502" lon="-0.76725">
        <ele>41.1</ele>
        <time>2017-12-06T09:04:39Z</time>
      </trkpt>
      <trkpt lat="44.825" lon="-0.76718">
        <ele>41.2</ele>
        <time>2017-12-06T09:04:40Z</time>
      </trkpt>
      <trkpt lat="44.82499" lon="-0.7671">
        <ele>41.2</ele>
        <time>2017-12-06T09:04:41Z</time>
      </trkpt>
      <trkpt lat="44.82497" lon="-0.76704">
        <ele>41.4</ele>
        <time>2017-12-06T09:04:42Z</time>
      </trkpt>
      <trkpt lat="44.82495" lon="-0.76696">
        <ele>41.8</ele>
        <time>2017-12-06T09:04:43Z</time>
      </trkpt>
      <trkpt lat="44.82493" lon="-0.7669">
        <ele>41.9</ele>
        <time>2017-12-06T09:04:44Z</time>
      </trkpt>
      <trkpt lat="44.8249" lon="-0.76684">
        <ele>42</ele>
        <time>2017-12-06T09:04:45Z</time>
      </trkpt>
      <trkpt lat="44.82489" lon="-0.76678">
        <ele>42.3</ele>
        <time>2017-12-06T09:04:46Z</time>
      </trkpt>
      <trkpt lat="44.8249" lon="-0.76672">
        <ele>42.7</ele>
        <time>2017-12-06T09:04:47Z</time>
      </trkpt>
      <trkpt lat="44.8249" lon="-0.76666">
        <ele>43.1</ele>
        <time>2017-12-06T09:04:48Z</time>
      </trkpt>
      <trkpt lat="44.8249" lon="-0.7666">
        <ele>43.6</ele>
        <time>2017-12-06T09:04:49Z</time>
      </trkpt>
      <trkpt lat="44.8249" lon="-0.76654">
        <ele>43.9</ele>
        <time>2017-12-06T09:04:50Z</time>
      </trkpt>
      <trkpt lat="44.8249" lon="-0.76648">
        <ele>44.1</ele>
        <time>2017-12-06T09:04:51Z</time>
      </trkpt>
      <trkpt lat="44.82489" lon="-0.76641">
        <ele>44.3</ele>
        <time>2017-12-06T09:04:52Z</time>
      </trkpt>
      <trkpt lat="44.82489" lon="-0.76635">
        <ele>44.4</ele>
        <time>2017-12-06T09:04:53Z</time>
      </trkpt>
      <trkpt lat="44.82483" lon="-0.76631">
        <ele>44.4</ele>
        <time>2017-12-06T09:04:54Z</time>
      </trkpt>
      <trkpt lat="44.82479" lon="-0.76627">
        <ele>44.3</ele>
        <time>2017-12-06T09:04:55Z</time>
      </trkpt>
      <trkpt lat="44.82474" lon="-0.76623">
        <ele>44.1</ele>
        <time>2017-12-06T09:04:56Z</time>
      </trkpt>
      <trkpt lat="44.8247" lon="-0.7662">
        <ele>43.9</ele>
        <time>2017-12-06T09:04:57Z</time>
      </trkpt>
      <trkpt lat="44.82466" lon="-0.76618">
        <ele>43.5</ele>
        <time>2017-12-06T09:04:58Z</time>
      </trkpt>
      <trkpt lat="44.8246" lon="-0.76617">
        <ele>43.2</ele>
        <time>2017-12-06T09:04:59Z</time>
      </trkpt>
      <trkpt lat="44.82455" lon="-0.76618">
        <ele>43</ele>
        <time>2017-12-06T09:05:00Z</time>
      </trkpt>
      <trkpt lat="44.8245" lon="-0.76617">
        <ele>43.3</ele>
        <time>2017-12-06T09:05:01Z</time>
      </trkpt>
      <trkpt lat="44.82447" lon="-0.76615">
        <ele>43.6</ele>
        <time>2017-12-06T09:05:02Z</time>
      </trkpt>
      <trkpt lat="44.82446" lon="-0.76607">
        <ele>43.5</ele>
        <time>2017-12-06T09:05:03Z</time>
      </trkpt>
      <trkpt lat="44.82443" lon="-0.76601">
        <ele>43.4</ele>
        <time>2017-12-06T09:05:04Z</time>
      </trkpt>
      <trkpt lat="44.82439" lon="-0.76597">
        <ele>43.3</ele>
        <time>2017-12-06T09:05:05Z</time>
      </trkpt>
      <trkpt lat="44.82435" lon="-0.76594">
        <ele>43.1</ele>
        <time>2017-12-06T09:05:06Z</time>
      </trkpt>
      <trkpt lat="44.82432" lon="-0.76593">
        <ele>42.9</ele>
        <time>2017-12-06T09:05:07Z</time>
      </trkpt>
      <trkpt lat="44.82429" lon="-0.7659">
        <ele>42.9</ele>
        <time>2017-12-06T09:05:08Z</time>
      </trkpt>
      <trkpt lat="44.82426" lon="-0.76587">
        <ele>42.9</ele>
        <time>2017-12-06T09:05:09Z</time>
      </trkpt>
      <trkpt lat="44.82423" lon="-0.76585">
        <ele>42.9</ele>
        <time>2017-12-06T09:05:10Z</time>
      </trkpt>
      <trkpt lat="44.82419" lon="-0.76584">
        <ele>42.9</ele>
        <time>2017-12-06T09:05:11Z</time>
      </trkpt>
      <trkpt lat="44.82416" lon="-0.76585">
        <ele>42.9</ele>
        <time>2017-12-06T09:05:12Z</time>
      </trkpt>
      <trkpt lat="44.82411" lon="-0.76586">
        <ele>42.9</ele>
        <time>2017-12-06T09:05:14Z</time>
      </trkpt>
      <trkpt lat="44.82405" lon="-0.76587">
        <ele>42.8</ele>
        <time>2017-12-06T09:05:16Z</time>
      </trkpt>
      <trkpt lat="44.82402" lon="-0.76588">
        <ele>42.9</ele>
        <time>2017-12-06T09:05:17Z</time>
      </trkpt>
      <trkpt lat="44.82398" lon="-0.76587">
        <ele>42.9</ele>
        <time>2017-12-06T09:05:19Z</time>
      </trkpt>
      <trkpt lat="44.82392" lon="-0.76587">
        <ele>43.2</ele>
        <time>2017-12-06T09:05:21Z</time>
      </trkpt>
      <trkpt lat="44.82386" lon="-0.76586">
        <ele>43.4</ele>
        <time>2017-12-06T09:05:23Z</time>
      </trkpt>
      <trkpt lat="44.82383" lon="-0.76586">
        <ele>43.4</ele>
        <time>2017-12-06T09:05:25Z</time>
      </trkpt>
      <trkpt lat="44.8238" lon="-0.76589">
        <ele>43.4</ele>
        <time>2017-12-06T09:05:27Z</time>
      </trkpt>
      <trkpt lat="44.82376" lon="-0.76591">
        <ele>43.4</ele>
        <time>2017-12-06T09:05:30Z</time>
      </trkpt>
      <trkpt lat="44.82373" lon="-0.76592">
        <ele>43.4</ele>
        <time>2017-12-06T09:05:33Z</time>
      </trkpt>
      <trkpt lat="44.8237" lon="-0.76593">
        <ele>43.4</ele>
        <time>2017-12-06T09:05:35Z</time>
      </trkpt>
      <trkpt lat="44.82367" lon="-0.76594">
        <ele>43.4</ele>
        <time>2017-12-06T09:05:36Z</time>
      </trkpt>
      <trkpt lat="44.82363" lon="-0.76593">
        <ele>43.4</ele>
        <time>2017-12-06T09:05:37Z</time>
      </trkpt>
      <trkpt lat="44.82359" lon="-0.76592">
        <ele>43.4</ele>
        <time>2017-12-06T09:05:38Z</time>
      </trkpt>
      <trkpt lat="44.82356" lon="-0.76591">
        <ele>43.4</ele>
        <time>2017-12-06T09:05:40Z</time>
      </trkpt>
      <trkpt lat="44.82352" lon="-0.7659">
        <ele>43.4</ele>
        <time>2017-12-06T09:05:42Z</time>
      </trkpt>
      <trkpt lat="44.82348" lon="-0.7659">
        <ele>43.4</ele>
        <time>2017-12-06T09:05:43Z</time>
      </trkpt>
      <trkpt lat="44.82345" lon="-0.76592">
        <ele>43.4</ele>
        <time>2017-12-06T09:05:44Z</time>
      </trkpt>
      <trkpt lat="44.82341" lon="-0.76594">
        <ele>43.4</ele>
        <time>2017-12-06T09:05:45Z</time>
      </trkpt>
      <trkpt lat="44.82337" lon="-0.76597">
        <ele>43.4</ele>
        <time>2017-12-06T09:05:47Z</time>
      </trkpt>
      <trkpt lat="44.82329" lon="-0.76598">
        <ele>43.5</ele>
        <time>2017-12-06T09:05:49Z</time>
      </trkpt>
      <trkpt lat="44.82325" lon="-0.766">
        <ele>43.5</ele>
        <time>2017-12-06T09:05:50Z</time>
      </trkpt>
      <trkpt lat="44.82322" lon="-0.76601">
        <ele>43.7</ele>
        <time>2017-12-06T09:05:51Z</time>
      </trkpt>
      <trkpt lat="44.82318" lon="-0.76602">
        <ele>43.8</ele>
        <time>2017-12-06T09:05:52Z</time>
      </trkpt>
      <trkpt lat="44.82316" lon="-0.76603">
        <ele>43.8</ele>
        <time>2017-12-06T09:05:53Z</time>
      </trkpt>
      <trkpt lat="44.82313" lon="-0.76605">
        <ele>43.8</ele>
        <time>2017-12-06T09:05:54Z</time>
      </trkpt>
      <trkpt lat="44.8231" lon="-0.76606">
        <ele>43.8</ele>
        <time>2017-12-06T09:05:55Z</time>
      </trkpt>
      <trkpt lat="44.82306" lon="-0.76608">
        <ele>43.8</ele>
        <time>2017-12-06T09:05:56Z</time>
      </trkpt>
      <trkpt lat="44.82302" lon="-0.76608">
        <ele>43.8</ele>
        <time>2017-12-06T09:05:57Z</time>
      </trkpt>
      <trkpt lat="44.82298" lon="-0.76608">
        <ele>43.8</ele>
        <time>2017-12-06T09:05:58Z</time>
      </trkpt>
      <trkpt lat="44.82293" lon="-0.76609">
        <ele>43.8</ele>
        <time>2017-12-06T09:05:59Z</time>
      </trkpt>
      <trkpt lat="44.8229" lon="-0.7661">
        <ele>43.8</ele>
        <time>2017-12-06T09:06:00Z</time>
      </trkpt>
      <trkpt lat="44.82286" lon="-0.76611">
        <ele>43.8</ele>
        <time>2017-12-06T09:06:01Z</time>
      </trkpt>
      <trkpt lat="44.82283" lon="-0.76612">
        <ele>43.8</ele>
        <time>2017-12-06T09:06:02Z</time>
      </trkpt>
      <trkpt lat="44.82278" lon="-0.76613">
        <ele>43.8</ele>
        <time>2017-12-06T09:06:03Z</time>
      </trkpt>
      <trkpt lat="44.82275" lon="-0.76614">
        <ele>43.8</ele>
        <time>2017-12-06T09:06:04Z</time>
      </trkpt>
      <trkpt lat="44.82272" lon="-0.76613">
        <ele>43.8</ele>
        <time>2017-12-06T09:06:05Z</time>
      </trkpt>
      <trkpt lat="44.82269" lon="-0.76612">
        <ele>43.8</ele>
        <time>2017-12-06T09:06:06Z</time>
      </trkpt>
      <trkpt lat="44.82266" lon="-0.76612">
        <ele>43.8</ele>
        <time>2017-12-06T09:06:07Z</time>
      </trkpt>
      <trkpt lat="44.82262" lon="-0.76612">
        <ele>43.8</ele>
        <time>2017-12-06T09:06:08Z</time>
      </trkpt>
      <trkpt lat="44.82259" lon="-0.76613">
        <ele>43.8</ele>
        <time>2017-12-06T09:06:09Z</time>
      </trkpt>
      <trkpt lat="44.82256" lon="-0.76613">
        <ele>43.8</ele>
        <time>2017-12-06T09:06:10Z</time>
      </trkpt>
      <trkpt lat="44.82253" lon="-0.76614">
        <ele>43.8</ele>
        <time>2017-12-06T09:06:11Z</time>
      </trkpt>
      <trkpt lat="44.82249" lon="-0.76614">
        <ele>44</ele>
        <time>2017-12-06T09:06:12Z</time>
      </trkpt>
      <trkpt lat="44.82246" lon="-0.76613">
        <ele>44.4</ele>
        <time>2017-12-06T09:06:13Z</time>
      </trkpt>
      <trkpt lat="44.82242" lon="-0.7661">
        <ele>44.5</ele>
        <time>2017-12-06T09:06:15Z</time>
      </trkpt>
      <trkpt lat="44.82239" lon="-0.76609">
        <ele>44.7</ele>
        <time>2017-12-06T09:06:17Z</time>
      </trkpt>
      <trkpt lat="44.82236" lon="-0.76608">
        <ele>44.9</ele>
        <time>2017-12-06T09:06:18Z</time>
      </trkpt>
      <trkpt lat="44.82233" lon="-0.76606">
        <ele>45</ele>
        <time>2017-12-06T09:06:19Z</time>
      </trkpt>
      <trkpt lat="44.8223" lon="-0.76603">
        <ele>45.2</ele>
        <time>2017-12-06T09:06:21Z</time>
      </trkpt>
      <trkpt lat="44.82229" lon="-0.76598">
        <ele>45</ele>
        <time>2017-12-06T09:06:23Z</time>
      </trkpt>
      <trkpt lat="44.82226" lon="-0.76596">
        <ele>45.2</ele>
        <time>2017-12-06T09:06:29Z</time>
      </trkpt>
      <trkpt lat="44.82224" lon="-0.766">
        <ele>45.4</ele>
        <time>2017-12-06T09:06:32Z</time>
      </trkpt>
      <trkpt lat="44.82223" lon="-0.76608">
        <ele>45.3</ele>
        <time>2017-12-06T09:06:34Z</time>
      </trkpt>
      <trkpt lat="44.82222" lon="-0.76614">
        <ele>45.2</ele>
        <time>2017-12-06T09:06:36Z</time>
      </trkpt>
      <trkpt lat="44.82223" lon="-0.76621">
        <ele>45</ele>
        <time>2017-12-06T09:06:38Z</time>
      </trkpt>
      <trkpt lat="44.82224" lon="-0.76625">
        <ele>44.9</ele>
        <time>2017-12-06T09:06:39Z</time>
      </trkpt>
      <trkpt lat="44.82223" lon="-0.7663">
        <ele>44.5</ele>
        <time>2017-12-06T09:06:41Z</time>
      </trkpt>
      <trkpt lat="44.82223" lon="-0.76634">
        <ele>44.2</ele>
        <time>2017-12-06T09:06:42Z</time>
      </trkpt>
      <trkpt lat="44.82222" lon="-0.76642">
        <ele>43.9</ele>
        <time>2017-12-06T09:06:44Z</time>
      </trkpt>
      <trkpt lat="44.8222" lon="-0.76647">
        <ele>43.9</ele>
        <time>2017-12-06T09:06:46Z</time>
      </trkpt>
      <trkpt lat="44.82217" lon="-0.76651">
        <ele>43.9</ele>
        <time>2017-12-06T09:06:47Z</time>
      </trkpt>
      <trkpt lat="44.82215" lon="-0.76653">
        <ele>43.9</ele>
        <time>2017-12-06T09:06:48Z</time>
      </trkpt>
      <trkpt lat="44.8221" lon="-0.76657">
        <ele>43.9</ele>
        <time>2017-12-06T09:06:50Z</time>
      </trkpt>
      <trkpt lat="44.82207" lon="-0.76659">
        <ele>43.9</ele>
        <time>2017-12-06T09:06:51Z</time>
      </trkpt>
      <trkpt lat="44.82204" lon="-0.7666">
        <ele>43.9</ele>
        <time>2017-12-06T09:06:52Z</time>
      </trkpt>
      <trkpt lat="44.82201" lon="-0.76662">
        <ele>43.9</ele>
        <time>2017-12-06T09:06:53Z</time>
      </trkpt>
      <trkpt lat="44.82199" lon="-0.76663">
        <ele>44</ele>
        <time>2017-12-06T09:06:54Z</time>
      </trkpt>
      <trkpt lat="44.82196" lon="-0.76665">
        <ele>44</ele>
        <time>2017-12-06T09:06:55Z</time>
      </trkpt>
      <trkpt lat="44.82191" lon="-0.76669">
        <ele>44</ele>
        <time>2017-12-06T09:06:57Z</time>
      </trkpt>
      <trkpt lat="44.82188" lon="-0.76671">
        <ele>44</ele>
        <time>2017-12-06T09:06:58Z</time>
      </trkpt>
      <trkpt lat="44.82185" lon="-0.76673">
        <ele>44</ele>
        <time>2017-12-06T09:06:59Z</time>
      </trkpt>
      <trkpt lat="44.82182" lon="-0.76675">
        <ele>44</ele>
        <time>2017-12-06T09:07:00Z</time>
      </trkpt>
      <trkpt lat="44.8218" lon="-0.76678">
        <ele>44</ele>
        <time>2017-12-06T09:07:01Z</time>
      </trkpt>
      <trkpt lat="44.82177" lon="-0.76681">
        <ele>44</ele>
        <time>2017-12-06T09:07:02Z</time>
      </trkpt>
      <trkpt lat="44.82174" lon="-0.76685">
        <ele>44</ele>
        <time>2017-12-06T09:07:03Z</time>
      </trkpt>
      <trkpt lat="44.8217" lon="-0.76687">
        <ele>44</ele>
        <time>2017-12-06T09:07:04Z</time>
      </trkpt>
      <trkpt lat="44.82168" lon="-0.7669">
        <ele>44</ele>
        <time>2017-12-06T09:07:05Z</time>
      </trkpt>
      <trkpt lat="44.82165" lon="-0.76693">
        <ele>44</ele>
        <time>2017-12-06T09:07:06Z</time>
      </trkpt>
      <trkpt lat="44.8216" lon="-0.76695">
        <ele>44</ele>
        <time>2017-12-06T09:07:07Z</time>
      </trkpt>
      <trkpt lat="44.82157" lon="-0.76696">
        <ele>44</ele>
        <time>2017-12-06T09:07:08Z</time>
      </trkpt>
      <trkpt lat="44.82154" lon="-0.76696">
        <ele>44</ele>
        <time>2017-12-06T09:07:09Z</time>
      </trkpt>
      <trkpt lat="44.82152" lon="-0.76697">
        <ele>44</ele>
        <time>2017-12-06T09:07:10Z</time>
      </trkpt>
      <trkpt lat="44.82149" lon="-0.76698">
        <ele>44</ele>
        <time>2017-12-06T09:07:11Z</time>
      </trkpt>
      <trkpt lat="44.82145" lon="-0.76698">
        <ele>44</ele>
        <time>2017-12-06T09:07:12Z</time>
      </trkpt>
      <trkpt lat="44.82142" lon="-0.76696">
        <ele>44.1</ele>
        <time>2017-12-06T09:07:13Z</time>
      </trkpt>
      <trkpt lat="44.8214" lon="-0.76693">
        <ele>44.2</ele>
        <time>2017-12-06T09:07:14Z</time>
      </trkpt>
      <trkpt lat="44.82138" lon="-0.76688">
        <ele>44.2</ele>
        <time>2017-12-06T09:07:15Z</time>
      </trkpt>
      <trkpt lat="44.82139" lon="-0.76682">
        <ele>44.1</ele>
        <time>2017-12-06T09:07:16Z</time>
      </trkpt>
      <trkpt lat="44.82137" lon="-0.76677">
        <ele>43.8</ele>
        <time>2017-12-06T09:07:17Z</time>
      </trkpt>
      <trkpt lat="44.82136" lon="-0.76672">
        <ele>43.7</ele>
        <time>2017-12-06T09:07:18Z</time>
      </trkpt>
      <trkpt lat="44.82133" lon="-0.76667">
        <ele>43.5</ele>
        <time>2017-12-06T09:07:19Z</time>
      </trkpt>
      <trkpt lat="44.82132" lon="-0.76663">
        <ele>43.4</ele>
        <time>2017-12-06T09:07:20Z</time>
      </trkpt>
      <trkpt lat="44.82126" lon="-0.7666">
        <ele>43.4</ele>
        <time>2017-12-06T09:07:21Z</time>
      </trkpt>
      <trkpt lat="44.82122" lon="-0.76657">
        <ele>43.3</ele>
        <time>2017-12-06T09:07:22Z</time>
      </trkpt>
      <trkpt lat="44.82117" lon="-0.76655">
        <ele>43.4</ele>
        <time>2017-12-06T09:07:23Z</time>
      </trkpt>
      <trkpt lat="44.82112" lon="-0.76653">
        <ele>43.4</ele>
        <time>2017-12-06T09:07:24Z</time>
      </trkpt>
      <trkpt lat="44.82107" lon="-0.7665">
        <ele>43.5</ele>
        <time>2017-12-06T09:07:25Z</time>
      </trkpt>
      <trkpt lat="44.82103" lon="-0.76649">
        <ele>43.6</ele>
        <time>2017-12-06T09:07:26Z</time>
      </trkpt>
      <trkpt lat="44.82099" lon="-0.7665">
        <ele>43.8</ele>
        <time>2017-12-06T09:07:27Z</time>
      </trkpt>
      <trkpt lat="44.82095" lon="-0.76654">
        <ele>43.8</ele>
        <time>2017-12-06T09:07:29Z</time>
      </trkpt>
      <trkpt lat="44.82093" lon="-0.76657">
        <ele>43.9</ele>
        <time>2017-12-06T09:07:30Z</time>
      </trkpt>
      <trkpt lat="44.8209" lon="-0.76663">
        <ele>44</ele>
        <time>2017-12-06T09:07:32Z</time>
      </trkpt>
      <trkpt lat="44.82089" lon="-0.76666">
        <ele>43.9</ele>
        <time>2017-12-06T09:07:33Z</time>
      </trkpt>
      <trkpt lat="44.82087" lon="-0.76669">
        <ele>44</ele>
        <time>2017-12-06T09:07:34Z</time>
      </trkpt>
      <trkpt lat="44.82084" lon="-0.76671">
        <ele>44.2</ele>
        <time>2017-12-06T09:07:35Z</time>
      </trkpt>
      <trkpt lat="44.82081" lon="-0.76673">
        <ele>44.3</ele>
        <time>2017-12-06T09:07:36Z</time>
      </trkpt>
      <trkpt lat="44.82077" lon="-0.76675">
        <ele>44.4</ele>
        <time>2017-12-06T09:07:38Z</time>
      </trkpt>
      <trkpt lat="44.82073" lon="-0.76675">
        <ele>44.6</ele>
        <time>2017-12-06T09:07:40Z</time>
      </trkpt>
      <trkpt lat="44.8207" lon="-0.76678">
        <ele>44.8</ele>
        <time>2017-12-06T09:07:41Z</time>
      </trkpt>
      <trkpt lat="44.82068" lon="-0.7668">
        <ele>44.9</ele>
        <time>2017-12-06T09:07:42Z</time>
      </trkpt>
      <trkpt lat="44.82066" lon="-0.76684">
        <ele>45.1</ele>
        <time>2017-12-06T09:07:43Z</time>
      </trkpt>
      <trkpt lat="44.82065" lon="-0.76689">
        <ele>45.2</ele>
        <time>2017-12-06T09:07:44Z</time>
      </trkpt>
      <trkpt lat="44.82063" lon="-0.76694">
        <ele>45.3</ele>
        <time>2017-12-06T09:07:45Z</time>
      </trkpt>
      <trkpt lat="44.8206" lon="-0.76698">
        <ele>45.7</ele>
        <time>2017-12-06T09:07:46Z</time>
      </trkpt>
      <trkpt lat="44.82057" lon="-0.76701">
        <ele>46</ele>
        <time>2017-12-06T09:07:47Z</time>
      </trkpt>
      <trkpt lat="44.82054" lon="-0.76706">
        <ele>46.1</ele>
        <time>2017-12-06T09:07:48Z</time>
      </trkpt>
      <trkpt lat="44.82051" lon="-0.7671">
        <ele>46.7</ele>
        <time>2017-12-06T09:07:49Z</time>
      </trkpt>
      <trkpt lat="44.82047" lon="-0.76714">
        <ele>47</ele>
        <time>2017-12-06T09:07:50Z</time>
      </trkpt>
      <trkpt lat="44.82045" lon="-0.76719">
        <ele>47</ele>
        <time>2017-12-06T09:07:51Z</time>
      </trkpt>
      <trkpt lat="44.82042" lon="-0.76724">
        <ele>47.3</ele>
        <time>2017-12-06T09:07:52Z</time>
      </trkpt>
      <trkpt lat="44.82038" lon="-0.76726">
        <ele>47.5</ele>
        <time>2017-12-06T09:07:53Z</time>
      </trkpt>
      <trkpt lat="44.82034" lon="-0.76727">
        <ele>47.6</ele>
        <time>2017-12-06T09:07:54Z</time>
      </trkpt>
      <trkpt lat="44.8203" lon="-0.76729">
        <ele>47.7</ele>
        <time>2017-12-06T09:07:55Z</time>
      </trkpt>
      <trkpt lat="44.82026" lon="-0.7673">
        <ele>47.8</ele>
        <time>2017-12-06T09:07:56Z</time>
      </trkpt>
      <trkpt lat="44.82022" lon="-0.76732">
        <ele>47.8</ele>
        <time>2017-12-06T09:07:57Z</time>
      </trkpt>
      <trkpt lat="44.82018" lon="-0.76735">
        <ele>47.7</ele>
        <time>2017-12-06T09:07:58Z</time>
      </trkpt>
      <trkpt lat="44.82014" lon="-0.76737">
        <ele>47.6</ele>
        <time>2017-12-06T09:07:59Z</time>
      </trkpt>
      <trkpt lat="44.82009" lon="-0.76739">
        <ele>47.6</ele>
        <time>2017-12-06T09:08:00Z</time>
      </trkpt>
      <trkpt lat="44.82003" lon="-0.7674">
        <ele>47.6</ele>
        <time>2017-12-06T09:08:01Z</time>
      </trkpt>
      <trkpt lat="44.81997" lon="-0.7674">
        <ele>47.6</ele>
        <time>2017-12-06T09:08:02Z</time>
      </trkpt>
      <trkpt lat="44.81991" lon="-0.76743">
        <ele>47.6</ele>
        <time>2017-12-06T09:08:03Z</time>
      </trkpt>
      <trkpt lat="44.81987" lon="-0.76745">
        <ele>47.5</ele>
        <time>2017-12-06T09:08:04Z</time>
      </trkpt>
      <trkpt lat="44.81981" lon="-0.76747">
        <ele>47.4</ele>
        <time>2017-12-06T09:08:05Z</time>
      </trkpt>
      <trkpt lat="44.81976" lon="-0.76748">
        <ele>47.4</ele>
        <time>2017-12-06T09:08:06Z</time>
      </trkpt>
      <trkpt lat="44.81972" lon="-0.7675">
        <ele>47.3</ele>
        <time>2017-12-06T09:08:07Z</time>
      </trkpt>
      <trkpt lat="44.81968" lon="-0.76751">
        <ele>47.4</ele>
        <time>2017-12-06T09:08:08Z</time>
      </trkpt>
      <trkpt lat="44.81964" lon="-0.76754">
        <ele>47.4</ele>
        <time>2017-12-06T09:08:09Z</time>
      </trkpt>
      <trkpt lat="44.81961" lon="-0.76757">
        <ele>47.3</ele>
        <time>2017-12-06T09:08:10Z</time>
      </trkpt>
      <trkpt lat="44.81957" lon="-0.7676">
        <ele>47.2</ele>
        <time>2017-12-06T09:08:11Z</time>
      </trkpt>
      <trkpt lat="44.81953" lon="-0.76762">
        <ele>47.3</ele>
        <time>2017-12-06T09:08:12Z</time>
      </trkpt>
      <trkpt lat="44.81949" lon="-0.76765">
        <ele>47.2</ele>
        <time>2017-12-06T09:08:13Z</time>
      </trkpt>
      <trkpt lat="44.81945" lon="-0.76768">
        <ele>47.2</ele>
        <time>2017-12-06T09:08:14Z</time>
      </trkpt>
      <trkpt lat="44.81942" lon="-0.76771">
        <ele>47.2</ele>
        <time>2017-12-06T09:08:15Z</time>
      </trkpt>
      <trkpt lat="44.8194" lon="-0.76777">
        <ele>47</ele>
        <time>2017-12-06T09:08:16Z</time>
      </trkpt>
      <trkpt lat="44.81935" lon="-0.76781">
        <ele>47</ele>
        <time>2017-12-06T09:08:17Z</time>
      </trkpt>
      <trkpt lat="44.81931" lon="-0.76783">
        <ele>47.1</ele>
        <time>2017-12-06T09:08:18Z</time>
      </trkpt>
      <trkpt lat="44.81928" lon="-0.76785">
        <ele>47</ele>
        <time>2017-12-06T09:08:19Z</time>
      </trkpt>
      <trkpt lat="44.81927" lon="-0.7679">
        <ele>46.9</ele>
        <time>2017-12-06T09:08:20Z</time>
      </trkpt>
      <trkpt lat="44.81925" lon="-0.76793">
        <ele>46.8</ele>
        <time>2017-12-06T09:08:21Z</time>
      </trkpt>
      <trkpt lat="44.81923" lon="-0.76799">
        <ele>46.8</ele>
        <time>2017-12-06T09:08:22Z</time>
      </trkpt>
      <trkpt lat="44.8192" lon="-0.76804">
        <ele>46.6</ele>
        <time>2017-12-06T09:08:23Z</time>
      </trkpt>
      <trkpt lat="44.81919" lon="-0.76807">
        <ele>46.6</ele>
        <time>2017-12-06T09:08:24Z</time>
      </trkpt>
      <trkpt lat="44.81916" lon="-0.7681">
        <ele>46.6</ele>
        <time>2017-12-06T09:08:25Z</time>
      </trkpt>
      <trkpt lat="44.81913" lon="-0.76811">
        <ele>46.6</ele>
        <time>2017-12-06T09:08:26Z</time>
      </trkpt>
      <trkpt lat="44.81909" lon="-0.76817">
        <ele>46.5</ele>
        <time>2017-12-06T09:08:28Z</time>
      </trkpt>
      <trkpt lat="44.81907" lon="-0.76821">
        <ele>46.5</ele>
        <time>2017-12-06T09:08:29Z</time>
      </trkpt>
      <trkpt lat="44.81905" lon="-0.76825">
        <ele>46.4</ele>
        <time>2017-12-06T09:08:30Z</time>
      </trkpt>
      <trkpt lat="44.81903" lon="-0.76829">
        <ele>46.4</ele>
        <time>2017-12-06T09:08:31Z</time>
      </trkpt>
      <trkpt lat="44.819" lon="-0.76832">
        <ele>46.4</ele>
        <time>2017-12-06T09:08:32Z</time>
      </trkpt>
      <trkpt lat="44.81896" lon="-0.76833">
        <ele>46.4</ele>
        <time>2017-12-06T09:08:33Z</time>
      </trkpt>
      <trkpt lat="44.81893" lon="-0.76836">
        <ele>46.4</ele>
        <time>2017-12-06T09:08:34Z</time>
      </trkpt>
      <trkpt lat="44.8189" lon="-0.76839">
        <ele>46.4</ele>
        <time>2017-12-06T09:08:35Z</time>
      </trkpt>
      <trkpt lat="44.81888" lon="-0.76841">
        <ele>46.4</ele>
        <time>2017-12-06T09:08:36Z</time>
      </trkpt>
      <trkpt lat="44.81884" lon="-0.76844">
        <ele>46.4</ele>
        <time>2017-12-06T09:08:37Z</time>
      </trkpt>
      <trkpt lat="44.8188" lon="-0.76848">
        <ele>46.5</ele>
        <time>2017-12-06T09:08:38Z</time>
      </trkpt>
      <trkpt lat="44.81878" lon="-0.76851">
        <ele>46.5</ele>
        <time>2017-12-06T09:08:39Z</time>
      </trkpt>
      <trkpt lat="44.81877" lon="-0.76857">
        <ele>46.6</ele>
        <time>2017-12-06T09:08:40Z</time>
      </trkpt>
      <trkpt lat="44.81875" lon="-0.76861">
        <ele>46.6</ele>
        <time>2017-12-06T09:08:41Z</time>
      </trkpt>
      <trkpt lat="44.81872" lon="-0.76865">
        <ele>46.6</ele>
        <time>2017-12-06T09:08:42Z</time>
      </trkpt>
      <trkpt lat="44.81869" lon="-0.7687">
        <ele>46.7</ele>
        <time>2017-12-06T09:08:43Z</time>
      </trkpt>
      <trkpt lat="44.81866" lon="-0.76874">
        <ele>46.7</ele>
        <time>2017-12-06T09:08:44Z</time>
      </trkpt>
      <trkpt lat="44.81863" lon="-0.76879">
        <ele>46.7</ele>
        <time>2017-12-06T09:08:45Z</time>
      </trkpt>
      <trkpt lat="44.81861" lon="-0.76882">
        <ele>46.8</ele>
        <time>2017-12-06T09:08:46Z</time>
      </trkpt>
      <trkpt lat="44.81858" lon="-0.76886">
        <ele>46.8</ele>
        <time>2017-12-06T09:08:47Z</time>
      </trkpt>
      <trkpt lat="44.81855" lon="-0.7689">
        <ele>46.8</ele>
        <time>2017-12-06T09:08:48Z</time>
      </trkpt>
      <trkpt lat="44.81853" lon="-0.76894">
        <ele>46.7</ele>
        <time>2017-12-06T09:08:49Z</time>
      </trkpt>
      <trkpt lat="44.81851" lon="-0.76898">
        <ele>46.7</ele>
        <time>2017-12-06T09:08:50Z</time>
      </trkpt>
      <trkpt lat="44.81847" lon="-0.769">
        <ele>46.8</ele>
        <time>2017-12-06T09:08:51Z</time>
      </trkpt>
      <trkpt lat="44.81844" lon="-0.76904">
        <ele>46.8</ele>
        <time>2017-12-06T09:08:52Z</time>
      </trkpt>
      <trkpt lat="44.81842" lon="-0.76906">
        <ele>46.8</ele>
        <time>2017-12-06T09:08:53Z</time>
      </trkpt>
      <trkpt lat="44.81839" lon="-0.76909">
        <ele>46.8</ele>
        <time>2017-12-06T09:08:54Z</time>
      </trkpt>
      <trkpt lat="44.81837" lon="-0.76913">
        <ele>46.8</ele>
        <time>2017-12-06T09:08:55Z</time>
      </trkpt>
      <trkpt lat="44.81833" lon="-0.76916">
        <ele>46.9</ele>
        <time>2017-12-06T09:08:56Z</time>
      </trkpt>
      <trkpt lat="44.81829" lon="-0.76918">
        <ele>46.9</ele>
        <time>2017-12-06T09:08:57Z</time>
      </trkpt>
      <trkpt lat="44.81827" lon="-0.7692">
        <ele>47</ele>
        <time>2017-12-06T09:08:58Z</time>
      </trkpt>
      <trkpt lat="44.81823" lon="-0.76924">
        <ele>47</ele>
        <time>2017-12-06T09:08:59Z</time>
      </trkpt>
      <trkpt lat="44.81819" lon="-0.76928">
        <ele>47</ele>
        <time>2017-12-06T09:09:00Z</time>
      </trkpt>
      <trkpt lat="44.81814" lon="-0.76931">
        <ele>47.1</ele>
        <time>2017-12-06T09:09:01Z</time>
      </trkpt>
      <trkpt lat="44.81811" lon="-0.76935">
        <ele>47.1</ele>
        <time>2017-12-06T09:09:02Z</time>
      </trkpt>
      <trkpt lat="44.81806" lon="-0.76938">
        <ele>47.2</ele>
        <time>2017-12-06T09:09:03Z</time>
      </trkpt>
      <trkpt lat="44.81801" lon="-0.7694">
        <ele>47.2</ele>
        <time>2017-12-06T09:09:04Z</time>
      </trkpt>
      <trkpt lat="44.81796" lon="-0.76941">
        <ele>47.3</ele>
        <time>2017-12-06T09:09:05Z</time>
      </trkpt>
      <trkpt lat="44.81792" lon="-0.76941">
        <ele>47.3</ele>
        <time>2017-12-06T09:09:06Z</time>
      </trkpt>
      <trkpt lat="44.81789" lon="-0.76943">
        <ele>47.3</ele>
        <time>2017-12-06T09:09:07Z</time>
      </trkpt>
      <trkpt lat="44.81785" lon="-0.76946">
        <ele>47.3</ele>
        <time>2017-12-06T09:09:08Z</time>
      </trkpt>
      <trkpt lat="44.81781" lon="-0.76949">
        <ele>47.3</ele>
        <time>2017-12-06T09:09:09Z</time>
      </trkpt>
      <trkpt lat="44.81777" lon="-0.76954">
        <ele>47.3</ele>
        <time>2017-12-06T09:09:10Z</time>
      </trkpt>
      <trkpt lat="44.81772" lon="-0.76958">
        <ele>47.3</ele>
        <time>2017-12-06T09:09:11Z</time>
      </trkpt>
      <trkpt lat="44.81767" lon="-0.76962">
        <ele>47.2</ele>
        <time>2017-12-06T09:09:12Z</time>
      </trkpt>
      <trkpt lat="44.81762" lon="-0.76964">
        <ele>47.1</ele>
        <time>2017-12-06T09:09:13Z</time>
      </trkpt>
      <trkpt lat="44.81757" lon="-0.76966">
        <ele>47</ele>
        <time>2017-12-06T09:09:14Z</time>
      </trkpt>
      <trkpt lat="44.81753" lon="-0.76967">
        <ele>46.9</ele>
        <time>2017-12-06T09:09:15Z</time>
      </trkpt>
      <trkpt lat="44.81749" lon="-0.76969">
        <ele>46.9</ele>
        <time>2017-12-06T09:09:16Z</time>
      </trkpt>
      <trkpt lat="44.81746" lon="-0.7697">
        <ele>46.9</ele>
        <time>2017-12-06T09:09:17Z</time>
      </trkpt>
      <trkpt lat="44.81743" lon="-0.76971">
        <ele>46.9</ele>
        <time>2017-12-06T09:09:18Z</time>
      </trkpt>
      <trkpt lat="44.81739" lon="-0.76971">
        <ele>46.9</ele>
        <time>2017-12-06T09:09:19Z</time>
      </trkpt>
      <trkpt lat="44.81735" lon="-0.76972">
        <ele>46.8</ele>
        <time>2017-12-06T09:09:20Z</time>
      </trkpt>
      <trkpt lat="44.81731" lon="-0.76974">
        <ele>46.8</ele>
        <time>2017-12-06T09:09:21Z</time>
      </trkpt>
      <trkpt lat="44.81727" lon="-0.76975">
        <ele>46.8</ele>
        <time>2017-12-06T09:09:22Z</time>
      </trkpt>
      <trkpt lat="44.81724" lon="-0.7697">
        <ele>46.9</ele>
        <time>2017-12-06T09:09:24Z</time>
      </trkpt>
      <trkpt lat="44.8172" lon="-0.76967">
        <ele>46.9</ele>
        <time>2017-12-06T09:09:26Z</time>
      </trkpt>
      <trkpt lat="44.81717" lon="-0.76966">
        <ele>46.9</ele>
        <time>2017-12-06T09:09:27Z</time>
      </trkpt>
      <trkpt lat="44.81714" lon="-0.76965">
        <ele>46.9</ele>
        <time>2017-12-06T09:09:28Z</time>
      </trkpt>
      <trkpt lat="44.81711" lon="-0.76967">
        <ele>46.9</ele>
        <time>2017-12-06T09:09:29Z</time>
      </trkpt>
      <trkpt lat="44.81708" lon="-0.76972">
        <ele>47</ele>
        <time>2017-12-06T09:09:30Z</time>
      </trkpt>
      <trkpt lat="44.81704" lon="-0.76974">
        <ele>46.9</ele>
        <time>2017-12-06T09:09:31Z</time>
      </trkpt>
      <trkpt lat="44.81698" lon="-0.76977">
        <ele>46.9</ele>
        <time>2017-12-06T09:09:32Z</time>
      </trkpt>
      <trkpt lat="44.81693" lon="-0.76976">
        <ele>46.8</ele>
        <time>2017-12-06T09:09:33Z</time>
      </trkpt>
      <trkpt lat="44.81689" lon="-0.76976">
        <ele>46.8</ele>
        <time>2017-12-06T09:09:34Z</time>
      </trkpt>
      <trkpt lat="44.81686" lon="-0.76979">
        <ele>46.7</ele>
        <time>2017-12-06T09:09:35Z</time>
      </trkpt>
      <trkpt lat="44.81682" lon="-0.76981">
        <ele>46.7</ele>
        <time>2017-12-06T09:09:36Z</time>
      </trkpt>
      <trkpt lat="44.81677" lon="-0.76984">
        <ele>46.6</ele>
        <time>2017-12-06T09:09:37Z</time>
      </trkpt>
      <trkpt lat="44.81672" lon="-0.76987">
        <ele>46.5</ele>
        <time>2017-12-06T09:09:38Z</time>
      </trkpt>
      <trkpt lat="44.81668" lon="-0.76989">
        <ele>46.4</ele>
        <time>2017-12-06T09:09:39Z</time>
      </trkpt>
      <trkpt lat="44.81665" lon="-0.76992">
        <ele>46.3</ele>
        <time>2017-12-06T09:09:40Z</time>
      </trkpt>
      <trkpt lat="44.81661" lon="-0.76994">
        <ele>46.2</ele>
        <time>2017-12-06T09:09:41Z</time>
      </trkpt>
      <trkpt lat="44.81657" lon="-0.76996">
        <ele>46.2</ele>
        <time>2017-12-06T09:09:42Z</time>
      </trkpt>
      <trkpt lat="44.81654" lon="-0.77">
        <ele>46.1</ele>
        <time>2017-12-06T09:09:43Z</time>
      </trkpt>
      <trkpt lat="44.8165" lon="-0.77005">
        <ele>46.1</ele>
        <time>2017-12-06T09:09:44Z</time>
      </trkpt>
      <trkpt lat="44.81645" lon="-0.77007">
        <ele>46</ele>
        <time>2017-12-06T09:09:45Z</time>
      </trkpt>
      <trkpt lat="44.8164" lon="-0.77013">
        <ele>46</ele>
        <time>2017-12-06T09:09:46Z</time>
      </trkpt>
      <trkpt lat="44.81636" lon="-0.77015">
        <ele>45.9</ele>
        <time>2017-12-06T09:09:47Z</time>
      </trkpt>
      <trkpt lat="44.81632" lon="-0.77018">
        <ele>45.9</ele>
        <time>2017-12-06T09:09:48Z</time>
      </trkpt>
      <trkpt lat="44.81628" lon="-0.77021">
        <ele>45.9</ele>
        <time>2017-12-06T09:09:49Z</time>
      </trkpt>
      <trkpt lat="44.81625" lon="-0.77022">
        <ele>45.8</ele>
        <time>2017-12-06T09:09:50Z</time>
      </trkpt>
      <trkpt lat="44.81622" lon="-0.77021">
        <ele>45.8</ele>
        <time>2017-12-06T09:09:51Z</time>
      </trkpt>
      <trkpt lat="44.81618" lon="-0.77021">
        <ele>45.8</ele>
        <time>2017-12-06T09:09:52Z</time>
      </trkpt>
      <trkpt lat="44.81615" lon="-0.7702">
        <ele>45.7</ele>
        <time>2017-12-06T09:09:53Z</time>
      </trkpt>
      <trkpt lat="44.81609" lon="-0.77018">
        <ele>45.6</ele>
        <time>2017-12-06T09:09:55Z</time>
      </trkpt>
      <trkpt lat="44.81606" lon="-0.77016">
        <ele>45.6</ele>
        <time>2017-12-06T09:09:56Z</time>
      </trkpt>
      <trkpt lat="44.81602" lon="-0.77017">
        <ele>45.5</ele>
        <time>2017-12-06T09:09:58Z</time>
      </trkpt>
      <trkpt lat="44.81599" lon="-0.77018">
        <ele>45.4</ele>
        <time>2017-12-06T09:10:00Z</time>
      </trkpt>
      <trkpt lat="44.81595" lon="-0.77022">
        <ele>45.2</ele>
        <time>2017-12-06T09:10:02Z</time>
      </trkpt>
      <trkpt lat="44.81597" lon="-0.77027">
        <ele>44.8</ele>
        <time>2017-12-06T09:10:04Z</time>
      </trkpt>
      <trkpt lat="44.816" lon="-0.77031">
        <ele>45</ele>
        <time>2017-12-06T09:10:06Z</time>
      </trkpt>
      <trkpt lat="44.81601" lon="-0.77035">
        <ele>45.2</ele>
        <time>2017-12-06T09:10:07Z</time>
      </trkpt>
      <trkpt lat="44.81603" lon="-0.77038">
        <ele>45.3</ele>
        <time>2017-12-06T09:10:08Z</time>
      </trkpt>
      <trkpt lat="44.81605" lon="-0.77043">
        <ele>45.5</ele>
        <time>2017-12-06T09:10:09Z</time>
      </trkpt>
      <trkpt lat="44.81604" lon="-0.77047">
        <ele>45.6</ele>
        <time>2017-12-06T09:10:10Z</time>
      </trkpt>
      <trkpt lat="44.81604" lon="-0.7705">
        <ele>45.8</ele>
        <time>2017-12-06T09:10:12Z</time>
      </trkpt>
      <trkpt lat="44.81605" lon="-0.77055">
        <ele>45.9</ele>
        <time>2017-12-06T09:10:14Z</time>
      </trkpt>
      <trkpt lat="44.81607" lon="-0.77058">
        <ele>46.1</ele>
        <time>2017-12-06T09:10:16Z</time>
      </trkpt>
      <trkpt lat="44.8161" lon="-0.7706">
        <ele>47.3</ele>
        <time>2017-12-06T09:10:18Z</time>
      </trkpt>
      <trkpt lat="44.81613" lon="-0.7706">
        <ele>47.4</ele>
        <time>2017-12-06T09:10:20Z</time>
      </trkpt>
      <trkpt lat="44.81616" lon="-0.77055">
        <ele>47.5</ele>
        <time>2017-12-06T09:10:22Z</time>
      </trkpt>
      <trkpt lat="44.81619" lon="-0.7705">
        <ele>47.8</ele>
        <time>2017-12-06T09:10:24Z</time>
      </trkpt>
      <trkpt lat="44.81623" lon="-0.77045">
        <ele>48</ele>
        <time>2017-12-06T09:10:26Z</time>
      </trkpt>
      <trkpt lat="44.81625" lon="-0.77043">
        <ele>48.2</ele>
        <time>2017-12-06T09:10:27Z</time>
      </trkpt>
      <trkpt lat="44.81629" lon="-0.77043">
        <ele>48.3</ele>
        <time>2017-12-06T09:10:28Z</time>
      </trkpt>
      <trkpt lat="44.81631" lon="-0.77042">
        <ele>48.5</ele>
        <time>2017-12-06T09:10:29Z</time>
      </trkpt>
      <trkpt lat="44.81634" lon="-0.7704">
        <ele>48.7</ele>
        <time>2017-12-06T09:10:30Z</time>
      </trkpt>
      <trkpt lat="44.81637" lon="-0.77038">
        <ele>48.9</ele>
        <time>2017-12-06T09:10:31Z</time>
      </trkpt>
      <trkpt lat="44.8164" lon="-0.77035">
        <ele>49</ele>
        <time>2017-12-06T09:10:32Z</time>
      </trkpt>
      <trkpt lat="44.81643" lon="-0.77033">
        <ele>49.2</ele>
        <time>2017-12-06T09:10:33Z</time>
      </trkpt>
      <trkpt lat="44.81647" lon="-0.77031">
        <ele>49.3</ele>
        <time>2017-12-06T09:10:34Z</time>
      </trkpt>
      <trkpt lat="44.8165" lon="-0.7703">
        <ele>49.4</ele>
        <time>2017-12-06T09:10:35Z</time>
      </trkpt>
      <trkpt lat="44.81653" lon="-0.77029">
        <ele>49.6</ele>
        <time>2017-12-06T09:10:36Z</time>
      </trkpt>
      <trkpt lat="44.81657" lon="-0.77027">
        <ele>49.8</ele>
        <time>2017-12-06T09:10:37Z</time>
      </trkpt>
      <trkpt lat="44.8166" lon="-0.77026">
        <ele>49.9</ele>
        <time>2017-12-06T09:10:38Z</time>
      </trkpt>
      <trkpt lat="44.81664" lon="-0.77021">
        <ele>50.2</ele>
        <time>2017-12-06T09:10:39Z</time>
      </trkpt>
      <trkpt lat="44.81666" lon="-0.77019">
        <ele>50.3</ele>
        <time>2017-12-06T09:10:40Z</time>
      </trkpt>
      <trkpt lat="44.8167" lon="-0.77021">
        <ele>50.5</ele>
        <time>2017-12-06T09:10:41Z</time>
      </trkpt>
      <trkpt lat="44.81676" lon="-0.77022">
        <ele>50.8</ele>
        <time>2017-12-06T09:10:43Z</time>
      </trkpt>
      <trkpt lat="44.8168" lon="-0.77023">
        <ele>51</ele>
        <time>2017-12-06T09:10:44Z</time>
      </trkpt>
      <trkpt lat="44.81685" lon="-0.77021">
        <ele>51.2</ele>
        <time>2017-12-06T09:10:45Z</time>
      </trkpt>
      <trkpt lat="44.81689" lon="-0.7702">
        <ele>51.4</ele>
        <time>2017-12-06T09:10:46Z</time>
      </trkpt>
      <trkpt lat="44.81693" lon="-0.7702">
        <ele>51.6</ele>
        <time>2017-12-06T09:10:47Z</time>
      </trkpt>
      <trkpt lat="44.81698" lon="-0.77021">
        <ele>51.8</ele>
        <time>2017-12-06T09:10:48Z</time>
      </trkpt>
      <trkpt lat="44.81702" lon="-0.77022">
        <ele>52</ele>
        <time>2017-12-06T09:10:49Z</time>
      </trkpt>
      <trkpt lat="44.81708" lon="-0.77019">
        <ele>52.2</ele>
        <time>2017-12-06T09:10:50Z</time>
      </trkpt>
      <trkpt lat="44.81712" lon="-0.77017">
        <ele>52.4</ele>
        <time>2017-12-06T09:10:51Z</time>
      </trkpt>
      <trkpt lat="44.81717" lon="-0.77015">
        <ele>52.6</ele>
        <time>2017-12-06T09:10:52Z</time>
      </trkpt>
      <trkpt lat="44.81722" lon="-0.77012">
        <ele>52.8</ele>
        <time>2017-12-06T09:10:53Z</time>
      </trkpt>
      <trkpt lat="44.81726" lon="-0.77011">
        <ele>52.9</ele>
        <time>2017-12-06T09:10:54Z</time>
      </trkpt>
      <trkpt lat="44.81729" lon="-0.7701">
        <ele>53.1</ele>
        <time>2017-12-06T09:10:55Z</time>
      </trkpt>
      <trkpt lat="44.81734" lon="-0.77007">
        <ele>53.3</ele>
        <time>2017-12-06T09:10:56Z</time>
      </trkpt>
      <trkpt lat="44.81737" lon="-0.77006">
        <ele>53.4</ele>
        <time>2017-12-06T09:10:57Z</time>
      </trkpt>
      <trkpt lat="44.8174" lon="-0.77002">
        <ele>53.5</ele>
        <time>2017-12-06T09:10:58Z</time>
      </trkpt>
      <trkpt lat="44.81744" lon="-0.77">
        <ele>53.7</ele>
        <time>2017-12-06T09:10:59Z</time>
      </trkpt>
      <trkpt lat="44.81747" lon="-0.76997">
        <ele>53.8</ele>
        <time>2017-12-06T09:11:00Z</time>
      </trkpt>
      <trkpt lat="44.81751" lon="-0.76994">
        <ele>54</ele>
        <time>2017-12-06T09:11:01Z</time>
      </trkpt>
      <trkpt lat="44.81755" lon="-0.76991">
        <ele>54.1</ele>
        <time>2017-12-06T09:11:02Z</time>
      </trkpt>
      <trkpt lat="44.81757" lon="-0.76991">
        <ele>54.2</ele>
        <time>2017-12-06T09:11:03Z</time>
      </trkpt>
      <trkpt lat="44.81761" lon="-0.7699">
        <ele>54.3</ele>
        <time>2017-12-06T09:11:04Z</time>
      </trkpt>
      <trkpt lat="44.81764" lon="-0.76987">
        <ele>54.4</ele>
        <time>2017-12-06T09:11:05Z</time>
      </trkpt>
      <trkpt lat="44.81767" lon="-0.76984">
        <ele>54.5</ele>
        <time>2017-12-06T09:11:06Z</time>
      </trkpt>
      <trkpt lat="44.81771" lon="-0.76982">
        <ele>54.6</ele>
        <time>2017-12-06T09:11:07Z</time>
      </trkpt>
      <trkpt lat="44.81774" lon="-0.76981">
        <ele>54.7</ele>
        <time>2017-12-06T09:11:08Z</time>
      </trkpt>
      <trkpt lat="44.81777" lon="-0.76978">
        <ele>54.8</ele>
        <time>2017-12-06T09:11:09Z</time>
      </trkpt>
      <trkpt lat="44.8178" lon="-0.76975">
        <ele>54.8</ele>
        <time>2017-12-06T09:11:11Z</time>
      </trkpt>
      <trkpt lat="44.81786" lon="-0.76975">
        <ele>54.9</ele>
        <time>2017-12-06T09:11:13Z</time>
      </trkpt>
      <trkpt lat="44.81789" lon="-0.76975">
        <ele>54.9</ele>
        <time>2017-12-06T09:11:14Z</time>
      </trkpt>
      <trkpt lat="44.81792" lon="-0.76976">
        <ele>54.9</ele>
        <time>2017-12-06T09:11:15Z</time>
      </trkpt>
      <trkpt lat="44.81796" lon="-0.76976">
        <ele>55</ele>
        <time>2017-12-06T09:11:17Z</time>
      </trkpt>
      <trkpt lat="44.81799" lon="-0.76976">
        <ele>55</ele>
        <time>2017-12-06T09:11:19Z</time>
      </trkpt>
      <trkpt lat="44.81803" lon="-0.76976">
        <ele>55</ele>
        <time>2017-12-06T09:11:21Z</time>
      </trkpt>
      <trkpt lat="44.81807" lon="-0.76975">
        <ele>55.1</ele>
        <time>2017-12-06T09:11:22Z</time>
      </trkpt>
      <trkpt lat="44.8181" lon="-0.76974">
        <ele>55.1</ele>
        <time>2017-12-06T09:11:23Z</time>
      </trkpt>
      <trkpt lat="44.81813" lon="-0.76973">
        <ele>55.2</ele>
        <time>2017-12-06T09:11:24Z</time>
      </trkpt>
      <trkpt lat="44.81817" lon="-0.76972">
        <ele>55.1</ele>
        <time>2017-12-06T09:11:25Z</time>
      </trkpt>
      <trkpt lat="44.81821" lon="-0.76974">
        <ele>55</ele>
        <time>2017-12-06T09:11:26Z</time>
      </trkpt>
      <trkpt lat="44.81824" lon="-0.76974">
        <ele>55</ele>
        <time>2017-12-06T09:11:27Z</time>
      </trkpt>
      <trkpt lat="44.81826" lon="-0.76977">
        <ele>55</ele>
        <time>2017-12-06T09:11:28Z</time>
      </trkpt>
      <trkpt lat="44.8183" lon="-0.76978">
        <ele>54.8</ele>
        <time>2017-12-06T09:11:29Z</time>
      </trkpt>
      <trkpt lat="44.81833" lon="-0.76981">
        <ele>54.7</ele>
        <time>2017-12-06T09:11:30Z</time>
      </trkpt>
      <trkpt lat="44.81836" lon="-0.76983">
        <ele>54.6</ele>
        <time>2017-12-06T09:11:31Z</time>
      </trkpt>
      <trkpt lat="44.81839" lon="-0.76985">
        <ele>54.4</ele>
        <time>2017-12-06T09:11:32Z</time>
      </trkpt>
      <trkpt lat="44.81841" lon="-0.76987">
        <ele>54.2</ele>
        <time>2017-12-06T09:11:33Z</time>
      </trkpt>
      <trkpt lat="44.81844" lon="-0.7699">
        <ele>54</ele>
        <time>2017-12-06T09:11:34Z</time>
      </trkpt>
      <trkpt lat="44.81847" lon="-0.7699">
        <ele>53.9</ele>
        <time>2017-12-06T09:11:35Z</time>
      </trkpt>
      <trkpt lat="44.81848" lon="-0.76994">
        <ele>53.8</ele>
        <time>2017-12-06T09:11:36Z</time>
      </trkpt>
      <trkpt lat="44.81851" lon="-0.76996">
        <ele>53.5</ele>
        <time>2017-12-06T09:11:37Z</time>
      </trkpt>
      <trkpt lat="44.81853" lon="-0.77">
        <ele>53.1</ele>
        <time>2017-12-06T09:11:38Z</time>
      </trkpt>
      <trkpt lat="44.81856" lon="-0.77001">
        <ele>52.9</ele>
        <time>2017-12-06T09:11:39Z</time>
      </trkpt>
      <trkpt lat="44.8186" lon="-0.77001">
        <ele>52.6</ele>
        <time>2017-12-06T09:11:40Z</time>
      </trkpt>
      <trkpt lat="44.81863" lon="-0.77004">
        <ele>52.2</ele>
        <time>2017-12-06T09:11:41Z</time>
      </trkpt>
      <trkpt lat="44.81865" lon="-0.77007">
        <ele>52</ele>
        <time>2017-12-06T09:11:42Z</time>
      </trkpt>
      <trkpt lat="44.81867" lon="-0.7701">
        <ele>51.8</ele>
        <time>2017-12-06T09:11:43Z</time>
      </trkpt>
      <trkpt lat="44.8187" lon="-0.77012">
        <ele>51.4</ele>
        <time>2017-12-06T09:11:44Z</time>
      </trkpt>
      <trkpt lat="44.81872" lon="-0.77015">
        <ele>51.2</ele>
        <time>2017-12-06T09:11:45Z</time>
      </trkpt>
      <trkpt lat="44.81874" lon="-0.77018">
        <ele>51</ele>
        <time>2017-12-06T09:11:46Z</time>
      </trkpt>
      <trkpt lat="44.81877" lon="-0.77023">
        <ele>50.6</ele>
        <time>2017-12-06T09:11:47Z</time>
      </trkpt>
      <trkpt lat="44.81878" lon="-0.77028">
        <ele>50.2</ele>
        <time>2017-12-06T09:11:48Z</time>
      </trkpt>
      <trkpt lat="44.81881" lon="-0.77032">
        <ele>49.8</ele>
        <time>2017-12-06T09:11:49Z</time>
      </trkpt>
      <trkpt lat="44.81883" lon="-0.77036">
        <ele>49.6</ele>
        <time>2017-12-06T09:11:50Z</time>
      </trkpt>
      <trkpt lat="44.81885" lon="-0.77042">
        <ele>49.3</ele>
        <time>2017-12-06T09:11:51Z</time>
      </trkpt>
      <trkpt lat="44.81888" lon="-0.77046">
        <ele>49</ele>
        <time>2017-12-06T09:11:52Z</time>
      </trkpt>
      <trkpt lat="44.81892" lon="-0.77048">
        <ele>48.9</ele>
        <time>2017-12-06T09:11:54Z</time>
      </trkpt>
      <trkpt lat="44.81895" lon="-0.77046">
        <ele>48.9</ele>
        <time>2017-12-06T09:11:55Z</time>
      </trkpt>
      <trkpt lat="44.81899" lon="-0.77045">
        <ele>48.9</ele>
        <time>2017-12-06T09:11:56Z</time>
      </trkpt>
      <trkpt lat="44.81903" lon="-0.77044">
        <ele>48.9</ele>
        <time>2017-12-06T09:11:57Z</time>
      </trkpt>
      <trkpt lat="44.81907" lon="-0.77043">
        <ele>48.9</ele>
        <time>2017-12-06T09:11:58Z</time>
      </trkpt>
      <trkpt lat="44.81911" lon="-0.7704">
        <ele>48.9</ele>
        <time>2017-12-06T09:11:59Z</time>
      </trkpt>
      <trkpt lat="44.81915" lon="-0.77037">
        <ele>48.9</ele>
        <time>2017-12-06T09:12:00Z</time>
      </trkpt>
      <trkpt lat="44.81919" lon="-0.77034">
        <ele>48.9</ele>
        <time>2017-12-06T09:12:01Z</time>
      </trkpt>
      <trkpt lat="44.81923" lon="-0.77033">
        <ele>48.9</ele>
        <time>2017-12-06T09:12:02Z</time>
      </trkpt>
      <trkpt lat="44.81926" lon="-0.7703">
        <ele>48.9</ele>
        <time>2017-12-06T09:12:03Z</time>
      </trkpt>
      <trkpt lat="44.81927" lon="-0.77025">
        <ele>48.9</ele>
        <time>2017-12-06T09:12:04Z</time>
      </trkpt>
      <trkpt lat="44.8193" lon="-0.77021">
        <ele>48.9</ele>
        <time>2017-12-06T09:12:05Z</time>
      </trkpt>
      <trkpt lat="44.81932" lon="-0.77018">
        <ele>48.9</ele>
        <time>2017-12-06T09:12:06Z</time>
      </trkpt>
      <trkpt lat="44.81935" lon="-0.77013">
        <ele>48.9</ele>
        <time>2017-12-06T09:12:07Z</time>
      </trkpt>
      <trkpt lat="44.81938" lon="-0.77008">
        <ele>48.9</ele>
        <time>2017-12-06T09:12:08Z</time>
      </trkpt>
      <trkpt lat="44.81941" lon="-0.77003">
        <ele>48.9</ele>
        <time>2017-12-06T09:12:09Z</time>
      </trkpt>
      <trkpt lat="44.81944" lon="-0.76997">
        <ele>48.9</ele>
        <time>2017-12-06T09:12:10Z</time>
      </trkpt>
      <trkpt lat="44.81947" lon="-0.76993">
        <ele>48.9</ele>
        <time>2017-12-06T09:12:11Z</time>
      </trkpt>
      <trkpt lat="44.81951" lon="-0.76989">
        <ele>48.9</ele>
        <time>2017-12-06T09:12:12Z</time>
      </trkpt>
      <trkpt lat="44.81955" lon="-0.76986">
        <ele>48.9</ele>
        <time>2017-12-06T09:12:13Z</time>
      </trkpt>
      <trkpt lat="44.81959" lon="-0.76982">
        <ele>48.9</ele>
        <time>2017-12-06T09:12:14Z</time>
      </trkpt>
      <trkpt lat="44.81962" lon="-0.76979">
        <ele>49</ele>
        <time>2017-12-06T09:12:15Z</time>
      </trkpt>
      <trkpt lat="44.81966" lon="-0.76977">
        <ele>49</ele>
        <time>2017-12-06T09:12:16Z</time>
      </trkpt>
      <trkpt lat="44.8197" lon="-0.76978">
        <ele>49.1</ele>
        <time>2017-12-06T09:12:17Z</time>
      </trkpt>
      <trkpt lat="44.81973" lon="-0.76978">
        <ele>49.2</ele>
        <time>2017-12-06T09:12:18Z</time>
      </trkpt>
      <trkpt lat="44.81976" lon="-0.76979">
        <ele>49.4</ele>
        <time>2017-12-06T09:12:19Z</time>
      </trkpt>
      <trkpt lat="44.8198" lon="-0.76977">
        <ele>49.7</ele>
        <time>2017-12-06T09:12:21Z</time>
      </trkpt>
      <trkpt lat="44.81983" lon="-0.76978">
        <ele>50</ele>
        <time>2017-12-06T09:12:23Z</time>
      </trkpt>
      <trkpt lat="44.81989" lon="-0.76979">
        <ele>50.3</ele>
        <time>2017-12-06T09:12:25Z</time>
      </trkpt>
      <trkpt lat="44.81992" lon="-0.76979">
        <ele>50.4</ele>
        <time>2017-12-06T09:12:26Z</time>
      </trkpt>
      <trkpt lat="44.81995" lon="-0.76978">
        <ele>50.4</ele>
        <time>2017-12-06T09:12:27Z</time>
      </trkpt>
      <trkpt lat="44.81998" lon="-0.76978">
        <ele>50.3</ele>
        <time>2017-12-06T09:12:28Z</time>
      </trkpt>
      <trkpt lat="44.82002" lon="-0.76976">
        <ele>50.1</ele>
        <time>2017-12-06T09:12:29Z</time>
      </trkpt>
      <trkpt lat="44.82006" lon="-0.76974">
        <ele>49.9</ele>
        <time>2017-12-06T09:12:30Z</time>
      </trkpt>
      <trkpt lat="44.8201" lon="-0.76972">
        <ele>49.4</ele>
        <time>2017-12-06T09:12:31Z</time>
      </trkpt>
      <trkpt lat="44.82015" lon="-0.76969">
        <ele>49</ele>
        <time>2017-12-06T09:12:32Z</time>
      </trkpt>
      <trkpt lat="44.82019" lon="-0.76962">
        <ele>48.7</ele>
        <time>2017-12-06T09:12:33Z</time>
      </trkpt>
      <trkpt lat="44.82024" lon="-0.76955">
        <ele>48.6</ele>
        <time>2017-12-06T09:12:34Z</time>
      </trkpt>
      <trkpt lat="44.8203" lon="-0.76952">
        <ele>48.5</ele>
        <time>2017-12-06T09:12:35Z</time>
      </trkpt>
      <trkpt lat="44.82036" lon="-0.76951">
        <ele>48.5</ele>
        <time>2017-12-06T09:12:36Z</time>
      </trkpt>
      <trkpt lat="44.8204" lon="-0.7695">
        <ele>48.5</ele>
        <time>2017-12-06T09:12:37Z</time>
      </trkpt>
      <trkpt lat="44.82043" lon="-0.76948">
        <ele>48.5</ele>
        <time>2017-12-06T09:12:38Z</time>
      </trkpt>
      <trkpt lat="44.82048" lon="-0.76943">
        <ele>48.5</ele>
        <time>2017-12-06T09:12:39Z</time>
      </trkpt>
      <trkpt lat="44.82053" lon="-0.76938">
        <ele>48.5</ele>
        <time>2017-12-06T09:12:40Z</time>
      </trkpt>
      <trkpt lat="44.82058" lon="-0.76934">
        <ele>48.5</ele>
        <time>2017-12-06T09:12:41Z</time>
      </trkpt>
      <trkpt lat="44.82062" lon="-0.76929">
        <ele>48.5</ele>
        <time>2017-12-06T09:12:42Z</time>
      </trkpt>
      <trkpt lat="44.82067" lon="-0.76927">
        <ele>48.5</ele>
        <time>2017-12-06T09:12:43Z</time>
      </trkpt>
      <trkpt lat="44.8207" lon="-0.76926">
        <ele>48.5</ele>
        <time>2017-12-06T09:12:44Z</time>
      </trkpt>
      <trkpt lat="44.82073" lon="-0.76925">
        <ele>48.5</ele>
        <time>2017-12-06T09:12:45Z</time>
      </trkpt>
      <trkpt lat="44.82076" lon="-0.76927">
        <ele>48.5</ele>
        <time>2017-12-06T09:12:46Z</time>
      </trkpt>
      <trkpt lat="44.82079" lon="-0.76925">
        <ele>48.5</ele>
        <time>2017-12-06T09:12:47Z</time>
      </trkpt>
      <trkpt lat="44.82081" lon="-0.76922">
        <ele>48.5</ele>
        <time>2017-12-06T09:12:48Z</time>
      </trkpt>
      <trkpt lat="44.82084" lon="-0.76917">
        <ele>48.5</ele>
        <time>2017-12-06T09:12:49Z</time>
      </trkpt>
      <trkpt lat="44.82086" lon="-0.76913">
        <ele>48.4</ele>
        <time>2017-12-06T09:12:50Z</time>
      </trkpt>
      <trkpt lat="44.8209" lon="-0.7691">
        <ele>48.4</ele>
        <time>2017-12-06T09:12:51Z</time>
      </trkpt>
      <trkpt lat="44.82093" lon="-0.76906">
        <ele>48.4</ele>
        <time>2017-12-06T09:12:52Z</time>
      </trkpt>
      <trkpt lat="44.82095" lon="-0.76902">
        <ele>48.4</ele>
        <time>2017-12-06T09:12:53Z</time>
      </trkpt>
      <trkpt lat="44.82096" lon="-0.76897">
        <ele>48.4</ele>
        <time>2017-12-06T09:12:54Z</time>
      </trkpt>
      <trkpt lat="44.82098" lon="-0.76891">
        <ele>48.4</ele>
        <time>2017-12-06T09:12:55Z</time>
      </trkpt>
      <trkpt lat="44.82101" lon="-0.76886">
        <ele>48.4</ele>
        <time>2017-12-06T09:12:56Z</time>
      </trkpt>
      <trkpt lat="44.82104" lon="-0.76881">
        <ele>48.4</ele>
        <time>2017-12-06T09:12:57Z</time>
      </trkpt>
      <trkpt lat="44.82104" lon="-0.76876">
        <ele>48.4</ele>
        <time>2017-12-06T09:12:58Z</time>
      </trkpt>
      <trkpt lat="44.82106" lon="-0.76871">
        <ele>48.4</ele>
        <time>2017-12-06T09:12:59Z</time>
      </trkpt>
      <trkpt lat="44.82108" lon="-0.76867">
        <ele>48.4</ele>
        <time>2017-12-06T09:13:00Z</time>
      </trkpt>
      <trkpt lat="44.8211" lon="-0.76864">
        <ele>48.4</ele>
        <time>2017-12-06T09:13:01Z</time>
      </trkpt>
      <trkpt lat="44.82113" lon="-0.76862">
        <ele>48.4</ele>
        <time>2017-12-06T09:13:02Z</time>
      </trkpt>
      <trkpt lat="44.82116" lon="-0.76859">
        <ele>48.3</ele>
        <time>2017-12-06T09:13:03Z</time>
      </trkpt>
      <trkpt lat="44.82117" lon="-0.76853">
        <ele>48.3</ele>
        <time>2017-12-06T09:13:05Z</time>
      </trkpt>
      <trkpt lat="44.82118" lon="-0.76848">
        <ele>48.2</ele>
        <time>2017-12-06T09:13:06Z</time>
      </trkpt>
      <trkpt lat="44.8212" lon="-0.76845">
        <ele>48.2</ele>
        <time>2017-12-06T09:13:07Z</time>
      </trkpt>
      <trkpt lat="44.82122" lon="-0.76842">
        <ele>48.1</ele>
        <time>2017-12-06T09:13:08Z</time>
      </trkpt>
      <trkpt lat="44.82124" lon="-0.76839">
        <ele>47.9</ele>
        <time>2017-12-06T09:13:09Z</time>
      </trkpt>
      <trkpt lat="44.82127" lon="-0.76835">
        <ele>47.5</ele>
        <time>2017-12-06T09:13:10Z</time>
      </trkpt>
      <trkpt lat="44.82129" lon="-0.76829">
        <ele>46.8</ele>
        <time>2017-12-06T09:13:11Z</time>
      </trkpt>
      <trkpt lat="44.82132" lon="-0.76822">
        <ele>46.1</ele>
        <time>2017-12-06T09:13:12Z</time>
      </trkpt>
      <trkpt lat="44.82136" lon="-0.76815">
        <ele>45.4</ele>
        <time>2017-12-06T09:13:13Z</time>
      </trkpt>
      <trkpt lat="44.82138" lon="-0.76809">
        <ele>44.9</ele>
        <time>2017-12-06T09:13:14Z</time>
      </trkpt>
      <trkpt lat="44.8214" lon="-0.76804">
        <ele>44.6</ele>
        <time>2017-12-06T09:13:15Z</time>
      </trkpt>
      <trkpt lat="44.82143" lon="-0.768">
        <ele>44.4</ele>
        <time>2017-12-06T09:13:16Z</time>
      </trkpt>
      <trkpt lat="44.82144" lon="-0.76794">
        <ele>44.2</ele>
        <time>2017-12-06T09:13:17Z</time>
      </trkpt>
      <trkpt lat="44.82145" lon="-0.76788">
        <ele>44.2</ele>
        <time>2017-12-06T09:13:18Z</time>
      </trkpt>
      <trkpt lat="44.82147" lon="-0.76782">
        <ele>44.1</ele>
        <time>2017-12-06T09:13:19Z</time>
      </trkpt>
      <trkpt lat="44.82147" lon="-0.76776">
        <ele>44.1</ele>
        <time>2017-12-06T09:13:20Z</time>
      </trkpt>
      <trkpt lat="44.82148" lon="-0.7677">
        <ele>44.1</ele>
        <time>2017-12-06T09:13:21Z</time>
      </trkpt>
      <trkpt lat="44.82148" lon="-0.76763">
        <ele>44.1</ele>
        <time>2017-12-06T09:13:22Z</time>
      </trkpt>
      <trkpt lat="44.8215" lon="-0.76759">
        <ele>44.1</ele>
        <time>2017-12-06T09:13:23Z</time>
      </trkpt>
      <trkpt lat="44.82152" lon="-0.76755">
        <ele>44.1</ele>
        <time>2017-12-06T09:13:24Z</time>
      </trkpt>
      <trkpt lat="44.82154" lon="-0.7675">
        <ele>44.1</ele>
        <time>2017-12-06T09:13:25Z</time>
      </trkpt>
      <trkpt lat="44.82155" lon="-0.76744">
        <ele>44.1</ele>
        <time>2017-12-06T09:13:26Z</time>
      </trkpt>
      <trkpt lat="44.82157" lon="-0.76738">
        <ele>44.1</ele>
        <time>2017-12-06T09:13:27Z</time>
      </trkpt>
      <trkpt lat="44.82159" lon="-0.76734">
        <ele>44</ele>
        <time>2017-12-06T09:13:28Z</time>
      </trkpt>
      <trkpt lat="44.82163" lon="-0.76729">
        <ele>44</ele>
        <time>2017-12-06T09:13:29Z</time>
      </trkpt>
      <trkpt lat="44.82165" lon="-0.76725">
        <ele>44</ele>
        <time>2017-12-06T09:13:30Z</time>
      </trkpt>
      <trkpt lat="44.82169" lon="-0.76722">
        <ele>44</ele>
        <time>2017-12-06T09:13:31Z</time>
      </trkpt>
      <trkpt lat="44.82171" lon="-0.76718">
        <ele>44</ele>
        <time>2017-12-06T09:13:32Z</time>
      </trkpt>
      <trkpt lat="44.82173" lon="-0.76714">
        <ele>44</ele>
        <time>2017-12-06T09:13:33Z</time>
      </trkpt>
      <trkpt lat="44.82175" lon="-0.76711">
        <ele>44</ele>
        <time>2017-12-06T09:13:34Z</time>
      </trkpt>
      <trkpt lat="44.82178" lon="-0.76709">
        <ele>44</ele>
        <time>2017-12-06T09:13:35Z</time>
      </trkpt>
      <trkpt lat="44.82181" lon="-0.76707">
        <ele>44</ele>
        <time>2017-12-06T09:13:36Z</time>
      </trkpt>
      <trkpt lat="44.82184" lon="-0.76705">
        <ele>44</ele>
        <time>2017-12-06T09:13:37Z</time>
      </trkpt>
      <trkpt lat="44.82186" lon="-0.76703">
        <ele>44</ele>
        <time>2017-12-06T09:13:38Z</time>
      </trkpt>
      <trkpt lat="44.8219" lon="-0.76702">
        <ele>44</ele>
        <time>2017-12-06T09:13:39Z</time>
      </trkpt>
      <trkpt lat="44.82194" lon="-0.76702">
        <ele>44</ele>
        <time>2017-12-06T09:13:40Z</time>
      </trkpt>
      <trkpt lat="44.82198" lon="-0.76703">
        <ele>44</ele>
        <time>2017-12-06T09:13:41Z</time>
      </trkpt>
      <trkpt lat="44.82201" lon="-0.76705">
        <ele>44</ele>
        <time>2017-12-06T09:13:42Z</time>
      </trkpt>
      <trkpt lat="44.82204" lon="-0.76706">
        <ele>44</ele>
        <time>2017-12-06T09:13:43Z</time>
      </trkpt>
      <trkpt lat="44.82208" lon="-0.76702">
        <ele>44</ele>
        <time>2017-12-06T09:13:44Z</time>
      </trkpt>
      <trkpt lat="44.8221" lon="-0.76698">
        <ele>44</ele>
        <time>2017-12-06T09:13:45Z</time>
      </trkpt>
      <trkpt lat="44.8221" lon="-0.76693">
        <ele>44</ele>
        <time>2017-12-06T09:13:46Z</time>
      </trkpt>
      <trkpt lat="44.8221" lon="-0.76689">
        <ele>44</ele>
        <time>2017-12-06T09:13:47Z</time>
      </trkpt>
      <trkpt lat="44.82212" lon="-0.76685">
        <ele>43.9</ele>
        <time>2017-12-06T09:13:48Z</time>
      </trkpt>
      <trkpt lat="44.82214" lon="-0.76683">
        <ele>43.9</ele>
        <time>2017-12-06T09:13:49Z</time>
      </trkpt>
      <trkpt lat="44.82218" lon="-0.76681">
        <ele>43.9</ele>
        <time>2017-12-06T09:13:50Z</time>
      </trkpt>
      <trkpt lat="44.82221" lon="-0.76677">
        <ele>43.9</ele>
        <time>2017-12-06T09:13:51Z</time>
      </trkpt>
      <trkpt lat="44.82224" lon="-0.76673">
        <ele>43.9</ele>
        <time>2017-12-06T09:13:52Z</time>
      </trkpt>
      <trkpt lat="44.82226" lon="-0.76669">
        <ele>43.9</ele>
        <time>2017-12-06T09:13:53Z</time>
      </trkpt>
      <trkpt lat="44.82229" lon="-0.76666">
        <ele>43.9</ele>
        <time>2017-12-06T09:13:54Z</time>
      </trkpt>
      <trkpt lat="44.82232" lon="-0.76667">
        <ele>43.9</ele>
        <time>2017-12-06T09:13:55Z</time>
      </trkpt>
      <trkpt lat="44.82235" lon="-0.76666">
        <ele>43.9</ele>
        <time>2017-12-06T09:13:56Z</time>
      </trkpt>
      <trkpt lat="44.82238" lon="-0.76662">
        <ele>43.9</ele>
        <time>2017-12-06T09:13:57Z</time>
      </trkpt>
      <trkpt lat="44.82241" lon="-0.76658">
        <ele>43.9</ele>
        <time>2017-12-06T09:13:58Z</time>
      </trkpt>
      <trkpt lat="44.82245" lon="-0.76656">
        <ele>43.9</ele>
        <time>2017-12-06T09:13:59Z</time>
      </trkpt>
      <trkpt lat="44.82249" lon="-0.76654">
        <ele>43.9</ele>
        <time>2017-12-06T09:14:00Z</time>
      </trkpt>
      <trkpt lat="44.82252" lon="-0.76655">
        <ele>43.9</ele>
        <time>2017-12-06T09:14:01Z</time>
      </trkpt>
      <trkpt lat="44.82255" lon="-0.76654">
        <ele>43.9</ele>
        <time>2017-12-06T09:14:02Z</time>
      </trkpt>
      <trkpt lat="44.82257" lon="-0.76652">
        <ele>43.8</ele>
        <time>2017-12-06T09:14:03Z</time>
      </trkpt>
      <trkpt lat="44.82258" lon="-0.76648">
        <ele>43.8</ele>
        <time>2017-12-06T09:14:04Z</time>
      </trkpt>
      <trkpt lat="44.8226" lon="-0.76645">
        <ele>43.8</ele>
        <time>2017-12-06T09:14:05Z</time>
      </trkpt>
      <trkpt lat="44.82264" lon="-0.76641">
        <ele>43.8</ele>
        <time>2017-12-06T09:14:06Z</time>
      </trkpt>
      <trkpt lat="44.82269" lon="-0.7664">
        <ele>43.8</ele>
        <time>2017-12-06T09:14:07Z</time>
      </trkpt>
      <trkpt lat="44.82274" lon="-0.76641">
        <ele>43.8</ele>
        <time>2017-12-06T09:14:08Z</time>
      </trkpt>
      <trkpt lat="44.82279" lon="-0.76642">
        <ele>43.8</ele>
        <time>2017-12-06T09:14:09Z</time>
      </trkpt>
      <trkpt lat="44.82282" lon="-0.76642">
        <ele>43.8</ele>
        <time>2017-12-06T09:14:10Z</time>
      </trkpt>
      <trkpt lat="44.82288" lon="-0.76641">
        <ele>43.8</ele>
        <time>2017-12-06T09:14:11Z</time>
      </trkpt>
      <trkpt lat="44.82293" lon="-0.7664">
        <ele>43.8</ele>
        <time>2017-12-06T09:14:12Z</time>
      </trkpt>
      <trkpt lat="44.82297" lon="-0.76639">
        <ele>43.8</ele>
        <time>2017-12-06T09:14:13Z</time>
      </trkpt>
      <trkpt lat="44.82302" lon="-0.76636">
        <ele>43.8</ele>
        <time>2017-12-06T09:14:14Z</time>
      </trkpt>
      <trkpt lat="44.82307" lon="-0.76635">
        <ele>43.8</ele>
        <time>2017-12-06T09:14:15Z</time>
      </trkpt>
      <trkpt lat="44.82312" lon="-0.76634">
        <ele>43.8</ele>
        <time>2017-12-06T09:14:16Z</time>
      </trkpt>
      <trkpt lat="44.82316" lon="-0.76635">
        <ele>43.8</ele>
        <time>2017-12-06T09:14:17Z</time>
      </trkpt>
      <trkpt lat="44.82319" lon="-0.76637">
        <ele>43.8</ele>
        <time>2017-12-06T09:14:18Z</time>
      </trkpt>
      <trkpt lat="44.82323" lon="-0.76635">
        <ele>43.8</ele>
        <time>2017-12-06T09:14:19Z</time>
      </trkpt>
      <trkpt lat="44.82328" lon="-0.7663">
        <ele>43.7</ele>
        <time>2017-12-06T09:14:20Z</time>
      </trkpt>
      <trkpt lat="44.82333" lon="-0.76627">
        <ele>43.5</ele>
        <time>2017-12-06T09:14:21Z</time>
      </trkpt>
      <trkpt lat="44.82339" lon="-0.76626">
        <ele>43.4</ele>
        <time>2017-12-06T09:14:22Z</time>
      </trkpt>
      <trkpt lat="44.82344" lon="-0.76623">
        <ele>43.4</ele>
        <time>2017-12-06T09:14:23Z</time>
      </trkpt>
      <trkpt lat="44.82349" lon="-0.76622">
        <ele>43.4</ele>
        <time>2017-12-06T09:14:24Z</time>
      </trkpt>
      <trkpt lat="44.82355" lon="-0.7662">
        <ele>43.4</ele>
        <time>2017-12-06T09:14:25Z</time>
      </trkpt>
      <trkpt lat="44.82361" lon="-0.76616">
        <ele>43.4</ele>
        <time>2017-12-06T09:14:26Z</time>
      </trkpt>
      <trkpt lat="44.82366" lon="-0.76613">
        <ele>43.4</ele>
        <time>2017-12-06T09:14:27Z</time>
      </trkpt>
      <trkpt lat="44.82372" lon="-0.76611">
        <ele>43.4</ele>
        <time>2017-12-06T09:14:28Z</time>
      </trkpt>
      <trkpt lat="44.82377" lon="-0.76611">
        <ele>43.4</ele>
        <time>2017-12-06T09:14:29Z</time>
      </trkpt>
      <trkpt lat="44.82381" lon="-0.76615">
        <ele>43.4</ele>
        <time>2017-12-06T09:14:30Z</time>
      </trkpt>
      <trkpt lat="44.82385" lon="-0.76617">
        <ele>43.4</ele>
        <time>2017-12-06T09:14:31Z</time>
      </trkpt>
      <trkpt lat="44.82391" lon="-0.76615">
        <ele>43.4</ele>
        <time>2017-12-06T09:14:32Z</time>
      </trkpt>
      <trkpt lat="44.82395" lon="-0.76613">
        <ele>43.4</ele>
        <time>2017-12-06T09:14:33Z</time>
      </trkpt>
      <trkpt lat="44.82398" lon="-0.76611">
        <ele>43.4</ele>
        <time>2017-12-06T09:14:34Z</time>
      </trkpt>
      <trkpt lat="44.82402" lon="-0.76612">
        <ele>43.4</ele>
        <time>2017-12-06T09:14:35Z</time>
      </trkpt>
      <trkpt lat="44.82406" lon="-0.76613">
        <ele>43.3</ele>
        <time>2017-12-06T09:14:36Z</time>
      </trkpt>
      <trkpt lat="44.8241" lon="-0.76614">
        <ele>43.3</ele>
        <time>2017-12-06T09:14:37Z</time>
      </trkpt>
      <trkpt lat="44.82413" lon="-0.76615">
        <ele>43.3</ele>
        <time>2017-12-06T09:14:38Z</time>
      </trkpt>
      <trkpt lat="44.82417" lon="-0.76616">
        <ele>43.3</ele>
        <time>2017-12-06T09:14:39Z</time>
      </trkpt>
      <trkpt lat="44.82422" lon="-0.76616">
        <ele>43.3</ele>
        <time>2017-12-06T09:14:40Z</time>
      </trkpt>
      <trkpt lat="44.82425" lon="-0.7662">
        <ele>43.3</ele>
        <time>2017-12-06T09:14:41Z</time>
      </trkpt>
      <trkpt lat="44.82428" lon="-0.76623">
        <ele>43.3</ele>
        <time>2017-12-06T09:14:42Z</time>
      </trkpt>
      <trkpt lat="44.8243" lon="-0.76627">
        <ele>43.3</ele>
        <time>2017-12-06T09:14:43Z</time>
      </trkpt>
      <trkpt lat="44.82432" lon="-0.76634">
        <ele>43.3</ele>
        <time>2017-12-06T09:14:44Z</time>
      </trkpt>
      <trkpt lat="44.82433" lon="-0.76641">
        <ele>43.3</ele>
        <time>2017-12-06T09:14:45Z</time>
      </trkpt>
      <trkpt lat="44.82432" lon="-0.76646">
        <ele>43.3</ele>
        <time>2017-12-06T09:14:46Z</time>
      </trkpt>
      <trkpt lat="44.82431" lon="-0.76652">
        <ele>43.3</ele>
        <time>2017-12-06T09:14:47Z</time>
      </trkpt>
      <trkpt lat="44.82432" lon="-0.76658">
        <ele>43.3</ele>
        <time>2017-12-06T09:14:48Z</time>
      </trkpt>
      <trkpt lat="44.82434" lon="-0.76665">
        <ele>43.3</ele>
        <time>2017-12-06T09:14:49Z</time>
      </trkpt>
      <trkpt lat="44.82437" lon="-0.76671">
        <ele>43.2</ele>
        <time>2017-12-06T09:14:50Z</time>
      </trkpt>
      <trkpt lat="44.8244" lon="-0.76678">
        <ele>43.2</ele>
        <time>2017-12-06T09:14:51Z</time>
      </trkpt>
      <trkpt lat="44.82442" lon="-0.76685">
        <ele>43</ele>
        <time>2017-12-06T09:14:52Z</time>
      </trkpt>
      <trkpt lat="44.82445" lon="-0.76692">
        <ele>42.8</ele>
        <time>2017-12-06T09:14:53Z</time>
      </trkpt>
      <trkpt lat="44.82447" lon="-0.767">
        <ele>42.4</ele>
        <time>2017-12-06T09:14:54Z</time>
      </trkpt>
      <trkpt lat="44.82449" lon="-0.76708">
        <ele>42</ele>
        <time>2017-12-06T09:14:55Z</time>
      </trkpt>
      <trkpt lat="44.82453" lon="-0.76715">
        <ele>41.7</ele>
        <time>2017-12-06T09:14:56Z</time>
      </trkpt>
      <trkpt lat="44.82457" lon="-0.7672">
        <ele>41.5</ele>
        <time>2017-12-06T09:14:57Z</time>
      </trkpt>
      <trkpt lat="44.8246" lon="-0.76726">
        <ele>41.3</ele>
        <time>2017-12-06T09:14:58Z</time>
      </trkpt>
      <trkpt lat="44.82464" lon="-0.76732">
        <ele>41.2</ele>
        <time>2017-12-06T09:14:59Z</time>
      </trkpt>
      <trkpt lat="44.82467" lon="-0.76738">
        <ele>41.2</ele>
        <time>2017-12-06T09:15:00Z</time>
      </trkpt>
      <trkpt lat="44.8247" lon="-0.76745">
        <ele>41.2</ele>
        <time>2017-12-06T09:15:01Z</time>
      </trkpt>
      <trkpt lat="44.82472" lon="-0.76752">
        <ele>41.2</ele>
        <time>2017-12-06T09:15:02Z</time>
      </trkpt>
      <trkpt lat="44.82476" lon="-0.76758">
        <ele>41.2</ele>
        <time>2017-12-06T09:15:03Z</time>
      </trkpt>
      <trkpt lat="44.82478" lon="-0.76764">
        <ele>41.2</ele>
        <time>2017-12-06T09:15:04Z</time>
      </trkpt>
      <trkpt lat="44.82479" lon="-0.7677">
        <ele>41.2</ele>
        <time>2017-12-06T09:15:05Z</time>
      </trkpt>
      <trkpt lat="44.82478" lon="-0.76775">
        <ele>41.2</ele>
        <time>2017-12-06T09:15:06Z</time>
      </trkpt>
      <trkpt lat="44.8248" lon="-0.76781">
        <ele>41.2</ele>
        <time>2017-12-06T09:15:07Z</time>
      </trkpt>
      <trkpt lat="44.82481" lon="-0.76787">
        <ele>41.2</ele>
        <time>2017-12-06T09:15:08Z</time>
      </trkpt>
      <trkpt lat="44.8248" lon="-0.76793">
        <ele>41.2</ele>
        <time>2017-12-06T09:15:09Z</time>
      </trkpt>
      <trkpt lat="44.82479" lon="-0.76797">
        <ele>41.2</ele>
        <time>2017-12-06T09:15:10Z</time>
      </trkpt>
      <trkpt lat="44.8248" lon="-0.76803">
        <ele>41.1</ele>
        <time>2017-12-06T09:15:11Z</time>
      </trkpt>
      <trkpt lat="44.82481" lon="-0.7681">
        <ele>41.1</ele>
        <time>2017-12-06T09:15:12Z</time>
      </trkpt>
      <trkpt lat="44.82479" lon="-0.76815">
        <ele>41.1</ele>
        <time>2017-12-06T09:15:13Z</time>
      </trkpt>
      <trkpt lat="44.82478" lon="-0.7682">
        <ele>41.1</ele>
        <time>2017-12-06T09:15:14Z</time>
      </trkpt>
      <trkpt lat="44.82478" lon="-0.76825">
        <ele>41.1</ele>
        <time>2017-12-06T09:15:15Z</time>
      </trkpt>
      <trkpt lat="44.82478" lon="-0.76831">
        <ele>41.1</ele>
        <time>2017-12-06T09:15:16Z</time>
      </trkpt>
      <trkpt lat="44.82479" lon="-0.76839">
        <ele>41.1</ele>
        <time>2017-12-06T09:15:17Z</time>
      </trkpt>
      <trkpt lat="44.8248" lon="-0.76844">
        <ele>41.1</ele>
        <time>2017-12-06T09:15:18Z</time>
      </trkpt>
      <trkpt lat="44.82481" lon="-0.76849">
        <ele>41.1</ele>
        <time>2017-12-06T09:15:19Z</time>
      </trkpt>
      <trkpt lat="44.82482" lon="-0.76854">
        <ele>41.1</ele>
        <time>2017-12-06T09:15:20Z</time>
      </trkpt>
      <trkpt lat="44.82482" lon="-0.76858">
        <ele>41.1</ele>
        <time>2017-12-06T09:15:21Z</time>
      </trkpt>
      <trkpt lat="44.82484" lon="-0.76864">
        <ele>41.1</ele>
        <time>2017-12-06T09:15:22Z</time>
      </trkpt>
      <trkpt lat="44.82486" lon="-0.76869">
        <ele>41.2</ele>
        <time>2017-12-06T09:15:23Z</time>
      </trkpt>
      <trkpt lat="44.8249" lon="-0.76873">
        <ele>41.2</ele>
        <time>2017-12-06T09:15:24Z</time>
      </trkpt>
      <trkpt lat="44.82491" lon="-0.76878">
        <ele>41.4</ele>
        <time>2017-12-06T09:15:25Z</time>
      </trkpt>
      <trkpt lat="44.82493" lon="-0.76883">
        <ele>41.6</ele>
        <time>2017-12-06T09:15:26Z</time>
      </trkpt>
      <trkpt lat="44.82496" lon="-0.76887">
        <ele>41.8</ele>
        <time>2017-12-06T09:15:27Z</time>
      </trkpt>
      <trkpt lat="44.82498" lon="-0.76892">
        <ele>42.1</ele>
        <time>2017-12-06T09:15:28Z</time>
      </trkpt>
      <trkpt lat="44.825" lon="-0.76898">
        <ele>42.4</ele>
        <time>2017-12-06T09:15:29Z</time>
      </trkpt>
      <trkpt lat="44.82502" lon="-0.76903">
        <ele>42.7</ele>
        <time>2017-12-06T09:15:30Z</time>
      </trkpt>
      <trkpt lat="44.82505" lon="-0.76909">
        <ele>42.8</ele>
        <time>2017-12-06T09:15:31Z</time>
      </trkpt>
      <trkpt lat="44.82507" lon="-0.76913">
        <ele>42.9</ele>
        <time>2017-12-06T09:15:32Z</time>
      </trkpt>
      <trkpt lat="44.8251" lon="-0.76917">
        <ele>43</ele>
        <time>2017-12-06T09:15:33Z</time>
      </trkpt>
      <trkpt lat="44.82512" lon="-0.76921">
        <ele>43</ele>
        <time>2017-12-06T09:15:34Z</time>
      </trkpt>
      <trkpt lat="44.82514" lon="-0.76924">
        <ele>43</ele>
        <time>2017-12-06T09:15:35Z</time>
      </trkpt>
      <trkpt lat="44.82519" lon="-0.76924">
        <ele>43</ele>
        <time>2017-12-06T09:15:36Z</time>
      </trkpt>
      <trkpt lat="44.82523" lon="-0.76923">
        <ele>43</ele>
        <time>2017-12-06T09:15:37Z</time>
      </trkpt>
      <trkpt lat="44.82527" lon="-0.7692">
        <ele>43</ele>
        <time>2017-12-06T09:15:38Z</time>
      </trkpt>
      <trkpt lat="44.8253" lon="-0.76916">
        <ele>42.1</ele>
        <time>2017-12-06T09:15:39Z</time>
      </trkpt>
      <trkpt lat="44.82533" lon="-0.76912">
        <ele>41.4</ele>
        <time>2017-12-06T09:15:40Z</time>
      </trkpt>
      <trkpt lat="44.82536" lon="-0.76909">
        <ele>40.7</ele>
        <time>2017-12-06T09:15:41Z</time>
      </trkpt>
      <trkpt lat="44.82538" lon="-0.76906">
        <ele>40.1</ele>
        <time>2017-12-06T09:15:42Z</time>
      </trkpt>
      <trkpt lat="44.8254" lon="-0.76903">
        <ele>40</ele>
        <time>2017-12-06T09:15:43Z</time>
      </trkpt>
      <trkpt lat="44.82543" lon="-0.76903">
        <ele>40</ele>
        <time>2017-12-06T09:15:44Z</time>
      </trkpt>
      <trkpt lat="44.82546" lon="-0.76904">
        <ele>40.1</ele>
        <time>2017-12-06T09:15:45Z</time>
      </trkpt>
      <trkpt lat="44.82549" lon="-0.76907">
        <ele>40.2</ele>
        <time>2017-12-06T09:15:46Z</time>
      </trkpt>
      <trkpt lat="44.82553" lon="-0.7691">
        <ele>40.2</ele>
        <time>2017-12-06T09:15:47Z</time>
      </trkpt>
      <trkpt lat="44.82556" lon="-0.76913">
        <ele>40.3</ele>
        <time>2017-12-06T09:15:48Z</time>
      </trkpt>
      <trkpt lat="44.8256" lon="-0.76916">
        <ele>40.3</ele>
        <time>2017-12-06T09:15:49Z</time>
      </trkpt>
      <trkpt lat="44.82564" lon="-0.76919">
        <ele>40.3</ele>
        <time>2017-12-06T09:15:50Z</time>
      </trkpt>
      <trkpt lat="44.82568" lon="-0.76924">
        <ele>40.4</ele>
        <time>2017-12-06T09:15:51Z</time>
      </trkpt>
      <trkpt lat="44.82571" lon="-0.76929">
        <ele>40.4</ele>
        <time>2017-12-06T09:15:52Z</time>
      </trkpt>
      <trkpt lat="44.82575" lon="-0.76933">
        <ele>40.4</ele>
        <time>2017-12-06T09:15:53Z</time>
      </trkpt>
      <trkpt lat="44.82579" lon="-0.76938">
        <ele>40.4</ele>
        <time>2017-12-06T09:15:54Z</time>
      </trkpt>
      <trkpt lat="44.82582" lon="-0.76944">
        <ele>40.5</ele>
        <time>2017-12-06T09:15:55Z</time>
      </trkpt>
      <trkpt lat="44.82586" lon="-0.7695">
        <ele>40.5</ele>
        <time>2017-12-06T09:15:56Z</time>
      </trkpt>
      <trkpt lat="44.8259" lon="-0.76955">
        <ele>40.5</ele>
        <time>2017-12-06T09:15:57Z</time>
      </trkpt>
      <trkpt lat="44.82593" lon="-0.76959">
        <ele>40.5</ele>
        <time>2017-12-06T09:15:58Z</time>
      </trkpt>
      <trkpt lat="44.82596" lon="-0.76964">
        <ele>40.6</ele>
        <time>2017-12-06T09:15:59Z</time>
      </trkpt>
      <trkpt lat="44.82598" lon="-0.76968">
        <ele>40.6</ele>
        <time>2017-12-06T09:16:00Z</time>
      </trkpt>
      <trkpt lat="44.82603" lon="-0.76973">
        <ele>40.6</ele>
        <time>2017-12-06T09:16:01Z</time>
      </trkpt>
      <trkpt lat="44.82607" lon="-0.76977">
        <ele>40.6</ele>
        <time>2017-12-06T09:16:02Z</time>
      </trkpt>
      <trkpt lat="44.82611" lon="-0.76982">
        <ele>40.7</ele>
        <time>2017-12-06T09:16:03Z</time>
      </trkpt>
      <trkpt lat="44.82615" lon="-0.76989">
        <ele>40.7</ele>
        <time>2017-12-06T09:16:04Z</time>
      </trkpt>
      <trkpt lat="44.82619" lon="-0.76994">
        <ele>40.7</ele>
        <time>2017-12-06T09:16:05Z</time>
      </trkpt>
      <trkpt lat="44.82623" lon="-0.76999">
        <ele>40.7</ele>
        <time>2017-12-06T09:16:06Z</time>
      </trkpt>
      <trkpt lat="44.82626" lon="-0.77005">
        <ele>40.8</ele>
        <time>2017-12-06T09:16:07Z</time>
      </trkpt>
      <trkpt lat="44.82629" lon="-0.77012">
        <ele>40.8</ele>
        <time>2017-12-06T09:16:08Z</time>
      </trkpt>
      <trkpt lat="44.82633" lon="-0.77018">
        <ele>40.8</ele>
        <time>2017-12-06T09:16:09Z</time>
      </trkpt>
      <trkpt lat="44.82637" lon="-0.77024">
        <ele>40.8</ele>
        <time>2017-12-06T09:16:10Z</time>
      </trkpt>
      <trkpt lat="44.82641" lon="-0.77028">
        <ele>40.9</ele>
        <time>2017-12-06T09:16:11Z</time>
      </trkpt>
      <trkpt lat="44.82645" lon="-0.77033">
        <ele>40.9</ele>
        <time>2017-12-06T09:16:12Z</time>
      </trkpt>
      <trkpt lat="44.82648" lon="-0.77037">
        <ele>40.9</ele>
        <time>2017-12-06T09:16:13Z</time>
      </trkpt>
      <trkpt lat="44.82652" lon="-0.77041">
        <ele>40.9</ele>
        <time>2017-12-06T09:16:14Z</time>
      </trkpt>
      <trkpt lat="44.82656" lon="-0.77043">
        <ele>40.9</ele>
        <time>2017-12-06T09:16:15Z</time>
      </trkpt>
      <trkpt lat="44.82661" lon="-0.77047">
        <ele>41</ele>
        <time>2017-12-06T09:16:16Z</time>
      </trkpt>
      <trkpt lat="44.82665" lon="-0.77051">
        <ele>41</ele>
        <time>2017-12-06T09:16:17Z</time>
      </trkpt>
      <trkpt lat="44.82668" lon="-0.77054">
        <ele>41</ele>
        <time>2017-12-06T09:16:18Z</time>
      </trkpt>
      <trkpt lat="44.82672" lon="-0.77055">
        <ele>41</ele>
        <time>2017-12-06T09:16:19Z</time>
      </trkpt>
      <trkpt lat="44.82676" lon="-0.77053">
        <ele>41</ele>
        <time>2017-12-06T09:16:20Z</time>
      </trkpt>
      <trkpt lat="44.8268" lon="-0.77052">
        <ele>41</ele>
        <time>2017-12-06T09:16:21Z</time>
      </trkpt>
      <trkpt lat="44.82684" lon="-0.77055">
        <ele>41</ele>
        <time>2017-12-06T09:16:22Z</time>
      </trkpt>
      <trkpt lat="44.82687" lon="-0.77058">
        <ele>41</ele>
        <time>2017-12-06T09:16:23Z</time>
      </trkpt>
      <trkpt lat="44.82691" lon="-0.77062">
        <ele>41</ele>
        <time>2017-12-06T09:16:24Z</time>
      </trkpt>
      <trkpt lat="44.82695" lon="-0.77065">
        <ele>41</ele>
        <time>2017-12-06T09:16:25Z</time>
      </trkpt>
      <trkpt lat="44.82699" lon="-0.77067">
        <ele>40.9</ele>
        <time>2017-12-06T09:16:26Z</time>
      </trkpt>
      <trkpt lat="44.82703" lon="-0.7707">
        <ele>40.7</ele>
        <time>2017-12-06T09:16:27Z</time>
      </trkpt>
      <trkpt lat="44.82706" lon="-0.77075">
        <ele>40.6</ele>
        <time>2017-12-06T09:16:28Z</time>
      </trkpt>
      <trkpt lat="44.82709" lon="-0.77079">
        <ele>40.4</ele>
        <time>2017-12-06T09:16:29Z</time>
      </trkpt>
      <trkpt lat="44.82714" lon="-0.77079">
        <ele>40.2</ele>
        <time>2017-12-06T09:16:31Z</time>
      </trkpt>
      <trkpt lat="44.82716" lon="-0.77083">
        <ele>40</ele>
        <time>2017-12-06T09:16:33Z</time>
      </trkpt>
      <trkpt lat="44.82719" lon="-0.77086">
        <ele>39.9</ele>
        <time>2017-12-06T09:16:34Z</time>
      </trkpt>
      <trkpt lat="44.82721" lon="-0.77087">
        <ele>39.7</ele>
        <time>2017-12-06T09:16:35Z</time>
      </trkpt>
      <trkpt lat="44.82724" lon="-0.77088">
        <ele>39.6</ele>
        <time>2017-12-06T09:16:36Z</time>
      </trkpt>
      <trkpt lat="44.82727" lon="-0.7709">
        <ele>39.5</ele>
        <time>2017-12-06T09:16:37Z</time>
      </trkpt>
      <trkpt lat="44.82731" lon="-0.77093">
        <ele>39.4</ele>
        <time>2017-12-06T09:16:38Z</time>
      </trkpt>
      <trkpt lat="44.82736" lon="-0.77095">
        <ele>39.4</ele>
        <time>2017-12-06T09:16:39Z</time>
      </trkpt>
      <trkpt lat="44.8274" lon="-0.77097">
        <ele>39.4</ele>
        <time>2017-12-06T09:16:40Z</time>
      </trkpt>
      <trkpt lat="44.82745" lon="-0.77099">
        <ele>39.4</ele>
        <time>2017-12-06T09:16:41Z</time>
      </trkpt>
      <trkpt lat="44.82748" lon="-0.77103">
        <ele>39.4</ele>
        <time>2017-12-06T09:16:42Z</time>
      </trkpt>
      <trkpt lat="44.82752" lon="-0.77106">
        <ele>39.4</ele>
        <time>2017-12-06T09:16:43Z</time>
      </trkpt>
      <trkpt lat="44.82755" lon="-0.77106">
        <ele>39.4</ele>
        <time>2017-12-06T09:16:44Z</time>
      </trkpt>
      <trkpt lat="44.8276" lon="-0.77109">
        <ele>39.5</ele>
        <time>2017-12-06T09:16:45Z</time>
      </trkpt>
      <trkpt lat="44.82764" lon="-0.77112">
        <ele>39.5</ele>
        <time>2017-12-06T09:16:46Z</time>
      </trkpt>
      <trkpt lat="44.82768" lon="-0.77116">
        <ele>39.5</ele>
        <time>2017-12-06T09:16:47Z</time>
      </trkpt>
      <trkpt lat="44.82773" lon="-0.77119">
        <ele>39.5</ele>
        <time>2017-12-06T09:16:48Z</time>
      </trkpt>
      <trkpt lat="44.82777" lon="-0.77123">
        <ele>39.5</ele>
        <time>2017-12-06T09:16:49Z</time>
      </trkpt>
      <trkpt lat="44.82785" lon="-0.77124">
        <ele>39.6</ele>
        <time>2017-12-06T09:16:50Z</time>
      </trkpt>
      <trkpt lat="44.8279" lon="-0.77126">
        <ele>39.6</ele>
        <time>2017-12-06T09:16:51Z</time>
      </trkpt>
      <trkpt lat="44.82794" lon="-0.77127">
        <ele>39.6</ele>
        <time>2017-12-06T09:16:52Z</time>
      </trkpt>
      <trkpt lat="44.82801" lon="-0.77129">
        <ele>39.7</ele>
        <time>2017-12-06T09:16:53Z</time>
      </trkpt>
      <trkpt lat="44.82806" lon="-0.77132">
        <ele>39.7</ele>
        <time>2017-12-06T09:16:54Z</time>
      </trkpt>
      <trkpt lat="44.8281" lon="-0.77135">
        <ele>39.7</ele>
        <time>2017-12-06T09:16:55Z</time>
      </trkpt>
      <trkpt lat="44.82815" lon="-0.77138">
        <ele>39.7</ele>
        <time>2017-12-06T09:16:56Z</time>
      </trkpt>
      <trkpt lat="44.82819" lon="-0.77142">
        <ele>39.7</ele>
        <time>2017-12-06T09:16:57Z</time>
      </trkpt>
      <trkpt lat="44.82822" lon="-0.77146">
        <ele>39.8</ele>
        <time>2017-12-06T09:16:58Z</time>
      </trkpt>
      <trkpt lat="44.82826" lon="-0.7715">
        <ele>39.8</ele>
        <time>2017-12-06T09:16:59Z</time>
      </trkpt>
      <trkpt lat="44.8283" lon="-0.77154">
        <ele>39.8</ele>
        <time>2017-12-06T09:17:00Z</time>
      </trkpt>
      <trkpt lat="44.82834" lon="-0.77158">
        <ele>39.8</ele>
        <time>2017-12-06T09:17:01Z</time>
      </trkpt>
      <trkpt lat="44.82839" lon="-0.77163">
        <ele>39.9</ele>
        <time>2017-12-06T09:17:02Z</time>
      </trkpt>
      <trkpt lat="44.82844" lon="-0.77166">
        <ele>39.9</ele>
        <time>2017-12-06T09:17:03Z</time>
      </trkpt>
      <trkpt lat="44.8285" lon="-0.7717">
        <ele>39.9</ele>
        <time>2017-12-06T09:17:04Z</time>
      </trkpt>
      <trkpt lat="44.82855" lon="-0.77173">
        <ele>39.9</ele>
        <time>2017-12-06T09:17:05Z</time>
      </trkpt>
      <trkpt lat="44.82859" lon="-0.77174">
        <ele>40</ele>
        <time>2017-12-06T09:17:06Z</time>
      </trkpt>
      <trkpt lat="44.82863" lon="-0.77176">
        <ele>40</ele>
        <time>2017-12-06T09:17:07Z</time>
      </trkpt>
      <trkpt lat="44.82866" lon="-0.77172">
        <ele>40</ele>
        <time>2017-12-06T09:17:08Z</time>
      </trkpt>
      <trkpt lat="44.8287" lon="-0.77168">
        <ele>40</ele>
        <time>2017-12-06T09:17:09Z</time>
      </trkpt>
      <trkpt lat="44.82874" lon="-0.77169">
        <ele>40.1</ele>
        <time>2017-12-06T09:17:10Z</time>
      </trkpt>
      <trkpt lat="44.82877" lon="-0.77172">
        <ele>40.1</ele>
        <time>2017-12-06T09:17:11Z</time>
      </trkpt>
      <trkpt lat="44.8288" lon="-0.77177">
        <ele>40.1</ele>
        <time>2017-12-06T09:17:12Z</time>
      </trkpt>
      <trkpt lat="44.82882" lon="-0.77182">
        <ele>40.1</ele>
        <time>2017-12-06T09:17:13Z</time>
      </trkpt>
      <trkpt lat="44.82884" lon="-0.77188">
        <ele>40.2</ele>
        <time>2017-12-06T09:17:14Z</time>
      </trkpt>
      <trkpt lat="44.82886" lon="-0.77193">
        <ele>40.2</ele>
        <time>2017-12-06T09:17:15Z</time>
      </trkpt>
      <trkpt lat="44.82889" lon="-0.77198">
        <ele>40.2</ele>
        <time>2017-12-06T09:17:16Z</time>
      </trkpt>
      <trkpt lat="44.82893" lon="-0.77201">
        <ele>40.2</ele>
        <time>2017-12-06T09:17:17Z</time>
      </trkpt>
      <trkpt lat="44.82896" lon="-0.77203">
        <ele>40.3</ele>
        <time>2017-12-06T09:17:18Z</time>
      </trkpt>
      <trkpt lat="44.82901" lon="-0.77204">
        <ele>40.3</ele>
        <time>2017-12-06T09:17:19Z</time>
      </trkpt>
      <trkpt lat="44.82905" lon="-0.77207">
        <ele>40.3</ele>
        <time>2017-12-06T09:17:20Z</time>
      </trkpt>
      <trkpt lat="44.82909" lon="-0.77209">
        <ele>40.3</ele>
        <time>2017-12-06T09:17:21Z</time>
      </trkpt>
      <trkpt lat="44.82914" lon="-0.77209">
        <ele>40.4</ele>
        <time>2017-12-06T09:17:22Z</time>
      </trkpt>
      <trkpt lat="44.82919" lon="-0.77209">
        <ele>40.4</ele>
        <time>2017-12-06T09:17:23Z</time>
      </trkpt>
      <trkpt lat="44.82923" lon="-0.77208">
        <ele>40.4</ele>
        <time>2017-12-06T09:17:24Z</time>
      </trkpt>
      <trkpt lat="44.82927" lon="-0.77207">
        <ele>40.4</ele>
        <time>2017-12-06T09:17:25Z</time>
      </trkpt>
      <trkpt lat="44.8293" lon="-0.77208">
        <ele>40.5</ele>
        <time>2017-12-06T09:17:26Z</time>
      </trkpt>
      <trkpt lat="44.82934" lon="-0.77209">
        <ele>40.5</ele>
        <time>2017-12-06T09:17:27Z</time>
      </trkpt>
      <trkpt lat="44.82938" lon="-0.77208">
        <ele>40.5</ele>
        <time>2017-12-06T09:17:28Z</time>
      </trkpt>
      <trkpt lat="44.8294" lon="-0.7721">
        <ele>40.5</ele>
        <time>2017-12-06T09:17:29Z</time>
      </trkpt>
      <trkpt lat="44.82942" lon="-0.77215">
        <ele>40.6</ele>
        <time>2017-12-06T09:17:30Z</time>
      </trkpt>
      <trkpt lat="44.82946" lon="-0.77219">
        <ele>40.6</ele>
        <time>2017-12-06T09:17:32Z</time>
      </trkpt>
      <trkpt lat="44.82946" lon="-0.77226">
        <ele>40.6</ele>
        <time>2017-12-06T09:17:34Z</time>
      </trkpt>
      <trkpt lat="44.82946" lon="-0.77233">
        <ele>40.7</ele>
        <time>2017-12-06T09:17:36Z</time>
      </trkpt>
      <trkpt lat="44.82946" lon="-0.77238">
        <ele>40.7</ele>
        <time>2017-12-06T09:17:37Z</time>
      </trkpt>
      <trkpt lat="44.82948" lon="-0.77241">
        <ele>40.7</ele>
        <time>2017-12-06T09:17:38Z</time>
      </trkpt>
      <trkpt lat="44.8295" lon="-0.77244">
        <ele>40.7</ele>
        <time>2017-12-06T09:17:39Z</time>
      </trkpt>
      <trkpt lat="44.82953" lon="-0.77246">
        <ele>40.7</ele>
        <time>2017-12-06T09:17:40Z</time>
      </trkpt>
      <trkpt lat="44.82955" lon="-0.77248">
        <ele>40.8</ele>
        <time>2017-12-06T09:17:41Z</time>
      </trkpt>
      <trkpt lat="44.82958" lon="-0.77251">
        <ele>40.8</ele>
        <time>2017-12-06T09:17:42Z</time>
      </trkpt>
      <trkpt lat="44.8296" lon="-0.77253">
        <ele>40.8</ele>
        <time>2017-12-06T09:17:43Z</time>
      </trkpt>
      <trkpt lat="44.82963" lon="-0.77256">
        <ele>40.8</ele>
        <time>2017-12-06T09:17:44Z</time>
      </trkpt>
      <trkpt lat="44.82966" lon="-0.77258">
        <ele>40.8</ele>
        <time>2017-12-06T09:17:45Z</time>
      </trkpt>
      <trkpt lat="44.82969" lon="-0.7726">
        <ele>40.9</ele>
        <time>2017-12-06T09:17:46Z</time>
      </trkpt>
      <trkpt lat="44.8297" lon="-0.77264">
        <ele>40.9</ele>
        <time>2017-12-06T09:17:47Z</time>
      </trkpt>
      <trkpt lat="44.82973" lon="-0.77268">
        <ele>40.9</ele>
        <time>2017-12-06T09:17:48Z</time>
      </trkpt>
      <trkpt lat="44.82977" lon="-0.77272">
        <ele>40.9</ele>
        <time>2017-12-06T09:17:49Z</time>
      </trkpt>
      <trkpt lat="44.82981" lon="-0.77275">
        <ele>40.8</ele>
        <time>2017-12-06T09:17:50Z</time>
      </trkpt>
      <trkpt lat="44.82985" lon="-0.77275">
        <ele>40.6</ele>
        <time>2017-12-06T09:17:51Z</time>
      </trkpt>
      <trkpt lat="44.82989" lon="-0.77276">
        <ele>40.4</ele>
        <time>2017-12-06T09:17:52Z</time>
      </trkpt>
      <trkpt lat="44.82992" lon="-0.77277">
        <ele>40.1</ele>
        <time>2017-12-06T09:17:53Z</time>
      </trkpt>
      <trkpt lat="44.82995" lon="-0.7728">
        <ele>39.8</ele>
        <time>2017-12-06T09:17:54Z</time>
      </trkpt>
      <trkpt lat="44.82997" lon="-0.77283">
        <ele>39.5</ele>
        <time>2017-12-06T09:17:55Z</time>
      </trkpt>
      <trkpt lat="44.82999" lon="-0.77289">
        <ele>39.5</ele>
        <time>2017-12-06T09:17:56Z</time>
      </trkpt>
      <trkpt lat="44.83002" lon="-0.77293">
        <ele>39.6</ele>
        <time>2017-12-06T09:17:57Z</time>
      </trkpt>
      <trkpt lat="44.83004" lon="-0.77297">
        <ele>39.7</ele>
        <time>2017-12-06T09:17:58Z</time>
      </trkpt>
      <trkpt lat="44.83007" lon="-0.773">
        <ele>39.8</ele>
        <time>2017-12-06T09:18:00Z</time>
      </trkpt>
      <trkpt lat="44.8301" lon="-0.77305">
        <ele>39.9</ele>
        <time>2017-12-06T09:18:02Z</time>
      </trkpt>
      <trkpt lat="44.83011" lon="-0.77309">
        <ele>39.9</ele>
        <time>2017-12-06T09:18:03Z</time>
      </trkpt>
      <trkpt lat="44.83013" lon="-0.77312">
        <ele>40</ele>
        <time>2017-12-06T09:18:04Z</time>
      </trkpt>
      <trkpt lat="44.83014" lon="-0.77316">
        <ele>40</ele>
        <time>2017-12-06T09:18:05Z</time>
      </trkpt>
      <trkpt lat="44.83016" lon="-0.7732">
        <ele>40</ele>
        <time>2017-12-06T09:18:06Z</time>
      </trkpt>
      <trkpt lat="44.83018" lon="-0.77323">
        <ele>39.9</ele>
        <time>2017-12-06T09:18:07Z</time>
      </trkpt>
      <trkpt lat="44.8302" lon="-0.77326">
        <ele>39.8</ele>
        <time>2017-12-06T09:18:08Z</time>
      </trkpt>
      <trkpt lat="44.83023" lon="-0.77329">
        <ele>39.8</ele>
        <time>2017-12-06T09:18:09Z</time>
      </trkpt>
      <trkpt lat="44.83024" lon="-0.77332">
        <ele>39.8</ele>
        <time>2017-12-06T09:18:10Z</time>
      </trkpt>
      <trkpt lat="44.83026" lon="-0.77338">
        <ele>39.8</ele>
        <time>2017-12-06T09:18:12Z</time>
      </trkpt>
      <trkpt lat="44.83025" lon="-0.77342">
        <ele>39.8</ele>
        <time>2017-12-06T09:18:13Z</time>
      </trkpt>
      <trkpt lat="44.83024" lon="-0.77346">
        <ele>40</ele>
        <time>2017-12-06T09:18:15Z</time>
      </trkpt>
      <trkpt lat="44.83024" lon="-0.7735">
        <ele>39.9</ele>
        <time>2017-12-06T09:18:35Z</time>
      </trkpt>
      <trkpt lat="44.83026" lon="-0.77353">
        <ele>40</ele>
        <time>2017-12-06T09:18:40Z</time>
      </trkpt>
      <trkpt lat="44.83029" lon="-0.77355">
        <ele>40</ele>
        <time>2017-12-06T09:18:45Z</time>
      </trkpt>
      <trkpt lat="44.83031" lon="-0.77358">
        <ele>40</ele>
        <time>2017-12-06T09:18:48Z</time>
      </trkpt>
      <trkpt lat="44.83034" lon="-0.77362">
        <ele>40</ele>
        <time>2017-12-06T09:18:50Z</time>
      </trkpt>
      <trkpt lat="44.83035" lon="-0.77367">
        <ele>40</ele>
        <time>2017-12-06T09:18:53Z</time>
      </trkpt>
      <trkpt lat="44.8304" lon="-0.77371">
        <ele>40</ele>
        <time>2017-12-06T09:18:55Z</time>
      </trkpt>
      <trkpt lat="44.83046" lon="-0.77373">
        <ele>40</ele>
        <time>2017-12-06T09:18:57Z</time>
      </trkpt>
      <trkpt lat="44.83048" lon="-0.77376">
        <ele>40</ele>
        <time>2017-12-06T09:19:00Z</time>
      </trkpt>
      <trkpt lat="44.8305" lon="-0.77379">
        <ele>40</ele>
        <time>2017-12-06T09:19:09Z</time>
      </trkpt>
      <trkpt lat="44.83053" lon="-0.77379">
        <ele>40</ele>
        <time>2017-12-06T09:19:16Z</time>
      </trkpt>
      <trkpt lat="44.83055" lon="-0.77377">
        <ele>40</ele>
        <time>2017-12-06T09:19:18Z</time>
      </trkpt>
      <trkpt lat="44.83057" lon="-0.77373">
        <ele>40</ele>
        <time>2017-12-06T09:19:28Z</time>
      </trkpt>
      <trkpt lat="44.83057" lon="-0.77369">
        <ele>40</ele>
        <time>2017-12-06T09:19:30Z</time>
      </trkpt>
      <trkpt lat="44.83058" lon="-0.77365">
        <ele>40</ele>
        <time>2017-12-06T09:19:32Z</time>
      </trkpt>
      <trkpt lat="44.83058" lon="-0.77361">
        <ele>40</ele>
        <time>2017-12-06T09:19:34Z</time>
      </trkpt>
      <trkpt lat="44.83058" lon="-0.77357">
        <ele>40</ele>
        <time>2017-12-06T09:19:36Z</time>
      </trkpt>
      <trkpt lat="44.83059" lon="-0.77351">
        <ele>40</ele>
        <time>2017-12-06T09:19:39Z</time>
      </trkpt>
      <trkpt lat="44.83062" lon="-0.77349">
        <ele>40</ele>
        <time>2017-12-06T09:19:41Z</time>
      </trkpt>
      <trkpt lat="44.83065" lon="-0.7735">
        <ele>40.1</ele>
        <time>2017-12-06T09:19:42Z</time>
      </trkpt>
      <trkpt lat="44.83068" lon="-0.77351">
        <ele>40.2</ele>
        <time>2017-12-06T09:19:43Z</time>
      </trkpt>
      <trkpt lat="44.83068" lon="-0.77357">
        <ele>40.4</ele>
        <time>2017-12-06T09:19:45Z</time>
      </trkpt>
      <trkpt lat="44.83068" lon="-0.77361">
        <ele>40.5</ele>
        <time>2017-12-06T09:19:46Z</time>
      </trkpt>
      <trkpt lat="44.83068" lon="-0.77367">
        <ele>40.6</ele>
        <time>2017-12-06T09:19:48Z</time>
      </trkpt>
      <trkpt lat="44.83072" lon="-0.77369">
        <ele>40.7</ele>
        <time>2017-12-06T09:19:50Z</time>
      </trkpt>
      <trkpt lat="44.83075" lon="-0.77371">
        <ele>40.8</ele>
        <time>2017-12-06T09:19:52Z</time>
      </trkpt>
      <trkpt lat="44.8308" lon="-0.77371">
        <ele>40.9</ele>
        <time>2017-12-06T09:19:54Z</time>
      </trkpt>
      <trkpt lat="44.83083" lon="-0.77371">
        <ele>40.9</ele>
        <time>2017-12-06T09:19:55Z</time>
      </trkpt>
      <trkpt lat="44.83087" lon="-0.7737">
        <ele>40.9</ele>
        <time>2017-12-06T09:19:56Z</time>
      </trkpt>
      <trkpt lat="44.83091" lon="-0.77369">
        <ele>40.9</ele>
        <time>2017-12-06T09:19:57Z</time>
      </trkpt>
      <trkpt lat="44.83096" lon="-0.77366">
        <ele>40.8</ele>
        <time>2017-12-06T09:19:58Z</time>
      </trkpt>
      <trkpt lat="44.831" lon="-0.77363">
        <ele>40.6</ele>
        <time>2017-12-06T09:19:59Z</time>
      </trkpt>
      <trkpt lat="44.83105" lon="-0.77362">
        <ele>40.5</ele>
        <time>2017-12-06T09:20:00Z</time>
      </trkpt>
      <trkpt lat="44.8311" lon="-0.77359">
        <ele>40.3</ele>
        <time>2017-12-06T09:20:01Z</time>
      </trkpt>
      <trkpt lat="44.83114" lon="-0.77356">
        <ele>40.1</ele>
        <time>2017-12-06T09:20:02Z</time>
      </trkpt>
      <trkpt lat="44.83118" lon="-0.77354">
        <ele>39.8</ele>
        <time>2017-12-06T09:20:03Z</time>
      </trkpt>
      <trkpt lat="44.83122" lon="-0.77351">
        <ele>39.7</ele>
        <time>2017-12-06T09:20:04Z</time>
      </trkpt>
      <trkpt lat="44.83127" lon="-0.77348">
        <ele>39.3</ele>
        <time>2017-12-06T09:20:05Z</time>
      </trkpt>
      <trkpt lat="44.83131" lon="-0.77346">
        <ele>38.9</ele>
        <time>2017-12-06T09:20:06Z</time>
      </trkpt>
      <trkpt lat="44.83136" lon="-0.77345">
        <ele>38.8</ele>
        <time>2017-12-06T09:20:07Z</time>
      </trkpt>
      <trkpt lat="44.8314" lon="-0.77344">
        <ele>38.7</ele>
        <time>2017-12-06T09:20:08Z</time>
      </trkpt>
      <trkpt lat="44.83144" lon="-0.7734">
        <ele>38.4</ele>
        <time>2017-12-06T09:20:09Z</time>
      </trkpt>
      <trkpt lat="44.83148" lon="-0.77337">
        <ele>38.2</ele>
        <time>2017-12-06T09:20:10Z</time>
      </trkpt>
      <trkpt lat="44.83152" lon="-0.77335">
        <ele>38.1</ele>
        <time>2017-12-06T09:20:11Z</time>
      </trkpt>
      <trkpt lat="44.83157" lon="-0.77332">
        <ele>37.9</ele>
        <time>2017-12-06T09:20:12Z</time>
      </trkpt>
      <trkpt lat="44.83161" lon="-0.7733">
        <ele>37.9</ele>
        <time>2017-12-06T09:20:13Z</time>
      </trkpt>
      <trkpt lat="44.83164" lon="-0.77328">
        <ele>37.8</ele>
        <time>2017-12-06T09:20:14Z</time>
      </trkpt>
      <trkpt lat="44.83168" lon="-0.77326">
        <ele>37.8</ele>
        <time>2017-12-06T09:20:15Z</time>
      </trkpt>
      <trkpt lat="44.83172" lon="-0.77323">
        <ele>37.8</ele>
        <time>2017-12-06T09:20:16Z</time>
      </trkpt>
      <trkpt lat="44.83175" lon="-0.77318">
        <ele>37.7</ele>
        <time>2017-12-06T09:20:17Z</time>
      </trkpt>
      <trkpt lat="44.83179" lon="-0.77314">
        <ele>37.7</ele>
        <time>2017-12-06T09:20:18Z</time>
      </trkpt>
      <trkpt lat="44.83182" lon="-0.77309">
        <ele>37.7</ele>
        <time>2017-12-06T09:20:19Z</time>
      </trkpt>
      <trkpt lat="44.83185" lon="-0.77304">
        <ele>37.8</ele>
        <time>2017-12-06T09:20:20Z</time>
      </trkpt>
      <trkpt lat="44.83189" lon="-0.77299">
        <ele>37.8</ele>
        <time>2017-12-06T09:20:21Z</time>
      </trkpt>
      <trkpt lat="44.83193" lon="-0.77296">
        <ele>38</ele>
        <time>2017-12-06T09:20:22Z</time>
      </trkpt>
      <trkpt lat="44.83197" lon="-0.77294">
        <ele>38.1</ele>
        <time>2017-12-06T09:20:23Z</time>
      </trkpt>
      <trkpt lat="44.83201" lon="-0.77293">
        <ele>38.2</ele>
        <time>2017-12-06T09:20:24Z</time>
      </trkpt>
      <trkpt lat="44.83205" lon="-0.77293">
        <ele>38.4</ele>
        <time>2017-12-06T09:20:25Z</time>
      </trkpt>
      <trkpt lat="44.83209" lon="-0.77293">
        <ele>38.4</ele>
        <time>2017-12-06T09:20:26Z</time>
      </trkpt>
      <trkpt lat="44.83214" lon="-0.77292">
        <ele>38.7</ele>
        <time>2017-12-06T09:20:27Z</time>
      </trkpt>
      <trkpt lat="44.83218" lon="-0.77292">
        <ele>38.8</ele>
        <time>2017-12-06T09:20:28Z</time>
      </trkpt>
      <trkpt lat="44.83222" lon="-0.77292">
        <ele>38.9</ele>
        <time>2017-12-06T09:20:29Z</time>
      </trkpt>
      <trkpt lat="44.83227" lon="-0.77292">
        <ele>39.3</ele>
        <time>2017-12-06T09:20:30Z</time>
      </trkpt>
      <trkpt lat="44.83231" lon="-0.77292">
        <ele>39.4</ele>
        <time>2017-12-06T09:20:31Z</time>
      </trkpt>
      <trkpt lat="44.83235" lon="-0.77291">
        <ele>39.7</ele>
        <time>2017-12-06T09:20:32Z</time>
      </trkpt>
      <trkpt lat="44.83239" lon="-0.77289">
        <ele>40</ele>
        <time>2017-12-06T09:20:33Z</time>
      </trkpt>
      <trkpt lat="44.83241" lon="-0.77287">
        <ele>40.1</ele>
        <time>2017-12-06T09:20:34Z</time>
      </trkpt>
      <trkpt lat="44.83245" lon="-0.77284">
        <ele>40.4</ele>
        <time>2017-12-06T09:20:35Z</time>
      </trkpt>
      <trkpt lat="44.8325" lon="-0.77284">
        <ele>40.5</ele>
        <time>2017-12-06T09:20:36Z</time>
      </trkpt>
      <trkpt lat="44.83254" lon="-0.77284">
        <ele>40.8</ele>
        <time>2017-12-06T09:20:37Z</time>
      </trkpt>
      <trkpt lat="44.83258" lon="-0.77283">
        <ele>40.9</ele>
        <time>2017-12-06T09:20:38Z</time>
      </trkpt>
      <trkpt lat="44.83262" lon="-0.7728">
        <ele>41.2</ele>
        <time>2017-12-06T09:20:39Z</time>
      </trkpt>
      <trkpt lat="44.83266" lon="-0.77277">
        <ele>41.4</ele>
        <time>2017-12-06T09:20:40Z</time>
      </trkpt>
      <trkpt lat="44.83269" lon="-0.77274">
        <ele>41.4</ele>
        <time>2017-12-06T09:20:41Z</time>
      </trkpt>
      <trkpt lat="44.83274" lon="-0.77272">
        <ele>41.6</ele>
        <time>2017-12-06T09:20:42Z</time>
      </trkpt>
      <trkpt lat="44.83277" lon="-0.77269">
        <ele>41.6</ele>
        <time>2017-12-06T09:20:43Z</time>
      </trkpt>
      <trkpt lat="44.83281" lon="-0.77268">
        <ele>41.8</ele>
        <time>2017-12-06T09:20:44Z</time>
      </trkpt>
      <trkpt lat="44.83285" lon="-0.77266">
        <ele>41.8</ele>
        <time>2017-12-06T09:20:45Z</time>
      </trkpt>
      <trkpt lat="44.83288" lon="-0.77263">
        <ele>41.9</ele>
        <time>2017-12-06T09:20:46Z</time>
      </trkpt>
      <trkpt lat="44.83291" lon="-0.77258">
        <ele>42</ele>
        <time>2017-12-06T09:20:47Z</time>
      </trkpt>
      <trkpt lat="44.83294" lon="-0.77256">
        <ele>42.1</ele>
        <time>2017-12-06T09:20:48Z</time>
      </trkpt>
      <trkpt lat="44.83297" lon="-0.77254">
        <ele>42.1</ele>
        <time>2017-12-06T09:20:49Z</time>
      </trkpt>
      <trkpt lat="44.83301" lon="-0.77252">
        <ele>42.1</ele>
        <time>2017-12-06T09:20:50Z</time>
      </trkpt>
      <trkpt lat="44.83305" lon="-0.77252">
        <ele>42</ele>
        <time>2017-12-06T09:20:51Z</time>
      </trkpt>
      <trkpt lat="44.83308" lon="-0.77255">
        <ele>42</ele>
        <time>2017-12-06T09:20:52Z</time>
      </trkpt>
      <trkpt lat="44.83311" lon="-0.77255">
        <ele>41.9</ele>
        <time>2017-12-06T09:20:53Z</time>
      </trkpt>
      <trkpt lat="44.83314" lon="-0.77256">
        <ele>41.8</ele>
        <time>2017-12-06T09:20:54Z</time>
      </trkpt>
      <trkpt lat="44.83317" lon="-0.77255">
        <ele>41.6</ele>
        <time>2017-12-06T09:20:55Z</time>
      </trkpt>
      <trkpt lat="44.83321" lon="-0.77254">
        <ele>41.5</ele>
        <time>2017-12-06T09:20:56Z</time>
      </trkpt>
      <trkpt lat="44.83324" lon="-0.77254">
        <ele>41.3</ele>
        <time>2017-12-06T09:20:57Z</time>
      </trkpt>
      <trkpt lat="44.83327" lon="-0.77256">
        <ele>41.1</ele>
        <time>2017-12-06T09:20:58Z</time>
      </trkpt>
      <trkpt lat="44.83331" lon="-0.77258">
        <ele>40.8</ele>
        <time>2017-12-06T09:20:59Z</time>
      </trkpt>
      <trkpt lat="44.83335" lon="-0.77256">
        <ele>40.6</ele>
        <time>2017-12-06T09:21:01Z</time>
      </trkpt>
      <trkpt lat="44.83337" lon="-0.77253">
        <ele>40.4</ele>
        <time>2017-12-06T09:21:02Z</time>
      </trkpt>
      <trkpt lat="44.83339" lon="-0.7725">
        <ele>40.1</ele>
        <time>2017-12-06T09:21:03Z</time>
      </trkpt>
      <trkpt lat="44.8334" lon="-0.77242">
        <ele>40.2</ele>
        <time>2017-12-06T09:21:05Z</time>
      </trkpt>
      <trkpt lat="44.83339" lon="-0.77236">
        <ele>40.2</ele>
        <time>2017-12-06T09:21:07Z</time>
      </trkpt>
      <trkpt lat="44.83338" lon="-0.7723">
        <ele>40.5</ele>
        <time>2017-12-06T09:21:09Z</time>
      </trkpt>
      <trkpt lat="44.83334" lon="-0.77225">
        <ele>40.8</ele>
        <time>2017-12-06T09:21:11Z</time>
      </trkpt>
      <trkpt lat="44.83331" lon="-0.7722">
        <ele>41</ele>
        <time>2017-12-06T09:21:13Z</time>
      </trkpt>
      <trkpt lat="44.83328" lon="-0.77214">
        <ele>41.2</ele>
        <time>2017-12-06T09:21:15Z</time>
      </trkpt>
      <trkpt lat="44.83328" lon="-0.77208">
        <ele>41.2</ele>
        <time>2017-12-06T09:21:17Z</time>
      </trkpt>
      <trkpt lat="44.8333" lon="-0.77203">
        <ele>41.2</ele>
        <time>2017-12-06T09:21:19Z</time>
      </trkpt>
      <trkpt lat="44.83332" lon="-0.77197">
        <ele>41.3</ele>
        <time>2017-12-06T09:21:21Z</time>
      </trkpt>
      <trkpt lat="44.83333" lon="-0.77193">
        <ele>41.3</ele>
        <time>2017-12-06T09:21:22Z</time>
      </trkpt>
      <trkpt lat="44.83335" lon="-0.77188">
        <ele>41.4</ele>
        <time>2017-12-06T09:21:23Z</time>
      </trkpt>
      <trkpt lat="44.83336" lon="-0.77183">
        <ele>41.4</ele>
        <time>2017-12-06T09:21:24Z</time>
      </trkpt>
      <trkpt lat="44.83337" lon="-0.77179">
        <ele>41.5</ele>
        <time>2017-12-06T09:21:25Z</time>
      </trkpt>
      <trkpt lat="44.83339" lon="-0.77174">
        <ele>41.5</ele>
        <time>2017-12-06T09:21:26Z</time>
      </trkpt>
      <trkpt lat="44.83341" lon="-0.77171">
        <ele>41.6</ele>
        <time>2017-12-06T09:21:27Z</time>
      </trkpt>
      <trkpt lat="44.83344" lon="-0.77167">
        <ele>41.6</ele>
        <time>2017-12-06T09:21:28Z</time>
      </trkpt>
      <trkpt lat="44.83347" lon="-0.77163">
        <ele>41.6</ele>
        <time>2017-12-06T09:21:29Z</time>
      </trkpt>
      <trkpt lat="44.8335" lon="-0.7716">
        <ele>41.7</ele>
        <time>2017-12-06T09:21:30Z</time>
      </trkpt>
      <trkpt lat="44.83353" lon="-0.77156">
        <ele>41.7</ele>
        <time>2017-12-06T09:21:31Z</time>
      </trkpt>
      <trkpt lat="44.83356" lon="-0.77152">
        <ele>41.7</ele>
        <time>2017-12-06T09:21:32Z</time>
      </trkpt>
      <trkpt lat="44.8336" lon="-0.77147">
        <ele>41.8</ele>
        <time>2017-12-06T09:21:33Z</time>
      </trkpt>
      <trkpt lat="44.83363" lon="-0.77142">
        <ele>41.8</ele>
        <time>2017-12-06T09:21:34Z</time>
      </trkpt>
      <trkpt lat="44.83367" lon="-0.77138">
        <ele>41.8</ele>
        <time>2017-12-06T09:21:35Z</time>
      </trkpt>
      <trkpt lat="44.83371" lon="-0.77137">
        <ele>41.9</ele>
        <time>2017-12-06T09:21:36Z</time>
      </trkpt>
      <trkpt lat="44.83376" lon="-0.77136">
        <ele>41.9</ele>
        <time>2017-12-06T09:21:37Z</time>
      </trkpt>
      <trkpt lat="44.8338" lon="-0.77135">
        <ele>42</ele>
        <time>2017-12-06T09:21:38Z</time>
      </trkpt>
      <trkpt lat="44.83385" lon="-0.77134">
        <ele>42</ele>
        <time>2017-12-06T09:21:40Z</time>
      </trkpt>
      <trkpt lat="44.83387" lon="-0.77131">
        <ele>42.1</ele>
        <time>2017-12-06T09:21:41Z</time>
      </trkpt>
      <trkpt lat="44.8339" lon="-0.77129">
        <ele>42.1</ele>
        <time>2017-12-06T09:21:42Z</time>
      </trkpt>
      <trkpt lat="44.83393" lon="-0.77126">
        <ele>42.1</ele>
        <time>2017-12-06T09:21:43Z</time>
      </trkpt>
      <trkpt lat="44.83397" lon="-0.77121">
        <ele>42.2</ele>
        <time>2017-12-06T09:21:45Z</time>
      </trkpt>
      <trkpt lat="44.83399" lon="-0.77117">
        <ele>42.2</ele>
        <time>2017-12-06T09:21:46Z</time>
      </trkpt>
      <trkpt lat="44.83401" lon="-0.77114">
        <ele>42.2</ele>
        <time>2017-12-06T09:21:47Z</time>
      </trkpt>
      <trkpt lat="44.83405" lon="-0.7711">
        <ele>42.3</ele>
        <time>2017-12-06T09:21:48Z</time>
      </trkpt>
      <trkpt lat="44.83408" lon="-0.77106">
        <ele>42.3</ele>
        <time>2017-12-06T09:21:49Z</time>
      </trkpt>
      <trkpt lat="44.8341" lon="-0.77103">
        <ele>42.3</ele>
        <time>2017-12-06T09:21:50Z</time>
      </trkpt>
      <trkpt lat="44.83414" lon="-0.77101">
        <ele>42.3</ele>
        <time>2017-12-06T09:21:51Z</time>
      </trkpt>
      <trkpt lat="44.83419" lon="-0.77099">
        <ele>42.4</ele>
        <time>2017-12-06T09:21:52Z</time>
      </trkpt>
      <trkpt lat="44.83424" lon="-0.77096">
        <ele>42.4</ele>
        <time>2017-12-06T09:21:53Z</time>
      </trkpt>
      <trkpt lat="44.83428" lon="-0.77093">
        <ele>42.5</ele>
        <time>2017-12-06T09:21:54Z</time>
      </trkpt>
      <trkpt lat="44.83432" lon="-0.77088">
        <ele>42.5</ele>
        <time>2017-12-06T09:21:55Z</time>
      </trkpt>
      <trkpt lat="44.83437" lon="-0.77083">
        <ele>42.6</ele>
        <time>2017-12-06T09:21:56Z</time>
      </trkpt>
      <trkpt lat="44.8344" lon="-0.7708">
        <ele>42.6</ele>
        <time>2017-12-06T09:21:57Z</time>
      </trkpt>
      <trkpt lat="44.83443" lon="-0.77079">
        <ele>42.6</ele>
        <time>2017-12-06T09:21:58Z</time>
      </trkpt>
      <trkpt lat="44.83449" lon="-0.77079">
        <ele>42.7</ele>
        <time>2017-12-06T09:22:00Z</time>
      </trkpt>
      <trkpt lat="44.83453" lon="-0.77077">
        <ele>42.7</ele>
        <time>2017-12-06T09:22:01Z</time>
      </trkpt>
      <trkpt lat="44.83458" lon="-0.77075">
        <ele>42.8</ele>
        <time>2017-12-06T09:22:02Z</time>
      </trkpt>
      <trkpt lat="44.83462" lon="-0.77072">
        <ele>42.8</ele>
        <time>2017-12-06T09:22:03Z</time>
      </trkpt>
      <trkpt lat="44.83466" lon="-0.77069">
        <ele>42.9</ele>
        <time>2017-12-06T09:22:04Z</time>
      </trkpt>
      <trkpt lat="44.8347" lon="-0.77066">
        <ele>42.9</ele>
        <time>2017-12-06T09:22:05Z</time>
      </trkpt>
      <trkpt lat="44.83474" lon="-0.77061">
        <ele>42.9</ele>
        <time>2017-12-06T09:22:06Z</time>
      </trkpt>
      <trkpt lat="44.83477" lon="-0.77058">
        <ele>43</ele>
        <time>2017-12-06T09:22:07Z</time>
      </trkpt>
      <trkpt lat="44.83481" lon="-0.77054">
        <ele>43</ele>
        <time>2017-12-06T09:22:08Z</time>
      </trkpt>
      <trkpt lat="44.83484" lon="-0.7705">
        <ele>43</ele>
        <time>2017-12-06T09:22:09Z</time>
      </trkpt>
      <trkpt lat="44.83487" lon="-0.77047">
        <ele>43</ele>
        <time>2017-12-06T09:22:10Z</time>
      </trkpt>
      <trkpt lat="44.83489" lon="-0.77042">
        <ele>43.1</ele>
        <time>2017-12-06T09:22:11Z</time>
      </trkpt>
      <trkpt lat="44.83491" lon="-0.77037">
        <ele>43.1</ele>
        <time>2017-12-06T09:22:12Z</time>
      </trkpt>
      <trkpt lat="44.83494" lon="-0.77032">
        <ele>43.1</ele>
        <time>2017-12-06T09:22:13Z</time>
      </trkpt>
      <trkpt lat="44.83497" lon="-0.77026">
        <ele>43.2</ele>
        <time>2017-12-06T09:22:14Z</time>
      </trkpt>
      <trkpt lat="44.83499" lon="-0.7702">
        <ele>43.2</ele>
        <time>2017-12-06T09:22:15Z</time>
      </trkpt>
      <trkpt lat="44.83501" lon="-0.77015">
        <ele>43.3</ele>
        <time>2017-12-06T09:22:16Z</time>
      </trkpt>
      <trkpt lat="44.83506" lon="-0.77008">
        <ele>43.4</ele>
        <time>2017-12-06T09:22:17Z</time>
      </trkpt>
      <trkpt lat="44.83511" lon="-0.77002">
        <ele>43.5</ele>
        <time>2017-12-06T09:22:18Z</time>
      </trkpt>
      <trkpt lat="44.83515" lon="-0.76997">
        <ele>43.6</ele>
        <time>2017-12-06T09:22:19Z</time>
      </trkpt>
      <trkpt lat="44.83519" lon="-0.76992">
        <ele>43.6</ele>
        <time>2017-12-06T09:22:20Z</time>
      </trkpt>
      <trkpt lat="44.83522" lon="-0.76987">
        <ele>43.7</ele>
        <time>2017-12-06T09:22:21Z</time>
      </trkpt>
      <trkpt lat="44.83526" lon="-0.76983">
        <ele>43.7</ele>
        <time>2017-12-06T09:22:22Z</time>
      </trkpt>
      <trkpt lat="44.83529" lon="-0.76981">
        <ele>43.8</ele>
        <time>2017-12-06T09:22:23Z</time>
      </trkpt>
      <trkpt lat="44.83535" lon="-0.76977">
        <ele>43.8</ele>
        <time>2017-12-06T09:22:25Z</time>
      </trkpt>
      <trkpt lat="44.83538" lon="-0.76977">
        <ele>43.9</ele>
        <time>2017-12-06T09:22:26Z</time>
      </trkpt>
      <trkpt lat="44.83543" lon="-0.76979">
        <ele>43.9</ele>
        <time>2017-12-06T09:22:28Z</time>
      </trkpt>
      <trkpt lat="44.83546" lon="-0.76985">
        <ele>43.8</ele>
        <time>2017-12-06T09:22:30Z</time>
      </trkpt>
      <trkpt lat="44.83548" lon="-0.76988">
        <ele>43.7</ele>
        <time>2017-12-06T09:22:31Z</time>
      </trkpt>
      <trkpt lat="44.8355" lon="-0.76992">
        <ele>43.6</ele>
        <time>2017-12-06T09:22:32Z</time>
      </trkpt>
      <trkpt lat="44.83552" lon="-0.76996">
        <ele>43.5</ele>
        <time>2017-12-06T09:22:33Z</time>
      </trkpt>
      <trkpt lat="44.83554" lon="-0.77001">
        <ele>43.4</ele>
        <time>2017-12-06T09:22:34Z</time>
      </trkpt>
      <trkpt lat="44.83556" lon="-0.77005">
        <ele>43.4</ele>
        <time>2017-12-06T09:22:35Z</time>
      </trkpt>
      <trkpt lat="44.83559" lon="-0.7701">
        <ele>43.3</ele>
        <time>2017-12-06T09:22:36Z</time>
      </trkpt>
      <trkpt lat="44.83562" lon="-0.77013">
        <ele>43.3</ele>
        <time>2017-12-06T09:22:37Z</time>
      </trkpt>
      <trkpt lat="44.83565" lon="-0.77015">
        <ele>43.3</ele>
        <time>2017-12-06T09:22:38Z</time>
      </trkpt>
      <trkpt lat="44.83568" lon="-0.77018">
        <ele>43.2</ele>
        <time>2017-12-06T09:22:39Z</time>
      </trkpt>
      <trkpt lat="44.83571" lon="-0.77022">
        <ele>43.2</ele>
        <time>2017-12-06T09:22:40Z</time>
      </trkpt>
      <trkpt lat="44.83574" lon="-0.77026">
        <ele>43.2</ele>
        <time>2017-12-06T09:22:41Z</time>
      </trkpt>
      <trkpt lat="44.83577" lon="-0.77031">
        <ele>43.1</ele>
        <time>2017-12-06T09:22:42Z</time>
      </trkpt>
      <trkpt lat="44.8358" lon="-0.77036">
        <ele>43.1</ele>
        <time>2017-12-06T09:22:43Z</time>
      </trkpt>
      <trkpt lat="44.83582" lon="-0.77042">
        <ele>43.1</ele>
        <time>2017-12-06T09:22:44Z</time>
      </trkpt>
      <trkpt lat="44.83585" lon="-0.77049">
        <ele>43</ele>
        <time>2017-12-06T09:22:45Z</time>
      </trkpt>
      <trkpt lat="44.83587" lon="-0.77056">
        <ele>43</ele>
        <time>2017-12-06T09:22:46Z</time>
      </trkpt>
      <trkpt lat="44.83589" lon="-0.77062">
        <ele>42.9</ele>
        <time>2017-12-06T09:22:47Z</time>
      </trkpt>
      <trkpt lat="44.83592" lon="-0.77068">
        <ele>42.9</ele>
        <time>2017-12-06T09:22:48Z</time>
      </trkpt>
      <trkpt lat="44.83595" lon="-0.77074">
        <ele>42.9</ele>
        <time>2017-12-06T09:22:49Z</time>
      </trkpt>
      <trkpt lat="44.83598" lon="-0.7708">
        <ele>42.8</ele>
        <time>2017-12-06T09:22:50Z</time>
      </trkpt>
      <trkpt lat="44.83601" lon="-0.77086">
        <ele>42.8</ele>
        <time>2017-12-06T09:22:51Z</time>
      </trkpt>
      <trkpt lat="44.83604" lon="-0.77093">
        <ele>42.7</ele>
        <time>2017-12-06T09:22:52Z</time>
      </trkpt>
      <trkpt lat="44.83607" lon="-0.77099">
        <ele>42.7</ele>
        <time>2017-12-06T09:22:53Z</time>
      </trkpt>
      <trkpt lat="44.83609" lon="-0.77106">
        <ele>42.6</ele>
        <time>2017-12-06T09:22:54Z</time>
      </trkpt>
      <trkpt lat="44.83612" lon="-0.77113">
        <ele>42.6</ele>
        <time>2017-12-06T09:22:55Z</time>
      </trkpt>
      <trkpt lat="44.83615" lon="-0.7712">
        <ele>42.6</ele>
        <time>2017-12-06T09:22:56Z</time>
      </trkpt>
      <trkpt lat="44.83617" lon="-0.77127">
        <ele>42.5</ele>
        <time>2017-12-06T09:22:57Z</time>
      </trkpt>
      <trkpt lat="44.83621" lon="-0.77133">
        <ele>42.5</ele>
        <time>2017-12-06T09:22:58Z</time>
      </trkpt>
      <trkpt lat="44.83624" lon="-0.7714">
        <ele>42.4</ele>
        <time>2017-12-06T09:22:59Z</time>
      </trkpt>
      <trkpt lat="44.83627" lon="-0.77147">
        <ele>42.4</ele>
        <time>2017-12-06T09:23:00Z</time>
      </trkpt>
      <trkpt lat="44.8363" lon="-0.77154">
        <ele>42.3</ele>
        <time>2017-12-06T09:23:01Z</time>
      </trkpt>
      <trkpt lat="44.83634" lon="-0.77161">
        <ele>42.2</ele>
        <time>2017-12-06T09:23:02Z</time>
      </trkpt>
      <trkpt lat="44.83637" lon="-0.77169">
        <ele>42.2</ele>
        <time>2017-12-06T09:23:03Z</time>
      </trkpt>
      <trkpt lat="44.8364" lon="-0.77176">
        <ele>42.1</ele>
        <time>2017-12-06T09:23:04Z</time>
      </trkpt>
      <trkpt lat="44.83643" lon="-0.77183">
        <ele>42.1</ele>
        <time>2017-12-06T09:23:05Z</time>
      </trkpt>
      <trkpt lat="44.83646" lon="-0.7719">
        <ele>42</ele>
        <time>2017-12-06T09:23:06Z</time>
      </trkpt>
      <trkpt lat="44.83649" lon="-0.77197">
        <ele>42</ele>
        <time>2017-12-06T09:23:07Z</time>
      </trkpt>
      <trkpt lat="44.83652" lon="-0.77204">
        <ele>41.9</ele>
        <time>2017-12-06T09:23:08Z</time>
      </trkpt>
      <trkpt lat="44.83656" lon="-0.77212">
        <ele>41.7</ele>
        <time>2017-12-06T09:23:09Z</time>
      </trkpt>
      <trkpt lat="44.83659" lon="-0.77219">
        <ele>41.5</ele>
        <time>2017-12-06T09:23:10Z</time>
      </trkpt>
      <trkpt lat="44.83662" lon="-0.77227">
        <ele>41.2</ele>
        <time>2017-12-06T09:23:11Z</time>
      </trkpt>
      <trkpt lat="44.83665" lon="-0.77235">
        <ele>40.7</ele>
        <time>2017-12-06T09:23:12Z</time>
      </trkpt>
      <trkpt lat="44.83669" lon="-0.77243">
        <ele>40.2</ele>
        <time>2017-12-06T09:23:13Z</time>
      </trkpt>
      <trkpt lat="44.83673" lon="-0.77251">
        <ele>39.7</ele>
        <time>2017-12-06T09:23:14Z</time>
      </trkpt>
      <trkpt lat="44.83676" lon="-0.7726">
        <ele>39.4</ele>
        <time>2017-12-06T09:23:15Z</time>
      </trkpt>
      <trkpt lat="44.8368" lon="-0.7727">
        <ele>39.1</ele>
        <time>2017-12-06T09:23:16Z</time>
      </trkpt>
      <trkpt lat="44.83685" lon="-0.77278">
        <ele>38.7</ele>
        <time>2017-12-06T09:23:17Z</time>
      </trkpt>
      <trkpt lat="44.8369" lon="-0.77287">
        <ele>38.1</ele>
        <time>2017-12-06T09:23:18Z</time>
      </trkpt>
      <trkpt lat="44.83695" lon="-0.77297">
        <ele>37.5</ele>
        <time>2017-12-06T09:23:19Z</time>
      </trkpt>
      <trkpt lat="44.83702" lon="-0.77305">
        <ele>37</ele>
        <time>2017-12-06T09:23:20Z</time>
      </trkpt>
      <trkpt lat="44.83708" lon="-0.77314">
        <ele>36.7</ele>
        <time>2017-12-06T09:23:21Z</time>
      </trkpt>
      <trkpt lat="44.83715" lon="-0.77322">
        <ele>36.6</ele>
        <time>2017-12-06T09:23:22Z</time>
      </trkpt>
      <trkpt lat="44.83722" lon="-0.7733">
        <ele>36.5</ele>
        <time>2017-12-06T09:23:23Z</time>
      </trkpt>
      <trkpt lat="44.83729" lon="-0.77338">
        <ele>36.5</ele>
        <time>2017-12-06T09:23:24Z</time>
      </trkpt>
      <trkpt lat="44.83737" lon="-0.77346">
        <ele>36.4</ele>
        <time>2017-12-06T09:23:25Z</time>
      </trkpt>
      <trkpt lat="44.83745" lon="-0.77353">
        <ele>36.3</ele>
        <time>2017-12-06T09:23:26Z</time>
      </trkpt>
      <trkpt lat="44.83753" lon="-0.77359">
        <ele>36.3</ele>
        <time>2017-12-06T09:23:27Z</time>
      </trkpt>
      <trkpt lat="44.8376" lon="-0.77365">
        <ele>36.2</ele>
        <time>2017-12-06T09:23:28Z</time>
      </trkpt>
      <trkpt lat="44.83768" lon="-0.77371">
        <ele>36.1</ele>
        <time>2017-12-06T09:23:29Z</time>
      </trkpt>
      <trkpt lat="44.83775" lon="-0.77376">
        <ele>36.1</ele>
        <time>2017-12-06T09:23:30Z</time>
      </trkpt>
      <trkpt lat="44.83782" lon="-0.77383">
        <ele>36</ele>
        <time>2017-12-06T09:23:31Z</time>
      </trkpt>
      <trkpt lat="44.83789" lon="-0.77391">
        <ele>36</ele>
        <time>2017-12-06T09:23:32Z</time>
      </trkpt>
      <trkpt lat="44.83793" lon="-0.774">
        <ele>36</ele>
        <time>2017-12-06T09:23:33Z</time>
      </trkpt>
      <trkpt lat="44.83797" lon="-0.77409">
        <ele>36</ele>
        <time>2017-12-06T09:23:34Z</time>
      </trkpt>
      <trkpt lat="44.838" lon="-0.77419">
        <ele>35.9</ele>
        <time>2017-12-06T09:23:35Z</time>
      </trkpt>
      <trkpt lat="44.83805" lon="-0.77428">
        <ele>35.6</ele>
        <time>2017-12-06T09:23:36Z</time>
      </trkpt>
      <trkpt lat="44.83808" lon="-0.77437">
        <ele>35.3</ele>
        <time>2017-12-06T09:23:37Z</time>
      </trkpt>
      <trkpt lat="44.83814" lon="-0.77445">
        <ele>35.1</ele>
        <time>2017-12-06T09:23:38Z</time>
      </trkpt>
      <trkpt lat="44.8382" lon="-0.77451">
        <ele>35.1</ele>
        <time>2017-12-06T09:23:39Z</time>
      </trkpt>
      <trkpt lat="44.83827" lon="-0.77454">
        <ele>35.1</ele>
        <time>2017-12-06T09:23:40Z</time>
      </trkpt>
      <trkpt lat="44.83833" lon="-0.77455">
        <ele>35.2</ele>
        <time>2017-12-06T09:23:41Z</time>
      </trkpt>
      <trkpt lat="44.8384" lon="-0.77457">
        <ele>35.3</ele>
        <time>2017-12-06T09:23:42Z</time>
      </trkpt>
      <trkpt lat="44.83846" lon="-0.77458">
        <ele>35.3</ele>
        <time>2017-12-06T09:23:43Z</time>
      </trkpt>
      <trkpt lat="44.83851" lon="-0.7746">
        <ele>35.4</ele>
        <time>2017-12-06T09:23:44Z</time>
      </trkpt>
      <trkpt lat="44.83857" lon="-0.77461">
        <ele>35.4</ele>
        <time>2017-12-06T09:23:45Z</time>
      </trkpt>
      <trkpt lat="44.83862" lon="-0.77463">
        <ele>35.5</ele>
        <time>2017-12-06T09:23:46Z</time>
      </trkpt>
      <trkpt lat="44.83867" lon="-0.77464">
        <ele>35.6</ele>
        <time>2017-12-06T09:23:47Z</time>
      </trkpt>
      <trkpt lat="44.83873" lon="-0.77465">
        <ele>35.6</ele>
        <time>2017-12-06T09:23:48Z</time>
      </trkpt>
      <trkpt lat="44.83878" lon="-0.77466">
        <ele>35.7</ele>
        <time>2017-12-06T09:23:49Z</time>
      </trkpt>
      <trkpt lat="44.83883" lon="-0.77467">
        <ele>35.7</ele>
        <time>2017-12-06T09:23:50Z</time>
      </trkpt>
      <trkpt lat="44.83889" lon="-0.77468">
        <ele>35.8</ele>
        <time>2017-12-06T09:23:51Z</time>
      </trkpt>
      <trkpt lat="44.83895" lon="-0.7747">
        <ele>35.8</ele>
        <time>2017-12-06T09:23:52Z</time>
      </trkpt>
      <trkpt lat="44.839" lon="-0.77471">
        <ele>35.9</ele>
        <time>2017-12-06T09:23:53Z</time>
      </trkpt>
      <trkpt lat="44.83906" lon="-0.77472">
        <ele>35.9</ele>
        <time>2017-12-06T09:23:54Z</time>
      </trkpt>
      <trkpt lat="44.83912" lon="-0.77473">
        <ele>36</ele>
        <time>2017-12-06T09:23:55Z</time>
      </trkpt>
      <trkpt lat="44.83917" lon="-0.77475">
        <ele>36</ele>
        <time>2017-12-06T09:23:56Z</time>
      </trkpt>
      <trkpt lat="44.83923" lon="-0.77477">
        <ele>36</ele>
        <time>2017-12-06T09:23:57Z</time>
      </trkpt>
      <trkpt lat="44.83929" lon="-0.77481">
        <ele>36</ele>
        <time>2017-12-06T09:23:58Z</time>
      </trkpt>
      <trkpt lat="44.83934" lon="-0.77485">
        <ele>36</ele>
        <time>2017-12-06T09:23:59Z</time>
      </trkpt>
      <trkpt lat="44.83939" lon="-0.7749">
        <ele>36</ele>
        <time>2017-12-06T09:24:00Z</time>
      </trkpt>
      <trkpt lat="44.83944" lon="-0.77494">
        <ele>36</ele>
        <time>2017-12-06T09:24:01Z</time>
      </trkpt>
      <trkpt lat="44.83949" lon="-0.77498">
        <ele>36.6</ele>
        <time>2017-12-06T09:24:02Z</time>
      </trkpt>
      <trkpt lat="44.83953" lon="-0.77502">
        <ele>37.4</ele>
        <time>2017-12-06T09:24:03Z</time>
      </trkpt>
      <trkpt lat="44.83957" lon="-0.77506">
        <ele>38</ele>
        <time>2017-12-06T09:24:04Z</time>
      </trkpt>
      <trkpt lat="44.83961" lon="-0.77509">
        <ele>38.6</ele>
        <time>2017-12-06T09:24:05Z</time>
      </trkpt>
      <trkpt lat="44.83965" lon="-0.77511">
        <ele>39</ele>
        <time>2017-12-06T09:24:06Z</time>
      </trkpt>
      <trkpt lat="44.83969" lon="-0.77513">
        <ele>38.9</ele>
        <time>2017-12-06T09:24:07Z</time>
      </trkpt>
      <trkpt lat="44.83974" lon="-0.77516">
        <ele>38.9</ele>
        <time>2017-12-06T09:24:08Z</time>
      </trkpt>
      <trkpt lat="44.83978" lon="-0.77519">
        <ele>38.8</ele>
        <time>2017-12-06T09:24:09Z</time>
      </trkpt>
      <trkpt lat="44.83983" lon="-0.77522">
        <ele>38.8</ele>
        <time>2017-12-06T09:24:10Z</time>
      </trkpt>
      <trkpt lat="44.83988" lon="-0.77525">
        <ele>38.7</ele>
        <time>2017-12-06T09:24:11Z</time>
      </trkpt>
      <trkpt lat="44.83993" lon="-0.77528">
        <ele>38.6</ele>
        <time>2017-12-06T09:24:12Z</time>
      </trkpt>
      <trkpt lat="44.83998" lon="-0.77531">
        <ele>38.6</ele>
        <time>2017-12-06T09:24:13Z</time>
      </trkpt>
      <trkpt lat="44.84004" lon="-0.77534">
        <ele>38.5</ele>
        <time>2017-12-06T09:24:14Z</time>
      </trkpt>
      <trkpt lat="44.84009" lon="-0.77536">
        <ele>38.4</ele>
        <time>2017-12-06T09:24:15Z</time>
      </trkpt>
      <trkpt lat="44.84015" lon="-0.77538">
        <ele>38.3</ele>
        <time>2017-12-06T09:24:16Z</time>
      </trkpt>
      <trkpt lat="44.84021" lon="-0.77541">
        <ele>38.3</ele>
        <time>2017-12-06T09:24:17Z</time>
      </trkpt>
      <trkpt lat="44.84026" lon="-0.77544">
        <ele>38.2</ele>
        <time>2017-12-06T09:24:18Z</time>
      </trkpt>
      <trkpt lat="44.84032" lon="-0.77546">
        <ele>38.1</ele>
        <time>2017-12-06T09:24:19Z</time>
      </trkpt>
      <trkpt lat="44.84037" lon="-0.77549">
        <ele>38</ele>
        <time>2017-12-06T09:24:20Z</time>
      </trkpt>
      <trkpt lat="44.84043" lon="-0.7755">
        <ele>38</ele>
        <time>2017-12-06T09:24:21Z</time>
      </trkpt>
      <trkpt lat="44.84049" lon="-0.77551">
        <ele>38</ele>
        <time>2017-12-06T09:24:22Z</time>
      </trkpt>
      <trkpt lat="44.84056" lon="-0.77551">
        <ele>38</ele>
        <time>2017-12-06T09:24:23Z</time>
      </trkpt>
      <trkpt lat="44.84062" lon="-0.7755">
        <ele>37.8</ele>
        <time>2017-12-06T09:24:24Z</time>
      </trkpt>
      <trkpt lat="44.84069" lon="-0.77547">
        <ele>37.6</ele>
        <time>2017-12-06T09:24:25Z</time>
      </trkpt>
      <trkpt lat="44.84076" lon="-0.77545">
        <ele>37.4</ele>
        <time>2017-12-06T09:24:26Z</time>
      </trkpt>
      <trkpt lat="44.84083" lon="-0.77542">
        <ele>37.2</ele>
        <time>2017-12-06T09:24:27Z</time>
      </trkpt>
      <trkpt lat="44.84089" lon="-0.77539">
        <ele>37.1</ele>
        <time>2017-12-06T09:24:28Z</time>
      </trkpt>
      <trkpt lat="44.84096" lon="-0.77536">
        <ele>37</ele>
        <time>2017-12-06T09:24:29Z</time>
      </trkpt>
      <trkpt lat="44.84102" lon="-0.77533">
        <ele>37.1</ele>
        <time>2017-12-06T09:24:30Z</time>
      </trkpt>
      <trkpt lat="44.84108" lon="-0.77531">
        <ele>37.1</ele>
        <time>2017-12-06T09:24:31Z</time>
      </trkpt>
      <trkpt lat="44.84115" lon="-0.77528">
        <ele>37.1</ele>
        <time>2017-12-06T09:24:32Z</time>
      </trkpt>
      <trkpt lat="44.84121" lon="-0.77525">
        <ele>37.1</ele>
        <time>2017-12-06T09:24:33Z</time>
      </trkpt>
      <trkpt lat="44.84128" lon="-0.77522">
        <ele>37.1</ele>
        <time>2017-12-06T09:24:34Z</time>
      </trkpt>
      <trkpt lat="44.84134" lon="-0.7752">
        <ele>37.1</ele>
        <time>2017-12-06T09:24:35Z</time>
      </trkpt>
      <trkpt lat="44.8414" lon="-0.77517">
        <ele>37</ele>
        <time>2017-12-06T09:24:36Z</time>
      </trkpt>
      <trkpt lat="44.84146" lon="-0.77515">
        <ele>37</ele>
        <time>2017-12-06T09:24:37Z</time>
      </trkpt>
      <trkpt lat="44.84153" lon="-0.77513">
        <ele>36.7</ele>
        <time>2017-12-06T09:24:38Z</time>
      </trkpt>
      <trkpt lat="44.84158" lon="-0.77511">
        <ele>36.2</ele>
        <time>2017-12-06T09:24:39Z</time>
      </trkpt>
      <trkpt lat="44.84163" lon="-0.77508">
        <ele>35.6</ele>
        <time>2017-12-06T09:24:40Z</time>
      </trkpt>
      <trkpt lat="44.84168" lon="-0.77505">
        <ele>35.2</ele>
        <time>2017-12-06T09:24:41Z</time>
      </trkpt>
      <trkpt lat="44.84171" lon="-0.77503">
        <ele>34.9</ele>
        <time>2017-12-06T09:24:42Z</time>
      </trkpt>
      <trkpt lat="44.84174" lon="-0.77502">
        <ele>34.6</ele>
        <time>2017-12-06T09:24:44Z</time>
      </trkpt>
      <trkpt lat="44.84177" lon="-0.775">
        <ele>34.3</ele>
        <time>2017-12-06T09:24:47Z</time>
      </trkpt>
      <trkpt lat="44.84181" lon="-0.77496">
        <ele>33.9</ele>
        <time>2017-12-06T09:24:49Z</time>
      </trkpt>
      <trkpt lat="44.84183" lon="-0.77493">
        <ele>33.5</ele>
        <time>2017-12-06T09:24:50Z</time>
      </trkpt>
      <trkpt lat="44.84186" lon="-0.77489">
        <ele>33.2</ele>
        <time>2017-12-06T09:24:51Z</time>
      </trkpt>
      <trkpt lat="44.84189" lon="-0.77485">
        <ele>33</ele>
        <time>2017-12-06T09:24:52Z</time>
      </trkpt>
      <trkpt lat="44.84192" lon="-0.7748">
        <ele>33</ele>
        <time>2017-12-06T09:24:53Z</time>
      </trkpt>
      <trkpt lat="44.84195" lon="-0.77475">
        <ele>33</ele>
        <time>2017-12-06T09:24:54Z</time>
      </trkpt>
      <trkpt lat="44.84198" lon="-0.77468">
        <ele>33</ele>
        <time>2017-12-06T09:24:55Z</time>
      </trkpt>
      <trkpt lat="44.84202" lon="-0.77462">
        <ele>33</ele>
        <time>2017-12-06T09:24:56Z</time>
      </trkpt>
      <trkpt lat="44.84205" lon="-0.77455">
        <ele>33</ele>
        <time>2017-12-06T09:24:57Z</time>
      </trkpt>
      <trkpt lat="44.84208" lon="-0.77448">
        <ele>33</ele>
        <time>2017-12-06T09:24:58Z</time>
      </trkpt>
      <trkpt lat="44.84211" lon="-0.77441">
        <ele>33</ele>
        <time>2017-12-06T09:24:59Z</time>
      </trkpt>
      <trkpt lat="44.84215" lon="-0.77433">
        <ele>33</ele>
        <time>2017-12-06T09:25:00Z</time>
      </trkpt>
      <trkpt lat="44.84218" lon="-0.77426">
        <ele>33</ele>
        <time>2017-12-06T09:25:01Z</time>
      </trkpt>
      <trkpt lat="44.84222" lon="-0.77419">
        <ele>33</ele>
        <time>2017-12-06T09:25:02Z</time>
      </trkpt>
      <trkpt lat="44.84225" lon="-0.77411">
        <ele>33</ele>
        <time>2017-12-06T09:25:03Z</time>
      </trkpt>
      <trkpt lat="44.84229" lon="-0.77404">
        <ele>33</ele>
        <time>2017-12-06T09:25:04Z</time>
      </trkpt>
      <trkpt lat="44.84233" lon="-0.77397">
        <ele>33.1</ele>
        <time>2017-12-06T09:25:05Z</time>
      </trkpt>
      <trkpt lat="44.84237" lon="-0.77389">
        <ele>33.1</ele>
        <time>2017-12-06T09:25:06Z</time>
      </trkpt>
      <trkpt lat="44.8424" lon="-0.7738">
        <ele>33.1</ele>
        <time>2017-12-06T09:25:07Z</time>
      </trkpt>
      <trkpt lat="44.84244" lon="-0.77373">
        <ele>33.1</ele>
        <time>2017-12-06T09:25:08Z</time>
      </trkpt>
      <trkpt lat="44.84248" lon="-0.77365">
        <ele>33.1</ele>
        <time>2017-12-06T09:25:09Z</time>
      </trkpt>
      <trkpt lat="44.84252" lon="-0.77357">
        <ele>33.1</ele>
        <time>2017-12-06T09:25:10Z</time>
      </trkpt>
      <trkpt lat="44.84256" lon="-0.7735">
        <ele>33.1</ele>
        <time>2017-12-06T09:25:11Z</time>
      </trkpt>
      <trkpt lat="44.8426" lon="-0.77341">
        <ele>33.2</ele>
        <time>2017-12-06T09:25:12Z</time>
      </trkpt>
      <trkpt lat="44.84263" lon="-0.77333">
        <ele>33.2</ele>
        <time>2017-12-06T09:25:13Z</time>
      </trkpt>
      <trkpt lat="44.84267" lon="-0.77325">
        <ele>33.3</ele>
        <time>2017-12-06T09:25:14Z</time>
      </trkpt>
      <trkpt lat="44.8427" lon="-0.77316">
        <ele>33.3</ele>
        <time>2017-12-06T09:25:15Z</time>
      </trkpt>
      <trkpt lat="44.84272" lon="-0.77307">
        <ele>33.4</ele>
        <time>2017-12-06T09:25:16Z</time>
      </trkpt>
      <trkpt lat="44.84274" lon="-0.77297">
        <ele>33.4</ele>
        <time>2017-12-06T09:25:17Z</time>
      </trkpt>
      <trkpt lat="44.84276" lon="-0.77287">
        <ele>33.5</ele>
        <time>2017-12-06T09:25:18Z</time>
      </trkpt>
      <trkpt lat="44.84278" lon="-0.77277">
        <ele>33.6</ele>
        <time>2017-12-06T09:25:19Z</time>
      </trkpt>
      <trkpt lat="44.84279" lon="-0.77267">
        <ele>33.8</ele>
        <time>2017-12-06T09:25:20Z</time>
      </trkpt>
      <trkpt lat="44.84279" lon="-0.77256">
        <ele>34</ele>
        <time>2017-12-06T09:25:21Z</time>
      </trkpt>
      <trkpt lat="44.84279" lon="-0.77246">
        <ele>34</ele>
        <time>2017-12-06T09:25:22Z</time>
      </trkpt>
      <trkpt lat="44.84278" lon="-0.77236">
        <ele>34</ele>
        <time>2017-12-06T09:25:23Z</time>
      </trkpt>
      <trkpt lat="44.84277" lon="-0.77225">
        <ele>34</ele>
        <time>2017-12-06T09:25:24Z</time>
      </trkpt>
      <trkpt lat="44.84276" lon="-0.77215">
        <ele>34</ele>
        <time>2017-12-06T09:25:25Z</time>
      </trkpt>
      <trkpt lat="44.84275" lon="-0.77205">
        <ele>34</ele>
        <time>2017-12-06T09:25:26Z</time>
      </trkpt>
      <trkpt lat="44.84274" lon="-0.77195">
        <ele>34</ele>
        <time>2017-12-06T09:25:27Z</time>
      </trkpt>
      <trkpt lat="44.84272" lon="-0.77186">
        <ele>34</ele>
        <time>2017-12-06T09:25:28Z</time>
      </trkpt>
      <trkpt lat="44.84271" lon="-0.77176">
        <ele>34</ele>
        <time>2017-12-06T09:25:29Z</time>
      </trkpt>
      <trkpt lat="44.8427" lon="-0.77167">
        <ele>34</ele>
        <time>2017-12-06T09:25:30Z</time>
      </trkpt>
      <trkpt lat="44.84269" lon="-0.77158">
        <ele>34</ele>
        <time>2017-12-06T09:25:31Z</time>
      </trkpt>
      <trkpt lat="44.84267" lon="-0.77149">
        <ele>34</ele>
        <time>2017-12-06T09:25:32Z</time>
      </trkpt>
      <trkpt lat="44.84266" lon="-0.77141">
        <ele>34</ele>
        <time>2017-12-06T09:25:33Z</time>
      </trkpt>
      <trkpt lat="44.84265" lon="-0.77133">
        <ele>34</ele>
        <time>2017-12-06T09:25:34Z</time>
      </trkpt>
      <trkpt lat="44.84263" lon="-0.77125">
        <ele>34</ele>
        <time>2017-12-06T09:25:35Z</time>
      </trkpt>
      <trkpt lat="44.84262" lon="-0.77117">
        <ele>34</ele>
        <time>2017-12-06T09:25:36Z</time>
      </trkpt>
      <trkpt lat="44.84261" lon="-0.77109">
        <ele>34</ele>
        <time>2017-12-06T09:25:37Z</time>
      </trkpt>
      <trkpt lat="44.84259" lon="-0.77101">
        <ele>34</ele>
        <time>2017-12-06T09:25:38Z</time>
      </trkpt>
      <trkpt lat="44.84257" lon="-0.77094">
        <ele>34</ele>
        <time>2017-12-06T09:25:39Z</time>
      </trkpt>
      <trkpt lat="44.84255" lon="-0.77087">
        <ele>34.4</ele>
        <time>2017-12-06T09:25:40Z</time>
      </trkpt>
      <trkpt lat="44.84254" lon="-0.77079">
        <ele>35</ele>
        <time>2017-12-06T09:25:41Z</time>
      </trkpt>
      <trkpt lat="44.84253" lon="-0.77072">
        <ele>35.6</ele>
        <time>2017-12-06T09:25:42Z</time>
      </trkpt>
      <trkpt lat="44.84252" lon="-0.77065">
        <ele>36.2</ele>
        <time>2017-12-06T09:25:43Z</time>
      </trkpt>
      <trkpt lat="44.84251" lon="-0.77059">
        <ele>36.8</ele>
        <time>2017-12-06T09:25:44Z</time>
      </trkpt>
      <trkpt lat="44.84251" lon="-0.77053">
        <ele>37.3</ele>
        <time>2017-12-06T09:25:45Z</time>
      </trkpt>
      <trkpt lat="44.84251" lon="-0.77048">
        <ele>37.6</ele>
        <time>2017-12-06T09:25:46Z</time>
      </trkpt>
      <trkpt lat="44.84254" lon="-0.77045">
        <ele>38.1</ele>
        <time>2017-12-06T09:25:47Z</time>
      </trkpt>
      <trkpt lat="44.84258" lon="-0.77042">
        <ele>38.5</ele>
        <time>2017-12-06T09:25:48Z</time>
      </trkpt>
      <trkpt lat="44.84262" lon="-0.77039">
        <ele>38.2</ele>
        <time>2017-12-06T09:25:49Z</time>
      </trkpt>
      <trkpt lat="44.84267" lon="-0.77037">
        <ele>37.9</ele>
        <time>2017-12-06T09:25:50Z</time>
      </trkpt>
      <trkpt lat="44.84272" lon="-0.77035">
        <ele>37.6</ele>
        <time>2017-12-06T09:25:51Z</time>
      </trkpt>
      <trkpt lat="44.84278" lon="-0.77034">
        <ele>37.3</ele>
        <time>2017-12-06T09:25:52Z</time>
      </trkpt>
      <trkpt lat="44.84284" lon="-0.77033">
        <ele>36.9</ele>
        <time>2017-12-06T09:25:53Z</time>
      </trkpt>
      <trkpt lat="44.84289" lon="-0.77032">
        <ele>36.7</ele>
        <time>2017-12-06T09:25:54Z</time>
      </trkpt>
      <trkpt lat="44.84296" lon="-0.77031">
        <ele>36.4</ele>
        <time>2017-12-06T09:25:55Z</time>
      </trkpt>
      <trkpt lat="44.84301" lon="-0.77031">
        <ele>36.1</ele>
        <time>2017-12-06T09:25:56Z</time>
      </trkpt>
      <trkpt lat="44.84307" lon="-0.7703">
        <ele>35.9</ele>
        <time>2017-12-06T09:25:57Z</time>
      </trkpt>
      <trkpt lat="44.84311" lon="-0.77029">
        <ele>35.7</ele>
        <time>2017-12-06T09:25:58Z</time>
      </trkpt>
      <trkpt lat="44.84315" lon="-0.77024">
        <ele>35.4</ele>
        <time>2017-12-06T09:25:59Z</time>
      </trkpt>
      <trkpt lat="44.84317" lon="-0.77018">
        <ele>35.2</ele>
        <time>2017-12-06T09:26:00Z</time>
      </trkpt>
      <trkpt lat="44.84319" lon="-0.77012">
        <ele>35.1</ele>
        <time>2017-12-06T09:26:01Z</time>
      </trkpt>
      <trkpt lat="44.84319" lon="-0.77006">
        <ele>35.2</ele>
        <time>2017-12-06T09:26:02Z</time>
      </trkpt>
      <trkpt lat="44.84319" lon="-0.76999">
        <ele>35.3</ele>
        <time>2017-12-06T09:26:03Z</time>
      </trkpt>
      <trkpt lat="44.8432" lon="-0.7699">
        <ele>35.4</ele>
        <time>2017-12-06T09:26:04Z</time>
      </trkpt>
      <trkpt lat="44.84321" lon="-0.76982">
        <ele>35.5</ele>
        <time>2017-12-06T09:26:05Z</time>
      </trkpt>
      <trkpt lat="44.84321" lon="-0.76974">
        <ele>35.6</ele>
        <time>2017-12-06T09:26:06Z</time>
      </trkpt>
      <trkpt lat="44.84322" lon="-0.76966">
        <ele>35.7</ele>
        <time>2017-12-06T09:26:07Z</time>
      </trkpt>
      <trkpt lat="44.84324" lon="-0.76957">
        <ele>35.8</ele>
        <time>2017-12-06T09:26:08Z</time>
      </trkpt>
      <trkpt lat="44.84325" lon="-0.76949">
        <ele>35.8</ele>
        <time>2017-12-06T09:26:09Z</time>
      </trkpt>
      <trkpt lat="44.84327" lon="-0.7694">
        <ele>35.9</ele>
        <time>2017-12-06T09:26:10Z</time>
      </trkpt>
      <trkpt lat="44.84329" lon="-0.76932">
        <ele>36.1</ele>
        <time>2017-12-06T09:26:11Z</time>
      </trkpt>
      <trkpt lat="44.84331" lon="-0.76924">
        <ele>36.4</ele>
        <time>2017-12-06T09:26:12Z</time>
      </trkpt>
      <trkpt lat="44.84333" lon="-0.76916">
        <ele>36.6</ele>
        <time>2017-12-06T09:26:13Z</time>
      </trkpt>
      <trkpt lat="44.84335" lon="-0.76908">
        <ele>36.8</ele>
        <time>2017-12-06T09:26:14Z</time>
      </trkpt>
      <trkpt lat="44.84338" lon="-0.76901">
        <ele>37</ele>
        <time>2017-12-06T09:26:15Z</time>
      </trkpt>
      <trkpt lat="44.84341" lon="-0.76892">
        <ele>37.2</ele>
        <time>2017-12-06T09:26:16Z</time>
      </trkpt>
      <trkpt lat="44.84344" lon="-0.76884">
        <ele>37.4</ele>
        <time>2017-12-06T09:26:17Z</time>
      </trkpt>
      <trkpt lat="44.84347" lon="-0.76877">
        <ele>37.5</ele>
        <time>2017-12-06T09:26:18Z</time>
      </trkpt>
      <trkpt lat="44.8435" lon="-0.7687">
        <ele>37.6</ele>
        <time>2017-12-06T09:26:19Z</time>
      </trkpt>
      <trkpt lat="44.84353" lon="-0.76863">
        <ele>37.7</ele>
        <time>2017-12-06T09:26:20Z</time>
      </trkpt>
      <trkpt lat="44.84356" lon="-0.76856">
        <ele>37.7</ele>
        <time>2017-12-06T09:26:21Z</time>
      </trkpt>
      <trkpt lat="44.8436" lon="-0.7685">
        <ele>37.8</ele>
        <time>2017-12-06T09:26:22Z</time>
      </trkpt>
      <trkpt lat="44.84364" lon="-0.76843">
        <ele>37.9</ele>
        <time>2017-12-06T09:26:23Z</time>
      </trkpt>
      <trkpt lat="44.84367" lon="-0.76836">
        <ele>37.9</ele>
        <time>2017-12-06T09:26:24Z</time>
      </trkpt>
      <trkpt lat="44.84371" lon="-0.76829">
        <ele>38</ele>
        <time>2017-12-06T09:26:25Z</time>
      </trkpt>
      <trkpt lat="44.84374" lon="-0.76823">
        <ele>38</ele>
        <time>2017-12-06T09:26:26Z</time>
      </trkpt>
      <trkpt lat="44.84378" lon="-0.76816">
        <ele>38</ele>
        <time>2017-12-06T09:26:27Z</time>
      </trkpt>
      <trkpt lat="44.84382" lon="-0.7681">
        <ele>38</ele>
        <time>2017-12-06T09:26:28Z</time>
      </trkpt>
      <trkpt lat="44.84385" lon="-0.76803">
        <ele>38</ele>
        <time>2017-12-06T09:26:29Z</time>
      </trkpt>
      <trkpt lat="44.84389" lon="-0.76796">
        <ele>38</ele>
        <time>2017-12-06T09:26:30Z</time>
      </trkpt>
      <trkpt lat="44.84392" lon="-0.76789">
        <ele>38.1</ele>
        <time>2017-12-06T09:26:31Z</time>
      </trkpt>
      <trkpt lat="44.84394" lon="-0.76783">
        <ele>38.1</ele>
        <time>2017-12-06T09:26:32Z</time>
      </trkpt>
      <trkpt lat="44.84396" lon="-0.76776">
        <ele>38.2</ele>
        <time>2017-12-06T09:26:33Z</time>
      </trkpt>
      <trkpt lat="44.84399" lon="-0.76769">
        <ele>38.3</ele>
        <time>2017-12-06T09:26:34Z</time>
      </trkpt>
      <trkpt lat="44.84401" lon="-0.76762">
        <ele>38.4</ele>
        <time>2017-12-06T09:26:35Z</time>
      </trkpt>
      <trkpt lat="44.84403" lon="-0.76755">
        <ele>38.5</ele>
        <time>2017-12-06T09:26:36Z</time>
      </trkpt>
      <trkpt lat="44.84405" lon="-0.76749">
        <ele>38.7</ele>
        <time>2017-12-06T09:26:37Z</time>
      </trkpt>
      <trkpt lat="44.84408" lon="-0.76743">
        <ele>39</ele>
        <time>2017-12-06T09:26:38Z</time>
      </trkpt>
      <trkpt lat="44.8441" lon="-0.76738">
        <ele>39.2</ele>
        <time>2017-12-06T09:26:39Z</time>
      </trkpt>
      <trkpt lat="44.84413" lon="-0.76733">
        <ele>39.4</ele>
        <time>2017-12-06T09:26:40Z</time>
      </trkpt>
      <trkpt lat="44.84415" lon="-0.76728">
        <ele>39.6</ele>
        <time>2017-12-06T09:26:41Z</time>
      </trkpt>
      <trkpt lat="44.84419" lon="-0.76725">
        <ele>39.7</ele>
        <time>2017-12-06T09:26:42Z</time>
      </trkpt>
      <trkpt lat="44.84422" lon="-0.76722">
        <ele>39.8</ele>
        <time>2017-12-06T09:26:43Z</time>
      </trkpt>
      <trkpt lat="44.84426" lon="-0.7672">
        <ele>39.9</ele>
        <time>2017-12-06T09:26:44Z</time>
      </trkpt>
      <trkpt lat="44.8443" lon="-0.76718">
        <ele>40</ele>
        <time>2017-12-06T09:26:45Z</time>
      </trkpt>
      <trkpt lat="44.84435" lon="-0.76718">
        <ele>40</ele>
        <time>2017-12-06T09:26:46Z</time>
      </trkpt>
      <trkpt lat="44.84439" lon="-0.76718">
        <ele>40.1</ele>
        <time>2017-12-06T09:26:47Z</time>
      </trkpt>
      <trkpt lat="44.84444" lon="-0.76718">
        <ele>40.1</ele>
        <time>2017-12-06T09:26:48Z</time>
      </trkpt>
      <trkpt lat="44.84449" lon="-0.76719">
        <ele>40.1</ele>
        <time>2017-12-06T09:26:49Z</time>
      </trkpt>
      <trkpt lat="44.84454" lon="-0.7672">
        <ele>40.1</ele>
        <time>2017-12-06T09:26:50Z</time>
      </trkpt>
      <trkpt lat="44.8446" lon="-0.76719">
        <ele>40.2</ele>
        <time>2017-12-06T09:26:51Z</time>
      </trkpt>
      <trkpt lat="44.84465" lon="-0.76717">
        <ele>40.2</ele>
        <time>2017-12-06T09:26:52Z</time>
      </trkpt>
      <trkpt lat="44.84469" lon="-0.76713">
        <ele>40.1</ele>
        <time>2017-12-06T09:26:53Z</time>
      </trkpt>
      <trkpt lat="44.84473" lon="-0.76708">
        <ele>40.1</ele>
        <time>2017-12-06T09:26:54Z</time>
      </trkpt>
      <trkpt lat="44.84477" lon="-0.76704">
        <ele>40.1</ele>
        <time>2017-12-06T09:26:55Z</time>
      </trkpt>
      <trkpt lat="44.8448" lon="-0.76699">
        <ele>40.1</ele>
        <time>2017-12-06T09:26:56Z</time>
      </trkpt>
      <trkpt lat="44.84484" lon="-0.76695">
        <ele>40.1</ele>
        <time>2017-12-06T09:26:57Z</time>
      </trkpt>
      <trkpt lat="44.84488" lon="-0.76692">
        <ele>40</ele>
        <time>2017-12-06T09:26:58Z</time>
      </trkpt>
      <trkpt lat="44.84491" lon="-0.76688">
        <ele>40</ele>
        <time>2017-12-06T09:26:59Z</time>
      </trkpt>
      <trkpt lat="44.84493" lon="-0.76685">
        <ele>40</ele>
        <time>2017-12-06T09:27:00Z</time>
      </trkpt>
      <trkpt lat="44.84496" lon="-0.76682">
        <ele>40</ele>
        <time>2017-12-06T09:27:01Z</time>
      </trkpt>
      <trkpt lat="44.84499" lon="-0.76679">
        <ele>39.9</ele>
        <time>2017-12-06T09:27:02Z</time>
      </trkpt>
      <trkpt lat="44.84502" lon="-0.76676">
        <ele>39.9</ele>
        <time>2017-12-06T09:27:03Z</time>
      </trkpt>
      <trkpt lat="44.84505" lon="-0.76674">
        <ele>39.8</ele>
        <time>2017-12-06T09:27:04Z</time>
      </trkpt>
      <trkpt lat="44.84509" lon="-0.76672">
        <ele>39.8</ele>
        <time>2017-12-06T09:27:05Z</time>
      </trkpt>
      <trkpt lat="44.84513" lon="-0.76669">
        <ele>39.7</ele>
        <time>2017-12-06T09:27:06Z</time>
      </trkpt>
      <trkpt lat="44.84516" lon="-0.76667">
        <ele>39.7</ele>
        <time>2017-12-06T09:27:07Z</time>
      </trkpt>
      <trkpt lat="44.8452" lon="-0.76664">
        <ele>39.6</ele>
        <time>2017-12-06T09:27:08Z</time>
      </trkpt>
      <trkpt lat="44.84525" lon="-0.76661">
        <ele>39.6</ele>
        <time>2017-12-06T09:27:09Z</time>
      </trkpt>
      <trkpt lat="44.84529" lon="-0.76659">
        <ele>39.5</ele>
        <time>2017-12-06T09:27:10Z</time>
      </trkpt>
      <trkpt lat="44.84533" lon="-0.76656">
        <ele>39.5</ele>
        <time>2017-12-06T09:27:11Z</time>
      </trkpt>
      <trkpt lat="44.84538" lon="-0.76653">
        <ele>39.4</ele>
        <time>2017-12-06T09:27:12Z</time>
      </trkpt>
      <trkpt lat="44.84542" lon="-0.7665">
        <ele>39.3</ele>
        <time>2017-12-06T09:27:13Z</time>
      </trkpt>
      <trkpt lat="44.84547" lon="-0.76649">
        <ele>39.3</ele>
        <time>2017-12-06T09:27:14Z</time>
      </trkpt>
      <trkpt lat="44.84552" lon="-0.76649">
        <ele>39.2</ele>
        <time>2017-12-06T09:27:15Z</time>
      </trkpt>
      <trkpt lat="44.84557" lon="-0.76649">
        <ele>39.2</ele>
        <time>2017-12-06T09:27:16Z</time>
      </trkpt>
      <trkpt lat="44.84562" lon="-0.76651">
        <ele>39.1</ele>
        <time>2017-12-06T09:27:17Z</time>
      </trkpt>
      <trkpt lat="44.84566" lon="-0.76655">
        <ele>39</ele>
        <time>2017-12-06T09:27:18Z</time>
      </trkpt>
      <trkpt lat="44.8457" lon="-0.76659">
        <ele>39</ele>
        <time>2017-12-06T09:27:19Z</time>
      </trkpt>
      <trkpt lat="44.84574" lon="-0.76663">
        <ele>38.9</ele>
        <time>2017-12-06T09:27:20Z</time>
      </trkpt>
      <trkpt lat="44.84579" lon="-0.76667">
        <ele>38.8</ele>
        <time>2017-12-06T09:27:21Z</time>
      </trkpt>
      <trkpt lat="44.84583" lon="-0.76671">
        <ele>38.8</ele>
        <time>2017-12-06T09:27:22Z</time>
      </trkpt>
      <trkpt lat="44.84587" lon="-0.76675">
        <ele>38.7</ele>
        <time>2017-12-06T09:27:23Z</time>
      </trkpt>
      <trkpt lat="44.84591" lon="-0.76679">
        <ele>38.7</ele>
        <time>2017-12-06T09:27:24Z</time>
      </trkpt>
      <trkpt lat="44.84595" lon="-0.76683">
        <ele>38.7</ele>
        <time>2017-12-06T09:27:25Z</time>
      </trkpt>
      <trkpt lat="44.84599" lon="-0.76688">
        <ele>38.7</ele>
        <time>2017-12-06T09:27:26Z</time>
      </trkpt>
      <trkpt lat="44.84603" lon="-0.76693">
        <ele>38.6</ele>
        <time>2017-12-06T09:27:27Z</time>
      </trkpt>
      <trkpt lat="44.84606" lon="-0.76698">
        <ele>38.6</ele>
        <time>2017-12-06T09:27:28Z</time>
      </trkpt>
      <trkpt lat="44.84609" lon="-0.76703">
        <ele>38.6</ele>
        <time>2017-12-06T09:27:29Z</time>
      </trkpt>
      <trkpt lat="44.84612" lon="-0.76709">
        <ele>38.6</ele>
        <time>2017-12-06T09:27:30Z</time>
      </trkpt>
      <trkpt lat="44.84615" lon="-0.76715">
        <ele>38.6</ele>
        <time>2017-12-06T09:27:31Z</time>
      </trkpt>
      <trkpt lat="44.84618" lon="-0.76721">
        <ele>38.7</ele>
        <time>2017-12-06T09:27:32Z</time>
      </trkpt>
      <trkpt lat="44.8462" lon="-0.76727">
        <ele>38.8</ele>
        <time>2017-12-06T09:27:33Z</time>
      </trkpt>
      <trkpt lat="44.84622" lon="-0.76733">
        <ele>39</ele>
        <time>2017-12-06T09:27:34Z</time>
      </trkpt>
      <trkpt lat="44.84624" lon="-0.76739">
        <ele>38.8</ele>
        <time>2017-12-06T09:27:35Z</time>
      </trkpt>
      <trkpt lat="44.84626" lon="-0.76745">
        <ele>38.5</ele>
        <time>2017-12-06T09:27:36Z</time>
      </trkpt>
      <trkpt lat="44.84629" lon="-0.76751">
        <ele>38.2</ele>
        <time>2017-12-06T09:27:37Z</time>
      </trkpt>
      <trkpt lat="44.84631" lon="-0.76757">
        <ele>37.9</ele>
        <time>2017-12-06T09:27:38Z</time>
      </trkpt>
      <trkpt lat="44.84634" lon="-0.76761">
        <ele>37.6</ele>
        <time>2017-12-06T09:27:39Z</time>
      </trkpt>
      <trkpt lat="44.84638" lon="-0.76763">
        <ele>37.3</ele>
        <time>2017-12-06T09:27:40Z</time>
      </trkpt>
      <trkpt lat="44.84641" lon="-0.76763">
        <ele>37.1</ele>
        <time>2017-12-06T09:27:41Z</time>
      </trkpt>
      <trkpt lat="44.84645" lon="-0.76763">
        <ele>36.8</ele>
        <time>2017-12-06T09:27:42Z</time>
      </trkpt>
      <trkpt lat="44.84649" lon="-0.76762">
        <ele>36.5</ele>
        <time>2017-12-06T09:27:43Z</time>
      </trkpt>
      <trkpt lat="44.84653" lon="-0.76761">
        <ele>36.2</ele>
        <time>2017-12-06T09:27:44Z</time>
      </trkpt>
      <trkpt lat="44.84656" lon="-0.76761">
        <ele>35.9</ele>
        <time>2017-12-06T09:27:45Z</time>
      </trkpt>
      <trkpt lat="44.84661" lon="-0.7676">
        <ele>35.7</ele>
        <time>2017-12-06T09:27:46Z</time>
      </trkpt>
      <trkpt lat="44.84665" lon="-0.7676">
        <ele>35.6</ele>
        <time>2017-12-06T09:27:47Z</time>
      </trkpt>
      <trkpt lat="44.84669" lon="-0.76758">
        <ele>35.4</ele>
        <time>2017-12-06T09:27:48Z</time>
      </trkpt>
      <trkpt lat="44.84674" lon="-0.76756">
        <ele>35.2</ele>
        <time>2017-12-06T09:27:49Z</time>
      </trkpt>
      <trkpt lat="44.84679" lon="-0.76755">
        <ele>35</ele>
        <time>2017-12-06T09:27:50Z</time>
      </trkpt>
      <trkpt lat="44.84682" lon="-0.76753">
        <ele>34.8</ele>
        <time>2017-12-06T09:27:51Z</time>
      </trkpt>
      <trkpt lat="44.84687" lon="-0.76753">
        <ele>34.6</ele>
        <time>2017-12-06T09:27:52Z</time>
      </trkpt>
      <trkpt lat="44.84691" lon="-0.76753">
        <ele>34.4</ele>
        <time>2017-12-06T09:27:53Z</time>
      </trkpt>
      <trkpt lat="44.84697" lon="-0.76754">
        <ele>34.2</ele>
        <time>2017-12-06T09:27:54Z</time>
      </trkpt>
      <trkpt lat="44.84703" lon="-0.76756">
        <ele>33.8</ele>
        <time>2017-12-06T09:27:55Z</time>
      </trkpt>
      <trkpt lat="44.84709" lon="-0.76758">
        <ele>33.5</ele>
        <time>2017-12-06T09:27:56Z</time>
      </trkpt>
      <trkpt lat="44.84715" lon="-0.7676">
        <ele>33.2</ele>
        <time>2017-12-06T09:27:57Z</time>
      </trkpt>
      <trkpt lat="44.84722" lon="-0.76763">
        <ele>33</ele>
        <time>2017-12-06T09:27:58Z</time>
      </trkpt>
      <trkpt lat="44.84729" lon="-0.76766">
        <ele>33</ele>
        <time>2017-12-06T09:27:59Z</time>
      </trkpt>
      <trkpt lat="44.84735" lon="-0.7677">
        <ele>32.9</ele>
        <time>2017-12-06T09:28:00Z</time>
      </trkpt>
      <trkpt lat="44.8474" lon="-0.76773">
        <ele>32.8</ele>
        <time>2017-12-06T09:28:01Z</time>
      </trkpt>
      <trkpt lat="44.84745" lon="-0.76778">
        <ele>32.8</ele>
        <time>2017-12-06T09:28:02Z</time>
      </trkpt>
      <trkpt lat="44.8475" lon="-0.7678">
        <ele>32.7</ele>
        <time>2017-12-06T09:28:03Z</time>
      </trkpt>
      <trkpt lat="44.84754" lon="-0.76785">
        <ele>32.6</ele>
        <time>2017-12-06T09:28:04Z</time>
      </trkpt>
      <trkpt lat="44.84759" lon="-0.76787">
        <ele>32.5</ele>
        <time>2017-12-06T09:28:05Z</time>
      </trkpt>
      <trkpt lat="44.84765" lon="-0.7679">
        <ele>32.4</ele>
        <time>2017-12-06T09:28:06Z</time>
      </trkpt>
      <trkpt lat="44.84771" lon="-0.76793">
        <ele>32.3</ele>
        <time>2017-12-06T09:28:07Z</time>
      </trkpt>
      <trkpt lat="44.84776" lon="-0.76796">
        <ele>32.2</ele>
        <time>2017-12-06T09:28:08Z</time>
      </trkpt>
      <trkpt lat="44.84781" lon="-0.76798">
        <ele>32.2</ele>
        <time>2017-12-06T09:28:09Z</time>
      </trkpt>
      <trkpt lat="44.84786" lon="-0.768">
        <ele>32.1</ele>
        <time>2017-12-06T09:28:10Z</time>
      </trkpt>
      <trkpt lat="44.84792" lon="-0.768">
        <ele>32</ele>
        <time>2017-12-06T09:28:11Z</time>
      </trkpt>
      <trkpt lat="44.84797" lon="-0.768">
        <ele>32</ele>
        <time>2017-12-06T09:28:12Z</time>
      </trkpt>
      <trkpt lat="44.84801" lon="-0.76799">
        <ele>32</ele>
        <time>2017-12-06T09:28:13Z</time>
      </trkpt>
      <trkpt lat="44.84806" lon="-0.76797">
        <ele>32.1</ele>
        <time>2017-12-06T09:28:14Z</time>
      </trkpt>
      <trkpt lat="44.8481" lon="-0.76793">
        <ele>32.1</ele>
        <time>2017-12-06T09:28:15Z</time>
      </trkpt>
      <trkpt lat="44.84813" lon="-0.76788">
        <ele>32.1</ele>
        <time>2017-12-06T09:28:16Z</time>
      </trkpt>
      <trkpt lat="44.84817" lon="-0.76783">
        <ele>32.2</ele>
        <time>2017-12-06T09:28:17Z</time>
      </trkpt>
      <trkpt lat="44.84822" lon="-0.76777">
        <ele>32.2</ele>
        <time>2017-12-06T09:28:18Z</time>
      </trkpt>
      <trkpt lat="44.84827" lon="-0.76771">
        <ele>32.2</ele>
        <time>2017-12-06T09:28:19Z</time>
      </trkpt>
      <trkpt lat="44.8483" lon="-0.7677">
        <ele>32.2</ele>
        <time>2017-12-06T09:28:20Z</time>
      </trkpt>
      <trkpt lat="44.84834" lon="-0.76769">
        <ele>32.3</ele>
        <time>2017-12-06T09:28:21Z</time>
      </trkpt>
      <trkpt lat="44.84838" lon="-0.76768">
        <ele>32.3</ele>
        <time>2017-12-06T09:28:22Z</time>
      </trkpt>
      <trkpt lat="44.84841" lon="-0.76765">
        <ele>32.3</ele>
        <time>2017-12-06T09:28:23Z</time>
      </trkpt>
      <trkpt lat="44.84843" lon="-0.76761">
        <ele>32.3</ele>
        <time>2017-12-06T09:28:24Z</time>
      </trkpt>
      <trkpt lat="44.84845" lon="-0.76756">
        <ele>32.3</ele>
        <time>2017-12-06T09:28:25Z</time>
      </trkpt>
      <trkpt lat="44.84847" lon="-0.76752">
        <ele>32.3</ele>
        <time>2017-12-06T09:28:26Z</time>
      </trkpt>
      <trkpt lat="44.84849" lon="-0.76747">
        <ele>32.3</ele>
        <time>2017-12-06T09:28:27Z</time>
      </trkpt>
      <trkpt lat="44.84851" lon="-0.76742">
        <ele>32.3</ele>
        <time>2017-12-06T09:28:28Z</time>
      </trkpt>
      <trkpt lat="44.84853" lon="-0.76734">
        <ele>32.3</ele>
        <time>2017-12-06T09:28:29Z</time>
      </trkpt>
      <trkpt lat="44.84855" lon="-0.76728">
        <ele>32.3</ele>
        <time>2017-12-06T09:28:30Z</time>
      </trkpt>
      <trkpt lat="44.84858" lon="-0.76724">
        <ele>32.3</ele>
        <time>2017-12-06T09:28:31Z</time>
      </trkpt>
      <trkpt lat="44.84862" lon="-0.76722">
        <ele>32.3</ele>
        <time>2017-12-06T09:28:32Z</time>
      </trkpt>
      <trkpt lat="44.84865" lon="-0.76718">
        <ele>32.2</ele>
        <time>2017-12-06T09:28:33Z</time>
      </trkpt>
      <trkpt lat="44.84867" lon="-0.76711">
        <ele>32.1</ele>
        <time>2017-12-06T09:28:34Z</time>
      </trkpt>
      <trkpt lat="44.84869" lon="-0.76708">
        <ele>32.1</ele>
        <time>2017-12-06T09:28:35Z</time>
      </trkpt>
      <trkpt lat="44.84873" lon="-0.76706">
        <ele>32</ele>
        <time>2017-12-06T09:28:36Z</time>
      </trkpt>
      <trkpt lat="44.84876" lon="-0.76706">
        <ele>31.9</ele>
        <time>2017-12-06T09:28:37Z</time>
      </trkpt>
      <trkpt lat="44.84878" lon="-0.76702">
        <ele>31.9</ele>
        <time>2017-12-06T09:28:38Z</time>
      </trkpt>
      <trkpt lat="44.84881" lon="-0.76697">
        <ele>31.8</ele>
        <time>2017-12-06T09:28:39Z</time>
      </trkpt>
      <trkpt lat="44.84884" lon="-0.76692">
        <ele>31.7</ele>
        <time>2017-12-06T09:28:40Z</time>
      </trkpt>
      <trkpt lat="44.84887" lon="-0.76688">
        <ele>31.5</ele>
        <time>2017-12-06T09:28:41Z</time>
      </trkpt>
      <trkpt lat="44.84894" lon="-0.76689">
        <ele>31.4</ele>
        <time>2017-12-06T09:28:43Z</time>
      </trkpt>
      <trkpt lat="44.84897" lon="-0.76689">
        <ele>31.4</ele>
        <time>2017-12-06T09:28:44Z</time>
      </trkpt>
      <trkpt lat="44.849" lon="-0.76687">
        <ele>31.3</ele>
        <time>2017-12-06T09:28:45Z</time>
      </trkpt>
      <trkpt lat="44.84902" lon="-0.76685">
        <ele>31.3</ele>
        <time>2017-12-06T09:28:46Z</time>
      </trkpt>
      <trkpt lat="44.84906" lon="-0.76681">
        <ele>31.2</ele>
        <time>2017-12-06T09:28:47Z</time>
      </trkpt>
      <trkpt lat="44.84908" lon="-0.76678">
        <ele>31.2</ele>
        <time>2017-12-06T09:28:48Z</time>
      </trkpt>
      <trkpt lat="44.84911" lon="-0.76675">
        <ele>31.1</ele>
        <time>2017-12-06T09:28:49Z</time>
      </trkpt>
      <trkpt lat="44.84914" lon="-0.76671">
        <ele>31.1</ele>
        <time>2017-12-06T09:28:50Z</time>
      </trkpt>
      <trkpt lat="44.84915" lon="-0.76666">
        <ele>31.1</ele>
        <time>2017-12-06T09:28:51Z</time>
      </trkpt>
      <trkpt lat="44.84916" lon="-0.76662">
        <ele>31</ele>
        <time>2017-12-06T09:28:52Z</time>
      </trkpt>
      <trkpt lat="44.84918" lon="-0.76659">
        <ele>31</ele>
        <time>2017-12-06T09:28:53Z</time>
      </trkpt>
      <trkpt lat="44.8492" lon="-0.76655">
        <ele>31</ele>
        <time>2017-12-06T09:28:54Z</time>
      </trkpt>
      <trkpt lat="44.84922" lon="-0.76651">
        <ele>31</ele>
        <time>2017-12-06T09:28:55Z</time>
      </trkpt>
      <trkpt lat="44.84925" lon="-0.76648">
        <ele>31</ele>
        <time>2017-12-06T09:28:56Z</time>
      </trkpt>
      <trkpt lat="44.84927" lon="-0.76642">
        <ele>31</ele>
        <time>2017-12-06T09:28:57Z</time>
      </trkpt>
      <trkpt lat="44.8493" lon="-0.76635">
        <ele>31</ele>
        <time>2017-12-06T09:28:58Z</time>
      </trkpt>
      <trkpt lat="44.84933" lon="-0.76629">
        <ele>31</ele>
        <time>2017-12-06T09:28:59Z</time>
      </trkpt>
      <trkpt lat="44.84936" lon="-0.76623">
        <ele>31</ele>
        <time>2017-12-06T09:29:00Z</time>
      </trkpt>
      <trkpt lat="44.84939" lon="-0.76617">
        <ele>31</ele>
        <time>2017-12-06T09:29:01Z</time>
      </trkpt>
      <trkpt lat="44.84942" lon="-0.76616">
        <ele>31</ele>
        <time>2017-12-06T09:29:02Z</time>
      </trkpt>
      <trkpt lat="44.84946" lon="-0.76616">
        <ele>31</ele>
        <time>2017-12-06T09:29:03Z</time>
      </trkpt>
      <trkpt lat="44.8495" lon="-0.76616">
        <ele>31</ele>
        <time>2017-12-06T09:29:04Z</time>
      </trkpt>
      <trkpt lat="44.84956" lon="-0.76614">
        <ele>31.1</ele>
        <time>2017-12-06T09:29:05Z</time>
      </trkpt>
      <trkpt lat="44.84959" lon="-0.76613">
        <ele>31.1</ele>
        <time>2017-12-06T09:29:07Z</time>
      </trkpt>
      <trkpt lat="44.84962" lon="-0.76609">
        <ele>31.1</ele>
        <time>2017-12-06T09:29:09Z</time>
      </trkpt>
      <trkpt lat="44.84966" lon="-0.76606">
        <ele>31.1</ele>
        <time>2017-12-06T09:29:11Z</time>
      </trkpt>
      <trkpt lat="44.84969" lon="-0.76606">
        <ele>31.2</ele>
        <time>2017-12-06T09:29:12Z</time>
      </trkpt>
      <trkpt lat="44.84973" lon="-0.76605">
        <ele>31.2</ele>
        <time>2017-12-06T09:29:13Z</time>
      </trkpt>
      <trkpt lat="44.84976" lon="-0.76604">
        <ele>31.2</ele>
        <time>2017-12-06T09:29:14Z</time>
      </trkpt>
      <trkpt lat="44.84979" lon="-0.76605">
        <ele>31.2</ele>
        <time>2017-12-06T09:29:15Z</time>
      </trkpt>
      <trkpt lat="44.84982" lon="-0.76604">
        <ele>31.2</ele>
        <time>2017-12-06T09:29:16Z</time>
      </trkpt>
      <trkpt lat="44.84986" lon="-0.76604">
        <ele>31.3</ele>
        <time>2017-12-06T09:29:17Z</time>
      </trkpt>
      <trkpt lat="44.84991" lon="-0.76603">
        <ele>31.3</ele>
        <time>2017-12-06T09:29:18Z</time>
      </trkpt>
      <trkpt lat="44.84995" lon="-0.76602">
        <ele>31.3</ele>
        <time>2017-12-06T09:29:19Z</time>
      </trkpt>
      <trkpt lat="44.84998" lon="-0.76601">
        <ele>31.4</ele>
        <time>2017-12-06T09:29:20Z</time>
      </trkpt>
      <trkpt lat="44.85001" lon="-0.766">
        <ele>31.4</ele>
        <time>2017-12-06T09:29:21Z</time>
      </trkpt>
      <trkpt lat="44.85004" lon="-0.76599">
        <ele>31.4</ele>
        <time>2017-12-06T09:29:22Z</time>
      </trkpt>
      <trkpt lat="44.85009" lon="-0.766">
        <ele>31.4</ele>
        <time>2017-12-06T09:29:23Z</time>
      </trkpt>
      <trkpt lat="44.85012" lon="-0.76601">
        <ele>31.4</ele>
        <time>2017-12-06T09:29:24Z</time>
      </trkpt>
      <trkpt lat="44.85017" lon="-0.766">
        <ele>31.5</ele>
        <time>2017-12-06T09:29:25Z</time>
      </trkpt>
      <trkpt lat="44.85022" lon="-0.76599">
        <ele>31.5</ele>
        <time>2017-12-06T09:29:26Z</time>
      </trkpt>
      <trkpt lat="44.85026" lon="-0.76599">
        <ele>31.5</ele>
        <time>2017-12-06T09:29:27Z</time>
      </trkpt>
      <trkpt lat="44.8503" lon="-0.76599">
        <ele>31.4</ele>
        <time>2017-12-06T09:29:28Z</time>
      </trkpt>
      <trkpt lat="44.85033" lon="-0.76599">
        <ele>31.4</ele>
        <time>2017-12-06T09:29:29Z</time>
      </trkpt>
      <trkpt lat="44.85039" lon="-0.76599">
        <ele>31.4</ele>
        <time>2017-12-06T09:29:31Z</time>
      </trkpt>
      <trkpt lat="44.85043" lon="-0.766">
        <ele>31.4</ele>
        <time>2017-12-06T09:29:32Z</time>
      </trkpt>
      <trkpt lat="44.85047" lon="-0.76602">
        <ele>31.4</ele>
        <time>2017-12-06T09:29:33Z</time>
      </trkpt>
      <trkpt lat="44.8505" lon="-0.76604">
        <ele>31.4</ele>
        <time>2017-12-06T09:29:34Z</time>
      </trkpt>
      <trkpt lat="44.85054" lon="-0.76605">
        <ele>31.4</ele>
        <time>2017-12-06T09:29:35Z</time>
      </trkpt>
      <trkpt lat="44.85055" lon="-0.76611">
        <ele>31.4</ele>
        <time>2017-12-06T09:29:37Z</time>
      </trkpt>
      <trkpt lat="44.85057" lon="-0.76615">
        <ele>31.4</ele>
        <time>2017-12-06T09:29:39Z</time>
      </trkpt>
      <trkpt lat="44.85059" lon="-0.76619">
        <ele>31.4</ele>
        <time>2017-12-06T09:29:49Z</time>
      </trkpt>
      <trkpt lat="44.85061" lon="-0.76622">
        <ele>31.4</ele>
        <time>2017-12-06T09:29:52Z</time>
      </trkpt>
      <trkpt lat="44.85063" lon="-0.76625">
        <ele>31.4</ele>
        <time>2017-12-06T09:29:55Z</time>
      </trkpt>
      <trkpt lat="44.85066" lon="-0.76627">
        <ele>31.4</ele>
        <time>2017-12-06T09:30:00Z</time>
      </trkpt>
      <trkpt lat="44.8507" lon="-0.76631">
        <ele>31.4</ele>
        <time>2017-12-06T09:30:02Z</time>
      </trkpt>
      <trkpt lat="44.85074" lon="-0.76634">
        <ele>31.4</ele>
        <time>2017-12-06T09:30:04Z</time>
      </trkpt>
      <trkpt lat="44.85077" lon="-0.76634">
        <ele>31.4</ele>
        <time>2017-12-06T09:30:05Z</time>
      </trkpt>
      <trkpt lat="44.85082" lon="-0.76636">
        <ele>31.4</ele>
        <time>2017-12-06T09:30:07Z</time>
      </trkpt>
      <trkpt lat="44.85085" lon="-0.76639">
        <ele>31.5</ele>
        <time>2017-12-06T09:30:08Z</time>
      </trkpt>
      <trkpt lat="44.85088" lon="-0.76642">
        <ele>31.5</ele>
        <time>2017-12-06T09:30:09Z</time>
      </trkpt>
      <trkpt lat="44.85091" lon="-0.76644">
        <ele>31.5</ele>
        <time>2017-12-06T09:30:10Z</time>
      </trkpt>
      <trkpt lat="44.85095" lon="-0.76647">
        <ele>31.5</ele>
        <time>2017-12-06T09:30:11Z</time>
      </trkpt>
      <trkpt lat="44.85099" lon="-0.76647">
        <ele>31.5</ele>
        <time>2017-12-06T09:30:12Z</time>
      </trkpt>
      <trkpt lat="44.85102" lon="-0.76649">
        <ele>31.6</ele>
        <time>2017-12-06T09:30:13Z</time>
      </trkpt>
      <trkpt lat="44.85105" lon="-0.76653">
        <ele>31.6</ele>
        <time>2017-12-06T09:30:14Z</time>
      </trkpt>
      <trkpt lat="44.85109" lon="-0.76655">
        <ele>31.6</ele>
        <time>2017-12-06T09:30:15Z</time>
      </trkpt>
      <trkpt lat="44.85111" lon="-0.76659">
        <ele>31.6</ele>
        <time>2017-12-06T09:30:16Z</time>
      </trkpt>
      <trkpt lat="44.85114" lon="-0.76664">
        <ele>31.6</ele>
        <time>2017-12-06T09:30:17Z</time>
      </trkpt>
      <trkpt lat="44.85117" lon="-0.76667">
        <ele>31.7</ele>
        <time>2017-12-06T09:30:18Z</time>
      </trkpt>
      <trkpt lat="44.85122" lon="-0.7667">
        <ele>31.7</ele>
        <time>2017-12-06T09:30:19Z</time>
      </trkpt>
      <trkpt lat="44.85126" lon="-0.76672">
        <ele>31.7</ele>
        <time>2017-12-06T09:30:20Z</time>
      </trkpt>
      <trkpt lat="44.85128" lon="-0.76675">
        <ele>31.7</ele>
        <time>2017-12-06T09:30:21Z</time>
      </trkpt>
      <trkpt lat="44.85132" lon="-0.76677">
        <ele>31.8</ele>
        <time>2017-12-06T09:30:22Z</time>
      </trkpt>
      <trkpt lat="44.85136" lon="-0.76679">
        <ele>31.8</ele>
        <time>2017-12-06T09:30:23Z</time>
      </trkpt>
      <trkpt lat="44.8514" lon="-0.76679">
        <ele>31.8</ele>
        <time>2017-12-06T09:30:24Z</time>
      </trkpt>
      <trkpt lat="44.85144" lon="-0.76679">
        <ele>31.8</ele>
        <time>2017-12-06T09:30:25Z</time>
      </trkpt>
      <trkpt lat="44.85147" lon="-0.76683">
        <ele>31.8</ele>
        <time>2017-12-06T09:30:26Z</time>
      </trkpt>
      <trkpt lat="44.8515" lon="-0.76686">
        <ele>31.8</ele>
        <time>2017-12-06T09:30:27Z</time>
      </trkpt>
      <trkpt lat="44.85152" lon="-0.76689">
        <ele>31.8</ele>
        <time>2017-12-06T09:30:28Z</time>
      </trkpt>
      <trkpt lat="44.85154" lon="-0.76693">
        <ele>31.8</ele>
        <time>2017-12-06T09:30:29Z</time>
      </trkpt>
      <trkpt lat="44.85159" lon="-0.76696">
        <ele>31.8</ele>
        <time>2017-12-06T09:30:30Z</time>
      </trkpt>
      <trkpt lat="44.85163" lon="-0.76698">
        <ele>31.8</ele>
        <time>2017-12-06T09:30:31Z</time>
      </trkpt>
      <trkpt lat="44.85166" lon="-0.76698">
        <ele>31.9</ele>
        <time>2017-12-06T09:30:32Z</time>
      </trkpt>
      <trkpt lat="44.85171" lon="-0.76699">
        <ele>31.9</ele>
        <time>2017-12-06T09:30:33Z</time>
      </trkpt>
      <trkpt lat="44.85175" lon="-0.76699">
        <ele>31.9</ele>
        <time>2017-12-06T09:30:34Z</time>
      </trkpt>
      <trkpt lat="44.85179" lon="-0.76698">
        <ele>31.9</ele>
        <time>2017-12-06T09:30:35Z</time>
      </trkpt>
      <trkpt lat="44.85183" lon="-0.76699">
        <ele>31.9</ele>
        <time>2017-12-06T09:30:36Z</time>
      </trkpt>
      <trkpt lat="44.85186" lon="-0.76701">
        <ele>31.9</ele>
        <time>2017-12-06T09:30:37Z</time>
      </trkpt>
      <trkpt lat="44.85189" lon="-0.76703">
        <ele>31.9</ele>
        <time>2017-12-06T09:30:38Z</time>
      </trkpt>
      <trkpt lat="44.85192" lon="-0.76706">
        <ele>32</ele>
        <time>2017-12-06T09:30:39Z</time>
      </trkpt>
      <trkpt lat="44.85195" lon="-0.76707">
        <ele>32</ele>
        <time>2017-12-06T09:30:40Z</time>
      </trkpt>
      <trkpt lat="44.85198" lon="-0.76709">
        <ele>32</ele>
        <time>2017-12-06T09:30:41Z</time>
      </trkpt>
      <trkpt lat="44.85201" lon="-0.76713">
        <ele>32</ele>
        <time>2017-12-06T09:30:42Z</time>
      </trkpt>
      <trkpt lat="44.85204" lon="-0.76717">
        <ele>32</ele>
        <time>2017-12-06T09:30:43Z</time>
      </trkpt>
      <trkpt lat="44.85207" lon="-0.76719">
        <ele>32.1</ele>
        <time>2017-12-06T09:30:44Z</time>
      </trkpt>
      <trkpt lat="44.8521" lon="-0.76721">
        <ele>32.1</ele>
        <time>2017-12-06T09:30:45Z</time>
      </trkpt>
      <trkpt lat="44.85212" lon="-0.76724">
        <ele>32.2</ele>
        <time>2017-12-06T09:30:46Z</time>
      </trkpt>
      <trkpt lat="44.85214" lon="-0.76728">
        <ele>32.3</ele>
        <time>2017-12-06T09:30:47Z</time>
      </trkpt>
      <trkpt lat="44.85217" lon="-0.7673">
        <ele>32.3</ele>
        <time>2017-12-06T09:30:48Z</time>
      </trkpt>
      <trkpt lat="44.85223" lon="-0.76732">
        <ele>32.5</ele>
        <time>2017-12-06T09:30:50Z</time>
      </trkpt>
      <trkpt lat="44.85229" lon="-0.76732">
        <ele>32.7</ele>
        <time>2017-12-06T09:30:52Z</time>
      </trkpt>
      <trkpt lat="44.85233" lon="-0.76732">
        <ele>32.8</ele>
        <time>2017-12-06T09:30:53Z</time>
      </trkpt>
      <trkpt lat="44.85235" lon="-0.7673">
        <ele>32.9</ele>
        <time>2017-12-06T09:30:54Z</time>
      </trkpt>
      <trkpt lat="44.85238" lon="-0.76728">
        <ele>33.1</ele>
        <time>2017-12-06T09:30:55Z</time>
      </trkpt>
      <trkpt lat="44.85242" lon="-0.76726">
        <ele>33.3</ele>
        <time>2017-12-06T09:30:56Z</time>
      </trkpt>
      <trkpt lat="44.85245" lon="-0.76726">
        <ele>33.4</ele>
        <time>2017-12-06T09:30:57Z</time>
      </trkpt>
      <trkpt lat="44.85248" lon="-0.76726">
        <ele>33.5</ele>
        <time>2017-12-06T09:30:58Z</time>
      </trkpt>
      <trkpt lat="44.85252" lon="-0.76729">
        <ele>33.8</ele>
        <time>2017-12-06T09:31:00Z</time>
      </trkpt>
      <trkpt lat="44.85254" lon="-0.76733">
        <ele>33.9</ele>
        <time>2017-12-06T09:31:02Z</time>
      </trkpt>
      <trkpt lat="44.85255" lon="-0.76739">
        <ele>34.6</ele>
        <time>2017-12-06T09:31:04Z</time>
      </trkpt>
      <trkpt lat="44.85257" lon="-0.76742">
        <ele>34.6</ele>
        <time>2017-12-06T09:31:06Z</time>
      </trkpt>
      <trkpt lat="44.85259" lon="-0.76747">
        <ele>34.7</ele>
        <time>2017-12-06T09:31:07Z</time>
      </trkpt>
      <trkpt lat="44.85263" lon="-0.76751">
        <ele>34.9</ele>
        <time>2017-12-06T09:31:09Z</time>
      </trkpt>
      <trkpt lat="44.85268" lon="-0.76752">
        <ele>35</ele>
        <time>2017-12-06T09:31:11Z</time>
      </trkpt>
      <trkpt lat="44.85271" lon="-0.76752">
        <ele>35</ele>
        <time>2017-12-06T09:31:12Z</time>
      </trkpt>
      <trkpt lat="44.85274" lon="-0.76751">
        <ele>34.9</ele>
        <time>2017-12-06T09:31:13Z</time>
      </trkpt>
      <trkpt lat="44.85278" lon="-0.7675">
        <ele>34.8</ele>
        <time>2017-12-06T09:31:14Z</time>
      </trkpt>
      <trkpt lat="44.85281" lon="-0.76749">
        <ele>34.7</ele>
        <time>2017-12-06T09:31:15Z</time>
      </trkpt>
      <trkpt lat="44.85284" lon="-0.76747">
        <ele>34.6</ele>
        <time>2017-12-06T09:31:16Z</time>
      </trkpt>
      <trkpt lat="44.85288" lon="-0.76745">
        <ele>34.5</ele>
        <time>2017-12-06T09:31:17Z</time>
      </trkpt>
      <trkpt lat="44.85291" lon="-0.76743">
        <ele>34.4</ele>
        <time>2017-12-06T09:31:18Z</time>
      </trkpt>
      <trkpt lat="44.85295" lon="-0.76741">
        <ele>34.3</ele>
        <time>2017-12-06T09:31:19Z</time>
      </trkpt>
      <trkpt lat="44.85298" lon="-0.76739">
        <ele>34.2</ele>
        <time>2017-12-06T09:31:20Z</time>
      </trkpt>
      <trkpt lat="44.85301" lon="-0.76736">
        <ele>34</ele>
        <time>2017-12-06T09:31:21Z</time>
      </trkpt>
      <trkpt lat="44.85305" lon="-0.76733">
        <ele>33.9</ele>
        <time>2017-12-06T09:31:22Z</time>
      </trkpt>
      <trkpt lat="44.85308" lon="-0.76729">
        <ele>33.8</ele>
        <time>2017-12-06T09:31:23Z</time>
      </trkpt>
      <trkpt lat="44.85313" lon="-0.76726">
        <ele>33.7</ele>
        <time>2017-12-06T09:31:24Z</time>
      </trkpt>
      <trkpt lat="44.85317" lon="-0.76723">
        <ele>33.6</ele>
        <time>2017-12-06T09:31:25Z</time>
      </trkpt>
      <trkpt lat="44.85322" lon="-0.7672">
        <ele>33.6</ele>
        <time>2017-12-06T09:31:26Z</time>
      </trkpt>
      <trkpt lat="44.85326" lon="-0.76717">
        <ele>33.7</ele>
        <time>2017-12-06T09:31:27Z</time>
      </trkpt>
      <trkpt lat="44.8533" lon="-0.76715">
        <ele>33.8</ele>
        <time>2017-12-06T09:31:28Z</time>
      </trkpt>
      <trkpt lat="44.85335" lon="-0.76713">
        <ele>33.9</ele>
        <time>2017-12-06T09:31:29Z</time>
      </trkpt>
      <trkpt lat="44.85339" lon="-0.76711">
        <ele>34</ele>
        <time>2017-12-06T09:31:30Z</time>
      </trkpt>
      <trkpt lat="44.85344" lon="-0.76711">
        <ele>34.2</ele>
        <time>2017-12-06T09:31:31Z</time>
      </trkpt>
      <trkpt lat="44.85348" lon="-0.7671">
        <ele>34.3</ele>
        <time>2017-12-06T09:31:32Z</time>
      </trkpt>
      <trkpt lat="44.85353" lon="-0.76711">
        <ele>34.4</ele>
        <time>2017-12-06T09:31:33Z</time>
      </trkpt>
      <trkpt lat="44.85357" lon="-0.76712">
        <ele>34.6</ele>
        <time>2017-12-06T09:31:34Z</time>
      </trkpt>
      <trkpt lat="44.8536" lon="-0.76714">
        <ele>34.7</ele>
        <time>2017-12-06T09:31:35Z</time>
      </trkpt>
      <trkpt lat="44.85363" lon="-0.76716">
        <ele>34.8</ele>
        <time>2017-12-06T09:31:36Z</time>
      </trkpt>
      <trkpt lat="44.85366" lon="-0.76718">
        <ele>34.9</ele>
        <time>2017-12-06T09:31:37Z</time>
      </trkpt>
      <trkpt lat="44.85371" lon="-0.7672">
        <ele>35.2</ele>
        <time>2017-12-06T09:31:39Z</time>
      </trkpt>
      <trkpt lat="44.85374" lon="-0.76722">
        <ele>35.4</ele>
        <time>2017-12-06T09:31:41Z</time>
      </trkpt>
      <trkpt lat="44.85378" lon="-0.76722">
        <ele>35.6</ele>
        <time>2017-12-06T09:31:43Z</time>
      </trkpt>
      <trkpt lat="44.85383" lon="-0.76722">
        <ele>35.9</ele>
        <time>2017-12-06T09:31:45Z</time>
      </trkpt>
      <trkpt lat="44.85385" lon="-0.7672">
        <ele>36.1</ele>
        <time>2017-12-06T09:31:47Z</time>
      </trkpt>
      <trkpt lat="44.85388" lon="-0.7672">
        <ele>36.3</ele>
        <time>2017-12-06T09:31:49Z</time>
      </trkpt>
      <trkpt lat="44.85392" lon="-0.7672">
        <ele>36.6</ele>
        <time>2017-12-06T09:31:51Z</time>
      </trkpt>
      <trkpt lat="44.85396" lon="-0.76719">
        <ele>37</ele>
        <time>2017-12-06T09:31:53Z</time>
      </trkpt>
      <trkpt lat="44.854" lon="-0.76717">
        <ele>37.3</ele>
        <time>2017-12-06T09:31:55Z</time>
      </trkpt>
      <trkpt lat="44.85404" lon="-0.76714">
        <ele>37.7</ele>
        <time>2017-12-06T09:31:57Z</time>
      </trkpt>
      <trkpt lat="44.85407" lon="-0.76711">
        <ele>37.9</ele>
        <time>2017-12-06T09:31:58Z</time>
      </trkpt>
      <trkpt lat="44.8541" lon="-0.76709">
        <ele>38.1</ele>
        <time>2017-12-06T09:31:59Z</time>
      </trkpt>
      <trkpt lat="44.85412" lon="-0.76706">
        <ele>38.2</ele>
        <time>2017-12-06T09:32:00Z</time>
      </trkpt>
      <trkpt lat="44.85415" lon="-0.76704">
        <ele>38.2</ele>
        <time>2017-12-06T09:32:01Z</time>
      </trkpt>
      <trkpt lat="44.85418" lon="-0.76701">
        <ele>38.2</ele>
        <time>2017-12-06T09:32:02Z</time>
      </trkpt>
      <trkpt lat="44.85421" lon="-0.76699">
        <ele>38.1</ele>
        <time>2017-12-06T09:32:03Z</time>
      </trkpt>
      <trkpt lat="44.85424" lon="-0.76697">
        <ele>38</ele>
        <time>2017-12-06T09:32:04Z</time>
      </trkpt>
      <trkpt lat="44.85427" lon="-0.76696">
        <ele>37.9</ele>
        <time>2017-12-06T09:32:05Z</time>
      </trkpt>
      <trkpt lat="44.85431" lon="-0.76696">
        <ele>37.6</ele>
        <time>2017-12-06T09:32:06Z</time>
      </trkpt>
      <trkpt lat="44.85435" lon="-0.76696">
        <ele>37.5</ele>
        <time>2017-12-06T09:32:07Z</time>
      </trkpt>
      <trkpt lat="44.85439" lon="-0.76695">
        <ele>37.4</ele>
        <time>2017-12-06T09:32:08Z</time>
      </trkpt>
      <trkpt lat="44.85442" lon="-0.76695">
        <ele>37.3</ele>
        <time>2017-12-06T09:32:09Z</time>
      </trkpt>
      <trkpt lat="44.85445" lon="-0.76692">
        <ele>37.2</ele>
        <time>2017-12-06T09:32:10Z</time>
      </trkpt>
      <trkpt lat="44.85448" lon="-0.76689">
        <ele>37.1</ele>
        <time>2017-12-06T09:32:11Z</time>
      </trkpt>
      <trkpt lat="44.85452" lon="-0.76686">
        <ele>37</ele>
        <time>2017-12-06T09:32:12Z</time>
      </trkpt>
      <trkpt lat="44.85456" lon="-0.76684">
        <ele>36.7</ele>
        <time>2017-12-06T09:32:13Z</time>
      </trkpt>
      <trkpt lat="44.8546" lon="-0.76683">
        <ele>36.6</ele>
        <time>2017-12-06T09:32:14Z</time>
      </trkpt>
      <trkpt lat="44.85464" lon="-0.76683">
        <ele>36.5</ele>
        <time>2017-12-06T09:32:15Z</time>
      </trkpt>
      <trkpt lat="44.85468" lon="-0.76685">
        <ele>36.4</ele>
        <time>2017-12-06T09:32:16Z</time>
      </trkpt>
      <trkpt lat="44.85473" lon="-0.76685">
        <ele>36.3</ele>
        <time>2017-12-06T09:32:17Z</time>
      </trkpt>
      <trkpt lat="44.85477" lon="-0.76686">
        <ele>36.2</ele>
        <time>2017-12-06T09:32:18Z</time>
      </trkpt>
      <trkpt lat="44.85482" lon="-0.76688">
        <ele>36.1</ele>
        <time>2017-12-06T09:32:19Z</time>
      </trkpt>
      <trkpt lat="44.85486" lon="-0.76689">
        <ele>35.9</ele>
        <time>2017-12-06T09:32:20Z</time>
      </trkpt>
      <trkpt lat="44.85491" lon="-0.76689">
        <ele>35.7</ele>
        <time>2017-12-06T09:32:21Z</time>
      </trkpt>
      <trkpt lat="44.85495" lon="-0.76688">
        <ele>35.6</ele>
        <time>2017-12-06T09:32:22Z</time>
      </trkpt>
      <trkpt lat="44.855" lon="-0.76687">
        <ele>35.4</ele>
        <time>2017-12-06T09:32:23Z</time>
      </trkpt>
      <trkpt lat="44.85505" lon="-0.76688">
        <ele>35.3</ele>
        <time>2017-12-06T09:32:24Z</time>
      </trkpt>
      <trkpt lat="44.85509" lon="-0.7669">
        <ele>35.1</ele>
        <time>2017-12-06T09:32:25Z</time>
      </trkpt>
      <trkpt lat="44.85514" lon="-0.7669">
        <ele>35.2</ele>
        <time>2017-12-06T09:32:26Z</time>
      </trkpt>
      <trkpt lat="44.85517" lon="-0.76695">
        <ele>35.3</ele>
        <time>2017-12-06T09:32:27Z</time>
      </trkpt>
      <trkpt lat="44.85521" lon="-0.76697">
        <ele>35.3</ele>
        <time>2017-12-06T09:32:28Z</time>
      </trkpt>
      <trkpt lat="44.85525" lon="-0.767">
        <ele>35.3</ele>
        <time>2017-12-06T09:32:29Z</time>
      </trkpt>
      <trkpt lat="44.85529" lon="-0.76702">
        <ele>35.2</ele>
        <time>2017-12-06T09:32:30Z</time>
      </trkpt>
      <trkpt lat="44.85534" lon="-0.76704">
        <ele>35.2</ele>
        <time>2017-12-06T09:32:31Z</time>
      </trkpt>
      <trkpt lat="44.85539" lon="-0.76706">
        <ele>35.2</ele>
        <time>2017-12-06T09:32:32Z</time>
      </trkpt>
      <trkpt lat="44.85544" lon="-0.76706">
        <ele>35.2</ele>
        <time>2017-12-06T09:32:33Z</time>
      </trkpt>
      <trkpt lat="44.85549" lon="-0.76707">
        <ele>35.1</ele>
        <time>2017-12-06T09:32:34Z</time>
      </trkpt>
      <trkpt lat="44.85554" lon="-0.76707">
        <ele>35.1</ele>
        <time>2017-12-06T09:32:35Z</time>
      </trkpt>
      <trkpt lat="44.85559" lon="-0.76706">
        <ele>35</ele>
        <time>2017-12-06T09:32:36Z</time>
      </trkpt>
      <trkpt lat="44.85565" lon="-0.76706">
        <ele>34.8</ele>
        <time>2017-12-06T09:32:37Z</time>
      </trkpt>
      <trkpt lat="44.85569" lon="-0.76705">
        <ele>34.7</ele>
        <time>2017-12-06T09:32:38Z</time>
      </trkpt>
      <trkpt lat="44.85573" lon="-0.76704">
        <ele>34.5</ele>
        <time>2017-12-06T09:32:39Z</time>
      </trkpt>
      <trkpt lat="44.85578" lon="-0.76701">
        <ele>34.3</ele>
        <time>2017-12-06T09:32:40Z</time>
      </trkpt>
      <trkpt lat="44.85582" lon="-0.76699">
        <ele>34.2</ele>
        <time>2017-12-06T09:32:41Z</time>
      </trkpt>
      <trkpt lat="44.85587" lon="-0.76696">
        <ele>34</ele>
        <time>2017-12-06T09:32:42Z</time>
      </trkpt>
      <trkpt lat="44.85592" lon="-0.76693">
        <ele>33.9</ele>
        <time>2017-12-06T09:32:43Z</time>
      </trkpt>
      <trkpt lat="44.85595" lon="-0.76691">
        <ele>33.8</ele>
        <time>2017-12-06T09:32:44Z</time>
      </trkpt>
      <trkpt lat="44.856" lon="-0.76688">
        <ele>33.7</ele>
        <time>2017-12-06T09:32:45Z</time>
      </trkpt>
      <trkpt lat="44.85605" lon="-0.76686">
        <ele>33.6</ele>
        <time>2017-12-06T09:32:46Z</time>
      </trkpt>
      <trkpt lat="44.85609" lon="-0.76682">
        <ele>33.5</ele>
        <time>2017-12-06T09:32:47Z</time>
      </trkpt>
      <trkpt lat="44.85613" lon="-0.76679">
        <ele>33.3</ele>
        <time>2017-12-06T09:32:48Z</time>
      </trkpt>
      <trkpt lat="44.85617" lon="-0.76675">
        <ele>33.1</ele>
        <time>2017-12-06T09:32:49Z</time>
      </trkpt>
      <trkpt lat="44.85621" lon="-0.76669">
        <ele>32.9</ele>
        <time>2017-12-06T09:32:50Z</time>
      </trkpt>
      <trkpt lat="44.85626" lon="-0.76665">
        <ele>32.6</ele>
        <time>2017-12-06T09:32:51Z</time>
      </trkpt>
      <trkpt lat="44.85631" lon="-0.76663">
        <ele>32.3</ele>
        <time>2017-12-06T09:32:52Z</time>
      </trkpt>
      <trkpt lat="44.85637" lon="-0.7666">
        <ele>31.9</ele>
        <time>2017-12-06T09:32:53Z</time>
      </trkpt>
      <trkpt lat="44.85644" lon="-0.76655">
        <ele>31.3</ele>
        <time>2017-12-06T09:32:54Z</time>
      </trkpt>
      <trkpt lat="44.85649" lon="-0.76652">
        <ele>31</ele>
        <time>2017-12-06T09:32:55Z</time>
      </trkpt>
      <trkpt lat="44.85654" lon="-0.76653">
        <ele>30.6</ele>
        <time>2017-12-06T09:32:56Z</time>
      </trkpt>
      <trkpt lat="44.85659" lon="-0.76654">
        <ele>30.3</ele>
        <time>2017-12-06T09:32:57Z</time>
      </trkpt>
      <trkpt lat="44.85663" lon="-0.76657">
        <ele>30</ele>
        <time>2017-12-06T09:32:58Z</time>
      </trkpt>
      <trkpt lat="44.85667" lon="-0.7666">
        <ele>29.6</ele>
        <time>2017-12-06T09:32:59Z</time>
      </trkpt>
      <trkpt lat="44.85671" lon="-0.76663">
        <ele>29.3</ele>
        <time>2017-12-06T09:33:00Z</time>
      </trkpt>
      <trkpt lat="44.85674" lon="-0.76668">
        <ele>29</ele>
        <time>2017-12-06T09:33:01Z</time>
      </trkpt>
      <trkpt lat="44.85678" lon="-0.7667">
        <ele>28.7</ele>
        <time>2017-12-06T09:33:02Z</time>
      </trkpt>
      <trkpt lat="44.85682" lon="-0.76673">
        <ele>28.5</ele>
        <time>2017-12-06T09:33:03Z</time>
      </trkpt>
      <trkpt lat="44.85686" lon="-0.76673">
        <ele>28.3</ele>
        <time>2017-12-06T09:33:04Z</time>
      </trkpt>
      <trkpt lat="44.85691" lon="-0.76672">
        <ele>28.2</ele>
        <time>2017-12-06T09:33:05Z</time>
      </trkpt>
      <trkpt lat="44.85695" lon="-0.76671">
        <ele>28.1</ele>
        <time>2017-12-06T09:33:06Z</time>
      </trkpt>
      <trkpt lat="44.85699" lon="-0.7667">
        <ele>28.1</ele>
        <time>2017-12-06T09:33:07Z</time>
      </trkpt>
      <trkpt lat="44.85703" lon="-0.76671">
        <ele>28.1</ele>
        <time>2017-12-06T09:33:08Z</time>
      </trkpt>
      <trkpt lat="44.85708" lon="-0.76673">
        <ele>28.1</ele>
        <time>2017-12-06T09:33:09Z</time>
      </trkpt>
      <trkpt lat="44.85711" lon="-0.76678">
        <ele>28.1</ele>
        <time>2017-12-06T09:33:10Z</time>
      </trkpt>
      <trkpt lat="44.85712" lon="-0.76682">
        <ele>28</ele>
        <time>2017-12-06T09:33:11Z</time>
      </trkpt>
      <trkpt lat="44.85715" lon="-0.7669">
        <ele>28</ele>
        <time>2017-12-06T09:33:13Z</time>
      </trkpt>
      <trkpt lat="44.85717" lon="-0.76696">
        <ele>28</ele>
        <time>2017-12-06T09:33:15Z</time>
      </trkpt>
      <trkpt lat="44.85719" lon="-0.76701">
        <ele>28</ele>
        <time>2017-12-06T09:33:18Z</time>
      </trkpt>
      <trkpt lat="44.8572" lon="-0.76705">
        <ele>28</ele>
        <time>2017-12-06T09:33:20Z</time>
      </trkpt>
      <trkpt lat="44.85722" lon="-0.76709">
        <ele>27.9</ele>
        <time>2017-12-06T09:33:22Z</time>
      </trkpt>
      <trkpt lat="44.85725" lon="-0.76711">
        <ele>27.9</ele>
        <time>2017-12-06T09:33:24Z</time>
      </trkpt>
      <trkpt lat="44.85728" lon="-0.76713">
        <ele>27.9</ele>
        <time>2017-12-06T09:33:26Z</time>
      </trkpt>
      <trkpt lat="44.8573" lon="-0.76716">
        <ele>27.8</ele>
        <time>2017-12-06T09:33:28Z</time>
      </trkpt>
      <trkpt lat="44.85734" lon="-0.76718">
        <ele>27.7</ele>
        <time>2017-12-06T09:33:30Z</time>
      </trkpt>
      <trkpt lat="44.85737" lon="-0.76719">
        <ele>27.6</ele>
        <time>2017-12-06T09:33:32Z</time>
      </trkpt>
      <trkpt lat="44.85739" lon="-0.76721">
        <ele>27.6</ele>
        <time>2017-12-06T09:33:34Z</time>
      </trkpt>
      <trkpt lat="44.85744" lon="-0.76723">
        <ele>27.6</ele>
        <time>2017-12-06T09:33:36Z</time>
      </trkpt>
      <trkpt lat="44.85747" lon="-0.76724">
        <ele>27.9</ele>
        <time>2017-12-06T09:33:38Z</time>
      </trkpt>
      <trkpt lat="44.8575" lon="-0.76727">
        <ele>28.3</ele>
        <time>2017-12-06T09:33:40Z</time>
      </trkpt>
      <trkpt lat="44.85753" lon="-0.76731">
        <ele>28.8</ele>
        <time>2017-12-06T09:33:42Z</time>
      </trkpt>
      <trkpt lat="44.85755" lon="-0.76733">
        <ele>29.3</ele>
        <time>2017-12-06T09:33:44Z</time>
      </trkpt>
      <trkpt lat="44.85759" lon="-0.76737">
        <ele>30.2</ele>
        <time>2017-12-06T09:33:47Z</time>
      </trkpt>
      <trkpt lat="44.85761" lon="-0.7674">
        <ele>30.7</ele>
        <time>2017-12-06T09:33:49Z</time>
      </trkpt>
      <trkpt lat="44.85765" lon="-0.76743">
        <ele>31.7</ele>
        <time>2017-12-06T09:33:52Z</time>
      </trkpt>
      <trkpt lat="44.85768" lon="-0.76746">
        <ele>32.4</ele>
        <time>2017-12-06T09:33:54Z</time>
      </trkpt>
      <trkpt lat="44.8577" lon="-0.76748">
        <ele>33</ele>
        <time>2017-12-06T09:33:55Z</time>
      </trkpt>
      <trkpt lat="44.85772" lon="-0.76751">
        <ele>33.6</ele>
        <time>2017-12-06T09:33:57Z</time>
      </trkpt>
      <trkpt lat="44.85774" lon="-0.76755">
        <ele>34.4</ele>
        <time>2017-12-06T09:33:59Z</time>
      </trkpt>
      <trkpt lat="44.85777" lon="-0.76761">
        <ele>35.3</ele>
        <time>2017-12-06T09:34:01Z</time>
      </trkpt>
      <trkpt lat="44.85781" lon="-0.76768">
        <ele>36.3</ele>
        <time>2017-12-06T09:34:03Z</time>
      </trkpt>
      <trkpt lat="44.85783" lon="-0.76772">
        <ele>36.9</ele>
        <time>2017-12-06T09:34:04Z</time>
      </trkpt>
      <trkpt lat="44.85785" lon="-0.76775">
        <ele>37.4</ele>
        <time>2017-12-06T09:34:05Z</time>
      </trkpt>
      <trkpt lat="44.8579" lon="-0.76782">
        <ele>38.4</ele>
        <time>2017-12-06T09:34:07Z</time>
      </trkpt>
      <trkpt lat="44.85792" lon="-0.76786">
        <ele>38.9</ele>
        <time>2017-12-06T09:34:08Z</time>
      </trkpt>
      <trkpt lat="44.85795" lon="-0.76791">
        <ele>39.4</ele>
        <time>2017-12-06T09:34:09Z</time>
      </trkpt>
      <trkpt lat="44.85799" lon="-0.76798">
        <ele>39.9</ele>
        <time>2017-12-06T09:34:10Z</time>
      </trkpt>
      <trkpt lat="44.85802" lon="-0.76805">
        <ele>40.2</ele>
        <time>2017-12-06T09:34:11Z</time>
      </trkpt>
      <trkpt lat="44.85806" lon="-0.76811">
        <ele>40</ele>
        <time>2017-12-06T09:34:12Z</time>
      </trkpt>
      <trkpt lat="44.8581" lon="-0.76817">
        <ele>39.7</ele>
        <time>2017-12-06T09:34:13Z</time>
      </trkpt>
      <trkpt lat="44.85813" lon="-0.76821">
        <ele>39.5</ele>
        <time>2017-12-06T09:34:14Z</time>
      </trkpt>
      <trkpt lat="44.85816" lon="-0.76826">
        <ele>39</ele>
        <time>2017-12-06T09:34:15Z</time>
      </trkpt>
      <trkpt lat="44.85818" lon="-0.76831">
        <ele>38.7</ele>
        <time>2017-12-06T09:34:16Z</time>
      </trkpt>
      <trkpt lat="44.85821" lon="-0.76836">
        <ele>38.3</ele>
        <time>2017-12-06T09:34:17Z</time>
      </trkpt>
      <trkpt lat="44.85823" lon="-0.7684">
        <ele>38.1</ele>
        <time>2017-12-06T09:34:18Z</time>
      </trkpt>
      <trkpt lat="44.85825" lon="-0.76843">
        <ele>38</ele>
        <time>2017-12-06T09:34:19Z</time>
      </trkpt>
      <trkpt lat="44.8583" lon="-0.76844">
        <ele>37.8</ele>
        <time>2017-12-06T09:34:20Z</time>
      </trkpt>
      <trkpt lat="44.85834" lon="-0.76847">
        <ele>37.8</ele>
        <time>2017-12-06T09:34:21Z</time>
      </trkpt>
      <trkpt lat="44.85837" lon="-0.76848">
        <ele>37.9</ele>
        <time>2017-12-06T09:34:22Z</time>
      </trkpt>
      <trkpt lat="44.8584" lon="-0.76848">
        <ele>38</ele>
        <time>2017-12-06T09:34:23Z</time>
      </trkpt>
      <trkpt lat="44.85844" lon="-0.76844">
        <ele>38</ele>
        <time>2017-12-06T09:34:25Z</time>
      </trkpt>
      <trkpt lat="44.85845" lon="-0.76839">
        <ele>38.1</ele>
        <time>2017-12-06T09:34:26Z</time>
      </trkpt>
      <trkpt lat="44.85846" lon="-0.76835">
        <ele>38.1</ele>
        <time>2017-12-06T09:34:27Z</time>
      </trkpt>
      <trkpt lat="44.85848" lon="-0.7683">
        <ele>38.2</ele>
        <time>2017-12-06T09:34:28Z</time>
      </trkpt>
      <trkpt lat="44.85849" lon="-0.76824">
        <ele>38.2</ele>
        <time>2017-12-06T09:34:29Z</time>
      </trkpt>
      <trkpt lat="44.85851" lon="-0.76818">
        <ele>38.1</ele>
        <time>2017-12-06T09:34:30Z</time>
      </trkpt>
      <trkpt lat="44.85853" lon="-0.76811">
        <ele>38.1</ele>
        <time>2017-12-06T09:34:31Z</time>
      </trkpt>
      <trkpt lat="44.85855" lon="-0.76804">
        <ele>37.9</ele>
        <time>2017-12-06T09:34:32Z</time>
      </trkpt>
      <trkpt lat="44.85857" lon="-0.76798">
        <ele>37.6</ele>
        <time>2017-12-06T09:34:33Z</time>
      </trkpt>
      <trkpt lat="44.85861" lon="-0.76791">
        <ele>37.3</ele>
        <time>2017-12-06T09:34:34Z</time>
      </trkpt>
      <trkpt lat="44.85858" lon="-0.76784">
        <ele>36.9</ele>
        <time>2017-12-06T09:34:35Z</time>
      </trkpt>
      <trkpt lat="44.85857" lon="-0.76777">
        <ele>36.7</ele>
        <time>2017-12-06T09:34:36Z</time>
      </trkpt>
      <trkpt lat="44.85855" lon="-0.76771">
        <ele>36.6</ele>
        <time>2017-12-06T09:34:37Z</time>
      </trkpt>
      <trkpt lat="44.85854" lon="-0.76763">
        <ele>36.6</ele>
        <time>2017-12-06T09:34:38Z</time>
      </trkpt>
      <trkpt lat="44.85852" lon="-0.76757">
        <ele>36.6</ele>
        <time>2017-12-06T09:34:39Z</time>
      </trkpt>
      <trkpt lat="44.8585" lon="-0.7675">
        <ele>36.6</ele>
        <time>2017-12-06T09:34:40Z</time>
      </trkpt>
      <trkpt lat="44.85847" lon="-0.76744">
        <ele>36.5</ele>
        <time>2017-12-06T09:34:41Z</time>
      </trkpt>
      <trkpt lat="44.85845" lon="-0.76737">
        <ele>36.4</ele>
        <time>2017-12-06T09:34:42Z</time>
      </trkpt>
      <trkpt lat="44.85842" lon="-0.7673">
        <ele>36</ele>
        <time>2017-12-06T09:34:43Z</time>
      </trkpt>
      <trkpt lat="44.85842" lon="-0.76722">
        <ele>35.6</ele>
        <time>2017-12-06T09:34:44Z</time>
      </trkpt>
      <trkpt lat="44.85841" lon="-0.76714">
        <ele>35.3</ele>
        <time>2017-12-06T09:34:45Z</time>
      </trkpt>
      <trkpt lat="44.85843" lon="-0.76711">
        <ele>35.2</ele>
        <time>2017-12-06T09:34:46Z</time>
      </trkpt>
      <trkpt lat="44.85848" lon="-0.76706">
        <ele>35</ele>
        <time>2017-12-06T09:34:47Z</time>
      </trkpt>
      <trkpt lat="44.85853" lon="-0.76703">
        <ele>35</ele>
        <time>2017-12-06T09:34:48Z</time>
      </trkpt>
      <trkpt lat="44.85858" lon="-0.76704">
        <ele>34.9</ele>
        <time>2017-12-06T09:34:49Z</time>
      </trkpt>
      <trkpt lat="44.85863" lon="-0.76703">
        <ele>34.7</ele>
        <time>2017-12-06T09:34:50Z</time>
      </trkpt>
      <trkpt lat="44.8587" lon="-0.76702">
        <ele>34.4</ele>
        <time>2017-12-06T09:34:51Z</time>
      </trkpt>
      <trkpt lat="44.85875" lon="-0.76702">
        <ele>34.2</ele>
        <time>2017-12-06T09:34:52Z</time>
      </trkpt>
      <trkpt lat="44.85882" lon="-0.767">
        <ele>33.8</ele>
        <time>2017-12-06T09:34:53Z</time>
      </trkpt>
      <trkpt lat="44.85887" lon="-0.767">
        <ele>33.7</ele>
        <time>2017-12-06T09:34:54Z</time>
      </trkpt>
      <trkpt lat="44.85893" lon="-0.76699">
        <ele>33.6</ele>
        <time>2017-12-06T09:34:55Z</time>
      </trkpt>
      <trkpt lat="44.85899" lon="-0.76696">
        <ele>33.5</ele>
        <time>2017-12-06T09:34:56Z</time>
      </trkpt>
      <trkpt lat="44.85905" lon="-0.76696">
        <ele>33.6</ele>
        <time>2017-12-06T09:34:57Z</time>
      </trkpt>
      <trkpt lat="44.8591" lon="-0.76698">
        <ele>33.6</ele>
        <time>2017-12-06T09:34:58Z</time>
      </trkpt>
      <trkpt lat="44.85915" lon="-0.76702">
        <ele>33.7</ele>
        <time>2017-12-06T09:34:59Z</time>
      </trkpt>
      <trkpt lat="44.8592" lon="-0.76707">
        <ele>33.8</ele>
        <time>2017-12-06T09:35:00Z</time>
      </trkpt>
      <trkpt lat="44.85923" lon="-0.76712">
        <ele>33.8</ele>
        <time>2017-12-06T09:35:01Z</time>
      </trkpt>
      <trkpt lat="44.85927" lon="-0.76716">
        <ele>33.9</ele>
        <time>2017-12-06T09:35:02Z</time>
      </trkpt>
      <trkpt lat="44.85933" lon="-0.7672">
        <ele>33.9</ele>
        <time>2017-12-06T09:35:03Z</time>
      </trkpt>
      <trkpt lat="44.85938" lon="-0.76722">
        <ele>34</ele>
        <time>2017-12-06T09:35:04Z</time>
      </trkpt>
      <trkpt lat="44.85944" lon="-0.76724">
        <ele>33.9</ele>
        <time>2017-12-06T09:35:05Z</time>
      </trkpt>
      <trkpt lat="44.85949" lon="-0.76729">
        <ele>33.8</ele>
        <time>2017-12-06T09:35:06Z</time>
      </trkpt>
      <trkpt lat="44.85953" lon="-0.76733">
        <ele>33.7</ele>
        <time>2017-12-06T09:35:07Z</time>
      </trkpt>
      <trkpt lat="44.85957" lon="-0.76738">
        <ele>33.6</ele>
        <time>2017-12-06T09:35:08Z</time>
      </trkpt>
      <trkpt lat="44.8596" lon="-0.76742">
        <ele>33.6</ele>
        <time>2017-12-06T09:35:09Z</time>
      </trkpt>
      <trkpt lat="44.85964" lon="-0.76746">
        <ele>33.5</ele>
        <time>2017-12-06T09:35:10Z</time>
      </trkpt>
      <trkpt lat="44.85967" lon="-0.7675">
        <ele>33.4</ele>
        <time>2017-12-06T09:35:11Z</time>
      </trkpt>
      <trkpt lat="44.85971" lon="-0.76755">
        <ele>33.3</ele>
        <time>2017-12-06T09:35:12Z</time>
      </trkpt>
      <trkpt lat="44.85975" lon="-0.7676">
        <ele>33.1</ele>
        <time>2017-12-06T09:35:13Z</time>
      </trkpt>
      <trkpt lat="44.85979" lon="-0.76765">
        <ele>32.9</ele>
        <time>2017-12-06T09:35:14Z</time>
      </trkpt>
      <trkpt lat="44.85984" lon="-0.76769">
        <ele>32.6</ele>
        <time>2017-12-06T09:35:15Z</time>
      </trkpt>
      <trkpt lat="44.85989" lon="-0.76774">
        <ele>32.4</ele>
        <time>2017-12-06T09:35:16Z</time>
      </trkpt>
      <trkpt lat="44.85993" lon="-0.76779">
        <ele>32.2</ele>
        <time>2017-12-06T09:35:17Z</time>
      </trkpt>
      <trkpt lat="44.85997" lon="-0.76783">
        <ele>32.2</ele>
        <time>2017-12-06T09:35:18Z</time>
      </trkpt>
      <trkpt lat="44.86002" lon="-0.76785">
        <ele>32.2</ele>
        <time>2017-12-06T09:35:19Z</time>
      </trkpt>
      <trkpt lat="44.86007" lon="-0.76789">
        <ele>32.2</ele>
        <time>2017-12-06T09:35:20Z</time>
      </trkpt>
      <trkpt lat="44.8601" lon="-0.76791">
        <ele>32.3</ele>
        <time>2017-12-06T09:35:21Z</time>
      </trkpt>
      <trkpt lat="44.86013" lon="-0.76795">
        <ele>32.3</ele>
        <time>2017-12-06T09:35:22Z</time>
      </trkpt>
      <trkpt lat="44.86018" lon="-0.76798">
        <ele>32.4</ele>
        <time>2017-12-06T09:35:23Z</time>
      </trkpt>
      <trkpt lat="44.86021" lon="-0.76801">
        <ele>32.5</ele>
        <time>2017-12-06T09:35:24Z</time>
      </trkpt>
      <trkpt lat="44.86025" lon="-0.76804">
        <ele>32.5</ele>
        <time>2017-12-06T09:35:25Z</time>
      </trkpt>
      <trkpt lat="44.86028" lon="-0.76806">
        <ele>32.6</ele>
        <time>2017-12-06T09:35:26Z</time>
      </trkpt>
      <trkpt lat="44.86032" lon="-0.76808">
        <ele>32.7</ele>
        <time>2017-12-06T09:35:27Z</time>
      </trkpt>
      <trkpt lat="44.86035" lon="-0.7681">
        <ele>32.7</ele>
        <time>2017-12-06T09:35:28Z</time>
      </trkpt>
      <trkpt lat="44.86039" lon="-0.7681">
        <ele>32.8</ele>
        <time>2017-12-06T09:35:29Z</time>
      </trkpt>
      <trkpt lat="44.86042" lon="-0.76811">
        <ele>32.9</ele>
        <time>2017-12-06T09:35:30Z</time>
      </trkpt>
      <trkpt lat="44.86045" lon="-0.76808">
        <ele>32.9</ele>
        <time>2017-12-06T09:35:31Z</time>
      </trkpt>
      <trkpt lat="44.86048" lon="-0.76806">
        <ele>32.9</ele>
        <time>2017-12-06T09:35:32Z</time>
      </trkpt>
      <trkpt lat="44.86051" lon="-0.76806">
        <ele>33</ele>
        <time>2017-12-06T09:35:33Z</time>
      </trkpt>
      <trkpt lat="44.86054" lon="-0.76807">
        <ele>33</ele>
        <time>2017-12-06T09:35:34Z</time>
      </trkpt>
      <trkpt lat="44.86057" lon="-0.76808">
        <ele>33.1</ele>
        <time>2017-12-06T09:35:35Z</time>
      </trkpt>
      <trkpt lat="44.86061" lon="-0.76812">
        <ele>33.2</ele>
        <time>2017-12-06T09:35:37Z</time>
      </trkpt>
      <trkpt lat="44.86065" lon="-0.76815">
        <ele>33.3</ele>
        <time>2017-12-06T09:35:39Z</time>
      </trkpt>
      <trkpt lat="44.86068" lon="-0.76817">
        <ele>33.4</ele>
        <time>2017-12-06T09:35:41Z</time>
      </trkpt>
      <trkpt lat="44.86072" lon="-0.76819">
        <ele>33.6</ele>
        <time>2017-12-06T09:35:43Z</time>
      </trkpt>
      <trkpt lat="44.86076" lon="-0.76822">
        <ele>33.8</ele>
        <time>2017-12-06T09:35:45Z</time>
      </trkpt>
      <trkpt lat="44.86079" lon="-0.76824">
        <ele>34.1</ele>
        <time>2017-12-06T09:35:47Z</time>
      </trkpt>
      <trkpt lat="44.86083" lon="-0.76827">
        <ele>34.5</ele>
        <time>2017-12-06T09:35:49Z</time>
      </trkpt>
      <trkpt lat="44.86085" lon="-0.76829">
        <ele>34.8</ele>
        <time>2017-12-06T09:35:51Z</time>
      </trkpt>
      <trkpt lat="44.86088" lon="-0.76831">
        <ele>35.2</ele>
        <time>2017-12-06T09:35:53Z</time>
      </trkpt>
      <trkpt lat="44.86091" lon="-0.76834">
        <ele>35.6</ele>
        <time>2017-12-06T09:35:55Z</time>
      </trkpt>
      <trkpt lat="44.86093" lon="-0.76836">
        <ele>35.9</ele>
        <time>2017-12-06T09:35:57Z</time>
      </trkpt>
      <trkpt lat="44.86097" lon="-0.76838">
        <ele>36.2</ele>
        <time>2017-12-06T09:35:59Z</time>
      </trkpt>
      <trkpt lat="44.86101" lon="-0.76839">
        <ele>36.4</ele>
        <time>2017-12-06T09:36:00Z</time>
      </trkpt>
      <trkpt lat="44.86104" lon="-0.76839">
        <ele>37</ele>
        <time>2017-12-06T09:36:01Z</time>
      </trkpt>
      <trkpt lat="44.86107" lon="-0.76841">
        <ele>37.4</ele>
        <time>2017-12-06T09:36:02Z</time>
      </trkpt>
      <trkpt lat="44.86112" lon="-0.7684">
        <ele>37.9</ele>
        <time>2017-12-06T09:36:04Z</time>
      </trkpt>
      <trkpt lat="44.86116" lon="-0.76839">
        <ele>38.1</ele>
        <time>2017-12-06T09:36:05Z</time>
      </trkpt>
      <trkpt lat="44.8612" lon="-0.76838">
        <ele>38.3</ele>
        <time>2017-12-06T09:36:06Z</time>
      </trkpt>
      <trkpt lat="44.86125" lon="-0.76839">
        <ele>38.6</ele>
        <time>2017-12-06T09:36:07Z</time>
      </trkpt>
      <trkpt lat="44.86133" lon="-0.76838">
        <ele>39</ele>
        <time>2017-12-06T09:36:08Z</time>
      </trkpt>
      <trkpt lat="44.8614" lon="-0.76838">
        <ele>38.4</ele>
        <time>2017-12-06T09:36:09Z</time>
      </trkpt>
      <trkpt lat="44.86146" lon="-0.76836">
        <ele>38</ele>
        <time>2017-12-06T09:36:10Z</time>
      </trkpt>
      <trkpt lat="44.8615" lon="-0.76831">
        <ele>37.3</ele>
        <time>2017-12-06T09:36:11Z</time>
      </trkpt>
      <trkpt lat="44.86152" lon="-0.76824">
        <ele>36.8</ele>
        <time>2017-12-06T09:36:12Z</time>
      </trkpt>
      <trkpt lat="44.86155" lon="-0.7682">
        <ele>36.3</ele>
        <time>2017-12-06T09:36:13Z</time>
      </trkpt>
      <trkpt lat="44.86159" lon="-0.7682">
        <ele>36</ele>
        <time>2017-12-06T09:36:14Z</time>
      </trkpt>
      <trkpt lat="44.86163" lon="-0.76822">
        <ele>35.8</ele>
        <time>2017-12-06T09:36:15Z</time>
      </trkpt>
      <trkpt lat="44.86166" lon="-0.76822">
        <ele>35.6</ele>
        <time>2017-12-06T09:36:16Z</time>
      </trkpt>
      <trkpt lat="44.86169" lon="-0.76822">
        <ele>35.5</ele>
        <time>2017-12-06T09:36:17Z</time>
      </trkpt>
      <trkpt lat="44.86173" lon="-0.76822">
        <ele>35.4</ele>
        <time>2017-12-06T09:36:18Z</time>
      </trkpt>
      <trkpt lat="44.86177" lon="-0.76821">
        <ele>35.3</ele>
        <time>2017-12-06T09:36:19Z</time>
      </trkpt>
      <trkpt lat="44.8618" lon="-0.76816">
        <ele>35.2</ele>
        <time>2017-12-06T09:36:20Z</time>
      </trkpt>
      <trkpt lat="44.86184" lon="-0.76811">
        <ele>35.2</ele>
        <time>2017-12-06T09:36:21Z</time>
      </trkpt>
      <trkpt lat="44.86188" lon="-0.76806">
        <ele>35.3</ele>
        <time>2017-12-06T09:36:22Z</time>
      </trkpt>
      <trkpt lat="44.86193" lon="-0.76803">
        <ele>35.4</ele>
        <time>2017-12-06T09:36:23Z</time>
      </trkpt>
      <trkpt lat="44.86199" lon="-0.768">
        <ele>35.4</ele>
        <time>2017-12-06T09:36:24Z</time>
      </trkpt>
      <trkpt lat="44.86206" lon="-0.76796">
        <ele>35.3</ele>
        <time>2017-12-06T09:36:25Z</time>
      </trkpt>
      <trkpt lat="44.86212" lon="-0.76792">
        <ele>35</ele>
        <time>2017-12-06T09:36:26Z</time>
      </trkpt>
      <trkpt lat="44.86218" lon="-0.76788">
        <ele>34.4</ele>
        <time>2017-12-06T09:36:27Z</time>
      </trkpt>
      <trkpt lat="44.86221" lon="-0.76783">
        <ele>34.1</ele>
        <time>2017-12-06T09:36:28Z</time>
      </trkpt>
      <trkpt lat="44.86222" lon="-0.76775">
        <ele>33.6</ele>
        <time>2017-12-06T09:36:29Z</time>
      </trkpt>
      <trkpt lat="44.86222" lon="-0.76765">
        <ele>33.1</ele>
        <time>2017-12-06T09:36:30Z</time>
      </trkpt>
      <trkpt lat="44.86222" lon="-0.76756">
        <ele>32.7</ele>
        <time>2017-12-06T09:36:31Z</time>
      </trkpt>
      <trkpt lat="44.86222" lon="-0.76749">
        <ele>32.4</ele>
        <time>2017-12-06T09:36:32Z</time>
      </trkpt>
      <trkpt lat="44.86222" lon="-0.76742">
        <ele>32.2</ele>
        <time>2017-12-06T09:36:33Z</time>
      </trkpt>
      <trkpt lat="44.86223" lon="-0.76736">
        <ele>32</ele>
        <time>2017-12-06T09:36:34Z</time>
      </trkpt>
      <trkpt lat="44.86223" lon="-0.76729">
        <ele>31.9</ele>
        <time>2017-12-06T09:36:35Z</time>
      </trkpt>
      <trkpt lat="44.86222" lon="-0.76721">
        <ele>31.8</ele>
        <time>2017-12-06T09:36:36Z</time>
      </trkpt>
      <trkpt lat="44.86221" lon="-0.76715">
        <ele>31.7</ele>
        <time>2017-12-06T09:36:37Z</time>
      </trkpt>
      <trkpt lat="44.86222" lon="-0.76709">
        <ele>31.7</ele>
        <time>2017-12-06T09:36:38Z</time>
      </trkpt>
      <trkpt lat="44.86222" lon="-0.76704">
        <ele>31.7</ele>
        <time>2017-12-06T09:36:39Z</time>
      </trkpt>
      <trkpt lat="44.86221" lon="-0.767">
        <ele>31.7</ele>
        <time>2017-12-06T09:36:40Z</time>
      </trkpt>
      <trkpt lat="44.86219" lon="-0.76693">
        <ele>31.6</ele>
        <time>2017-12-06T09:36:42Z</time>
      </trkpt>
      <trkpt lat="44.86219" lon="-0.76688">
        <ele>31.6</ele>
        <time>2017-12-06T09:36:43Z</time>
      </trkpt>
      <trkpt lat="44.86217" lon="-0.76682">
        <ele>31.6</ele>
        <time>2017-12-06T09:36:44Z</time>
      </trkpt>
      <trkpt lat="44.86215" lon="-0.76677">
        <ele>31.5</ele>
        <time>2017-12-06T09:36:45Z</time>
      </trkpt>
      <trkpt lat="44.86212" lon="-0.76671">
        <ele>31.5</ele>
        <time>2017-12-06T09:36:46Z</time>
      </trkpt>
      <trkpt lat="44.86209" lon="-0.76665">
        <ele>31.4</ele>
        <time>2017-12-06T09:36:47Z</time>
      </trkpt>
      <trkpt lat="44.86205" lon="-0.7666">
        <ele>31.4</ele>
        <time>2017-12-06T09:36:48Z</time>
      </trkpt>
      <trkpt lat="44.86202" lon="-0.76654">
        <ele>31.4</ele>
        <time>2017-12-06T09:36:49Z</time>
      </trkpt>
      <trkpt lat="44.86199" lon="-0.76647">
        <ele>31.3</ele>
        <time>2017-12-06T09:36:50Z</time>
      </trkpt>
      <trkpt lat="44.86199" lon="-0.7664">
        <ele>31.3</ele>
        <time>2017-12-06T09:36:51Z</time>
      </trkpt>
      <trkpt lat="44.86203" lon="-0.76638">
        <ele>31.2</ele>
        <time>2017-12-06T09:36:53Z</time>
      </trkpt>
      <trkpt lat="44.86205" lon="-0.76634">
        <ele>31.2</ele>
        <time>2017-12-06T09:36:54Z</time>
      </trkpt>
      <trkpt lat="44.86207" lon="-0.76629">
        <ele>31.2</ele>
        <time>2017-12-06T09:36:55Z</time>
      </trkpt>
      <trkpt lat="44.86208" lon="-0.76623">
        <ele>31.2</ele>
        <time>2017-12-06T09:36:56Z</time>
      </trkpt>
      <trkpt lat="44.86211" lon="-0.76616">
        <ele>31.1</ele>
        <time>2017-12-06T09:36:58Z</time>
      </trkpt>
      <trkpt lat="44.86213" lon="-0.7661">
        <ele>31</ele>
        <time>2017-12-06T09:36:59Z</time>
      </trkpt>
      <trkpt lat="44.86217" lon="-0.76605">
        <ele>31</ele>
        <time>2017-12-06T09:37:01Z</time>
      </trkpt>
      <trkpt lat="44.86218" lon="-0.76602">
        <ele>31</ele>
        <time>2017-12-06T09:37:02Z</time>
      </trkpt>
      <trkpt lat="44.8622" lon="-0.76596">
        <ele>31.1</ele>
        <time>2017-12-06T09:37:04Z</time>
      </trkpt>
      <trkpt lat="44.86223" lon="-0.76591">
        <ele>31.2</ele>
        <time>2017-12-06T09:37:05Z</time>
      </trkpt>
      <trkpt lat="44.86227" lon="-0.76587">
        <ele>31.2</ele>
        <time>2017-12-06T09:37:07Z</time>
      </trkpt>
      <trkpt lat="44.8623" lon="-0.76583">
        <ele>31.2</ele>
        <time>2017-12-06T09:37:08Z</time>
      </trkpt>
      <trkpt lat="44.86234" lon="-0.76579">
        <ele>31.3</ele>
        <time>2017-12-06T09:37:09Z</time>
      </trkpt>
      <trkpt lat="44.86237" lon="-0.76576">
        <ele>31.3</ele>
        <time>2017-12-06T09:37:10Z</time>
      </trkpt>
      <trkpt lat="44.86241" lon="-0.76576">
        <ele>31.3</ele>
        <time>2017-12-06T09:37:11Z</time>
      </trkpt>
      <trkpt lat="44.86244" lon="-0.76575">
        <ele>31.4</ele>
        <time>2017-12-06T09:37:12Z</time>
      </trkpt>
      <trkpt lat="44.86246" lon="-0.7657">
        <ele>31.6</ele>
        <time>2017-12-06T09:37:13Z</time>
      </trkpt>
      <trkpt lat="44.86248" lon="-0.76567">
        <ele>31.7</ele>
        <time>2017-12-06T09:37:14Z</time>
      </trkpt>
      <trkpt lat="44.86252" lon="-0.76564">
        <ele>31.8</ele>
        <time>2017-12-06T09:37:15Z</time>
      </trkpt>
      <trkpt lat="44.86257" lon="-0.76559">
        <ele>32.1</ele>
        <time>2017-12-06T09:37:17Z</time>
      </trkpt>
      <trkpt lat="44.86261" lon="-0.76555">
        <ele>32.3</ele>
        <time>2017-12-06T09:37:18Z</time>
      </trkpt>
      <trkpt lat="44.86264" lon="-0.76551">
        <ele>32.4</ele>
        <time>2017-12-06T09:37:19Z</time>
      </trkpt>
      <trkpt lat="44.86267" lon="-0.76546">
        <ele>32.6</ele>
        <time>2017-12-06T09:37:20Z</time>
      </trkpt>
      <trkpt lat="44.8627" lon="-0.7654">
        <ele>32.6</ele>
        <time>2017-12-06T09:37:21Z</time>
      </trkpt>
      <trkpt lat="44.86272" lon="-0.76534">
        <ele>32.6</ele>
        <time>2017-12-06T09:37:22Z</time>
      </trkpt>
      <trkpt lat="44.86273" lon="-0.7653">
        <ele>32.5</ele>
        <time>2017-12-06T09:37:23Z</time>
      </trkpt>
      <trkpt lat="44.86277" lon="-0.76526">
        <ele>32.3</ele>
        <time>2017-12-06T09:37:24Z</time>
      </trkpt>
      <trkpt lat="44.86281" lon="-0.76522">
        <ele>32.1</ele>
        <time>2017-12-06T09:37:25Z</time>
      </trkpt>
      <trkpt lat="44.86286" lon="-0.76521">
        <ele>31.9</ele>
        <time>2017-12-06T09:37:26Z</time>
      </trkpt>
      <trkpt lat="44.86291" lon="-0.76521">
        <ele>31.6</ele>
        <time>2017-12-06T09:37:27Z</time>
      </trkpt>
      <trkpt lat="44.86295" lon="-0.76522">
        <ele>31.4</ele>
        <time>2017-12-06T09:37:28Z</time>
      </trkpt>
      <trkpt lat="44.86299" lon="-0.76523">
        <ele>31.2</ele>
        <time>2017-12-06T09:37:29Z</time>
      </trkpt>
      <trkpt lat="44.86302" lon="-0.76524">
        <ele>31.1</ele>
        <time>2017-12-06T09:37:30Z</time>
      </trkpt>
      <trkpt lat="44.86306" lon="-0.76526">
        <ele>31</ele>
        <time>2017-12-06T09:37:31Z</time>
      </trkpt>
      <trkpt lat="44.8631" lon="-0.76529">
        <ele>30.9</ele>
        <time>2017-12-06T09:37:32Z</time>
      </trkpt>
      <trkpt lat="44.86314" lon="-0.76531">
        <ele>30.8</ele>
        <time>2017-12-06T09:37:33Z</time>
      </trkpt>
      <trkpt lat="44.86318" lon="-0.76532">
        <ele>30.8</ele>
        <time>2017-12-06T09:37:34Z</time>
      </trkpt>
      <trkpt lat="44.86323" lon="-0.76529">
        <ele>30.8</ele>
        <time>2017-12-06T09:37:35Z</time>
      </trkpt>
      <trkpt lat="44.86328" lon="-0.76526">
        <ele>30.8</ele>
        <time>2017-12-06T09:37:36Z</time>
      </trkpt>
      <trkpt lat="44.86331" lon="-0.76524">
        <ele>30.8</ele>
        <time>2017-12-06T09:37:37Z</time>
      </trkpt>
      <trkpt lat="44.86335" lon="-0.76522">
        <ele>30.9</ele>
        <time>2017-12-06T09:37:38Z</time>
      </trkpt>
      <trkpt lat="44.86339" lon="-0.76519">
        <ele>31.1</ele>
        <time>2017-12-06T09:37:39Z</time>
      </trkpt>
      <trkpt lat="44.86342" lon="-0.76515">
        <ele>31.2</ele>
        <time>2017-12-06T09:37:40Z</time>
      </trkpt>
      <trkpt lat="44.86344" lon="-0.76511">
        <ele>31.4</ele>
        <time>2017-12-06T09:37:41Z</time>
      </trkpt>
      <trkpt lat="44.86344" lon="-0.76506">
        <ele>31.6</ele>
        <time>2017-12-06T09:37:42Z</time>
      </trkpt>
      <trkpt lat="44.86344" lon="-0.76499">
        <ele>31.9</ele>
        <time>2017-12-06T09:37:43Z</time>
      </trkpt>
      <trkpt lat="44.86341" lon="-0.76492">
        <ele>32.3</ele>
        <time>2017-12-06T09:37:44Z</time>
      </trkpt>
      <trkpt lat="44.8634" lon="-0.76484">
        <ele>32.8</ele>
        <time>2017-12-06T09:37:45Z</time>
      </trkpt>
      <trkpt lat="44.86338" lon="-0.76476">
        <ele>33.3</ele>
        <time>2017-12-06T09:37:46Z</time>
      </trkpt>
      <trkpt lat="44.86339" lon="-0.76467">
        <ele>33.5</ele>
        <time>2017-12-06T09:37:47Z</time>
      </trkpt>
      <trkpt lat="44.86339" lon="-0.76459">
        <ele>33.4</ele>
        <time>2017-12-06T09:37:48Z</time>
      </trkpt>
      <trkpt lat="44.86338" lon="-0.7645">
        <ele>32.9</ele>
        <time>2017-12-06T09:37:49Z</time>
      </trkpt>
      <trkpt lat="44.86338" lon="-0.76441">
        <ele>32.4</ele>
        <time>2017-12-06T09:37:50Z</time>
      </trkpt>
      <trkpt lat="44.8634" lon="-0.76434">
        <ele>32.2</ele>
        <time>2017-12-06T09:37:51Z</time>
      </trkpt>
      <trkpt lat="44.8634" lon="-0.76429">
        <ele>32.2</ele>
        <time>2017-12-06T09:37:52Z</time>
      </trkpt>
      <trkpt lat="44.8634" lon="-0.76422">
        <ele>32.2</ele>
        <time>2017-12-06T09:37:53Z</time>
      </trkpt>
      <trkpt lat="44.86338" lon="-0.76416">
        <ele>32.2</ele>
        <time>2017-12-06T09:37:54Z</time>
      </trkpt>
      <trkpt lat="44.86339" lon="-0.76409">
        <ele>32.4</ele>
        <time>2017-12-06T09:37:55Z</time>
      </trkpt>
      <trkpt lat="44.8634" lon="-0.76403">
        <ele>32.6</ele>
        <time>2017-12-06T09:37:56Z</time>
      </trkpt>
      <trkpt lat="44.86342" lon="-0.76398">
        <ele>32.9</ele>
        <time>2017-12-06T09:37:57Z</time>
      </trkpt>
      <trkpt lat="44.86343" lon="-0.76393">
        <ele>33.2</ele>
        <time>2017-12-06T09:37:58Z</time>
      </trkpt>
      <trkpt lat="44.86344" lon="-0.76388">
        <ele>33.5</ele>
        <time>2017-12-06T09:37:59Z</time>
      </trkpt>
      <trkpt lat="44.86345" lon="-0.76383">
        <ele>33.7</ele>
        <time>2017-12-06T09:38:00Z</time>
      </trkpt>
      <trkpt lat="44.86346" lon="-0.76378">
        <ele>33.9</ele>
        <time>2017-12-06T09:38:01Z</time>
      </trkpt>
      <trkpt lat="44.86347" lon="-0.76373">
        <ele>34.1</ele>
        <time>2017-12-06T09:38:02Z</time>
      </trkpt>
      <trkpt lat="44.86349" lon="-0.76368">
        <ele>34.3</ele>
        <time>2017-12-06T09:38:03Z</time>
      </trkpt>
      <trkpt lat="44.8635" lon="-0.76363">
        <ele>34.5</ele>
        <time>2017-12-06T09:38:04Z</time>
      </trkpt>
      <trkpt lat="44.86352" lon="-0.76359">
        <ele>34.6</ele>
        <time>2017-12-06T09:38:05Z</time>
      </trkpt>
      <trkpt lat="44.86354" lon="-0.76354">
        <ele>34.8</ele>
        <time>2017-12-06T09:38:06Z</time>
      </trkpt>
      <trkpt lat="44.86355" lon="-0.7635">
        <ele>34.9</ele>
        <time>2017-12-06T09:38:07Z</time>
      </trkpt>
      <trkpt lat="44.86357" lon="-0.76346">
        <ele>34.9</ele>
        <time>2017-12-06T09:38:08Z</time>
      </trkpt>
      <trkpt lat="44.86359" lon="-0.76342">
        <ele>35</ele>
        <time>2017-12-06T09:38:09Z</time>
      </trkpt>
      <trkpt lat="44.86362" lon="-0.76338">
        <ele>35</ele>
        <time>2017-12-06T09:38:10Z</time>
      </trkpt>
      <trkpt lat="44.86365" lon="-0.76334">
        <ele>34.9</ele>
        <time>2017-12-06T09:38:11Z</time>
      </trkpt>
      <trkpt lat="44.86368" lon="-0.7633">
        <ele>34.9</ele>
        <time>2017-12-06T09:38:12Z</time>
      </trkpt>
      <trkpt lat="44.86371" lon="-0.76327">
        <ele>34.7</ele>
        <time>2017-12-06T09:38:13Z</time>
      </trkpt>
      <trkpt lat="44.86374" lon="-0.76323">
        <ele>34.5</ele>
        <time>2017-12-06T09:38:14Z</time>
      </trkpt>
      <trkpt lat="44.86379" lon="-0.76318">
        <ele>34.1</ele>
        <time>2017-12-06T09:38:15Z</time>
      </trkpt>
      <trkpt lat="44.86383" lon="-0.76315">
        <ele>33.6</ele>
        <time>2017-12-06T09:38:16Z</time>
      </trkpt>
      <trkpt lat="44.86386" lon="-0.76312">
        <ele>33.3</ele>
        <time>2017-12-06T09:38:17Z</time>
      </trkpt>
      <trkpt lat="44.8639" lon="-0.76308">
        <ele>32.9</ele>
        <time>2017-12-06T09:38:18Z</time>
      </trkpt>
      <trkpt lat="44.86394" lon="-0.76308">
        <ele>32.7</ele>
        <time>2017-12-06T09:38:19Z</time>
      </trkpt>
      <trkpt lat="44.86398" lon="-0.76305">
        <ele>32.4</ele>
        <time>2017-12-06T09:38:20Z</time>
      </trkpt>
      <trkpt lat="44.86403" lon="-0.76299">
        <ele>32.1</ele>
        <time>2017-12-06T09:38:21Z</time>
      </trkpt>
      <trkpt lat="44.86407" lon="-0.76295">
        <ele>31.9</ele>
        <time>2017-12-06T09:38:22Z</time>
      </trkpt>
      <trkpt lat="44.86412" lon="-0.76291">
        <ele>31.8</ele>
        <time>2017-12-06T09:38:23Z</time>
      </trkpt>
      <trkpt lat="44.86415" lon="-0.76287">
        <ele>31.8</ele>
        <time>2017-12-06T09:38:24Z</time>
      </trkpt>
      <trkpt lat="44.86417" lon="-0.76284">
        <ele>31.8</ele>
        <time>2017-12-06T09:38:25Z</time>
      </trkpt>
      <trkpt lat="44.8642" lon="-0.76281">
        <ele>31.9</ele>
        <time>2017-12-06T09:38:26Z</time>
      </trkpt>
      <trkpt lat="44.86424" lon="-0.76277">
        <ele>32.1</ele>
        <time>2017-12-06T09:38:27Z</time>
      </trkpt>
      <trkpt lat="44.86428" lon="-0.76273">
        <ele>32.2</ele>
        <time>2017-12-06T09:38:28Z</time>
      </trkpt>
      <trkpt lat="44.86431" lon="-0.76269">
        <ele>32.3</ele>
        <time>2017-12-06T09:38:29Z</time>
      </trkpt>
      <trkpt lat="44.86434" lon="-0.76264">
        <ele>32.4</ele>
        <time>2017-12-06T09:38:30Z</time>
      </trkpt>
      <trkpt lat="44.86436" lon="-0.76261">
        <ele>32.4</ele>
        <time>2017-12-06T09:38:31Z</time>
      </trkpt>
      <trkpt lat="44.86439" lon="-0.76255">
        <ele>32.4</ele>
        <time>2017-12-06T09:38:32Z</time>
      </trkpt>
      <trkpt lat="44.86443" lon="-0.7625">
        <ele>32.4</ele>
        <time>2017-12-06T09:38:33Z</time>
      </trkpt>
      <trkpt lat="44.86445" lon="-0.76248">
        <ele>32.3</ele>
        <time>2017-12-06T09:38:34Z</time>
      </trkpt>
      <trkpt lat="44.86447" lon="-0.76244">
        <ele>32.2</ele>
        <time>2017-12-06T09:38:35Z</time>
      </trkpt>
      <trkpt lat="44.86449" lon="-0.76237">
        <ele>32</ele>
        <time>2017-12-06T09:38:36Z</time>
      </trkpt>
      <trkpt lat="44.86451" lon="-0.76231">
        <ele>32</ele>
        <time>2017-12-06T09:38:37Z</time>
      </trkpt>
      <trkpt lat="44.86453" lon="-0.76224">
        <ele>32</ele>
        <time>2017-12-06T09:38:38Z</time>
      </trkpt>
      <trkpt lat="44.86455" lon="-0.76216">
        <ele>32.1</ele>
        <time>2017-12-06T09:38:39Z</time>
      </trkpt>
      <trkpt lat="44.86457" lon="-0.76209">
        <ele>32.3</ele>
        <time>2017-12-06T09:38:40Z</time>
      </trkpt>
      <trkpt lat="44.8646" lon="-0.76202">
        <ele>32.3</ele>
        <time>2017-12-06T09:38:41Z</time>
      </trkpt>
      <trkpt lat="44.86462" lon="-0.76197">
        <ele>32.2</ele>
        <time>2017-12-06T09:38:42Z</time>
      </trkpt>
      <trkpt lat="44.86466" lon="-0.76191">
        <ele>32.1</ele>
        <time>2017-12-06T09:38:43Z</time>
      </trkpt>
      <trkpt lat="44.86471" lon="-0.76185">
        <ele>32</ele>
        <time>2017-12-06T09:38:44Z</time>
      </trkpt>
      <trkpt lat="44.86475" lon="-0.76179">
        <ele>32</ele>
        <time>2017-12-06T09:38:45Z</time>
      </trkpt>
      <trkpt lat="44.86478" lon="-0.76172">
        <ele>32</ele>
        <time>2017-12-06T09:38:46Z</time>
      </trkpt>
      <trkpt lat="44.8648" lon="-0.76165">
        <ele>32</ele>
        <time>2017-12-06T09:38:47Z</time>
      </trkpt>
      <trkpt lat="44.86483" lon="-0.76158">
        <ele>32</ele>
        <time>2017-12-06T09:38:48Z</time>
      </trkpt>
      <trkpt lat="44.86485" lon="-0.76152">
        <ele>32</ele>
        <time>2017-12-06T09:38:49Z</time>
      </trkpt>
      <trkpt lat="44.86489" lon="-0.76147">
        <ele>31.9</ele>
        <time>2017-12-06T09:38:50Z</time>
      </trkpt>
      <trkpt lat="44.86492" lon="-0.76141">
        <ele>31.8</ele>
        <time>2017-12-06T09:38:51Z</time>
      </trkpt>
      <trkpt lat="44.86494" lon="-0.76137">
        <ele>31.7</ele>
        <time>2017-12-06T09:38:52Z</time>
      </trkpt>
      <trkpt lat="44.86498" lon="-0.76132">
        <ele>31.6</ele>
        <time>2017-12-06T09:38:53Z</time>
      </trkpt>
      <trkpt lat="44.86501" lon="-0.76128">
        <ele>31.5</ele>
        <time>2017-12-06T09:38:54Z</time>
      </trkpt>
      <trkpt lat="44.86503" lon="-0.76123">
        <ele>31.4</ele>
        <time>2017-12-06T09:38:55Z</time>
      </trkpt>
      <trkpt lat="44.86506" lon="-0.76117">
        <ele>31.3</ele>
        <time>2017-12-06T09:38:56Z</time>
      </trkpt>
      <trkpt lat="44.8651" lon="-0.76113">
        <ele>31.4</ele>
        <time>2017-12-06T09:38:57Z</time>
      </trkpt>
      <trkpt lat="44.86512" lon="-0.76107">
        <ele>31.4</ele>
        <time>2017-12-06T09:38:58Z</time>
      </trkpt>
      <trkpt lat="44.86516" lon="-0.76101">
        <ele>31.4</ele>
        <time>2017-12-06T09:38:59Z</time>
      </trkpt>
      <trkpt lat="44.8652" lon="-0.76097">
        <ele>31.4</ele>
        <time>2017-12-06T09:39:00Z</time>
      </trkpt>
      <trkpt lat="44.86523" lon="-0.76092">
        <ele>31.3</ele>
        <time>2017-12-06T09:39:01Z</time>
      </trkpt>
      <trkpt lat="44.86526" lon="-0.76086">
        <ele>31.2</ele>
        <time>2017-12-06T09:39:02Z</time>
      </trkpt>
      <trkpt lat="44.86529" lon="-0.76081">
        <ele>31.2</ele>
        <time>2017-12-06T09:39:03Z</time>
      </trkpt>
      <trkpt lat="44.86533" lon="-0.76077">
        <ele>31.1</ele>
        <time>2017-12-06T09:39:04Z</time>
      </trkpt>
      <trkpt lat="44.86534" lon="-0.76072">
        <ele>31.1</ele>
        <time>2017-12-06T09:39:05Z</time>
      </trkpt>
      <trkpt lat="44.86538" lon="-0.76069">
        <ele>31</ele>
        <time>2017-12-06T09:39:06Z</time>
      </trkpt>
      <trkpt lat="44.86541" lon="-0.76066">
        <ele>30.9</ele>
        <time>2017-12-06T09:39:07Z</time>
      </trkpt>
      <trkpt lat="44.86542" lon="-0.76061">
        <ele>30.9</ele>
        <time>2017-12-06T09:39:08Z</time>
      </trkpt>
      <trkpt lat="44.86543" lon="-0.76056">
        <ele>30.9</ele>
        <time>2017-12-06T09:39:09Z</time>
      </trkpt>
      <trkpt lat="44.86545" lon="-0.7605">
        <ele>30.8</ele>
        <time>2017-12-06T09:39:10Z</time>
      </trkpt>
      <trkpt lat="44.86547" lon="-0.76044">
        <ele>30.7</ele>
        <time>2017-12-06T09:39:11Z</time>
      </trkpt>
      <trkpt lat="44.8655" lon="-0.76039">
        <ele>30.7</ele>
        <time>2017-12-06T09:39:12Z</time>
      </trkpt>
      <trkpt lat="44.86552" lon="-0.76034">
        <ele>30.6</ele>
        <time>2017-12-06T09:39:13Z</time>
      </trkpt>
      <trkpt lat="44.86555" lon="-0.7603">
        <ele>30.5</ele>
        <time>2017-12-06T09:39:14Z</time>
      </trkpt>
      <trkpt lat="44.86559" lon="-0.76025">
        <ele>30.4</ele>
        <time>2017-12-06T09:39:15Z</time>
      </trkpt>
      <trkpt lat="44.86562" lon="-0.7602">
        <ele>30.3</ele>
        <time>2017-12-06T09:39:16Z</time>
      </trkpt>
      <trkpt lat="44.86566" lon="-0.76015">
        <ele>30.3</ele>
        <time>2017-12-06T09:39:17Z</time>
      </trkpt>
      <trkpt lat="44.86569" lon="-0.7601">
        <ele>30.2</ele>
        <time>2017-12-06T09:39:18Z</time>
      </trkpt>
      <trkpt lat="44.86571" lon="-0.76004">
        <ele>30.2</ele>
        <time>2017-12-06T09:39:19Z</time>
      </trkpt>
      <trkpt lat="44.86572" lon="-0.75999">
        <ele>30.1</ele>
        <time>2017-12-06T09:39:20Z</time>
      </trkpt>
      <trkpt lat="44.86574" lon="-0.75992">
        <ele>30.1</ele>
        <time>2017-12-06T09:39:21Z</time>
      </trkpt>
      <trkpt lat="44.86575" lon="-0.75986">
        <ele>30.1</ele>
        <time>2017-12-06T09:39:22Z</time>
      </trkpt>
      <trkpt lat="44.86577" lon="-0.75981">
        <ele>30</ele>
        <time>2017-12-06T09:39:23Z</time>
      </trkpt>
      <trkpt lat="44.86578" lon="-0.75975">
        <ele>30</ele>
        <time>2017-12-06T09:39:24Z</time>
      </trkpt>
      <trkpt lat="44.86579" lon="-0.7597">
        <ele>30</ele>
        <time>2017-12-06T09:39:25Z</time>
      </trkpt>
      <trkpt lat="44.86581" lon="-0.75964">
        <ele>30</ele>
        <time>2017-12-06T09:39:26Z</time>
      </trkpt>
      <trkpt lat="44.86581" lon="-0.75958">
        <ele>30</ele>
        <time>2017-12-06T09:39:27Z</time>
      </trkpt>
      <trkpt lat="44.86581" lon="-0.75951">
        <ele>30</ele>
        <time>2017-12-06T09:39:28Z</time>
      </trkpt>
      <trkpt lat="44.86581" lon="-0.75945">
        <ele>30</ele>
        <time>2017-12-06T09:39:29Z</time>
      </trkpt>
      <trkpt lat="44.86582" lon="-0.75938">
        <ele>29.9</ele>
        <time>2017-12-06T09:39:30Z</time>
      </trkpt>
      <trkpt lat="44.86583" lon="-0.75932">
        <ele>29.9</ele>
        <time>2017-12-06T09:39:31Z</time>
      </trkpt>
      <trkpt lat="44.86583" lon="-0.75927">
        <ele>29.8</ele>
        <time>2017-12-06T09:39:32Z</time>
      </trkpt>
      <trkpt lat="44.86584" lon="-0.75922">
        <ele>29.8</ele>
        <time>2017-12-06T09:39:33Z</time>
      </trkpt>
      <trkpt lat="44.86586" lon="-0.75918">
        <ele>29.7</ele>
        <time>2017-12-06T09:39:34Z</time>
      </trkpt>
      <trkpt lat="44.86589" lon="-0.75912">
        <ele>29.7</ele>
        <time>2017-12-06T09:39:35Z</time>
      </trkpt>
      <trkpt lat="44.86591" lon="-0.75908">
        <ele>29.7</ele>
        <time>2017-12-06T09:39:36Z</time>
      </trkpt>
      <trkpt lat="44.86592" lon="-0.75903">
        <ele>29.6</ele>
        <time>2017-12-06T09:39:37Z</time>
      </trkpt>
      <trkpt lat="44.86594" lon="-0.75896">
        <ele>29.6</ele>
        <time>2017-12-06T09:39:38Z</time>
      </trkpt>
      <trkpt lat="44.86596" lon="-0.75891">
        <ele>29.5</ele>
        <time>2017-12-06T09:39:39Z</time>
      </trkpt>
      <trkpt lat="44.86599" lon="-0.75887">
        <ele>29.5</ele>
        <time>2017-12-06T09:39:40Z</time>
      </trkpt>
      <trkpt lat="44.86602" lon="-0.75885">
        <ele>29.5</ele>
        <time>2017-12-06T09:39:41Z</time>
      </trkpt>
      <trkpt lat="44.86606" lon="-0.75883">
        <ele>29.5</ele>
        <time>2017-12-06T09:39:42Z</time>
      </trkpt>
      <trkpt lat="44.86611" lon="-0.75881">
        <ele>29.4</ele>
        <time>2017-12-06T09:39:43Z</time>
      </trkpt>
      <trkpt lat="44.86614" lon="-0.75882">
        <ele>29.3</ele>
        <time>2017-12-06T09:39:44Z</time>
      </trkpt>
      <trkpt lat="44.86618" lon="-0.75885">
        <ele>29.2</ele>
        <time>2017-12-06T09:39:45Z</time>
      </trkpt>
      <trkpt lat="44.86622" lon="-0.75886">
        <ele>29.2</ele>
        <time>2017-12-06T09:39:46Z</time>
      </trkpt>
      <trkpt lat="44.86626" lon="-0.75886">
        <ele>29.1</ele>
        <time>2017-12-06T09:39:47Z</time>
      </trkpt>
      <trkpt lat="44.8663" lon="-0.75887">
        <ele>29.1</ele>
        <time>2017-12-06T09:39:48Z</time>
      </trkpt>
      <trkpt lat="44.86634" lon="-0.75888">
        <ele>29.1</ele>
        <time>2017-12-06T09:39:49Z</time>
      </trkpt>
      <trkpt lat="44.86638" lon="-0.75889">
        <ele>29.1</ele>
        <time>2017-12-06T09:39:50Z</time>
      </trkpt>
      <trkpt lat="44.86642" lon="-0.75889">
        <ele>29.1</ele>
        <time>2017-12-06T09:39:51Z</time>
      </trkpt>
      <trkpt lat="44.86646" lon="-0.75891">
        <ele>29.1</ele>
        <time>2017-12-06T09:39:52Z</time>
      </trkpt>
      <trkpt lat="44.86649" lon="-0.75894">
        <ele>29</ele>
        <time>2017-12-06T09:39:53Z</time>
      </trkpt>
      <trkpt lat="44.86651" lon="-0.75896">
        <ele>29</ele>
        <time>2017-12-06T09:39:54Z</time>
      </trkpt>
      <trkpt lat="44.86654" lon="-0.759">
        <ele>28.9</ele>
        <time>2017-12-06T09:39:56Z</time>
      </trkpt>
      <trkpt lat="44.86658" lon="-0.75906">
        <ele>28.9</ele>
        <time>2017-12-06T09:39:58Z</time>
      </trkpt>
      <trkpt lat="44.8666" lon="-0.7591">
        <ele>28.9</ele>
        <time>2017-12-06T09:39:59Z</time>
      </trkpt>
      <trkpt lat="44.86662" lon="-0.75912">
        <ele>28.9</ele>
        <time>2017-12-06T09:40:00Z</time>
      </trkpt>
      <trkpt lat="44.86666" lon="-0.75916">
        <ele>28.9</ele>
        <time>2017-12-06T09:40:02Z</time>
      </trkpt>
      <trkpt lat="44.86669" lon="-0.75917">
        <ele>28.9</ele>
        <time>2017-12-06T09:40:03Z</time>
      </trkpt>
      <trkpt lat="44.86671" lon="-0.75918">
        <ele>28.9</ele>
        <time>2017-12-06T09:40:04Z</time>
      </trkpt>
      <trkpt lat="44.86674" lon="-0.75916">
        <ele>28.9</ele>
        <time>2017-12-06T09:40:05Z</time>
      </trkpt>
      <trkpt lat="44.86676" lon="-0.75913">
        <ele>29</ele>
        <time>2017-12-06T09:40:06Z</time>
      </trkpt>
      <trkpt lat="44.86678" lon="-0.75909">
        <ele>29</ele>
        <time>2017-12-06T09:40:07Z</time>
      </trkpt>
      <trkpt lat="44.8668" lon="-0.75905">
        <ele>29</ele>
        <time>2017-12-06T09:40:08Z</time>
      </trkpt>
      <trkpt lat="44.86683" lon="-0.759">
        <ele>28.9</ele>
        <time>2017-12-06T09:40:09Z</time>
      </trkpt>
      <trkpt lat="44.86687" lon="-0.75899">
        <ele>29</ele>
        <time>2017-12-06T09:40:10Z</time>
      </trkpt>
      <trkpt lat="44.86691" lon="-0.75899">
        <ele>29</ele>
        <time>2017-12-06T09:40:11Z</time>
      </trkpt>
      <trkpt lat="44.86695" lon="-0.75899">
        <ele>29</ele>
        <time>2017-12-06T09:40:12Z</time>
      </trkpt>
      <trkpt lat="44.86698" lon="-0.75898">
        <ele>29</ele>
        <time>2017-12-06T09:40:13Z</time>
      </trkpt>
      <trkpt lat="44.86701" lon="-0.75898">
        <ele>29</ele>
        <time>2017-12-06T09:40:14Z</time>
      </trkpt>
      <trkpt lat="44.86704" lon="-0.75897">
        <ele>29.1</ele>
        <time>2017-12-06T09:40:15Z</time>
      </trkpt>
      <trkpt lat="44.86708" lon="-0.75896">
        <ele>29.2</ele>
        <time>2017-12-06T09:40:16Z</time>
      </trkpt>
      <trkpt lat="44.86711" lon="-0.75893">
        <ele>29.2</ele>
        <time>2017-12-06T09:40:17Z</time>
      </trkpt>
      <trkpt lat="44.86713" lon="-0.7589">
        <ele>29.2</ele>
        <time>2017-12-06T09:40:18Z</time>
      </trkpt>
      <trkpt lat="44.86715" lon="-0.75886">
        <ele>29.2</ele>
        <time>2017-12-06T09:40:19Z</time>
      </trkpt>
      <trkpt lat="44.86718" lon="-0.75884">
        <ele>29.2</ele>
        <time>2017-12-06T09:40:20Z</time>
      </trkpt>
      <trkpt lat="44.8672" lon="-0.75881">
        <ele>29.2</ele>
        <time>2017-12-06T09:40:21Z</time>
      </trkpt>
      <trkpt lat="44.86723" lon="-0.75878">
        <ele>29.2</ele>
        <time>2017-12-06T09:40:22Z</time>
      </trkpt>
      <trkpt lat="44.86725" lon="-0.75875">
        <ele>29.2</ele>
        <time>2017-12-06T09:40:23Z</time>
      </trkpt>
      <trkpt lat="44.86727" lon="-0.75872">
        <ele>29.2</ele>
        <time>2017-12-06T09:40:24Z</time>
      </trkpt>
      <trkpt lat="44.8673" lon="-0.75867">
        <ele>29.3</ele>
        <time>2017-12-06T09:40:25Z</time>
      </trkpt>
      <trkpt lat="44.86735" lon="-0.75861">
        <ele>29.3</ele>
        <time>2017-12-06T09:40:27Z</time>
      </trkpt>
      <trkpt lat="44.86738" lon="-0.75858">
        <ele>29.3</ele>
        <time>2017-12-06T09:40:28Z</time>
      </trkpt>
      <trkpt lat="44.86741" lon="-0.75854">
        <ele>29.2</ele>
        <time>2017-12-06T09:40:29Z</time>
      </trkpt>
      <trkpt lat="44.86744" lon="-0.75849">
        <ele>29.1</ele>
        <time>2017-12-06T09:40:30Z</time>
      </trkpt>
      <trkpt lat="44.86745" lon="-0.75844">
        <ele>29</ele>
        <time>2017-12-06T09:40:31Z</time>
      </trkpt>
      <trkpt lat="44.86746" lon="-0.75836">
        <ele>28.8</ele>
        <time>2017-12-06T09:40:33Z</time>
      </trkpt>
      <trkpt lat="44.86745" lon="-0.7583">
        <ele>28.8</ele>
        <time>2017-12-06T09:40:34Z</time>
      </trkpt>
      <trkpt lat="44.86747" lon="-0.75823">
        <ele>28.7</ele>
        <time>2017-12-06T09:40:35Z</time>
      </trkpt>
      <trkpt lat="44.86749" lon="-0.75818">
        <ele>28.6</ele>
        <time>2017-12-06T09:40:36Z</time>
      </trkpt>
      <trkpt lat="44.86751" lon="-0.75812">
        <ele>28.5</ele>
        <time>2017-12-06T09:40:37Z</time>
      </trkpt>
      <trkpt lat="44.86753" lon="-0.75806">
        <ele>28.4</ele>
        <time>2017-12-06T09:40:38Z</time>
      </trkpt>
      <trkpt lat="44.86756" lon="-0.75798">
        <ele>28.4</ele>
        <time>2017-12-06T09:40:39Z</time>
      </trkpt>
      <trkpt lat="44.86758" lon="-0.75792">
        <ele>28.3</ele>
        <time>2017-12-06T09:40:40Z</time>
      </trkpt>
      <trkpt lat="44.8676" lon="-0.75785">
        <ele>28.3</ele>
        <time>2017-12-06T09:40:41Z</time>
      </trkpt>
      <trkpt lat="44.86762" lon="-0.75779">
        <ele>28.2</ele>
        <time>2017-12-06T09:40:42Z</time>
      </trkpt>
      <trkpt lat="44.86763" lon="-0.75772">
        <ele>28.2</ele>
        <time>2017-12-06T09:40:43Z</time>
      </trkpt>
      <trkpt lat="44.86765" lon="-0.75767">
        <ele>28.2</ele>
        <time>2017-12-06T09:40:44Z</time>
      </trkpt>
      <trkpt lat="44.86767" lon="-0.7576">
        <ele>28.2</ele>
        <time>2017-12-06T09:40:45Z</time>
      </trkpt>
      <trkpt lat="44.86769" lon="-0.75753">
        <ele>28.2</ele>
        <time>2017-12-06T09:40:46Z</time>
      </trkpt>
      <trkpt lat="44.86771" lon="-0.75747">
        <ele>28.3</ele>
        <time>2017-12-06T09:40:47Z</time>
      </trkpt>
      <trkpt lat="44.86772" lon="-0.75741">
        <ele>28.3</ele>
        <time>2017-12-06T09:40:48Z</time>
      </trkpt>
      <trkpt lat="44.86774" lon="-0.75735">
        <ele>28.4</ele>
        <time>2017-12-06T09:40:49Z</time>
      </trkpt>
      <trkpt lat="44.86776" lon="-0.7573">
        <ele>28.5</ele>
        <time>2017-12-06T09:40:50Z</time>
      </trkpt>
      <trkpt lat="44.86777" lon="-0.75725">
        <ele>28.5</ele>
        <time>2017-12-06T09:40:51Z</time>
      </trkpt>
      <trkpt lat="44.86779" lon="-0.75719">
        <ele>28.6</ele>
        <time>2017-12-06T09:40:52Z</time>
      </trkpt>
      <trkpt lat="44.8678" lon="-0.75714">
        <ele>28.6</ele>
        <time>2017-12-06T09:40:53Z</time>
      </trkpt>
      <trkpt lat="44.86782" lon="-0.75708">
        <ele>28.6</ele>
        <time>2017-12-06T09:40:54Z</time>
      </trkpt>
      <trkpt lat="44.8678" lon="-0.75703">
        <ele>28.7</ele>
        <time>2017-12-06T09:40:55Z</time>
      </trkpt>
      <trkpt lat="44.8678" lon="-0.75698">
        <ele>28.7</ele>
        <time>2017-12-06T09:40:56Z</time>
      </trkpt>
      <trkpt lat="44.8678" lon="-0.75694">
        <ele>28.8</ele>
        <time>2017-12-06T09:40:57Z</time>
      </trkpt>
      <trkpt lat="44.86781" lon="-0.75685">
        <ele>28.9</ele>
        <time>2017-12-06T09:40:59Z</time>
      </trkpt>
      <trkpt lat="44.86781" lon="-0.7568">
        <ele>29</ele>
        <time>2017-12-06T09:41:00Z</time>
      </trkpt>
      <trkpt lat="44.86781" lon="-0.75676">
        <ele>29</ele>
        <time>2017-12-06T09:41:01Z</time>
      </trkpt>
      <trkpt lat="44.86778" lon="-0.7567">
        <ele>29</ele>
        <time>2017-12-06T09:41:03Z</time>
      </trkpt>
      <trkpt lat="44.86776" lon="-0.75667">
        <ele>29</ele>
        <time>2017-12-06T09:41:04Z</time>
      </trkpt>
      <trkpt lat="44.86773" lon="-0.75665">
        <ele>29</ele>
        <time>2017-12-06T09:41:05Z</time>
      </trkpt>
      <trkpt lat="44.86774" lon="-0.7566">
        <ele>29</ele>
        <time>2017-12-06T09:41:06Z</time>
      </trkpt>
      <trkpt lat="44.86772" lon="-0.75656">
        <ele>29</ele>
        <time>2017-12-06T09:41:07Z</time>
      </trkpt>
      <trkpt lat="44.8677" lon="-0.75653">
        <ele>29</ele>
        <time>2017-12-06T09:41:08Z</time>
      </trkpt>
      <trkpt lat="44.86769" lon="-0.75648">
        <ele>29.1</ele>
        <time>2017-12-06T09:41:09Z</time>
      </trkpt>
      <trkpt lat="44.86767" lon="-0.75644">
        <ele>29.1</ele>
        <time>2017-12-06T09:41:10Z</time>
      </trkpt>
      <trkpt lat="44.8677" lon="-0.75642">
        <ele>29.2</ele>
        <time>2017-12-06T09:41:11Z</time>
      </trkpt>
      <trkpt lat="44.86774" lon="-0.7564">
        <ele>29.2</ele>
        <time>2017-12-06T09:41:13Z</time>
      </trkpt>
      <trkpt lat="44.86781" lon="-0.7564">
        <ele>29.2</ele>
        <time>2017-12-06T09:41:15Z</time>
      </trkpt>
      <trkpt lat="44.86785" lon="-0.75641">
        <ele>29.1</ele>
        <time>2017-12-06T09:41:16Z</time>
      </trkpt>
      <trkpt lat="44.86788" lon="-0.7564">
        <ele>28.9</ele>
        <time>2017-12-06T09:41:17Z</time>
      </trkpt>
      <trkpt lat="44.86792" lon="-0.75638">
        <ele>28.8</ele>
        <time>2017-12-06T09:41:18Z</time>
      </trkpt>
      <trkpt lat="44.86796" lon="-0.75633">
        <ele>28.6</ele>
        <time>2017-12-06T09:41:19Z</time>
      </trkpt>
      <trkpt lat="44.868" lon="-0.75629">
        <ele>28.6</ele>
        <time>2017-12-06T09:41:20Z</time>
      </trkpt>
      <trkpt lat="44.86802" lon="-0.75623">
        <ele>28.6</ele>
        <time>2017-12-06T09:41:21Z</time>
      </trkpt>
      <trkpt lat="44.86804" lon="-0.75617">
        <ele>28.6</ele>
        <time>2017-12-06T09:41:22Z</time>
      </trkpt>
      <trkpt lat="44.86806" lon="-0.75612">
        <ele>28.7</ele>
        <time>2017-12-06T09:41:23Z</time>
      </trkpt>
      <trkpt lat="44.86809" lon="-0.75614">
        <ele>28.7</ele>
        <time>2017-12-06T09:41:24Z</time>
      </trkpt>
      <trkpt lat="44.86812" lon="-0.75616">
        <ele>28.8</ele>
        <time>2017-12-06T09:41:25Z</time>
      </trkpt>
      <trkpt lat="44.86815" lon="-0.75616">
        <ele>28.8</ele>
        <time>2017-12-06T09:41:26Z</time>
      </trkpt>
      <trkpt lat="44.86818" lon="-0.75615">
        <ele>28.9</ele>
        <time>2017-12-06T09:41:27Z</time>
      </trkpt>
      <trkpt lat="44.86823" lon="-0.75613">
        <ele>29</ele>
        <time>2017-12-06T09:41:28Z</time>
      </trkpt>
      <trkpt lat="44.86827" lon="-0.75611">
        <ele>29</ele>
        <time>2017-12-06T09:41:29Z</time>
      </trkpt>
      <trkpt lat="44.86831" lon="-0.75611">
        <ele>29</ele>
        <time>2017-12-06T09:41:30Z</time>
      </trkpt>
      <trkpt lat="44.86835" lon="-0.75611">
        <ele>29</ele>
        <time>2017-12-06T09:41:31Z</time>
      </trkpt>
      <trkpt lat="44.86838" lon="-0.75611">
        <ele>28.9</ele>
        <time>2017-12-06T09:41:32Z</time>
      </trkpt>
      <trkpt lat="44.8684" lon="-0.75614">
        <ele>28.9</ele>
        <time>2017-12-06T09:41:33Z</time>
      </trkpt>
      <trkpt lat="44.86841" lon="-0.7562">
        <ele>28.7</ele>
        <time>2017-12-06T09:41:35Z</time>
      </trkpt>
      <trkpt lat="44.86847" lon="-0.75621">
        <ele>28.7</ele>
        <time>2017-12-06T09:41:37Z</time>
      </trkpt>
      <trkpt lat="44.8685" lon="-0.75624">
        <ele>28.7</ele>
        <time>2017-12-06T09:41:38Z</time>
      </trkpt>
      <trkpt lat="44.86854" lon="-0.75628">
        <ele>28.9</ele>
        <time>2017-12-06T09:41:39Z</time>
      </trkpt>
      <trkpt lat="44.86858" lon="-0.75631">
        <ele>29</ele>
        <time>2017-12-06T09:41:40Z</time>
      </trkpt>
      <trkpt lat="44.8686" lon="-0.75635">
        <ele>29.1</ele>
        <time>2017-12-06T09:41:41Z</time>
      </trkpt>
      <trkpt lat="44.86864" lon="-0.75641">
        <ele>29.2</ele>
        <time>2017-12-06T09:41:43Z</time>
      </trkpt>
      <trkpt lat="44.86869" lon="-0.75644">
        <ele>29.1</ele>
        <time>2017-12-06T09:41:45Z</time>
      </trkpt>
      <trkpt lat="44.86872" lon="-0.75645">
        <ele>29</ele>
        <time>2017-12-06T09:41:46Z</time>
      </trkpt>
      <trkpt lat="44.86876" lon="-0.7564">
        <ele>28.8</ele>
        <time>2017-12-06T09:41:47Z</time>
      </trkpt>
      <trkpt lat="44.86879" lon="-0.7564">
        <ele>28.8</ele>
        <time>2017-12-06T09:41:48Z</time>
      </trkpt>
      <trkpt lat="44.86883" lon="-0.75642">
        <ele>28.8</ele>
        <time>2017-12-06T09:41:49Z</time>
      </trkpt>
      <trkpt lat="44.86887" lon="-0.75645">
        <ele>28.8</ele>
        <time>2017-12-06T09:41:50Z</time>
      </trkpt>
      <trkpt lat="44.8689" lon="-0.75648">
        <ele>29</ele>
        <time>2017-12-06T09:41:51Z</time>
      </trkpt>
      <trkpt lat="44.86894" lon="-0.75651">
        <ele>29.2</ele>
        <time>2017-12-06T09:41:52Z</time>
      </trkpt>
      <trkpt lat="44.86898" lon="-0.75654">
        <ele>29.4</ele>
        <time>2017-12-06T09:41:53Z</time>
      </trkpt>
      <trkpt lat="44.86902" lon="-0.75655">
        <ele>29.6</ele>
        <time>2017-12-06T09:41:54Z</time>
      </trkpt>
      <trkpt lat="44.86905" lon="-0.75655">
        <ele>29.9</ele>
        <time>2017-12-06T09:41:55Z</time>
      </trkpt>
      <trkpt lat="44.8691" lon="-0.75655">
        <ele>30.2</ele>
        <time>2017-12-06T09:41:56Z</time>
      </trkpt>
      <trkpt lat="44.86915" lon="-0.75656">
        <ele>30.6</ele>
        <time>2017-12-06T09:41:57Z</time>
      </trkpt>
      <trkpt lat="44.86919" lon="-0.75657">
        <ele>31</ele>
        <time>2017-12-06T09:41:58Z</time>
      </trkpt>
      <trkpt lat="44.86922" lon="-0.75659">
        <ele>31.3</ele>
        <time>2017-12-06T09:41:59Z</time>
      </trkpt>
      <trkpt lat="44.86926" lon="-0.7566">
        <ele>31.6</ele>
        <time>2017-12-06T09:42:00Z</time>
      </trkpt>
      <trkpt lat="44.86929" lon="-0.75661">
        <ele>31.8</ele>
        <time>2017-12-06T09:42:01Z</time>
      </trkpt>
      <trkpt lat="44.86932" lon="-0.75663">
        <ele>32</ele>
        <time>2017-12-06T09:42:02Z</time>
      </trkpt>
      <trkpt lat="44.86935" lon="-0.75664">
        <ele>32.2</ele>
        <time>2017-12-06T09:42:03Z</time>
      </trkpt>
      <trkpt lat="44.86938" lon="-0.75665">
        <ele>32.4</ele>
        <time>2017-12-06T09:42:04Z</time>
      </trkpt>
      <trkpt lat="44.86942" lon="-0.75665">
        <ele>32.6</ele>
        <time>2017-12-06T09:42:05Z</time>
      </trkpt>
      <trkpt lat="44.86945" lon="-0.75666">
        <ele>32.8</ele>
        <time>2017-12-06T09:42:06Z</time>
      </trkpt>
      <trkpt lat="44.86948" lon="-0.75668">
        <ele>32.9</ele>
        <time>2017-12-06T09:42:07Z</time>
      </trkpt>
      <trkpt lat="44.86951" lon="-0.75671">
        <ele>32.9</ele>
        <time>2017-12-06T09:42:08Z</time>
      </trkpt>
      <trkpt lat="44.86954" lon="-0.75673">
        <ele>32.9</ele>
        <time>2017-12-06T09:42:09Z</time>
      </trkpt>
      <trkpt lat="44.86957" lon="-0.75675">
        <ele>32.9</ele>
        <time>2017-12-06T09:42:10Z</time>
      </trkpt>
      <trkpt lat="44.8696" lon="-0.75676">
        <ele>32.9</ele>
        <time>2017-12-06T09:42:11Z</time>
      </trkpt>
      <trkpt lat="44.86966" lon="-0.75678">
        <ele>32.7</ele>
        <time>2017-12-06T09:42:13Z</time>
      </trkpt>
      <trkpt lat="44.8697" lon="-0.75679">
        <ele>32.6</ele>
        <time>2017-12-06T09:42:14Z</time>
      </trkpt>
      <trkpt lat="44.86974" lon="-0.7568">
        <ele>32.5</ele>
        <time>2017-12-06T09:42:15Z</time>
      </trkpt>
      <trkpt lat="44.86978" lon="-0.75681">
        <ele>32.4</ele>
        <time>2017-12-06T09:42:16Z</time>
      </trkpt>
      <trkpt lat="44.86983" lon="-0.75681">
        <ele>32.3</ele>
        <time>2017-12-06T09:42:17Z</time>
      </trkpt>
      <trkpt lat="44.86987" lon="-0.75682">
        <ele>32.3</ele>
        <time>2017-12-06T09:42:18Z</time>
      </trkpt>
      <trkpt lat="44.86992" lon="-0.75683">
        <ele>32.3</ele>
        <time>2017-12-06T09:42:19Z</time>
      </trkpt>
      <trkpt lat="44.86996" lon="-0.75684">
        <ele>32.3</ele>
        <time>2017-12-06T09:42:20Z</time>
      </trkpt>
      <trkpt lat="44.86999" lon="-0.75685">
        <ele>32.3</ele>
        <time>2017-12-06T09:42:21Z</time>
      </trkpt>
      <trkpt lat="44.87002" lon="-0.75685">
        <ele>32.3</ele>
        <time>2017-12-06T09:42:22Z</time>
      </trkpt>
      <trkpt lat="44.87006" lon="-0.75684">
        <ele>32.2</ele>
        <time>2017-12-06T09:42:23Z</time>
      </trkpt>
      <trkpt lat="44.8701" lon="-0.75681">
        <ele>32.1</ele>
        <time>2017-12-06T09:42:24Z</time>
      </trkpt>
      <trkpt lat="44.87014" lon="-0.75678">
        <ele>31.9</ele>
        <time>2017-12-06T09:42:25Z</time>
      </trkpt>
      <trkpt lat="44.87019" lon="-0.75675">
        <ele>31.8</ele>
        <time>2017-12-06T09:42:26Z</time>
      </trkpt>
      <trkpt lat="44.87023" lon="-0.75673">
        <ele>31.6</ele>
        <time>2017-12-06T09:42:27Z</time>
      </trkpt>
      <trkpt lat="44.87027" lon="-0.7567">
        <ele>31.5</ele>
        <time>2017-12-06T09:42:28Z</time>
      </trkpt>
      <trkpt lat="44.87032" lon="-0.75667">
        <ele>31.4</ele>
        <time>2017-12-06T09:42:29Z</time>
      </trkpt>
      <trkpt lat="44.87036" lon="-0.75666">
        <ele>31.3</ele>
        <time>2017-12-06T09:42:30Z</time>
      </trkpt>
      <trkpt lat="44.8704" lon="-0.75664">
        <ele>31.3</ele>
        <time>2017-12-06T09:42:31Z</time>
      </trkpt>
      <trkpt lat="44.87043" lon="-0.75661">
        <ele>31.4</ele>
        <time>2017-12-06T09:42:32Z</time>
      </trkpt>
      <trkpt lat="44.87047" lon="-0.75656">
        <ele>31.4</ele>
        <time>2017-12-06T09:42:34Z</time>
      </trkpt>
      <trkpt lat="44.87049" lon="-0.75654">
        <ele>31.5</ele>
        <time>2017-12-06T09:42:35Z</time>
      </trkpt>
      <trkpt lat="44.87051" lon="-0.75652">
        <ele>31.6</ele>
        <time>2017-12-06T09:42:36Z</time>
      </trkpt>
      <trkpt lat="44.87054" lon="-0.75648">
        <ele>31.7</ele>
        <time>2017-12-06T09:42:37Z</time>
      </trkpt>
      <trkpt lat="44.87057" lon="-0.75645">
        <ele>31.8</ele>
        <time>2017-12-06T09:42:38Z</time>
      </trkpt>
      <trkpt lat="44.8706" lon="-0.75642">
        <ele>31.9</ele>
        <time>2017-12-06T09:42:39Z</time>
      </trkpt>
      <trkpt lat="44.87063" lon="-0.75639">
        <ele>32</ele>
        <time>2017-12-06T09:42:40Z</time>
      </trkpt>
      <trkpt lat="44.87067" lon="-0.75637">
        <ele>32.1</ele>
        <time>2017-12-06T09:42:41Z</time>
      </trkpt>
      <trkpt lat="44.8707" lon="-0.75635">
        <ele>32.2</ele>
        <time>2017-12-06T09:42:42Z</time>
      </trkpt>
      <trkpt lat="44.87074" lon="-0.75633">
        <ele>32.3</ele>
        <time>2017-12-06T09:42:43Z</time>
      </trkpt>
      <trkpt lat="44.87078" lon="-0.75631">
        <ele>32.4</ele>
        <time>2017-12-06T09:42:44Z</time>
      </trkpt>
      <trkpt lat="44.87081" lon="-0.75628">
        <ele>32.5</ele>
        <time>2017-12-06T09:42:45Z</time>
      </trkpt>
      <trkpt lat="44.87084" lon="-0.75626">
        <ele>32.5</ele>
        <time>2017-12-06T09:42:46Z</time>
      </trkpt>
      <trkpt lat="44.87087" lon="-0.75624">
        <ele>32.5</ele>
        <time>2017-12-06T09:42:47Z</time>
      </trkpt>
      <trkpt lat="44.87091" lon="-0.75621">
        <ele>32.6</ele>
        <time>2017-12-06T09:42:48Z</time>
      </trkpt>
      <trkpt lat="44.87094" lon="-0.75619">
        <ele>32.7</ele>
        <time>2017-12-06T09:42:49Z</time>
      </trkpt>
      <trkpt lat="44.87098" lon="-0.75617">
        <ele>32.7</ele>
        <time>2017-12-06T09:42:50Z</time>
      </trkpt>
      <trkpt lat="44.87101" lon="-0.75615">
        <ele>32.9</ele>
        <time>2017-12-06T09:42:51Z</time>
      </trkpt>
      <trkpt lat="44.87105" lon="-0.75614">
        <ele>33.1</ele>
        <time>2017-12-06T09:42:52Z</time>
      </trkpt>
      <trkpt lat="44.87108" lon="-0.75613">
        <ele>33.2</ele>
        <time>2017-12-06T09:42:53Z</time>
      </trkpt>
      <trkpt lat="44.87112" lon="-0.75611">
        <ele>33.4</ele>
        <time>2017-12-06T09:42:54Z</time>
      </trkpt>
      <trkpt lat="44.87115" lon="-0.7561">
        <ele>33.6</ele>
        <time>2017-12-06T09:42:55Z</time>
      </trkpt>
      <trkpt lat="44.87119" lon="-0.75608">
        <ele>33.8</ele>
        <time>2017-12-06T09:42:56Z</time>
      </trkpt>
      <trkpt lat="44.87122" lon="-0.75607">
        <ele>33.9</ele>
        <time>2017-12-06T09:42:57Z</time>
      </trkpt>
      <trkpt lat="44.87126" lon="-0.75605">
        <ele>34.1</ele>
        <time>2017-12-06T09:42:58Z</time>
      </trkpt>
      <trkpt lat="44.87128" lon="-0.75604">
        <ele>34.2</ele>
        <time>2017-12-06T09:42:59Z</time>
      </trkpt>
      <trkpt lat="44.87132" lon="-0.75602">
        <ele>34.4</ele>
        <time>2017-12-06T09:43:00Z</time>
      </trkpt>
      <trkpt lat="44.87136" lon="-0.756">
        <ele>34.6</ele>
        <time>2017-12-06T09:43:01Z</time>
      </trkpt>
      <trkpt lat="44.8714" lon="-0.75599">
        <ele>34.7</ele>
        <time>2017-12-06T09:43:02Z</time>
      </trkpt>
      <trkpt lat="44.87144" lon="-0.75597">
        <ele>34.9</ele>
        <time>2017-12-06T09:43:03Z</time>
      </trkpt>
      <trkpt lat="44.87148" lon="-0.75596">
        <ele>34.9</ele>
        <time>2017-12-06T09:43:04Z</time>
      </trkpt>
      <trkpt lat="44.87152" lon="-0.75594">
        <ele>35</ele>
        <time>2017-12-06T09:43:05Z</time>
      </trkpt>
      <trkpt lat="44.87155" lon="-0.75592">
        <ele>35</ele>
        <time>2017-12-06T09:43:06Z</time>
      </trkpt>
      <trkpt lat="44.87158" lon="-0.75589">
        <ele>35</ele>
        <time>2017-12-06T09:43:07Z</time>
      </trkpt>
      <trkpt lat="44.87162" lon="-0.75586">
        <ele>35</ele>
        <time>2017-12-06T09:43:08Z</time>
      </trkpt>
      <trkpt lat="44.87165" lon="-0.75583">
        <ele>35</ele>
        <time>2017-12-06T09:43:09Z</time>
      </trkpt>
      <trkpt lat="44.87169" lon="-0.7558">
        <ele>35</ele>
        <time>2017-12-06T09:43:10Z</time>
      </trkpt>
      <trkpt lat="44.87173" lon="-0.75577">
        <ele>34.9</ele>
        <time>2017-12-06T09:43:11Z</time>
      </trkpt>
      <trkpt lat="44.87177" lon="-0.75576">
        <ele>34.8</ele>
        <time>2017-12-06T09:43:12Z</time>
      </trkpt>
      <trkpt lat="44.87181" lon="-0.75575">
        <ele>34.7</ele>
        <time>2017-12-06T09:43:13Z</time>
      </trkpt>
      <trkpt lat="44.87184" lon="-0.75575">
        <ele>34.5</ele>
        <time>2017-12-06T09:43:14Z</time>
      </trkpt>
      <trkpt lat="44.87188" lon="-0.75573">
        <ele>34.4</ele>
        <time>2017-12-06T09:43:15Z</time>
      </trkpt>
      <trkpt lat="44.87191" lon="-0.75572">
        <ele>34.2</ele>
        <time>2017-12-06T09:43:16Z</time>
      </trkpt>
      <trkpt lat="44.87195" lon="-0.75571">
        <ele>34.1</ele>
        <time>2017-12-06T09:43:17Z</time>
      </trkpt>
      <trkpt lat="44.872" lon="-0.75569">
        <ele>33.9</ele>
        <time>2017-12-06T09:43:18Z</time>
      </trkpt>
      <trkpt lat="44.87204" lon="-0.75569">
        <ele>33.7</ele>
        <time>2017-12-06T09:43:19Z</time>
      </trkpt>
      <trkpt lat="44.87209" lon="-0.75567">
        <ele>33.4</ele>
        <time>2017-12-06T09:43:20Z</time>
      </trkpt>
      <trkpt lat="44.87214" lon="-0.75565">
        <ele>33.2</ele>
        <time>2017-12-06T09:43:21Z</time>
      </trkpt>
      <trkpt lat="44.87218" lon="-0.75563">
        <ele>33</ele>
        <time>2017-12-06T09:43:22Z</time>
      </trkpt>
      <trkpt lat="44.87223" lon="-0.75561">
        <ele>32.8</ele>
        <time>2017-12-06T09:43:23Z</time>
      </trkpt>
      <trkpt lat="44.87228" lon="-0.7556">
        <ele>32.6</ele>
        <time>2017-12-06T09:43:24Z</time>
      </trkpt>
      <trkpt lat="44.87233" lon="-0.75557">
        <ele>32.4</ele>
        <time>2017-12-06T09:43:25Z</time>
      </trkpt>
      <trkpt lat="44.87237" lon="-0.75555">
        <ele>32.3</ele>
        <time>2017-12-06T09:43:26Z</time>
      </trkpt>
      <trkpt lat="44.87241" lon="-0.75553">
        <ele>32.2</ele>
        <time>2017-12-06T09:43:27Z</time>
      </trkpt>
      <trkpt lat="44.87246" lon="-0.7555">
        <ele>32</ele>
        <time>2017-12-06T09:43:28Z</time>
      </trkpt>
      <trkpt lat="44.8725" lon="-0.75548">
        <ele>31.9</ele>
        <time>2017-12-06T09:43:29Z</time>
      </trkpt>
      <trkpt lat="44.87254" lon="-0.75545">
        <ele>31.7</ele>
        <time>2017-12-06T09:43:30Z</time>
      </trkpt>
      <trkpt lat="44.87259" lon="-0.75543">
        <ele>31.6</ele>
        <time>2017-12-06T09:43:31Z</time>
      </trkpt>
      <trkpt lat="44.87264" lon="-0.75542">
        <ele>31.4</ele>
        <time>2017-12-06T09:43:32Z</time>
      </trkpt>
      <trkpt lat="44.87268" lon="-0.75541">
        <ele>31.3</ele>
        <time>2017-12-06T09:43:33Z</time>
      </trkpt>
      <trkpt lat="44.87272" lon="-0.75538">
        <ele>31.1</ele>
        <time>2017-12-06T09:43:34Z</time>
      </trkpt>
      <trkpt lat="44.87277" lon="-0.75536">
        <ele>30.9</ele>
        <time>2017-12-06T09:43:35Z</time>
      </trkpt>
      <trkpt lat="44.87282" lon="-0.75536">
        <ele>30.6</ele>
        <time>2017-12-06T09:43:36Z</time>
      </trkpt>
      <trkpt lat="44.87286" lon="-0.75538">
        <ele>30.3</ele>
        <time>2017-12-06T09:43:37Z</time>
      </trkpt>
      <trkpt lat="44.87289" lon="-0.75539">
        <ele>30.1</ele>
        <time>2017-12-06T09:43:38Z</time>
      </trkpt>
      <trkpt lat="44.87292" lon="-0.75543">
        <ele>29.8</ele>
        <time>2017-12-06T09:43:40Z</time>
      </trkpt>
      <trkpt lat="44.87291" lon="-0.75549">
        <ele>29.5</ele>
        <time>2017-12-06T09:43:41Z</time>
      </trkpt>
      <trkpt lat="44.87292" lon="-0.75553">
        <ele>29.4</ele>
        <time>2017-12-06T09:43:42Z</time>
      </trkpt>
      <trkpt lat="44.87294" lon="-0.75557">
        <ele>29.1</ele>
        <time>2017-12-06T09:43:43Z</time>
      </trkpt>
      <trkpt lat="44.87296" lon="-0.75561">
        <ele>28.9</ele>
        <time>2017-12-06T09:43:44Z</time>
      </trkpt>
      <trkpt lat="44.87299" lon="-0.75565">
        <ele>28.5</ele>
        <time>2017-12-06T09:43:45Z</time>
      </trkpt>
      <trkpt lat="44.873" lon="-0.75571">
        <ele>28</ele>
        <time>2017-12-06T09:43:46Z</time>
      </trkpt>
      <trkpt lat="44.87302" lon="-0.75575">
        <ele>27.8</ele>
        <time>2017-12-06T09:43:47Z</time>
      </trkpt>
      <trkpt lat="44.87304" lon="-0.75579">
        <ele>27.5</ele>
        <time>2017-12-06T09:43:48Z</time>
      </trkpt>
      <trkpt lat="44.87306" lon="-0.75583">
        <ele>27.1</ele>
        <time>2017-12-06T09:43:49Z</time>
      </trkpt>
      <trkpt lat="44.87307" lon="-0.75587">
        <ele>27.1</ele>
        <time>2017-12-06T09:43:50Z</time>
      </trkpt>
      <trkpt lat="44.87311" lon="-0.75591">
        <ele>26.7</ele>
        <time>2017-12-06T09:43:51Z</time>
      </trkpt>
      <trkpt lat="44.87315" lon="-0.75593">
        <ele>26.3</ele>
        <time>2017-12-06T09:43:52Z</time>
      </trkpt>
      <trkpt lat="44.87318" lon="-0.75596">
        <ele>26.1</ele>
        <time>2017-12-06T09:43:53Z</time>
      </trkpt>
      <trkpt lat="44.87324" lon="-0.75599">
        <ele>25.8</ele>
        <time>2017-12-06T09:43:54Z</time>
      </trkpt>
      <trkpt lat="44.87327" lon="-0.75606">
        <ele>25.9</ele>
        <time>2017-12-06T09:43:55Z</time>
      </trkpt>
      <trkpt lat="44.8733" lon="-0.7561">
        <ele>25.8</ele>
        <time>2017-12-06T09:43:56Z</time>
      </trkpt>
      <trkpt lat="44.87332" lon="-0.75618">
        <ele>25.9</ele>
        <time>2017-12-06T09:43:57Z</time>
      </trkpt>
      <trkpt lat="44.87332" lon="-0.75622">
        <ele>26</ele>
        <time>2017-12-06T09:43:58Z</time>
      </trkpt>
      <trkpt lat="44.87332" lon="-0.75626">
        <ele>26</ele>
        <time>2017-12-06T09:43:59Z</time>
      </trkpt>
      <trkpt lat="44.8733" lon="-0.75629">
        <ele>26</ele>
        <time>2017-12-06T09:44:00Z</time>
      </trkpt>
      <trkpt lat="44.87327" lon="-0.75635">
        <ele>26.1</ele>
        <time>2017-12-06T09:44:02Z</time>
      </trkpt>
      <trkpt lat="44.87324" lon="-0.75638">
        <ele>26.1</ele>
        <time>2017-12-06T09:44:04Z</time>
      </trkpt>
      <trkpt lat="44.87322" lon="-0.75643">
        <ele>26.3</ele>
        <time>2017-12-06T09:44:06Z</time>
      </trkpt>
      <trkpt lat="44.87319" lon="-0.75648">
        <ele>26.3</ele>
        <time>2017-12-06T09:44:08Z</time>
      </trkpt>
      <trkpt lat="44.87318" lon="-0.75653">
        <ele>26.4</ele>
        <time>2017-12-06T09:44:09Z</time>
      </trkpt>
      <trkpt lat="44.87317" lon="-0.75658">
        <ele>26.4</ele>
        <time>2017-12-06T09:44:10Z</time>
      </trkpt>
      <trkpt lat="44.87318" lon="-0.75667">
        <ele>26.4</ele>
        <time>2017-12-06T09:44:12Z</time>
      </trkpt>
      <trkpt lat="44.87321" lon="-0.75673">
        <ele>26.4</ele>
        <time>2017-12-06T09:44:13Z</time>
      </trkpt>
      <trkpt lat="44.87322" lon="-0.75679">
        <ele>26.3</ele>
        <time>2017-12-06T09:44:14Z</time>
      </trkpt>
      <trkpt lat="44.87326" lon="-0.75682">
        <ele>26.2</ele>
        <time>2017-12-06T09:44:15Z</time>
      </trkpt>
      <trkpt lat="44.87331" lon="-0.7568">
        <ele>26.2</ele>
        <time>2017-12-06T09:44:16Z</time>
      </trkpt>
      <trkpt lat="44.87336" lon="-0.7568">
        <ele>26.2</ele>
        <time>2017-12-06T09:44:17Z</time>
      </trkpt>
      <trkpt lat="44.87341" lon="-0.7568">
        <ele>26.2</ele>
        <time>2017-12-06T09:44:18Z</time>
      </trkpt>
      <trkpt lat="44.87344" lon="-0.75684">
        <ele>26.1</ele>
        <time>2017-12-06T09:44:19Z</time>
      </trkpt>
      <trkpt lat="44.87347" lon="-0.75687">
        <ele>26.1</ele>
        <time>2017-12-06T09:44:20Z</time>
      </trkpt>
      <trkpt lat="44.87346" lon="-0.75693">
        <ele>26.1</ele>
        <time>2017-12-06T09:44:22Z</time>
      </trkpt>
      <trkpt lat="44.87346" lon="-0.75697">
        <ele>26</ele>
        <time>2017-12-06T09:44:23Z</time>
      </trkpt>
      <trkpt lat="44.87347" lon="-0.75702">
        <ele>26</ele>
        <time>2017-12-06T09:44:24Z</time>
      </trkpt>
      <trkpt lat="44.8735" lon="-0.75707">
        <ele>26</ele>
        <time>2017-12-06T09:44:25Z</time>
      </trkpt>
      <trkpt lat="44.87352" lon="-0.7571">
        <ele>26.2</ele>
        <time>2017-12-06T09:44:26Z</time>
      </trkpt>
      <trkpt lat="44.87355" lon="-0.75714">
        <ele>26.6</ele>
        <time>2017-12-06T09:44:27Z</time>
      </trkpt>
      <trkpt lat="44.87357" lon="-0.7572">
        <ele>27</ele>
        <time>2017-12-06T09:44:28Z</time>
      </trkpt>
      <trkpt lat="44.8736" lon="-0.75725">
        <ele>27.3</ele>
        <time>2017-12-06T09:44:29Z</time>
      </trkpt>
      <trkpt lat="44.8736" lon="-0.75729">
        <ele>27.5</ele>
        <time>2017-12-06T09:44:30Z</time>
      </trkpt>
      <trkpt lat="44.87359" lon="-0.75733">
        <ele>27.6</ele>
        <time>2017-12-06T09:44:31Z</time>
      </trkpt>
      <trkpt lat="44.87357" lon="-0.7574">
        <ele>27.7</ele>
        <time>2017-12-06T09:44:33Z</time>
      </trkpt>
      <trkpt lat="44.87354" lon="-0.75747">
        <ele>27.8</ele>
        <time>2017-12-06T09:44:35Z</time>
      </trkpt>
      <trkpt lat="44.87353" lon="-0.75754">
        <ele>27.9</ele>
        <time>2017-12-06T09:44:37Z</time>
      </trkpt>
      <trkpt lat="44.87353" lon="-0.75758">
        <ele>28</ele>
        <time>2017-12-06T09:44:38Z</time>
      </trkpt>
      <trkpt lat="44.87354" lon="-0.75762">
        <ele>28</ele>
        <time>2017-12-06T09:44:39Z</time>
      </trkpt>
      <trkpt lat="44.87355" lon="-0.75766">
        <ele>28.1</ele>
        <time>2017-12-06T09:44:40Z</time>
      </trkpt>
      <trkpt lat="44.87355" lon="-0.75771">
        <ele>28.2</ele>
        <time>2017-12-06T09:44:41Z</time>
      </trkpt>
      <trkpt lat="44.87355" lon="-0.75775">
        <ele>28.3</ele>
        <time>2017-12-06T09:44:42Z</time>
      </trkpt>
      <trkpt lat="44.87355" lon="-0.75779">
        <ele>28.4</ele>
        <time>2017-12-06T09:44:43Z</time>
      </trkpt>
      <trkpt lat="44.87355" lon="-0.75785">
        <ele>28.5</ele>
        <time>2017-12-06T09:44:44Z</time>
      </trkpt>
      <trkpt lat="44.87356" lon="-0.7579">
        <ele>28.6</ele>
        <time>2017-12-06T09:44:45Z</time>
      </trkpt>
      <trkpt lat="44.87356" lon="-0.75795">
        <ele>28.8</ele>
        <time>2017-12-06T09:44:46Z</time>
      </trkpt>
      <trkpt lat="44.87357" lon="-0.75803">
        <ele>28.9</ele>
        <time>2017-12-06T09:44:47Z</time>
      </trkpt>
      <trkpt lat="44.87357" lon="-0.75809">
        <ele>29.1</ele>
        <time>2017-12-06T09:44:48Z</time>
      </trkpt>
      <trkpt lat="44.87356" lon="-0.75816">
        <ele>29.2</ele>
        <time>2017-12-06T09:44:49Z</time>
      </trkpt>
      <trkpt lat="44.87356" lon="-0.75822">
        <ele>29.4</ele>
        <time>2017-12-06T09:44:50Z</time>
      </trkpt>
      <trkpt lat="44.87356" lon="-0.75829">
        <ele>29.6</ele>
        <time>2017-12-06T09:44:51Z</time>
      </trkpt>
      <trkpt lat="44.87358" lon="-0.75834">
        <ele>30</ele>
        <time>2017-12-06T09:44:52Z</time>
      </trkpt>
      <trkpt lat="44.8736" lon="-0.75839">
        <ele>30.4</ele>
        <time>2017-12-06T09:44:53Z</time>
      </trkpt>
      <trkpt lat="44.8736" lon="-0.75845">
        <ele>30.9</ele>
        <time>2017-12-06T09:44:54Z</time>
      </trkpt>
      <trkpt lat="44.8736" lon="-0.7585">
        <ele>31.3</ele>
        <time>2017-12-06T09:44:55Z</time>
      </trkpt>
      <trkpt lat="44.8736" lon="-0.75856">
        <ele>31.8</ele>
        <time>2017-12-06T09:44:56Z</time>
      </trkpt>
      <trkpt lat="44.87358" lon="-0.75862">
        <ele>32.2</ele>
        <time>2017-12-06T09:44:57Z</time>
      </trkpt>
      <trkpt lat="44.87358" lon="-0.75868">
        <ele>32.6</ele>
        <time>2017-12-06T09:44:58Z</time>
      </trkpt>
      <trkpt lat="44.87358" lon="-0.75873">
        <ele>32.9</ele>
        <time>2017-12-06T09:44:59Z</time>
      </trkpt>
      <trkpt lat="44.87358" lon="-0.75879">
        <ele>33.1</ele>
        <time>2017-12-06T09:45:00Z</time>
      </trkpt>
      <trkpt lat="44.87357" lon="-0.75884">
        <ele>33.4</ele>
        <time>2017-12-06T09:45:01Z</time>
      </trkpt>
      <trkpt lat="44.87358" lon="-0.75888">
        <ele>33.5</ele>
        <time>2017-12-06T09:45:02Z</time>
      </trkpt>
      <trkpt lat="44.8736" lon="-0.75891">
        <ele>33.7</ele>
        <time>2017-12-06T09:45:03Z</time>
      </trkpt>
      <trkpt lat="44.87362" lon="-0.75894">
        <ele>34.2</ele>
        <time>2017-12-06T09:45:04Z</time>
      </trkpt>
      <trkpt lat="44.87363" lon="-0.75898">
        <ele>34.4</ele>
        <time>2017-12-06T09:45:05Z</time>
      </trkpt>
      <trkpt lat="44.87363" lon="-0.75902">
        <ele>34.5</ele>
        <time>2017-12-06T09:45:06Z</time>
      </trkpt>
      <trkpt lat="44.87364" lon="-0.75908">
        <ele>34.6</ele>
        <time>2017-12-06T09:45:08Z</time>
      </trkpt>
      <trkpt lat="44.87365" lon="-0.75913">
        <ele>34.7</ele>
        <time>2017-12-06T09:45:10Z</time>
      </trkpt>
      <trkpt lat="44.87365" lon="-0.75918">
        <ele>34.5</ele>
        <time>2017-12-06T09:45:13Z</time>
      </trkpt>
      <trkpt lat="44.87368" lon="-0.75922">
        <ele>34.2</ele>
        <time>2017-12-06T09:45:15Z</time>
      </trkpt>
      <trkpt lat="44.8737" lon="-0.75927">
        <ele>33.9</ele>
        <time>2017-12-06T09:45:17Z</time>
      </trkpt>
      <trkpt lat="44.87371" lon="-0.75931">
        <ele>33.8</ele>
        <time>2017-12-06T09:45:19Z</time>
      </trkpt>
      <trkpt lat="44.87373" lon="-0.75937">
        <ele>33.5</ele>
        <time>2017-12-06T09:45:21Z</time>
      </trkpt>
      <trkpt lat="44.87375" lon="-0.7594">
        <ele>33.1</ele>
        <time>2017-12-06T09:45:22Z</time>
      </trkpt>
      <trkpt lat="44.87378" lon="-0.75945">
        <ele>32.5</ele>
        <time>2017-12-06T09:45:23Z</time>
      </trkpt>
      <trkpt lat="44.87381" lon="-0.75952">
        <ele>31.8</ele>
        <time>2017-12-06T09:45:24Z</time>
      </trkpt>
      <trkpt lat="44.87383" lon="-0.7596">
        <ele>31.2</ele>
        <time>2017-12-06T09:45:25Z</time>
      </trkpt>
      <trkpt lat="44.87383" lon="-0.75968">
        <ele>30.8</ele>
        <time>2017-12-06T09:45:26Z</time>
      </trkpt>
      <trkpt lat="44.87383" lon="-0.75975">
        <ele>30.5</ele>
        <time>2017-12-06T09:45:27Z</time>
      </trkpt>
      <trkpt lat="44.87381" lon="-0.75982">
        <ele>30.3</ele>
        <time>2017-12-06T09:45:28Z</time>
      </trkpt>
      <trkpt lat="44.87381" lon="-0.75988">
        <ele>30.3</ele>
        <time>2017-12-06T09:45:29Z</time>
      </trkpt>
      <trkpt lat="44.87381" lon="-0.75994">
        <ele>30.3</ele>
        <time>2017-12-06T09:45:30Z</time>
      </trkpt>
      <trkpt lat="44.87382" lon="-0.75999">
        <ele>30.2</ele>
        <time>2017-12-06T09:45:31Z</time>
      </trkpt>
      <trkpt lat="44.87384" lon="-0.76003">
        <ele>30.1</ele>
        <time>2017-12-06T09:45:32Z</time>
      </trkpt>
      <trkpt lat="44.87384" lon="-0.76009">
        <ele>29.9</ele>
        <time>2017-12-06T09:45:33Z</time>
      </trkpt>
      <trkpt lat="44.87383" lon="-0.76016">
        <ele>29.5</ele>
        <time>2017-12-06T09:45:34Z</time>
      </trkpt>
      <trkpt lat="44.87384" lon="-0.76022">
        <ele>29.1</ele>
        <time>2017-12-06T09:45:35Z</time>
      </trkpt>
      <trkpt lat="44.87387" lon="-0.76029">
        <ele>28.7</ele>
        <time>2017-12-06T09:45:36Z</time>
      </trkpt>
      <trkpt lat="44.87388" lon="-0.76036">
        <ele>28.5</ele>
        <time>2017-12-06T09:45:37Z</time>
      </trkpt>
      <trkpt lat="44.87388" lon="-0.76044">
        <ele>28.4</ele>
        <time>2017-12-06T09:45:38Z</time>
      </trkpt>
      <trkpt lat="44.87387" lon="-0.76051">
        <ele>28.6</ele>
        <time>2017-12-06T09:45:39Z</time>
      </trkpt>
      <trkpt lat="44.87387" lon="-0.76056">
        <ele>28.9</ele>
        <time>2017-12-06T09:45:40Z</time>
      </trkpt>
      <trkpt lat="44.87387" lon="-0.7606">
        <ele>29.1</ele>
        <time>2017-12-06T09:45:41Z</time>
      </trkpt>
      <trkpt lat="44.87387" lon="-0.76064">
        <ele>29.2</ele>
        <time>2017-12-06T09:45:42Z</time>
      </trkpt>
      <trkpt lat="44.87389" lon="-0.76071">
        <ele>29.4</ele>
        <time>2017-12-06T09:45:43Z</time>
      </trkpt>
      <trkpt lat="44.8739" lon="-0.76078">
        <ele>29.5</ele>
        <time>2017-12-06T09:45:44Z</time>
      </trkpt>
      <trkpt lat="44.87391" lon="-0.76085">
        <ele>29.5</ele>
        <time>2017-12-06T09:45:45Z</time>
      </trkpt>
      <trkpt lat="44.87391" lon="-0.76091">
        <ele>29.5</ele>
        <time>2017-12-06T09:45:46Z</time>
      </trkpt>
      <trkpt lat="44.87391" lon="-0.76095">
        <ele>29.5</ele>
        <time>2017-12-06T09:45:47Z</time>
      </trkpt>
      <trkpt lat="44.87393" lon="-0.76102">
        <ele>29.6</ele>
        <time>2017-12-06T09:45:49Z</time>
      </trkpt>
      <trkpt lat="44.87394" lon="-0.76105">
        <ele>29.6</ele>
        <time>2017-12-06T09:45:50Z</time>
      </trkpt>
      <trkpt lat="44.87397" lon="-0.76111">
        <ele>29.8</ele>
        <time>2017-12-06T09:45:52Z</time>
      </trkpt>
      <trkpt lat="44.87397" lon="-0.76116">
        <ele>30</ele>
        <time>2017-12-06T09:45:54Z</time>
      </trkpt>
      <trkpt lat="44.87396" lon="-0.76123">
        <ele>30.3</ele>
        <time>2017-12-06T09:45:56Z</time>
      </trkpt>
      <trkpt lat="44.87394" lon="-0.76132">
        <ele>30.6</ele>
        <time>2017-12-06T09:45:57Z</time>
      </trkpt>
      <trkpt lat="44.87392" lon="-0.76139">
        <ele>30.6</ele>
        <time>2017-12-06T09:45:58Z</time>
      </trkpt>
      <trkpt lat="44.87391" lon="-0.76148">
        <ele>30.1</ele>
        <time>2017-12-06T09:45:59Z</time>
      </trkpt>
      <trkpt lat="44.87389" lon="-0.76158">
        <ele>29.2</ele>
        <time>2017-12-06T09:46:00Z</time>
      </trkpt>
      <trkpt lat="44.87385" lon="-0.76163">
        <ele>29.1</ele>
        <time>2017-12-06T09:46:01Z</time>
      </trkpt>
      <trkpt lat="44.8738" lon="-0.76166">
        <ele>28.9</ele>
        <time>2017-12-06T09:46:02Z</time>
      </trkpt>
      <trkpt lat="44.87376" lon="-0.76165">
        <ele>28.9</ele>
        <time>2017-12-06T09:46:03Z</time>
      </trkpt>
      <trkpt lat="44.87372" lon="-0.76168">
        <ele>28.7</ele>
        <time>2017-12-06T09:46:04Z</time>
      </trkpt>
      <trkpt lat="44.87369" lon="-0.76172">
        <ele>28.6</ele>
        <time>2017-12-06T09:46:05Z</time>
      </trkpt>
      <trkpt lat="44.87367" lon="-0.76174">
        <ele>28.6</ele>
        <time>2017-12-06T09:46:06Z</time>
      </trkpt>
      <trkpt lat="44.87363" lon="-0.76178">
        <ele>28.5</ele>
        <time>2017-12-06T09:46:08Z</time>
      </trkpt>
      <trkpt lat="44.87358" lon="-0.76177">
        <ele>28.4</ele>
        <time>2017-12-06T09:46:10Z</time>
      </trkpt>
      <trkpt lat="44.87353" lon="-0.76177">
        <ele>28.3</ele>
        <time>2017-12-06T09:46:12Z</time>
      </trkpt>
      <trkpt lat="44.8735" lon="-0.76178">
        <ele>28.2</ele>
        <time>2017-12-06T09:46:13Z</time>
      </trkpt>
      <trkpt lat="44.87346" lon="-0.76179">
        <ele>28.1</ele>
        <time>2017-12-06T09:46:14Z</time>
      </trkpt>
      <trkpt lat="44.87341" lon="-0.7618">
        <ele>28</ele>
        <time>2017-12-06T09:46:16Z</time>
      </trkpt>
      <trkpt lat="44.87337" lon="-0.76182">
        <ele>28</ele>
        <time>2017-12-06T09:46:17Z</time>
      </trkpt>
      <trkpt lat="44.87333" lon="-0.76185">
        <ele>27.9</ele>
        <time>2017-12-06T09:46:18Z</time>
      </trkpt>
      <trkpt lat="44.8733" lon="-0.76187">
        <ele>27.9</ele>
        <time>2017-12-06T09:46:19Z</time>
      </trkpt>
      <trkpt lat="44.87327" lon="-0.76191">
        <ele>27.9</ele>
        <time>2017-12-06T09:46:20Z</time>
      </trkpt>
      <trkpt lat="44.87323" lon="-0.76194">
        <ele>27.9</ele>
        <time>2017-12-06T09:46:21Z</time>
      </trkpt>
      <trkpt lat="44.87321" lon="-0.76198">
        <ele>27.9</ele>
        <time>2017-12-06T09:46:22Z</time>
      </trkpt>
      <trkpt lat="44.87317" lon="-0.76202">
        <ele>28</ele>
        <time>2017-12-06T09:46:24Z</time>
      </trkpt>
      <trkpt lat="44.87315" lon="-0.76207">
        <ele>28</ele>
        <time>2017-12-06T09:46:25Z</time>
      </trkpt>
      <trkpt lat="44.87314" lon="-0.76211">
        <ele>28.1</ele>
        <time>2017-12-06T09:46:26Z</time>
      </trkpt>
      <trkpt lat="44.87313" lon="-0.76217">
        <ele>28.2</ele>
        <time>2017-12-06T09:46:28Z</time>
      </trkpt>
      <trkpt lat="44.87311" lon="-0.76221">
        <ele>28.3</ele>
        <time>2017-12-06T09:46:29Z</time>
      </trkpt>
      <trkpt lat="44.87308" lon="-0.76224">
        <ele>28.6</ele>
        <time>2017-12-06T09:46:31Z</time>
      </trkpt>
      <trkpt lat="44.87305" lon="-0.76227">
        <ele>28.8</ele>
        <time>2017-12-06T09:46:33Z</time>
      </trkpt>
      <trkpt lat="44.87305" lon="-0.76232">
        <ele>28.9</ele>
        <time>2017-12-06T09:46:35Z</time>
      </trkpt>
      <trkpt lat="44.87304" lon="-0.76237">
        <ele>28.9</ele>
        <time>2017-12-06T09:46:37Z</time>
      </trkpt>
      <trkpt lat="44.87304" lon="-0.76243">
        <ele>29</ele>
        <time>2017-12-06T09:46:39Z</time>
      </trkpt>
      <trkpt lat="44.87304" lon="-0.76247">
        <ele>29</ele>
        <time>2017-12-06T09:46:40Z</time>
      </trkpt>
      <trkpt lat="44.87303" lon="-0.76252">
        <ele>29.2</ele>
        <time>2017-12-06T09:46:43Z</time>
      </trkpt>
      <trkpt lat="44.87303" lon="-0.7626">
        <ele>29.2</ele>
        <time>2017-12-06T09:46:45Z</time>
      </trkpt>
      <trkpt lat="44.87301" lon="-0.76264">
        <ele>29.6</ele>
        <time>2017-12-06T09:46:48Z</time>
      </trkpt>
      <trkpt lat="44.873" lon="-0.7626">
        <ele>29.5</ele>
        <time>2017-12-06T09:46:55Z</time>
      </trkpt>
      <trkpt lat="44.87297" lon="-0.76258">
        <ele>29.9</ele>
        <time>2017-12-06T09:46:57Z</time>
      </trkpt>
      <trkpt lat="44.87294" lon="-0.76257">
        <ele>30.2</ele>
        <time>2017-12-06T09:46:59Z</time>
      </trkpt>
      <trkpt lat="44.8729" lon="-0.76255">
        <ele>30.7</ele>
        <time>2017-12-06T09:47:01Z</time>
      </trkpt>
      <trkpt lat="44.87287" lon="-0.7625">
        <ele>30.5</ele>
        <time>2017-12-06T09:47:04Z</time>
      </trkpt>
      <trkpt lat="44.87287" lon="-0.76244">
        <ele>30.7</ele>
        <time>2017-12-06T09:47:06Z</time>
      </trkpt>
      <trkpt lat="44.87285" lon="-0.76237">
        <ele>30.5</ele>
        <time>2017-12-06T09:47:08Z</time>
      </trkpt>
      <trkpt lat="44.87284" lon="-0.76234">
        <ele>30.6</ele>
        <time>2017-12-06T09:47:09Z</time>
      </trkpt>
      <trkpt lat="44.87281" lon="-0.76231">
        <ele>30.8</ele>
        <time>2017-12-06T09:47:10Z</time>
      </trkpt>
      <trkpt lat="44.87278" lon="-0.76229">
        <ele>30.9</ele>
        <time>2017-12-06T09:47:11Z</time>
      </trkpt>
      <trkpt lat="44.87275" lon="-0.76226">
        <ele>30.8</ele>
        <time>2017-12-06T09:47:12Z</time>
      </trkpt>
      <trkpt lat="44.87272" lon="-0.76222">
        <ele>31.1</ele>
        <time>2017-12-06T09:47:13Z</time>
      </trkpt>
      <trkpt lat="44.87269" lon="-0.76219">
        <ele>31.2</ele>
        <time>2017-12-06T09:47:14Z</time>
      </trkpt>
      <trkpt lat="44.87265" lon="-0.76217">
        <ele>31.2</ele>
        <time>2017-12-06T09:47:15Z</time>
      </trkpt>
      <trkpt lat="44.87261" lon="-0.76214">
        <ele>31.3</ele>
        <time>2017-12-06T09:47:16Z</time>
      </trkpt>
      <trkpt lat="44.87256" lon="-0.76212">
        <ele>31.4</ele>
        <time>2017-12-06T09:47:17Z</time>
      </trkpt>
      <trkpt lat="44.87251" lon="-0.76211">
        <ele>31.6</ele>
        <time>2017-12-06T09:47:18Z</time>
      </trkpt>
      <trkpt lat="44.87245" lon="-0.76212">
        <ele>31.7</ele>
        <time>2017-12-06T09:47:19Z</time>
      </trkpt>
      <trkpt lat="44.8724" lon="-0.76215">
        <ele>31.9</ele>
        <time>2017-12-06T09:47:20Z</time>
      </trkpt>
      <trkpt lat="44.87236" lon="-0.76221">
        <ele>32</ele>
        <time>2017-12-06T09:47:21Z</time>
      </trkpt>
      <trkpt lat="44.87234" lon="-0.76224">
        <ele>32.2</ele>
        <time>2017-12-06T09:47:22Z</time>
      </trkpt>
      <trkpt lat="44.87232" lon="-0.76229">
        <ele>32.3</ele>
        <time>2017-12-06T09:47:23Z</time>
      </trkpt>
      <trkpt lat="44.87229" lon="-0.76235">
        <ele>32.4</ele>
        <time>2017-12-06T09:47:25Z</time>
      </trkpt>
      <trkpt lat="44.87226" lon="-0.76239">
        <ele>32.6</ele>
        <time>2017-12-06T09:47:26Z</time>
      </trkpt>
      <trkpt lat="44.87222" lon="-0.76241">
        <ele>32.7</ele>
        <time>2017-12-06T09:47:27Z</time>
      </trkpt>
      <trkpt lat="44.87219" lon="-0.76243">
        <ele>32.8</ele>
        <time>2017-12-06T09:47:28Z</time>
      </trkpt>
      <trkpt lat="44.87219" lon="-0.76247">
        <ele>32.8</ele>
        <time>2017-12-06T09:47:29Z</time>
      </trkpt>
      <trkpt lat="44.87217" lon="-0.76251">
        <ele>33</ele>
        <time>2017-12-06T09:47:30Z</time>
      </trkpt>
      <trkpt lat="44.87217" lon="-0.76257">
        <ele>33.1</ele>
        <time>2017-12-06T09:47:32Z</time>
      </trkpt>
      <trkpt lat="44.87219" lon="-0.76261">
        <ele>33.2</ele>
        <time>2017-12-06T09:47:33Z</time>
      </trkpt>
      <trkpt lat="44.87219" lon="-0.76265">
        <ele>33.2</ele>
        <time>2017-12-06T09:47:34Z</time>
      </trkpt>
      <trkpt lat="44.87219" lon="-0.76269">
        <ele>33.3</ele>
        <time>2017-12-06T09:47:35Z</time>
      </trkpt>
      <trkpt lat="44.87219" lon="-0.76275">
        <ele>33.3</ele>
        <time>2017-12-06T09:47:36Z</time>
      </trkpt>
      <trkpt lat="44.87221" lon="-0.76278">
        <ele>33.4</ele>
        <time>2017-12-06T09:47:37Z</time>
      </trkpt>
      <trkpt lat="44.87226" lon="-0.76283">
        <ele>33.4</ele>
        <time>2017-12-06T09:47:39Z</time>
      </trkpt>
      <trkpt lat="44.87228" lon="-0.76286">
        <ele>33.3</ele>
        <time>2017-12-06T09:47:40Z</time>
      </trkpt>
      <trkpt lat="44.87231" lon="-0.7629">
        <ele>33.4</ele>
        <time>2017-12-06T09:47:42Z</time>
      </trkpt>
      <trkpt lat="44.87231" lon="-0.76298">
        <ele>33.4</ele>
        <time>2017-12-06T09:47:44Z</time>
      </trkpt>
      <trkpt lat="44.8723" lon="-0.76303">
        <ele>33.5</ele>
        <time>2017-12-06T09:47:45Z</time>
      </trkpt>
      <trkpt lat="44.87229" lon="-0.76307">
        <ele>33.5</ele>
        <time>2017-12-06T09:47:46Z</time>
      </trkpt>
      <trkpt lat="44.87228" lon="-0.76312">
        <ele>33.5</ele>
        <time>2017-12-06T09:47:47Z</time>
      </trkpt>
      <trkpt lat="44.87227" lon="-0.76316">
        <ele>33.5</ele>
        <time>2017-12-06T09:47:50Z</time>
      </trkpt>
      <trkpt lat="44.87228" lon="-0.76322">
        <ele>33.5</ele>
        <time>2017-12-06T09:47:52Z</time>
      </trkpt>
      <trkpt lat="44.87229" lon="-0.76325">
        <ele>33.5</ele>
        <time>2017-12-06T09:47:53Z</time>
      </trkpt>
      <trkpt lat="44.87232" lon="-0.76328">
        <ele>33.4</ele>
        <time>2017-12-06T09:47:56Z</time>
      </trkpt>
      <trkpt lat="44.87235" lon="-0.76329">
        <ele>33.4</ele>
        <time>2017-12-06T09:47:59Z</time>
      </trkpt>
      <trkpt lat="44.87238" lon="-0.76326">
        <ele>33.4</ele>
        <time>2017-12-06T09:48:01Z</time>
      </trkpt>
      <trkpt lat="44.87239" lon="-0.76323">
        <ele>33.4</ele>
        <time>2017-12-06T09:48:02Z</time>
      </trkpt>
      <trkpt lat="44.87241" lon="-0.76318">
        <ele>33.4</ele>
        <time>2017-12-06T09:48:04Z</time>
      </trkpt>
      <trkpt lat="44.87245" lon="-0.76312">
        <ele>33.4</ele>
        <time>2017-12-06T09:48:06Z</time>
      </trkpt>
      <trkpt lat="44.87248" lon="-0.76308">
        <ele>33.4</ele>
        <time>2017-12-06T09:48:07Z</time>
      </trkpt>
      <trkpt lat="44.8725" lon="-0.76304">
        <ele>33.3</ele>
        <time>2017-12-06T09:48:08Z</time>
      </trkpt>
      <trkpt lat="44.87255" lon="-0.763">
        <ele>33.1</ele>
        <time>2017-12-06T09:48:09Z</time>
      </trkpt>
      <trkpt lat="44.87258" lon="-0.763">
        <ele>33</ele>
        <time>2017-12-06T09:48:10Z</time>
      </trkpt>
      <trkpt lat="44.87262" lon="-0.76297">
        <ele>32.8</ele>
        <time>2017-12-06T09:48:11Z</time>
      </trkpt>
      <trkpt lat="44.87264" lon="-0.76294">
        <ele>32.6</ele>
        <time>2017-12-06T09:48:12Z</time>
      </trkpt>
      <trkpt lat="44.87266" lon="-0.76289">
        <ele>32.6</ele>
        <time>2017-12-06T09:48:13Z</time>
      </trkpt>
      <trkpt lat="44.87267" lon="-0.76285">
        <ele>32.4</ele>
        <time>2017-12-06T09:48:14Z</time>
      </trkpt>
      <trkpt lat="44.87269" lon="-0.76282">
        <ele>32.4</ele>
        <time>2017-12-06T09:48:15Z</time>
      </trkpt>
      <trkpt lat="44.87272" lon="-0.7628">
        <ele>32</ele>
        <time>2017-12-06T09:48:18Z</time>
      </trkpt>
      <trkpt lat="44.87275" lon="-0.76282">
        <ele>32</ele>
        <time>2017-12-06T09:48:20Z</time>
      </trkpt>
      <trkpt lat="44.87275" lon="-0.76286">
        <ele>31.9</ele>
        <time>2017-12-06T09:48:22Z</time>
      </trkpt>
      <trkpt lat="44.87275" lon="-0.76292">
        <ele>32.1</ele>
        <time>2017-12-06T09:48:24Z</time>
      </trkpt>
      <trkpt lat="44.87276" lon="-0.76298">
        <ele>32</ele>
        <time>2017-12-06T09:48:26Z</time>
      </trkpt>
      <trkpt lat="44.87279" lon="-0.76302">
        <ele>31.8</ele>
        <time>2017-12-06T09:48:27Z</time>
      </trkpt>
      <trkpt lat="44.87281" lon="-0.76308">
        <ele>31.8</ele>
        <time>2017-12-06T09:48:28Z</time>
      </trkpt>
      <trkpt lat="44.87284" lon="-0.76313">
        <ele>31.6</ele>
        <time>2017-12-06T09:48:29Z</time>
      </trkpt>
      <trkpt lat="44.87286" lon="-0.76319">
        <ele>31.4</ele>
        <time>2017-12-06T09:48:30Z</time>
      </trkpt>
      <trkpt lat="44.87286" lon="-0.76326">
        <ele>31.4</ele>
        <time>2017-12-06T09:48:31Z</time>
      </trkpt>
      <trkpt lat="44.87285" lon="-0.76333">
        <ele>31.4</ele>
        <time>2017-12-06T09:48:32Z</time>
      </trkpt>
      <trkpt lat="44.87283" lon="-0.76339">
        <ele>31.7</ele>
        <time>2017-12-06T09:48:33Z</time>
      </trkpt>
      <trkpt lat="44.87281" lon="-0.76346">
        <ele>31.9</ele>
        <time>2017-12-06T09:48:34Z</time>
      </trkpt>
      <trkpt lat="44.87279" lon="-0.7635">
        <ele>31.8</ele>
        <time>2017-12-06T09:48:35Z</time>
      </trkpt>
      <trkpt lat="44.87275" lon="-0.76348">
        <ele>32</ele>
        <time>2017-12-06T09:48:36Z</time>
      </trkpt>
      <trkpt lat="44.87277" lon="-0.76343">
        <ele>32.1</ele>
        <time>2017-12-06T09:48:39Z</time>
      </trkpt>
      <trkpt lat="44.87276" lon="-0.76339">
        <ele>32.1</ele>
        <time>2017-12-06T09:48:42Z</time>
      </trkpt>
      <trkpt lat="44.87271" lon="-0.7634">
        <ele>32.4</ele>
        <time>2017-12-06T09:48:44Z</time>
      </trkpt>
      <trkpt lat="44.87267" lon="-0.76341">
        <ele>32.6</ele>
        <time>2017-12-06T09:48:46Z</time>
      </trkpt>
      <trkpt lat="44.87262" lon="-0.7634">
        <ele>32.8</ele>
        <time>2017-12-06T09:48:48Z</time>
      </trkpt>
      <trkpt lat="44.87256" lon="-0.76343">
        <ele>32.9</ele>
        <time>2017-12-06T09:48:50Z</time>
      </trkpt>
      <trkpt lat="44.87254" lon="-0.76345">
        <ele>32.9</ele>
        <time>2017-12-06T09:48:51Z</time>
      </trkpt>
      <trkpt lat="44.87251" lon="-0.76349">
        <ele>32.9</ele>
        <time>2017-12-06T09:48:52Z</time>
      </trkpt>
      <trkpt lat="44.87251" lon="-0.76355">
        <ele>32.9</ele>
        <time>2017-12-06T09:48:54Z</time>
      </trkpt>
      <trkpt lat="44.87251" lon="-0.76362">
        <ele>32.7</ele>
        <time>2017-12-06T09:48:56Z</time>
      </trkpt>
      <trkpt lat="44.87255" lon="-0.76369">
        <ele>32.5</ele>
        <time>2017-12-06T09:48:58Z</time>
      </trkpt>
      <trkpt lat="44.87257" lon="-0.76375">
        <ele>32.3</ele>
        <time>2017-12-06T09:48:59Z</time>
      </trkpt>
      <trkpt lat="44.8726" lon="-0.76381">
        <ele>32.2</ele>
        <time>2017-12-06T09:49:00Z</time>
      </trkpt>
      <trkpt lat="44.87263" lon="-0.76385">
        <ele>32.1</ele>
        <time>2017-12-06T09:49:01Z</time>
      </trkpt>
      <trkpt lat="44.87265" lon="-0.76388">
        <ele>31.9</ele>
        <time>2017-12-06T09:49:02Z</time>
      </trkpt>
      <trkpt lat="44.87267" lon="-0.76391">
        <ele>31.7</ele>
        <time>2017-12-06T09:49:03Z</time>
      </trkpt>
      <trkpt lat="44.87268" lon="-0.76395">
        <ele>31.6</ele>
        <time>2017-12-06T09:49:04Z</time>
      </trkpt>
      <trkpt lat="44.87269" lon="-0.76399">
        <ele>31.5</ele>
        <time>2017-12-06T09:49:05Z</time>
      </trkpt>
      <trkpt lat="44.87271" lon="-0.76406">
        <ele>31.4</ele>
        <time>2017-12-06T09:49:07Z</time>
      </trkpt>
      <trkpt lat="44.87273" lon="-0.76409">
        <ele>31.2</ele>
        <time>2017-12-06T09:49:08Z</time>
      </trkpt>
      <trkpt lat="44.87274" lon="-0.76415">
        <ele>31.1</ele>
        <time>2017-12-06T09:49:10Z</time>
      </trkpt>
      <trkpt lat="44.87272" lon="-0.76418">
        <ele>31.1</ele>
        <time>2017-12-06T09:49:13Z</time>
      </trkpt>
      <trkpt lat="44.87272" lon="-0.76425">
        <ele>31</ele>
        <time>2017-12-06T09:49:15Z</time>
      </trkpt>
      <trkpt lat="44.87274" lon="-0.7643">
        <ele>30.9</ele>
        <time>2017-12-06T09:49:17Z</time>
      </trkpt>
      <trkpt lat="44.87278" lon="-0.76436">
        <ele>30.6</ele>
        <time>2017-12-06T09:49:19Z</time>
      </trkpt>
      <trkpt lat="44.8728" lon="-0.7644">
        <ele>30.6</ele>
        <time>2017-12-06T09:49:20Z</time>
      </trkpt>
      <trkpt lat="44.87282" lon="-0.76443">
        <ele>30.5</ele>
        <time>2017-12-06T09:49:21Z</time>
      </trkpt>
      <trkpt lat="44.87286" lon="-0.76447">
        <ele>30.4</ele>
        <time>2017-12-06T09:49:22Z</time>
      </trkpt>
      <trkpt lat="44.8729" lon="-0.76451">
        <ele>30.3</ele>
        <time>2017-12-06T09:49:23Z</time>
      </trkpt>
      <trkpt lat="44.87292" lon="-0.76457">
        <ele>30.2</ele>
        <time>2017-12-06T09:49:24Z</time>
      </trkpt>
      <trkpt lat="44.87297" lon="-0.7646">
        <ele>30.1</ele>
        <time>2017-12-06T09:49:25Z</time>
      </trkpt>
      <trkpt lat="44.87301" lon="-0.76461">
        <ele>30</ele>
        <time>2017-12-06T09:49:26Z</time>
      </trkpt>
      <trkpt lat="44.87305" lon="-0.76463">
        <ele>30</ele>
        <time>2017-12-06T09:49:27Z</time>
      </trkpt>
      <trkpt lat="44.87305" lon="-0.76467">
        <ele>30</ele>
        <time>2017-12-06T09:49:30Z</time>
      </trkpt>
      <trkpt lat="44.87303" lon="-0.76471">
        <ele>30</ele>
        <time>2017-12-06T09:49:32Z</time>
      </trkpt>
      <trkpt lat="44.87303" lon="-0.76474">
        <ele>30.1</ele>
        <time>2017-12-06T09:49:34Z</time>
      </trkpt>
      <trkpt lat="44.87305" lon="-0.76477">
        <ele>30.1</ele>
        <time>2017-12-06T09:49:36Z</time>
      </trkpt>
      <trkpt lat="44.8731" lon="-0.76476">
        <ele>30</ele>
        <time>2017-12-06T09:49:38Z</time>
      </trkpt>
      <trkpt lat="44.87313" lon="-0.76476">
        <ele>30</ele>
        <time>2017-12-06T09:49:39Z</time>
      </trkpt>
      <trkpt lat="44.87317" lon="-0.76478">
        <ele>29.9</ele>
        <time>2017-12-06T09:49:41Z</time>
      </trkpt>
      <trkpt lat="44.87318" lon="-0.76483">
        <ele>30</ele>
        <time>2017-12-06T09:49:42Z</time>
      </trkpt>
      <trkpt lat="44.87319" lon="-0.76487">
        <ele>30</ele>
        <time>2017-12-06T09:49:43Z</time>
      </trkpt>
      <trkpt lat="44.87318" lon="-0.76493">
        <ele>30.1</ele>
        <time>2017-12-06T09:49:46Z</time>
      </trkpt>
      <trkpt lat="44.87315" lon="-0.76496">
        <ele>30.1</ele>
        <time>2017-12-06T09:49:47Z</time>
      </trkpt>
      <trkpt lat="44.87314" lon="-0.76501">
        <ele>30.2</ele>
        <time>2017-12-06T09:49:48Z</time>
      </trkpt>
      <trkpt lat="44.87314" lon="-0.76506">
        <ele>30.3</ele>
        <time>2017-12-06T09:49:49Z</time>
      </trkpt>
      <trkpt lat="44.87314" lon="-0.7651">
        <ele>30.3</ele>
        <time>2017-12-06T09:49:51Z</time>
      </trkpt>
      <trkpt lat="44.87315" lon="-0.76514">
        <ele>30.3</ele>
        <time>2017-12-06T09:49:53Z</time>
      </trkpt>
      <trkpt lat="44.87315" lon="-0.76519">
        <ele>30.4</ele>
        <time>2017-12-06T09:49:54Z</time>
      </trkpt>
      <trkpt lat="44.87315" lon="-0.76525">
        <ele>30.4</ele>
        <time>2017-12-06T09:49:56Z</time>
      </trkpt>
      <trkpt lat="44.87316" lon="-0.76534">
        <ele>30.5</ele>
        <time>2017-12-06T09:49:58Z</time>
      </trkpt>
      <trkpt lat="44.87318" lon="-0.76539">
        <ele>30.5</ele>
        <time>2017-12-06T09:49:59Z</time>
      </trkpt>
      <trkpt lat="44.87319" lon="-0.76542">
        <ele>30.6</ele>
        <time>2017-12-06T09:50:00Z</time>
      </trkpt>
      <trkpt lat="44.87321" lon="-0.76546">
        <ele>30.6</ele>
        <time>2017-12-06T09:50:01Z</time>
      </trkpt>
      <trkpt lat="44.87324" lon="-0.7655">
        <ele>30.6</ele>
        <time>2017-12-06T09:50:02Z</time>
      </trkpt>
      <trkpt lat="44.87326" lon="-0.76554">
        <ele>30.6</ele>
        <time>2017-12-06T09:50:03Z</time>
      </trkpt>
      <trkpt lat="44.87323" lon="-0.76556">
        <ele>30.6</ele>
        <time>2017-12-06T09:50:04Z</time>
      </trkpt>
      <trkpt lat="44.87324" lon="-0.76562">
        <ele>30.7</ele>
        <time>2017-12-06T09:50:06Z</time>
      </trkpt>
      <trkpt lat="44.87325" lon="-0.76566">
        <ele>30.7</ele>
        <time>2017-12-06T09:50:07Z</time>
      </trkpt>
      <trkpt lat="44.87325" lon="-0.76571">
        <ele>30.7</ele>
        <time>2017-12-06T09:50:08Z</time>
      </trkpt>
      <trkpt lat="44.87326" lon="-0.76578">
        <ele>30.7</ele>
        <time>2017-12-06T09:50:09Z</time>
      </trkpt>
      <trkpt lat="44.87325" lon="-0.76582">
        <ele>30.7</ele>
        <time>2017-12-06T09:50:10Z</time>
      </trkpt>
      <trkpt lat="44.87321" lon="-0.76588">
        <ele>30.8</ele>
        <time>2017-12-06T09:50:12Z</time>
      </trkpt>
      <trkpt lat="44.87319" lon="-0.76591">
        <ele>30.9</ele>
        <time>2017-12-06T09:50:13Z</time>
      </trkpt>
      <trkpt lat="44.87318" lon="-0.76598">
        <ele>31</ele>
        <time>2017-12-06T09:50:14Z</time>
      </trkpt>
      <trkpt lat="44.87315" lon="-0.76601">
        <ele>31</ele>
        <time>2017-12-06T09:50:15Z</time>
      </trkpt>
      <trkpt lat="44.87311" lon="-0.76606">
        <ele>31.1</ele>
        <time>2017-12-06T09:50:17Z</time>
      </trkpt>
      <trkpt lat="44.87309" lon="-0.7661">
        <ele>31.1</ele>
        <time>2017-12-06T09:50:18Z</time>
      </trkpt>
      <trkpt lat="44.87306" lon="-0.76612">
        <ele>31.2</ele>
        <time>2017-12-06T09:50:19Z</time>
      </trkpt>
      <trkpt lat="44.87303" lon="-0.76618">
        <ele>31.3</ele>
        <time>2017-12-06T09:50:21Z</time>
      </trkpt>
      <trkpt lat="44.87301" lon="-0.76622">
        <ele>31.4</ele>
        <time>2017-12-06T09:50:22Z</time>
      </trkpt>
      <trkpt lat="44.87301" lon="-0.76626">
        <ele>31.4</ele>
        <time>2017-12-06T09:50:23Z</time>
      </trkpt>
      <trkpt lat="44.87301" lon="-0.76632">
        <ele>31.5</ele>
        <time>2017-12-06T09:50:24Z</time>
      </trkpt>
      <trkpt lat="44.87304" lon="-0.76636">
        <ele>31.4</ele>
        <time>2017-12-06T09:50:25Z</time>
      </trkpt>
      <trkpt lat="44.87307" lon="-0.76639">
        <ele>31.3</ele>
        <time>2017-12-06T09:50:26Z</time>
      </trkpt>
      <trkpt lat="44.87309" lon="-0.7664">
        <ele>31.2</ele>
        <time>2017-12-06T09:50:27Z</time>
      </trkpt>
      <trkpt lat="44.87312" lon="-0.76643">
        <ele>31.1</ele>
        <time>2017-12-06T09:50:28Z</time>
      </trkpt>
      <trkpt lat="44.87315" lon="-0.76646">
        <ele>31.1</ele>
        <time>2017-12-06T09:50:29Z</time>
      </trkpt>
      <trkpt lat="44.87318" lon="-0.76651">
        <ele>31</ele>
        <time>2017-12-06T09:50:31Z</time>
      </trkpt>
      <trkpt lat="44.87319" lon="-0.76657">
        <ele>30.9</ele>
        <time>2017-12-06T09:50:33Z</time>
      </trkpt>
      <trkpt lat="44.8732" lon="-0.76661">
        <ele>30.9</ele>
        <time>2017-12-06T09:50:34Z</time>
      </trkpt>
      <trkpt lat="44.87322" lon="-0.76665">
        <ele>30.8</ele>
        <time>2017-12-06T09:50:35Z</time>
      </trkpt>
      <trkpt lat="44.87327" lon="-0.7667">
        <ele>30.6</ele>
        <time>2017-12-06T09:50:37Z</time>
      </trkpt>
      <trkpt lat="44.8733" lon="-0.76675">
        <ele>30.5</ele>
        <time>2017-12-06T09:50:38Z</time>
      </trkpt>
      <trkpt lat="44.87329" lon="-0.76681">
        <ele>30.4</ele>
        <time>2017-12-06T09:50:40Z</time>
      </trkpt>
      <trkpt lat="44.87329" lon="-0.76687">
        <ele>30.3</ele>
        <time>2017-12-06T09:50:42Z</time>
      </trkpt>
      <trkpt lat="44.8733" lon="-0.76691">
        <ele>30.2</ele>
        <time>2017-12-06T09:50:43Z</time>
      </trkpt>
      <trkpt lat="44.87331" lon="-0.76695">
        <ele>30.1</ele>
        <time>2017-12-06T09:50:44Z</time>
      </trkpt>
      <trkpt lat="44.87333" lon="-0.76699">
        <ele>30</ele>
        <time>2017-12-06T09:50:45Z</time>
      </trkpt>
      <trkpt lat="44.87335" lon="-0.76703">
        <ele>29.9</ele>
        <time>2017-12-06T09:50:46Z</time>
      </trkpt>
      <trkpt lat="44.87335" lon="-0.76708">
        <ele>29.9</ele>
        <time>2017-12-06T09:50:47Z</time>
      </trkpt>
      <trkpt lat="44.87338" lon="-0.76717">
        <ele>29.7</ele>
        <time>2017-12-06T09:50:49Z</time>
      </trkpt>
      <trkpt lat="44.8734" lon="-0.76723">
        <ele>29.6</ele>
        <time>2017-12-06T09:50:50Z</time>
      </trkpt>
      <trkpt lat="44.87343" lon="-0.76726">
        <ele>29.6</ele>
        <time>2017-12-06T09:50:51Z</time>
      </trkpt>
      <trkpt lat="44.87346" lon="-0.76729">
        <ele>29.5</ele>
        <time>2017-12-06T09:50:52Z</time>
      </trkpt>
      <trkpt lat="44.87349" lon="-0.76732">
        <ele>29.5</ele>
        <time>2017-12-06T09:50:53Z</time>
      </trkpt>
      <trkpt lat="44.8735" lon="-0.76736">
        <ele>29.4</ele>
        <time>2017-12-06T09:50:54Z</time>
      </trkpt>
      <trkpt lat="44.87351" lon="-0.7674">
        <ele>29.4</ele>
        <time>2017-12-06T09:50:55Z</time>
      </trkpt>
      <trkpt lat="44.8735" lon="-0.76744">
        <ele>29.4</ele>
        <time>2017-12-06T09:50:56Z</time>
      </trkpt>
      <trkpt lat="44.87349" lon="-0.76751">
        <ele>29.4</ele>
        <time>2017-12-06T09:50:58Z</time>
      </trkpt>
      <trkpt lat="44.87351" lon="-0.76756">
        <ele>29.4</ele>
        <time>2017-12-06T09:50:59Z</time>
      </trkpt>
      <trkpt lat="44.87351" lon="-0.76761">
        <ele>29.4</ele>
        <time>2017-12-06T09:51:00Z</time>
      </trkpt>
      <trkpt lat="44.87351" lon="-0.76765">
        <ele>29.4</ele>
        <time>2017-12-06T09:51:01Z</time>
      </trkpt>
      <trkpt lat="44.87352" lon="-0.76769">
        <ele>29.4</ele>
        <time>2017-12-06T09:51:02Z</time>
      </trkpt>
      <trkpt lat="44.87354" lon="-0.76773">
        <ele>29.3</ele>
        <time>2017-12-06T09:51:03Z</time>
      </trkpt>
      <trkpt lat="44.87356" lon="-0.76778">
        <ele>29.3</ele>
        <time>2017-12-06T09:51:04Z</time>
      </trkpt>
      <trkpt lat="44.87359" lon="-0.76782">
        <ele>29.3</ele>
        <time>2017-12-06T09:51:05Z</time>
      </trkpt>
      <trkpt lat="44.87361" lon="-0.76786">
        <ele>29.3</ele>
        <time>2017-12-06T09:51:06Z</time>
      </trkpt>
      <trkpt lat="44.87364" lon="-0.7679">
        <ele>29.3</ele>
        <time>2017-12-06T09:51:07Z</time>
      </trkpt>
      <trkpt lat="44.87368" lon="-0.76795">
        <ele>29.4</ele>
        <time>2017-12-06T09:51:08Z</time>
      </trkpt>
      <trkpt lat="44.8737" lon="-0.76799">
        <ele>29.4</ele>
        <time>2017-12-06T09:51:09Z</time>
      </trkpt>
      <trkpt lat="44.87373" lon="-0.76802">
        <ele>29.5</ele>
        <time>2017-12-06T09:51:10Z</time>
      </trkpt>
      <trkpt lat="44.87376" lon="-0.76807">
        <ele>29.5</ele>
        <time>2017-12-06T09:51:11Z</time>
      </trkpt>
      <trkpt lat="44.87379" lon="-0.76811">
        <ele>29.6</ele>
        <time>2017-12-06T09:51:12Z</time>
      </trkpt>
      <trkpt lat="44.87382" lon="-0.76814">
        <ele>29.7</ele>
        <time>2017-12-06T09:51:13Z</time>
      </trkpt>
      <trkpt lat="44.87385" lon="-0.76816">
        <ele>29.8</ele>
        <time>2017-12-06T09:51:14Z</time>
      </trkpt>
      <trkpt lat="44.87388" lon="-0.76816">
        <ele>29.9</ele>
        <time>2017-12-06T09:51:15Z</time>
      </trkpt>
      <trkpt lat="44.87391" lon="-0.76814">
        <ele>30</ele>
        <time>2017-12-06T09:51:16Z</time>
      </trkpt>
      <trkpt lat="44.87394" lon="-0.76813">
        <ele>30</ele>
        <time>2017-12-06T09:51:17Z</time>
      </trkpt>
      <trkpt lat="44.87397" lon="-0.76811">
        <ele>29.9</ele>
        <time>2017-12-06T09:51:18Z</time>
      </trkpt>
      <trkpt lat="44.87401" lon="-0.76809">
        <ele>29.8</ele>
        <time>2017-12-06T09:51:19Z</time>
      </trkpt>
      <trkpt lat="44.87403" lon="-0.76807">
        <ele>29.8</ele>
        <time>2017-12-06T09:51:20Z</time>
      </trkpt>
      <trkpt lat="44.87407" lon="-0.76804">
        <ele>29.7</ele>
        <time>2017-12-06T09:51:21Z</time>
      </trkpt>
      <trkpt lat="44.87409" lon="-0.76801">
        <ele>29.7</ele>
        <time>2017-12-06T09:51:22Z</time>
      </trkpt>
      <trkpt lat="44.87412" lon="-0.76798">
        <ele>29.6</ele>
        <time>2017-12-06T09:51:23Z</time>
      </trkpt>
      <trkpt lat="44.87415" lon="-0.76794">
        <ele>29.6</ele>
        <time>2017-12-06T09:51:24Z</time>
      </trkpt>
      <trkpt lat="44.87418" lon="-0.76791">
        <ele>29.5</ele>
        <time>2017-12-06T09:51:25Z</time>
      </trkpt>
      <trkpt lat="44.87421" lon="-0.76786">
        <ele>29.5</ele>
        <time>2017-12-06T09:51:26Z</time>
      </trkpt>
      <trkpt lat="44.87424" lon="-0.76781">
        <ele>29.4</ele>
        <time>2017-12-06T09:51:27Z</time>
      </trkpt>
      <trkpt lat="44.87428" lon="-0.76777">
        <ele>29.4</ele>
        <time>2017-12-06T09:51:28Z</time>
      </trkpt>
      <trkpt lat="44.87432" lon="-0.76772">
        <ele>29.3</ele>
        <time>2017-12-06T09:51:29Z</time>
      </trkpt>
      <trkpt lat="44.87436" lon="-0.76767">
        <ele>29.3</ele>
        <time>2017-12-06T09:51:30Z</time>
      </trkpt>
      <trkpt lat="44.8744" lon="-0.76763">
        <ele>29.3</ele>
        <time>2017-12-06T09:51:31Z</time>
      </trkpt>
      <trkpt lat="44.87445" lon="-0.76759">
        <ele>29.2</ele>
        <time>2017-12-06T09:51:32Z</time>
      </trkpt>
      <trkpt lat="44.87449" lon="-0.76754">
        <ele>29.2</ele>
        <time>2017-12-06T09:51:33Z</time>
      </trkpt>
      <trkpt lat="44.87454" lon="-0.76749">
        <ele>29.1</ele>
        <time>2017-12-06T09:51:34Z</time>
      </trkpt>
      <trkpt lat="44.87458" lon="-0.76744">
        <ele>29.1</ele>
        <time>2017-12-06T09:51:35Z</time>
      </trkpt>
      <trkpt lat="44.87462" lon="-0.7674">
        <ele>29</ele>
        <time>2017-12-06T09:51:36Z</time>
      </trkpt>
      <trkpt lat="44.87467" lon="-0.76735">
        <ele>29</ele>
        <time>2017-12-06T09:51:37Z</time>
      </trkpt>
      <trkpt lat="44.87471" lon="-0.7673">
        <ele>29</ele>
        <time>2017-12-06T09:51:38Z</time>
      </trkpt>
      <trkpt lat="44.87475" lon="-0.76726">
        <ele>28.9</ele>
        <time>2017-12-06T09:51:39Z</time>
      </trkpt>
      <trkpt lat="44.87479" lon="-0.76721">
        <ele>28.9</ele>
        <time>2017-12-06T09:51:40Z</time>
      </trkpt>
      <trkpt lat="44.87483" lon="-0.76716">
        <ele>28.8</ele>
        <time>2017-12-06T09:51:41Z</time>
      </trkpt>
      <trkpt lat="44.87487" lon="-0.76711">
        <ele>28.8</ele>
        <time>2017-12-06T09:51:42Z</time>
      </trkpt>
      <trkpt lat="44.87491" lon="-0.76707">
        <ele>28.7</ele>
        <time>2017-12-06T09:51:43Z</time>
      </trkpt>
      <trkpt lat="44.87495" lon="-0.76703">
        <ele>28.7</ele>
        <time>2017-12-06T09:51:44Z</time>
      </trkpt>
      <trkpt lat="44.87499" lon="-0.76699">
        <ele>28.7</ele>
        <time>2017-12-06T09:51:45Z</time>
      </trkpt>
      <trkpt lat="44.87502" lon="-0.76694">
        <ele>28.6</ele>
        <time>2017-12-06T09:51:46Z</time>
      </trkpt>
      <trkpt lat="44.87506" lon="-0.7669">
        <ele>28.6</ele>
        <time>2017-12-06T09:51:47Z</time>
      </trkpt>
      <trkpt lat="44.87509" lon="-0.76686">
        <ele>28.5</ele>
        <time>2017-12-06T09:51:48Z</time>
      </trkpt>
      <trkpt lat="44.87512" lon="-0.76682">
        <ele>28.4</ele>
        <time>2017-12-06T09:51:49Z</time>
      </trkpt>
      <trkpt lat="44.87516" lon="-0.76677">
        <ele>28.2</ele>
        <time>2017-12-06T09:51:50Z</time>
      </trkpt>
      <trkpt lat="44.8752" lon="-0.76672">
        <ele>27.9</ele>
        <time>2017-12-06T09:51:51Z</time>
      </trkpt>
      <trkpt lat="44.87524" lon="-0.76668">
        <ele>27.6</ele>
        <time>2017-12-06T09:51:52Z</time>
      </trkpt>
      <trkpt lat="44.87528" lon="-0.76664">
        <ele>27.2</ele>
        <time>2017-12-06T09:51:53Z</time>
      </trkpt>
      <trkpt lat="44.87532" lon="-0.7666">
        <ele>26.9</ele>
        <time>2017-12-06T09:51:54Z</time>
      </trkpt>
      <trkpt lat="44.87536" lon="-0.76657">
        <ele>26.6</ele>
        <time>2017-12-06T09:51:55Z</time>
      </trkpt>
      <trkpt lat="44.8754" lon="-0.76654">
        <ele>26.3</ele>
        <time>2017-12-06T09:51:56Z</time>
      </trkpt>
      <trkpt lat="44.87544" lon="-0.76653">
        <ele>25.9</ele>
        <time>2017-12-06T09:51:57Z</time>
      </trkpt>
      <trkpt lat="44.87548" lon="-0.76652">
        <ele>25.9</ele>
        <time>2017-12-06T09:51:58Z</time>
      </trkpt>
      <trkpt lat="44.87552" lon="-0.76651">
        <ele>25.8</ele>
        <time>2017-12-06T09:51:59Z</time>
      </trkpt>
      <trkpt lat="44.87556" lon="-0.76652">
        <ele>25.8</ele>
        <time>2017-12-06T09:52:00Z</time>
      </trkpt>
      <trkpt lat="44.8756" lon="-0.76652">
        <ele>25.7</ele>
        <time>2017-12-06T09:52:01Z</time>
      </trkpt>
      <trkpt lat="44.87564" lon="-0.76653">
        <ele>25.7</ele>
        <time>2017-12-06T09:52:02Z</time>
      </trkpt>
      <trkpt lat="44.87568" lon="-0.76653">
        <ele>25.6</ele>
        <time>2017-12-06T09:52:03Z</time>
      </trkpt>
      <trkpt lat="44.87571" lon="-0.76652">
        <ele>25.5</ele>
        <time>2017-12-06T09:52:04Z</time>
      </trkpt>
      <trkpt lat="44.87574" lon="-0.76646">
        <ele>25.4</ele>
        <time>2017-12-06T09:52:06Z</time>
      </trkpt>
      <trkpt lat="44.87575" lon="-0.76641">
        <ele>25.4</ele>
        <time>2017-12-06T09:52:07Z</time>
      </trkpt>
      <trkpt lat="44.87576" lon="-0.76636">
        <ele>25.3</ele>
        <time>2017-12-06T09:52:08Z</time>
      </trkpt>
      <trkpt lat="44.87576" lon="-0.76631">
        <ele>25.7</ele>
        <time>2017-12-06T09:52:09Z</time>
      </trkpt>
      <trkpt lat="44.87577" lon="-0.76626">
        <ele>26.1</ele>
        <time>2017-12-06T09:52:10Z</time>
      </trkpt>
      <trkpt lat="44.8758" lon="-0.76623">
        <ele>26.5</ele>
        <time>2017-12-06T09:52:11Z</time>
      </trkpt>
      <trkpt lat="44.8758" lon="-0.76618">
        <ele>26.9</ele>
        <time>2017-12-06T09:52:12Z</time>
      </trkpt>
      <trkpt lat="44.8758" lon="-0.76613">
        <ele>27.2</ele>
        <time>2017-12-06T09:52:13Z</time>
      </trkpt>
      <trkpt lat="44.87579" lon="-0.76607">
        <ele>27.8</ele>
        <time>2017-12-06T09:52:14Z</time>
      </trkpt>
      <trkpt lat="44.87578" lon="-0.76603">
        <ele>28.1</ele>
        <time>2017-12-06T09:52:15Z</time>
      </trkpt>
      <trkpt lat="44.87577" lon="-0.76599">
        <ele>28.4</ele>
        <time>2017-12-06T09:52:16Z</time>
      </trkpt>
      <trkpt lat="44.87576" lon="-0.76593">
        <ele>28.7</ele>
        <time>2017-12-06T09:52:18Z</time>
      </trkpt>
      <trkpt lat="44.87573" lon="-0.76589">
        <ele>29</ele>
        <time>2017-12-06T09:52:20Z</time>
      </trkpt>
      <trkpt lat="44.87569" lon="-0.7659">
        <ele>28.7</ele>
        <time>2017-12-06T09:52:21Z</time>
      </trkpt>
      <trkpt lat="44.87566" lon="-0.76588">
        <ele>28.4</ele>
        <time>2017-12-06T09:52:22Z</time>
      </trkpt>
      <trkpt lat="44.87563" lon="-0.76588">
        <ele>28.1</ele>
        <time>2017-12-06T09:52:23Z</time>
      </trkpt>
      <trkpt lat="44.8756" lon="-0.76587">
        <ele>27.9</ele>
        <time>2017-12-06T09:52:24Z</time>
      </trkpt>
      <trkpt lat="44.87557" lon="-0.76584">
        <ele>27.6</ele>
        <time>2017-12-06T09:52:25Z</time>
      </trkpt>
      <trkpt lat="44.87554" lon="-0.76583">
        <ele>27.4</ele>
        <time>2017-12-06T09:52:26Z</time>
      </trkpt>
      <trkpt lat="44.87551" lon="-0.76582">
        <ele>27.1</ele>
        <time>2017-12-06T09:52:27Z</time>
      </trkpt>
      <trkpt lat="44.87547" lon="-0.76582">
        <ele>27</ele>
        <time>2017-12-06T09:52:28Z</time>
      </trkpt>
      <trkpt lat="44.87542" lon="-0.76582">
        <ele>26.8</ele>
        <time>2017-12-06T09:52:29Z</time>
      </trkpt>
      <trkpt lat="44.87538" lon="-0.76583">
        <ele>26.7</ele>
        <time>2017-12-06T09:52:30Z</time>
      </trkpt>
      <trkpt lat="44.87534" lon="-0.76583">
        <ele>26.6</ele>
        <time>2017-12-06T09:52:31Z</time>
      </trkpt>
      <trkpt lat="44.87531" lon="-0.76583">
        <ele>26.6</ele>
        <time>2017-12-06T09:52:32Z</time>
      </trkpt>
      <trkpt lat="44.87527" lon="-0.76577">
        <ele>27.4</ele>
        <time>2017-12-06T09:52:34Z</time>
      </trkpt>
      <trkpt lat="44.87526" lon="-0.76572">
        <ele>27.7</ele>
        <time>2017-12-06T09:52:35Z</time>
      </trkpt>
      <trkpt lat="44.87527" lon="-0.76567">
        <ele>28</ele>
        <time>2017-12-06T09:52:37Z</time>
      </trkpt>
      <trkpt lat="44.87531" lon="-0.76567">
        <ele>28</ele>
        <time>2017-12-06T09:52:39Z</time>
      </trkpt>
      <trkpt lat="44.87533" lon="-0.7656">
        <ele>28.6</ele>
        <time>2017-12-06T09:52:41Z</time>
      </trkpt>
      <trkpt lat="44.8753" lon="-0.76558">
        <ele>28.7</ele>
        <time>2017-12-06T09:52:42Z</time>
      </trkpt>
      <trkpt lat="44.87527" lon="-0.76556">
        <ele>29</ele>
        <time>2017-12-06T09:52:43Z</time>
      </trkpt>
      <trkpt lat="44.87525" lon="-0.76552">
        <ele>29.3</ele>
        <time>2017-12-06T09:52:44Z</time>
      </trkpt>
      <trkpt lat="44.87524" lon="-0.76545">
        <ele>29.5</ele>
        <time>2017-12-06T09:52:46Z</time>
      </trkpt>
      <trkpt lat="44.87519" lon="-0.76536">
        <ele>29.9</ele>
        <time>2017-12-06T09:52:48Z</time>
      </trkpt>
      <trkpt lat="44.87515" lon="-0.76531">
        <ele>30.1</ele>
        <time>2017-12-06T09:52:49Z</time>
      </trkpt>
      <trkpt lat="44.8751" lon="-0.76527">
        <ele>30.2</ele>
        <time>2017-12-06T09:52:50Z</time>
      </trkpt>
      <trkpt lat="44.87507" lon="-0.76521">
        <ele>30.3</ele>
        <time>2017-12-06T09:52:51Z</time>
      </trkpt>
      <trkpt lat="44.87505" lon="-0.76518">
        <ele>30.2</ele>
        <time>2017-12-06T09:52:52Z</time>
      </trkpt>
      <trkpt lat="44.87501" lon="-0.76515">
        <ele>30.3</ele>
        <time>2017-12-06T09:52:53Z</time>
      </trkpt>
      <trkpt lat="44.87508" lon="-0.76517">
        <ele>30.5</ele>
        <time>2017-12-06T09:52:54Z</time>
      </trkpt>
      <trkpt lat="44.87512" lon="-0.76519">
        <ele>30.5</ele>
        <time>2017-12-06T09:52:56Z</time>
      </trkpt>
      <trkpt lat="44.87515" lon="-0.76523">
        <ele>30.5</ele>
        <time>2017-12-06T09:52:57Z</time>
      </trkpt>
      <trkpt lat="44.87518" lon="-0.76522">
        <ele>30.8</ele>
        <time>2017-12-06T09:52:58Z</time>
      </trkpt>
      <trkpt lat="44.87521" lon="-0.76521">
        <ele>30.9</ele>
        <time>2017-12-06T09:52:59Z</time>
      </trkpt>
      <trkpt lat="44.87521" lon="-0.76515">
        <ele>31.1</ele>
        <time>2017-12-06T09:53:00Z</time>
      </trkpt>
      <trkpt lat="44.8752" lon="-0.76508">
        <ele>31.3</ele>
        <time>2017-12-06T09:53:02Z</time>
      </trkpt>
      <trkpt lat="44.87522" lon="-0.76502">
        <ele>31.5</ele>
        <time>2017-12-06T09:53:04Z</time>
      </trkpt>
      <trkpt lat="44.87524" lon="-0.765">
        <ele>31.6</ele>
        <time>2017-12-06T09:53:06Z</time>
      </trkpt>
      <trkpt lat="44.87527" lon="-0.76503">
        <ele>31.7</ele>
        <time>2017-12-06T09:53:08Z</time>
      </trkpt>
      <trkpt lat="44.8753" lon="-0.76511">
        <ele>31.7</ele>
        <time>2017-12-06T09:53:10Z</time>
      </trkpt>
      <trkpt lat="44.87531" lon="-0.76515">
        <ele>31.7</ele>
        <time>2017-12-06T09:53:11Z</time>
      </trkpt>
      <trkpt lat="44.87531" lon="-0.76519">
        <ele>31.6</ele>
        <time>2017-12-06T09:53:12Z</time>
      </trkpt>
      <trkpt lat="44.87532" lon="-0.76525">
        <ele>31.5</ele>
        <time>2017-12-06T09:53:13Z</time>
      </trkpt>
      <trkpt lat="44.87534" lon="-0.76531">
        <ele>31.2</ele>
        <time>2017-12-06T09:53:14Z</time>
      </trkpt>
      <trkpt lat="44.87538" lon="-0.76535">
        <ele>31.3</ele>
        <time>2017-12-06T09:53:16Z</time>
      </trkpt>
      <trkpt lat="44.8754" lon="-0.76538">
        <ele>31.1</ele>
        <time>2017-12-06T09:53:17Z</time>
      </trkpt>
      <trkpt lat="44.87542" lon="-0.7654">
        <ele>30.8</ele>
        <time>2017-12-06T09:53:18Z</time>
      </trkpt>
      <trkpt lat="44.87546" lon="-0.76543">
        <ele>30.8</ele>
        <time>2017-12-06T09:53:20Z</time>
      </trkpt>
      <trkpt lat="44.87547" lon="-0.76548">
        <ele>30.3</ele>
        <time>2017-12-06T09:53:22Z</time>
      </trkpt>
      <trkpt lat="44.87548" lon="-0.76555">
        <ele>30</ele>
        <time>2017-12-06T09:53:24Z</time>
      </trkpt>
      <trkpt lat="44.87549" lon="-0.76561">
        <ele>29.7</ele>
        <time>2017-12-06T09:53:27Z</time>
      </trkpt>
      <trkpt lat="44.8755" lon="-0.76567">
        <ele>29.1</ele>
        <time>2017-12-06T09:53:29Z</time>
      </trkpt>
      <trkpt lat="44.87554" lon="-0.76571">
        <ele>28.8</ele>
        <time>2017-12-06T09:53:31Z</time>
      </trkpt>
      <trkpt lat="44.87558" lon="-0.76571">
        <ele>29.4</ele>
        <time>2017-12-06T09:53:33Z</time>
      </trkpt>
      <trkpt lat="44.87562" lon="-0.76566">
        <ele>29.9</ele>
        <time>2017-12-06T09:53:35Z</time>
      </trkpt>
      <trkpt lat="44.87565" lon="-0.76563">
        <ele>30</ele>
        <time>2017-12-06T09:53:37Z</time>
      </trkpt>
      <trkpt lat="44.87567" lon="-0.7656">
        <ele>30</ele>
        <time>2017-12-06T09:53:39Z</time>
      </trkpt>
      <trkpt lat="44.87568" lon="-0.76554">
        <ele>29.9</ele>
        <time>2017-12-06T09:53:41Z</time>
      </trkpt>
      <trkpt lat="44.87567" lon="-0.76551">
        <ele>29.8</ele>
        <time>2017-12-06T09:53:42Z</time>
      </trkpt>
      <trkpt lat="44.87566" lon="-0.76547">
        <ele>29.5</ele>
        <time>2017-12-06T09:53:43Z</time>
      </trkpt>
      <trkpt lat="44.87564" lon="-0.76543">
        <ele>29.4</ele>
        <time>2017-12-06T09:53:44Z</time>
      </trkpt>
      <trkpt lat="44.8756" lon="-0.76537">
        <ele>29.2</ele>
        <time>2017-12-06T09:53:46Z</time>
      </trkpt>
      <trkpt lat="44.8756" lon="-0.76532">
        <ele>29.1</ele>
        <time>2017-12-06T09:53:47Z</time>
      </trkpt>
      <trkpt lat="44.87558" lon="-0.76527">
        <ele>29</ele>
        <time>2017-12-06T09:53:48Z</time>
      </trkpt>
      <trkpt lat="44.87557" lon="-0.76521">
        <ele>28.9</ele>
        <time>2017-12-06T09:53:49Z</time>
      </trkpt>
      <trkpt lat="44.87552" lon="-0.76517">
        <ele>28.8</ele>
        <time>2017-12-06T09:53:50Z</time>
      </trkpt>
      <trkpt lat="44.87549" lon="-0.76516">
        <ele>28.6</ele>
        <time>2017-12-06T09:53:51Z</time>
      </trkpt>
      <trkpt lat="44.87546" lon="-0.76513">
        <ele>28.3</ele>
        <time>2017-12-06T09:53:52Z</time>
      </trkpt>
      <trkpt lat="44.87542" lon="-0.76507">
        <ele>28.1</ele>
        <time>2017-12-06T09:53:54Z</time>
      </trkpt>
      <trkpt lat="44.87539" lon="-0.76503">
        <ele>28</ele>
        <time>2017-12-06T09:53:55Z</time>
      </trkpt>
      <trkpt lat="44.87537" lon="-0.76498">
        <ele>27.9</ele>
        <time>2017-12-06T09:53:56Z</time>
      </trkpt>
      <trkpt lat="44.87536" lon="-0.76492">
        <ele>27.9</ele>
        <time>2017-12-06T09:53:57Z</time>
      </trkpt>
      <trkpt lat="44.87538" lon="-0.76488">
        <ele>27.9</ele>
        <time>2017-12-06T09:53:58Z</time>
      </trkpt>
      <trkpt lat="44.87537" lon="-0.76483">
        <ele>27.9</ele>
        <time>2017-12-06T09:53:59Z</time>
      </trkpt>
      <trkpt lat="44.87537" lon="-0.76477">
        <ele>27.9</ele>
        <time>2017-12-06T09:54:00Z</time>
      </trkpt>
      <trkpt lat="44.87539" lon="-0.76471">
        <ele>27.9</ele>
        <time>2017-12-06T09:54:01Z</time>
      </trkpt>
      <trkpt lat="44.8754" lon="-0.76467">
        <ele>28</ele>
        <time>2017-12-06T09:54:02Z</time>
      </trkpt>
      <trkpt lat="44.87541" lon="-0.76461">
        <ele>28.3</ele>
        <time>2017-12-06T09:54:03Z</time>
      </trkpt>
      <trkpt lat="44.87542" lon="-0.76456">
        <ele>28.8</ele>
        <time>2017-12-06T09:54:04Z</time>
      </trkpt>
      <trkpt lat="44.8754" lon="-0.76451">
        <ele>29.3</ele>
        <time>2017-12-06T09:54:06Z</time>
      </trkpt>
      <trkpt lat="44.87536" lon="-0.76449">
        <ele>29.7</ele>
        <time>2017-12-06T09:54:08Z</time>
      </trkpt>
      <trkpt lat="44.87532" lon="-0.76449">
        <ele>30.2</ele>
        <time>2017-12-06T09:54:09Z</time>
      </trkpt>
      <trkpt lat="44.87527" lon="-0.76449">
        <ele>31</ele>
        <time>2017-12-06T09:54:10Z</time>
      </trkpt>
      <trkpt lat="44.87521" lon="-0.76448">
        <ele>31.5</ele>
        <time>2017-12-06T09:54:11Z</time>
      </trkpt>
      <trkpt lat="44.87517" lon="-0.76446">
        <ele>31.2</ele>
        <time>2017-12-06T09:54:12Z</time>
      </trkpt>
      <trkpt lat="44.87514" lon="-0.76442">
        <ele>30.7</ele>
        <time>2017-12-06T09:54:13Z</time>
      </trkpt>
      <trkpt lat="44.87512" lon="-0.76438">
        <ele>30.3</ele>
        <time>2017-12-06T09:54:14Z</time>
      </trkpt>
      <trkpt lat="44.87514" lon="-0.76431">
        <ele>29.8</ele>
        <time>2017-12-06T09:54:15Z</time>
      </trkpt>
      <trkpt lat="44.87513" lon="-0.76425">
        <ele>29.6</ele>
        <time>2017-12-06T09:54:16Z</time>
      </trkpt>
      <trkpt lat="44.87513" lon="-0.76418">
        <ele>29.5</ele>
        <time>2017-12-06T09:54:17Z</time>
      </trkpt>
      <trkpt lat="44.87515" lon="-0.76413">
        <ele>29.4</ele>
        <time>2017-12-06T09:54:18Z</time>
      </trkpt>
      <trkpt lat="44.87517" lon="-0.76408">
        <ele>29.4</ele>
        <time>2017-12-06T09:54:19Z</time>
      </trkpt>
      <trkpt lat="44.87518" lon="-0.76403">
        <ele>29.3</ele>
        <time>2017-12-06T09:54:20Z</time>
      </trkpt>
      <trkpt lat="44.87517" lon="-0.76399">
        <ele>29.3</ele>
        <time>2017-12-06T09:54:21Z</time>
      </trkpt>
      <trkpt lat="44.87516" lon="-0.76395">
        <ele>29.3</ele>
        <time>2017-12-06T09:54:22Z</time>
      </trkpt>
      <trkpt lat="44.87513" lon="-0.76387">
        <ele>29.3</ele>
        <time>2017-12-06T09:54:24Z</time>
      </trkpt>
      <trkpt lat="44.87512" lon="-0.76381">
        <ele>29.3</ele>
        <time>2017-12-06T09:54:25Z</time>
      </trkpt>
      <trkpt lat="44.87509" lon="-0.76376">
        <ele>29.2</ele>
        <time>2017-12-06T09:54:26Z</time>
      </trkpt>
      <trkpt lat="44.87509" lon="-0.7637">
        <ele>29.2</ele>
        <time>2017-12-06T09:54:27Z</time>
      </trkpt>
      <trkpt lat="44.87509" lon="-0.76365">
        <ele>29.2</ele>
        <time>2017-12-06T09:54:28Z</time>
      </trkpt>
      <trkpt lat="44.87509" lon="-0.7636">
        <ele>29.2</ele>
        <time>2017-12-06T09:54:29Z</time>
      </trkpt>
      <trkpt lat="44.87509" lon="-0.76355">
        <ele>29.2</ele>
        <time>2017-12-06T09:54:30Z</time>
      </trkpt>
      <trkpt lat="44.87509" lon="-0.76349">
        <ele>29.2</ele>
        <time>2017-12-06T09:54:31Z</time>
      </trkpt>
      <trkpt lat="44.87509" lon="-0.76344">
        <ele>29.1</ele>
        <time>2017-12-06T09:54:32Z</time>
      </trkpt>
      <trkpt lat="44.87507" lon="-0.76337">
        <ele>29.1</ele>
        <time>2017-12-06T09:54:33Z</time>
      </trkpt>
      <trkpt lat="44.87505" lon="-0.7633">
        <ele>29.1</ele>
        <time>2017-12-06T09:54:34Z</time>
      </trkpt>
      <trkpt lat="44.87503" lon="-0.76322">
        <ele>28.9</ele>
        <time>2017-12-06T09:54:35Z</time>
      </trkpt>
      <trkpt lat="44.87504" lon="-0.76316">
        <ele>28.6</ele>
        <time>2017-12-06T09:54:36Z</time>
      </trkpt>
      <trkpt lat="44.87507" lon="-0.76311">
        <ele>28.2</ele>
        <time>2017-12-06T09:54:37Z</time>
      </trkpt>
      <trkpt lat="44.8751" lon="-0.76307">
        <ele>27.1</ele>
        <time>2017-12-06T09:54:38Z</time>
      </trkpt>
      <trkpt lat="44.87512" lon="-0.76303">
        <ele>27.2</ele>
        <time>2017-12-06T09:54:39Z</time>
      </trkpt>
      <trkpt lat="44.87515" lon="-0.76298">
        <ele>27.3</ele>
        <time>2017-12-06T09:54:40Z</time>
      </trkpt>
      <trkpt lat="44.87517" lon="-0.76292">
        <ele>27.4</ele>
        <time>2017-12-06T09:54:41Z</time>
      </trkpt>
      <trkpt lat="44.8752" lon="-0.76287">
        <ele>27.6</ele>
        <time>2017-12-06T09:54:42Z</time>
      </trkpt>
      <trkpt lat="44.87523" lon="-0.76282">
        <ele>27.8</ele>
        <time>2017-12-06T09:54:43Z</time>
      </trkpt>
      <trkpt lat="44.87526" lon="-0.76275">
        <ele>28</ele>
        <time>2017-12-06T09:54:44Z</time>
      </trkpt>
      <trkpt lat="44.87528" lon="-0.76269">
        <ele>28.2</ele>
        <time>2017-12-06T09:54:45Z</time>
      </trkpt>
      <trkpt lat="44.8753" lon="-0.76261">
        <ele>28.5</ele>
        <time>2017-12-06T09:54:46Z</time>
      </trkpt>
      <trkpt lat="44.87532" lon="-0.76253">
        <ele>28.8</ele>
        <time>2017-12-06T09:54:47Z</time>
      </trkpt>
      <trkpt lat="44.87534" lon="-0.76245">
        <ele>29</ele>
        <time>2017-12-06T09:54:48Z</time>
      </trkpt>
      <trkpt lat="44.87536" lon="-0.76236">
        <ele>29</ele>
        <time>2017-12-06T09:54:49Z</time>
      </trkpt>
      <trkpt lat="44.87538" lon="-0.76227">
        <ele>29</ele>
        <time>2017-12-06T09:54:50Z</time>
      </trkpt>
      <trkpt lat="44.87539" lon="-0.76219">
        <ele>29</ele>
        <time>2017-12-06T09:54:51Z</time>
      </trkpt>
      <trkpt lat="44.87541" lon="-0.76209">
        <ele>29</ele>
        <time>2017-12-06T09:54:52Z</time>
      </trkpt>
      <trkpt lat="44.87543" lon="-0.762">
        <ele>29</ele>
        <time>2017-12-06T09:54:53Z</time>
      </trkpt>
      <trkpt lat="44.87544" lon="-0.76191">
        <ele>29</ele>
        <time>2017-12-06T09:54:54Z</time>
      </trkpt>
      <trkpt lat="44.87545" lon="-0.76183">
        <ele>29</ele>
        <time>2017-12-06T09:54:55Z</time>
      </trkpt>
      <trkpt lat="44.87547" lon="-0.76174">
        <ele>29</ele>
        <time>2017-12-06T09:54:56Z</time>
      </trkpt>
      <trkpt lat="44.87548" lon="-0.76166">
        <ele>28.9</ele>
        <time>2017-12-06T09:54:57Z</time>
      </trkpt>
      <trkpt lat="44.8755" lon="-0.76157">
        <ele>28.9</ele>
        <time>2017-12-06T09:54:58Z</time>
      </trkpt>
      <trkpt lat="44.87551" lon="-0.76149">
        <ele>28.9</ele>
        <time>2017-12-06T09:54:59Z</time>
      </trkpt>
      <trkpt lat="44.87552" lon="-0.76141">
        <ele>28.9</ele>
        <time>2017-12-06T09:55:00Z</time>
      </trkpt>
      <trkpt lat="44.87554" lon="-0.76134">
        <ele>28.9</ele>
        <time>2017-12-06T09:55:01Z</time>
      </trkpt>
      <trkpt lat="44.87556" lon="-0.76127">
        <ele>28.8</ele>
        <time>2017-12-06T09:55:02Z</time>
      </trkpt>
      <trkpt lat="44.87558" lon="-0.76121">
        <ele>28.8</ele>
        <time>2017-12-06T09:55:03Z</time>
      </trkpt>
      <trkpt lat="44.8756" lon="-0.76114">
        <ele>28.8</ele>
        <time>2017-12-06T09:55:04Z</time>
      </trkpt>
      <trkpt lat="44.87561" lon="-0.76107">
        <ele>28.8</ele>
        <time>2017-12-06T09:55:05Z</time>
      </trkpt>
      <trkpt lat="44.87563" lon="-0.76101">
        <ele>28.8</ele>
        <time>2017-12-06T09:55:06Z</time>
      </trkpt>
      <trkpt lat="44.87565" lon="-0.76094">
        <ele>28.8</ele>
        <time>2017-12-06T09:55:07Z</time>
      </trkpt>
      <trkpt lat="44.87567" lon="-0.76088">
        <ele>28.7</ele>
        <time>2017-12-06T09:55:08Z</time>
      </trkpt>
      <trkpt lat="44.87568" lon="-0.76082">
        <ele>28.7</ele>
        <time>2017-12-06T09:55:09Z</time>
      </trkpt>
      <trkpt lat="44.8757" lon="-0.76077">
        <ele>28.7</ele>
        <time>2017-12-06T09:55:10Z</time>
      </trkpt>
      <trkpt lat="44.87572" lon="-0.76071">
        <ele>28.7</ele>
        <time>2017-12-06T09:55:11Z</time>
      </trkpt>
      <trkpt lat="44.87573" lon="-0.76066">
        <ele>28.7</ele>
        <time>2017-12-06T09:55:12Z</time>
      </trkpt>
      <trkpt lat="44.87575" lon="-0.76059">
        <ele>28.7</ele>
        <time>2017-12-06T09:55:13Z</time>
      </trkpt>
      <trkpt lat="44.87576" lon="-0.76053">
        <ele>28.7</ele>
        <time>2017-12-06T09:55:14Z</time>
      </trkpt>
      <trkpt lat="44.87578" lon="-0.76047">
        <ele>28.7</ele>
        <time>2017-12-06T09:55:15Z</time>
      </trkpt>
      <trkpt lat="44.87579" lon="-0.76041">
        <ele>28.7</ele>
        <time>2017-12-06T09:55:16Z</time>
      </trkpt>
      <trkpt lat="44.87582" lon="-0.76035">
        <ele>28.7</ele>
        <time>2017-12-06T09:55:17Z</time>
      </trkpt>
      <trkpt lat="44.87583" lon="-0.76028">
        <ele>28.7</ele>
        <time>2017-12-06T09:55:18Z</time>
      </trkpt>
      <trkpt lat="44.87585" lon="-0.76022">
        <ele>28.7</ele>
        <time>2017-12-06T09:55:19Z</time>
      </trkpt>
      <trkpt lat="44.87587" lon="-0.76015">
        <ele>28.7</ele>
        <time>2017-12-06T09:55:20Z</time>
      </trkpt>
      <trkpt lat="44.87588" lon="-0.76009">
        <ele>28.7</ele>
        <time>2017-12-06T09:55:21Z</time>
      </trkpt>
      <trkpt lat="44.8759" lon="-0.76002">
        <ele>28.7</ele>
        <time>2017-12-06T09:55:22Z</time>
      </trkpt>
      <trkpt lat="44.8759" lon="-0.75995">
        <ele>28.7</ele>
        <time>2017-12-06T09:55:23Z</time>
      </trkpt>
      <trkpt lat="44.8759" lon="-0.75989">
        <ele>28.7</ele>
        <time>2017-12-06T09:55:24Z</time>
      </trkpt>
      <trkpt lat="44.8759" lon="-0.75983">
        <ele>28.7</ele>
        <time>2017-12-06T09:55:25Z</time>
      </trkpt>
      <trkpt lat="44.87589" lon="-0.75977">
        <ele>28.7</ele>
        <time>2017-12-06T09:55:26Z</time>
      </trkpt>
      <trkpt lat="44.87588" lon="-0.75971">
        <ele>28.8</ele>
        <time>2017-12-06T09:55:27Z</time>
      </trkpt>
      <trkpt lat="44.87587" lon="-0.75965">
        <ele>28.9</ele>
        <time>2017-12-06T09:55:28Z</time>
      </trkpt>
      <trkpt lat="44.87587" lon="-0.75959">
        <ele>28.9</ele>
        <time>2017-12-06T09:55:29Z</time>
      </trkpt>
      <trkpt lat="44.87588" lon="-0.75954">
        <ele>29</ele>
        <time>2017-12-06T09:55:30Z</time>
      </trkpt>
      <trkpt lat="44.87588" lon="-0.75949">
        <ele>29</ele>
        <time>2017-12-06T09:55:31Z</time>
      </trkpt>
      <trkpt lat="44.87588" lon="-0.75944">
        <ele>29.1</ele>
        <time>2017-12-06T09:55:32Z</time>
      </trkpt>
      <trkpt lat="44.87589" lon="-0.75939">
        <ele>29.1</ele>
        <time>2017-12-06T09:55:33Z</time>
      </trkpt>
      <trkpt lat="44.87592" lon="-0.75935">
        <ele>29.1</ele>
        <time>2017-12-06T09:55:34Z</time>
      </trkpt>
      <trkpt lat="44.87593" lon="-0.75931">
        <ele>29.2</ele>
        <time>2017-12-06T09:55:35Z</time>
      </trkpt>
      <trkpt lat="44.87592" lon="-0.75926">
        <ele>29.2</ele>
        <time>2017-12-06T09:55:36Z</time>
      </trkpt>
      <trkpt lat="44.8759" lon="-0.75923">
        <ele>29.2</ele>
        <time>2017-12-06T09:55:37Z</time>
      </trkpt>
      <trkpt lat="44.87591" lon="-0.75915">
        <ele>29.5</ele>
        <time>2017-12-06T09:55:39Z</time>
      </trkpt>
      <trkpt lat="44.87592" lon="-0.7591">
        <ele>29.7</ele>
        <time>2017-12-06T09:55:40Z</time>
      </trkpt>
      <trkpt lat="44.87593" lon="-0.75905">
        <ele>29.9</ele>
        <time>2017-12-06T09:55:41Z</time>
      </trkpt>
      <trkpt lat="44.87593" lon="-0.75899">
        <ele>29.9</ele>
        <time>2017-12-06T09:55:42Z</time>
      </trkpt>
      <trkpt lat="44.87595" lon="-0.75893">
        <ele>30</ele>
        <time>2017-12-06T09:55:43Z</time>
      </trkpt>
      <trkpt lat="44.87596" lon="-0.75888">
        <ele>30.1</ele>
        <time>2017-12-06T09:55:44Z</time>
      </trkpt>
      <trkpt lat="44.87596" lon="-0.75882">
        <ele>30</ele>
        <time>2017-12-06T09:55:45Z</time>
      </trkpt>
      <trkpt lat="44.87594" lon="-0.75876">
        <ele>30</ele>
        <time>2017-12-06T09:55:46Z</time>
      </trkpt>
      <trkpt lat="44.87593" lon="-0.75872">
        <ele>30.1</ele>
        <time>2017-12-06T09:55:47Z</time>
      </trkpt>
      <trkpt lat="44.87592" lon="-0.75867">
        <ele>30.2</ele>
        <time>2017-12-06T09:55:48Z</time>
      </trkpt>
      <trkpt lat="44.87593" lon="-0.75862">
        <ele>30.2</ele>
        <time>2017-12-06T09:55:49Z</time>
      </trkpt>
      <trkpt lat="44.87596" lon="-0.75857">
        <ele>30.2</ele>
        <time>2017-12-06T09:55:50Z</time>
      </trkpt>
      <trkpt lat="44.87599" lon="-0.75853">
        <ele>30.2</ele>
        <time>2017-12-06T09:55:51Z</time>
      </trkpt>
      <trkpt lat="44.87602" lon="-0.7585">
        <ele>30.3</ele>
        <time>2017-12-06T09:55:52Z</time>
      </trkpt>
      <trkpt lat="44.87606" lon="-0.75846">
        <ele>30.3</ele>
        <time>2017-12-06T09:55:53Z</time>
      </trkpt>
      <trkpt lat="44.8761" lon="-0.75844">
        <ele>30.3</ele>
        <time>2017-12-06T09:55:54Z</time>
      </trkpt>
      <trkpt lat="44.87614" lon="-0.75841">
        <ele>30.3</ele>
        <time>2017-12-06T09:55:55Z</time>
      </trkpt>
      <trkpt lat="44.87618" lon="-0.75839">
        <ele>30.4</ele>
        <time>2017-12-06T09:55:56Z</time>
      </trkpt>
      <trkpt lat="44.87624" lon="-0.75835">
        <ele>30.4</ele>
        <time>2017-12-06T09:55:57Z</time>
      </trkpt>
      <trkpt lat="44.87628" lon="-0.75833">
        <ele>30.4</ele>
        <time>2017-12-06T09:55:58Z</time>
      </trkpt>
      <trkpt lat="44.87632" lon="-0.75832">
        <ele>30.5</ele>
        <time>2017-12-06T09:55:59Z</time>
      </trkpt>
      <trkpt lat="44.87637" lon="-0.75831">
        <ele>30.5</ele>
        <time>2017-12-06T09:56:00Z</time>
      </trkpt>
      <trkpt lat="44.87642" lon="-0.75828">
        <ele>30.5</ele>
        <time>2017-12-06T09:56:01Z</time>
      </trkpt>
      <trkpt lat="44.87647" lon="-0.75826">
        <ele>30.6</ele>
        <time>2017-12-06T09:56:02Z</time>
      </trkpt>
      <trkpt lat="44.87651" lon="-0.75823">
        <ele>30.6</ele>
        <time>2017-12-06T09:56:03Z</time>
      </trkpt>
      <trkpt lat="44.87655" lon="-0.75821">
        <ele>30.6</ele>
        <time>2017-12-06T09:56:04Z</time>
      </trkpt>
      <trkpt lat="44.8766" lon="-0.75817">
        <ele>30.6</ele>
        <time>2017-12-06T09:56:05Z</time>
      </trkpt>
      <trkpt lat="44.87663" lon="-0.75815">
        <ele>30.7</ele>
        <time>2017-12-06T09:56:06Z</time>
      </trkpt>
      <trkpt lat="44.87668" lon="-0.75812">
        <ele>30.7</ele>
        <time>2017-12-06T09:56:07Z</time>
      </trkpt>
      <trkpt lat="44.87672" lon="-0.75809">
        <ele>30.7</ele>
        <time>2017-12-06T09:56:08Z</time>
      </trkpt>
      <trkpt lat="44.87677" lon="-0.75806">
        <ele>30.7</ele>
        <time>2017-12-06T09:56:09Z</time>
      </trkpt>
      <trkpt lat="44.87681" lon="-0.75804">
        <ele>30.8</ele>
        <time>2017-12-06T09:56:10Z</time>
      </trkpt>
      <trkpt lat="44.87686" lon="-0.75801">
        <ele>30.8</ele>
        <time>2017-12-06T09:56:11Z</time>
      </trkpt>
      <trkpt lat="44.87691" lon="-0.75798">
        <ele>30.8</ele>
        <time>2017-12-06T09:56:12Z</time>
      </trkpt>
      <trkpt lat="44.87695" lon="-0.75795">
        <ele>30.8</ele>
        <time>2017-12-06T09:56:13Z</time>
      </trkpt>
      <trkpt lat="44.877" lon="-0.75793">
        <ele>30.9</ele>
        <time>2017-12-06T09:56:14Z</time>
      </trkpt>
      <trkpt lat="44.87705" lon="-0.7579">
        <ele>30.9</ele>
        <time>2017-12-06T09:56:15Z</time>
      </trkpt>
      <trkpt lat="44.87709" lon="-0.75787">
        <ele>30.9</ele>
        <time>2017-12-06T09:56:16Z</time>
      </trkpt>
      <trkpt lat="44.87714" lon="-0.75784">
        <ele>31</ele>
        <time>2017-12-06T09:56:17Z</time>
      </trkpt>
      <trkpt lat="44.87719" lon="-0.75782">
        <ele>31</ele>
        <time>2017-12-06T09:56:18Z</time>
      </trkpt>
      <trkpt lat="44.87723" lon="-0.7578">
        <ele>31</ele>
        <time>2017-12-06T09:56:19Z</time>
      </trkpt>
      <trkpt lat="44.87727" lon="-0.7578">
        <ele>31</ele>
        <time>2017-12-06T09:56:20Z</time>
      </trkpt>
      <trkpt lat="44.87731" lon="-0.75779">
        <ele>31.1</ele>
        <time>2017-12-06T09:56:21Z</time>
      </trkpt>
      <trkpt lat="44.87736" lon="-0.75778">
        <ele>31.1</ele>
        <time>2017-12-06T09:56:22Z</time>
      </trkpt>
      <trkpt lat="44.8774" lon="-0.75777">
        <ele>31.1</ele>
        <time>2017-12-06T09:56:23Z</time>
      </trkpt>
      <trkpt lat="44.87744" lon="-0.75774">
        <ele>31.2</ele>
        <time>2017-12-06T09:56:24Z</time>
      </trkpt>
      <trkpt lat="44.87748" lon="-0.75771">
        <ele>31.2</ele>
        <time>2017-12-06T09:56:25Z</time>
      </trkpt>
      <trkpt lat="44.87752" lon="-0.7577">
        <ele>31.3</ele>
        <time>2017-12-06T09:56:26Z</time>
      </trkpt>
      <trkpt lat="44.87757" lon="-0.75768">
        <ele>31.3</ele>
        <time>2017-12-06T09:56:27Z</time>
      </trkpt>
      <trkpt lat="44.87761" lon="-0.75766">
        <ele>31.4</ele>
        <time>2017-12-06T09:56:28Z</time>
      </trkpt>
      <trkpt lat="44.87767" lon="-0.75763">
        <ele>31.4</ele>
        <time>2017-12-06T09:56:29Z</time>
      </trkpt>
      <trkpt lat="44.87771" lon="-0.7576">
        <ele>31.4</ele>
        <time>2017-12-06T09:56:30Z</time>
      </trkpt>
      <trkpt lat="44.87776" lon="-0.75757">
        <ele>31.5</ele>
        <time>2017-12-06T09:56:31Z</time>
      </trkpt>
      <trkpt lat="44.87782" lon="-0.75756">
        <ele>31.6</ele>
        <time>2017-12-06T09:56:32Z</time>
      </trkpt>
      <trkpt lat="44.87786" lon="-0.75757">
        <ele>31.6</ele>
        <time>2017-12-06T09:56:33Z</time>
      </trkpt>
      <trkpt lat="44.87792" lon="-0.75757">
        <ele>31.7</ele>
        <time>2017-12-06T09:56:34Z</time>
      </trkpt>
      <trkpt lat="44.87796" lon="-0.75757">
        <ele>31.7</ele>
        <time>2017-12-06T09:56:35Z</time>
      </trkpt>
      <trkpt lat="44.87801" lon="-0.75755">
        <ele>31.8</ele>
        <time>2017-12-06T09:56:36Z</time>
      </trkpt>
      <trkpt lat="44.87806" lon="-0.75754">
        <ele>31.8</ele>
        <time>2017-12-06T09:56:37Z</time>
      </trkpt>
      <trkpt lat="44.87811" lon="-0.75754">
        <ele>31.8</ele>
        <time>2017-12-06T09:56:38Z</time>
      </trkpt>
      <trkpt lat="44.87816" lon="-0.75756">
        <ele>31.9</ele>
        <time>2017-12-06T09:56:39Z</time>
      </trkpt>
      <trkpt lat="44.87821" lon="-0.75758">
        <ele>31.9</ele>
        <time>2017-12-06T09:56:40Z</time>
      </trkpt>
      <trkpt lat="44.87826" lon="-0.75762">
        <ele>32</ele>
        <time>2017-12-06T09:56:41Z</time>
      </trkpt>
      <trkpt lat="44.8783" lon="-0.75766">
        <ele>32.1</ele>
        <time>2017-12-06T09:56:42Z</time>
      </trkpt>
      <trkpt lat="44.87833" lon="-0.75769">
        <ele>32.2</ele>
        <time>2017-12-06T09:56:43Z</time>
      </trkpt>
      <trkpt lat="44.87837" lon="-0.75772">
        <ele>32.2</ele>
        <time>2017-12-06T09:56:44Z</time>
      </trkpt>
      <trkpt lat="44.8784" lon="-0.75775">
        <ele>32.3</ele>
        <time>2017-12-06T09:56:45Z</time>
      </trkpt>
      <trkpt lat="44.87844" lon="-0.75778">
        <ele>32.3</ele>
        <time>2017-12-06T09:56:46Z</time>
      </trkpt>
      <trkpt lat="44.87848" lon="-0.75782">
        <ele>32.4</ele>
        <time>2017-12-06T09:56:47Z</time>
      </trkpt>
      <trkpt lat="44.87852" lon="-0.75785">
        <ele>32.4</ele>
        <time>2017-12-06T09:56:48Z</time>
      </trkpt>
      <trkpt lat="44.87857" lon="-0.75787">
        <ele>32.5</ele>
        <time>2017-12-06T09:56:49Z</time>
      </trkpt>
      <trkpt lat="44.87861" lon="-0.75789">
        <ele>32.5</ele>
        <time>2017-12-06T09:56:50Z</time>
      </trkpt>
      <trkpt lat="44.87866" lon="-0.7579">
        <ele>32.6</ele>
        <time>2017-12-06T09:56:51Z</time>
      </trkpt>
      <trkpt lat="44.8787" lon="-0.75792">
        <ele>32.6</ele>
        <time>2017-12-06T09:56:52Z</time>
      </trkpt>
      <trkpt lat="44.87873" lon="-0.75794">
        <ele>32.6</ele>
        <time>2017-12-06T09:56:53Z</time>
      </trkpt>
      <trkpt lat="44.87878" lon="-0.75793">
        <ele>32.6</ele>
        <time>2017-12-06T09:56:54Z</time>
      </trkpt>
      <trkpt lat="44.87882" lon="-0.75791">
        <ele>32.6</ele>
        <time>2017-12-06T09:56:55Z</time>
      </trkpt>
      <trkpt lat="44.87887" lon="-0.7579">
        <ele>32.6</ele>
        <time>2017-12-06T09:56:56Z</time>
      </trkpt>
      <trkpt lat="44.87891" lon="-0.75789">
        <ele>32.6</ele>
        <time>2017-12-06T09:56:57Z</time>
      </trkpt>
      <trkpt lat="44.87896" lon="-0.7579">
        <ele>32.6</ele>
        <time>2017-12-06T09:56:58Z</time>
      </trkpt>
      <trkpt lat="44.879" lon="-0.75791">
        <ele>32.7</ele>
        <time>2017-12-06T09:56:59Z</time>
      </trkpt>
      <trkpt lat="44.87905" lon="-0.75793">
        <ele>32.8</ele>
        <time>2017-12-06T09:57:00Z</time>
      </trkpt>
      <trkpt lat="44.87911" lon="-0.75794">
        <ele>32.9</ele>
        <time>2017-12-06T09:57:01Z</time>
      </trkpt>
      <trkpt lat="44.87916" lon="-0.75792">
        <ele>33</ele>
        <time>2017-12-06T09:57:02Z</time>
      </trkpt>
      <trkpt lat="44.87919" lon="-0.75787">
        <ele>33.2</ele>
        <time>2017-12-06T09:57:03Z</time>
      </trkpt>
      <trkpt lat="44.87923" lon="-0.75783">
        <ele>33.3</ele>
        <time>2017-12-06T09:57:04Z</time>
      </trkpt>
      <trkpt lat="44.87927" lon="-0.7578">
        <ele>33.4</ele>
        <time>2017-12-06T09:57:05Z</time>
      </trkpt>
      <trkpt lat="44.8793" lon="-0.75775">
        <ele>33.4</ele>
        <time>2017-12-06T09:57:06Z</time>
      </trkpt>
      <trkpt lat="44.87933" lon="-0.75772">
        <ele>33.4</ele>
        <time>2017-12-06T09:57:07Z</time>
      </trkpt>
      <trkpt lat="44.87937" lon="-0.75768">
        <ele>33.4</ele>
        <time>2017-12-06T09:57:08Z</time>
      </trkpt>
      <trkpt lat="44.87941" lon="-0.75764">
        <ele>33.4</ele>
        <time>2017-12-06T09:57:09Z</time>
      </trkpt>
      <trkpt lat="44.87945" lon="-0.75759">
        <ele>33.4</ele>
        <time>2017-12-06T09:57:10Z</time>
      </trkpt>
      <trkpt lat="44.87948" lon="-0.75754">
        <ele>33.4</ele>
        <time>2017-12-06T09:57:11Z</time>
      </trkpt>
      <trkpt lat="44.8795" lon="-0.75748">
        <ele>33.4</ele>
        <time>2017-12-06T09:57:12Z</time>
      </trkpt>
      <trkpt lat="44.87952" lon="-0.75743">
        <ele>33.4</ele>
        <time>2017-12-06T09:57:13Z</time>
      </trkpt>
      <trkpt lat="44.87955" lon="-0.75737">
        <ele>33.4</ele>
        <time>2017-12-06T09:57:14Z</time>
      </trkpt>
      <trkpt lat="44.87958" lon="-0.75732">
        <ele>33.3</ele>
        <time>2017-12-06T09:57:15Z</time>
      </trkpt>
      <trkpt lat="44.87962" lon="-0.75726">
        <ele>33.2</ele>
        <time>2017-12-06T09:57:16Z</time>
      </trkpt>
      <trkpt lat="44.87965" lon="-0.7572">
        <ele>33.1</ele>
        <time>2017-12-06T09:57:17Z</time>
      </trkpt>
      <trkpt lat="44.87968" lon="-0.75716">
        <ele>33</ele>
        <time>2017-12-06T09:57:18Z</time>
      </trkpt>
      <trkpt lat="44.87971" lon="-0.7571">
        <ele>33</ele>
        <time>2017-12-06T09:57:19Z</time>
      </trkpt>
      <trkpt lat="44.87973" lon="-0.75705">
        <ele>32.9</ele>
        <time>2017-12-06T09:57:20Z</time>
      </trkpt>
      <trkpt lat="44.87975" lon="-0.75698">
        <ele>32.8</ele>
        <time>2017-12-06T09:57:21Z</time>
      </trkpt>
      <trkpt lat="44.87974" lon="-0.75692">
        <ele>32.8</ele>
        <time>2017-12-06T09:57:22Z</time>
      </trkpt>
      <trkpt lat="44.87972" lon="-0.75687">
        <ele>32.6</ele>
        <time>2017-12-06T09:57:23Z</time>
      </trkpt>
      <trkpt lat="44.87969" lon="-0.75682">
        <ele>32.5</ele>
        <time>2017-12-06T09:57:24Z</time>
      </trkpt>
      <trkpt lat="44.87967" lon="-0.75675">
        <ele>32.3</ele>
        <time>2017-12-06T09:57:25Z</time>
      </trkpt>
      <trkpt lat="44.87965" lon="-0.75669">
        <ele>32.2</ele>
        <time>2017-12-06T09:57:26Z</time>
      </trkpt>
      <trkpt lat="44.87963" lon="-0.75663">
        <ele>32.2</ele>
        <time>2017-12-06T09:57:27Z</time>
      </trkpt>
      <trkpt lat="44.87962" lon="-0.75656">
        <ele>32.1</ele>
        <time>2017-12-06T09:57:28Z</time>
      </trkpt>
      <trkpt lat="44.87961" lon="-0.7565">
        <ele>32</ele>
        <time>2017-12-06T09:57:29Z</time>
      </trkpt>
      <trkpt lat="44.87962" lon="-0.75644">
        <ele>32</ele>
        <time>2017-12-06T09:57:30Z</time>
      </trkpt>
      <trkpt lat="44.87966" lon="-0.75639">
        <ele>31.9</ele>
        <time>2017-12-06T09:57:32Z</time>
      </trkpt>
      <trkpt lat="44.87969" lon="-0.75637">
        <ele>31.8</ele>
        <time>2017-12-06T09:57:33Z</time>
      </trkpt>
      <trkpt lat="44.87969" lon="-0.7563">
        <ele>31.7</ele>
        <time>2017-12-06T09:57:35Z</time>
      </trkpt>
      <trkpt lat="44.87968" lon="-0.75626">
        <ele>31.7</ele>
        <time>2017-12-06T09:57:36Z</time>
      </trkpt>
      <trkpt lat="44.87968" lon="-0.75621">
        <ele>31.7</ele>
        <time>2017-12-06T09:57:37Z</time>
      </trkpt>
      <trkpt lat="44.87967" lon="-0.75616">
        <ele>31.7</ele>
        <time>2017-12-06T09:57:38Z</time>
      </trkpt>
      <trkpt lat="44.87966" lon="-0.75611">
        <ele>31.6</ele>
        <time>2017-12-06T09:57:39Z</time>
      </trkpt>
      <trkpt lat="44.87967" lon="-0.75603">
        <ele>31.6</ele>
        <time>2017-12-06T09:57:41Z</time>
      </trkpt>
      <trkpt lat="44.87966" lon="-0.75596">
        <ele>31.5</ele>
        <time>2017-12-06T09:57:42Z</time>
      </trkpt>
      <trkpt lat="44.87965" lon="-0.75591">
        <ele>31.5</ele>
        <time>2017-12-06T09:57:43Z</time>
      </trkpt>
      <trkpt lat="44.87963" lon="-0.75586">
        <ele>31.5</ele>
        <time>2017-12-06T09:57:44Z</time>
      </trkpt>
      <trkpt lat="44.87961" lon="-0.75582">
        <ele>31.4</ele>
        <time>2017-12-06T09:57:45Z</time>
      </trkpt>
      <trkpt lat="44.87963" lon="-0.75577">
        <ele>31.4</ele>
        <time>2017-12-06T09:57:46Z</time>
      </trkpt>
      <trkpt lat="44.87963" lon="-0.75573">
        <ele>31.4</ele>
        <time>2017-12-06T09:57:47Z</time>
      </trkpt>
      <trkpt lat="44.87963" lon="-0.75569">
        <ele>31.3</ele>
        <time>2017-12-06T09:57:48Z</time>
      </trkpt>
      <trkpt lat="44.87964" lon="-0.75563">
        <ele>31.3</ele>
        <time>2017-12-06T09:57:50Z</time>
      </trkpt>
      <trkpt lat="44.87965" lon="-0.75558">
        <ele>31.3</ele>
        <time>2017-12-06T09:57:51Z</time>
      </trkpt>
      <trkpt lat="44.87965" lon="-0.75552">
        <ele>31.2</ele>
        <time>2017-12-06T09:57:52Z</time>
      </trkpt>
      <trkpt lat="44.87968" lon="-0.75546">
        <ele>31.2</ele>
        <time>2017-12-06T09:57:54Z</time>
      </trkpt>
      <trkpt lat="44.87969" lon="-0.75538">
        <ele>31.1</ele>
        <time>2017-12-06T09:57:56Z</time>
      </trkpt>
      <trkpt lat="44.87969" lon="-0.75533">
        <ele>31.1</ele>
        <time>2017-12-06T09:57:57Z</time>
      </trkpt>
      <trkpt lat="44.87969" lon="-0.75529">
        <ele>31.1</ele>
        <time>2017-12-06T09:57:58Z</time>
      </trkpt>
      <trkpt lat="44.87972" lon="-0.75526">
        <ele>31.1</ele>
        <time>2017-12-06T09:57:59Z</time>
      </trkpt>
      <trkpt lat="44.87975" lon="-0.75521">
        <ele>31</ele>
        <time>2017-12-06T09:58:01Z</time>
      </trkpt>
      <trkpt lat="44.87978" lon="-0.75518">
        <ele>31</ele>
        <time>2017-12-06T09:58:02Z</time>
      </trkpt>
      <trkpt lat="44.87979" lon="-0.75514">
        <ele>30.9</ele>
        <time>2017-12-06T09:58:03Z</time>
      </trkpt>
      <trkpt lat="44.87981" lon="-0.75509">
        <ele>30.9</ele>
        <time>2017-12-06T09:58:04Z</time>
      </trkpt>
      <trkpt lat="44.87983" lon="-0.75507">
        <ele>30.8</ele>
        <time>2017-12-06T09:58:05Z</time>
      </trkpt>
      <trkpt lat="44.87984" lon="-0.75501">
        <ele>30.8</ele>
        <time>2017-12-06T09:58:07Z</time>
      </trkpt>
      <trkpt lat="44.87988" lon="-0.75501">
        <ele>30.7</ele>
        <time>2017-12-06T09:58:09Z</time>
      </trkpt>
      <trkpt lat="44.8799" lon="-0.75499">
        <ele>30.7</ele>
        <time>2017-12-06T09:58:10Z</time>
      </trkpt>
      <trkpt lat="44.87992" lon="-0.75496">
        <ele>30.7</ele>
        <time>2017-12-06T09:58:11Z</time>
      </trkpt>
      <trkpt lat="44.87995" lon="-0.75492">
        <ele>30.7</ele>
        <time>2017-12-06T09:58:12Z</time>
      </trkpt>
      <trkpt lat="44.87998" lon="-0.75489">
        <ele>30.7</ele>
        <time>2017-12-06T09:58:13Z</time>
      </trkpt>
      <trkpt lat="44.88001" lon="-0.75485">
        <ele>30.7</ele>
        <time>2017-12-06T09:58:14Z</time>
      </trkpt>
      <trkpt lat="44.88003" lon="-0.75482">
        <ele>30.8</ele>
        <time>2017-12-06T09:58:15Z</time>
      </trkpt>
      <trkpt lat="44.88008" lon="-0.75479">
        <ele>30.8</ele>
        <time>2017-12-06T09:58:17Z</time>
      </trkpt>
      <trkpt lat="44.88011" lon="-0.75478">
        <ele>30.9</ele>
        <time>2017-12-06T09:58:18Z</time>
      </trkpt>
      <trkpt lat="44.88015" lon="-0.75477">
        <ele>31</ele>
        <time>2017-12-06T09:58:19Z</time>
      </trkpt>
      <trkpt lat="44.88018" lon="-0.75475">
        <ele>31.3</ele>
        <time>2017-12-06T09:58:20Z</time>
      </trkpt>
      <trkpt lat="44.88021" lon="-0.75472">
        <ele>31.6</ele>
        <time>2017-12-06T09:58:21Z</time>
      </trkpt>
      <trkpt lat="44.88023" lon="-0.7547">
        <ele>31.8</ele>
        <time>2017-12-06T09:58:22Z</time>
      </trkpt>
      <trkpt lat="44.88026" lon="-0.75467">
        <ele>32</ele>
        <time>2017-12-06T09:58:23Z</time>
      </trkpt>
      <trkpt lat="44.88026" lon="-0.75462">
        <ele>32.1</ele>
        <time>2017-12-06T09:58:24Z</time>
      </trkpt>
      <trkpt lat="44.88026" lon="-0.75457">
        <ele>32.2</ele>
        <time>2017-12-06T09:58:25Z</time>
      </trkpt>
      <trkpt lat="44.88026" lon="-0.75452">
        <ele>32.2</ele>
        <time>2017-12-06T09:58:26Z</time>
      </trkpt>
      <trkpt lat="44.88028" lon="-0.75448">
        <ele>32.2</ele>
        <time>2017-12-06T09:58:27Z</time>
      </trkpt>
      <trkpt lat="44.8803" lon="-0.75445">
        <ele>32.2</ele>
        <time>2017-12-06T09:58:28Z</time>
      </trkpt>
      <trkpt lat="44.88031" lon="-0.75437">
        <ele>32.1</ele>
        <time>2017-12-06T09:58:30Z</time>
      </trkpt>
      <trkpt lat="44.8803" lon="-0.75432">
        <ele>32.1</ele>
        <time>2017-12-06T09:58:31Z</time>
      </trkpt>
      <trkpt lat="44.88031" lon="-0.75427">
        <ele>32.1</ele>
        <time>2017-12-06T09:58:32Z</time>
      </trkpt>
      <trkpt lat="44.88033" lon="-0.75423">
        <ele>32.1</ele>
        <time>2017-12-06T09:58:33Z</time>
      </trkpt>
      <trkpt lat="44.88037" lon="-0.75418">
        <ele>32</ele>
        <time>2017-12-06T09:58:34Z</time>
      </trkpt>
      <trkpt lat="44.88041" lon="-0.75413">
        <ele>32</ele>
        <time>2017-12-06T09:58:35Z</time>
      </trkpt>
      <trkpt lat="44.88044" lon="-0.75406">
        <ele>32.1</ele>
        <time>2017-12-06T09:58:36Z</time>
      </trkpt>
      <trkpt lat="44.88046" lon="-0.75398">
        <ele>32.2</ele>
        <time>2017-12-06T09:58:37Z</time>
      </trkpt>
      <trkpt lat="44.88047" lon="-0.7539">
        <ele>32.3</ele>
        <time>2017-12-06T09:58:38Z</time>
      </trkpt>
      <trkpt lat="44.88049" lon="-0.75381">
        <ele>32.4</ele>
        <time>2017-12-06T09:58:39Z</time>
      </trkpt>
      <trkpt lat="44.8805" lon="-0.75372">
        <ele>32.5</ele>
        <time>2017-12-06T09:58:40Z</time>
      </trkpt>
      <trkpt lat="44.8805" lon="-0.75364">
        <ele>32.6</ele>
        <time>2017-12-06T09:58:41Z</time>
      </trkpt>
      <trkpt lat="44.8805" lon="-0.75356">
        <ele>32.7</ele>
        <time>2017-12-06T09:58:42Z</time>
      </trkpt>
      <trkpt lat="44.88051" lon="-0.75347">
        <ele>32.7</ele>
        <time>2017-12-06T09:58:43Z</time>
      </trkpt>
      <trkpt lat="44.88054" lon="-0.75334">
        <ele>32.8</ele>
        <time>2017-12-06T09:58:44Z</time>
      </trkpt>
      <trkpt lat="44.88055" lon="-0.75324">
        <ele>32.8</ele>
        <time>2017-12-06T09:58:45Z</time>
      </trkpt>
      <trkpt lat="44.88056" lon="-0.75315">
        <ele>32.8</ele>
        <time>2017-12-06T09:58:46Z</time>
      </trkpt>
      <trkpt lat="44.88058" lon="-0.75306">
        <ele>32.9</ele>
        <time>2017-12-06T09:58:47Z</time>
      </trkpt>
      <trkpt lat="44.8806" lon="-0.75297">
        <ele>33.1</ele>
        <time>2017-12-06T09:58:48Z</time>
      </trkpt>
      <trkpt lat="44.88061" lon="-0.75288">
        <ele>33.2</ele>
        <time>2017-12-06T09:58:49Z</time>
      </trkpt>
      <trkpt lat="44.88064" lon="-0.7528">
        <ele>33.4</ele>
        <time>2017-12-06T09:58:50Z</time>
      </trkpt>
      <trkpt lat="44.88066" lon="-0.75274">
        <ele>33.5</ele>
        <time>2017-12-06T09:58:51Z</time>
      </trkpt>
      <trkpt lat="44.88068" lon="-0.75268">
        <ele>33.6</ele>
        <time>2017-12-06T09:58:52Z</time>
      </trkpt>
      <trkpt lat="44.88068" lon="-0.75261">
        <ele>33.7</ele>
        <time>2017-12-06T09:58:53Z</time>
      </trkpt>
      <trkpt lat="44.88068" lon="-0.75255">
        <ele>33.9</ele>
        <time>2017-12-06T09:58:54Z</time>
      </trkpt>
      <trkpt lat="44.88071" lon="-0.7525">
        <ele>33.3</ele>
        <time>2017-12-06T09:58:55Z</time>
      </trkpt>
      <trkpt lat="44.88074" lon="-0.75248">
        <ele>32.9</ele>
        <time>2017-12-06T09:58:56Z</time>
      </trkpt>
      <trkpt lat="44.88078" lon="-0.75246">
        <ele>32.4</ele>
        <time>2017-12-06T09:58:57Z</time>
      </trkpt>
      <trkpt lat="44.88082" lon="-0.75246">
        <ele>32</ele>
        <time>2017-12-06T09:58:58Z</time>
      </trkpt>
      <trkpt lat="44.88086" lon="-0.75245">
        <ele>31.5</ele>
        <time>2017-12-06T09:58:59Z</time>
      </trkpt>
      <trkpt lat="44.8809" lon="-0.75245">
        <ele>31.1</ele>
        <time>2017-12-06T09:59:00Z</time>
      </trkpt>
      <trkpt lat="44.88095" lon="-0.75246">
        <ele>31.3</ele>
        <time>2017-12-06T09:59:01Z</time>
      </trkpt>
      <trkpt lat="44.881" lon="-0.75247">
        <ele>31.5</ele>
        <time>2017-12-06T09:59:02Z</time>
      </trkpt>
      <trkpt lat="44.88105" lon="-0.75246">
        <ele>31.7</ele>
        <time>2017-12-06T09:59:03Z</time>
      </trkpt>
      <trkpt lat="44.88108" lon="-0.75248">
        <ele>31.8</ele>
        <time>2017-12-06T09:59:04Z</time>
      </trkpt>
      <trkpt lat="44.88113" lon="-0.75251">
        <ele>32</ele>
        <time>2017-12-06T09:59:05Z</time>
      </trkpt>
      <trkpt lat="44.88116" lon="-0.75255">
        <ele>32.2</ele>
        <time>2017-12-06T09:59:06Z</time>
      </trkpt>
      <trkpt lat="44.88118" lon="-0.7526">
        <ele>32.4</ele>
        <time>2017-12-06T09:59:07Z</time>
      </trkpt>
      <trkpt lat="44.8812" lon="-0.75265">
        <ele>32.5</ele>
        <time>2017-12-06T09:59:08Z</time>
      </trkpt>
      <trkpt lat="44.88122" lon="-0.75271">
        <ele>32.7</ele>
        <time>2017-12-06T09:59:09Z</time>
      </trkpt>
      <trkpt lat="44.88124" lon="-0.75277">
        <ele>32.9</ele>
        <time>2017-12-06T09:59:10Z</time>
      </trkpt>
      <trkpt lat="44.88126" lon="-0.75283">
        <ele>33.1</ele>
        <time>2017-12-06T09:59:11Z</time>
      </trkpt>
      <trkpt lat="44.88127" lon="-0.7529">
        <ele>33.3</ele>
        <time>2017-12-06T09:59:12Z</time>
      </trkpt>
      <trkpt lat="44.88128" lon="-0.75297">
        <ele>33.5</ele>
        <time>2017-12-06T09:59:13Z</time>
      </trkpt>
      <trkpt lat="44.88129" lon="-0.75301">
        <ele>33.6</ele>
        <time>2017-12-06T09:59:14Z</time>
      </trkpt>
      <trkpt lat="44.8813" lon="-0.75306">
        <ele>33.7</ele>
        <time>2017-12-06T09:59:15Z</time>
      </trkpt>
      <trkpt lat="44.88131" lon="-0.7531">
        <ele>33.8</ele>
        <time>2017-12-06T09:59:16Z</time>
      </trkpt>
      <trkpt lat="44.88132" lon="-0.75314">
        <ele>33.9</ele>
        <time>2017-12-06T09:59:17Z</time>
      </trkpt>
      <trkpt lat="44.88132" lon="-0.75319">
        <ele>34</ele>
        <time>2017-12-06T09:59:18Z</time>
      </trkpt>
      <trkpt lat="44.88131" lon="-0.75323">
        <ele>33.9</ele>
        <time>2017-12-06T09:59:19Z</time>
      </trkpt>
      <trkpt lat="44.8813" lon="-0.75329">
        <ele>33.7</ele>
        <time>2017-12-06T09:59:20Z</time>
      </trkpt>
      <trkpt lat="44.8813" lon="-0.75333">
        <ele>33.7</ele>
        <time>2017-12-06T09:59:21Z</time>
      </trkpt>
      <trkpt lat="44.88129" lon="-0.75339">
        <ele>33.5</ele>
        <time>2017-12-06T09:59:22Z</time>
      </trkpt>
      <trkpt lat="44.88128" lon="-0.75343">
        <ele>33.4</ele>
        <time>2017-12-06T09:59:23Z</time>
      </trkpt>
      <trkpt lat="44.88128" lon="-0.75349">
        <ele>33.3</ele>
        <time>2017-12-06T09:59:24Z</time>
      </trkpt>
      <trkpt lat="44.88128" lon="-0.75355">
        <ele>33.1</ele>
        <time>2017-12-06T09:59:25Z</time>
      </trkpt>
      <trkpt lat="44.88129" lon="-0.75362">
        <ele>32.9</ele>
        <time>2017-12-06T09:59:26Z</time>
      </trkpt>
      <trkpt lat="44.88129" lon="-0.75369">
        <ele>32.6</ele>
        <time>2017-12-06T09:59:27Z</time>
      </trkpt>
      <trkpt lat="44.88129" lon="-0.75375">
        <ele>32.4</ele>
        <time>2017-12-06T09:59:28Z</time>
      </trkpt>
      <trkpt lat="44.88129" lon="-0.75381">
        <ele>32.2</ele>
        <time>2017-12-06T09:59:29Z</time>
      </trkpt>
      <trkpt lat="44.88129" lon="-0.75386">
        <ele>32.1</ele>
        <time>2017-12-06T09:59:30Z</time>
      </trkpt>
      <trkpt lat="44.88128" lon="-0.7539">
        <ele>32</ele>
        <time>2017-12-06T09:59:31Z</time>
      </trkpt>
      <trkpt lat="44.88128" lon="-0.75397">
        <ele>31.9</ele>
        <time>2017-12-06T09:59:32Z</time>
      </trkpt>
      <trkpt lat="44.88129" lon="-0.75404">
        <ele>31.8</ele>
        <time>2017-12-06T09:59:33Z</time>
      </trkpt>
      <trkpt lat="44.88129" lon="-0.7541">
        <ele>31.7</ele>
        <time>2017-12-06T09:59:34Z</time>
      </trkpt>
      <trkpt lat="44.88129" lon="-0.75418">
        <ele>31.6</ele>
        <time>2017-12-06T09:59:35Z</time>
      </trkpt>
      <trkpt lat="44.88128" lon="-0.75425">
        <ele>31.5</ele>
        <time>2017-12-06T09:59:36Z</time>
      </trkpt>
      <trkpt lat="44.88127" lon="-0.75431">
        <ele>31.5</ele>
        <time>2017-12-06T09:59:37Z</time>
      </trkpt>
      <trkpt lat="44.88127" lon="-0.75437">
        <ele>31.4</ele>
        <time>2017-12-06T09:59:38Z</time>
      </trkpt>
      <trkpt lat="44.88126" lon="-0.75442">
        <ele>31.3</ele>
        <time>2017-12-06T09:59:39Z</time>
      </trkpt>
      <trkpt lat="44.88124" lon="-0.75447">
        <ele>31.2</ele>
        <time>2017-12-06T09:59:40Z</time>
      </trkpt>
      <trkpt lat="44.88121" lon="-0.75451">
        <ele>31.1</ele>
        <time>2017-12-06T09:59:41Z</time>
      </trkpt>
      <trkpt lat="44.88119" lon="-0.75457">
        <ele>31</ele>
        <time>2017-12-06T09:59:42Z</time>
      </trkpt>
      <trkpt lat="44.88118" lon="-0.75462">
        <ele>31</ele>
        <time>2017-12-06T09:59:43Z</time>
      </trkpt>
      <trkpt lat="44.88118" lon="-0.75468">
        <ele>31.1</ele>
        <time>2017-12-06T09:59:44Z</time>
      </trkpt>
      <trkpt lat="44.88118" lon="-0.75474">
        <ele>31.3</ele>
        <time>2017-12-06T09:59:45Z</time>
      </trkpt>
      <trkpt lat="44.88117" lon="-0.7548">
        <ele>31.5</ele>
        <time>2017-12-06T09:59:46Z</time>
      </trkpt>
      <trkpt lat="44.88118" lon="-0.7549">
        <ele>31.8</ele>
        <time>2017-12-06T09:59:47Z</time>
      </trkpt>
      <trkpt lat="44.88118" lon="-0.755">
        <ele>32.2</ele>
        <time>2017-12-06T09:59:48Z</time>
      </trkpt>
      <trkpt lat="44.88118" lon="-0.75511">
        <ele>32.7</ele>
        <time>2017-12-06T09:59:49Z</time>
      </trkpt>
      <trkpt lat="44.88118" lon="-0.7552">
        <ele>33</ele>
        <time>2017-12-06T09:59:50Z</time>
      </trkpt>
      <trkpt lat="44.88119" lon="-0.7553">
        <ele>33.3</ele>
        <time>2017-12-06T09:59:51Z</time>
      </trkpt>
      <trkpt lat="44.88121" lon="-0.75536">
        <ele>33.4</ele>
        <time>2017-12-06T09:59:52Z</time>
      </trkpt>
      <trkpt lat="44.88124" lon="-0.75541">
        <ele>33.5</ele>
        <time>2017-12-06T09:59:53Z</time>
      </trkpt>
      <trkpt lat="44.88126" lon="-0.75548">
        <ele>33.6</ele>
        <time>2017-12-06T09:59:54Z</time>
      </trkpt>
      <trkpt lat="44.88129" lon="-0.75554">
        <ele>33.7</ele>
        <time>2017-12-06T09:59:55Z</time>
      </trkpt>
      <trkpt lat="44.88131" lon="-0.75561">
        <ele>33.7</ele>
        <time>2017-12-06T09:59:56Z</time>
      </trkpt>
      <trkpt lat="44.88133" lon="-0.75567">
        <ele>33.8</ele>
        <time>2017-12-06T09:59:57Z</time>
      </trkpt>
      <trkpt lat="44.88135" lon="-0.75573">
        <ele>33.8</ele>
        <time>2017-12-06T09:59:58Z</time>
      </trkpt>
      <trkpt lat="44.88137" lon="-0.75577">
        <ele>33.8</ele>
        <time>2017-12-06T09:59:59Z</time>
      </trkpt>
      <trkpt lat="44.88139" lon="-0.75581">
        <ele>33.8</ele>
        <time>2017-12-06T10:00:00Z</time>
      </trkpt>
      <trkpt lat="44.88141" lon="-0.75588">
        <ele>33.8</ele>
        <time>2017-12-06T10:00:02Z</time>
      </trkpt>
      <trkpt lat="44.88143" lon="-0.75592">
        <ele>33.8</ele>
        <time>2017-12-06T10:00:03Z</time>
      </trkpt>
      <trkpt lat="44.88145" lon="-0.75599">
        <ele>33.8</ele>
        <time>2017-12-06T10:00:04Z</time>
      </trkpt>
      <trkpt lat="44.88146" lon="-0.75606">
        <ele>33.7</ele>
        <time>2017-12-06T10:00:05Z</time>
      </trkpt>
      <trkpt lat="44.88148" lon="-0.75612">
        <ele>33.5</ele>
        <time>2017-12-06T10:00:06Z</time>
      </trkpt>
      <trkpt lat="44.8815" lon="-0.75619">
        <ele>33.3</ele>
        <time>2017-12-06T10:00:07Z</time>
      </trkpt>
      <trkpt lat="44.88151" lon="-0.75625">
        <ele>33.1</ele>
        <time>2017-12-06T10:00:08Z</time>
      </trkpt>
      <trkpt lat="44.88153" lon="-0.75631">
        <ele>33</ele>
        <time>2017-12-06T10:00:09Z</time>
      </trkpt>
      <trkpt lat="44.88156" lon="-0.75638">
        <ele>33</ele>
        <time>2017-12-06T10:00:10Z</time>
      </trkpt>
      <trkpt lat="44.88158" lon="-0.75644">
        <ele>33</ele>
        <time>2017-12-06T10:00:11Z</time>
      </trkpt>
      <trkpt lat="44.8816" lon="-0.75651">
        <ele>33</ele>
        <time>2017-12-06T10:00:12Z</time>
      </trkpt>
      <trkpt lat="44.88162" lon="-0.75659">
        <ele>33</ele>
        <time>2017-12-06T10:00:13Z</time>
      </trkpt>
      <trkpt lat="44.88165" lon="-0.75665">
        <ele>33</ele>
        <time>2017-12-06T10:00:14Z</time>
      </trkpt>
      <trkpt lat="44.88167" lon="-0.75669">
        <ele>33</ele>
        <time>2017-12-06T10:00:15Z</time>
      </trkpt>
      <trkpt lat="44.88169" lon="-0.75673">
        <ele>32.9</ele>
        <time>2017-12-06T10:00:16Z</time>
      </trkpt>
      <trkpt lat="44.8817" lon="-0.7568">
        <ele>32.9</ele>
        <time>2017-12-06T10:00:18Z</time>
      </trkpt>
      <trkpt lat="44.8817" lon="-0.75686">
        <ele>32.9</ele>
        <time>2017-12-06T10:00:20Z</time>
      </trkpt>
      <trkpt lat="44.8817" lon="-0.75695">
        <ele>32.8</ele>
        <time>2017-12-06T10:00:22Z</time>
      </trkpt>
      <trkpt lat="44.8817" lon="-0.75699">
        <ele>32.8</ele>
        <time>2017-12-06T10:00:23Z</time>
      </trkpt>
      <trkpt lat="44.88168" lon="-0.75705">
        <ele>32.7</ele>
        <time>2017-12-06T10:00:25Z</time>
      </trkpt>
      <trkpt lat="44.88169" lon="-0.7571">
        <ele>32.7</ele>
        <time>2017-12-06T10:00:26Z</time>
      </trkpt>
      <trkpt lat="44.88171" lon="-0.75716">
        <ele>32.7</ele>
        <time>2017-12-06T10:00:27Z</time>
      </trkpt>
      <trkpt lat="44.88172" lon="-0.75721">
        <ele>32.7</ele>
        <time>2017-12-06T10:00:28Z</time>
      </trkpt>
      <trkpt lat="44.8817" lon="-0.75726">
        <ele>32.6</ele>
        <time>2017-12-06T10:00:29Z</time>
      </trkpt>
      <trkpt lat="44.8817" lon="-0.75734">
        <ele>32.6</ele>
        <time>2017-12-06T10:00:30Z</time>
      </trkpt>
      <trkpt lat="44.8817" lon="-0.75741">
        <ele>32.6</ele>
        <time>2017-12-06T10:00:31Z</time>
      </trkpt>
      <trkpt lat="44.8817" lon="-0.75748">
        <ele>32.5</ele>
        <time>2017-12-06T10:00:32Z</time>
      </trkpt>
      <trkpt lat="44.8817" lon="-0.75756">
        <ele>32.5</ele>
        <time>2017-12-06T10:00:33Z</time>
      </trkpt>
      <trkpt lat="44.88169" lon="-0.75762">
        <ele>32.5</ele>
        <time>2017-12-06T10:00:34Z</time>
      </trkpt>
      <trkpt lat="44.88168" lon="-0.75768">
        <ele>32.5</ele>
        <time>2017-12-06T10:00:35Z</time>
      </trkpt>
      <trkpt lat="44.88167" lon="-0.75773">
        <ele>32.4</ele>
        <time>2017-12-06T10:00:36Z</time>
      </trkpt>
      <trkpt lat="44.88167" lon="-0.75779">
        <ele>32.4</ele>
        <time>2017-12-06T10:00:37Z</time>
      </trkpt>
      <trkpt lat="44.88167" lon="-0.75789">
        <ele>32.4</ele>
        <time>2017-12-06T10:00:39Z</time>
      </trkpt>
      <trkpt lat="44.88168" lon="-0.75795">
        <ele>32.4</ele>
        <time>2017-12-06T10:00:40Z</time>
      </trkpt>
      <trkpt lat="44.88169" lon="-0.75802">
        <ele>32.4</ele>
        <time>2017-12-06T10:00:41Z</time>
      </trkpt>
      <trkpt lat="44.88169" lon="-0.7581">
        <ele>32.4</ele>
        <time>2017-12-06T10:00:42Z</time>
      </trkpt>
      <trkpt lat="44.88168" lon="-0.75817">
        <ele>32.5</ele>
        <time>2017-12-06T10:00:43Z</time>
      </trkpt>
      <trkpt lat="44.88167" lon="-0.75826">
        <ele>32.7</ele>
        <time>2017-12-06T10:00:44Z</time>
      </trkpt>
      <trkpt lat="44.88167" lon="-0.75833">
        <ele>33</ele>
        <time>2017-12-06T10:00:45Z</time>
      </trkpt>
      <trkpt lat="44.88167" lon="-0.7584">
        <ele>33.3</ele>
        <time>2017-12-06T10:00:46Z</time>
      </trkpt>
      <trkpt lat="44.88167" lon="-0.75848">
        <ele>33.6</ele>
        <time>2017-12-06T10:00:47Z</time>
      </trkpt>
      <trkpt lat="44.88167" lon="-0.75855">
        <ele>33.7</ele>
        <time>2017-12-06T10:00:48Z</time>
      </trkpt>
      <trkpt lat="44.88167" lon="-0.75863">
        <ele>33.8</ele>
        <time>2017-12-06T10:00:49Z</time>
      </trkpt>
      <trkpt lat="44.88167" lon="-0.75868">
        <ele>33.9</ele>
        <time>2017-12-06T10:00:50Z</time>
      </trkpt>
      <trkpt lat="44.88168" lon="-0.75872">
        <ele>33.9</ele>
        <time>2017-12-06T10:00:51Z</time>
      </trkpt>
      <trkpt lat="44.88169" lon="-0.75877">
        <ele>33.9</ele>
        <time>2017-12-06T10:00:52Z</time>
      </trkpt>
      <trkpt lat="44.88171" lon="-0.75881">
        <ele>33.8</ele>
        <time>2017-12-06T10:00:53Z</time>
      </trkpt>
      <trkpt lat="44.88172" lon="-0.75888">
        <ele>33.8</ele>
        <time>2017-12-06T10:00:54Z</time>
      </trkpt>
      <trkpt lat="44.88173" lon="-0.75893">
        <ele>33.8</ele>
        <time>2017-12-06T10:00:56Z</time>
      </trkpt>
      <trkpt lat="44.88174" lon="-0.75897">
        <ele>33.8</ele>
        <time>2017-12-06T10:00:57Z</time>
      </trkpt>
      <trkpt lat="44.88175" lon="-0.75902">
        <ele>33.7</ele>
        <time>2017-12-06T10:00:58Z</time>
      </trkpt>
      <trkpt lat="44.88177" lon="-0.75909">
        <ele>33.7</ele>
        <time>2017-12-06T10:01:00Z</time>
      </trkpt>
      <trkpt lat="44.88179" lon="-0.75913">
        <ele>33.7</ele>
        <time>2017-12-06T10:01:01Z</time>
      </trkpt>
      <trkpt lat="44.8818" lon="-0.75916">
        <ele>33.6</ele>
        <time>2017-12-06T10:01:02Z</time>
      </trkpt>
      <trkpt lat="44.88183" lon="-0.75921">
        <ele>33.6</ele>
        <time>2017-12-06T10:01:03Z</time>
      </trkpt>
      <trkpt lat="44.88185" lon="-0.75924">
        <ele>33.6</ele>
        <time>2017-12-06T10:01:04Z</time>
      </trkpt>
      <trkpt lat="44.88187" lon="-0.75928">
        <ele>33.5</ele>
        <time>2017-12-06T10:01:05Z</time>
      </trkpt>
      <trkpt lat="44.88189" lon="-0.75932">
        <ele>33.5</ele>
        <time>2017-12-06T10:01:06Z</time>
      </trkpt>
      <trkpt lat="44.8819" lon="-0.75937">
        <ele>33.4</ele>
        <time>2017-12-06T10:01:07Z</time>
      </trkpt>
      <trkpt lat="44.88193" lon="-0.75941">
        <ele>33.4</ele>
        <time>2017-12-06T10:01:08Z</time>
      </trkpt>
      <trkpt lat="44.88197" lon="-0.75945">
        <ele>33.3</ele>
        <time>2017-12-06T10:01:09Z</time>
      </trkpt>
      <trkpt lat="44.88201" lon="-0.75947">
        <ele>33.3</ele>
        <time>2017-12-06T10:01:10Z</time>
      </trkpt>
      <trkpt lat="44.88205" lon="-0.75948">
        <ele>33.2</ele>
        <time>2017-12-06T10:01:11Z</time>
      </trkpt>
      <trkpt lat="44.8821" lon="-0.75949">
        <ele>33.2</ele>
        <time>2017-12-06T10:01:12Z</time>
      </trkpt>
      <trkpt lat="44.88215" lon="-0.75949">
        <ele>33.1</ele>
        <time>2017-12-06T10:01:13Z</time>
      </trkpt>
      <trkpt lat="44.8822" lon="-0.7595">
        <ele>33.1</ele>
        <time>2017-12-06T10:01:14Z</time>
      </trkpt>
      <trkpt lat="44.88224" lon="-0.75952">
        <ele>33.1</ele>
        <time>2017-12-06T10:01:15Z</time>
      </trkpt>
      <trkpt lat="44.88228" lon="-0.75954">
        <ele>33</ele>
        <time>2017-12-06T10:01:16Z</time>
      </trkpt>
      <trkpt lat="44.88231" lon="-0.75955">
        <ele>33</ele>
        <time>2017-12-06T10:01:17Z</time>
      </trkpt>
      <trkpt lat="44.88237" lon="-0.75953">
        <ele>33</ele>
        <time>2017-12-06T10:01:18Z</time>
      </trkpt>
      <trkpt lat="44.88241" lon="-0.75953">
        <ele>33</ele>
        <time>2017-12-06T10:01:19Z</time>
      </trkpt>
      <trkpt lat="44.88246" lon="-0.75953">
        <ele>33</ele>
        <time>2017-12-06T10:01:20Z</time>
      </trkpt>
      <trkpt lat="44.88251" lon="-0.75954">
        <ele>33</ele>
        <time>2017-12-06T10:01:21Z</time>
      </trkpt>
      <trkpt lat="44.88256" lon="-0.75956">
        <ele>33</ele>
        <time>2017-12-06T10:01:22Z</time>
      </trkpt>
      <trkpt lat="44.8826" lon="-0.75963">
        <ele>33</ele>
        <time>2017-12-06T10:01:24Z</time>
      </trkpt>
      <trkpt lat="44.88262" lon="-0.75967">
        <ele>33</ele>
        <time>2017-12-06T10:01:25Z</time>
      </trkpt>
      <trkpt lat="44.88264" lon="-0.75969">
        <ele>32.8</ele>
        <time>2017-12-06T10:01:26Z</time>
      </trkpt>
      <trkpt lat="44.88267" lon="-0.75972">
        <ele>32.6</ele>
        <time>2017-12-06T10:01:27Z</time>
      </trkpt>
      <trkpt lat="44.88271" lon="-0.75976">
        <ele>32.4</ele>
        <time>2017-12-06T10:01:29Z</time>
      </trkpt>
      <trkpt lat="44.88273" lon="-0.7598">
        <ele>32.2</ele>
        <time>2017-12-06T10:01:30Z</time>
      </trkpt>
      <trkpt lat="44.88275" lon="-0.75984">
        <ele>32.1</ele>
        <time>2017-12-06T10:01:31Z</time>
      </trkpt>
      <trkpt lat="44.88277" lon="-0.75988">
        <ele>31.9</ele>
        <time>2017-12-06T10:01:32Z</time>
      </trkpt>
      <trkpt lat="44.88282" lon="-0.75992">
        <ele>31.8</ele>
        <time>2017-12-06T10:01:33Z</time>
      </trkpt>
      <trkpt lat="44.88288" lon="-0.75995">
        <ele>31.7</ele>
        <time>2017-12-06T10:01:34Z</time>
      </trkpt>
      <trkpt lat="44.88293" lon="-0.75999">
        <ele>31.7</ele>
        <time>2017-12-06T10:01:35Z</time>
      </trkpt>
      <trkpt lat="44.88299" lon="-0.76002">
        <ele>31.7</ele>
        <time>2017-12-06T10:01:36Z</time>
      </trkpt>
      <trkpt lat="44.88302" lon="-0.76006">
        <ele>31.8</ele>
        <time>2017-12-06T10:01:37Z</time>
      </trkpt>
      <trkpt lat="44.88304" lon="-0.7601">
        <ele>31.8</ele>
        <time>2017-12-06T10:01:38Z</time>
      </trkpt>
      <trkpt lat="44.88306" lon="-0.76015">
        <ele>31.9</ele>
        <time>2017-12-06T10:01:39Z</time>
      </trkpt>
      <trkpt lat="44.88307" lon="-0.76019">
        <ele>32</ele>
        <time>2017-12-06T10:01:40Z</time>
      </trkpt>
      <trkpt lat="44.8831" lon="-0.76024">
        <ele>32</ele>
        <time>2017-12-06T10:01:41Z</time>
      </trkpt>
      <trkpt lat="44.88313" lon="-0.76029">
        <ele>32.1</ele>
        <time>2017-12-06T10:01:42Z</time>
      </trkpt>
      <trkpt lat="44.88316" lon="-0.76034">
        <ele>32.2</ele>
        <time>2017-12-06T10:01:43Z</time>
      </trkpt>
      <trkpt lat="44.88317" lon="-0.7604">
        <ele>32.2</ele>
        <time>2017-12-06T10:01:44Z</time>
      </trkpt>
      <trkpt lat="44.88319" lon="-0.76046">
        <ele>32.3</ele>
        <time>2017-12-06T10:01:45Z</time>
      </trkpt>
      <trkpt lat="44.88321" lon="-0.76051">
        <ele>32.4</ele>
        <time>2017-12-06T10:01:46Z</time>
      </trkpt>
      <trkpt lat="44.88324" lon="-0.76058">
        <ele>32.5</ele>
        <time>2017-12-06T10:01:47Z</time>
      </trkpt>
      <trkpt lat="44.88327" lon="-0.76065">
        <ele>32.6</ele>
        <time>2017-12-06T10:01:48Z</time>
      </trkpt>
      <trkpt lat="44.88327" lon="-0.7607">
        <ele>32.6</ele>
        <time>2017-12-06T10:01:49Z</time>
      </trkpt>
      <trkpt lat="44.88326" lon="-0.76075">
        <ele>32.7</ele>
        <time>2017-12-06T10:01:50Z</time>
      </trkpt>
      <trkpt lat="44.88327" lon="-0.7608">
        <ele>32.7</ele>
        <time>2017-12-06T10:01:51Z</time>
      </trkpt>
      <trkpt lat="44.88329" lon="-0.76085">
        <ele>32.8</ele>
        <time>2017-12-06T10:01:52Z</time>
      </trkpt>
      <trkpt lat="44.88331" lon="-0.76091">
        <ele>32.8</ele>
        <time>2017-12-06T10:01:53Z</time>
      </trkpt>
      <trkpt lat="44.88333" lon="-0.76098">
        <ele>32.9</ele>
        <time>2017-12-06T10:01:54Z</time>
      </trkpt>
      <trkpt lat="44.88336" lon="-0.76104">
        <ele>33</ele>
        <time>2017-12-06T10:01:55Z</time>
      </trkpt>
      <trkpt lat="44.88341" lon="-0.76109">
        <ele>33.1</ele>
        <time>2017-12-06T10:01:56Z</time>
      </trkpt>
      <trkpt lat="44.88345" lon="-0.76113">
        <ele>33.2</ele>
        <time>2017-12-06T10:01:57Z</time>
      </trkpt>
      <trkpt lat="44.88347" lon="-0.76116">
        <ele>33.2</ele>
        <time>2017-12-06T10:01:58Z</time>
      </trkpt>
      <trkpt lat="44.88346" lon="-0.7612">
        <ele>33.3</ele>
        <time>2017-12-06T10:01:59Z</time>
      </trkpt>
      <trkpt lat="44.88346" lon="-0.76124">
        <ele>33.3</ele>
        <time>2017-12-06T10:02:00Z</time>
      </trkpt>
      <trkpt lat="44.88351" lon="-0.76131">
        <ele>33.5</ele>
        <time>2017-12-06T10:02:02Z</time>
      </trkpt>
      <trkpt lat="44.88354" lon="-0.76135">
        <ele>33.6</ele>
        <time>2017-12-06T10:02:03Z</time>
      </trkpt>
      <trkpt lat="44.88356" lon="-0.76139">
        <ele>33.7</ele>
        <time>2017-12-06T10:02:04Z</time>
      </trkpt>
      <trkpt lat="44.88358" lon="-0.76143">
        <ele>33.8</ele>
        <time>2017-12-06T10:02:05Z</time>
      </trkpt>
      <trkpt lat="44.8836" lon="-0.76148">
        <ele>33.9</ele>
        <time>2017-12-06T10:02:06Z</time>
      </trkpt>
      <trkpt lat="44.8836" lon="-0.76154">
        <ele>34</ele>
        <time>2017-12-06T10:02:08Z</time>
      </trkpt>
      <trkpt lat="44.88362" lon="-0.76161">
        <ele>33.9</ele>
        <time>2017-12-06T10:02:09Z</time>
      </trkpt>
      <trkpt lat="44.88364" lon="-0.76166">
        <ele>33.8</ele>
        <time>2017-12-06T10:02:10Z</time>
      </trkpt>
      <trkpt lat="44.88367" lon="-0.7617">
        <ele>33.7</ele>
        <time>2017-12-06T10:02:11Z</time>
      </trkpt>
      <trkpt lat="44.88369" lon="-0.76174">
        <ele>33.6</ele>
        <time>2017-12-06T10:02:12Z</time>
      </trkpt>
      <trkpt lat="44.88371" lon="-0.7618">
        <ele>33.5</ele>
        <time>2017-12-06T10:02:14Z</time>
      </trkpt>
      <trkpt lat="44.88372" lon="-0.76185">
        <ele>33.4</ele>
        <time>2017-12-06T10:02:15Z</time>
      </trkpt>
      <trkpt lat="44.88372" lon="-0.76191">
        <ele>33.4</ele>
        <time>2017-12-06T10:02:16Z</time>
      </trkpt>
      <trkpt lat="44.88372" lon="-0.76197">
        <ele>33.3</ele>
        <time>2017-12-06T10:02:17Z</time>
      </trkpt>
      <trkpt lat="44.88372" lon="-0.76202">
        <ele>33.2</ele>
        <time>2017-12-06T10:02:18Z</time>
      </trkpt>
      <trkpt lat="44.88371" lon="-0.76209">
        <ele>33.2</ele>
        <time>2017-12-06T10:02:19Z</time>
      </trkpt>
      <trkpt lat="44.88373" lon="-0.76213">
        <ele>33.2</ele>
        <time>2017-12-06T10:02:20Z</time>
      </trkpt>
      <trkpt lat="44.88376" lon="-0.76218">
        <ele>33.2</ele>
        <time>2017-12-06T10:02:21Z</time>
      </trkpt>
      <trkpt lat="44.8838" lon="-0.76222">
        <ele>33.4</ele>
        <time>2017-12-06T10:02:22Z</time>
      </trkpt>
      <trkpt lat="44.88384" lon="-0.76226">
        <ele>33.6</ele>
        <time>2017-12-06T10:02:23Z</time>
      </trkpt>
      <trkpt lat="44.88388" lon="-0.76231">
        <ele>33.8</ele>
        <time>2017-12-06T10:02:24Z</time>
      </trkpt>
      <trkpt lat="44.88391" lon="-0.76236">
        <ele>34</ele>
        <time>2017-12-06T10:02:25Z</time>
      </trkpt>
      <trkpt lat="44.88394" lon="-0.7624">
        <ele>34.1</ele>
        <time>2017-12-06T10:02:26Z</time>
      </trkpt>
      <trkpt lat="44.88396" lon="-0.76245">
        <ele>34.2</ele>
        <time>2017-12-06T10:02:27Z</time>
      </trkpt>
      <trkpt lat="44.88399" lon="-0.76249">
        <ele>34.2</ele>
        <time>2017-12-06T10:02:28Z</time>
      </trkpt>
      <trkpt lat="44.88403" lon="-0.76255">
        <ele>34.3</ele>
        <time>2017-12-06T10:02:29Z</time>
      </trkpt>
      <trkpt lat="44.88405" lon="-0.76261">
        <ele>34.3</ele>
        <time>2017-12-06T10:02:30Z</time>
      </trkpt>
      <trkpt lat="44.88408" lon="-0.76267">
        <ele>34.3</ele>
        <time>2017-12-06T10:02:31Z</time>
      </trkpt>
      <trkpt lat="44.8841" lon="-0.7627">
        <ele>34.3</ele>
        <time>2017-12-06T10:02:32Z</time>
      </trkpt>
      <trkpt lat="44.88412" lon="-0.76275">
        <ele>34.2</ele>
        <time>2017-12-06T10:02:33Z</time>
      </trkpt>
      <trkpt lat="44.88415" lon="-0.7628">
        <ele>34.2</ele>
        <time>2017-12-06T10:02:34Z</time>
      </trkpt>
      <trkpt lat="44.88418" lon="-0.76285">
        <ele>34.1</ele>
        <time>2017-12-06T10:02:35Z</time>
      </trkpt>
      <trkpt lat="44.88421" lon="-0.76288">
        <ele>34.1</ele>
        <time>2017-12-06T10:02:36Z</time>
      </trkpt>
      <trkpt lat="44.88424" lon="-0.76292">
        <ele>34</ele>
        <time>2017-12-06T10:02:37Z</time>
      </trkpt>
      <trkpt lat="44.88427" lon="-0.76298">
        <ele>33.9</ele>
        <time>2017-12-06T10:02:38Z</time>
      </trkpt>
      <trkpt lat="44.88428" lon="-0.76305">
        <ele>33.8</ele>
        <time>2017-12-06T10:02:39Z</time>
      </trkpt>
      <trkpt lat="44.88429" lon="-0.76312">
        <ele>33.7</ele>
        <time>2017-12-06T10:02:40Z</time>
      </trkpt>
      <trkpt lat="44.8843" lon="-0.76317">
        <ele>33.7</ele>
        <time>2017-12-06T10:02:41Z</time>
      </trkpt>
      <trkpt lat="44.88433" lon="-0.76324">
        <ele>33.6</ele>
        <time>2017-12-06T10:02:42Z</time>
      </trkpt>
      <trkpt lat="44.88436" lon="-0.76329">
        <ele>33.5</ele>
        <time>2017-12-06T10:02:43Z</time>
      </trkpt>
      <trkpt lat="44.88439" lon="-0.76336">
        <ele>33.4</ele>
        <time>2017-12-06T10:02:44Z</time>
      </trkpt>
      <trkpt lat="44.88442" lon="-0.76342">
        <ele>33.3</ele>
        <time>2017-12-06T10:02:45Z</time>
      </trkpt>
      <trkpt lat="44.88444" lon="-0.76347">
        <ele>33.3</ele>
        <time>2017-12-06T10:02:46Z</time>
      </trkpt>
      <trkpt lat="44.88446" lon="-0.76353">
        <ele>33.2</ele>
        <time>2017-12-06T10:02:47Z</time>
      </trkpt>
      <trkpt lat="44.88448" lon="-0.76359">
        <ele>33.2</ele>
        <time>2017-12-06T10:02:48Z</time>
      </trkpt>
      <trkpt lat="44.88451" lon="-0.76364">
        <ele>33.1</ele>
        <time>2017-12-06T10:02:49Z</time>
      </trkpt>
      <trkpt lat="44.88453" lon="-0.7637">
        <ele>33</ele>
        <time>2017-12-06T10:02:50Z</time>
      </trkpt>
      <trkpt lat="44.88456" lon="-0.76376">
        <ele>33</ele>
        <time>2017-12-06T10:02:51Z</time>
      </trkpt>
      <trkpt lat="44.88458" lon="-0.76383">
        <ele>32.9</ele>
        <time>2017-12-06T10:02:52Z</time>
      </trkpt>
      <trkpt lat="44.8846" lon="-0.76388">
        <ele>32.9</ele>
        <time>2017-12-06T10:02:53Z</time>
      </trkpt>
      <trkpt lat="44.88463" lon="-0.76392">
        <ele>32.8</ele>
        <time>2017-12-06T10:02:54Z</time>
      </trkpt>
      <trkpt lat="44.88465" lon="-0.76397">
        <ele>32.8</ele>
        <time>2017-12-06T10:02:55Z</time>
      </trkpt>
      <trkpt lat="44.88466" lon="-0.76403">
        <ele>32.7</ele>
        <time>2017-12-06T10:02:56Z</time>
      </trkpt>
      <trkpt lat="44.88467" lon="-0.76407">
        <ele>32.7</ele>
        <time>2017-12-06T10:02:57Z</time>
      </trkpt>
      <trkpt lat="44.8847" lon="-0.76411">
        <ele>32.6</ele>
        <time>2017-12-06T10:02:59Z</time>
      </trkpt>
      <trkpt lat="44.88476" lon="-0.76416">
        <ele>32.5</ele>
        <time>2017-12-06T10:03:01Z</time>
      </trkpt>
      <trkpt lat="44.88479" lon="-0.76418">
        <ele>32.5</ele>
        <time>2017-12-06T10:03:02Z</time>
      </trkpt>
      <trkpt lat="44.88483" lon="-0.76421">
        <ele>32.4</ele>
        <time>2017-12-06T10:03:03Z</time>
      </trkpt>
      <trkpt lat="44.88486" lon="-0.76423">
        <ele>32.3</ele>
        <time>2017-12-06T10:03:04Z</time>
      </trkpt>
      <trkpt lat="44.88491" lon="-0.76425">
        <ele>32.3</ele>
        <time>2017-12-06T10:03:05Z</time>
      </trkpt>
      <trkpt lat="44.88496" lon="-0.76428">
        <ele>32.2</ele>
        <time>2017-12-06T10:03:06Z</time>
      </trkpt>
      <trkpt lat="44.885" lon="-0.76431">
        <ele>32.1</ele>
        <time>2017-12-06T10:03:07Z</time>
      </trkpt>
      <trkpt lat="44.88504" lon="-0.76435">
        <ele>32.1</ele>
        <time>2017-12-06T10:03:08Z</time>
      </trkpt>
      <trkpt lat="44.88507" lon="-0.76439">
        <ele>32</ele>
        <time>2017-12-06T10:03:09Z</time>
      </trkpt>
      <trkpt lat="44.88508" lon="-0.76445">
        <ele>32</ele>
        <time>2017-12-06T10:03:10Z</time>
      </trkpt>
      <trkpt lat="44.88509" lon="-0.7645">
        <ele>32</ele>
        <time>2017-12-06T10:03:11Z</time>
      </trkpt>
      <trkpt lat="44.8851" lon="-0.76454">
        <ele>32</ele>
        <time>2017-12-06T10:03:12Z</time>
      </trkpt>
      <trkpt lat="44.88511" lon="-0.76461">
        <ele>32</ele>
        <time>2017-12-06T10:03:14Z</time>
      </trkpt>
      <trkpt lat="44.88513" lon="-0.76465">
        <ele>32</ele>
        <time>2017-12-06T10:03:15Z</time>
      </trkpt>
      <trkpt lat="44.88514" lon="-0.7647">
        <ele>31.9</ele>
        <time>2017-12-06T10:03:16Z</time>
      </trkpt>
      <trkpt lat="44.88517" lon="-0.76474">
        <ele>31.9</ele>
        <time>2017-12-06T10:03:17Z</time>
      </trkpt>
      <trkpt lat="44.88522" lon="-0.76479">
        <ele>31.9</ele>
        <time>2017-12-06T10:03:18Z</time>
      </trkpt>
      <trkpt lat="44.88525" lon="-0.76484">
        <ele>31.9</ele>
        <time>2017-12-06T10:03:19Z</time>
      </trkpt>
      <trkpt lat="44.88529" lon="-0.76489">
        <ele>31.9</ele>
        <time>2017-12-06T10:03:20Z</time>
      </trkpt>
      <trkpt lat="44.88533" lon="-0.7649">
        <ele>31.9</ele>
        <time>2017-12-06T10:03:21Z</time>
      </trkpt>
      <trkpt lat="44.88537" lon="-0.76492">
        <ele>31.9</ele>
        <time>2017-12-06T10:03:22Z</time>
      </trkpt>
      <trkpt lat="44.88542" lon="-0.76496">
        <ele>31.9</ele>
        <time>2017-12-06T10:03:23Z</time>
      </trkpt>
      <trkpt lat="44.88545" lon="-0.76498">
        <ele>31.9</ele>
        <time>2017-12-06T10:03:24Z</time>
      </trkpt>
      <trkpt lat="44.88549" lon="-0.76501">
        <ele>31.9</ele>
        <time>2017-12-06T10:03:25Z</time>
      </trkpt>
      <trkpt lat="44.88553" lon="-0.76504">
        <ele>31.8</ele>
        <time>2017-12-06T10:03:26Z</time>
      </trkpt>
      <trkpt lat="44.88557" lon="-0.76506">
        <ele>31.8</ele>
        <time>2017-12-06T10:03:27Z</time>
      </trkpt>
      <trkpt lat="44.8856" lon="-0.76509">
        <ele>31.8</ele>
        <time>2017-12-06T10:03:28Z</time>
      </trkpt>
      <trkpt lat="44.88564" lon="-0.76513">
        <ele>31.9</ele>
        <time>2017-12-06T10:03:29Z</time>
      </trkpt>
      <trkpt lat="44.88568" lon="-0.76517">
        <ele>31.9</ele>
        <time>2017-12-06T10:03:30Z</time>
      </trkpt>
      <trkpt lat="44.88571" lon="-0.7652">
        <ele>31.9</ele>
        <time>2017-12-06T10:03:31Z</time>
      </trkpt>
      <trkpt lat="44.88575" lon="-0.76524">
        <ele>32.1</ele>
        <time>2017-12-06T10:03:32Z</time>
      </trkpt>
      <trkpt lat="44.88579" lon="-0.76528">
        <ele>32.3</ele>
        <time>2017-12-06T10:03:33Z</time>
      </trkpt>
      <trkpt lat="44.88579" lon="-0.76534">
        <ele>32.5</ele>
        <time>2017-12-06T10:03:34Z</time>
      </trkpt>
      <trkpt lat="44.88579" lon="-0.76541">
        <ele>32.8</ele>
        <time>2017-12-06T10:03:35Z</time>
      </trkpt>
      <trkpt lat="44.88577" lon="-0.76543">
        <ele>33</ele>
        <time>2017-12-06T10:03:36Z</time>
      </trkpt>
      <trkpt lat="44.88573" lon="-0.76544">
        <ele>33.2</ele>
        <time>2017-12-06T10:03:38Z</time>
      </trkpt>
      <trkpt lat="44.8857" lon="-0.76545">
        <ele>33.3</ele>
        <time>2017-12-06T10:03:39Z</time>
      </trkpt>
      <trkpt lat="44.88567" lon="-0.76546">
        <ele>33.4</ele>
        <time>2017-12-06T10:03:40Z</time>
      </trkpt>
      <trkpt lat="44.88561" lon="-0.76549">
        <ele>33.5</ele>
        <time>2017-12-06T10:03:42Z</time>
      </trkpt>
      <trkpt lat="44.88556" lon="-0.76552">
        <ele>33.6</ele>
        <time>2017-12-06T10:03:44Z</time>
      </trkpt>
      <trkpt lat="44.88553" lon="-0.76555">
        <ele>33.6</ele>
        <time>2017-12-06T10:03:45Z</time>
      </trkpt>
      <trkpt lat="44.88551" lon="-0.76559">
        <ele>33.6</ele>
        <time>2017-12-06T10:03:46Z</time>
      </trkpt>
      <trkpt lat="44.88548" lon="-0.76561">
        <ele>33.6</ele>
        <time>2017-12-06T10:03:47Z</time>
      </trkpt>
      <trkpt lat="44.88547" lon="-0.76571">
        <ele>33.6</ele>
        <time>2017-12-06T10:03:49Z</time>
      </trkpt>
      <trkpt lat="44.88545" lon="-0.76575">
        <ele>33.6</ele>
        <time>2017-12-06T10:03:50Z</time>
      </trkpt>
      <trkpt lat="44.88544" lon="-0.76582">
        <ele>33.6</ele>
        <time>2017-12-06T10:03:51Z</time>
      </trkpt>
      <trkpt lat="44.88544" lon="-0.76587">
        <ele>33.6</ele>
        <time>2017-12-06T10:03:52Z</time>
      </trkpt>
      <trkpt lat="44.88546" lon="-0.76594">
        <ele>33.6</ele>
        <time>2017-12-06T10:03:53Z</time>
      </trkpt>
      <trkpt lat="44.88549" lon="-0.76601">
        <ele>33.5</ele>
        <time>2017-12-06T10:03:54Z</time>
      </trkpt>
      <trkpt lat="44.8855" lon="-0.76609">
        <ele>33.5</ele>
        <time>2017-12-06T10:03:55Z</time>
      </trkpt>
      <trkpt lat="44.88549" lon="-0.76616">
        <ele>33.5</ele>
        <time>2017-12-06T10:03:56Z</time>
      </trkpt>
      <trkpt lat="44.88549" lon="-0.76623">
        <ele>33.5</ele>
        <time>2017-12-06T10:03:57Z</time>
      </trkpt>
      <trkpt lat="44.88546" lon="-0.76628">
        <ele>33.5</ele>
        <time>2017-12-06T10:03:58Z</time>
      </trkpt>
      <trkpt lat="44.88543" lon="-0.76631">
        <ele>33.5</ele>
        <time>2017-12-06T10:03:59Z</time>
      </trkpt>
      <trkpt lat="44.88539" lon="-0.76633">
        <ele>33.5</ele>
        <time>2017-12-06T10:04:00Z</time>
      </trkpt>
      <trkpt lat="44.88536" lon="-0.76636">
        <ele>33.5</ele>
        <time>2017-12-06T10:04:01Z</time>
      </trkpt>
      <trkpt lat="44.88535" lon="-0.7664">
        <ele>33.5</ele>
        <time>2017-12-06T10:04:02Z</time>
      </trkpt>
      <trkpt lat="44.88534" lon="-0.76645">
        <ele>33.5</ele>
        <time>2017-12-06T10:04:03Z</time>
      </trkpt>
      <trkpt lat="44.88533" lon="-0.76651">
        <ele>33.4</ele>
        <time>2017-12-06T10:04:04Z</time>
      </trkpt>
      <trkpt lat="44.88533" lon="-0.76658">
        <ele>33.4</ele>
        <time>2017-12-06T10:04:05Z</time>
      </trkpt>
      <trkpt lat="44.88534" lon="-0.76667">
        <ele>33.4</ele>
        <time>2017-12-06T10:04:06Z</time>
      </trkpt>
      <trkpt lat="44.88533" lon="-0.76674">
        <ele>33.4</ele>
        <time>2017-12-06T10:04:07Z</time>
      </trkpt>
      <trkpt lat="44.88535" lon="-0.76682">
        <ele>33.4</ele>
        <time>2017-12-06T10:04:08Z</time>
      </trkpt>
      <trkpt lat="44.88538" lon="-0.76688">
        <ele>33.4</ele>
        <time>2017-12-06T10:04:09Z</time>
      </trkpt>
      <trkpt lat="44.8854" lon="-0.76695">
        <ele>33.4</ele>
        <time>2017-12-06T10:04:10Z</time>
      </trkpt>
      <trkpt lat="44.88544" lon="-0.76699">
        <ele>33.3</ele>
        <time>2017-12-06T10:04:11Z</time>
      </trkpt>
      <trkpt lat="44.88548" lon="-0.76702">
        <ele>33.3</ele>
        <time>2017-12-06T10:04:12Z</time>
      </trkpt>
      <trkpt lat="44.88552" lon="-0.76703">
        <ele>33.3</ele>
        <time>2017-12-06T10:04:13Z</time>
      </trkpt>
      <trkpt lat="44.88556" lon="-0.76705">
        <ele>33.3</ele>
        <time>2017-12-06T10:04:14Z</time>
      </trkpt>
      <trkpt lat="44.88559" lon="-0.76711">
        <ele>33.3</ele>
        <time>2017-12-06T10:04:15Z</time>
      </trkpt>
      <trkpt lat="44.88561" lon="-0.76717">
        <ele>33.3</ele>
        <time>2017-12-06T10:04:16Z</time>
      </trkpt>
      <trkpt lat="44.88564" lon="-0.76721">
        <ele>33.3</ele>
        <time>2017-12-06T10:04:17Z</time>
      </trkpt>
      <trkpt lat="44.88567" lon="-0.76726">
        <ele>33.2</ele>
        <time>2017-12-06T10:04:18Z</time>
      </trkpt>
      <trkpt lat="44.8857" lon="-0.7673">
        <ele>33.2</ele>
        <time>2017-12-06T10:04:19Z</time>
      </trkpt>
      <trkpt lat="44.88572" lon="-0.76736">
        <ele>33.2</ele>
        <time>2017-12-06T10:04:20Z</time>
      </trkpt>
      <trkpt lat="44.88574" lon="-0.76741">
        <ele>33.2</ele>
        <time>2017-12-06T10:04:21Z</time>
      </trkpt>
      <trkpt lat="44.88575" lon="-0.76746">
        <ele>33.2</ele>
        <time>2017-12-06T10:04:22Z</time>
      </trkpt>
      <trkpt lat="44.88574" lon="-0.76752">
        <ele>33.2</ele>
        <time>2017-12-06T10:04:23Z</time>
      </trkpt>
      <trkpt lat="44.88574" lon="-0.76758">
        <ele>33.2</ele>
        <time>2017-12-06T10:04:24Z</time>
      </trkpt>
      <trkpt lat="44.88575" lon="-0.76763">
        <ele>33.2</ele>
        <time>2017-12-06T10:04:25Z</time>
      </trkpt>
      <trkpt lat="44.88579" lon="-0.76768">
        <ele>33.2</ele>
        <time>2017-12-06T10:04:26Z</time>
      </trkpt>
      <trkpt lat="44.88583" lon="-0.7677">
        <ele>33.2</ele>
        <time>2017-12-06T10:04:27Z</time>
      </trkpt>
      <trkpt lat="44.88586" lon="-0.76775">
        <ele>33.2</ele>
        <time>2017-12-06T10:04:28Z</time>
      </trkpt>
      <trkpt lat="44.88588" lon="-0.76781">
        <ele>33.3</ele>
        <time>2017-12-06T10:04:29Z</time>
      </trkpt>
      <trkpt lat="44.88591" lon="-0.76786">
        <ele>33.3</ele>
        <time>2017-12-06T10:04:30Z</time>
      </trkpt>
      <trkpt lat="44.88593" lon="-0.76791">
        <ele>33.4</ele>
        <time>2017-12-06T10:04:31Z</time>
      </trkpt>
      <trkpt lat="44.88595" lon="-0.76796">
        <ele>33.6</ele>
        <time>2017-12-06T10:04:32Z</time>
      </trkpt>
      <trkpt lat="44.88598" lon="-0.76804">
        <ele>33.8</ele>
        <time>2017-12-06T10:04:34Z</time>
      </trkpt>
      <trkpt lat="44.886" lon="-0.76807">
        <ele>34</ele>
        <time>2017-12-06T10:04:35Z</time>
      </trkpt>
      <trkpt lat="44.88603" lon="-0.76812">
        <ele>34.3</ele>
        <time>2017-12-06T10:04:36Z</time>
      </trkpt>
      <trkpt lat="44.88606" lon="-0.76815">
        <ele>34.5</ele>
        <time>2017-12-06T10:04:37Z</time>
      </trkpt>
      <trkpt lat="44.88609" lon="-0.76819">
        <ele>34.7</ele>
        <time>2017-12-06T10:04:38Z</time>
      </trkpt>
      <trkpt lat="44.88611" lon="-0.76824">
        <ele>34.8</ele>
        <time>2017-12-06T10:04:39Z</time>
      </trkpt>
      <trkpt lat="44.88613" lon="-0.7683">
        <ele>35</ele>
        <time>2017-12-06T10:04:40Z</time>
      </trkpt>
      <trkpt lat="44.88615" lon="-0.76834">
        <ele>35.1</ele>
        <time>2017-12-06T10:04:41Z</time>
      </trkpt>
      <trkpt lat="44.88619" lon="-0.76842">
        <ele>35.2</ele>
        <time>2017-12-06T10:04:43Z</time>
      </trkpt>
      <trkpt lat="44.88621" lon="-0.76847">
        <ele>35.2</ele>
        <time>2017-12-06T10:04:44Z</time>
      </trkpt>
      <trkpt lat="44.88624" lon="-0.76852">
        <ele>35.2</ele>
        <time>2017-12-06T10:04:45Z</time>
      </trkpt>
      <trkpt lat="44.88626" lon="-0.76858">
        <ele>35.1</ele>
        <time>2017-12-06T10:04:46Z</time>
      </trkpt>
      <trkpt lat="44.88628" lon="-0.76861">
        <ele>35.1</ele>
        <time>2017-12-06T10:04:47Z</time>
      </trkpt>
      <trkpt lat="44.8863" lon="-0.76865">
        <ele>35.1</ele>
        <time>2017-12-06T10:04:48Z</time>
      </trkpt>
      <trkpt lat="44.88634" lon="-0.7687">
        <ele>35.1</ele>
        <time>2017-12-06T10:04:49Z</time>
      </trkpt>
      <trkpt lat="44.88639" lon="-0.76875">
        <ele>35.1</ele>
        <time>2017-12-06T10:04:50Z</time>
      </trkpt>
      <trkpt lat="44.88643" lon="-0.76879">
        <ele>35.1</ele>
        <time>2017-12-06T10:04:51Z</time>
      </trkpt>
      <trkpt lat="44.88647" lon="-0.76883">
        <ele>35.1</ele>
        <time>2017-12-06T10:04:52Z</time>
      </trkpt>
      <trkpt lat="44.8865" lon="-0.76886">
        <ele>35</ele>
        <time>2017-12-06T10:04:53Z</time>
      </trkpt>
      <trkpt lat="44.88654" lon="-0.7689">
        <ele>35</ele>
        <time>2017-12-06T10:04:54Z</time>
      </trkpt>
      <trkpt lat="44.88658" lon="-0.76894">
        <ele>35</ele>
        <time>2017-12-06T10:04:55Z</time>
      </trkpt>
      <trkpt lat="44.88661" lon="-0.76898">
        <ele>35</ele>
        <time>2017-12-06T10:04:56Z</time>
      </trkpt>
      <trkpt lat="44.88663" lon="-0.76902">
        <ele>35.1</ele>
        <time>2017-12-06T10:04:57Z</time>
      </trkpt>
      <trkpt lat="44.88666" lon="-0.76905">
        <ele>35.2</ele>
        <time>2017-12-06T10:04:58Z</time>
      </trkpt>
      <trkpt lat="44.88669" lon="-0.76906">
        <ele>35.3</ele>
        <time>2017-12-06T10:04:59Z</time>
      </trkpt>
      <trkpt lat="44.88674" lon="-0.76905">
        <ele>35.5</ele>
        <time>2017-12-06T10:05:00Z</time>
      </trkpt>
      <trkpt lat="44.88677" lon="-0.76905">
        <ele>35.6</ele>
        <time>2017-12-06T10:05:01Z</time>
      </trkpt>
      <trkpt lat="44.88681" lon="-0.76907">
        <ele>35.8</ele>
        <time>2017-12-06T10:05:02Z</time>
      </trkpt>
      <trkpt lat="44.88685" lon="-0.7691">
        <ele>36</ele>
        <time>2017-12-06T10:05:03Z</time>
      </trkpt>
      <trkpt lat="44.88686" lon="-0.76915">
        <ele>36.2</ele>
        <time>2017-12-06T10:05:04Z</time>
      </trkpt>
      <trkpt lat="44.88689" lon="-0.76919">
        <ele>36.3</ele>
        <time>2017-12-06T10:05:05Z</time>
      </trkpt>
      <trkpt lat="44.88691" lon="-0.76923">
        <ele>36.4</ele>
        <time>2017-12-06T10:05:06Z</time>
      </trkpt>
      <trkpt lat="44.88693" lon="-0.76928">
        <ele>36.5</ele>
        <time>2017-12-06T10:05:07Z</time>
      </trkpt>
      <trkpt lat="44.88694" lon="-0.76933">
        <ele>36.6</ele>
        <time>2017-12-06T10:05:08Z</time>
      </trkpt>
      <trkpt lat="44.88696" lon="-0.76937">
        <ele>36.7</ele>
        <time>2017-12-06T10:05:09Z</time>
      </trkpt>
      <trkpt lat="44.88699" lon="-0.76942">
        <ele>36.8</ele>
        <time>2017-12-06T10:05:10Z</time>
      </trkpt>
      <trkpt lat="44.887" lon="-0.76949">
        <ele>36.9</ele>
        <time>2017-12-06T10:05:11Z</time>
      </trkpt>
      <trkpt lat="44.88704" lon="-0.76954">
        <ele>37.1</ele>
        <time>2017-12-06T10:05:12Z</time>
      </trkpt>
      <trkpt lat="44.88708" lon="-0.7696">
        <ele>37.2</ele>
        <time>2017-12-06T10:05:13Z</time>
      </trkpt>
      <trkpt lat="44.88711" lon="-0.76968">
        <ele>37.4</ele>
        <time>2017-12-06T10:05:14Z</time>
      </trkpt>
      <trkpt lat="44.88712" lon="-0.76975">
        <ele>37.5</ele>
        <time>2017-12-06T10:05:15Z</time>
      </trkpt>
      <trkpt lat="44.88713" lon="-0.76981">
        <ele>37.6</ele>
        <time>2017-12-06T10:05:16Z</time>
      </trkpt>
      <trkpt lat="44.88717" lon="-0.76986">
        <ele>37.7</ele>
        <time>2017-12-06T10:05:17Z</time>
      </trkpt>
      <trkpt lat="44.88721" lon="-0.7699">
        <ele>37.9</ele>
        <time>2017-12-06T10:05:18Z</time>
      </trkpt>
      <trkpt lat="44.88726" lon="-0.76993">
        <ele>38</ele>
        <time>2017-12-06T10:05:19Z</time>
      </trkpt>
      <trkpt lat="44.8873" lon="-0.76996">
        <ele>38.1</ele>
        <time>2017-12-06T10:05:20Z</time>
      </trkpt>
      <trkpt lat="44.88734" lon="-0.76999">
        <ele>38.2</ele>
        <time>2017-12-06T10:05:21Z</time>
      </trkpt>
      <trkpt lat="44.88738" lon="-0.77003">
        <ele>38.3</ele>
        <time>2017-12-06T10:05:22Z</time>
      </trkpt>
      <trkpt lat="44.88743" lon="-0.77005">
        <ele>38.4</ele>
        <time>2017-12-06T10:05:23Z</time>
      </trkpt>
      <trkpt lat="44.88747" lon="-0.77005">
        <ele>38.5</ele>
        <time>2017-12-06T10:05:24Z</time>
      </trkpt>
      <trkpt lat="44.88751" lon="-0.77006">
        <ele>38.6</ele>
        <time>2017-12-06T10:05:25Z</time>
      </trkpt>
      <trkpt lat="44.88756" lon="-0.77007">
        <ele>38.7</ele>
        <time>2017-12-06T10:05:26Z</time>
      </trkpt>
      <trkpt lat="44.8876" lon="-0.77008">
        <ele>38.8</ele>
        <time>2017-12-06T10:05:27Z</time>
      </trkpt>
      <trkpt lat="44.88764" lon="-0.77007">
        <ele>38.8</ele>
        <time>2017-12-06T10:05:28Z</time>
      </trkpt>
      <trkpt lat="44.88769" lon="-0.77008">
        <ele>38.9</ele>
        <time>2017-12-06T10:05:29Z</time>
      </trkpt>
      <trkpt lat="44.88774" lon="-0.77008">
        <ele>39</ele>
        <time>2017-12-06T10:05:30Z</time>
      </trkpt>
      <trkpt lat="44.88778" lon="-0.77007">
        <ele>39.1</ele>
        <time>2017-12-06T10:05:31Z</time>
      </trkpt>
      <trkpt lat="44.88783" lon="-0.77005">
        <ele>39.2</ele>
        <time>2017-12-06T10:05:32Z</time>
      </trkpt>
      <trkpt lat="44.88788" lon="-0.77004">
        <ele>39.3</ele>
        <time>2017-12-06T10:05:33Z</time>
      </trkpt>
      <trkpt lat="44.88793" lon="-0.77003">
        <ele>39.4</ele>
        <time>2017-12-06T10:05:34Z</time>
      </trkpt>
      <trkpt lat="44.88798" lon="-0.77004">
        <ele>39.5</ele>
        <time>2017-12-06T10:05:35Z</time>
      </trkpt>
      <trkpt lat="44.88802" lon="-0.77006">
        <ele>39.6</ele>
        <time>2017-12-06T10:05:36Z</time>
      </trkpt>
      <trkpt lat="44.88806" lon="-0.77007">
        <ele>39.7</ele>
        <time>2017-12-06T10:05:37Z</time>
      </trkpt>
      <trkpt lat="44.88811" lon="-0.7701">
        <ele>40</ele>
        <time>2017-12-06T10:05:38Z</time>
      </trkpt>
      <trkpt lat="44.88814" lon="-0.77015">
        <ele>40.1</ele>
        <time>2017-12-06T10:05:39Z</time>
      </trkpt>
      <trkpt lat="44.88818" lon="-0.77019">
        <ele>40.3</ele>
        <time>2017-12-06T10:05:40Z</time>
      </trkpt>
      <trkpt lat="44.88821" lon="-0.77022">
        <ele>40.5</ele>
        <time>2017-12-06T10:05:41Z</time>
      </trkpt>
      <trkpt lat="44.88824" lon="-0.77025">
        <ele>40.6</ele>
        <time>2017-12-06T10:05:42Z</time>
      </trkpt>
      <trkpt lat="44.88827" lon="-0.77028">
        <ele>40.7</ele>
        <time>2017-12-06T10:05:43Z</time>
      </trkpt>
      <trkpt lat="44.88831" lon="-0.77031">
        <ele>40.9</ele>
        <time>2017-12-06T10:05:44Z</time>
      </trkpt>
      <trkpt lat="44.88835" lon="-0.77034">
        <ele>41</ele>
        <time>2017-12-06T10:05:45Z</time>
      </trkpt>
      <trkpt lat="44.88839" lon="-0.77037">
        <ele>41.2</ele>
        <time>2017-12-06T10:05:46Z</time>
      </trkpt>
      <trkpt lat="44.88841" lon="-0.77041">
        <ele>41.3</ele>
        <time>2017-12-06T10:05:47Z</time>
      </trkpt>
      <trkpt lat="44.88842" lon="-0.77045">
        <ele>41.3</ele>
        <time>2017-12-06T10:05:48Z</time>
      </trkpt>
      <trkpt lat="44.8884" lon="-0.77049">
        <ele>41.4</ele>
        <time>2017-12-06T10:05:49Z</time>
      </trkpt>
      <trkpt lat="44.88838" lon="-0.77054">
        <ele>41.5</ele>
        <time>2017-12-06T10:05:51Z</time>
      </trkpt>
      <trkpt lat="44.88838" lon="-0.7706">
        <ele>41.6</ele>
        <time>2017-12-06T10:05:53Z</time>
      </trkpt>
      <trkpt lat="44.88835" lon="-0.77064">
        <ele>41.8</ele>
        <time>2017-12-06T10:05:55Z</time>
      </trkpt>
      <trkpt lat="44.88832" lon="-0.77068">
        <ele>41.9</ele>
        <time>2017-12-06T10:05:57Z</time>
      </trkpt>
      <trkpt lat="44.88832" lon="-0.77073">
        <ele>42.1</ele>
        <time>2017-12-06T10:05:59Z</time>
      </trkpt>
      <trkpt lat="44.88834" lon="-0.77075">
        <ele>42.3</ele>
        <time>2017-12-06T10:06:01Z</time>
      </trkpt>
      <trkpt lat="44.88838" lon="-0.77075">
        <ele>42.5</ele>
        <time>2017-12-06T10:06:03Z</time>
      </trkpt>
      <trkpt lat="44.88841" lon="-0.77075">
        <ele>42.8</ele>
        <time>2017-12-06T10:06:05Z</time>
      </trkpt>
      <trkpt lat="44.88845" lon="-0.77078">
        <ele>43.1</ele>
        <time>2017-12-06T10:06:07Z</time>
      </trkpt>
      <trkpt lat="44.88847" lon="-0.77081">
        <ele>43.1</ele>
        <time>2017-12-06T10:06:08Z</time>
      </trkpt>
      <trkpt lat="44.88848" lon="-0.77088">
        <ele>43.2</ele>
        <time>2017-12-06T10:06:09Z</time>
      </trkpt>
      <trkpt lat="44.88849" lon="-0.77093">
        <ele>43.3</ele>
        <time>2017-12-06T10:06:10Z</time>
      </trkpt>
      <trkpt lat="44.88849" lon="-0.77098">
        <ele>43.4</ele>
        <time>2017-12-06T10:06:11Z</time>
      </trkpt>
      <trkpt lat="44.88849" lon="-0.77104">
        <ele>43.5</ele>
        <time>2017-12-06T10:06:12Z</time>
      </trkpt>
      <trkpt lat="44.8885" lon="-0.77113">
        <ele>43.6</ele>
        <time>2017-12-06T10:06:13Z</time>
      </trkpt>
      <trkpt lat="44.88851" lon="-0.77121">
        <ele>43.8</ele>
        <time>2017-12-06T10:06:14Z</time>
      </trkpt>
      <trkpt lat="44.88851" lon="-0.77128">
        <ele>43.9</ele>
        <time>2017-12-06T10:06:15Z</time>
      </trkpt>
      <trkpt lat="44.8885" lon="-0.77133">
        <ele>43.9</ele>
        <time>2017-12-06T10:06:16Z</time>
      </trkpt>
      <trkpt lat="44.8885" lon="-0.77137">
        <ele>44</ele>
        <time>2017-12-06T10:06:17Z</time>
      </trkpt>
      <trkpt lat="44.88849" lon="-0.77143">
        <ele>43.9</ele>
        <time>2017-12-06T10:06:18Z</time>
      </trkpt>
      <trkpt lat="44.88848" lon="-0.77147">
        <ele>43.8</ele>
        <time>2017-12-06T10:06:19Z</time>
      </trkpt>
      <trkpt lat="44.88846" lon="-0.77154">
        <ele>43.7</ele>
        <time>2017-12-06T10:06:20Z</time>
      </trkpt>
      <trkpt lat="44.88846" lon="-0.77161">
        <ele>43.5</ele>
        <time>2017-12-06T10:06:21Z</time>
      </trkpt>
      <trkpt lat="44.88847" lon="-0.77168">
        <ele>43.4</ele>
        <time>2017-12-06T10:06:22Z</time>
      </trkpt>
      <trkpt lat="44.88846" lon="-0.77175">
        <ele>43.3</ele>
        <time>2017-12-06T10:06:23Z</time>
      </trkpt>
      <trkpt lat="44.88845" lon="-0.77181">
        <ele>43.2</ele>
        <time>2017-12-06T10:06:24Z</time>
      </trkpt>
      <trkpt lat="44.88844" lon="-0.77189">
        <ele>43.1</ele>
        <time>2017-12-06T10:06:25Z</time>
      </trkpt>
      <trkpt lat="44.88845" lon="-0.77196">
        <ele>43</ele>
        <time>2017-12-06T10:06:26Z</time>
      </trkpt>
      <trkpt lat="44.88846" lon="-0.77203">
        <ele>42.9</ele>
        <time>2017-12-06T10:06:27Z</time>
      </trkpt>
      <trkpt lat="44.88845" lon="-0.77208">
        <ele>42.9</ele>
        <time>2017-12-06T10:06:28Z</time>
      </trkpt>
      <trkpt lat="44.88843" lon="-0.77212">
        <ele>42.8</ele>
        <time>2017-12-06T10:06:29Z</time>
      </trkpt>
      <trkpt lat="44.88841" lon="-0.77218">
        <ele>42.7</ele>
        <time>2017-12-06T10:06:30Z</time>
      </trkpt>
      <trkpt lat="44.88842" lon="-0.77222">
        <ele>42.6</ele>
        <time>2017-12-06T10:06:31Z</time>
      </trkpt>
      <trkpt lat="44.88844" lon="-0.77229">
        <ele>42.5</ele>
        <time>2017-12-06T10:06:32Z</time>
      </trkpt>
      <trkpt lat="44.88847" lon="-0.77235">
        <ele>42.4</ele>
        <time>2017-12-06T10:06:33Z</time>
      </trkpt>
      <trkpt lat="44.88849" lon="-0.77241">
        <ele>42.3</ele>
        <time>2017-12-06T10:06:34Z</time>
      </trkpt>
      <trkpt lat="44.88851" lon="-0.77247">
        <ele>42.2</ele>
        <time>2017-12-06T10:06:35Z</time>
      </trkpt>
      <trkpt lat="44.88855" lon="-0.77252">
        <ele>42.1</ele>
        <time>2017-12-06T10:06:36Z</time>
      </trkpt>
      <trkpt lat="44.88859" lon="-0.77257">
        <ele>42</ele>
        <time>2017-12-06T10:06:37Z</time>
      </trkpt>
      <trkpt lat="44.88863" lon="-0.77261">
        <ele>41.9</ele>
        <time>2017-12-06T10:06:38Z</time>
      </trkpt>
      <trkpt lat="44.88866" lon="-0.77266">
        <ele>41.8</ele>
        <time>2017-12-06T10:06:39Z</time>
      </trkpt>
      <trkpt lat="44.88869" lon="-0.77272">
        <ele>41.6</ele>
        <time>2017-12-06T10:06:40Z</time>
      </trkpt>
      <trkpt lat="44.88873" lon="-0.77275">
        <ele>41.5</ele>
        <time>2017-12-06T10:06:41Z</time>
      </trkpt>
      <trkpt lat="44.88875" lon="-0.7728">
        <ele>41.5</ele>
        <time>2017-12-06T10:06:42Z</time>
      </trkpt>
      <trkpt lat="44.88879" lon="-0.77284">
        <ele>41.4</ele>
        <time>2017-12-06T10:06:43Z</time>
      </trkpt>
      <trkpt lat="44.88884" lon="-0.77287">
        <ele>41.3</ele>
        <time>2017-12-06T10:06:44Z</time>
      </trkpt>
      <trkpt lat="44.88888" lon="-0.7729">
        <ele>41.2</ele>
        <time>2017-12-06T10:06:45Z</time>
      </trkpt>
      <trkpt lat="44.88892" lon="-0.77294">
        <ele>41.1</ele>
        <time>2017-12-06T10:06:46Z</time>
      </trkpt>
      <trkpt lat="44.88896" lon="-0.77299">
        <ele>41.1</ele>
        <time>2017-12-06T10:06:47Z</time>
      </trkpt>
      <trkpt lat="44.88901" lon="-0.77303">
        <ele>41.2</ele>
        <time>2017-12-06T10:06:48Z</time>
      </trkpt>
      <trkpt lat="44.88905" lon="-0.77307">
        <ele>41.4</ele>
        <time>2017-12-06T10:06:49Z</time>
      </trkpt>
      <trkpt lat="44.88909" lon="-0.7731">
        <ele>41.6</ele>
        <time>2017-12-06T10:06:50Z</time>
      </trkpt>
      <trkpt lat="44.88913" lon="-0.77313">
        <ele>41.7</ele>
        <time>2017-12-06T10:06:51Z</time>
      </trkpt>
      <trkpt lat="44.88917" lon="-0.77315">
        <ele>41.9</ele>
        <time>2017-12-06T10:06:52Z</time>
      </trkpt>
      <trkpt lat="44.88921" lon="-0.77318">
        <ele>42.1</ele>
        <time>2017-12-06T10:06:53Z</time>
      </trkpt>
      <trkpt lat="44.88925" lon="-0.77321">
        <ele>42.2</ele>
        <time>2017-12-06T10:06:54Z</time>
      </trkpt>
      <trkpt lat="44.88929" lon="-0.77325">
        <ele>42.3</ele>
        <time>2017-12-06T10:06:55Z</time>
      </trkpt>
      <trkpt lat="44.88933" lon="-0.77327">
        <ele>42.3</ele>
        <time>2017-12-06T10:06:56Z</time>
      </trkpt>
      <trkpt lat="44.88937" lon="-0.7733">
        <ele>42.3</ele>
        <time>2017-12-06T10:06:57Z</time>
      </trkpt>
      <trkpt lat="44.88942" lon="-0.77333">
        <ele>42.3</ele>
        <time>2017-12-06T10:06:58Z</time>
      </trkpt>
      <trkpt lat="44.88946" lon="-0.77338">
        <ele>42.2</ele>
        <time>2017-12-06T10:06:59Z</time>
      </trkpt>
      <trkpt lat="44.88951" lon="-0.77341">
        <ele>42.2</ele>
        <time>2017-12-06T10:07:00Z</time>
      </trkpt>
      <trkpt lat="44.88955" lon="-0.77344">
        <ele>42.2</ele>
        <time>2017-12-06T10:07:01Z</time>
      </trkpt>
      <trkpt lat="44.88961" lon="-0.77348">
        <ele>42.1</ele>
        <time>2017-12-06T10:07:02Z</time>
      </trkpt>
      <trkpt lat="44.88965" lon="-0.77351">
        <ele>42.1</ele>
        <time>2017-12-06T10:07:03Z</time>
      </trkpt>
      <trkpt lat="44.88969" lon="-0.77355">
        <ele>42</ele>
        <time>2017-12-06T10:07:04Z</time>
      </trkpt>
      <trkpt lat="44.88973" lon="-0.77358">
        <ele>42</ele>
        <time>2017-12-06T10:07:05Z</time>
      </trkpt>
      <trkpt lat="44.88977" lon="-0.77362">
        <ele>41.9</ele>
        <time>2017-12-06T10:07:06Z</time>
      </trkpt>
      <trkpt lat="44.88981" lon="-0.77366">
        <ele>41.9</ele>
        <time>2017-12-06T10:07:07Z</time>
      </trkpt>
      <trkpt lat="44.88985" lon="-0.77369">
        <ele>41.8</ele>
        <time>2017-12-06T10:07:08Z</time>
      </trkpt>
      <trkpt lat="44.8899" lon="-0.77372">
        <ele>41.8</ele>
        <time>2017-12-06T10:07:09Z</time>
      </trkpt>
      <trkpt lat="44.88994" lon="-0.77376">
        <ele>41.7</ele>
        <time>2017-12-06T10:07:10Z</time>
      </trkpt>
      <trkpt lat="44.88998" lon="-0.77381">
        <ele>41.7</ele>
        <time>2017-12-06T10:07:11Z</time>
      </trkpt>
      <trkpt lat="44.89002" lon="-0.77385">
        <ele>41.6</ele>
        <time>2017-12-06T10:07:12Z</time>
      </trkpt>
      <trkpt lat="44.89006" lon="-0.7739">
        <ele>41.6</ele>
        <time>2017-12-06T10:07:13Z</time>
      </trkpt>
      <trkpt lat="44.8901" lon="-0.77394">
        <ele>41.5</ele>
        <time>2017-12-06T10:07:14Z</time>
      </trkpt>
      <trkpt lat="44.89013" lon="-0.77397">
        <ele>41.5</ele>
        <time>2017-12-06T10:07:15Z</time>
      </trkpt>
      <trkpt lat="44.89018" lon="-0.77401">
        <ele>41.4</ele>
        <time>2017-12-06T10:07:16Z</time>
      </trkpt>
      <trkpt lat="44.89022" lon="-0.77405">
        <ele>41.3</ele>
        <time>2017-12-06T10:07:17Z</time>
      </trkpt>
      <trkpt lat="44.89026" lon="-0.7741">
        <ele>41.3</ele>
        <time>2017-12-06T10:07:18Z</time>
      </trkpt>
      <trkpt lat="44.89029" lon="-0.77414">
        <ele>41.2</ele>
        <time>2017-12-06T10:07:19Z</time>
      </trkpt>
      <trkpt lat="44.89033" lon="-0.77417">
        <ele>41.2</ele>
        <time>2017-12-06T10:07:20Z</time>
      </trkpt>
      <trkpt lat="44.89038" lon="-0.77421">
        <ele>41.1</ele>
        <time>2017-12-06T10:07:21Z</time>
      </trkpt>
      <trkpt lat="44.89043" lon="-0.77425">
        <ele>41</ele>
        <time>2017-12-06T10:07:22Z</time>
      </trkpt>
      <trkpt lat="44.89047" lon="-0.77429">
        <ele>41</ele>
        <time>2017-12-06T10:07:23Z</time>
      </trkpt>
      <trkpt lat="44.89052" lon="-0.77433">
        <ele>40.9</ele>
        <time>2017-12-06T10:07:24Z</time>
      </trkpt>
      <trkpt lat="44.89057" lon="-0.77436">
        <ele>40.8</ele>
        <time>2017-12-06T10:07:25Z</time>
      </trkpt>
      <trkpt lat="44.89063" lon="-0.77439">
        <ele>40.8</ele>
        <time>2017-12-06T10:07:26Z</time>
      </trkpt>
      <trkpt lat="44.89068" lon="-0.77442">
        <ele>40.7</ele>
        <time>2017-12-06T10:07:27Z</time>
      </trkpt>
      <trkpt lat="44.89073" lon="-0.77444">
        <ele>40.7</ele>
        <time>2017-12-06T10:07:28Z</time>
      </trkpt>
      <trkpt lat="44.89079" lon="-0.77446">
        <ele>40.6</ele>
        <time>2017-12-06T10:07:29Z</time>
      </trkpt>
      <trkpt lat="44.89084" lon="-0.77447">
        <ele>40.5</ele>
        <time>2017-12-06T10:07:30Z</time>
      </trkpt>
      <trkpt lat="44.89089" lon="-0.77449">
        <ele>40.5</ele>
        <time>2017-12-06T10:07:31Z</time>
      </trkpt>
      <trkpt lat="44.89095" lon="-0.7745">
        <ele>40.4</ele>
        <time>2017-12-06T10:07:32Z</time>
      </trkpt>
      <trkpt lat="44.891" lon="-0.77451">
        <ele>40.4</ele>
        <time>2017-12-06T10:07:33Z</time>
      </trkpt>
      <trkpt lat="44.89105" lon="-0.77453">
        <ele>40.3</ele>
        <time>2017-12-06T10:07:34Z</time>
      </trkpt>
      <trkpt lat="44.8911" lon="-0.77454">
        <ele>40.3</ele>
        <time>2017-12-06T10:07:35Z</time>
      </trkpt>
      <trkpt lat="44.89115" lon="-0.77455">
        <ele>40.2</ele>
        <time>2017-12-06T10:07:36Z</time>
      </trkpt>
      <trkpt lat="44.89121" lon="-0.77457">
        <ele>40.2</ele>
        <time>2017-12-06T10:07:37Z</time>
      </trkpt>
      <trkpt lat="44.89126" lon="-0.77458">
        <ele>40.1</ele>
        <time>2017-12-06T10:07:38Z</time>
      </trkpt>
      <trkpt lat="44.89132" lon="-0.77458">
        <ele>40.1</ele>
        <time>2017-12-06T10:07:39Z</time>
      </trkpt>
      <trkpt lat="44.89137" lon="-0.7746">
        <ele>40</ele>
        <time>2017-12-06T10:07:40Z</time>
      </trkpt>
      <trkpt lat="44.8914" lon="-0.77464">
        <ele>40</ele>
        <time>2017-12-06T10:07:41Z</time>
      </trkpt>
      <trkpt lat="44.89141" lon="-0.7747">
        <ele>40</ele>
        <time>2017-12-06T10:07:42Z</time>
      </trkpt>
      <trkpt lat="44.89139" lon="-0.77473">
        <ele>40</ele>
        <time>2017-12-06T10:07:43Z</time>
      </trkpt>
      <trkpt lat="44.89135" lon="-0.77475">
        <ele>40</ele>
        <time>2017-12-06T10:07:44Z</time>
      </trkpt>
      <trkpt lat="44.89133" lon="-0.77479">
        <ele>40</ele>
        <time>2017-12-06T10:07:45Z</time>
      </trkpt>
      <trkpt lat="44.89132" lon="-0.77483">
        <ele>40</ele>
        <time>2017-12-06T10:07:46Z</time>
      </trkpt>
      <trkpt lat="44.89132" lon="-0.77487">
        <ele>40</ele>
        <time>2017-12-06T10:07:47Z</time>
      </trkpt>
      <trkpt lat="44.89134" lon="-0.77492">
        <ele>40</ele>
        <time>2017-12-06T10:07:48Z</time>
      </trkpt>
      <trkpt lat="44.89136" lon="-0.77496">
        <ele>40</ele>
        <time>2017-12-06T10:07:49Z</time>
      </trkpt>
      <trkpt lat="44.89137" lon="-0.77502">
        <ele>40.1</ele>
        <time>2017-12-06T10:07:50Z</time>
      </trkpt>
      <trkpt lat="44.89138" lon="-0.77507">
        <ele>40.1</ele>
        <time>2017-12-06T10:07:51Z</time>
      </trkpt>
      <trkpt lat="44.89138" lon="-0.77514">
        <ele>40.1</ele>
        <time>2017-12-06T10:07:52Z</time>
      </trkpt>
      <trkpt lat="44.89137" lon="-0.7752">
        <ele>40.1</ele>
        <time>2017-12-06T10:07:53Z</time>
      </trkpt>
      <trkpt lat="44.89137" lon="-0.77525">
        <ele>40.1</ele>
        <time>2017-12-06T10:07:54Z</time>
      </trkpt>
      <trkpt lat="44.89134" lon="-0.77531">
        <ele>40.1</ele>
        <time>2017-12-06T10:07:55Z</time>
      </trkpt>
      <trkpt lat="44.89132" lon="-0.77535">
        <ele>40.1</ele>
        <time>2017-12-06T10:07:56Z</time>
      </trkpt>
      <trkpt lat="44.89133" lon="-0.77541">
        <ele>40.1</ele>
        <time>2017-12-06T10:07:57Z</time>
      </trkpt>
      <trkpt lat="44.89135" lon="-0.77546">
        <ele>40.1</ele>
        <time>2017-12-06T10:07:58Z</time>
      </trkpt>
      <trkpt lat="44.89136" lon="-0.77552">
        <ele>40.2</ele>
        <time>2017-12-06T10:07:59Z</time>
      </trkpt>
      <trkpt lat="44.89136" lon="-0.77556">
        <ele>40.2</ele>
        <time>2017-12-06T10:08:00Z</time>
      </trkpt>
      <trkpt lat="44.89134" lon="-0.77559">
        <ele>40.2</ele>
        <time>2017-12-06T10:08:01Z</time>
      </trkpt>
      <trkpt lat="44.8913" lon="-0.77564">
        <ele>40.2</ele>
        <time>2017-12-06T10:08:02Z</time>
      </trkpt>
      <trkpt lat="44.89129" lon="-0.77571">
        <ele>40.2</ele>
        <time>2017-12-06T10:08:03Z</time>
      </trkpt>
      <trkpt lat="44.8913" lon="-0.77577">
        <ele>40.2</ele>
        <time>2017-12-06T10:08:04Z</time>
      </trkpt>
      <trkpt lat="44.89126" lon="-0.77584">
        <ele>40.2</ele>
        <time>2017-12-06T10:08:06Z</time>
      </trkpt>
      <trkpt lat="44.89125" lon="-0.77592">
        <ele>40.2</ele>
        <time>2017-12-06T10:08:07Z</time>
      </trkpt>
      <trkpt lat="44.89124" lon="-0.77601">
        <ele>40.2</ele>
        <time>2017-12-06T10:08:08Z</time>
      </trkpt>
      <trkpt lat="44.89125" lon="-0.77609">
        <ele>40.3</ele>
        <time>2017-12-06T10:08:09Z</time>
      </trkpt>
      <trkpt lat="44.89126" lon="-0.77617">
        <ele>40.3</ele>
        <time>2017-12-06T10:08:10Z</time>
      </trkpt>
      <trkpt lat="44.89121" lon="-0.77622">
        <ele>40.3</ele>
        <time>2017-12-06T10:08:11Z</time>
      </trkpt>
      <trkpt lat="44.89117" lon="-0.77624">
        <ele>40.3</ele>
        <time>2017-12-06T10:08:12Z</time>
      </trkpt>
      <trkpt lat="44.89113" lon="-0.77628">
        <ele>40.3</ele>
        <time>2017-12-06T10:08:13Z</time>
      </trkpt>
      <trkpt lat="44.8911" lon="-0.77635">
        <ele>40.3</ele>
        <time>2017-12-06T10:08:14Z</time>
      </trkpt>
      <trkpt lat="44.89107" lon="-0.77641">
        <ele>40.3</ele>
        <time>2017-12-06T10:08:15Z</time>
      </trkpt>
      <trkpt lat="44.89104" lon="-0.77645">
        <ele>40.3</ele>
        <time>2017-12-06T10:08:16Z</time>
      </trkpt>
      <trkpt lat="44.89099" lon="-0.77647">
        <ele>40.4</ele>
        <time>2017-12-06T10:08:17Z</time>
      </trkpt>
      <trkpt lat="44.89095" lon="-0.7765">
        <ele>40.4</ele>
        <time>2017-12-06T10:08:18Z</time>
      </trkpt>
      <trkpt lat="44.89095" lon="-0.77657">
        <ele>40.4</ele>
        <time>2017-12-06T10:08:19Z</time>
      </trkpt>
      <trkpt lat="44.89092" lon="-0.77662">
        <ele>40.4</ele>
        <time>2017-12-06T10:08:20Z</time>
      </trkpt>
      <trkpt lat="44.89088" lon="-0.77666">
        <ele>40.4</ele>
        <time>2017-12-06T10:08:21Z</time>
      </trkpt>
      <trkpt lat="44.89085" lon="-0.77664">
        <ele>40.5</ele>
        <time>2017-12-06T10:08:22Z</time>
      </trkpt>
      <trkpt lat="44.89082" lon="-0.77662">
        <ele>40.5</ele>
        <time>2017-12-06T10:08:23Z</time>
      </trkpt>
      <trkpt lat="44.89076" lon="-0.77664">
        <ele>40.5</ele>
        <time>2017-12-06T10:08:24Z</time>
      </trkpt>
      <trkpt lat="44.89071" lon="-0.77666">
        <ele>40.5</ele>
        <time>2017-12-06T10:08:25Z</time>
      </trkpt>
      <trkpt lat="44.89067" lon="-0.7767">
        <ele>40.5</ele>
        <time>2017-12-06T10:08:26Z</time>
      </trkpt>
      <trkpt lat="44.89067" lon="-0.77676">
        <ele>40.5</ele>
        <time>2017-12-06T10:08:27Z</time>
      </trkpt>
      <trkpt lat="44.89068" lon="-0.77681">
        <ele>40.6</ele>
        <time>2017-12-06T10:08:28Z</time>
      </trkpt>
      <trkpt lat="44.89068" lon="-0.77687">
        <ele>40.6</ele>
        <time>2017-12-06T10:08:29Z</time>
      </trkpt>
      <trkpt lat="44.89069" lon="-0.77691">
        <ele>40.6</ele>
        <time>2017-12-06T10:08:30Z</time>
      </trkpt>
      <trkpt lat="44.8907" lon="-0.77697">
        <ele>40.6</ele>
        <time>2017-12-06T10:08:31Z</time>
      </trkpt>
      <trkpt lat="44.8907" lon="-0.77702">
        <ele>40.6</ele>
        <time>2017-12-06T10:08:32Z</time>
      </trkpt>
      <trkpt lat="44.89072" lon="-0.77708">
        <ele>40.6</ele>
        <time>2017-12-06T10:08:33Z</time>
      </trkpt>
      <trkpt lat="44.89076" lon="-0.77713">
        <ele>40.6</ele>
        <time>2017-12-06T10:08:34Z</time>
      </trkpt>
      <trkpt lat="44.89078" lon="-0.77717">
        <ele>40.7</ele>
        <time>2017-12-06T10:08:35Z</time>
      </trkpt>
      <trkpt lat="44.89078" lon="-0.77721">
        <ele>40.7</ele>
        <time>2017-12-06T10:08:36Z</time>
      </trkpt>
      <trkpt lat="44.89077" lon="-0.77729">
        <ele>40.7</ele>
        <time>2017-12-06T10:08:38Z</time>
      </trkpt>
      <trkpt lat="44.89078" lon="-0.77734">
        <ele>40.7</ele>
        <time>2017-12-06T10:08:39Z</time>
      </trkpt>
      <trkpt lat="44.8908" lon="-0.77739">
        <ele>40.7</ele>
        <time>2017-12-06T10:08:40Z</time>
      </trkpt>
      <trkpt lat="44.89081" lon="-0.77744">
        <ele>40.7</ele>
        <time>2017-12-06T10:08:41Z</time>
      </trkpt>
      <trkpt lat="44.89083" lon="-0.7775">
        <ele>40.8</ele>
        <time>2017-12-06T10:08:42Z</time>
      </trkpt>
      <trkpt lat="44.89084" lon="-0.77757">
        <ele>40.8</ele>
        <time>2017-12-06T10:08:43Z</time>
      </trkpt>
      <trkpt lat="44.89082" lon="-0.77761">
        <ele>40.8</ele>
        <time>2017-12-06T10:08:44Z</time>
      </trkpt>
      <trkpt lat="44.8908" lon="-0.77765">
        <ele>40.8</ele>
        <time>2017-12-06T10:08:45Z</time>
      </trkpt>
      <trkpt lat="44.8908" lon="-0.77771">
        <ele>40.8</ele>
        <time>2017-12-06T10:08:46Z</time>
      </trkpt>
      <trkpt lat="44.89078" lon="-0.77777">
        <ele>40.8</ele>
        <time>2017-12-06T10:08:47Z</time>
      </trkpt>
      <trkpt lat="44.89077" lon="-0.77785">
        <ele>40.9</ele>
        <time>2017-12-06T10:08:48Z</time>
      </trkpt>
      <trkpt lat="44.89077" lon="-0.77793">
        <ele>40.9</ele>
        <time>2017-12-06T10:08:49Z</time>
      </trkpt>
      <trkpt lat="44.89077" lon="-0.77798">
        <ele>41</ele>
        <time>2017-12-06T10:08:50Z</time>
      </trkpt>
      <trkpt lat="44.89073" lon="-0.77804">
        <ele>41.2</ele>
        <time>2017-12-06T10:08:51Z</time>
      </trkpt>
      <trkpt lat="44.89072" lon="-0.77812">
        <ele>41.5</ele>
        <time>2017-12-06T10:08:52Z</time>
      </trkpt>
      <trkpt lat="44.89071" lon="-0.77817">
        <ele>41.8</ele>
        <time>2017-12-06T10:08:53Z</time>
      </trkpt>
      <trkpt lat="44.8907" lon="-0.77824">
        <ele>42.2</ele>
        <time>2017-12-06T10:08:54Z</time>
      </trkpt>
      <trkpt lat="44.89067" lon="-0.77828">
        <ele>42.4</ele>
        <time>2017-12-06T10:08:55Z</time>
      </trkpt>
      <trkpt lat="44.89064" lon="-0.77834">
        <ele>42.7</ele>
        <time>2017-12-06T10:08:56Z</time>
      </trkpt>
      <trkpt lat="44.89062" lon="-0.7784">
        <ele>42.8</ele>
        <time>2017-12-06T10:08:57Z</time>
      </trkpt>
      <trkpt lat="44.89061" lon="-0.77847">
        <ele>42.9</ele>
        <time>2017-12-06T10:08:58Z</time>
      </trkpt>
      <trkpt lat="44.8906" lon="-0.77856">
        <ele>42.9</ele>
        <time>2017-12-06T10:08:59Z</time>
      </trkpt>
      <trkpt lat="44.89059" lon="-0.77865">
        <ele>43</ele>
        <time>2017-12-06T10:09:00Z</time>
      </trkpt>
      <trkpt lat="44.89057" lon="-0.77877">
        <ele>42.6</ele>
        <time>2017-12-06T10:09:01Z</time>
      </trkpt>
      <trkpt lat="44.89055" lon="-0.77886">
        <ele>42.3</ele>
        <time>2017-12-06T10:09:02Z</time>
      </trkpt>
      <trkpt lat="44.89055" lon="-0.77893">
        <ele>42.1</ele>
        <time>2017-12-06T10:09:03Z</time>
      </trkpt>
      <trkpt lat="44.89052" lon="-0.77898">
        <ele>41.9</ele>
        <time>2017-12-06T10:09:04Z</time>
      </trkpt>
      <trkpt lat="44.89049" lon="-0.77901">
        <ele>41.7</ele>
        <time>2017-12-06T10:09:05Z</time>
      </trkpt>
      <trkpt lat="44.89047" lon="-0.77906">
        <ele>41.5</ele>
        <time>2017-12-06T10:09:06Z</time>
      </trkpt>
      <trkpt lat="44.89047" lon="-0.7791">
        <ele>41.4</ele>
        <time>2017-12-06T10:09:07Z</time>
      </trkpt>
      <trkpt lat="44.89046" lon="-0.77916">
        <ele>41.2</ele>
        <time>2017-12-06T10:09:08Z</time>
      </trkpt>
      <trkpt lat="44.89045" lon="-0.77922">
        <ele>41</ele>
        <time>2017-12-06T10:09:09Z</time>
      </trkpt>
      <trkpt lat="44.89044" lon="-0.77926">
        <ele>41</ele>
        <time>2017-12-06T10:09:10Z</time>
      </trkpt>
      <trkpt lat="44.89041" lon="-0.77931">
        <ele>41.1</ele>
        <time>2017-12-06T10:09:11Z</time>
      </trkpt>
      <trkpt lat="44.89039" lon="-0.77935">
        <ele>41.1</ele>
        <time>2017-12-06T10:09:12Z</time>
      </trkpt>
      <trkpt lat="44.89037" lon="-0.7794">
        <ele>41.2</ele>
        <time>2017-12-06T10:09:13Z</time>
      </trkpt>
      <trkpt lat="44.89035" lon="-0.77945">
        <ele>41.3</ele>
        <time>2017-12-06T10:09:14Z</time>
      </trkpt>
      <trkpt lat="44.89035" lon="-0.77951">
        <ele>41.3</ele>
        <time>2017-12-06T10:09:15Z</time>
      </trkpt>
      <trkpt lat="44.89033" lon="-0.77958">
        <ele>41.3</ele>
        <time>2017-12-06T10:09:16Z</time>
      </trkpt>
      <trkpt lat="44.89032" lon="-0.77964">
        <ele>41.3</ele>
        <time>2017-12-06T10:09:17Z</time>
      </trkpt>
      <trkpt lat="44.89029" lon="-0.7797">
        <ele>41.4</ele>
        <time>2017-12-06T10:09:18Z</time>
      </trkpt>
      <trkpt lat="44.89028" lon="-0.77976">
        <ele>41.3</ele>
        <time>2017-12-06T10:09:19Z</time>
      </trkpt>
      <trkpt lat="44.89028" lon="-0.77984">
        <ele>41.3</ele>
        <time>2017-12-06T10:09:20Z</time>
      </trkpt>
      <trkpt lat="44.89029" lon="-0.77991">
        <ele>41.4</ele>
        <time>2017-12-06T10:09:21Z</time>
      </trkpt>
      <trkpt lat="44.8903" lon="-0.77997">
        <ele>41.3</ele>
        <time>2017-12-06T10:09:22Z</time>
      </trkpt>
      <trkpt lat="44.89029" lon="-0.78004">
        <ele>41.3</ele>
        <time>2017-12-06T10:09:23Z</time>
      </trkpt>
      <trkpt lat="44.89028" lon="-0.7801">
        <ele>41.2</ele>
        <time>2017-12-06T10:09:24Z</time>
      </trkpt>
      <trkpt lat="44.89028" lon="-0.78018">
        <ele>41.1</ele>
        <time>2017-12-06T10:09:25Z</time>
      </trkpt>
      <trkpt lat="44.8903" lon="-0.78025">
        <ele>41</ele>
        <time>2017-12-06T10:09:26Z</time>
      </trkpt>
      <trkpt lat="44.89032" lon="-0.7803">
        <ele>41</ele>
        <time>2017-12-06T10:09:27Z</time>
      </trkpt>
      <trkpt lat="44.89034" lon="-0.78037">
        <ele>41</ele>
        <time>2017-12-06T10:09:28Z</time>
      </trkpt>
      <trkpt lat="44.89033" lon="-0.78041">
        <ele>41</ele>
        <time>2017-12-06T10:09:29Z</time>
      </trkpt>
      <trkpt lat="44.89029" lon="-0.78045">
        <ele>41.1</ele>
        <time>2017-12-06T10:09:30Z</time>
      </trkpt>
      <trkpt lat="44.89024" lon="-0.78049">
        <ele>41.1</ele>
        <time>2017-12-06T10:09:31Z</time>
      </trkpt>
      <trkpt lat="44.89021" lon="-0.78052">
        <ele>41.2</ele>
        <time>2017-12-06T10:09:32Z</time>
      </trkpt>
      <trkpt lat="44.89017" lon="-0.78055">
        <ele>41.3</ele>
        <time>2017-12-06T10:09:33Z</time>
      </trkpt>
      <trkpt lat="44.89014" lon="-0.7806">
        <ele>41.3</ele>
        <time>2017-12-06T10:09:34Z</time>
      </trkpt>
      <trkpt lat="44.89012" lon="-0.78065">
        <ele>41.4</ele>
        <time>2017-12-06T10:09:35Z</time>
      </trkpt>
      <trkpt lat="44.8901" lon="-0.78072">
        <ele>41.4</ele>
        <time>2017-12-06T10:09:36Z</time>
      </trkpt>
      <trkpt lat="44.89008" lon="-0.78077">
        <ele>41.5</ele>
        <time>2017-12-06T10:09:37Z</time>
      </trkpt>
      <trkpt lat="44.89004" lon="-0.78081">
        <ele>41.5</ele>
        <time>2017-12-06T10:09:38Z</time>
      </trkpt>
      <trkpt lat="44.89002" lon="-0.78086">
        <ele>41.5</ele>
        <time>2017-12-06T10:09:39Z</time>
      </trkpt>
      <trkpt lat="44.88999" lon="-0.7809">
        <ele>41.6</ele>
        <time>2017-12-06T10:09:40Z</time>
      </trkpt>
      <trkpt lat="44.88995" lon="-0.78093">
        <ele>41.6</ele>
        <time>2017-12-06T10:09:41Z</time>
      </trkpt>
      <trkpt lat="44.8899" lon="-0.78095">
        <ele>41.7</ele>
        <time>2017-12-06T10:09:42Z</time>
      </trkpt>
      <trkpt lat="44.88985" lon="-0.78098">
        <ele>41.7</ele>
        <time>2017-12-06T10:09:43Z</time>
      </trkpt>
      <trkpt lat="44.88981" lon="-0.781">
        <ele>41.8</ele>
        <time>2017-12-06T10:09:44Z</time>
      </trkpt>
      <trkpt lat="44.88976" lon="-0.78102">
        <ele>41.8</ele>
        <time>2017-12-06T10:09:45Z</time>
      </trkpt>
      <trkpt lat="44.88971" lon="-0.78103">
        <ele>41.9</ele>
        <time>2017-12-06T10:09:46Z</time>
      </trkpt>
      <trkpt lat="44.88966" lon="-0.78103">
        <ele>41.9</ele>
        <time>2017-12-06T10:09:47Z</time>
      </trkpt>
      <trkpt lat="44.88962" lon="-0.78105">
        <ele>41.9</ele>
        <time>2017-12-06T10:09:48Z</time>
      </trkpt>
      <trkpt lat="44.88957" lon="-0.78108">
        <ele>42</ele>
        <time>2017-12-06T10:09:49Z</time>
      </trkpt>
      <trkpt lat="44.88953" lon="-0.78112">
        <ele>42</ele>
        <time>2017-12-06T10:09:50Z</time>
      </trkpt>
      <trkpt lat="44.88948" lon="-0.78116">
        <ele>42.1</ele>
        <time>2017-12-06T10:09:51Z</time>
      </trkpt>
      <trkpt lat="44.88944" lon="-0.7812">
        <ele>42.1</ele>
        <time>2017-12-06T10:09:52Z</time>
      </trkpt>
      <trkpt lat="44.8894" lon="-0.78126">
        <ele>42.2</ele>
        <time>2017-12-06T10:09:53Z</time>
      </trkpt>
      <trkpt lat="44.88936" lon="-0.78131">
        <ele>42.2</ele>
        <time>2017-12-06T10:09:54Z</time>
      </trkpt>
      <trkpt lat="44.88933" lon="-0.78138">
        <ele>42.3</ele>
        <time>2017-12-06T10:09:55Z</time>
      </trkpt>
      <trkpt lat="44.88931" lon="-0.78144">
        <ele>42.3</ele>
        <time>2017-12-06T10:09:56Z</time>
      </trkpt>
      <trkpt lat="44.88928" lon="-0.78152">
        <ele>42.3</ele>
        <time>2017-12-06T10:09:57Z</time>
      </trkpt>
      <trkpt lat="44.88925" lon="-0.78159">
        <ele>42.4</ele>
        <time>2017-12-06T10:09:58Z</time>
      </trkpt>
      <trkpt lat="44.88922" lon="-0.78165">
        <ele>42.4</ele>
        <time>2017-12-06T10:09:59Z</time>
      </trkpt>
      <trkpt lat="44.88918" lon="-0.78169">
        <ele>42.5</ele>
        <time>2017-12-06T10:10:00Z</time>
      </trkpt>
      <trkpt lat="44.88913" lon="-0.78172">
        <ele>42.5</ele>
        <time>2017-12-06T10:10:01Z</time>
      </trkpt>
      <trkpt lat="44.88909" lon="-0.78174">
        <ele>42.5</ele>
        <time>2017-12-06T10:10:02Z</time>
      </trkpt>
      <trkpt lat="44.88904" lon="-0.78175">
        <ele>42.6</ele>
        <time>2017-12-06T10:10:03Z</time>
      </trkpt>
      <trkpt lat="44.88899" lon="-0.78177">
        <ele>42.6</ele>
        <time>2017-12-06T10:10:04Z</time>
      </trkpt>
      <trkpt lat="44.88895" lon="-0.78181">
        <ele>42.7</ele>
        <time>2017-12-06T10:10:05Z</time>
      </trkpt>
      <trkpt lat="44.88893" lon="-0.78186">
        <ele>42.7</ele>
        <time>2017-12-06T10:10:06Z</time>
      </trkpt>
      <trkpt lat="44.8889" lon="-0.78192">
        <ele>42.8</ele>
        <time>2017-12-06T10:10:07Z</time>
      </trkpt>
      <trkpt lat="44.88889" lon="-0.78199">
        <ele>42.8</ele>
        <time>2017-12-06T10:10:08Z</time>
      </trkpt>
      <trkpt lat="44.88887" lon="-0.78204">
        <ele>42.9</ele>
        <time>2017-12-06T10:10:09Z</time>
      </trkpt>
      <trkpt lat="44.88884" lon="-0.7821">
        <ele>42.9</ele>
        <time>2017-12-06T10:10:10Z</time>
      </trkpt>
      <trkpt lat="44.88881" lon="-0.78215">
        <ele>43</ele>
        <time>2017-12-06T10:10:11Z</time>
      </trkpt>
      <trkpt lat="44.88878" lon="-0.7822">
        <ele>42.9</ele>
        <time>2017-12-06T10:10:12Z</time>
      </trkpt>
      <trkpt lat="44.88875" lon="-0.78224">
        <ele>42.9</ele>
        <time>2017-12-06T10:10:13Z</time>
      </trkpt>
      <trkpt lat="44.88872" lon="-0.78228">
        <ele>42.8</ele>
        <time>2017-12-06T10:10:14Z</time>
      </trkpt>
      <trkpt lat="44.88868" lon="-0.7823">
        <ele>42.8</ele>
        <time>2017-12-06T10:10:15Z</time>
      </trkpt>
      <trkpt lat="44.88865" lon="-0.78232">
        <ele>42.7</ele>
        <time>2017-12-06T10:10:16Z</time>
      </trkpt>
      <trkpt lat="44.88861" lon="-0.78234">
        <ele>42.7</ele>
        <time>2017-12-06T10:10:17Z</time>
      </trkpt>
      <trkpt lat="44.88857" lon="-0.78236">
        <ele>42.6</ele>
        <time>2017-12-06T10:10:18Z</time>
      </trkpt>
      <trkpt lat="44.88853" lon="-0.78239">
        <ele>42.6</ele>
        <time>2017-12-06T10:10:19Z</time>
      </trkpt>
      <trkpt lat="44.88849" lon="-0.78242">
        <ele>42.6</ele>
        <time>2017-12-06T10:10:20Z</time>
      </trkpt>
      <trkpt lat="44.88845" lon="-0.78244">
        <ele>42.5</ele>
        <time>2017-12-06T10:10:21Z</time>
      </trkpt>
      <trkpt lat="44.88841" lon="-0.78246">
        <ele>42.4</ele>
        <time>2017-12-06T10:10:22Z</time>
      </trkpt>
      <trkpt lat="44.88836" lon="-0.78249">
        <ele>42.3</ele>
        <time>2017-12-06T10:10:23Z</time>
      </trkpt>
      <trkpt lat="44.88832" lon="-0.78252">
        <ele>42.2</ele>
        <time>2017-12-06T10:10:24Z</time>
      </trkpt>
      <trkpt lat="44.88828" lon="-0.78255">
        <ele>42.2</ele>
        <time>2017-12-06T10:10:25Z</time>
      </trkpt>
      <trkpt lat="44.88823" lon="-0.78258">
        <ele>42.1</ele>
        <time>2017-12-06T10:10:26Z</time>
      </trkpt>
      <trkpt lat="44.88819" lon="-0.7826">
        <ele>42.1</ele>
        <time>2017-12-06T10:10:27Z</time>
      </trkpt>
      <trkpt lat="44.88815" lon="-0.78263">
        <ele>42</ele>
        <time>2017-12-06T10:10:28Z</time>
      </trkpt>
      <trkpt lat="44.88811" lon="-0.78265">
        <ele>42</ele>
        <time>2017-12-06T10:10:29Z</time>
      </trkpt>
      <trkpt lat="44.88807" lon="-0.78268">
        <ele>42</ele>
        <time>2017-12-06T10:10:30Z</time>
      </trkpt>
      <trkpt lat="44.88803" lon="-0.78271">
        <ele>41.9</ele>
        <time>2017-12-06T10:10:31Z</time>
      </trkpt>
      <trkpt lat="44.88799" lon="-0.78274">
        <ele>41.9</ele>
        <time>2017-12-06T10:10:32Z</time>
      </trkpt>
      <trkpt lat="44.88794" lon="-0.78277">
        <ele>41.9</ele>
        <time>2017-12-06T10:10:33Z</time>
      </trkpt>
      <trkpt lat="44.8879" lon="-0.78279">
        <ele>41.8</ele>
        <time>2017-12-06T10:10:34Z</time>
      </trkpt>
      <trkpt lat="44.88786" lon="-0.78282">
        <ele>41.8</ele>
        <time>2017-12-06T10:10:35Z</time>
      </trkpt>
      <trkpt lat="44.88782" lon="-0.78285">
        <ele>41.7</ele>
        <time>2017-12-06T10:10:36Z</time>
      </trkpt>
      <trkpt lat="44.88778" lon="-0.78289">
        <ele>41.7</ele>
        <time>2017-12-06T10:10:37Z</time>
      </trkpt>
      <trkpt lat="44.88774" lon="-0.78292">
        <ele>41.6</ele>
        <time>2017-12-06T10:10:38Z</time>
      </trkpt>
      <trkpt lat="44.8877" lon="-0.78296">
        <ele>41.5</ele>
        <time>2017-12-06T10:10:39Z</time>
      </trkpt>
      <trkpt lat="44.88766" lon="-0.783">
        <ele>41.5</ele>
        <time>2017-12-06T10:10:40Z</time>
      </trkpt>
      <trkpt lat="44.88762" lon="-0.78302">
        <ele>41.4</ele>
        <time>2017-12-06T10:10:41Z</time>
      </trkpt>
      <trkpt lat="44.88758" lon="-0.78304">
        <ele>41.4</ele>
        <time>2017-12-06T10:10:42Z</time>
      </trkpt>
      <trkpt lat="44.88754" lon="-0.78306">
        <ele>41.3</ele>
        <time>2017-12-06T10:10:43Z</time>
      </trkpt>
      <trkpt lat="44.8875" lon="-0.78308">
        <ele>41.3</ele>
        <time>2017-12-06T10:10:44Z</time>
      </trkpt>
      <trkpt lat="44.88746" lon="-0.7831">
        <ele>41.2</ele>
        <time>2017-12-06T10:10:45Z</time>
      </trkpt>
      <trkpt lat="44.88743" lon="-0.78313">
        <ele>41.2</ele>
        <time>2017-12-06T10:10:46Z</time>
      </trkpt>
      <trkpt lat="44.88739" lon="-0.78316">
        <ele>41.1</ele>
        <time>2017-12-06T10:10:47Z</time>
      </trkpt>
      <trkpt lat="44.88735" lon="-0.7832">
        <ele>41</ele>
        <time>2017-12-06T10:10:48Z</time>
      </trkpt>
      <trkpt lat="44.88732" lon="-0.78325">
        <ele>40.9</ele>
        <time>2017-12-06T10:10:49Z</time>
      </trkpt>
      <trkpt lat="44.8873" lon="-0.7833">
        <ele>40.8</ele>
        <time>2017-12-06T10:10:50Z</time>
      </trkpt>
      <trkpt lat="44.88729" lon="-0.78336">
        <ele>40.8</ele>
        <time>2017-12-06T10:10:51Z</time>
      </trkpt>
      <trkpt lat="44.88729" lon="-0.78342">
        <ele>40.7</ele>
        <time>2017-12-06T10:10:52Z</time>
      </trkpt>
      <trkpt lat="44.88728" lon="-0.78348">
        <ele>40.6</ele>
        <time>2017-12-06T10:10:53Z</time>
      </trkpt>
      <trkpt lat="44.88727" lon="-0.78354">
        <ele>40.6</ele>
        <time>2017-12-06T10:10:54Z</time>
      </trkpt>
      <trkpt lat="44.88727" lon="-0.78361">
        <ele>40.5</ele>
        <time>2017-12-06T10:10:55Z</time>
      </trkpt>
      <trkpt lat="44.88726" lon="-0.78368">
        <ele>40.5</ele>
        <time>2017-12-06T10:10:56Z</time>
      </trkpt>
      <trkpt lat="44.88724" lon="-0.78374">
        <ele>40.4</ele>
        <time>2017-12-06T10:10:57Z</time>
      </trkpt>
      <trkpt lat="44.88722" lon="-0.78381">
        <ele>40.4</ele>
        <time>2017-12-06T10:10:58Z</time>
      </trkpt>
      <trkpt lat="44.8872" lon="-0.78387">
        <ele>40.4</ele>
        <time>2017-12-06T10:10:59Z</time>
      </trkpt>
      <trkpt lat="44.88719" lon="-0.78393">
        <ele>40.3</ele>
        <time>2017-12-06T10:11:00Z</time>
      </trkpt>
      <trkpt lat="44.88718" lon="-0.78398">
        <ele>40.3</ele>
        <time>2017-12-06T10:11:01Z</time>
      </trkpt>
      <trkpt lat="44.88716" lon="-0.78404">
        <ele>40.2</ele>
        <time>2017-12-06T10:11:02Z</time>
      </trkpt>
      <trkpt lat="44.88715" lon="-0.7841">
        <ele>40.2</ele>
        <time>2017-12-06T10:11:03Z</time>
      </trkpt>
      <trkpt lat="44.88714" lon="-0.78415">
        <ele>40.2</ele>
        <time>2017-12-06T10:11:04Z</time>
      </trkpt>
      <trkpt lat="44.88712" lon="-0.78421">
        <ele>40.1</ele>
        <time>2017-12-06T10:11:05Z</time>
      </trkpt>
      <trkpt lat="44.88711" lon="-0.78426">
        <ele>40.1</ele>
        <time>2017-12-06T10:11:06Z</time>
      </trkpt>
      <trkpt lat="44.8871" lon="-0.78432">
        <ele>40</ele>
        <time>2017-12-06T10:11:07Z</time>
      </trkpt>
      <trkpt lat="44.88709" lon="-0.78438">
        <ele>40</ele>
        <time>2017-12-06T10:11:08Z</time>
      </trkpt>
      <trkpt lat="44.88708" lon="-0.78444">
        <ele>40</ele>
        <time>2017-12-06T10:11:09Z</time>
      </trkpt>
      <trkpt lat="44.88707" lon="-0.7845">
        <ele>40</ele>
        <time>2017-12-06T10:11:10Z</time>
      </trkpt>
      <trkpt lat="44.88706" lon="-0.78455">
        <ele>39.9</ele>
        <time>2017-12-06T10:11:11Z</time>
      </trkpt>
      <trkpt lat="44.88705" lon="-0.78462">
        <ele>39.9</ele>
        <time>2017-12-06T10:11:12Z</time>
      </trkpt>
      <trkpt lat="44.88704" lon="-0.78467">
        <ele>39.9</ele>
        <time>2017-12-06T10:11:13Z</time>
      </trkpt>
      <trkpt lat="44.88703" lon="-0.78473">
        <ele>39.8</ele>
        <time>2017-12-06T10:11:14Z</time>
      </trkpt>
      <trkpt lat="44.88701" lon="-0.78479">
        <ele>39.8</ele>
        <time>2017-12-06T10:11:15Z</time>
      </trkpt>
      <trkpt lat="44.887" lon="-0.78484">
        <ele>39.8</ele>
        <time>2017-12-06T10:11:16Z</time>
      </trkpt>
      <trkpt lat="44.88699" lon="-0.7849">
        <ele>39.8</ele>
        <time>2017-12-06T10:11:17Z</time>
      </trkpt>
      <trkpt lat="44.88698" lon="-0.78496">
        <ele>39.7</ele>
        <time>2017-12-06T10:11:18Z</time>
      </trkpt>
      <trkpt lat="44.88697" lon="-0.78502">
        <ele>39.7</ele>
        <time>2017-12-06T10:11:19Z</time>
      </trkpt>
      <trkpt lat="44.88696" lon="-0.78508">
        <ele>39.7</ele>
        <time>2017-12-06T10:11:20Z</time>
      </trkpt>
      <trkpt lat="44.88695" lon="-0.78514">
        <ele>39.6</ele>
        <time>2017-12-06T10:11:21Z</time>
      </trkpt>
      <trkpt lat="44.88694" lon="-0.7852">
        <ele>39.6</ele>
        <time>2017-12-06T10:11:22Z</time>
      </trkpt>
      <trkpt lat="44.88692" lon="-0.78526">
        <ele>39.6</ele>
        <time>2017-12-06T10:11:23Z</time>
      </trkpt>
      <trkpt lat="44.88691" lon="-0.78532">
        <ele>39.5</ele>
        <time>2017-12-06T10:11:24Z</time>
      </trkpt>
      <trkpt lat="44.8869" lon="-0.78538">
        <ele>39.5</ele>
        <time>2017-12-06T10:11:25Z</time>
      </trkpt>
      <trkpt lat="44.88689" lon="-0.78545">
        <ele>39.5</ele>
        <time>2017-12-06T10:11:26Z</time>
      </trkpt>
      <trkpt lat="44.88688" lon="-0.78551">
        <ele>39.5</ele>
        <time>2017-12-06T10:11:27Z</time>
      </trkpt>
      <trkpt lat="44.88686" lon="-0.78558">
        <ele>39.4</ele>
        <time>2017-12-06T10:11:28Z</time>
      </trkpt>
      <trkpt lat="44.88685" lon="-0.78565">
        <ele>39.4</ele>
        <time>2017-12-06T10:11:29Z</time>
      </trkpt>
      <trkpt lat="44.88684" lon="-0.78571">
        <ele>39.4</ele>
        <time>2017-12-06T10:11:30Z</time>
      </trkpt>
      <trkpt lat="44.88683" lon="-0.78577">
        <ele>39.3</ele>
        <time>2017-12-06T10:11:31Z</time>
      </trkpt>
      <trkpt lat="44.88682" lon="-0.78584">
        <ele>39.3</ele>
        <time>2017-12-06T10:11:32Z</time>
      </trkpt>
      <trkpt lat="44.88681" lon="-0.78589">
        <ele>39.3</ele>
        <time>2017-12-06T10:11:33Z</time>
      </trkpt>
      <trkpt lat="44.8868" lon="-0.78595">
        <ele>39.3</ele>
        <time>2017-12-06T10:11:34Z</time>
      </trkpt>
      <trkpt lat="44.88679" lon="-0.78602">
        <ele>39.2</ele>
        <time>2017-12-06T10:11:35Z</time>
      </trkpt>
      <trkpt lat="44.88678" lon="-0.78609">
        <ele>39.2</ele>
        <time>2017-12-06T10:11:36Z</time>
      </trkpt>
      <trkpt lat="44.88677" lon="-0.78615">
        <ele>39.2</ele>
        <time>2017-12-06T10:11:37Z</time>
      </trkpt>
      <trkpt lat="44.88675" lon="-0.78621">
        <ele>39.2</ele>
        <time>2017-12-06T10:11:38Z</time>
      </trkpt>
      <trkpt lat="44.88674" lon="-0.78628">
        <ele>39.1</ele>
        <time>2017-12-06T10:11:39Z</time>
      </trkpt>
      <trkpt lat="44.88672" lon="-0.78634">
        <ele>39.1</ele>
        <time>2017-12-06T10:11:40Z</time>
      </trkpt>
      <trkpt lat="44.88671" lon="-0.7864">
        <ele>39.1</ele>
        <time>2017-12-06T10:11:41Z</time>
      </trkpt>
      <trkpt lat="44.8867" lon="-0.78647">
        <ele>39.1</ele>
        <time>2017-12-06T10:11:42Z</time>
      </trkpt>
      <trkpt lat="44.88669" lon="-0.78653">
        <ele>39</ele>
        <time>2017-12-06T10:11:43Z</time>
      </trkpt>
      <trkpt lat="44.88668" lon="-0.7866">
        <ele>39</ele>
        <time>2017-12-06T10:11:44Z</time>
      </trkpt>
      <trkpt lat="44.88667" lon="-0.78667">
        <ele>39</ele>
        <time>2017-12-06T10:11:45Z</time>
      </trkpt>
      <trkpt lat="44.88666" lon="-0.78674">
        <ele>39</ele>
        <time>2017-12-06T10:11:46Z</time>
      </trkpt>
      <trkpt lat="44.88665" lon="-0.78682">
        <ele>38.9</ele>
        <time>2017-12-06T10:11:47Z</time>
      </trkpt>
      <trkpt lat="44.88663" lon="-0.78689">
        <ele>38.9</ele>
        <time>2017-12-06T10:11:48Z</time>
      </trkpt>
      <trkpt lat="44.88662" lon="-0.78696">
        <ele>38.9</ele>
        <time>2017-12-06T10:11:49Z</time>
      </trkpt>
      <trkpt lat="44.88661" lon="-0.78703">
        <ele>38.9</ele>
        <time>2017-12-06T10:11:50Z</time>
      </trkpt>
      <trkpt lat="44.88659" lon="-0.7871">
        <ele>38.8</ele>
        <time>2017-12-06T10:11:51Z</time>
      </trkpt>
      <trkpt lat="44.88658" lon="-0.78718">
        <ele>38.8</ele>
        <time>2017-12-06T10:11:52Z</time>
      </trkpt>
      <trkpt lat="44.88657" lon="-0.78726">
        <ele>38.8</ele>
        <time>2017-12-06T10:11:53Z</time>
      </trkpt>
      <trkpt lat="44.88655" lon="-0.78734">
        <ele>38.8</ele>
        <time>2017-12-06T10:11:54Z</time>
      </trkpt>
      <trkpt lat="44.88653" lon="-0.78742">
        <ele>38.7</ele>
        <time>2017-12-06T10:11:55Z</time>
      </trkpt>
      <trkpt lat="44.88652" lon="-0.7875">
        <ele>38.7</ele>
        <time>2017-12-06T10:11:56Z</time>
      </trkpt>
      <trkpt lat="44.8865" lon="-0.78758">
        <ele>38.7</ele>
        <time>2017-12-06T10:11:57Z</time>
      </trkpt>
      <trkpt lat="44.88649" lon="-0.78766">
        <ele>38.7</ele>
        <time>2017-12-06T10:11:58Z</time>
      </trkpt>
      <trkpt lat="44.88648" lon="-0.78773">
        <ele>38.6</ele>
        <time>2017-12-06T10:11:59Z</time>
      </trkpt>
      <trkpt lat="44.88646" lon="-0.7878">
        <ele>38.6</ele>
        <time>2017-12-06T10:12:00Z</time>
      </trkpt>
      <trkpt lat="44.88644" lon="-0.78789">
        <ele>38.6</ele>
        <time>2017-12-06T10:12:01Z</time>
      </trkpt>
      <trkpt lat="44.88643" lon="-0.78796">
        <ele>38.5</ele>
        <time>2017-12-06T10:12:02Z</time>
      </trkpt>
      <trkpt lat="44.88642" lon="-0.78805">
        <ele>38.5</ele>
        <time>2017-12-06T10:12:03Z</time>
      </trkpt>
      <trkpt lat="44.88641" lon="-0.78814">
        <ele>38.5</ele>
        <time>2017-12-06T10:12:04Z</time>
      </trkpt>
      <trkpt lat="44.88639" lon="-0.78821">
        <ele>38.5</ele>
        <time>2017-12-06T10:12:05Z</time>
      </trkpt>
      <trkpt lat="44.88638" lon="-0.78829">
        <ele>38.4</ele>
        <time>2017-12-06T10:12:06Z</time>
      </trkpt>
      <trkpt lat="44.88637" lon="-0.78837">
        <ele>38.4</ele>
        <time>2017-12-06T10:12:07Z</time>
      </trkpt>
      <trkpt lat="44.88635" lon="-0.78845">
        <ele>38.4</ele>
        <time>2017-12-06T10:12:08Z</time>
      </trkpt>
      <trkpt lat="44.88634" lon="-0.78853">
        <ele>38.4</ele>
        <time>2017-12-06T10:12:09Z</time>
      </trkpt>
      <trkpt lat="44.88632" lon="-0.7886">
        <ele>38.3</ele>
        <time>2017-12-06T10:12:10Z</time>
      </trkpt>
      <trkpt lat="44.88631" lon="-0.78867">
        <ele>38.3</ele>
        <time>2017-12-06T10:12:11Z</time>
      </trkpt>
      <trkpt lat="44.8863" lon="-0.78875">
        <ele>38.3</ele>
        <time>2017-12-06T10:12:12Z</time>
      </trkpt>
      <trkpt lat="44.88628" lon="-0.78883">
        <ele>38.2</ele>
        <time>2017-12-06T10:12:13Z</time>
      </trkpt>
      <trkpt lat="44.88627" lon="-0.78891">
        <ele>38.2</ele>
        <time>2017-12-06T10:12:14Z</time>
      </trkpt>
      <trkpt lat="44.88625" lon="-0.78898">
        <ele>38.2</ele>
        <time>2017-12-06T10:12:15Z</time>
      </trkpt>
      <trkpt lat="44.88623" lon="-0.78907">
        <ele>38.1</ele>
        <time>2017-12-06T10:12:16Z</time>
      </trkpt>
      <trkpt lat="44.88622" lon="-0.78914">
        <ele>38.1</ele>
        <time>2017-12-06T10:12:17Z</time>
      </trkpt>
      <trkpt lat="44.88621" lon="-0.78922">
        <ele>38.1</ele>
        <time>2017-12-06T10:12:18Z</time>
      </trkpt>
      <trkpt lat="44.8862" lon="-0.7893">
        <ele>38.1</ele>
        <time>2017-12-06T10:12:19Z</time>
      </trkpt>
      <trkpt lat="44.88618" lon="-0.78938">
        <ele>38</ele>
        <time>2017-12-06T10:12:20Z</time>
      </trkpt>
      <trkpt lat="44.88617" lon="-0.78946">
        <ele>38</ele>
        <time>2017-12-06T10:12:21Z</time>
      </trkpt>
      <trkpt lat="44.88615" lon="-0.78954">
        <ele>37.9</ele>
        <time>2017-12-06T10:12:22Z</time>
      </trkpt>
      <trkpt lat="44.88614" lon="-0.78961">
        <ele>37.9</ele>
        <time>2017-12-06T10:12:23Z</time>
      </trkpt>
      <trkpt lat="44.88612" lon="-0.78968">
        <ele>37.9</ele>
        <time>2017-12-06T10:12:24Z</time>
      </trkpt>
      <trkpt lat="44.88611" lon="-0.78975">
        <ele>37.8</ele>
        <time>2017-12-06T10:12:25Z</time>
      </trkpt>
      <trkpt lat="44.88609" lon="-0.78982">
        <ele>37.8</ele>
        <time>2017-12-06T10:12:26Z</time>
      </trkpt>
      <trkpt lat="44.88608" lon="-0.78988">
        <ele>37.7</ele>
        <time>2017-12-06T10:12:27Z</time>
      </trkpt>
      <trkpt lat="44.88607" lon="-0.78994">
        <ele>37.7</ele>
        <time>2017-12-06T10:12:28Z</time>
      </trkpt>
      <trkpt lat="44.88606" lon="-0.79">
        <ele>37.6</ele>
        <time>2017-12-06T10:12:29Z</time>
      </trkpt>
      <trkpt lat="44.88605" lon="-0.79007">
        <ele>37.6</ele>
        <time>2017-12-06T10:12:30Z</time>
      </trkpt>
      <trkpt lat="44.88604" lon="-0.79014">
        <ele>37.5</ele>
        <time>2017-12-06T10:12:31Z</time>
      </trkpt>
      <trkpt lat="44.88602" lon="-0.7902">
        <ele>37.5</ele>
        <time>2017-12-06T10:12:32Z</time>
      </trkpt>
      <trkpt lat="44.88601" lon="-0.79027">
        <ele>37.4</ele>
        <time>2017-12-06T10:12:33Z</time>
      </trkpt>
      <trkpt lat="44.88599" lon="-0.79033">
        <ele>37.4</ele>
        <time>2017-12-06T10:12:34Z</time>
      </trkpt>
      <trkpt lat="44.88597" lon="-0.79041">
        <ele>37.3</ele>
        <time>2017-12-06T10:12:35Z</time>
      </trkpt>
      <trkpt lat="44.88596" lon="-0.79048">
        <ele>37.3</ele>
        <time>2017-12-06T10:12:36Z</time>
      </trkpt>
      <trkpt lat="44.88595" lon="-0.79055">
        <ele>37.2</ele>
        <time>2017-12-06T10:12:37Z</time>
      </trkpt>
      <trkpt lat="44.88593" lon="-0.79063">
        <ele>37.2</ele>
        <time>2017-12-06T10:12:38Z</time>
      </trkpt>
      <trkpt lat="44.88592" lon="-0.79071">
        <ele>37.1</ele>
        <time>2017-12-06T10:12:39Z</time>
      </trkpt>
      <trkpt lat="44.8859" lon="-0.79079">
        <ele>37</ele>
        <time>2017-12-06T10:12:40Z</time>
      </trkpt>
      <trkpt lat="44.88589" lon="-0.79087">
        <ele>37</ele>
        <time>2017-12-06T10:12:41Z</time>
      </trkpt>
      <trkpt lat="44.88587" lon="-0.79095">
        <ele>37</ele>
        <time>2017-12-06T10:12:42Z</time>
      </trkpt>
      <trkpt lat="44.88586" lon="-0.79102">
        <ele>37</ele>
        <time>2017-12-06T10:12:43Z</time>
      </trkpt>
      <trkpt lat="44.88585" lon="-0.7911">
        <ele>37</ele>
        <time>2017-12-06T10:12:44Z</time>
      </trkpt>
      <trkpt lat="44.88583" lon="-0.79117">
        <ele>37</ele>
        <time>2017-12-06T10:12:45Z</time>
      </trkpt>
      <trkpt lat="44.88582" lon="-0.79125">
        <ele>37</ele>
        <time>2017-12-06T10:12:46Z</time>
      </trkpt>
      <trkpt lat="44.8858" lon="-0.79133">
        <ele>37</ele>
        <time>2017-12-06T10:12:47Z</time>
      </trkpt>
      <trkpt lat="44.88579" lon="-0.79141">
        <ele>37</ele>
        <time>2017-12-06T10:12:48Z</time>
      </trkpt>
      <trkpt lat="44.88577" lon="-0.79149">
        <ele>37</ele>
        <time>2017-12-06T10:12:49Z</time>
      </trkpt>
      <trkpt lat="44.88576" lon="-0.79156">
        <ele>37</ele>
        <time>2017-12-06T10:12:50Z</time>
      </trkpt>
      <trkpt lat="44.88574" lon="-0.79163">
        <ele>37</ele>
        <time>2017-12-06T10:12:51Z</time>
      </trkpt>
      <trkpt lat="44.88572" lon="-0.7917">
        <ele>37</ele>
        <time>2017-12-06T10:12:52Z</time>
      </trkpt>
      <trkpt lat="44.88571" lon="-0.79177">
        <ele>37</ele>
        <time>2017-12-06T10:12:53Z</time>
      </trkpt>
      <trkpt lat="44.88569" lon="-0.79183">
        <ele>37</ele>
        <time>2017-12-06T10:12:54Z</time>
      </trkpt>
      <trkpt lat="44.88567" lon="-0.7919">
        <ele>37</ele>
        <time>2017-12-06T10:12:55Z</time>
      </trkpt>
      <trkpt lat="44.88565" lon="-0.79196">
        <ele>37</ele>
        <time>2017-12-06T10:12:56Z</time>
      </trkpt>
      <trkpt lat="44.88564" lon="-0.79202">
        <ele>37</ele>
        <time>2017-12-06T10:12:57Z</time>
      </trkpt>
      <trkpt lat="44.88563" lon="-0.79209">
        <ele>37</ele>
        <time>2017-12-06T10:12:58Z</time>
      </trkpt>
      <trkpt lat="44.88561" lon="-0.79216">
        <ele>37.1</ele>
        <time>2017-12-06T10:12:59Z</time>
      </trkpt>
      <trkpt lat="44.8856" lon="-0.79223">
        <ele>37.1</ele>
        <time>2017-12-06T10:13:00Z</time>
      </trkpt>
      <trkpt lat="44.88559" lon="-0.7923">
        <ele>37.1</ele>
        <time>2017-12-06T10:13:01Z</time>
      </trkpt>
      <trkpt lat="44.88557" lon="-0.79237">
        <ele>37.1</ele>
        <time>2017-12-06T10:13:02Z</time>
      </trkpt>
      <trkpt lat="44.88556" lon="-0.79244">
        <ele>37.1</ele>
        <time>2017-12-06T10:13:03Z</time>
      </trkpt>
      <trkpt lat="44.88554" lon="-0.79251">
        <ele>37.1</ele>
        <time>2017-12-06T10:13:04Z</time>
      </trkpt>
      <trkpt lat="44.88553" lon="-0.79258">
        <ele>37.1</ele>
        <time>2017-12-06T10:13:05Z</time>
      </trkpt>
      <trkpt lat="44.88551" lon="-0.79264">
        <ele>37.1</ele>
        <time>2017-12-06T10:13:06Z</time>
      </trkpt>
      <trkpt lat="44.88549" lon="-0.7927">
        <ele>37.1</ele>
        <time>2017-12-06T10:13:07Z</time>
      </trkpt>
      <trkpt lat="44.88548" lon="-0.79276">
        <ele>37.1</ele>
        <time>2017-12-06T10:13:08Z</time>
      </trkpt>
      <trkpt lat="44.88546" lon="-0.79281">
        <ele>37.1</ele>
        <time>2017-12-06T10:13:09Z</time>
      </trkpt>
      <trkpt lat="44.88543" lon="-0.79286">
        <ele>37.1</ele>
        <time>2017-12-06T10:13:10Z</time>
      </trkpt>
      <trkpt lat="44.88539" lon="-0.79289">
        <ele>37.1</ele>
        <time>2017-12-06T10:13:11Z</time>
      </trkpt>
      <trkpt lat="44.88536" lon="-0.79292">
        <ele>37.1</ele>
        <time>2017-12-06T10:13:12Z</time>
      </trkpt>
      <trkpt lat="44.88532" lon="-0.79293">
        <ele>37.1</ele>
        <time>2017-12-06T10:13:13Z</time>
      </trkpt>
      <trkpt lat="44.88528" lon="-0.79294">
        <ele>37.1</ele>
        <time>2017-12-06T10:13:14Z</time>
      </trkpt>
      <trkpt lat="44.88524" lon="-0.79297">
        <ele>37.1</ele>
        <time>2017-12-06T10:13:15Z</time>
      </trkpt>
      <trkpt lat="44.8852" lon="-0.793">
        <ele>37.1</ele>
        <time>2017-12-06T10:13:16Z</time>
      </trkpt>
      <trkpt lat="44.88516" lon="-0.79302">
        <ele>37.1</ele>
        <time>2017-12-06T10:13:17Z</time>
      </trkpt>
      <trkpt lat="44.88512" lon="-0.79302">
        <ele>37.1</ele>
        <time>2017-12-06T10:13:18Z</time>
      </trkpt>
      <trkpt lat="44.88507" lon="-0.79304">
        <ele>37.1</ele>
        <time>2017-12-06T10:13:19Z</time>
      </trkpt>
      <trkpt lat="44.88503" lon="-0.79306">
        <ele>37.1</ele>
        <time>2017-12-06T10:13:20Z</time>
      </trkpt>
      <trkpt lat="44.88498" lon="-0.79309">
        <ele>37.1</ele>
        <time>2017-12-06T10:13:21Z</time>
      </trkpt>
      <trkpt lat="44.88494" lon="-0.79311">
        <ele>37.1</ele>
        <time>2017-12-06T10:13:22Z</time>
      </trkpt>
      <trkpt lat="44.88489" lon="-0.79314">
        <ele>37.1</ele>
        <time>2017-12-06T10:13:23Z</time>
      </trkpt>
      <trkpt lat="44.88485" lon="-0.79317">
        <ele>37.2</ele>
        <time>2017-12-06T10:13:24Z</time>
      </trkpt>
      <trkpt lat="44.88481" lon="-0.79319">
        <ele>37.2</ele>
        <time>2017-12-06T10:13:25Z</time>
      </trkpt>
      <trkpt lat="44.88476" lon="-0.79322">
        <ele>37.2</ele>
        <time>2017-12-06T10:13:26Z</time>
      </trkpt>
      <trkpt lat="44.88472" lon="-0.79325">
        <ele>37.2</ele>
        <time>2017-12-06T10:13:27Z</time>
      </trkpt>
      <trkpt lat="44.88467" lon="-0.79328">
        <ele>37.1</ele>
        <time>2017-12-06T10:13:28Z</time>
      </trkpt>
      <trkpt lat="44.88461" lon="-0.79331">
        <ele>37.1</ele>
        <time>2017-12-06T10:13:29Z</time>
      </trkpt>
      <trkpt lat="44.88455" lon="-0.79334">
        <ele>37</ele>
        <time>2017-12-06T10:13:30Z</time>
      </trkpt>
      <trkpt lat="44.88449" lon="-0.79338">
        <ele>36.8</ele>
        <time>2017-12-06T10:13:31Z</time>
      </trkpt>
      <trkpt lat="44.88442" lon="-0.79343">
        <ele>36.4</ele>
        <time>2017-12-06T10:13:32Z</time>
      </trkpt>
      <trkpt lat="44.88435" lon="-0.79347">
        <ele>35.9</ele>
        <time>2017-12-06T10:13:33Z</time>
      </trkpt>
      <trkpt lat="44.88428" lon="-0.79352">
        <ele>35.5</ele>
        <time>2017-12-06T10:13:34Z</time>
      </trkpt>
      <trkpt lat="44.88421" lon="-0.79356">
        <ele>35.2</ele>
        <time>2017-12-06T10:13:35Z</time>
      </trkpt>
      <trkpt lat="44.88413" lon="-0.79359">
        <ele>35</ele>
        <time>2017-12-06T10:13:36Z</time>
      </trkpt>
      <trkpt lat="44.88407" lon="-0.7936">
        <ele>34.8</ele>
        <time>2017-12-06T10:13:37Z</time>
      </trkpt>
      <trkpt lat="44.88402" lon="-0.79363">
        <ele>34.6</ele>
        <time>2017-12-06T10:13:38Z</time>
      </trkpt>
      <trkpt lat="44.88398" lon="-0.79365">
        <ele>34.5</ele>
        <time>2017-12-06T10:13:39Z</time>
      </trkpt>
      <trkpt lat="44.88393" lon="-0.79368">
        <ele>34.3</ele>
        <time>2017-12-06T10:13:40Z</time>
      </trkpt>
      <trkpt lat="44.8839" lon="-0.79375">
        <ele>34.1</ele>
        <time>2017-12-06T10:13:41Z</time>
      </trkpt>
      <trkpt lat="44.88386" lon="-0.79381">
        <ele>33.9</ele>
        <time>2017-12-06T10:13:42Z</time>
      </trkpt>
      <trkpt lat="44.88382" lon="-0.79384">
        <ele>33.8</ele>
        <time>2017-12-06T10:13:43Z</time>
      </trkpt>
      <trkpt lat="44.88377" lon="-0.79388">
        <ele>33.6</ele>
        <time>2017-12-06T10:13:44Z</time>
      </trkpt>
      <trkpt lat="44.88372" lon="-0.79392">
        <ele>33.4</ele>
        <time>2017-12-06T10:13:45Z</time>
      </trkpt>
      <trkpt lat="44.88368" lon="-0.79396">
        <ele>33.2</ele>
        <time>2017-12-06T10:13:46Z</time>
      </trkpt>
      <trkpt lat="44.88364" lon="-0.794">
        <ele>33</ele>
        <time>2017-12-06T10:13:47Z</time>
      </trkpt>
      <trkpt lat="44.88359" lon="-0.79403">
        <ele>32.9</ele>
        <time>2017-12-06T10:13:48Z</time>
      </trkpt>
      <trkpt lat="44.88356" lon="-0.79406">
        <ele>32.7</ele>
        <time>2017-12-06T10:13:49Z</time>
      </trkpt>
      <trkpt lat="44.88352" lon="-0.79408">
        <ele>32.6</ele>
        <time>2017-12-06T10:13:50Z</time>
      </trkpt>
      <trkpt lat="44.8835" lon="-0.79411">
        <ele>32.5</ele>
        <time>2017-12-06T10:13:51Z</time>
      </trkpt>
      <trkpt lat="44.88346" lon="-0.79415">
        <ele>32.4</ele>
        <time>2017-12-06T10:13:52Z</time>
      </trkpt>
      <trkpt lat="44.88343" lon="-0.79418">
        <ele>32.2</ele>
        <time>2017-12-06T10:13:53Z</time>
      </trkpt>
      <trkpt lat="44.8834" lon="-0.7942">
        <ele>32.1</ele>
        <time>2017-12-06T10:13:54Z</time>
      </trkpt>
      <trkpt lat="44.88335" lon="-0.79421">
        <ele>32</ele>
        <time>2017-12-06T10:13:55Z</time>
      </trkpt>
      <trkpt lat="44.88331" lon="-0.79419">
        <ele>31.8</ele>
        <time>2017-12-06T10:13:56Z</time>
      </trkpt>
      <trkpt lat="44.88327" lon="-0.79418">
        <ele>31.7</ele>
        <time>2017-12-06T10:13:57Z</time>
      </trkpt>
      <trkpt lat="44.88323" lon="-0.79417">
        <ele>31.6</ele>
        <time>2017-12-06T10:13:58Z</time>
      </trkpt>
      <trkpt lat="44.8832" lon="-0.79415">
        <ele>31.5</ele>
        <time>2017-12-06T10:13:59Z</time>
      </trkpt>
      <trkpt lat="44.88317" lon="-0.79414">
        <ele>31.4</ele>
        <time>2017-12-06T10:14:00Z</time>
      </trkpt>
      <trkpt lat="44.88314" lon="-0.79415">
        <ele>31.3</ele>
        <time>2017-12-06T10:14:01Z</time>
      </trkpt>
      <trkpt lat="44.88312" lon="-0.79418">
        <ele>32.2</ele>
        <time>2017-12-06T10:14:02Z</time>
      </trkpt>
      <trkpt lat="44.88311" lon="-0.79422">
        <ele>32.5</ele>
        <time>2017-12-06T10:14:03Z</time>
      </trkpt>
      <trkpt lat="44.88312" lon="-0.79427">
        <ele>32.8</ele>
        <time>2017-12-06T10:14:04Z</time>
      </trkpt>
      <trkpt lat="44.88312" lon="-0.79432">
        <ele>33.1</ele>
        <time>2017-12-06T10:14:05Z</time>
      </trkpt>
      <trkpt lat="44.88311" lon="-0.79438">
        <ele>33.3</ele>
        <time>2017-12-06T10:14:06Z</time>
      </trkpt>
      <trkpt lat="44.8831" lon="-0.79443">
        <ele>33.6</ele>
        <time>2017-12-06T10:14:07Z</time>
      </trkpt>
      <trkpt lat="44.8831" lon="-0.79449">
        <ele>33.8</ele>
        <time>2017-12-06T10:14:08Z</time>
      </trkpt>
      <trkpt lat="44.88309" lon="-0.79455">
        <ele>34</ele>
        <time>2017-12-06T10:14:09Z</time>
      </trkpt>
      <trkpt lat="44.88309" lon="-0.79461">
        <ele>34.2</ele>
        <time>2017-12-06T10:14:10Z</time>
      </trkpt>
      <trkpt lat="44.88309" lon="-0.79467">
        <ele>34.5</ele>
        <time>2017-12-06T10:14:11Z</time>
      </trkpt>
      <trkpt lat="44.88308" lon="-0.79473">
        <ele>34.7</ele>
        <time>2017-12-06T10:14:12Z</time>
      </trkpt>
      <trkpt lat="44.88308" lon="-0.79478">
        <ele>34.9</ele>
        <time>2017-12-06T10:14:13Z</time>
      </trkpt>
      <trkpt lat="44.88307" lon="-0.79485">
        <ele>35.2</ele>
        <time>2017-12-06T10:14:14Z</time>
      </trkpt>
      <trkpt lat="44.88306" lon="-0.79491">
        <ele>35.5</ele>
        <time>2017-12-06T10:14:15Z</time>
      </trkpt>
      <trkpt lat="44.88306" lon="-0.79498">
        <ele>35.7</ele>
        <time>2017-12-06T10:14:16Z</time>
      </trkpt>
      <trkpt lat="44.88306" lon="-0.79505">
        <ele>36</ele>
        <time>2017-12-06T10:14:17Z</time>
      </trkpt>
      <trkpt lat="44.88305" lon="-0.79511">
        <ele>36.3</ele>
        <time>2017-12-06T10:14:18Z</time>
      </trkpt>
      <trkpt lat="44.88305" lon="-0.79518">
        <ele>36.6</ele>
        <time>2017-12-06T10:14:19Z</time>
      </trkpt>
      <trkpt lat="44.88305" lon="-0.79525">
        <ele>36.9</ele>
        <time>2017-12-06T10:14:20Z</time>
      </trkpt>
      <trkpt lat="44.88305" lon="-0.79533">
        <ele>37.1</ele>
        <time>2017-12-06T10:14:21Z</time>
      </trkpt>
      <trkpt lat="44.88304" lon="-0.7954">
        <ele>37.4</ele>
        <time>2017-12-06T10:14:22Z</time>
      </trkpt>
      <trkpt lat="44.88303" lon="-0.79547">
        <ele>37.6</ele>
        <time>2017-12-06T10:14:23Z</time>
      </trkpt>
      <trkpt lat="44.88303" lon="-0.79554">
        <ele>37.9</ele>
        <time>2017-12-06T10:14:24Z</time>
      </trkpt>
      <trkpt lat="44.88303" lon="-0.79562">
        <ele>38.1</ele>
        <time>2017-12-06T10:14:25Z</time>
      </trkpt>
      <trkpt lat="44.88304" lon="-0.79569">
        <ele>38.4</ele>
        <time>2017-12-06T10:14:26Z</time>
      </trkpt>
      <trkpt lat="44.88305" lon="-0.79576">
        <ele>38.6</ele>
        <time>2017-12-06T10:14:27Z</time>
      </trkpt>
      <trkpt lat="44.88308" lon="-0.79581">
        <ele>38.9</ele>
        <time>2017-12-06T10:14:28Z</time>
      </trkpt>
      <trkpt lat="44.88309" lon="-0.79586">
        <ele>39</ele>
        <time>2017-12-06T10:14:29Z</time>
      </trkpt>
      <trkpt lat="44.88308" lon="-0.7959">
        <ele>39</ele>
        <time>2017-12-06T10:14:30Z</time>
      </trkpt>
      <trkpt lat="44.88306" lon="-0.79593">
        <ele>39</ele>
        <time>2017-12-06T10:14:31Z</time>
      </trkpt>
      <trkpt lat="44.88303" lon="-0.79594">
        <ele>39</ele>
        <time>2017-12-06T10:14:32Z</time>
      </trkpt>
      <trkpt lat="44.88301" lon="-0.79599">
        <ele>39</ele>
        <time>2017-12-06T10:14:34Z</time>
      </trkpt>
      <trkpt lat="44.88302" lon="-0.79604">
        <ele>39</ele>
        <time>2017-12-06T10:14:35Z</time>
      </trkpt>
      <trkpt lat="44.88305" lon="-0.79608">
        <ele>39</ele>
        <time>2017-12-06T10:14:36Z</time>
      </trkpt>
      <trkpt lat="44.88309" lon="-0.7961">
        <ele>39</ele>
        <time>2017-12-06T10:14:37Z</time>
      </trkpt>
      <trkpt lat="44.88312" lon="-0.79611">
        <ele>39</ele>
        <time>2017-12-06T10:14:38Z</time>
      </trkpt>
      <trkpt lat="44.88315" lon="-0.79613">
        <ele>37.1</ele>
        <time>2017-12-06T10:14:39Z</time>
      </trkpt>
      <trkpt lat="44.88317" lon="-0.79614">
        <ele>36.5</ele>
        <time>2017-12-06T10:14:40Z</time>
      </trkpt>
      <trkpt lat="44.88321" lon="-0.79614">
        <ele>35.6</ele>
        <time>2017-12-06T10:14:42Z</time>
      </trkpt>
      <trkpt lat="44.88324" lon="-0.79615">
        <ele>35.3</ele>
        <time>2017-12-06T10:14:43Z</time>
      </trkpt>
      <trkpt lat="44.88327" lon="-0.79618">
        <ele>35.1</ele>
        <time>2017-12-06T10:14:44Z</time>
      </trkpt>
      <trkpt lat="44.88331" lon="-0.79621">
        <ele>35</ele>
        <time>2017-12-06T10:14:45Z</time>
      </trkpt>
      <trkpt lat="44.88334" lon="-0.79625">
        <ele>35</ele>
        <time>2017-12-06T10:14:46Z</time>
      </trkpt>
      <trkpt lat="44.88337" lon="-0.79628">
        <ele>35</ele>
        <time>2017-12-06T10:14:47Z</time>
      </trkpt>
      <trkpt lat="44.88341" lon="-0.79629">
        <ele>34.9</ele>
        <time>2017-12-06T10:14:48Z</time>
      </trkpt>
      <trkpt lat="44.88344" lon="-0.79632">
        <ele>34.7</ele>
        <time>2017-12-06T10:14:49Z</time>
      </trkpt>
      <trkpt lat="44.88347" lon="-0.79636">
        <ele>34.4</ele>
        <time>2017-12-06T10:14:50Z</time>
      </trkpt>
      <trkpt lat="44.8835" lon="-0.7964">
        <ele>34</ele>
        <time>2017-12-06T10:14:51Z</time>
      </trkpt>
      <trkpt lat="44.88353" lon="-0.79644">
        <ele>33.7</ele>
        <time>2017-12-06T10:14:52Z</time>
      </trkpt>
      <trkpt lat="44.88356" lon="-0.79646">
        <ele>33.5</ele>
        <time>2017-12-06T10:14:53Z</time>
      </trkpt>
      <trkpt lat="44.8836" lon="-0.79648">
        <ele>33.4</ele>
        <time>2017-12-06T10:14:54Z</time>
      </trkpt>
      <trkpt lat="44.88363" lon="-0.79651">
        <ele>33.2</ele>
        <time>2017-12-06T10:14:55Z</time>
      </trkpt>
      <trkpt lat="44.88365" lon="-0.79656">
        <ele>33.1</ele>
        <time>2017-12-06T10:14:56Z</time>
      </trkpt>
      <trkpt lat="44.88367" lon="-0.79658">
        <ele>33</ele>
        <time>2017-12-06T10:14:57Z</time>
      </trkpt>
      <trkpt lat="44.88372" lon="-0.79662">
        <ele>32.9</ele>
        <time>2017-12-06T10:14:59Z</time>
      </trkpt>
      <trkpt lat="44.88376" lon="-0.79664">
        <ele>32.9</ele>
        <time>2017-12-06T10:15:00Z</time>
      </trkpt>
      <trkpt lat="44.88379" lon="-0.79668">
        <ele>33.3</ele>
        <time>2017-12-06T10:15:01Z</time>
      </trkpt>
      <trkpt lat="44.88383" lon="-0.79672">
        <ele>33.8</ele>
        <time>2017-12-06T10:15:02Z</time>
      </trkpt>
      <trkpt lat="44.88386" lon="-0.79676">
        <ele>34.3</ele>
        <time>2017-12-06T10:15:03Z</time>
      </trkpt>
      <trkpt lat="44.88389" lon="-0.7968">
        <ele>34.8</ele>
        <time>2017-12-06T10:15:04Z</time>
      </trkpt>
      <trkpt lat="44.88392" lon="-0.79683">
        <ele>35.3</ele>
        <time>2017-12-06T10:15:05Z</time>
      </trkpt>
      <trkpt lat="44.88395" lon="-0.79686">
        <ele>35.7</ele>
        <time>2017-12-06T10:15:06Z</time>
      </trkpt>
      <trkpt lat="44.88398" lon="-0.79688">
        <ele>36.1</ele>
        <time>2017-12-06T10:15:07Z</time>
      </trkpt>
      <trkpt lat="44.88401" lon="-0.79691">
        <ele>36.1</ele>
        <time>2017-12-06T10:15:08Z</time>
      </trkpt>
      <trkpt lat="44.88403" lon="-0.79693">
        <ele>36.2</ele>
        <time>2017-12-06T10:15:09Z</time>
      </trkpt>
      <trkpt lat="44.88406" lon="-0.79695">
        <ele>36.3</ele>
        <time>2017-12-06T10:15:10Z</time>
      </trkpt>
      <trkpt lat="44.88408" lon="-0.79697">
        <ele>36.4</ele>
        <time>2017-12-06T10:15:11Z</time>
      </trkpt>
      <trkpt lat="44.88411" lon="-0.797">
        <ele>36.5</ele>
        <time>2017-12-06T10:15:12Z</time>
      </trkpt>
      <trkpt lat="44.88413" lon="-0.79703">
        <ele>36.5</ele>
        <time>2017-12-06T10:15:13Z</time>
      </trkpt>
      <trkpt lat="44.88415" lon="-0.79706">
        <ele>36.6</ele>
        <time>2017-12-06T10:15:14Z</time>
      </trkpt>
      <trkpt lat="44.88418" lon="-0.7971">
        <ele>36.7</ele>
        <time>2017-12-06T10:15:15Z</time>
      </trkpt>
      <trkpt lat="44.8842" lon="-0.79716">
        <ele>36.9</ele>
        <time>2017-12-06T10:15:16Z</time>
      </trkpt>
      <trkpt lat="44.88421" lon="-0.79721">
        <ele>37</ele>
        <time>2017-12-06T10:15:17Z</time>
      </trkpt>
      <trkpt lat="44.88423" lon="-0.79725">
        <ele>37</ele>
        <time>2017-12-06T10:15:18Z</time>
      </trkpt>
      <trkpt lat="44.88426" lon="-0.79727">
        <ele>37</ele>
        <time>2017-12-06T10:15:19Z</time>
      </trkpt>
      <trkpt lat="44.8843" lon="-0.79731">
        <ele>37</ele>
        <time>2017-12-06T10:15:21Z</time>
      </trkpt>
      <trkpt lat="44.88434" lon="-0.79735">
        <ele>37</ele>
        <time>2017-12-06T10:15:23Z</time>
      </trkpt>
      <trkpt lat="44.88438" lon="-0.7974">
        <ele>37</ele>
        <time>2017-12-06T10:15:25Z</time>
      </trkpt>
      <trkpt lat="44.8844" lon="-0.79744">
        <ele>37</ele>
        <time>2017-12-06T10:15:26Z</time>
      </trkpt>
      <trkpt lat="44.88441" lon="-0.79748">
        <ele>37</ele>
        <time>2017-12-06T10:15:27Z</time>
      </trkpt>
      <trkpt lat="44.88443" lon="-0.79753">
        <ele>37</ele>
        <time>2017-12-06T10:15:28Z</time>
      </trkpt>
      <trkpt lat="44.88443" lon="-0.79758">
        <ele>37</ele>
        <time>2017-12-06T10:15:29Z</time>
      </trkpt>
      <trkpt lat="44.88444" lon="-0.79765">
        <ele>36.9</ele>
        <time>2017-12-06T10:15:30Z</time>
      </trkpt>
      <trkpt lat="44.88446" lon="-0.7977">
        <ele>36.9</ele>
        <time>2017-12-06T10:15:31Z</time>
      </trkpt>
      <trkpt lat="44.88449" lon="-0.79773">
        <ele>36.9</ele>
        <time>2017-12-06T10:15:32Z</time>
      </trkpt>
      <trkpt lat="44.88452" lon="-0.79776">
        <ele>36.9</ele>
        <time>2017-12-06T10:15:33Z</time>
      </trkpt>
      <trkpt lat="44.88456" lon="-0.79779">
        <ele>36.9</ele>
        <time>2017-12-06T10:15:34Z</time>
      </trkpt>
      <trkpt lat="44.88459" lon="-0.79781">
        <ele>36.9</ele>
        <time>2017-12-06T10:15:35Z</time>
      </trkpt>
      <trkpt lat="44.88463" lon="-0.79783">
        <ele>36.9</ele>
        <time>2017-12-06T10:15:36Z</time>
      </trkpt>
      <trkpt lat="44.88466" lon="-0.79785">
        <ele>36.9</ele>
        <time>2017-12-06T10:15:37Z</time>
      </trkpt>
      <trkpt lat="44.88469" lon="-0.79788">
        <ele>36.9</ele>
        <time>2017-12-06T10:15:38Z</time>
      </trkpt>
      <trkpt lat="44.88473" lon="-0.79789">
        <ele>36.9</ele>
        <time>2017-12-06T10:15:39Z</time>
      </trkpt>
      <trkpt lat="44.88477" lon="-0.7979">
        <ele>36.9</ele>
        <time>2017-12-06T10:15:40Z</time>
      </trkpt>
      <trkpt lat="44.88481" lon="-0.79791">
        <ele>36.9</ele>
        <time>2017-12-06T10:15:41Z</time>
      </trkpt>
      <trkpt lat="44.88485" lon="-0.79793">
        <ele>36.9</ele>
        <time>2017-12-06T10:15:42Z</time>
      </trkpt>
      <trkpt lat="44.88489" lon="-0.79794">
        <ele>36.9</ele>
        <time>2017-12-06T10:15:43Z</time>
      </trkpt>
      <trkpt lat="44.88493" lon="-0.79795">
        <ele>36.9</ele>
        <time>2017-12-06T10:15:44Z</time>
      </trkpt>
      <trkpt lat="44.88496" lon="-0.79796">
        <ele>36.9</ele>
        <time>2017-12-06T10:15:45Z</time>
      </trkpt>
      <trkpt lat="44.88499" lon="-0.79798">
        <ele>36.9</ele>
        <time>2017-12-06T10:15:46Z</time>
      </trkpt>
      <trkpt lat="44.88502" lon="-0.79801">
        <ele>36.9</ele>
        <time>2017-12-06T10:15:47Z</time>
      </trkpt>
      <trkpt lat="44.88505" lon="-0.79807">
        <ele>37</ele>
        <time>2017-12-06T10:15:48Z</time>
      </trkpt>
      <trkpt lat="44.88509" lon="-0.79811">
        <ele>37.1</ele>
        <time>2017-12-06T10:15:49Z</time>
      </trkpt>
      <trkpt lat="44.88513" lon="-0.79812">
        <ele>37.2</ele>
        <time>2017-12-06T10:15:50Z</time>
      </trkpt>
      <trkpt lat="44.88517" lon="-0.79814">
        <ele>37.4</ele>
        <time>2017-12-06T10:15:51Z</time>
      </trkpt>
      <trkpt lat="44.8852" lon="-0.79814">
        <ele>37.6</ele>
        <time>2017-12-06T10:15:52Z</time>
      </trkpt>
      <trkpt lat="44.88525" lon="-0.79813">
        <ele>37.9</ele>
        <time>2017-12-06T10:15:54Z</time>
      </trkpt>
      <trkpt lat="44.88527" lon="-0.7981">
        <ele>38.2</ele>
        <time>2017-12-06T10:15:55Z</time>
      </trkpt>
      <trkpt lat="44.8853" lon="-0.79807">
        <ele>38.3</ele>
        <time>2017-12-06T10:15:56Z</time>
      </trkpt>
      <trkpt lat="44.88533" lon="-0.79806">
        <ele>38.4</ele>
        <time>2017-12-06T10:15:57Z</time>
      </trkpt>
      <trkpt lat="44.88538" lon="-0.79807">
        <ele>38.5</ele>
        <time>2017-12-06T10:15:58Z</time>
      </trkpt>
      <trkpt lat="44.88542" lon="-0.79807">
        <ele>38.6</ele>
        <time>2017-12-06T10:15:59Z</time>
      </trkpt>
      <trkpt lat="44.88547" lon="-0.79808">
        <ele>38.6</ele>
        <time>2017-12-06T10:16:00Z</time>
      </trkpt>
      <trkpt lat="44.88551" lon="-0.79808">
        <ele>38.7</ele>
        <time>2017-12-06T10:16:01Z</time>
      </trkpt>
      <trkpt lat="44.88555" lon="-0.79808">
        <ele>38.7</ele>
        <time>2017-12-06T10:16:02Z</time>
      </trkpt>
      <trkpt lat="44.8856" lon="-0.79809">
        <ele>38.7</ele>
        <time>2017-12-06T10:16:03Z</time>
      </trkpt>
      <trkpt lat="44.88565" lon="-0.7981">
        <ele>38.7</ele>
        <time>2017-12-06T10:16:04Z</time>
      </trkpt>
      <trkpt lat="44.8857" lon="-0.79811">
        <ele>38.7</ele>
        <time>2017-12-06T10:16:05Z</time>
      </trkpt>
      <trkpt lat="44.88574" lon="-0.79813">
        <ele>38.7</ele>
        <time>2017-12-06T10:16:06Z</time>
      </trkpt>
      <trkpt lat="44.88578" lon="-0.79817">
        <ele>38.6</ele>
        <time>2017-12-06T10:16:07Z</time>
      </trkpt>
      <trkpt lat="44.88582" lon="-0.79821">
        <ele>38.6</ele>
        <time>2017-12-06T10:16:08Z</time>
      </trkpt>
      <trkpt lat="44.88585" lon="-0.79825">
        <ele>38.6</ele>
        <time>2017-12-06T10:16:09Z</time>
      </trkpt>
      <trkpt lat="44.88588" lon="-0.79828">
        <ele>38.6</ele>
        <time>2017-12-06T10:16:10Z</time>
      </trkpt>
      <trkpt lat="44.88592" lon="-0.79832">
        <ele>38.6</ele>
        <time>2017-12-06T10:16:11Z</time>
      </trkpt>
      <trkpt lat="44.88596" lon="-0.79833">
        <ele>38.6</ele>
        <time>2017-12-06T10:16:12Z</time>
      </trkpt>
      <trkpt lat="44.886" lon="-0.79833">
        <ele>38.6</ele>
        <time>2017-12-06T10:16:13Z</time>
      </trkpt>
      <trkpt lat="44.88603" lon="-0.79834">
        <ele>38.6</ele>
        <time>2017-12-06T10:16:14Z</time>
      </trkpt>
      <trkpt lat="44.88606" lon="-0.79835">
        <ele>38.6</ele>
        <time>2017-12-06T10:16:15Z</time>
      </trkpt>
      <trkpt lat="44.88609" lon="-0.79838">
        <ele>38.6</ele>
        <time>2017-12-06T10:16:16Z</time>
      </trkpt>
      <trkpt lat="44.8861" lon="-0.79842">
        <ele>38.6</ele>
        <time>2017-12-06T10:16:17Z</time>
      </trkpt>
      <trkpt lat="44.88611" lon="-0.79846">
        <ele>38.6</ele>
        <time>2017-12-06T10:16:18Z</time>
      </trkpt>
      <trkpt lat="44.88611" lon="-0.79851">
        <ele>38.6</ele>
        <time>2017-12-06T10:16:19Z</time>
      </trkpt>
      <trkpt lat="44.8861" lon="-0.79854">
        <ele>38.6</ele>
        <time>2017-12-06T10:16:20Z</time>
      </trkpt>
      <trkpt lat="44.88608" lon="-0.79856">
        <ele>38.6</ele>
        <time>2017-12-06T10:16:22Z</time>
      </trkpt>
      <trkpt lat="44.88605" lon="-0.79858">
        <ele>38.6</ele>
        <time>2017-12-06T10:16:25Z</time>
      </trkpt>
      <trkpt lat="44.88603" lon="-0.79861">
        <ele>38.6</ele>
        <time>2017-12-06T10:16:32Z</time>
      </trkpt>
      <trkpt lat="44.88602" lon="-0.79866">
        <ele>38.6</ele>
        <time>2017-12-06T10:16:37Z</time>
      </trkpt>
      <trkpt lat="44.88603" lon="-0.7987">
        <ele>38.6</ele>
        <time>2017-12-06T10:16:39Z</time>
      </trkpt>
      <trkpt lat="44.88602" lon="-0.79874">
        <ele>38.6</ele>
        <time>2017-12-06T10:16:41Z</time>
      </trkpt>
      <trkpt lat="44.886" lon="-0.79879">
        <ele>38.6</ele>
        <time>2017-12-06T10:16:43Z</time>
      </trkpt>
      <trkpt lat="44.88596" lon="-0.79881">
        <ele>38.6</ele>
        <time>2017-12-06T10:16:45Z</time>
      </trkpt>
      <trkpt lat="44.8859" lon="-0.79883">
        <ele>38.7</ele>
        <time>2017-12-06T10:16:47Z</time>
      </trkpt>
      <trkpt lat="44.88588" lon="-0.79885">
        <ele>38.7</ele>
        <time>2017-12-06T10:16:48Z</time>
      </trkpt>
      <trkpt lat="44.88586" lon="-0.79888">
        <ele>38.7</ele>
        <time>2017-12-06T10:16:49Z</time>
      </trkpt>
      <trkpt lat="44.88585" lon="-0.79892">
        <ele>38.8</ele>
        <time>2017-12-06T10:16:50Z</time>
      </trkpt>
      <trkpt lat="44.88585" lon="-0.79896">
        <ele>38.8</ele>
        <time>2017-12-06T10:16:51Z</time>
      </trkpt>
      <trkpt lat="44.88585" lon="-0.799">
        <ele>38.9</ele>
        <time>2017-12-06T10:16:52Z</time>
      </trkpt>
      <trkpt lat="44.88587" lon="-0.79904">
        <ele>39</ele>
        <time>2017-12-06T10:16:53Z</time>
      </trkpt>
      <trkpt lat="44.88589" lon="-0.79909">
        <ele>39</ele>
        <time>2017-12-06T10:16:55Z</time>
      </trkpt>
      <trkpt lat="44.88592" lon="-0.79914">
        <ele>39.1</ele>
        <time>2017-12-06T10:16:57Z</time>
      </trkpt>
      <trkpt lat="44.88598" lon="-0.79917">
        <ele>39.2</ele>
        <time>2017-12-06T10:16:59Z</time>
      </trkpt>
      <trkpt lat="44.88601" lon="-0.79918">
        <ele>39.2</ele>
        <time>2017-12-06T10:17:00Z</time>
      </trkpt>
      <trkpt lat="44.88603" lon="-0.79921">
        <ele>39.3</ele>
        <time>2017-12-06T10:17:01Z</time>
      </trkpt>
      <trkpt lat="44.88605" lon="-0.79925">
        <ele>39.3</ele>
        <time>2017-12-06T10:17:02Z</time>
      </trkpt>
      <trkpt lat="44.88606" lon="-0.79929">
        <ele>39.4</ele>
        <time>2017-12-06T10:17:03Z</time>
      </trkpt>
      <trkpt lat="44.88607" lon="-0.79933">
        <ele>39.4</ele>
        <time>2017-12-06T10:17:04Z</time>
      </trkpt>
      <trkpt lat="44.88611" lon="-0.7994">
        <ele>39.5</ele>
        <time>2017-12-06T10:17:06Z</time>
      </trkpt>
      <trkpt lat="44.88613" lon="-0.79944">
        <ele>39.5</ele>
        <time>2017-12-06T10:17:07Z</time>
      </trkpt>
      <trkpt lat="44.88615" lon="-0.79947">
        <ele>39.6</ele>
        <time>2017-12-06T10:17:08Z</time>
      </trkpt>
      <trkpt lat="44.88617" lon="-0.7995">
        <ele>39.6</ele>
        <time>2017-12-06T10:17:09Z</time>
      </trkpt>
      <trkpt lat="44.88621" lon="-0.79953">
        <ele>39.7</ele>
        <time>2017-12-06T10:17:10Z</time>
      </trkpt>
      <trkpt lat="44.88625" lon="-0.79958">
        <ele>39.7</ele>
        <time>2017-12-06T10:17:11Z</time>
      </trkpt>
      <trkpt lat="44.88628" lon="-0.79963">
        <ele>39.8</ele>
        <time>2017-12-06T10:17:12Z</time>
      </trkpt>
      <trkpt lat="44.8863" lon="-0.79969">
        <ele>39.9</ele>
        <time>2017-12-06T10:17:13Z</time>
      </trkpt>
      <trkpt lat="44.88632" lon="-0.79974">
        <ele>39.9</ele>
        <time>2017-12-06T10:17:14Z</time>
      </trkpt>
      <trkpt lat="44.88633" lon="-0.79979">
        <ele>40</ele>
        <time>2017-12-06T10:17:15Z</time>
      </trkpt>
      <trkpt lat="44.88634" lon="-0.79984">
        <ele>40</ele>
        <time>2017-12-06T10:17:16Z</time>
      </trkpt>
      <trkpt lat="44.88635" lon="-0.79989">
        <ele>40.1</ele>
        <time>2017-12-06T10:17:17Z</time>
      </trkpt>
      <trkpt lat="44.88636" lon="-0.79994">
        <ele>40.1</ele>
        <time>2017-12-06T10:17:18Z</time>
      </trkpt>
      <trkpt lat="44.88638" lon="-0.79998">
        <ele>40.2</ele>
        <time>2017-12-06T10:17:19Z</time>
      </trkpt>
      <trkpt lat="44.8864" lon="-0.80003">
        <ele>40.2</ele>
        <time>2017-12-06T10:17:20Z</time>
      </trkpt>
      <trkpt lat="44.88641" lon="-0.80009">
        <ele>40.3</ele>
        <time>2017-12-06T10:17:21Z</time>
      </trkpt>
      <trkpt lat="44.88643" lon="-0.80014">
        <ele>40.3</ele>
        <time>2017-12-06T10:17:22Z</time>
      </trkpt>
      <trkpt lat="44.88644" lon="-0.80021">
        <ele>40.4</ele>
        <time>2017-12-06T10:17:23Z</time>
      </trkpt>
      <trkpt lat="44.88646" lon="-0.80027">
        <ele>40.5</ele>
        <time>2017-12-06T10:17:24Z</time>
      </trkpt>
      <trkpt lat="44.88647" lon="-0.80033">
        <ele>40.5</ele>
        <time>2017-12-06T10:17:25Z</time>
      </trkpt>
      <trkpt lat="44.88649" lon="-0.80037">
        <ele>40.6</ele>
        <time>2017-12-06T10:17:26Z</time>
      </trkpt>
      <trkpt lat="44.8865" lon="-0.80043">
        <ele>40.6</ele>
        <time>2017-12-06T10:17:27Z</time>
      </trkpt>
      <trkpt lat="44.88651" lon="-0.80048">
        <ele>40.7</ele>
        <time>2017-12-06T10:17:28Z</time>
      </trkpt>
      <trkpt lat="44.88651" lon="-0.80058">
        <ele>40.9</ele>
        <time>2017-12-06T10:17:30Z</time>
      </trkpt>
      <trkpt lat="44.88651" lon="-0.80063">
        <ele>40.7</ele>
        <time>2017-12-06T10:17:31Z</time>
      </trkpt>
      <trkpt lat="44.88652" lon="-0.80068">
        <ele>40.5</ele>
        <time>2017-12-06T10:17:32Z</time>
      </trkpt>
      <trkpt lat="44.88654" lon="-0.80072">
        <ele>40.3</ele>
        <time>2017-12-06T10:17:33Z</time>
      </trkpt>
      <trkpt lat="44.88655" lon="-0.80076">
        <ele>40.1</ele>
        <time>2017-12-06T10:17:34Z</time>
      </trkpt>
      <trkpt lat="44.88659" lon="-0.80078">
        <ele>39.7</ele>
        <time>2017-12-06T10:17:35Z</time>
      </trkpt>
      <trkpt lat="44.88661" lon="-0.80081">
        <ele>39.2</ele>
        <time>2017-12-06T10:17:36Z</time>
      </trkpt>
      <trkpt lat="44.88663" lon="-0.80085">
        <ele>38.7</ele>
        <time>2017-12-06T10:17:37Z</time>
      </trkpt>
      <trkpt lat="44.88664" lon="-0.8009">
        <ele>38.1</ele>
        <time>2017-12-06T10:17:38Z</time>
      </trkpt>
      <trkpt lat="44.88664" lon="-0.80096">
        <ele>37.5</ele>
        <time>2017-12-06T10:17:39Z</time>
      </trkpt>
      <trkpt lat="44.88665" lon="-0.80102">
        <ele>36.9</ele>
        <time>2017-12-06T10:17:40Z</time>
      </trkpt>
      <trkpt lat="44.88665" lon="-0.80108">
        <ele>36.3</ele>
        <time>2017-12-06T10:17:41Z</time>
      </trkpt>
      <trkpt lat="44.88665" lon="-0.80114">
        <ele>36</ele>
        <time>2017-12-06T10:17:42Z</time>
      </trkpt>
      <trkpt lat="44.88666" lon="-0.8012">
        <ele>36</ele>
        <time>2017-12-06T10:17:43Z</time>
      </trkpt>
      <trkpt lat="44.88665" lon="-0.80126">
        <ele>36.1</ele>
        <time>2017-12-06T10:17:44Z</time>
      </trkpt>
      <trkpt lat="44.88664" lon="-0.80132">
        <ele>36.1</ele>
        <time>2017-12-06T10:17:45Z</time>
      </trkpt>
      <trkpt lat="44.88663" lon="-0.80138">
        <ele>36.1</ele>
        <time>2017-12-06T10:17:46Z</time>
      </trkpt>
      <trkpt lat="44.88662" lon="-0.80142">
        <ele>36.1</ele>
        <time>2017-12-06T10:17:47Z</time>
      </trkpt>
      <trkpt lat="44.88661" lon="-0.80148">
        <ele>36.2</ele>
        <time>2017-12-06T10:17:48Z</time>
      </trkpt>
      <trkpt lat="44.88662" lon="-0.80153">
        <ele>36.2</ele>
        <time>2017-12-06T10:17:49Z</time>
      </trkpt>
      <trkpt lat="44.88663" lon="-0.80159">
        <ele>36.2</ele>
        <time>2017-12-06T10:17:50Z</time>
      </trkpt>
      <trkpt lat="44.88665" lon="-0.80164">
        <ele>36.2</ele>
        <time>2017-12-06T10:17:51Z</time>
      </trkpt>
      <trkpt lat="44.88667" lon="-0.80168">
        <ele>36.2</ele>
        <time>2017-12-06T10:17:52Z</time>
      </trkpt>
      <trkpt lat="44.8867" lon="-0.80172">
        <ele>36.3</ele>
        <time>2017-12-06T10:17:53Z</time>
      </trkpt>
      <trkpt lat="44.88671" lon="-0.80177">
        <ele>36.3</ele>
        <time>2017-12-06T10:17:54Z</time>
      </trkpt>
      <trkpt lat="44.88673" lon="-0.80182">
        <ele>36.3</ele>
        <time>2017-12-06T10:17:55Z</time>
      </trkpt>
      <trkpt lat="44.88675" lon="-0.80186">
        <ele>36.3</ele>
        <time>2017-12-06T10:17:56Z</time>
      </trkpt>
      <trkpt lat="44.88677" lon="-0.80191">
        <ele>36.4</ele>
        <time>2017-12-06T10:17:57Z</time>
      </trkpt>
      <trkpt lat="44.88677" lon="-0.80197">
        <ele>36.4</ele>
        <time>2017-12-06T10:17:58Z</time>
      </trkpt>
      <trkpt lat="44.88676" lon="-0.80202">
        <ele>36.4</ele>
        <time>2017-12-06T10:17:59Z</time>
      </trkpt>
      <trkpt lat="44.88675" lon="-0.80209">
        <ele>36.4</ele>
        <time>2017-12-06T10:18:00Z</time>
      </trkpt>
      <trkpt lat="44.88674" lon="-0.80216">
        <ele>36.4</ele>
        <time>2017-12-06T10:18:01Z</time>
      </trkpt>
      <trkpt lat="44.88673" lon="-0.80223">
        <ele>36.5</ele>
        <time>2017-12-06T10:18:02Z</time>
      </trkpt>
      <trkpt lat="44.88672" lon="-0.80229">
        <ele>36.5</ele>
        <time>2017-12-06T10:18:03Z</time>
      </trkpt>
      <trkpt lat="44.8867" lon="-0.80236">
        <ele>36.5</ele>
        <time>2017-12-06T10:18:04Z</time>
      </trkpt>
      <trkpt lat="44.88669" lon="-0.80242">
        <ele>36.5</ele>
        <time>2017-12-06T10:18:05Z</time>
      </trkpt>
      <trkpt lat="44.88668" lon="-0.80249">
        <ele>36.6</ele>
        <time>2017-12-06T10:18:06Z</time>
      </trkpt>
      <trkpt lat="44.88668" lon="-0.80256">
        <ele>36.6</ele>
        <time>2017-12-06T10:18:07Z</time>
      </trkpt>
      <trkpt lat="44.88669" lon="-0.80261">
        <ele>36.6</ele>
        <time>2017-12-06T10:18:08Z</time>
      </trkpt>
      <trkpt lat="44.88672" lon="-0.80266">
        <ele>36.6</ele>
        <time>2017-12-06T10:18:09Z</time>
      </trkpt>
      <trkpt lat="44.88675" lon="-0.80271">
        <ele>36.7</ele>
        <time>2017-12-06T10:18:10Z</time>
      </trkpt>
      <trkpt lat="44.88678" lon="-0.80276">
        <ele>36.7</ele>
        <time>2017-12-06T10:18:11Z</time>
      </trkpt>
      <trkpt lat="44.8868" lon="-0.80282">
        <ele>36.7</ele>
        <time>2017-12-06T10:18:12Z</time>
      </trkpt>
      <trkpt lat="44.88683" lon="-0.80288">
        <ele>36.7</ele>
        <time>2017-12-06T10:18:13Z</time>
      </trkpt>
      <trkpt lat="44.88685" lon="-0.80293">
        <ele>36.8</ele>
        <time>2017-12-06T10:18:14Z</time>
      </trkpt>
      <trkpt lat="44.88687" lon="-0.80299">
        <ele>36.8</ele>
        <time>2017-12-06T10:18:15Z</time>
      </trkpt>
      <trkpt lat="44.8869" lon="-0.80304">
        <ele>36.8</ele>
        <time>2017-12-06T10:18:16Z</time>
      </trkpt>
      <trkpt lat="44.88693" lon="-0.80309">
        <ele>36.8</ele>
        <time>2017-12-06T10:18:17Z</time>
      </trkpt>
      <trkpt lat="44.88697" lon="-0.8031">
        <ele>36.8</ele>
        <time>2017-12-06T10:18:18Z</time>
      </trkpt>
      <trkpt lat="44.88702" lon="-0.80309">
        <ele>36.9</ele>
        <time>2017-12-06T10:18:19Z</time>
      </trkpt>
      <trkpt lat="44.88705" lon="-0.80305">
        <ele>36.9</ele>
        <time>2017-12-06T10:18:20Z</time>
      </trkpt>
      <trkpt lat="44.88706" lon="-0.80299">
        <ele>36.9</ele>
        <time>2017-12-06T10:18:21Z</time>
      </trkpt>
      <trkpt lat="44.88709" lon="-0.80296">
        <ele>36.9</ele>
        <time>2017-12-06T10:18:22Z</time>
      </trkpt>
      <trkpt lat="44.88713" lon="-0.80297">
        <ele>37</ele>
        <time>2017-12-06T10:18:23Z</time>
      </trkpt>
      <trkpt lat="44.88717" lon="-0.803">
        <ele>37</ele>
        <time>2017-12-06T10:18:24Z</time>
      </trkpt>
      <trkpt lat="44.88721" lon="-0.80303">
        <ele>37</ele>
        <time>2017-12-06T10:18:25Z</time>
      </trkpt>
      <trkpt lat="44.88725" lon="-0.80306">
        <ele>37.1</ele>
        <time>2017-12-06T10:18:26Z</time>
      </trkpt>
      <trkpt lat="44.88729" lon="-0.8031">
        <ele>37.1</ele>
        <time>2017-12-06T10:18:27Z</time>
      </trkpt>
      <trkpt lat="44.88731" lon="-0.80316">
        <ele>37.1</ele>
        <time>2017-12-06T10:18:28Z</time>
      </trkpt>
      <trkpt lat="44.88733" lon="-0.80321">
        <ele>37.1</ele>
        <time>2017-12-06T10:18:29Z</time>
      </trkpt>
      <trkpt lat="44.88735" lon="-0.80327">
        <ele>37.2</ele>
        <time>2017-12-06T10:18:30Z</time>
      </trkpt>
      <trkpt lat="44.88737" lon="-0.80333">
        <ele>37.2</ele>
        <time>2017-12-06T10:18:31Z</time>
      </trkpt>
      <trkpt lat="44.88739" lon="-0.80339">
        <ele>37.2</ele>
        <time>2017-12-06T10:18:32Z</time>
      </trkpt>
      <trkpt lat="44.88739" lon="-0.80346">
        <ele>37.2</ele>
        <time>2017-12-06T10:18:33Z</time>
      </trkpt>
      <trkpt lat="44.88738" lon="-0.80352">
        <ele>37.2</ele>
        <time>2017-12-06T10:18:34Z</time>
      </trkpt>
      <trkpt lat="44.88738" lon="-0.80359">
        <ele>37.3</ele>
        <time>2017-12-06T10:18:35Z</time>
      </trkpt>
      <trkpt lat="44.88737" lon="-0.80366">
        <ele>37.3</ele>
        <time>2017-12-06T10:18:36Z</time>
      </trkpt>
      <trkpt lat="44.88737" lon="-0.80373">
        <ele>37.4</ele>
        <time>2017-12-06T10:18:37Z</time>
      </trkpt>
      <trkpt lat="44.88735" lon="-0.80379">
        <ele>37.4</ele>
        <time>2017-12-06T10:18:38Z</time>
      </trkpt>
      <trkpt lat="44.88734" lon="-0.80385">
        <ele>37.5</ele>
        <time>2017-12-06T10:18:39Z</time>
      </trkpt>
      <trkpt lat="44.88732" lon="-0.80391">
        <ele>37.9</ele>
        <time>2017-12-06T10:18:40Z</time>
      </trkpt>
      <trkpt lat="44.88734" lon="-0.80397">
        <ele>38.2</ele>
        <time>2017-12-06T10:18:41Z</time>
      </trkpt>
      <trkpt lat="44.88736" lon="-0.80401">
        <ele>38.6</ele>
        <time>2017-12-06T10:18:42Z</time>
      </trkpt>
      <trkpt lat="44.88737" lon="-0.80407">
        <ele>39.1</ele>
        <time>2017-12-06T10:18:43Z</time>
      </trkpt>
      <trkpt lat="44.88738" lon="-0.80413">
        <ele>39.5</ele>
        <time>2017-12-06T10:18:44Z</time>
      </trkpt>
      <trkpt lat="44.88737" lon="-0.80418">
        <ele>39.7</ele>
        <time>2017-12-06T10:18:45Z</time>
      </trkpt>
      <trkpt lat="44.88737" lon="-0.80423">
        <ele>39.8</ele>
        <time>2017-12-06T10:18:46Z</time>
      </trkpt>
      <trkpt lat="44.88739" lon="-0.80428">
        <ele>39.9</ele>
        <time>2017-12-06T10:18:47Z</time>
      </trkpt>
      <trkpt lat="44.88743" lon="-0.8043">
        <ele>40</ele>
        <time>2017-12-06T10:18:48Z</time>
      </trkpt>
      <trkpt lat="44.88747" lon="-0.8043">
        <ele>39.9</ele>
        <time>2017-12-06T10:18:49Z</time>
      </trkpt>
      <trkpt lat="44.88751" lon="-0.80429">
        <ele>39.9</ele>
        <time>2017-12-06T10:18:50Z</time>
      </trkpt>
      <trkpt lat="44.88754" lon="-0.80427">
        <ele>39.8</ele>
        <time>2017-12-06T10:18:51Z</time>
      </trkpt>
      <trkpt lat="44.88758" lon="-0.80424">
        <ele>39.8</ele>
        <time>2017-12-06T10:18:52Z</time>
      </trkpt>
      <trkpt lat="44.88762" lon="-0.80422">
        <ele>39.7</ele>
        <time>2017-12-06T10:18:53Z</time>
      </trkpt>
      <trkpt lat="44.88767" lon="-0.80421">
        <ele>39.7</ele>
        <time>2017-12-06T10:18:54Z</time>
      </trkpt>
      <trkpt lat="44.8877" lon="-0.8042">
        <ele>39.6</ele>
        <time>2017-12-06T10:18:55Z</time>
      </trkpt>
      <trkpt lat="44.88774" lon="-0.80419">
        <ele>39.6</ele>
        <time>2017-12-06T10:18:56Z</time>
      </trkpt>
      <trkpt lat="44.88777" lon="-0.80417">
        <ele>39.5</ele>
        <time>2017-12-06T10:18:57Z</time>
      </trkpt>
      <trkpt lat="44.8878" lon="-0.80416">
        <ele>39.5</ele>
        <time>2017-12-06T10:18:58Z</time>
      </trkpt>
      <trkpt lat="44.88783" lon="-0.80413">
        <ele>39.5</ele>
        <time>2017-12-06T10:18:59Z</time>
      </trkpt>
      <trkpt lat="44.88786" lon="-0.80412">
        <ele>39.4</ele>
        <time>2017-12-06T10:19:00Z</time>
      </trkpt>
      <trkpt lat="44.88789" lon="-0.8041">
        <ele>39.4</ele>
        <time>2017-12-06T10:19:01Z</time>
      </trkpt>
      <trkpt lat="44.88792" lon="-0.80408">
        <ele>39.4</ele>
        <time>2017-12-06T10:19:02Z</time>
      </trkpt>
      <trkpt lat="44.88796" lon="-0.80405">
        <ele>39.3</ele>
        <time>2017-12-06T10:19:03Z</time>
      </trkpt>
      <trkpt lat="44.88799" lon="-0.80402">
        <ele>39.3</ele>
        <time>2017-12-06T10:19:04Z</time>
      </trkpt>
      <trkpt lat="44.88803" lon="-0.804">
        <ele>39.3</ele>
        <time>2017-12-06T10:19:05Z</time>
      </trkpt>
      <trkpt lat="44.88806" lon="-0.80397">
        <ele>39.2</ele>
        <time>2017-12-06T10:19:06Z</time>
      </trkpt>
      <trkpt lat="44.8881" lon="-0.80395">
        <ele>39.2</ele>
        <time>2017-12-06T10:19:07Z</time>
      </trkpt>
      <trkpt lat="44.88813" lon="-0.80393">
        <ele>39.2</ele>
        <time>2017-12-06T10:19:08Z</time>
      </trkpt>
      <trkpt lat="44.88816" lon="-0.8039">
        <ele>39.1</ele>
        <time>2017-12-06T10:19:09Z</time>
      </trkpt>
      <trkpt lat="44.88819" lon="-0.80386">
        <ele>39.1</ele>
        <time>2017-12-06T10:19:10Z</time>
      </trkpt>
      <trkpt lat="44.88823" lon="-0.80383">
        <ele>39</ele>
        <time>2017-12-06T10:19:11Z</time>
      </trkpt>
      <trkpt lat="44.88826" lon="-0.80379">
        <ele>39</ele>
        <time>2017-12-06T10:19:12Z</time>
      </trkpt>
      <trkpt lat="44.88829" lon="-0.80375">
        <ele>39</ele>
        <time>2017-12-06T10:19:13Z</time>
      </trkpt>
      <trkpt lat="44.88832" lon="-0.8037">
        <ele>39</ele>
        <time>2017-12-06T10:19:14Z</time>
      </trkpt>
      <trkpt lat="44.88835" lon="-0.80367">
        <ele>38.9</ele>
        <time>2017-12-06T10:19:15Z</time>
      </trkpt>
      <trkpt lat="44.88838" lon="-0.80364">
        <ele>39</ele>
        <time>2017-12-06T10:19:16Z</time>
      </trkpt>
      <trkpt lat="44.88842" lon="-0.80362">
        <ele>39</ele>
        <time>2017-12-06T10:19:17Z</time>
      </trkpt>
      <trkpt lat="44.88846" lon="-0.80359">
        <ele>39.1</ele>
        <time>2017-12-06T10:19:18Z</time>
      </trkpt>
      <trkpt lat="44.88849" lon="-0.80357">
        <ele>39.3</ele>
        <time>2017-12-06T10:19:19Z</time>
      </trkpt>
      <trkpt lat="44.88853" lon="-0.80355">
        <ele>39.6</ele>
        <time>2017-12-06T10:19:20Z</time>
      </trkpt>
      <trkpt lat="44.88857" lon="-0.80352">
        <ele>39.9</ele>
        <time>2017-12-06T10:19:21Z</time>
      </trkpt>
      <trkpt lat="44.88862" lon="-0.8035">
        <ele>40.1</ele>
        <time>2017-12-06T10:19:22Z</time>
      </trkpt>
      <trkpt lat="44.88866" lon="-0.80348">
        <ele>40.3</ele>
        <time>2017-12-06T10:19:23Z</time>
      </trkpt>
      <trkpt lat="44.88871" lon="-0.80345">
        <ele>40.4</ele>
        <time>2017-12-06T10:19:24Z</time>
      </trkpt>
      <trkpt lat="44.88876" lon="-0.80341">
        <ele>40.5</ele>
        <time>2017-12-06T10:19:25Z</time>
      </trkpt>
      <trkpt lat="44.88879" lon="-0.80337">
        <ele>40.4</ele>
        <time>2017-12-06T10:19:26Z</time>
      </trkpt>
      <trkpt lat="44.88883" lon="-0.80333">
        <ele>40.4</ele>
        <time>2017-12-06T10:19:27Z</time>
      </trkpt>
      <trkpt lat="44.88886" lon="-0.80328">
        <ele>40.4</ele>
        <time>2017-12-06T10:19:28Z</time>
      </trkpt>
      <trkpt lat="44.88889" lon="-0.80322">
        <ele>40.3</ele>
        <time>2017-12-06T10:19:29Z</time>
      </trkpt>
      <trkpt lat="44.88893" lon="-0.80318">
        <ele>40.3</ele>
        <time>2017-12-06T10:19:30Z</time>
      </trkpt>
      <trkpt lat="44.88897" lon="-0.80315">
        <ele>40.3</ele>
        <time>2017-12-06T10:19:31Z</time>
      </trkpt>
      <trkpt lat="44.88901" lon="-0.80312">
        <ele>40.2</ele>
        <time>2017-12-06T10:19:32Z</time>
      </trkpt>
      <trkpt lat="44.88904" lon="-0.80308">
        <ele>40.2</ele>
        <time>2017-12-06T10:19:33Z</time>
      </trkpt>
      <trkpt lat="44.88907" lon="-0.80303">
        <ele>40.1</ele>
        <time>2017-12-06T10:19:34Z</time>
      </trkpt>
      <trkpt lat="44.8891" lon="-0.80298">
        <ele>40.1</ele>
        <time>2017-12-06T10:19:35Z</time>
      </trkpt>
      <trkpt lat="44.88914" lon="-0.80295">
        <ele>40.1</ele>
        <time>2017-12-06T10:19:36Z</time>
      </trkpt>
      <trkpt lat="44.88918" lon="-0.80295">
        <ele>40</ele>
        <time>2017-12-06T10:19:37Z</time>
      </trkpt>
      <trkpt lat="44.88922" lon="-0.80297">
        <ele>40</ele>
        <time>2017-12-06T10:19:38Z</time>
      </trkpt>
      <trkpt lat="44.88926" lon="-0.803">
        <ele>39.9</ele>
        <time>2017-12-06T10:19:39Z</time>
      </trkpt>
      <trkpt lat="44.8893" lon="-0.80303">
        <ele>39.9</ele>
        <time>2017-12-06T10:19:40Z</time>
      </trkpt>
      <trkpt lat="44.88934" lon="-0.80305">
        <ele>39.9</ele>
        <time>2017-12-06T10:19:41Z</time>
      </trkpt>
      <trkpt lat="44.88939" lon="-0.80308">
        <ele>39.9</ele>
        <time>2017-12-06T10:19:42Z</time>
      </trkpt>
      <trkpt lat="44.88943" lon="-0.80311">
        <ele>39.8</ele>
        <time>2017-12-06T10:19:43Z</time>
      </trkpt>
      <trkpt lat="44.88947" lon="-0.80313">
        <ele>39.8</ele>
        <time>2017-12-06T10:19:44Z</time>
      </trkpt>
      <trkpt lat="44.88952" lon="-0.80316">
        <ele>39.8</ele>
        <time>2017-12-06T10:19:45Z</time>
      </trkpt>
      <trkpt lat="44.88956" lon="-0.80318">
        <ele>39.8</ele>
        <time>2017-12-06T10:19:46Z</time>
      </trkpt>
      <trkpt lat="44.8896" lon="-0.80321">
        <ele>39.7</ele>
        <time>2017-12-06T10:19:47Z</time>
      </trkpt>
      <trkpt lat="44.88964" lon="-0.80324">
        <ele>39.7</ele>
        <time>2017-12-06T10:19:48Z</time>
      </trkpt>
      <trkpt lat="44.88969" lon="-0.80326">
        <ele>39.7</ele>
        <time>2017-12-06T10:19:49Z</time>
      </trkpt>
      <trkpt lat="44.88973" lon="-0.80329">
        <ele>39.7</ele>
        <time>2017-12-06T10:19:50Z</time>
      </trkpt>
      <trkpt lat="44.88977" lon="-0.80332">
        <ele>39.6</ele>
        <time>2017-12-06T10:19:51Z</time>
      </trkpt>
      <trkpt lat="44.88982" lon="-0.80335">
        <ele>39.6</ele>
        <time>2017-12-06T10:19:52Z</time>
      </trkpt>
      <trkpt lat="44.88986" lon="-0.80337">
        <ele>39.6</ele>
        <time>2017-12-06T10:19:53Z</time>
      </trkpt>
      <trkpt lat="44.8899" lon="-0.8034">
        <ele>39.6</ele>
        <time>2017-12-06T10:19:54Z</time>
      </trkpt>
      <trkpt lat="44.88994" lon="-0.80343">
        <ele>39.5</ele>
        <time>2017-12-06T10:19:55Z</time>
      </trkpt>
      <trkpt lat="44.88998" lon="-0.80345">
        <ele>39.5</ele>
        <time>2017-12-06T10:19:56Z</time>
      </trkpt>
      <trkpt lat="44.89003" lon="-0.80348">
        <ele>39.5</ele>
        <time>2017-12-06T10:19:57Z</time>
      </trkpt>
      <trkpt lat="44.89007" lon="-0.8035">
        <ele>39.5</ele>
        <time>2017-12-06T10:19:58Z</time>
      </trkpt>
      <trkpt lat="44.89011" lon="-0.80353">
        <ele>39.4</ele>
        <time>2017-12-06T10:19:59Z</time>
      </trkpt>
      <trkpt lat="44.89015" lon="-0.80356">
        <ele>39.4</ele>
        <time>2017-12-06T10:20:00Z</time>
      </trkpt>
      <trkpt lat="44.89019" lon="-0.80359">
        <ele>39.4</ele>
        <time>2017-12-06T10:20:01Z</time>
      </trkpt>
      <trkpt lat="44.89023" lon="-0.80362">
        <ele>39.3</ele>
        <time>2017-12-06T10:20:02Z</time>
      </trkpt>
      <trkpt lat="44.89027" lon="-0.80365">
        <ele>39.3</ele>
        <time>2017-12-06T10:20:03Z</time>
      </trkpt>
      <trkpt lat="44.89032" lon="-0.80368">
        <ele>39.3</ele>
        <time>2017-12-06T10:20:04Z</time>
      </trkpt>
      <trkpt lat="44.89036" lon="-0.80371">
        <ele>39.3</ele>
        <time>2017-12-06T10:20:05Z</time>
      </trkpt>
      <trkpt lat="44.8904" lon="-0.80374">
        <ele>39.3</ele>
        <time>2017-12-06T10:20:06Z</time>
      </trkpt>
      <trkpt lat="44.89044" lon="-0.80377">
        <ele>39.4</ele>
        <time>2017-12-06T10:20:07Z</time>
      </trkpt>
      <trkpt lat="44.89049" lon="-0.8038">
        <ele>39.6</ele>
        <time>2017-12-06T10:20:08Z</time>
      </trkpt>
      <trkpt lat="44.89054" lon="-0.80382">
        <ele>39.8</ele>
        <time>2017-12-06T10:20:09Z</time>
      </trkpt>
      <trkpt lat="44.89058" lon="-0.80385">
        <ele>40</ele>
        <time>2017-12-06T10:20:10Z</time>
      </trkpt>
      <trkpt lat="44.89062" lon="-0.80388">
        <ele>40.2</ele>
        <time>2017-12-06T10:20:11Z</time>
      </trkpt>
      <trkpt lat="44.89066" lon="-0.80391">
        <ele>40.4</ele>
        <time>2017-12-06T10:20:12Z</time>
      </trkpt>
      <trkpt lat="44.8907" lon="-0.80394">
        <ele>40.6</ele>
        <time>2017-12-06T10:20:13Z</time>
      </trkpt>
      <trkpt lat="44.89075" lon="-0.80397">
        <ele>40.8</ele>
        <time>2017-12-06T10:20:14Z</time>
      </trkpt>
      <trkpt lat="44.89079" lon="-0.804">
        <ele>40.9</ele>
        <time>2017-12-06T10:20:15Z</time>
      </trkpt>
      <trkpt lat="44.89083" lon="-0.80403">
        <ele>40.9</ele>
        <time>2017-12-06T10:20:16Z</time>
      </trkpt>
      <trkpt lat="44.89087" lon="-0.80406">
        <ele>41</ele>
        <time>2017-12-06T10:20:17Z</time>
      </trkpt>
      <trkpt lat="44.89091" lon="-0.80409">
        <ele>41</ele>
        <time>2017-12-06T10:20:18Z</time>
      </trkpt>
      <trkpt lat="44.89095" lon="-0.80412">
        <ele>41</ele>
        <time>2017-12-06T10:20:19Z</time>
      </trkpt>
      <trkpt lat="44.89098" lon="-0.80412">
        <ele>41</ele>
        <time>2017-12-06T10:20:20Z</time>
      </trkpt>
      <trkpt lat="44.89102" lon="-0.80411">
        <ele>41</ele>
        <time>2017-12-06T10:20:21Z</time>
      </trkpt>
      <trkpt lat="44.89105" lon="-0.80408">
        <ele>41</ele>
        <time>2017-12-06T10:20:22Z</time>
      </trkpt>
      <trkpt lat="44.89107" lon="-0.80403">
        <ele>41</ele>
        <time>2017-12-06T10:20:23Z</time>
      </trkpt>
      <trkpt lat="44.89109" lon="-0.80398">
        <ele>41.1</ele>
        <time>2017-12-06T10:20:24Z</time>
      </trkpt>
      <trkpt lat="44.89112" lon="-0.80392">
        <ele>41.1</ele>
        <time>2017-12-06T10:20:25Z</time>
      </trkpt>
      <trkpt lat="44.89114" lon="-0.80387">
        <ele>41.1</ele>
        <time>2017-12-06T10:20:26Z</time>
      </trkpt>
      <trkpt lat="44.89116" lon="-0.80381">
        <ele>41.1</ele>
        <time>2017-12-06T10:20:27Z</time>
      </trkpt>
      <trkpt lat="44.89118" lon="-0.80375">
        <ele>41.1</ele>
        <time>2017-12-06T10:20:28Z</time>
      </trkpt>
      <trkpt lat="44.8912" lon="-0.80369">
        <ele>41.2</ele>
        <time>2017-12-06T10:20:29Z</time>
      </trkpt>
      <trkpt lat="44.89122" lon="-0.80363">
        <ele>41.2</ele>
        <time>2017-12-06T10:20:30Z</time>
      </trkpt>
      <trkpt lat="44.89125" lon="-0.80357">
        <ele>41.2</ele>
        <time>2017-12-06T10:20:31Z</time>
      </trkpt>
      <trkpt lat="44.89126" lon="-0.80351">
        <ele>41.2</ele>
        <time>2017-12-06T10:20:32Z</time>
      </trkpt>
      <trkpt lat="44.89129" lon="-0.80345">
        <ele>41.2</ele>
        <time>2017-12-06T10:20:33Z</time>
      </trkpt>
      <trkpt lat="44.89131" lon="-0.80339">
        <ele>41.2</ele>
        <time>2017-12-06T10:20:34Z</time>
      </trkpt>
      <trkpt lat="44.89133" lon="-0.80333">
        <ele>41.3</ele>
        <time>2017-12-06T10:20:35Z</time>
      </trkpt>
      <trkpt lat="44.89136" lon="-0.80327">
        <ele>41.3</ele>
        <time>2017-12-06T10:20:36Z</time>
      </trkpt>
      <trkpt lat="44.89138" lon="-0.8032">
        <ele>41.3</ele>
        <time>2017-12-06T10:20:37Z</time>
      </trkpt>
      <trkpt lat="44.8914" lon="-0.80314">
        <ele>41.3</ele>
        <time>2017-12-06T10:20:38Z</time>
      </trkpt>
      <trkpt lat="44.89142" lon="-0.80308">
        <ele>41.3</ele>
        <time>2017-12-06T10:20:39Z</time>
      </trkpt>
      <trkpt lat="44.89144" lon="-0.80302">
        <ele>41.4</ele>
        <time>2017-12-06T10:20:40Z</time>
      </trkpt>
      <trkpt lat="44.89147" lon="-0.80296">
        <ele>41.4</ele>
        <time>2017-12-06T10:20:41Z</time>
      </trkpt>
      <trkpt lat="44.89149" lon="-0.80289">
        <ele>41.4</ele>
        <time>2017-12-06T10:20:42Z</time>
      </trkpt>
      <trkpt lat="44.89151" lon="-0.80283">
        <ele>41.4</ele>
        <time>2017-12-06T10:20:43Z</time>
      </trkpt>
      <trkpt lat="44.89153" lon="-0.80277">
        <ele>41.4</ele>
        <time>2017-12-06T10:20:44Z</time>
      </trkpt>
      <trkpt lat="44.89155" lon="-0.8027">
        <ele>41.4</ele>
        <time>2017-12-06T10:20:45Z</time>
      </trkpt>
      <trkpt lat="44.89158" lon="-0.80263">
        <ele>41.4</ele>
        <time>2017-12-06T10:20:46Z</time>
      </trkpt>
      <trkpt lat="44.8916" lon="-0.80257">
        <ele>41.5</ele>
        <time>2017-12-06T10:20:47Z</time>
      </trkpt>
      <trkpt lat="44.89163" lon="-0.8025">
        <ele>41.5</ele>
        <time>2017-12-06T10:20:48Z</time>
      </trkpt>
      <trkpt lat="44.89166" lon="-0.80244">
        <ele>41.5</ele>
        <time>2017-12-06T10:20:49Z</time>
      </trkpt>
      <trkpt lat="44.89168" lon="-0.80236">
        <ele>41.5</ele>
        <time>2017-12-06T10:20:50Z</time>
      </trkpt>
      <trkpt lat="44.89171" lon="-0.80229">
        <ele>41.5</ele>
        <time>2017-12-06T10:20:51Z</time>
      </trkpt>
      <trkpt lat="44.89173" lon="-0.80222">
        <ele>41.5</ele>
        <time>2017-12-06T10:20:52Z</time>
      </trkpt>
      <trkpt lat="44.89176" lon="-0.80215">
        <ele>41.6</ele>
        <time>2017-12-06T10:20:53Z</time>
      </trkpt>
      <trkpt lat="44.89179" lon="-0.80208">
        <ele>41.6</ele>
        <time>2017-12-06T10:20:54Z</time>
      </trkpt>
      <trkpt lat="44.89181" lon="-0.802">
        <ele>41.6</ele>
        <time>2017-12-06T10:20:55Z</time>
      </trkpt>
      <trkpt lat="44.89183" lon="-0.80193">
        <ele>41.6</ele>
        <time>2017-12-06T10:20:56Z</time>
      </trkpt>
      <trkpt lat="44.89186" lon="-0.80187">
        <ele>41.6</ele>
        <time>2017-12-06T10:20:57Z</time>
      </trkpt>
      <trkpt lat="44.89188" lon="-0.8018">
        <ele>41.6</ele>
        <time>2017-12-06T10:20:58Z</time>
      </trkpt>
      <trkpt lat="44.89191" lon="-0.80173">
        <ele>41.7</ele>
        <time>2017-12-06T10:20:59Z</time>
      </trkpt>
      <trkpt lat="44.89193" lon="-0.80165">
        <ele>41.7</ele>
        <time>2017-12-06T10:21:00Z</time>
      </trkpt>
      <trkpt lat="44.89196" lon="-0.80159">
        <ele>41.7</ele>
        <time>2017-12-06T10:21:01Z</time>
      </trkpt>
      <trkpt lat="44.89198" lon="-0.80152">
        <ele>41.7</ele>
        <time>2017-12-06T10:21:02Z</time>
      </trkpt>
      <trkpt lat="44.892" lon="-0.80144">
        <ele>41.7</ele>
        <time>2017-12-06T10:21:03Z</time>
      </trkpt>
      <trkpt lat="44.89202" lon="-0.80137">
        <ele>41.7</ele>
        <time>2017-12-06T10:21:04Z</time>
      </trkpt>
      <trkpt lat="44.89205" lon="-0.8013">
        <ele>41.8</ele>
        <time>2017-12-06T10:21:05Z</time>
      </trkpt>
      <trkpt lat="44.89207" lon="-0.80123">
        <ele>41.8</ele>
        <time>2017-12-06T10:21:06Z</time>
      </trkpt>
      <trkpt lat="44.8921" lon="-0.80116">
        <ele>41.8</ele>
        <time>2017-12-06T10:21:07Z</time>
      </trkpt>
      <trkpt lat="44.89212" lon="-0.80109">
        <ele>41.8</ele>
        <time>2017-12-06T10:21:08Z</time>
      </trkpt>
      <trkpt lat="44.89214" lon="-0.80102">
        <ele>41.8</ele>
        <time>2017-12-06T10:21:09Z</time>
      </trkpt>
      <trkpt lat="44.89217" lon="-0.80095">
        <ele>41.9</ele>
        <time>2017-12-06T10:21:10Z</time>
      </trkpt>
      <trkpt lat="44.89219" lon="-0.80088">
        <ele>41.9</ele>
        <time>2017-12-06T10:21:11Z</time>
      </trkpt>
      <trkpt lat="44.89222" lon="-0.80081">
        <ele>41.9</ele>
        <time>2017-12-06T10:21:12Z</time>
      </trkpt>
      <trkpt lat="44.89225" lon="-0.80075">
        <ele>41.9</ele>
        <time>2017-12-06T10:21:13Z</time>
      </trkpt>
      <trkpt lat="44.89227" lon="-0.80068">
        <ele>41.9</ele>
        <time>2017-12-06T10:21:14Z</time>
      </trkpt>
      <trkpt lat="44.8923" lon="-0.80061">
        <ele>42</ele>
        <time>2017-12-06T10:21:15Z</time>
      </trkpt>
      <trkpt lat="44.89233" lon="-0.80054">
        <ele>42</ele>
        <time>2017-12-06T10:21:16Z</time>
      </trkpt>
      <trkpt lat="44.89234" lon="-0.80047">
        <ele>42</ele>
        <time>2017-12-06T10:21:17Z</time>
      </trkpt>
      <trkpt lat="44.89237" lon="-0.8004">
        <ele>42</ele>
        <time>2017-12-06T10:21:18Z</time>
      </trkpt>
      <trkpt lat="44.89239" lon="-0.80033">
        <ele>42</ele>
        <time>2017-12-06T10:21:19Z</time>
      </trkpt>
      <trkpt lat="44.89242" lon="-0.80025">
        <ele>42</ele>
        <time>2017-12-06T10:21:20Z</time>
      </trkpt>
      <trkpt lat="44.89244" lon="-0.80018">
        <ele>42</ele>
        <time>2017-12-06T10:21:21Z</time>
      </trkpt>
      <trkpt lat="44.89247" lon="-0.80011">
        <ele>42.1</ele>
        <time>2017-12-06T10:21:22Z</time>
      </trkpt>
      <trkpt lat="44.89249" lon="-0.80004">
        <ele>42.1</ele>
        <time>2017-12-06T10:21:23Z</time>
      </trkpt>
      <trkpt lat="44.89252" lon="-0.79997">
        <ele>42.1</ele>
        <time>2017-12-06T10:21:24Z</time>
      </trkpt>
      <trkpt lat="44.89255" lon="-0.7999">
        <ele>42</ele>
        <time>2017-12-06T10:21:25Z</time>
      </trkpt>
      <trkpt lat="44.89257" lon="-0.79984">
        <ele>42</ele>
        <time>2017-12-06T10:21:26Z</time>
      </trkpt>
      <trkpt lat="44.89259" lon="-0.79978">
        <ele>42</ele>
        <time>2017-12-06T10:21:27Z</time>
      </trkpt>
      <trkpt lat="44.89262" lon="-0.79972">
        <ele>42</ele>
        <time>2017-12-06T10:21:28Z</time>
      </trkpt>
      <trkpt lat="44.89266" lon="-0.79965">
        <ele>42</ele>
        <time>2017-12-06T10:21:29Z</time>
      </trkpt>
      <trkpt lat="44.89269" lon="-0.7996">
        <ele>42</ele>
        <time>2017-12-06T10:21:30Z</time>
      </trkpt>
      <trkpt lat="44.89272" lon="-0.79953">
        <ele>42</ele>
        <time>2017-12-06T10:21:31Z</time>
      </trkpt>
      <trkpt lat="44.89274" lon="-0.79946">
        <ele>42</ele>
        <time>2017-12-06T10:21:32Z</time>
      </trkpt>
      <trkpt lat="44.89275" lon="-0.7994">
        <ele>42</ele>
        <time>2017-12-06T10:21:33Z</time>
      </trkpt>
      <trkpt lat="44.89276" lon="-0.79933">
        <ele>41.9</ele>
        <time>2017-12-06T10:21:34Z</time>
      </trkpt>
      <trkpt lat="44.89278" lon="-0.79926">
        <ele>41.9</ele>
        <time>2017-12-06T10:21:35Z</time>
      </trkpt>
      <trkpt lat="44.8928" lon="-0.79919">
        <ele>41.9</ele>
        <time>2017-12-06T10:21:36Z</time>
      </trkpt>
      <trkpt lat="44.89281" lon="-0.79912">
        <ele>41.9</ele>
        <time>2017-12-06T10:21:37Z</time>
      </trkpt>
      <trkpt lat="44.89283" lon="-0.79905">
        <ele>41.9</ele>
        <time>2017-12-06T10:21:38Z</time>
      </trkpt>
      <trkpt lat="44.89285" lon="-0.79898">
        <ele>41.9</ele>
        <time>2017-12-06T10:21:39Z</time>
      </trkpt>
      <trkpt lat="44.89287" lon="-0.79891">
        <ele>41.9</ele>
        <time>2017-12-06T10:21:40Z</time>
      </trkpt>
      <trkpt lat="44.89289" lon="-0.79884">
        <ele>41.8</ele>
        <time>2017-12-06T10:21:41Z</time>
      </trkpt>
      <trkpt lat="44.89291" lon="-0.79877">
        <ele>41.8</ele>
        <time>2017-12-06T10:21:42Z</time>
      </trkpt>
      <trkpt lat="44.89294" lon="-0.7987">
        <ele>41.8</ele>
        <time>2017-12-06T10:21:43Z</time>
      </trkpt>
      <trkpt lat="44.89296" lon="-0.79864">
        <ele>41.8</ele>
        <time>2017-12-06T10:21:44Z</time>
      </trkpt>
      <trkpt lat="44.89299" lon="-0.79857">
        <ele>41.8</ele>
        <time>2017-12-06T10:21:45Z</time>
      </trkpt>
      <trkpt lat="44.89301" lon="-0.79849">
        <ele>41.8</ele>
        <time>2017-12-06T10:21:46Z</time>
      </trkpt>
      <trkpt lat="44.89303" lon="-0.79842">
        <ele>41.8</ele>
        <time>2017-12-06T10:21:47Z</time>
      </trkpt>
      <trkpt lat="44.89305" lon="-0.79835">
        <ele>41.8</ele>
        <time>2017-12-06T10:21:48Z</time>
      </trkpt>
      <trkpt lat="44.89308" lon="-0.79829">
        <ele>41.7</ele>
        <time>2017-12-06T10:21:49Z</time>
      </trkpt>
      <trkpt lat="44.89311" lon="-0.79822">
        <ele>41.7</ele>
        <time>2017-12-06T10:21:50Z</time>
      </trkpt>
      <trkpt lat="44.89314" lon="-0.79815">
        <ele>41.7</ele>
        <time>2017-12-06T10:21:51Z</time>
      </trkpt>
      <trkpt lat="44.89317" lon="-0.79809">
        <ele>41.7</ele>
        <time>2017-12-06T10:21:52Z</time>
      </trkpt>
      <trkpt lat="44.89319" lon="-0.79802">
        <ele>41.7</ele>
        <time>2017-12-06T10:21:53Z</time>
      </trkpt>
      <trkpt lat="44.89322" lon="-0.79795">
        <ele>41.7</ele>
        <time>2017-12-06T10:21:54Z</time>
      </trkpt>
      <trkpt lat="44.89324" lon="-0.79788">
        <ele>41.7</ele>
        <time>2017-12-06T10:21:55Z</time>
      </trkpt>
      <trkpt lat="44.89327" lon="-0.79781">
        <ele>41.7</ele>
        <time>2017-12-06T10:21:56Z</time>
      </trkpt>
      <trkpt lat="44.89329" lon="-0.79775">
        <ele>41.7</ele>
        <time>2017-12-06T10:21:57Z</time>
      </trkpt>
      <trkpt lat="44.89332" lon="-0.79768">
        <ele>41.7</ele>
        <time>2017-12-06T10:21:58Z</time>
      </trkpt>
      <trkpt lat="44.89335" lon="-0.79762">
        <ele>41.6</ele>
        <time>2017-12-06T10:21:59Z</time>
      </trkpt>
      <trkpt lat="44.89338" lon="-0.79756">
        <ele>41.6</ele>
        <time>2017-12-06T10:22:00Z</time>
      </trkpt>
      <trkpt lat="44.89341" lon="-0.79751">
        <ele>41.6</ele>
        <time>2017-12-06T10:22:01Z</time>
      </trkpt>
      <trkpt lat="44.89344" lon="-0.79745">
        <ele>41.6</ele>
        <time>2017-12-06T10:22:02Z</time>
      </trkpt>
      <trkpt lat="44.89347" lon="-0.79739">
        <ele>41.6</ele>
        <time>2017-12-06T10:22:03Z</time>
      </trkpt>
      <trkpt lat="44.8935" lon="-0.79732">
        <ele>41.6</ele>
        <time>2017-12-06T10:22:04Z</time>
      </trkpt>
      <trkpt lat="44.89352" lon="-0.79726">
        <ele>41.6</ele>
        <time>2017-12-06T10:22:05Z</time>
      </trkpt>
      <trkpt lat="44.89356" lon="-0.7972">
        <ele>41.6</ele>
        <time>2017-12-06T10:22:06Z</time>
      </trkpt>
      <trkpt lat="44.89359" lon="-0.79713">
        <ele>41.6</ele>
        <time>2017-12-06T10:22:07Z</time>
      </trkpt>
      <trkpt lat="44.89362" lon="-0.79707">
        <ele>41.6</ele>
        <time>2017-12-06T10:22:08Z</time>
      </trkpt>
      <trkpt lat="44.89365" lon="-0.79701">
        <ele>41.5</ele>
        <time>2017-12-06T10:22:09Z</time>
      </trkpt>
      <trkpt lat="44.89368" lon="-0.79695">
        <ele>41.5</ele>
        <time>2017-12-06T10:22:10Z</time>
      </trkpt>
      <trkpt lat="44.89372" lon="-0.79688">
        <ele>41.5</ele>
        <time>2017-12-06T10:22:11Z</time>
      </trkpt>
      <trkpt lat="44.89374" lon="-0.79682">
        <ele>41.5</ele>
        <time>2017-12-06T10:22:12Z</time>
      </trkpt>
      <trkpt lat="44.89378" lon="-0.79676">
        <ele>41.5</ele>
        <time>2017-12-06T10:22:13Z</time>
      </trkpt>
      <trkpt lat="44.8938" lon="-0.79669">
        <ele>41.5</ele>
        <time>2017-12-06T10:22:14Z</time>
      </trkpt>
      <trkpt lat="44.89383" lon="-0.79663">
        <ele>41.5</ele>
        <time>2017-12-06T10:22:15Z</time>
      </trkpt>
      <trkpt lat="44.89386" lon="-0.79656">
        <ele>41.5</ele>
        <time>2017-12-06T10:22:16Z</time>
      </trkpt>
      <trkpt lat="44.89388" lon="-0.7965">
        <ele>41.5</ele>
        <time>2017-12-06T10:22:17Z</time>
      </trkpt>
      <trkpt lat="44.89391" lon="-0.79643">
        <ele>41.5</ele>
        <time>2017-12-06T10:22:18Z</time>
      </trkpt>
      <trkpt lat="44.89393" lon="-0.79636">
        <ele>41.4</ele>
        <time>2017-12-06T10:22:19Z</time>
      </trkpt>
      <trkpt lat="44.89395" lon="-0.79629">
        <ele>41.4</ele>
        <time>2017-12-06T10:22:20Z</time>
      </trkpt>
      <trkpt lat="44.89396" lon="-0.79621">
        <ele>41.4</ele>
        <time>2017-12-06T10:22:21Z</time>
      </trkpt>
      <trkpt lat="44.89398" lon="-0.79614">
        <ele>41.4</ele>
        <time>2017-12-06T10:22:22Z</time>
      </trkpt>
      <trkpt lat="44.89399" lon="-0.79607">
        <ele>41.4</ele>
        <time>2017-12-06T10:22:23Z</time>
      </trkpt>
      <trkpt lat="44.89401" lon="-0.79599">
        <ele>41.4</ele>
        <time>2017-12-06T10:22:24Z</time>
      </trkpt>
      <trkpt lat="44.89402" lon="-0.79592">
        <ele>41.4</ele>
        <time>2017-12-06T10:22:25Z</time>
      </trkpt>
      <trkpt lat="44.89404" lon="-0.79585">
        <ele>41.3</ele>
        <time>2017-12-06T10:22:26Z</time>
      </trkpt>
      <trkpt lat="44.89406" lon="-0.79578">
        <ele>41.3</ele>
        <time>2017-12-06T10:22:27Z</time>
      </trkpt>
      <trkpt lat="44.89407" lon="-0.79571">
        <ele>41.3</ele>
        <time>2017-12-06T10:22:28Z</time>
      </trkpt>
      <trkpt lat="44.89409" lon="-0.79564">
        <ele>41.3</ele>
        <time>2017-12-06T10:22:29Z</time>
      </trkpt>
      <trkpt lat="44.8941" lon="-0.79557">
        <ele>41.3</ele>
        <time>2017-12-06T10:22:30Z</time>
      </trkpt>
      <trkpt lat="44.89412" lon="-0.79549">
        <ele>41.3</ele>
        <time>2017-12-06T10:22:31Z</time>
      </trkpt>
      <trkpt lat="44.89414" lon="-0.79543">
        <ele>41.3</ele>
        <time>2017-12-06T10:22:32Z</time>
      </trkpt>
      <trkpt lat="44.89415" lon="-0.79535">
        <ele>41.2</ele>
        <time>2017-12-06T10:22:33Z</time>
      </trkpt>
      <trkpt lat="44.89416" lon="-0.79527">
        <ele>41.2</ele>
        <time>2017-12-06T10:22:34Z</time>
      </trkpt>
      <trkpt lat="44.89416" lon="-0.7952">
        <ele>41.2</ele>
        <time>2017-12-06T10:22:35Z</time>
      </trkpt>
      <trkpt lat="44.89418" lon="-0.79512">
        <ele>41.2</ele>
        <time>2017-12-06T10:22:36Z</time>
      </trkpt>
      <trkpt lat="44.89419" lon="-0.79505">
        <ele>41.1</ele>
        <time>2017-12-06T10:22:37Z</time>
      </trkpt>
      <trkpt lat="44.89421" lon="-0.79498">
        <ele>41.1</ele>
        <time>2017-12-06T10:22:38Z</time>
      </trkpt>
      <trkpt lat="44.89423" lon="-0.7949">
        <ele>41.1</ele>
        <time>2017-12-06T10:22:39Z</time>
      </trkpt>
      <trkpt lat="44.89424" lon="-0.79483">
        <ele>41.1</ele>
        <time>2017-12-06T10:22:40Z</time>
      </trkpt>
      <trkpt lat="44.89426" lon="-0.79475">
        <ele>41.1</ele>
        <time>2017-12-06T10:22:41Z</time>
      </trkpt>
      <trkpt lat="44.89428" lon="-0.79468">
        <ele>41.1</ele>
        <time>2017-12-06T10:22:42Z</time>
      </trkpt>
      <trkpt lat="44.8943" lon="-0.7946">
        <ele>41.1</ele>
        <time>2017-12-06T10:22:43Z</time>
      </trkpt>
      <trkpt lat="44.89431" lon="-0.79453">
        <ele>41.1</ele>
        <time>2017-12-06T10:22:44Z</time>
      </trkpt>
      <trkpt lat="44.89432" lon="-0.79445">
        <ele>41.1</ele>
        <time>2017-12-06T10:22:45Z</time>
      </trkpt>
      <trkpt lat="44.89435" lon="-0.79438">
        <ele>41</ele>
        <time>2017-12-06T10:22:46Z</time>
      </trkpt>
      <trkpt lat="44.89437" lon="-0.79431">
        <ele>41</ele>
        <time>2017-12-06T10:22:47Z</time>
      </trkpt>
      <trkpt lat="44.89439" lon="-0.79424">
        <ele>41</ele>
        <time>2017-12-06T10:22:48Z</time>
      </trkpt>
      <trkpt lat="44.89441" lon="-0.79416">
        <ele>41</ele>
        <time>2017-12-06T10:22:49Z</time>
      </trkpt>
      <trkpt lat="44.89442" lon="-0.79408">
        <ele>41</ele>
        <time>2017-12-06T10:22:50Z</time>
      </trkpt>
      <trkpt lat="44.89443" lon="-0.794">
        <ele>40.9</ele>
        <time>2017-12-06T10:22:51Z</time>
      </trkpt>
      <trkpt lat="44.89444" lon="-0.79392">
        <ele>40.9</ele>
        <time>2017-12-06T10:22:52Z</time>
      </trkpt>
      <trkpt lat="44.89445" lon="-0.79385">
        <ele>40.9</ele>
        <time>2017-12-06T10:22:53Z</time>
      </trkpt>
      <trkpt lat="44.89446" lon="-0.79376">
        <ele>40.9</ele>
        <time>2017-12-06T10:22:54Z</time>
      </trkpt>
      <trkpt lat="44.89448" lon="-0.79369">
        <ele>40.9</ele>
        <time>2017-12-06T10:22:55Z</time>
      </trkpt>
      <trkpt lat="44.89449" lon="-0.79361">
        <ele>40.9</ele>
        <time>2017-12-06T10:22:56Z</time>
      </trkpt>
      <trkpt lat="44.8945" lon="-0.79353">
        <ele>40.9</ele>
        <time>2017-12-06T10:22:57Z</time>
      </trkpt>
      <trkpt lat="44.89452" lon="-0.79346">
        <ele>40.9</ele>
        <time>2017-12-06T10:22:58Z</time>
      </trkpt>
      <trkpt lat="44.89453" lon="-0.79338">
        <ele>40.8</ele>
        <time>2017-12-06T10:22:59Z</time>
      </trkpt>
      <trkpt lat="44.89454" lon="-0.7933">
        <ele>40.8</ele>
        <time>2017-12-06T10:23:00Z</time>
      </trkpt>
      <trkpt lat="44.89454" lon="-0.79323">
        <ele>40.8</ele>
        <time>2017-12-06T10:23:01Z</time>
      </trkpt>
      <trkpt lat="44.89455" lon="-0.79315">
        <ele>40.8</ele>
        <time>2017-12-06T10:23:02Z</time>
      </trkpt>
      <trkpt lat="44.89457" lon="-0.79309">
        <ele>40.8</ele>
        <time>2017-12-06T10:23:03Z</time>
      </trkpt>
      <trkpt lat="44.89459" lon="-0.79301">
        <ele>40.8</ele>
        <time>2017-12-06T10:23:04Z</time>
      </trkpt>
      <trkpt lat="44.8946" lon="-0.79293">
        <ele>40.8</ele>
        <time>2017-12-06T10:23:05Z</time>
      </trkpt>
      <trkpt lat="44.89462" lon="-0.79286">
        <ele>40.8</ele>
        <time>2017-12-06T10:23:06Z</time>
      </trkpt>
      <trkpt lat="44.89462" lon="-0.79279">
        <ele>40.8</ele>
        <time>2017-12-06T10:23:07Z</time>
      </trkpt>
      <trkpt lat="44.89462" lon="-0.79272">
        <ele>40.7</ele>
        <time>2017-12-06T10:23:08Z</time>
      </trkpt>
      <trkpt lat="44.89463" lon="-0.79265">
        <ele>40.7</ele>
        <time>2017-12-06T10:23:09Z</time>
      </trkpt>
      <trkpt lat="44.89463" lon="-0.79257">
        <ele>40.7</ele>
        <time>2017-12-06T10:23:10Z</time>
      </trkpt>
      <trkpt lat="44.89464" lon="-0.79248">
        <ele>40.7</ele>
        <time>2017-12-06T10:23:11Z</time>
      </trkpt>
      <trkpt lat="44.89465" lon="-0.7924">
        <ele>40.7</ele>
        <time>2017-12-06T10:23:12Z</time>
      </trkpt>
      <trkpt lat="44.89466" lon="-0.79231">
        <ele>40.7</ele>
        <time>2017-12-06T10:23:13Z</time>
      </trkpt>
      <trkpt lat="44.89467" lon="-0.79223">
        <ele>40.7</ele>
        <time>2017-12-06T10:23:14Z</time>
      </trkpt>
      <trkpt lat="44.89468" lon="-0.79215">
        <ele>40.7</ele>
        <time>2017-12-06T10:23:15Z</time>
      </trkpt>
      <trkpt lat="44.89469" lon="-0.79207">
        <ele>40.7</ele>
        <time>2017-12-06T10:23:16Z</time>
      </trkpt>
      <trkpt lat="44.8947" lon="-0.79199">
        <ele>40.6</ele>
        <time>2017-12-06T10:23:17Z</time>
      </trkpt>
      <trkpt lat="44.89471" lon="-0.79191">
        <ele>40.6</ele>
        <time>2017-12-06T10:23:18Z</time>
      </trkpt>
      <trkpt lat="44.89471" lon="-0.79183">
        <ele>40.6</ele>
        <time>2017-12-06T10:23:19Z</time>
      </trkpt>
      <trkpt lat="44.89472" lon="-0.79175">
        <ele>40.6</ele>
        <time>2017-12-06T10:23:20Z</time>
      </trkpt>
      <trkpt lat="44.89473" lon="-0.79166">
        <ele>40.6</ele>
        <time>2017-12-06T10:23:21Z</time>
      </trkpt>
      <trkpt lat="44.89475" lon="-0.79158">
        <ele>40.6</ele>
        <time>2017-12-06T10:23:22Z</time>
      </trkpt>
      <trkpt lat="44.89476" lon="-0.7915">
        <ele>40.6</ele>
        <time>2017-12-06T10:23:23Z</time>
      </trkpt>
      <trkpt lat="44.89476" lon="-0.79142">
        <ele>40.6</ele>
        <time>2017-12-06T10:23:24Z</time>
      </trkpt>
      <trkpt lat="44.89477" lon="-0.79134">
        <ele>40.6</ele>
        <time>2017-12-06T10:23:25Z</time>
      </trkpt>
      <trkpt lat="44.89477" lon="-0.79126">
        <ele>40.6</ele>
        <time>2017-12-06T10:23:26Z</time>
      </trkpt>
      <trkpt lat="44.89478" lon="-0.79119">
        <ele>40.6</ele>
        <time>2017-12-06T10:23:27Z</time>
      </trkpt>
      <trkpt lat="44.89479" lon="-0.79112">
        <ele>40.6</ele>
        <time>2017-12-06T10:23:28Z</time>
      </trkpt>
      <trkpt lat="44.89481" lon="-0.79105">
        <ele>40.5</ele>
        <time>2017-12-06T10:23:29Z</time>
      </trkpt>
      <trkpt lat="44.89482" lon="-0.791">
        <ele>40.5</ele>
        <time>2017-12-06T10:23:30Z</time>
      </trkpt>
      <trkpt lat="44.89483" lon="-0.79095">
        <ele>40.5</ele>
        <time>2017-12-06T10:23:31Z</time>
      </trkpt>
      <trkpt lat="44.89486" lon="-0.79089">
        <ele>40.5</ele>
        <time>2017-12-06T10:23:32Z</time>
      </trkpt>
      <trkpt lat="44.89488" lon="-0.79083">
        <ele>40.5</ele>
        <time>2017-12-06T10:23:33Z</time>
      </trkpt>
      <trkpt lat="44.89488" lon="-0.79075">
        <ele>40.5</ele>
        <time>2017-12-06T10:23:34Z</time>
      </trkpt>
      <trkpt lat="44.89488" lon="-0.79067">
        <ele>40.5</ele>
        <time>2017-12-06T10:23:35Z</time>
      </trkpt>
      <trkpt lat="44.89489" lon="-0.79061">
        <ele>40.5</ele>
        <time>2017-12-06T10:23:36Z</time>
      </trkpt>
      <trkpt lat="44.89491" lon="-0.79055">
        <ele>40.5</ele>
        <time>2017-12-06T10:23:37Z</time>
      </trkpt>
      <trkpt lat="44.89492" lon="-0.79049">
        <ele>40.5</ele>
        <time>2017-12-06T10:23:38Z</time>
      </trkpt>
      <trkpt lat="44.89494" lon="-0.79043">
        <ele>40.5</ele>
        <time>2017-12-06T10:23:39Z</time>
      </trkpt>
      <trkpt lat="44.89496" lon="-0.79035">
        <ele>40.5</ele>
        <time>2017-12-06T10:23:40Z</time>
      </trkpt>
      <trkpt lat="44.89497" lon="-0.79028">
        <ele>40.5</ele>
        <time>2017-12-06T10:23:41Z</time>
      </trkpt>
      <trkpt lat="44.89499" lon="-0.79021">
        <ele>40.5</ele>
        <time>2017-12-06T10:23:42Z</time>
      </trkpt>
      <trkpt lat="44.89501" lon="-0.79014">
        <ele>40.5</ele>
        <time>2017-12-06T10:23:43Z</time>
      </trkpt>
      <trkpt lat="44.89503" lon="-0.79007">
        <ele>40.4</ele>
        <time>2017-12-06T10:23:44Z</time>
      </trkpt>
      <trkpt lat="44.89505" lon="-0.78999">
        <ele>40.4</ele>
        <time>2017-12-06T10:23:45Z</time>
      </trkpt>
      <trkpt lat="44.89507" lon="-0.78992">
        <ele>40.4</ele>
        <time>2017-12-06T10:23:46Z</time>
      </trkpt>
      <trkpt lat="44.89509" lon="-0.78984">
        <ele>40.4</ele>
        <time>2017-12-06T10:23:47Z</time>
      </trkpt>
      <trkpt lat="44.89511" lon="-0.78977">
        <ele>40.4</ele>
        <time>2017-12-06T10:23:48Z</time>
      </trkpt>
      <trkpt lat="44.89513" lon="-0.7897">
        <ele>40.4</ele>
        <time>2017-12-06T10:23:49Z</time>
      </trkpt>
      <trkpt lat="44.89515" lon="-0.78963">
        <ele>40.4</ele>
        <time>2017-12-06T10:23:50Z</time>
      </trkpt>
      <trkpt lat="44.89516" lon="-0.78955">
        <ele>40.4</ele>
        <time>2017-12-06T10:23:51Z</time>
      </trkpt>
      <trkpt lat="44.89517" lon="-0.78948">
        <ele>40.4</ele>
        <time>2017-12-06T10:23:52Z</time>
      </trkpt>
      <trkpt lat="44.89519" lon="-0.78941">
        <ele>40.4</ele>
        <time>2017-12-06T10:23:53Z</time>
      </trkpt>
      <trkpt lat="44.89521" lon="-0.78934">
        <ele>40.4</ele>
        <time>2017-12-06T10:23:54Z</time>
      </trkpt>
      <trkpt lat="44.89522" lon="-0.78926">
        <ele>40.4</ele>
        <time>2017-12-06T10:23:55Z</time>
      </trkpt>
      <trkpt lat="44.89524" lon="-0.78919">
        <ele>40.4</ele>
        <time>2017-12-06T10:23:56Z</time>
      </trkpt>
      <trkpt lat="44.89526" lon="-0.78911">
        <ele>40.4</ele>
        <time>2017-12-06T10:23:57Z</time>
      </trkpt>
      <trkpt lat="44.89525" lon="-0.78904">
        <ele>40.3</ele>
        <time>2017-12-06T10:23:58Z</time>
      </trkpt>
      <trkpt lat="44.89524" lon="-0.78897">
        <ele>40.3</ele>
        <time>2017-12-06T10:23:59Z</time>
      </trkpt>
      <trkpt lat="44.89524" lon="-0.78891">
        <ele>40.3</ele>
        <time>2017-12-06T10:24:00Z</time>
      </trkpt>
      <trkpt lat="44.89523" lon="-0.78885">
        <ele>40.3</ele>
        <time>2017-12-06T10:24:01Z</time>
      </trkpt>
      <trkpt lat="44.89522" lon="-0.78878">
        <ele>40.3</ele>
        <time>2017-12-06T10:24:02Z</time>
      </trkpt>
      <trkpt lat="44.89521" lon="-0.78871">
        <ele>40.3</ele>
        <time>2017-12-06T10:24:03Z</time>
      </trkpt>
      <trkpt lat="44.89521" lon="-0.78864">
        <ele>40.3</ele>
        <time>2017-12-06T10:24:04Z</time>
      </trkpt>
      <trkpt lat="44.8952" lon="-0.78856">
        <ele>40.3</ele>
        <time>2017-12-06T10:24:05Z</time>
      </trkpt>
      <trkpt lat="44.89519" lon="-0.78849">
        <ele>40.3</ele>
        <time>2017-12-06T10:24:06Z</time>
      </trkpt>
      <trkpt lat="44.89517" lon="-0.78841">
        <ele>40.3</ele>
        <time>2017-12-06T10:24:07Z</time>
      </trkpt>
      <trkpt lat="44.89515" lon="-0.78833">
        <ele>40.3</ele>
        <time>2017-12-06T10:24:08Z</time>
      </trkpt>
      <trkpt lat="44.89513" lon="-0.78825">
        <ele>40.3</ele>
        <time>2017-12-06T10:24:09Z</time>
      </trkpt>
      <trkpt lat="44.89512" lon="-0.78817">
        <ele>40.3</ele>
        <time>2017-12-06T10:24:10Z</time>
      </trkpt>
      <trkpt lat="44.8951" lon="-0.7881">
        <ele>40.3</ele>
        <time>2017-12-06T10:24:11Z</time>
      </trkpt>
      <trkpt lat="44.89507" lon="-0.78803">
        <ele>40.3</ele>
        <time>2017-12-06T10:24:12Z</time>
      </trkpt>
      <trkpt lat="44.89506" lon="-0.78795">
        <ele>40.3</ele>
        <time>2017-12-06T10:24:13Z</time>
      </trkpt>
      <trkpt lat="44.89505" lon="-0.78787">
        <ele>40.3</ele>
        <time>2017-12-06T10:24:14Z</time>
      </trkpt>
      <trkpt lat="44.89504" lon="-0.7878">
        <ele>40.3</ele>
        <time>2017-12-06T10:24:15Z</time>
      </trkpt>
      <trkpt lat="44.89501" lon="-0.78773">
        <ele>40.3</ele>
        <time>2017-12-06T10:24:16Z</time>
      </trkpt>
      <trkpt lat="44.89496" lon="-0.78768">
        <ele>40.3</ele>
        <time>2017-12-06T10:24:17Z</time>
      </trkpt>
      <trkpt lat="44.89492" lon="-0.78766">
        <ele>40.2</ele>
        <time>2017-12-06T10:24:18Z</time>
      </trkpt>
      <trkpt lat="44.89487" lon="-0.78764">
        <ele>40.2</ele>
        <time>2017-12-06T10:24:19Z</time>
      </trkpt>
      <trkpt lat="44.89481" lon="-0.78764">
        <ele>40.2</ele>
        <time>2017-12-06T10:24:20Z</time>
      </trkpt>
      <trkpt lat="44.89476" lon="-0.78764">
        <ele>40.2</ele>
        <time>2017-12-06T10:24:21Z</time>
      </trkpt>
      <trkpt lat="44.89471" lon="-0.78764">
        <ele>40.2</ele>
        <time>2017-12-06T10:24:22Z</time>
      </trkpt>
      <trkpt lat="44.89465" lon="-0.78763">
        <ele>40.2</ele>
        <time>2017-12-06T10:24:23Z</time>
      </trkpt>
      <trkpt lat="44.8946" lon="-0.78763">
        <ele>40.2</ele>
        <time>2017-12-06T10:24:24Z</time>
      </trkpt>
      <trkpt lat="44.89454" lon="-0.78761">
        <ele>40.2</ele>
        <time>2017-12-06T10:24:25Z</time>
      </trkpt>
      <trkpt lat="44.89449" lon="-0.78759">
        <ele>40.2</ele>
        <time>2017-12-06T10:24:26Z</time>
      </trkpt>
      <trkpt lat="44.89443" lon="-0.78757">
        <ele>40.2</ele>
        <time>2017-12-06T10:24:27Z</time>
      </trkpt>
      <trkpt lat="44.89438" lon="-0.78755">
        <ele>40.2</ele>
        <time>2017-12-06T10:24:28Z</time>
      </trkpt>
      <trkpt lat="44.89433" lon="-0.78753">
        <ele>40.2</ele>
        <time>2017-12-06T10:24:29Z</time>
      </trkpt>
      <trkpt lat="44.89428" lon="-0.78752">
        <ele>40.2</ele>
        <time>2017-12-06T10:24:30Z</time>
      </trkpt>
      <trkpt lat="44.89423" lon="-0.7875">
        <ele>40.1</ele>
        <time>2017-12-06T10:24:31Z</time>
      </trkpt>
      <trkpt lat="44.89418" lon="-0.78748">
        <ele>40.1</ele>
        <time>2017-12-06T10:24:32Z</time>
      </trkpt>
      <trkpt lat="44.89412" lon="-0.78747">
        <ele>40.1</ele>
        <time>2017-12-06T10:24:33Z</time>
      </trkpt>
      <trkpt lat="44.89406" lon="-0.78746">
        <ele>40.1</ele>
        <time>2017-12-06T10:24:34Z</time>
      </trkpt>
      <trkpt lat="44.89401" lon="-0.78746">
        <ele>40.1</ele>
        <time>2017-12-06T10:24:35Z</time>
      </trkpt>
      <trkpt lat="44.89396" lon="-0.78748">
        <ele>40.1</ele>
        <time>2017-12-06T10:24:36Z</time>
      </trkpt>
      <trkpt lat="44.89391" lon="-0.78751">
        <ele>40.1</ele>
        <time>2017-12-06T10:24:37Z</time>
      </trkpt>
      <trkpt lat="44.89387" lon="-0.78754">
        <ele>40.1</ele>
        <time>2017-12-06T10:24:38Z</time>
      </trkpt>
      <trkpt lat="44.89384" lon="-0.7876">
        <ele>40.1</ele>
        <time>2017-12-06T10:24:39Z</time>
      </trkpt>
      <trkpt lat="44.8938" lon="-0.78764">
        <ele>40.1</ele>
        <time>2017-12-06T10:24:40Z</time>
      </trkpt>
      <trkpt lat="44.89375" lon="-0.78768">
        <ele>40.1</ele>
        <time>2017-12-06T10:24:41Z</time>
      </trkpt>
      <trkpt lat="44.89371" lon="-0.78771">
        <ele>40.1</ele>
        <time>2017-12-06T10:24:42Z</time>
      </trkpt>
      <trkpt lat="44.89365" lon="-0.78773">
        <ele>40.1</ele>
        <time>2017-12-06T10:24:43Z</time>
      </trkpt>
      <trkpt lat="44.89361" lon="-0.78776">
        <ele>40</ele>
        <time>2017-12-06T10:24:44Z</time>
      </trkpt>
      <trkpt lat="44.89356" lon="-0.78779">
        <ele>40</ele>
        <time>2017-12-06T10:24:45Z</time>
      </trkpt>
      <trkpt lat="44.89351" lon="-0.78781">
        <ele>40</ele>
        <time>2017-12-06T10:24:46Z</time>
      </trkpt>
      <trkpt lat="44.89347" lon="-0.78779">
        <ele>40</ele>
        <time>2017-12-06T10:24:47Z</time>
      </trkpt>
      <trkpt lat="44.89343" lon="-0.78775">
        <ele>40</ele>
        <time>2017-12-06T10:24:48Z</time>
      </trkpt>
      <trkpt lat="44.8934" lon="-0.78771">
        <ele>40</ele>
        <time>2017-12-06T10:24:49Z</time>
      </trkpt>
      <trkpt lat="44.89338" lon="-0.78765">
        <ele>40</ele>
        <time>2017-12-06T10:24:50Z</time>
      </trkpt>
      <trkpt lat="44.89335" lon="-0.78761">
        <ele>40</ele>
        <time>2017-12-06T10:24:51Z</time>
      </trkpt>
      <trkpt lat="44.89331" lon="-0.78757">
        <ele>40.2</ele>
        <time>2017-12-06T10:24:52Z</time>
      </trkpt>
      <trkpt lat="44.89327" lon="-0.78754">
        <ele>40.4</ele>
        <time>2017-12-06T10:24:53Z</time>
      </trkpt>
      <trkpt lat="44.89323" lon="-0.78754">
        <ele>40.6</ele>
        <time>2017-12-06T10:24:54Z</time>
      </trkpt>
      <trkpt lat="44.8932" lon="-0.78755">
        <ele>40.8</ele>
        <time>2017-12-06T10:24:55Z</time>
      </trkpt>
      <trkpt lat="44.89316" lon="-0.78757">
        <ele>40.9</ele>
        <time>2017-12-06T10:24:56Z</time>
      </trkpt>
      <trkpt lat="44.89312" lon="-0.78761">
        <ele>40.8</ele>
        <time>2017-12-06T10:24:57Z</time>
      </trkpt>
      <trkpt lat="44.89308" lon="-0.78764">
        <ele>40.8</ele>
        <time>2017-12-06T10:24:58Z</time>
      </trkpt>
      <trkpt lat="44.89304" lon="-0.78767">
        <ele>40.8</ele>
        <time>2017-12-06T10:24:59Z</time>
      </trkpt>
      <trkpt lat="44.89299" lon="-0.7877">
        <ele>40.9</ele>
        <time>2017-12-06T10:25:00Z</time>
      </trkpt>
      <trkpt lat="44.89295" lon="-0.78773">
        <ele>41</ele>
        <time>2017-12-06T10:25:01Z</time>
      </trkpt>
      <trkpt lat="44.8929" lon="-0.78776">
        <ele>41.1</ele>
        <time>2017-12-06T10:25:02Z</time>
      </trkpt>
      <trkpt lat="44.89286" lon="-0.7878">
        <ele>41.1</ele>
        <time>2017-12-06T10:25:03Z</time>
      </trkpt>
      <trkpt lat="44.89282" lon="-0.78784">
        <ele>41.2</ele>
        <time>2017-12-06T10:25:04Z</time>
      </trkpt>
      <trkpt lat="44.89278" lon="-0.78787">
        <ele>41.2</ele>
        <time>2017-12-06T10:25:05Z</time>
      </trkpt>
      <trkpt lat="44.89273" lon="-0.7879">
        <ele>41.2</ele>
        <time>2017-12-06T10:25:06Z</time>
      </trkpt>
      <trkpt lat="44.89269" lon="-0.78793">
        <ele>41.2</ele>
        <time>2017-12-06T10:25:07Z</time>
      </trkpt>
      <trkpt lat="44.89265" lon="-0.78797">
        <ele>41.2</ele>
        <time>2017-12-06T10:25:08Z</time>
      </trkpt>
      <trkpt lat="44.89261" lon="-0.788">
        <ele>41.1</ele>
        <time>2017-12-06T10:25:09Z</time>
      </trkpt>
      <trkpt lat="44.89257" lon="-0.78803">
        <ele>41.2</ele>
        <time>2017-12-06T10:25:10Z</time>
      </trkpt>
      <trkpt lat="44.89253" lon="-0.78807">
        <ele>41.2</ele>
        <time>2017-12-06T10:25:11Z</time>
      </trkpt>
      <trkpt lat="44.89249" lon="-0.78811">
        <ele>41.3</ele>
        <time>2017-12-06T10:25:12Z</time>
      </trkpt>
      <trkpt lat="44.89245" lon="-0.78814">
        <ele>41.4</ele>
        <time>2017-12-06T10:25:13Z</time>
      </trkpt>
      <trkpt lat="44.8924" lon="-0.78817">
        <ele>41.5</ele>
        <time>2017-12-06T10:25:14Z</time>
      </trkpt>
      <trkpt lat="44.89236" lon="-0.78821">
        <ele>41.6</ele>
        <time>2017-12-06T10:25:15Z</time>
      </trkpt>
      <trkpt lat="44.89232" lon="-0.78824">
        <ele>41.6</ele>
        <time>2017-12-06T10:25:16Z</time>
      </trkpt>
      <trkpt lat="44.89228" lon="-0.78826">
        <ele>41.5</ele>
        <time>2017-12-06T10:25:17Z</time>
      </trkpt>
      <trkpt lat="44.89223" lon="-0.78826">
        <ele>41.3</ele>
        <time>2017-12-06T10:25:18Z</time>
      </trkpt>
      <trkpt lat="44.89219" lon="-0.78824">
        <ele>40.9</ele>
        <time>2017-12-06T10:25:19Z</time>
      </trkpt>
      <trkpt lat="44.89217" lon="-0.7882">
        <ele>40.9</ele>
        <time>2017-12-06T10:25:20Z</time>
      </trkpt>
      <trkpt lat="44.89214" lon="-0.78814">
        <ele>40.8</ele>
        <time>2017-12-06T10:25:21Z</time>
      </trkpt>
      <trkpt lat="44.89212" lon="-0.78809">
        <ele>40.8</ele>
        <time>2017-12-06T10:25:22Z</time>
      </trkpt>
      <trkpt lat="44.89209" lon="-0.78804">
        <ele>40.7</ele>
        <time>2017-12-06T10:25:23Z</time>
      </trkpt>
      <trkpt lat="44.89207" lon="-0.78797">
        <ele>40.7</ele>
        <time>2017-12-06T10:25:24Z</time>
      </trkpt>
      <trkpt lat="44.89206" lon="-0.7879">
        <ele>40.6</ele>
        <time>2017-12-06T10:25:25Z</time>
      </trkpt>
      <trkpt lat="44.89205" lon="-0.78783">
        <ele>40.6</ele>
        <time>2017-12-06T10:25:26Z</time>
      </trkpt>
      <trkpt lat="44.89204" lon="-0.78776">
        <ele>40.5</ele>
        <time>2017-12-06T10:25:27Z</time>
      </trkpt>
      <trkpt lat="44.89203" lon="-0.78768">
        <ele>40.4</ele>
        <time>2017-12-06T10:25:28Z</time>
      </trkpt>
      <trkpt lat="44.89201" lon="-0.78761">
        <ele>40.4</ele>
        <time>2017-12-06T10:25:29Z</time>
      </trkpt>
      <trkpt lat="44.892" lon="-0.78753">
        <ele>40.4</ele>
        <time>2017-12-06T10:25:30Z</time>
      </trkpt>
      <trkpt lat="44.89199" lon="-0.78745">
        <ele>40.5</ele>
        <time>2017-12-06T10:25:31Z</time>
      </trkpt>
      <trkpt lat="44.89198" lon="-0.78738">
        <ele>40.6</ele>
        <time>2017-12-06T10:25:32Z</time>
      </trkpt>
      <trkpt lat="44.89197" lon="-0.78731">
        <ele>40.6</ele>
        <time>2017-12-06T10:25:33Z</time>
      </trkpt>
      <trkpt lat="44.89196" lon="-0.78723">
        <ele>40.7</ele>
        <time>2017-12-06T10:25:34Z</time>
      </trkpt>
      <trkpt lat="44.89195" lon="-0.78715">
        <ele>40.8</ele>
        <time>2017-12-06T10:25:35Z</time>
      </trkpt>
      <trkpt lat="44.89195" lon="-0.78707">
        <ele>40.9</ele>
        <time>2017-12-06T10:25:36Z</time>
      </trkpt>
      <trkpt lat="44.89194" lon="-0.78699">
        <ele>40.9</ele>
        <time>2017-12-06T10:25:37Z</time>
      </trkpt>
      <trkpt lat="44.89193" lon="-0.78692">
        <ele>40.9</ele>
        <time>2017-12-06T10:25:38Z</time>
      </trkpt>
      <trkpt lat="44.89192" lon="-0.78684">
        <ele>41</ele>
        <time>2017-12-06T10:25:39Z</time>
      </trkpt>
      <trkpt lat="44.89191" lon="-0.78678">
        <ele>41</ele>
        <time>2017-12-06T10:25:40Z</time>
      </trkpt>
      <trkpt lat="44.89189" lon="-0.7867">
        <ele>41</ele>
        <time>2017-12-06T10:25:41Z</time>
      </trkpt>
      <trkpt lat="44.89188" lon="-0.78662">
        <ele>41</ele>
        <time>2017-12-06T10:25:42Z</time>
      </trkpt>
      <trkpt lat="44.89187" lon="-0.78655">
        <ele>41.1</ele>
        <time>2017-12-06T10:25:43Z</time>
      </trkpt>
      <trkpt lat="44.89186" lon="-0.78647">
        <ele>41.1</ele>
        <time>2017-12-06T10:25:44Z</time>
      </trkpt>
      <trkpt lat="44.89185" lon="-0.7864">
        <ele>41</ele>
        <time>2017-12-06T10:25:45Z</time>
      </trkpt>
      <trkpt lat="44.89184" lon="-0.78632">
        <ele>41</ele>
        <time>2017-12-06T10:25:46Z</time>
      </trkpt>
      <trkpt lat="44.89183" lon="-0.78624">
        <ele>41</ele>
        <time>2017-12-06T10:25:47Z</time>
      </trkpt>
      <trkpt lat="44.89182" lon="-0.78616">
        <ele>40.9</ele>
        <time>2017-12-06T10:25:48Z</time>
      </trkpt>
      <trkpt lat="44.89181" lon="-0.78609">
        <ele>40.9</ele>
        <time>2017-12-06T10:25:49Z</time>
      </trkpt>
      <trkpt lat="44.89179" lon="-0.78601">
        <ele>40.9</ele>
        <time>2017-12-06T10:25:50Z</time>
      </trkpt>
      <trkpt lat="44.89179" lon="-0.78593">
        <ele>41</ele>
        <time>2017-12-06T10:25:51Z</time>
      </trkpt>
      <trkpt lat="44.89177" lon="-0.78585">
        <ele>41</ele>
        <time>2017-12-06T10:25:52Z</time>
      </trkpt>
      <trkpt lat="44.89176" lon="-0.78578">
        <ele>41.1</ele>
        <time>2017-12-06T10:25:53Z</time>
      </trkpt>
      <trkpt lat="44.89175" lon="-0.7857">
        <ele>41.1</ele>
        <time>2017-12-06T10:25:54Z</time>
      </trkpt>
      <trkpt lat="44.89174" lon="-0.78563">
        <ele>41.1</ele>
        <time>2017-12-06T10:25:55Z</time>
      </trkpt>
      <trkpt lat="44.89173" lon="-0.78555">
        <ele>41</ele>
        <time>2017-12-06T10:25:56Z</time>
      </trkpt>
      <trkpt lat="44.89172" lon="-0.78548">
        <ele>40.9</ele>
        <time>2017-12-06T10:25:57Z</time>
      </trkpt>
      <trkpt lat="44.89171" lon="-0.7854">
        <ele>40.8</ele>
        <time>2017-12-06T10:25:58Z</time>
      </trkpt>
      <trkpt lat="44.8917" lon="-0.78532">
        <ele>40.6</ele>
        <time>2017-12-06T10:25:59Z</time>
      </trkpt>
      <trkpt lat="44.89169" lon="-0.78525">
        <ele>40.6</ele>
        <time>2017-12-06T10:26:00Z</time>
      </trkpt>
      <trkpt lat="44.89168" lon="-0.78518">
        <ele>40.6</ele>
        <time>2017-12-06T10:26:01Z</time>
      </trkpt>
      <trkpt lat="44.89167" lon="-0.78511">
        <ele>40.7</ele>
        <time>2017-12-06T10:26:02Z</time>
      </trkpt>
      <trkpt lat="44.89166" lon="-0.78503">
        <ele>40.9</ele>
        <time>2017-12-06T10:26:03Z</time>
      </trkpt>
      <trkpt lat="44.89165" lon="-0.78496">
        <ele>41.1</ele>
        <time>2017-12-06T10:26:04Z</time>
      </trkpt>
      <trkpt lat="44.89164" lon="-0.78489">
        <ele>41.3</ele>
        <time>2017-12-06T10:26:05Z</time>
      </trkpt>
      <trkpt lat="44.89162" lon="-0.78481">
        <ele>41.4</ele>
        <time>2017-12-06T10:26:06Z</time>
      </trkpt>
      <trkpt lat="44.89161" lon="-0.78474">
        <ele>41.5</ele>
        <time>2017-12-06T10:26:07Z</time>
      </trkpt>
      <trkpt lat="44.89159" lon="-0.78466">
        <ele>41.5</ele>
        <time>2017-12-06T10:26:08Z</time>
      </trkpt>
      <trkpt lat="44.89159" lon="-0.78459">
        <ele>41.6</ele>
        <time>2017-12-06T10:26:09Z</time>
      </trkpt>
      <trkpt lat="44.89159" lon="-0.78452">
        <ele>41.6</ele>
        <time>2017-12-06T10:26:10Z</time>
      </trkpt>
      <trkpt lat="44.89158" lon="-0.78445">
        <ele>41.7</ele>
        <time>2017-12-06T10:26:11Z</time>
      </trkpt>
      <trkpt lat="44.89157" lon="-0.78438">
        <ele>41.7</ele>
        <time>2017-12-06T10:26:12Z</time>
      </trkpt>
      <trkpt lat="44.89155" lon="-0.78431">
        <ele>41.6</ele>
        <time>2017-12-06T10:26:13Z</time>
      </trkpt>
      <trkpt lat="44.89154" lon="-0.78424">
        <ele>41.6</ele>
        <time>2017-12-06T10:26:14Z</time>
      </trkpt>
      <trkpt lat="44.89152" lon="-0.78417">
        <ele>41.6</ele>
        <time>2017-12-06T10:26:15Z</time>
      </trkpt>
      <trkpt lat="44.89151" lon="-0.7841">
        <ele>41.6</ele>
        <time>2017-12-06T10:26:16Z</time>
      </trkpt>
      <trkpt lat="44.8915" lon="-0.78402">
        <ele>41.5</ele>
        <time>2017-12-06T10:26:17Z</time>
      </trkpt>
      <trkpt lat="44.89149" lon="-0.78395">
        <ele>41.5</ele>
        <time>2017-12-06T10:26:18Z</time>
      </trkpt>
      <trkpt lat="44.89148" lon="-0.78387">
        <ele>41.5</ele>
        <time>2017-12-06T10:26:19Z</time>
      </trkpt>
      <trkpt lat="44.89147" lon="-0.78379">
        <ele>41.4</ele>
        <time>2017-12-06T10:26:20Z</time>
      </trkpt>
      <trkpt lat="44.89145" lon="-0.78372">
        <ele>41.4</ele>
        <time>2017-12-06T10:26:21Z</time>
      </trkpt>
      <trkpt lat="44.89144" lon="-0.78365">
        <ele>41.3</ele>
        <time>2017-12-06T10:26:22Z</time>
      </trkpt>
      <trkpt lat="44.89143" lon="-0.78357">
        <ele>41.3</ele>
        <time>2017-12-06T10:26:23Z</time>
      </trkpt>
      <trkpt lat="44.89142" lon="-0.78349">
        <ele>41.2</ele>
        <time>2017-12-06T10:26:24Z</time>
      </trkpt>
      <trkpt lat="44.8914" lon="-0.78341">
        <ele>41.2</ele>
        <time>2017-12-06T10:26:25Z</time>
      </trkpt>
      <trkpt lat="44.89139" lon="-0.78334">
        <ele>41.2</ele>
        <time>2017-12-06T10:26:26Z</time>
      </trkpt>
      <trkpt lat="44.89137" lon="-0.78325">
        <ele>41.2</ele>
        <time>2017-12-06T10:26:27Z</time>
      </trkpt>
      <trkpt lat="44.89136" lon="-0.78318">
        <ele>41.2</ele>
        <time>2017-12-06T10:26:28Z</time>
      </trkpt>
      <trkpt lat="44.89135" lon="-0.7831">
        <ele>41.2</ele>
        <time>2017-12-06T10:26:29Z</time>
      </trkpt>
      <trkpt lat="44.89134" lon="-0.78302">
        <ele>41.3</ele>
        <time>2017-12-06T10:26:30Z</time>
      </trkpt>
      <trkpt lat="44.89132" lon="-0.78294">
        <ele>41.3</ele>
        <time>2017-12-06T10:26:31Z</time>
      </trkpt>
      <trkpt lat="44.89131" lon="-0.78287">
        <ele>41.3</ele>
        <time>2017-12-06T10:26:32Z</time>
      </trkpt>
      <trkpt lat="44.8913" lon="-0.78279">
        <ele>41.4</ele>
        <time>2017-12-06T10:26:33Z</time>
      </trkpt>
      <trkpt lat="44.89129" lon="-0.78272">
        <ele>41.4</ele>
        <time>2017-12-06T10:26:34Z</time>
      </trkpt>
      <trkpt lat="44.89128" lon="-0.78264">
        <ele>41.5</ele>
        <time>2017-12-06T10:26:35Z</time>
      </trkpt>
      <trkpt lat="44.89127" lon="-0.78257">
        <ele>41.6</ele>
        <time>2017-12-06T10:26:36Z</time>
      </trkpt>
      <trkpt lat="44.89126" lon="-0.7825">
        <ele>41.8</ele>
        <time>2017-12-06T10:26:37Z</time>
      </trkpt>
      <trkpt lat="44.89126" lon="-0.78243">
        <ele>42</ele>
        <time>2017-12-06T10:26:38Z</time>
      </trkpt>
      <trkpt lat="44.89126" lon="-0.78237">
        <ele>41.9</ele>
        <time>2017-12-06T10:26:39Z</time>
      </trkpt>
      <trkpt lat="44.89127" lon="-0.78231">
        <ele>41.7</ele>
        <time>2017-12-06T10:26:40Z</time>
      </trkpt>
      <trkpt lat="44.89129" lon="-0.78225">
        <ele>41.7</ele>
        <time>2017-12-06T10:26:41Z</time>
      </trkpt>
      <trkpt lat="44.8913" lon="-0.78219">
        <ele>41.7</ele>
        <time>2017-12-06T10:26:42Z</time>
      </trkpt>
      <trkpt lat="44.89131" lon="-0.78213">
        <ele>41.8</ele>
        <time>2017-12-06T10:26:43Z</time>
      </trkpt>
      <trkpt lat="44.89132" lon="-0.78206">
        <ele>42</ele>
        <time>2017-12-06T10:26:44Z</time>
      </trkpt>
      <trkpt lat="44.89132" lon="-0.78199">
        <ele>42.1</ele>
        <time>2017-12-06T10:26:45Z</time>
      </trkpt>
      <trkpt lat="44.89133" lon="-0.78193">
        <ele>42.2</ele>
        <time>2017-12-06T10:26:46Z</time>
      </trkpt>
      <trkpt lat="44.89134" lon="-0.78186">
        <ele>42.2</ele>
        <time>2017-12-06T10:26:47Z</time>
      </trkpt>
      <trkpt lat="44.89134" lon="-0.78179">
        <ele>42.2</ele>
        <time>2017-12-06T10:26:48Z</time>
      </trkpt>
      <trkpt lat="44.89135" lon="-0.78171">
        <ele>42.2</ele>
        <time>2017-12-06T10:26:49Z</time>
      </trkpt>
      <trkpt lat="44.89137" lon="-0.78166">
        <ele>42.2</ele>
        <time>2017-12-06T10:26:50Z</time>
      </trkpt>
      <trkpt lat="44.8914" lon="-0.78164">
        <ele>42.2</ele>
        <time>2017-12-06T10:26:51Z</time>
      </trkpt>
      <trkpt lat="44.89144" lon="-0.78162">
        <ele>42.3</ele>
        <time>2017-12-06T10:26:52Z</time>
      </trkpt>
      <trkpt lat="44.89148" lon="-0.78158">
        <ele>42.3</ele>
        <time>2017-12-06T10:26:53Z</time>
      </trkpt>
      <trkpt lat="44.8915" lon="-0.78153">
        <ele>42.3</ele>
        <time>2017-12-06T10:26:54Z</time>
      </trkpt>
      <trkpt lat="44.89151" lon="-0.78146">
        <ele>42.3</ele>
        <time>2017-12-06T10:26:55Z</time>
      </trkpt>
      <trkpt lat="44.89152" lon="-0.78139">
        <ele>42.3</ele>
        <time>2017-12-06T10:26:56Z</time>
      </trkpt>
      <trkpt lat="44.89154" lon="-0.78133">
        <ele>42.4</ele>
        <time>2017-12-06T10:26:57Z</time>
      </trkpt>
      <trkpt lat="44.89157" lon="-0.78127">
        <ele>42.4</ele>
        <time>2017-12-06T10:26:58Z</time>
      </trkpt>
      <trkpt lat="44.89157" lon="-0.7812">
        <ele>42.3</ele>
        <time>2017-12-06T10:26:59Z</time>
      </trkpt>
      <trkpt lat="44.89157" lon="-0.78112">
        <ele>42.3</ele>
        <time>2017-12-06T10:27:00Z</time>
      </trkpt>
      <trkpt lat="44.89159" lon="-0.78106">
        <ele>42.3</ele>
        <time>2017-12-06T10:27:01Z</time>
      </trkpt>
      <trkpt lat="44.89162" lon="-0.78101">
        <ele>42.3</ele>
        <time>2017-12-06T10:27:02Z</time>
      </trkpt>
      <trkpt lat="44.89164" lon="-0.78095">
        <ele>42.4</ele>
        <time>2017-12-06T10:27:03Z</time>
      </trkpt>
      <trkpt lat="44.89167" lon="-0.7809">
        <ele>42.4</ele>
        <time>2017-12-06T10:27:04Z</time>
      </trkpt>
      <trkpt lat="44.8917" lon="-0.78086">
        <ele>42.5</ele>
        <time>2017-12-06T10:27:05Z</time>
      </trkpt>
      <trkpt lat="44.89175" lon="-0.78082">
        <ele>42.5</ele>
        <time>2017-12-06T10:27:06Z</time>
      </trkpt>
      <trkpt lat="44.89178" lon="-0.78079">
        <ele>42.5</ele>
        <time>2017-12-06T10:27:07Z</time>
      </trkpt>
      <trkpt lat="44.89182" lon="-0.78074">
        <ele>42.5</ele>
        <time>2017-12-06T10:27:08Z</time>
      </trkpt>
      <trkpt lat="44.89185" lon="-0.7807">
        <ele>42.6</ele>
        <time>2017-12-06T10:27:09Z</time>
      </trkpt>
      <trkpt lat="44.89189" lon="-0.78068">
        <ele>42.6</ele>
        <time>2017-12-06T10:27:10Z</time>
      </trkpt>
      <trkpt lat="44.89192" lon="-0.78069">
        <ele>42.6</ele>
        <time>2017-12-06T10:27:11Z</time>
      </trkpt>
      <trkpt lat="44.89195" lon="-0.78071">
        <ele>42.6</ele>
        <time>2017-12-06T10:27:12Z</time>
      </trkpt>
      <trkpt lat="44.89199" lon="-0.78072">
        <ele>42.6</ele>
        <time>2017-12-06T10:27:13Z</time>
      </trkpt>
      <trkpt lat="44.89203" lon="-0.78072">
        <ele>42.6</ele>
        <time>2017-12-06T10:27:14Z</time>
      </trkpt>
      <trkpt lat="44.89207" lon="-0.78071">
        <ele>42.6</ele>
        <time>2017-12-06T10:27:15Z</time>
      </trkpt>
      <trkpt lat="44.89211" lon="-0.78068">
        <ele>42.7</ele>
        <time>2017-12-06T10:27:16Z</time>
      </trkpt>
      <trkpt lat="44.89214" lon="-0.78065">
        <ele>42.7</ele>
        <time>2017-12-06T10:27:17Z</time>
      </trkpt>
      <trkpt lat="44.89219" lon="-0.78063">
        <ele>42.7</ele>
        <time>2017-12-06T10:27:18Z</time>
      </trkpt>
      <trkpt lat="44.89222" lon="-0.7806">
        <ele>42.7</ele>
        <time>2017-12-06T10:27:19Z</time>
      </trkpt>
      <trkpt lat="44.89223" lon="-0.78053">
        <ele>42.7</ele>
        <time>2017-12-06T10:27:20Z</time>
      </trkpt>
      <trkpt lat="44.89225" lon="-0.78047">
        <ele>42.7</ele>
        <time>2017-12-06T10:27:21Z</time>
      </trkpt>
      <trkpt lat="44.89227" lon="-0.78041">
        <ele>42.6</ele>
        <time>2017-12-06T10:27:22Z</time>
      </trkpt>
      <trkpt lat="44.89229" lon="-0.78035">
        <ele>42.6</ele>
        <time>2017-12-06T10:27:23Z</time>
      </trkpt>
      <trkpt lat="44.89231" lon="-0.78029">
        <ele>42.6</ele>
        <time>2017-12-06T10:27:24Z</time>
      </trkpt>
      <trkpt lat="44.89233" lon="-0.78024">
        <ele>42.5</ele>
        <time>2017-12-06T10:27:25Z</time>
      </trkpt>
      <trkpt lat="44.89234" lon="-0.78017">
        <ele>42.5</ele>
        <time>2017-12-06T10:27:26Z</time>
      </trkpt>
      <trkpt lat="44.89235" lon="-0.78009">
        <ele>42.5</ele>
        <time>2017-12-06T10:27:27Z</time>
      </trkpt>
      <trkpt lat="44.89235" lon="-0.78002">
        <ele>42.5</ele>
        <time>2017-12-06T10:27:28Z</time>
      </trkpt>
      <trkpt lat="44.89236" lon="-0.77995">
        <ele>42.5</ele>
        <time>2017-12-06T10:27:29Z</time>
      </trkpt>
      <trkpt lat="44.89236" lon="-0.77988">
        <ele>42.5</ele>
        <time>2017-12-06T10:27:30Z</time>
      </trkpt>
      <trkpt lat="44.89237" lon="-0.77981">
        <ele>42.5</ele>
        <time>2017-12-06T10:27:31Z</time>
      </trkpt>
      <trkpt lat="44.89236" lon="-0.77974">
        <ele>42.5</ele>
        <time>2017-12-06T10:27:32Z</time>
      </trkpt>
      <trkpt lat="44.89235" lon="-0.77967">
        <ele>42.5</ele>
        <time>2017-12-06T10:27:33Z</time>
      </trkpt>
      <trkpt lat="44.89234" lon="-0.77959">
        <ele>42.5</ele>
        <time>2017-12-06T10:27:34Z</time>
      </trkpt>
      <trkpt lat="44.89233" lon="-0.77952">
        <ele>42.4</ele>
        <time>2017-12-06T10:27:35Z</time>
      </trkpt>
      <trkpt lat="44.89233" lon="-0.77945">
        <ele>42.4</ele>
        <time>2017-12-06T10:27:36Z</time>
      </trkpt>
      <trkpt lat="44.89233" lon="-0.77938">
        <ele>42.4</ele>
        <time>2017-12-06T10:27:37Z</time>
      </trkpt>
      <trkpt lat="44.89234" lon="-0.77932">
        <ele>42.3</ele>
        <time>2017-12-06T10:27:38Z</time>
      </trkpt>
      <trkpt lat="44.89235" lon="-0.77925">
        <ele>42.3</ele>
        <time>2017-12-06T10:27:39Z</time>
      </trkpt>
      <trkpt lat="44.89234" lon="-0.77919">
        <ele>42.3</ele>
        <time>2017-12-06T10:27:40Z</time>
      </trkpt>
      <trkpt lat="44.89232" lon="-0.77914">
        <ele>42.3</ele>
        <time>2017-12-06T10:27:41Z</time>
      </trkpt>
      <trkpt lat="44.89228" lon="-0.77911">
        <ele>42.3</ele>
        <time>2017-12-06T10:27:42Z</time>
      </trkpt>
      <trkpt lat="44.89225" lon="-0.77907">
        <ele>42.3</ele>
        <time>2017-12-06T10:27:43Z</time>
      </trkpt>
      <trkpt lat="44.8922" lon="-0.77903">
        <ele>42.3</ele>
        <time>2017-12-06T10:27:44Z</time>
      </trkpt>
      <trkpt lat="44.89215" lon="-0.77905">
        <ele>42.3</ele>
        <time>2017-12-06T10:27:45Z</time>
      </trkpt>
      <trkpt lat="44.89211" lon="-0.77906">
        <ele>42.3</ele>
        <time>2017-12-06T10:27:46Z</time>
      </trkpt>
      <trkpt lat="44.89207" lon="-0.77909">
        <ele>42.3</ele>
        <time>2017-12-06T10:27:47Z</time>
      </trkpt>
      <trkpt lat="44.89202" lon="-0.77912">
        <ele>42.4</ele>
        <time>2017-12-06T10:27:48Z</time>
      </trkpt>
      <trkpt lat="44.89198" lon="-0.77913">
        <ele>42.4</ele>
        <time>2017-12-06T10:27:49Z</time>
      </trkpt>
      <trkpt lat="44.89195" lon="-0.77915">
        <ele>42.4</ele>
        <time>2017-12-06T10:27:50Z</time>
      </trkpt>
      <trkpt lat="44.89192" lon="-0.77914">
        <ele>42.4</ele>
        <time>2017-12-06T10:27:51Z</time>
      </trkpt>
      <trkpt lat="44.89186" lon="-0.77914">
        <ele>42.4</ele>
        <time>2017-12-06T10:27:52Z</time>
      </trkpt>
      <trkpt lat="44.89183" lon="-0.7791">
        <ele>42.4</ele>
        <time>2017-12-06T10:27:53Z</time>
      </trkpt>
      <trkpt lat="44.89181" lon="-0.77905">
        <ele>42.4</ele>
        <time>2017-12-06T10:27:54Z</time>
      </trkpt>
      <trkpt lat="44.89178" lon="-0.77902">
        <ele>42.4</ele>
        <time>2017-12-06T10:27:55Z</time>
      </trkpt>
      <trkpt lat="44.89174" lon="-0.779">
        <ele>42.4</ele>
        <time>2017-12-06T10:27:56Z</time>
      </trkpt>
      <trkpt lat="44.89172" lon="-0.77894">
        <ele>42.4</ele>
        <time>2017-12-06T10:27:57Z</time>
      </trkpt>
      <trkpt lat="44.89171" lon="-0.77888">
        <ele>42.4</ele>
        <time>2017-12-06T10:27:58Z</time>
      </trkpt>
      <trkpt lat="44.89171" lon="-0.77882">
        <ele>42.4</ele>
        <time>2017-12-06T10:27:59Z</time>
      </trkpt>
      <trkpt lat="44.8917" lon="-0.77876">
        <ele>42.4</ele>
        <time>2017-12-06T10:28:00Z</time>
      </trkpt>
      <trkpt lat="44.89168" lon="-0.7787">
        <ele>42.4</ele>
        <time>2017-12-06T10:28:01Z</time>
      </trkpt>
      <trkpt lat="44.89166" lon="-0.77864">
        <ele>42.4</ele>
        <time>2017-12-06T10:28:02Z</time>
      </trkpt>
      <trkpt lat="44.89165" lon="-0.77857">
        <ele>42.4</ele>
        <time>2017-12-06T10:28:03Z</time>
      </trkpt>
      <trkpt lat="44.89163" lon="-0.7785">
        <ele>42.3</ele>
        <time>2017-12-06T10:28:04Z</time>
      </trkpt>
      <trkpt lat="44.8916" lon="-0.77845">
        <ele>42.3</ele>
        <time>2017-12-06T10:28:05Z</time>
      </trkpt>
      <trkpt lat="44.89154" lon="-0.77842">
        <ele>42.2</ele>
        <time>2017-12-06T10:28:06Z</time>
      </trkpt>
      <trkpt lat="44.8915" lon="-0.77839">
        <ele>42.2</ele>
        <time>2017-12-06T10:28:07Z</time>
      </trkpt>
      <trkpt lat="44.89147" lon="-0.77833">
        <ele>42.1</ele>
        <time>2017-12-06T10:28:08Z</time>
      </trkpt>
      <trkpt lat="44.89144" lon="-0.77827">
        <ele>42.1</ele>
        <time>2017-12-06T10:28:09Z</time>
      </trkpt>
      <trkpt lat="44.89142" lon="-0.7782">
        <ele>42.1</ele>
        <time>2017-12-06T10:28:10Z</time>
      </trkpt>
      <trkpt lat="44.89141" lon="-0.77813">
        <ele>42.1</ele>
        <time>2017-12-06T10:28:11Z</time>
      </trkpt>
      <trkpt lat="44.8914" lon="-0.77807">
        <ele>42.1</ele>
        <time>2017-12-06T10:28:12Z</time>
      </trkpt>
      <trkpt lat="44.89139" lon="-0.77801">
        <ele>42.1</ele>
        <time>2017-12-06T10:28:13Z</time>
      </trkpt>
      <trkpt lat="44.89138" lon="-0.77793">
        <ele>42.2</ele>
        <time>2017-12-06T10:28:14Z</time>
      </trkpt>
      <trkpt lat="44.89139" lon="-0.77787">
        <ele>42.3</ele>
        <time>2017-12-06T10:28:15Z</time>
      </trkpt>
      <trkpt lat="44.89139" lon="-0.77783">
        <ele>42.3</ele>
        <time>2017-12-06T10:28:16Z</time>
      </trkpt>
      <trkpt lat="44.89141" lon="-0.7778">
        <ele>42.3</ele>
        <time>2017-12-06T10:28:17Z</time>
      </trkpt>
      <trkpt lat="44.89143" lon="-0.77775">
        <ele>42.4</ele>
        <time>2017-12-06T10:28:18Z</time>
      </trkpt>
      <trkpt lat="44.89147" lon="-0.77771">
        <ele>42.4</ele>
        <time>2017-12-06T10:28:19Z</time>
      </trkpt>
      <trkpt lat="44.89152" lon="-0.77768">
        <ele>42.4</ele>
        <time>2017-12-06T10:28:20Z</time>
      </trkpt>
      <trkpt lat="44.89156" lon="-0.77766">
        <ele>42.4</ele>
        <time>2017-12-06T10:28:21Z</time>
      </trkpt>
      <trkpt lat="44.8916" lon="-0.77765">
        <ele>42.4</ele>
        <time>2017-12-06T10:28:22Z</time>
      </trkpt>
      <trkpt lat="44.89165" lon="-0.77763">
        <ele>42.5</ele>
        <time>2017-12-06T10:28:23Z</time>
      </trkpt>
      <trkpt lat="44.89169" lon="-0.77762">
        <ele>42.5</ele>
        <time>2017-12-06T10:28:24Z</time>
      </trkpt>
      <trkpt lat="44.89173" lon="-0.77759">
        <ele>42.5</ele>
        <time>2017-12-06T10:28:25Z</time>
      </trkpt>
      <trkpt lat="44.89178" lon="-0.77755">
        <ele>42.5</ele>
        <time>2017-12-06T10:28:26Z</time>
      </trkpt>
      <trkpt lat="44.89183" lon="-0.77751">
        <ele>42.6</ele>
        <time>2017-12-06T10:28:27Z</time>
      </trkpt>
      <trkpt lat="44.89187" lon="-0.77748">
        <ele>42.6</ele>
        <time>2017-12-06T10:28:28Z</time>
      </trkpt>
      <trkpt lat="44.89191" lon="-0.77745">
        <ele>42.7</ele>
        <time>2017-12-06T10:28:29Z</time>
      </trkpt>
      <trkpt lat="44.89196" lon="-0.77742">
        <ele>42.7</ele>
        <time>2017-12-06T10:28:30Z</time>
      </trkpt>
      <trkpt lat="44.892" lon="-0.77741">
        <ele>42.7</ele>
        <time>2017-12-06T10:28:31Z</time>
      </trkpt>
      <trkpt lat="44.89205" lon="-0.77738">
        <ele>42.8</ele>
        <time>2017-12-06T10:28:32Z</time>
      </trkpt>
      <trkpt lat="44.89208" lon="-0.77732">
        <ele>42.9</ele>
        <time>2017-12-06T10:28:33Z</time>
      </trkpt>
      <trkpt lat="44.89211" lon="-0.77726">
        <ele>43</ele>
        <time>2017-12-06T10:28:34Z</time>
      </trkpt>
      <trkpt lat="44.89213" lon="-0.7772">
        <ele>43.1</ele>
        <time>2017-12-06T10:28:35Z</time>
      </trkpt>
      <trkpt lat="44.89216" lon="-0.77718">
        <ele>43.1</ele>
        <time>2017-12-06T10:28:36Z</time>
      </trkpt>
      <trkpt lat="44.89218" lon="-0.77715">
        <ele>43.2</ele>
        <time>2017-12-06T10:28:37Z</time>
      </trkpt>
      <trkpt lat="44.8922" lon="-0.77709">
        <ele>43.2</ele>
        <time>2017-12-06T10:28:38Z</time>
      </trkpt>
      <trkpt lat="44.8922" lon="-0.77703">
        <ele>43.3</ele>
        <time>2017-12-06T10:28:40Z</time>
      </trkpt>
      <trkpt lat="44.89219" lon="-0.77698">
        <ele>43.3</ele>
        <time>2017-12-06T10:28:41Z</time>
      </trkpt>
      <trkpt lat="44.8922" lon="-0.77694">
        <ele>43.3</ele>
        <time>2017-12-06T10:28:42Z</time>
      </trkpt>
      <trkpt lat="44.89222" lon="-0.77689">
        <ele>43.4</ele>
        <time>2017-12-06T10:28:43Z</time>
      </trkpt>
      <trkpt lat="44.89223" lon="-0.77683">
        <ele>43.4</ele>
        <time>2017-12-06T10:28:44Z</time>
      </trkpt>
      <trkpt lat="44.89224" lon="-0.77677">
        <ele>43.3</ele>
        <time>2017-12-06T10:28:45Z</time>
      </trkpt>
      <trkpt lat="44.89223" lon="-0.7767">
        <ele>43.3</ele>
        <time>2017-12-06T10:28:46Z</time>
      </trkpt>
      <trkpt lat="44.89224" lon="-0.77665">
        <ele>43.3</ele>
        <time>2017-12-06T10:28:47Z</time>
      </trkpt>
      <trkpt lat="44.89224" lon="-0.77658">
        <ele>43.2</ele>
        <time>2017-12-06T10:28:48Z</time>
      </trkpt>
      <trkpt lat="44.89223" lon="-0.77651">
        <ele>43.1</ele>
        <time>2017-12-06T10:28:49Z</time>
      </trkpt>
      <trkpt lat="44.89223" lon="-0.77643">
        <ele>43</ele>
        <time>2017-12-06T10:28:50Z</time>
      </trkpt>
      <trkpt lat="44.89221" lon="-0.77636">
        <ele>42.9</ele>
        <time>2017-12-06T10:28:51Z</time>
      </trkpt>
      <trkpt lat="44.89221" lon="-0.77629">
        <ele>42.9</ele>
        <time>2017-12-06T10:28:52Z</time>
      </trkpt>
      <trkpt lat="44.89221" lon="-0.77621">
        <ele>42.9</ele>
        <time>2017-12-06T10:28:53Z</time>
      </trkpt>
      <trkpt lat="44.89221" lon="-0.77614">
        <ele>42.8</ele>
        <time>2017-12-06T10:28:54Z</time>
      </trkpt>
      <trkpt lat="44.8922" lon="-0.77607">
        <ele>42.8</ele>
        <time>2017-12-06T10:28:55Z</time>
      </trkpt>
      <trkpt lat="44.89222" lon="-0.77603">
        <ele>42.8</ele>
        <time>2017-12-06T10:28:56Z</time>
      </trkpt>
      <trkpt lat="44.89221" lon="-0.77598">
        <ele>42.8</ele>
        <time>2017-12-06T10:28:57Z</time>
      </trkpt>
      <trkpt lat="44.89221" lon="-0.77592">
        <ele>42.9</ele>
        <time>2017-12-06T10:28:58Z</time>
      </trkpt>
      <trkpt lat="44.8922" lon="-0.77586">
        <ele>42.9</ele>
        <time>2017-12-06T10:28:59Z</time>
      </trkpt>
      <trkpt lat="44.89219" lon="-0.77579">
        <ele>42.9</ele>
        <time>2017-12-06T10:29:00Z</time>
      </trkpt>
      <trkpt lat="44.89218" lon="-0.77573">
        <ele>42.9</ele>
        <time>2017-12-06T10:29:01Z</time>
      </trkpt>
      <trkpt lat="44.89218" lon="-0.77567">
        <ele>42.9</ele>
        <time>2017-12-06T10:29:02Z</time>
      </trkpt>
      <trkpt lat="44.89219" lon="-0.77561">
        <ele>42.8</ele>
        <time>2017-12-06T10:29:03Z</time>
      </trkpt>
      <trkpt lat="44.89219" lon="-0.77555">
        <ele>42.8</ele>
        <time>2017-12-06T10:29:04Z</time>
      </trkpt>
      <trkpt lat="44.89217" lon="-0.7755">
        <ele>42.8</ele>
        <time>2017-12-06T10:29:05Z</time>
      </trkpt>
      <trkpt lat="44.89216" lon="-0.77545">
        <ele>42.7</ele>
        <time>2017-12-06T10:29:06Z</time>
      </trkpt>
      <trkpt lat="44.89216" lon="-0.77541">
        <ele>42.7</ele>
        <time>2017-12-06T10:29:07Z</time>
      </trkpt>
      <trkpt lat="44.89216" lon="-0.77537">
        <ele>42.7</ele>
        <time>2017-12-06T10:29:08Z</time>
      </trkpt>
      <trkpt lat="44.89215" lon="-0.77531">
        <ele>42.6</ele>
        <time>2017-12-06T10:29:09Z</time>
      </trkpt>
      <trkpt lat="44.89215" lon="-0.77524">
        <ele>42.6</ele>
        <time>2017-12-06T10:29:10Z</time>
      </trkpt>
      <trkpt lat="44.89215" lon="-0.77519">
        <ele>42.6</ele>
        <time>2017-12-06T10:29:11Z</time>
      </trkpt>
      <trkpt lat="44.89215" lon="-0.77511">
        <ele>42.5</ele>
        <time>2017-12-06T10:29:12Z</time>
      </trkpt>
      <trkpt lat="44.89215" lon="-0.77504">
        <ele>42.4</ele>
        <time>2017-12-06T10:29:13Z</time>
      </trkpt>
      <trkpt lat="44.89215" lon="-0.77497">
        <ele>42.4</ele>
        <time>2017-12-06T10:29:14Z</time>
      </trkpt>
      <trkpt lat="44.89216" lon="-0.7749">
        <ele>42.3</ele>
        <time>2017-12-06T10:29:15Z</time>
      </trkpt>
      <trkpt lat="44.89217" lon="-0.77484">
        <ele>42.3</ele>
        <time>2017-12-06T10:29:16Z</time>
      </trkpt>
      <trkpt lat="44.89216" lon="-0.77477">
        <ele>42.2</ele>
        <time>2017-12-06T10:29:17Z</time>
      </trkpt>
      <trkpt lat="44.89215" lon="-0.7747">
        <ele>42.2</ele>
        <time>2017-12-06T10:29:18Z</time>
      </trkpt>
      <trkpt lat="44.89212" lon="-0.77464">
        <ele>42.2</ele>
        <time>2017-12-06T10:29:19Z</time>
      </trkpt>
      <trkpt lat="44.89211" lon="-0.77459">
        <ele>42.1</ele>
        <time>2017-12-06T10:29:20Z</time>
      </trkpt>
      <trkpt lat="44.8921" lon="-0.77454">
        <ele>42.1</ele>
        <time>2017-12-06T10:29:21Z</time>
      </trkpt>
      <trkpt lat="44.89207" lon="-0.7745">
        <ele>42.1</ele>
        <time>2017-12-06T10:29:22Z</time>
      </trkpt>
      <trkpt lat="44.89205" lon="-0.77447">
        <ele>42.1</ele>
        <time>2017-12-06T10:29:23Z</time>
      </trkpt>
      <trkpt lat="44.89201" lon="-0.77446">
        <ele>42</ele>
        <time>2017-12-06T10:29:24Z</time>
      </trkpt>
      <trkpt lat="44.89197" lon="-0.77446">
        <ele>41.6</ele>
        <time>2017-12-06T10:29:25Z</time>
      </trkpt>
      <trkpt lat="44.89193" lon="-0.77448">
        <ele>41.3</ele>
        <time>2017-12-06T10:29:26Z</time>
      </trkpt>
      <trkpt lat="44.89189" lon="-0.77449">
        <ele>41.1</ele>
        <time>2017-12-06T10:29:27Z</time>
      </trkpt>
      <trkpt lat="44.89184" lon="-0.7745">
        <ele>40.9</ele>
        <time>2017-12-06T10:29:28Z</time>
      </trkpt>
      <trkpt lat="44.8918" lon="-0.77452">
        <ele>40.7</ele>
        <time>2017-12-06T10:29:29Z</time>
      </trkpt>
      <trkpt lat="44.89176" lon="-0.77454">
        <ele>40.6</ele>
        <time>2017-12-06T10:29:30Z</time>
      </trkpt>
      <trkpt lat="44.89171" lon="-0.77455">
        <ele>40.4</ele>
        <time>2017-12-06T10:29:31Z</time>
      </trkpt>
      <trkpt lat="44.89167" lon="-0.77454">
        <ele>40.3</ele>
        <time>2017-12-06T10:29:32Z</time>
      </trkpt>
      <trkpt lat="44.89165" lon="-0.77451">
        <ele>40.2</ele>
        <time>2017-12-06T10:29:33Z</time>
      </trkpt>
      <trkpt lat="44.89165" lon="-0.77447">
        <ele>40</ele>
        <time>2017-12-06T10:29:34Z</time>
      </trkpt>
      <trkpt lat="44.89165" lon="-0.77442">
        <ele>39.9</ele>
        <time>2017-12-06T10:29:35Z</time>
      </trkpt>
      <trkpt lat="44.89167" lon="-0.77434">
        <ele>39.9</ele>
        <time>2017-12-06T10:29:37Z</time>
      </trkpt>
      <trkpt lat="44.89166" lon="-0.77429">
        <ele>39.9</ele>
        <time>2017-12-06T10:29:38Z</time>
      </trkpt>
      <trkpt lat="44.89165" lon="-0.77422">
        <ele>39.9</ele>
        <time>2017-12-06T10:29:40Z</time>
      </trkpt>
      <trkpt lat="44.89166" lon="-0.77418">
        <ele>39.8</ele>
        <time>2017-12-06T10:29:41Z</time>
      </trkpt>
      <trkpt lat="44.89167" lon="-0.77413">
        <ele>39.8</ele>
        <time>2017-12-06T10:29:42Z</time>
      </trkpt>
      <trkpt lat="44.89167" lon="-0.77409">
        <ele>39.8</ele>
        <time>2017-12-06T10:29:43Z</time>
      </trkpt>
      <trkpt lat="44.89168" lon="-0.77404">
        <ele>39.8</ele>
        <time>2017-12-06T10:29:44Z</time>
      </trkpt>
      <trkpt lat="44.8917" lon="-0.77397">
        <ele>39.7</ele>
        <time>2017-12-06T10:29:45Z</time>
      </trkpt>
      <trkpt lat="44.89171" lon="-0.77391">
        <ele>39.7</ele>
        <time>2017-12-06T10:29:46Z</time>
      </trkpt>
      <trkpt lat="44.89172" lon="-0.77385">
        <ele>39.7</ele>
        <time>2017-12-06T10:29:47Z</time>
      </trkpt>
      <trkpt lat="44.89171" lon="-0.77379">
        <ele>39.7</ele>
        <time>2017-12-06T10:29:48Z</time>
      </trkpt>
      <trkpt lat="44.8917" lon="-0.77374">
        <ele>39.7</ele>
        <time>2017-12-06T10:29:49Z</time>
      </trkpt>
      <trkpt lat="44.8917" lon="-0.7737">
        <ele>39.6</ele>
        <time>2017-12-06T10:29:50Z</time>
      </trkpt>
      <trkpt lat="44.8917" lon="-0.77363">
        <ele>39.6</ele>
        <time>2017-12-06T10:29:51Z</time>
      </trkpt>
      <trkpt lat="44.8917" lon="-0.77356">
        <ele>39.6</ele>
        <time>2017-12-06T10:29:52Z</time>
      </trkpt>
      <trkpt lat="44.89171" lon="-0.77349">
        <ele>39.6</ele>
        <time>2017-12-06T10:29:53Z</time>
      </trkpt>
      <trkpt lat="44.89172" lon="-0.77343">
        <ele>39.5</ele>
        <time>2017-12-06T10:29:54Z</time>
      </trkpt>
      <trkpt lat="44.89173" lon="-0.77337">
        <ele>39.5</ele>
        <time>2017-12-06T10:29:55Z</time>
      </trkpt>
      <trkpt lat="44.89175" lon="-0.77331">
        <ele>39.5</ele>
        <time>2017-12-06T10:29:56Z</time>
      </trkpt>
      <trkpt lat="44.89176" lon="-0.77325">
        <ele>39.5</ele>
        <time>2017-12-06T10:29:57Z</time>
      </trkpt>
      <trkpt lat="44.89177" lon="-0.7732">
        <ele>39.5</ele>
        <time>2017-12-06T10:29:58Z</time>
      </trkpt>
      <trkpt lat="44.89178" lon="-0.77315">
        <ele>39.5</ele>
        <time>2017-12-06T10:29:59Z</time>
      </trkpt>
      <trkpt lat="44.89179" lon="-0.7731">
        <ele>39.4</ele>
        <time>2017-12-06T10:30:00Z</time>
      </trkpt>
      <trkpt lat="44.89178" lon="-0.77303">
        <ele>39.4</ele>
        <time>2017-12-06T10:30:01Z</time>
      </trkpt>
      <trkpt lat="44.89176" lon="-0.77297">
        <ele>39.4</ele>
        <time>2017-12-06T10:30:02Z</time>
      </trkpt>
      <trkpt lat="44.89172" lon="-0.77291">
        <ele>39.4</ele>
        <time>2017-12-06T10:30:03Z</time>
      </trkpt>
      <trkpt lat="44.89168" lon="-0.77287">
        <ele>39.3</ele>
        <time>2017-12-06T10:30:04Z</time>
      </trkpt>
      <trkpt lat="44.89164" lon="-0.77285">
        <ele>39.3</ele>
        <time>2017-12-06T10:30:05Z</time>
      </trkpt>
      <trkpt lat="44.89159" lon="-0.77284">
        <ele>39.3</ele>
        <time>2017-12-06T10:30:06Z</time>
      </trkpt>
      <trkpt lat="44.89155" lon="-0.77287">
        <ele>39.3</ele>
        <time>2017-12-06T10:30:07Z</time>
      </trkpt>
      <trkpt lat="44.89152" lon="-0.77291">
        <ele>39.2</ele>
        <time>2017-12-06T10:30:08Z</time>
      </trkpt>
      <trkpt lat="44.89147" lon="-0.77293">
        <ele>39.2</ele>
        <time>2017-12-06T10:30:09Z</time>
      </trkpt>
      <trkpt lat="44.89144" lon="-0.77296">
        <ele>39.2</ele>
        <time>2017-12-06T10:30:10Z</time>
      </trkpt>
      <trkpt lat="44.8914" lon="-0.77298">
        <ele>39.2</ele>
        <time>2017-12-06T10:30:11Z</time>
      </trkpt>
      <trkpt lat="44.89135" lon="-0.773">
        <ele>39.2</ele>
        <time>2017-12-06T10:30:12Z</time>
      </trkpt>
      <trkpt lat="44.89132" lon="-0.773">
        <ele>39.1</ele>
        <time>2017-12-06T10:30:13Z</time>
      </trkpt>
      <trkpt lat="44.8913" lon="-0.77298">
        <ele>39.1</ele>
        <time>2017-12-06T10:30:14Z</time>
      </trkpt>
      <trkpt lat="44.89128" lon="-0.77288">
        <ele>39.1</ele>
        <time>2017-12-06T10:30:16Z</time>
      </trkpt>
      <trkpt lat="44.89128" lon="-0.77283">
        <ele>39.1</ele>
        <time>2017-12-06T10:30:17Z</time>
      </trkpt>
      <trkpt lat="44.89126" lon="-0.77277">
        <ele>39</ele>
        <time>2017-12-06T10:30:19Z</time>
      </trkpt>
      <trkpt lat="44.89123" lon="-0.77273">
        <ele>39</ele>
        <time>2017-12-06T10:30:21Z</time>
      </trkpt>
      <trkpt lat="44.89121" lon="-0.7727">
        <ele>39</ele>
        <time>2017-12-06T10:30:22Z</time>
      </trkpt>
      <trkpt lat="44.89121" lon="-0.77265">
        <ele>39</ele>
        <time>2017-12-06T10:30:23Z</time>
      </trkpt>
      <trkpt lat="44.89118" lon="-0.7726">
        <ele>39</ele>
        <time>2017-12-06T10:30:25Z</time>
      </trkpt>
      <trkpt lat="44.89115" lon="-0.77259">
        <ele>39.1</ele>
        <time>2017-12-06T10:30:26Z</time>
      </trkpt>
      <trkpt lat="44.89111" lon="-0.7726">
        <ele>39.1</ele>
        <time>2017-12-06T10:30:27Z</time>
      </trkpt>
      <trkpt lat="44.89108" lon="-0.7726">
        <ele>39.2</ele>
        <time>2017-12-06T10:30:28Z</time>
      </trkpt>
      <trkpt lat="44.89104" lon="-0.77259">
        <ele>39.3</ele>
        <time>2017-12-06T10:30:29Z</time>
      </trkpt>
      <trkpt lat="44.891" lon="-0.77259">
        <ele>39.3</ele>
        <time>2017-12-06T10:30:30Z</time>
      </trkpt>
      <trkpt lat="44.89096" lon="-0.77257">
        <ele>39.4</ele>
        <time>2017-12-06T10:30:31Z</time>
      </trkpt>
      <trkpt lat="44.8909" lon="-0.77256">
        <ele>39.4</ele>
        <time>2017-12-06T10:30:33Z</time>
      </trkpt>
      <trkpt lat="44.89087" lon="-0.77257">
        <ele>39.5</ele>
        <time>2017-12-06T10:30:34Z</time>
      </trkpt>
      <trkpt lat="44.89083" lon="-0.77256">
        <ele>39.5</ele>
        <time>2017-12-06T10:30:35Z</time>
      </trkpt>
      <trkpt lat="44.8908" lon="-0.77255">
        <ele>39.6</ele>
        <time>2017-12-06T10:30:36Z</time>
      </trkpt>
      <trkpt lat="44.89075" lon="-0.77252">
        <ele>39.7</ele>
        <time>2017-12-06T10:30:38Z</time>
      </trkpt>
      <trkpt lat="44.89071" lon="-0.77251">
        <ele>39.7</ele>
        <time>2017-12-06T10:30:39Z</time>
      </trkpt>
      <trkpt lat="44.89069" lon="-0.7725">
        <ele>39.7</ele>
        <time>2017-12-06T10:30:40Z</time>
      </trkpt>
      <trkpt lat="44.89066" lon="-0.77248">
        <ele>39.8</ele>
        <time>2017-12-06T10:30:41Z</time>
      </trkpt>
      <trkpt lat="44.89064" lon="-0.77245">
        <ele>39.8</ele>
        <time>2017-12-06T10:30:42Z</time>
      </trkpt>
      <trkpt lat="44.89061" lon="-0.77243">
        <ele>39.9</ele>
        <time>2017-12-06T10:30:43Z</time>
      </trkpt>
      <trkpt lat="44.89057" lon="-0.77241">
        <ele>39.9</ele>
        <time>2017-12-06T10:30:44Z</time>
      </trkpt>
      <trkpt lat="44.89053" lon="-0.77241">
        <ele>40</ele>
        <time>2017-12-06T10:30:45Z</time>
      </trkpt>
      <trkpt lat="44.89048" lon="-0.77241">
        <ele>40.1</ele>
        <time>2017-12-06T10:30:46Z</time>
      </trkpt>
      <trkpt lat="44.89045" lon="-0.7724">
        <ele>40.1</ele>
        <time>2017-12-06T10:30:47Z</time>
      </trkpt>
      <trkpt lat="44.8904" lon="-0.77238">
        <ele>40.2</ele>
        <time>2017-12-06T10:30:48Z</time>
      </trkpt>
      <trkpt lat="44.89036" lon="-0.77235">
        <ele>40.3</ele>
        <time>2017-12-06T10:30:49Z</time>
      </trkpt>
      <trkpt lat="44.8903" lon="-0.77231">
        <ele>40.4</ele>
        <time>2017-12-06T10:30:50Z</time>
      </trkpt>
      <trkpt lat="44.89026" lon="-0.77232">
        <ele>40.5</ele>
        <time>2017-12-06T10:30:51Z</time>
      </trkpt>
      <trkpt lat="44.89023" lon="-0.77234">
        <ele>40.6</ele>
        <time>2017-12-06T10:30:52Z</time>
      </trkpt>
      <trkpt lat="44.89019" lon="-0.77236">
        <ele>40.6</ele>
        <time>2017-12-06T10:30:53Z</time>
      </trkpt>
      <trkpt lat="44.89016" lon="-0.77238">
        <ele>40.7</ele>
        <time>2017-12-06T10:30:54Z</time>
      </trkpt>
      <trkpt lat="44.89012" lon="-0.77236">
        <ele>40.8</ele>
        <time>2017-12-06T10:30:56Z</time>
      </trkpt>
      <trkpt lat="44.89007" lon="-0.77235">
        <ele>40.9</ele>
        <time>2017-12-06T10:30:58Z</time>
      </trkpt>
      <trkpt lat="44.89004" lon="-0.77231">
        <ele>41</ele>
        <time>2017-12-06T10:31:00Z</time>
      </trkpt>
      <trkpt lat="44.89003" lon="-0.77227">
        <ele>41.1</ele>
        <time>2017-12-06T10:31:01Z</time>
      </trkpt>
      <trkpt lat="44.89002" lon="-0.77223">
        <ele>41.1</ele>
        <time>2017-12-06T10:31:02Z</time>
      </trkpt>
      <trkpt lat="44.89" lon="-0.77219">
        <ele>41.2</ele>
        <time>2017-12-06T10:31:03Z</time>
      </trkpt>
      <trkpt lat="44.88998" lon="-0.77215">
        <ele>41.3</ele>
        <time>2017-12-06T10:31:04Z</time>
      </trkpt>
      <trkpt lat="44.88998" lon="-0.77212">
        <ele>41.3</ele>
        <time>2017-12-06T10:31:05Z</time>
      </trkpt>
      <trkpt lat="44.88996" lon="-0.77208">
        <ele>41.4</ele>
        <time>2017-12-06T10:31:06Z</time>
      </trkpt>
      <trkpt lat="44.88993" lon="-0.77202">
        <ele>41.5</ele>
        <time>2017-12-06T10:31:08Z</time>
      </trkpt>
      <trkpt lat="44.88988" lon="-0.77197">
        <ele>41.6</ele>
        <time>2017-12-06T10:31:10Z</time>
      </trkpt>
      <trkpt lat="44.88985" lon="-0.77194">
        <ele>41.7</ele>
        <time>2017-12-06T10:31:11Z</time>
      </trkpt>
      <trkpt lat="44.88984" lon="-0.77186">
        <ele>41.8</ele>
        <time>2017-12-06T10:31:13Z</time>
      </trkpt>
      <trkpt lat="44.88982" lon="-0.77181">
        <ele>41.9</ele>
        <time>2017-12-06T10:31:14Z</time>
      </trkpt>
      <trkpt lat="44.88981" lon="-0.77177">
        <ele>42</ele>
        <time>2017-12-06T10:31:15Z</time>
      </trkpt>
      <trkpt lat="44.88981" lon="-0.77171">
        <ele>42.2</ele>
        <time>2017-12-06T10:31:16Z</time>
      </trkpt>
      <trkpt lat="44.8898" lon="-0.77165">
        <ele>42.3</ele>
        <time>2017-12-06T10:31:17Z</time>
      </trkpt>
      <trkpt lat="44.8898" lon="-0.77159">
        <ele>42.4</ele>
        <time>2017-12-06T10:31:18Z</time>
      </trkpt>
      <trkpt lat="44.88979" lon="-0.77153">
        <ele>42.5</ele>
        <time>2017-12-06T10:31:19Z</time>
      </trkpt>
      <trkpt lat="44.88979" lon="-0.77147">
        <ele>42.7</ele>
        <time>2017-12-06T10:31:20Z</time>
      </trkpt>
      <trkpt lat="44.88973" lon="-0.77143">
        <ele>42.9</ele>
        <time>2017-12-06T10:31:22Z</time>
      </trkpt>
      <trkpt lat="44.88969" lon="-0.77143">
        <ele>43</ele>
        <time>2017-12-06T10:31:23Z</time>
      </trkpt>
      <trkpt lat="44.88966" lon="-0.77141">
        <ele>43.1</ele>
        <time>2017-12-06T10:31:24Z</time>
      </trkpt>
      <trkpt lat="44.88963" lon="-0.7714">
        <ele>43.2</ele>
        <time>2017-12-06T10:31:25Z</time>
      </trkpt>
      <trkpt lat="44.88958" lon="-0.77139">
        <ele>43.3</ele>
        <time>2017-12-06T10:31:26Z</time>
      </trkpt>
      <trkpt lat="44.88953" lon="-0.77139">
        <ele>43.4</ele>
        <time>2017-12-06T10:31:27Z</time>
      </trkpt>
      <trkpt lat="44.88949" lon="-0.7714">
        <ele>43.5</ele>
        <time>2017-12-06T10:31:28Z</time>
      </trkpt>
      <trkpt lat="44.88944" lon="-0.77142">
        <ele>43.6</ele>
        <time>2017-12-06T10:31:29Z</time>
      </trkpt>
      <trkpt lat="44.88939" lon="-0.77144">
        <ele>43.8</ele>
        <time>2017-12-06T10:31:30Z</time>
      </trkpt>
      <trkpt lat="44.88933" lon="-0.77145">
        <ele>43.9</ele>
        <time>2017-12-06T10:31:31Z</time>
      </trkpt>
      <trkpt lat="44.88927" lon="-0.77145">
        <ele>44.1</ele>
        <time>2017-12-06T10:31:32Z</time>
      </trkpt>
      <trkpt lat="44.88922" lon="-0.77145">
        <ele>44.2</ele>
        <time>2017-12-06T10:31:33Z</time>
      </trkpt>
      <trkpt lat="44.88916" lon="-0.77143">
        <ele>44.2</ele>
        <time>2017-12-06T10:31:34Z</time>
      </trkpt>
      <trkpt lat="44.88911" lon="-0.77142">
        <ele>44.1</ele>
        <time>2017-12-06T10:31:35Z</time>
      </trkpt>
      <trkpt lat="44.88907" lon="-0.7714">
        <ele>43.9</ele>
        <time>2017-12-06T10:31:36Z</time>
      </trkpt>
      <trkpt lat="44.88904" lon="-0.77137">
        <ele>43.7</ele>
        <time>2017-12-06T10:31:37Z</time>
      </trkpt>
      <trkpt lat="44.88901" lon="-0.77132">
        <ele>43.5</ele>
        <time>2017-12-06T10:31:38Z</time>
      </trkpt>
      <trkpt lat="44.88898" lon="-0.77127">
        <ele>43.4</ele>
        <time>2017-12-06T10:31:39Z</time>
      </trkpt>
      <trkpt lat="44.88895" lon="-0.77123">
        <ele>43.3</ele>
        <time>2017-12-06T10:31:40Z</time>
      </trkpt>
      <trkpt lat="44.88891" lon="-0.77119">
        <ele>43.3</ele>
        <time>2017-12-06T10:31:41Z</time>
      </trkpt>
      <trkpt lat="44.88889" lon="-0.77116">
        <ele>43.3</ele>
        <time>2017-12-06T10:31:45Z</time>
      </trkpt>
      <trkpt lat="44.88887" lon="-0.77113">
        <ele>43.4</ele>
        <time>2017-12-06T10:31:47Z</time>
      </trkpt>
      <trkpt lat="44.88887" lon="-0.77109">
        <ele>43.4</ele>
        <time>2017-12-06T10:31:50Z</time>
      </trkpt>
      <trkpt lat="44.88888" lon="-0.77103">
        <ele>43.4</ele>
        <time>2017-12-06T10:31:52Z</time>
      </trkpt>
      <trkpt lat="44.88888" lon="-0.77098">
        <ele>43.4</ele>
        <time>2017-12-06T10:31:53Z</time>
      </trkpt>
      <trkpt lat="44.88889" lon="-0.77092">
        <ele>43.3</ele>
        <time>2017-12-06T10:31:55Z</time>
      </trkpt>
      <trkpt lat="44.8889" lon="-0.77087">
        <ele>43</ele>
        <time>2017-12-06T10:31:57Z</time>
      </trkpt>
      <trkpt lat="44.8889" lon="-0.77079">
        <ele>42.8</ele>
        <time>2017-12-06T10:31:59Z</time>
      </trkpt>
      <trkpt lat="44.88891" lon="-0.77075">
        <ele>42.7</ele>
        <time>2017-12-06T10:32:00Z</time>
      </trkpt>
      <trkpt lat="44.88892" lon="-0.77069">
        <ele>42.7</ele>
        <time>2017-12-06T10:32:02Z</time>
      </trkpt>
      <trkpt lat="44.88891" lon="-0.77064">
        <ele>43</ele>
        <time>2017-12-06T10:32:05Z</time>
      </trkpt>
      <trkpt lat="44.88889" lon="-0.7706">
        <ele>43</ele>
        <time>2017-12-06T10:32:07Z</time>
      </trkpt>
      <trkpt lat="44.88886" lon="-0.77059">
        <ele>42.9</ele>
        <time>2017-12-06T10:32:08Z</time>
      </trkpt>
      <trkpt lat="44.88881" lon="-0.77054">
        <ele>42.9</ele>
        <time>2017-12-06T10:32:10Z</time>
      </trkpt>
      <trkpt lat="44.8888" lon="-0.7705">
        <ele>42.8</ele>
        <time>2017-12-06T10:32:11Z</time>
      </trkpt>
      <trkpt lat="44.88879" lon="-0.77045">
        <ele>42.8</ele>
        <time>2017-12-06T10:32:13Z</time>
      </trkpt>
      <trkpt lat="44.88877" lon="-0.77039">
        <ele>42.7</ele>
        <time>2017-12-06T10:32:15Z</time>
      </trkpt>
      <trkpt lat="44.88875" lon="-0.77035">
        <ele>42.7</ele>
        <time>2017-12-06T10:32:16Z</time>
      </trkpt>
      <trkpt lat="44.88874" lon="-0.7703">
        <ele>42.7</ele>
        <time>2017-12-06T10:32:17Z</time>
      </trkpt>
      <trkpt lat="44.88872" lon="-0.77026">
        <ele>42.6</ele>
        <time>2017-12-06T10:32:18Z</time>
      </trkpt>
      <trkpt lat="44.88867" lon="-0.77023">
        <ele>42.6</ele>
        <time>2017-12-06T10:32:19Z</time>
      </trkpt>
      <trkpt lat="44.88863" lon="-0.77019">
        <ele>42.5</ele>
        <time>2017-12-06T10:32:20Z</time>
      </trkpt>
      <trkpt lat="44.88861" lon="-0.77016">
        <ele>42.5</ele>
        <time>2017-12-06T10:32:21Z</time>
      </trkpt>
      <trkpt lat="44.88859" lon="-0.77013">
        <ele>42.5</ele>
        <time>2017-12-06T10:32:22Z</time>
      </trkpt>
      <trkpt lat="44.88855" lon="-0.77011">
        <ele>42.4</ele>
        <time>2017-12-06T10:32:23Z</time>
      </trkpt>
      <trkpt lat="44.88853" lon="-0.77008">
        <ele>42.4</ele>
        <time>2017-12-06T10:32:24Z</time>
      </trkpt>
      <trkpt lat="44.88849" lon="-0.77004">
        <ele>42.3</ele>
        <time>2017-12-06T10:32:25Z</time>
      </trkpt>
      <trkpt lat="44.88846" lon="-0.77">
        <ele>42.2</ele>
        <time>2017-12-06T10:32:26Z</time>
      </trkpt>
      <trkpt lat="44.88842" lon="-0.76997">
        <ele>42.2</ele>
        <time>2017-12-06T10:32:27Z</time>
      </trkpt>
      <trkpt lat="44.88837" lon="-0.76993">
        <ele>42.1</ele>
        <time>2017-12-06T10:32:28Z</time>
      </trkpt>
      <trkpt lat="44.88831" lon="-0.76989">
        <ele>42</ele>
        <time>2017-12-06T10:32:29Z</time>
      </trkpt>
      <trkpt lat="44.88829" lon="-0.76987">
        <ele>41.9</ele>
        <time>2017-12-06T10:32:30Z</time>
      </trkpt>
      <trkpt lat="44.88824" lon="-0.76983">
        <ele>41.9</ele>
        <time>2017-12-06T10:32:31Z</time>
      </trkpt>
      <trkpt lat="44.88821" lon="-0.76978">
        <ele>41.8</ele>
        <time>2017-12-06T10:32:32Z</time>
      </trkpt>
      <trkpt lat="44.88817" lon="-0.76973">
        <ele>41.7</ele>
        <time>2017-12-06T10:32:33Z</time>
      </trkpt>
      <trkpt lat="44.88813" lon="-0.76968">
        <ele>41.7</ele>
        <time>2017-12-06T10:32:34Z</time>
      </trkpt>
      <trkpt lat="44.88809" lon="-0.76965">
        <ele>41.6</ele>
        <time>2017-12-06T10:32:35Z</time>
      </trkpt>
      <trkpt lat="44.88806" lon="-0.76961">
        <ele>41.6</ele>
        <time>2017-12-06T10:32:36Z</time>
      </trkpt>
      <trkpt lat="44.88804" lon="-0.76957">
        <ele>41.5</ele>
        <time>2017-12-06T10:32:37Z</time>
      </trkpt>
      <trkpt lat="44.888" lon="-0.76954">
        <ele>41.4</ele>
        <time>2017-12-06T10:32:38Z</time>
      </trkpt>
      <trkpt lat="44.88795" lon="-0.76951">
        <ele>41.3</ele>
        <time>2017-12-06T10:32:39Z</time>
      </trkpt>
      <trkpt lat="44.88792" lon="-0.76951">
        <ele>41.1</ele>
        <time>2017-12-06T10:32:40Z</time>
      </trkpt>
      <trkpt lat="44.88788" lon="-0.76953">
        <ele>40.8</ele>
        <time>2017-12-06T10:32:41Z</time>
      </trkpt>
      <trkpt lat="44.88784" lon="-0.76955">
        <ele>40.5</ele>
        <time>2017-12-06T10:32:42Z</time>
      </trkpt>
      <trkpt lat="44.8878" lon="-0.76957">
        <ele>40.2</ele>
        <time>2017-12-06T10:32:43Z</time>
      </trkpt>
      <trkpt lat="44.88776" lon="-0.76959">
        <ele>39.6</ele>
        <time>2017-12-06T10:32:44Z</time>
      </trkpt>
      <trkpt lat="44.8877" lon="-0.7696">
        <ele>39.2</ele>
        <time>2017-12-06T10:32:45Z</time>
      </trkpt>
      <trkpt lat="44.88764" lon="-0.76958">
        <ele>38.9</ele>
        <time>2017-12-06T10:32:47Z</time>
      </trkpt>
      <trkpt lat="44.88761" lon="-0.76956">
        <ele>38.8</ele>
        <time>2017-12-06T10:32:48Z</time>
      </trkpt>
      <trkpt lat="44.88757" lon="-0.76954">
        <ele>38.7</ele>
        <time>2017-12-06T10:32:49Z</time>
      </trkpt>
      <trkpt lat="44.88753" lon="-0.7695">
        <ele>38.6</ele>
        <time>2017-12-06T10:32:50Z</time>
      </trkpt>
      <trkpt lat="44.88748" lon="-0.76946">
        <ele>38.5</ele>
        <time>2017-12-06T10:32:51Z</time>
      </trkpt>
      <trkpt lat="44.88743" lon="-0.76939">
        <ele>38.3</ele>
        <time>2017-12-06T10:32:52Z</time>
      </trkpt>
      <trkpt lat="44.88737" lon="-0.76932">
        <ele>38.2</ele>
        <time>2017-12-06T10:32:53Z</time>
      </trkpt>
      <trkpt lat="44.88734" lon="-0.76925">
        <ele>38.1</ele>
        <time>2017-12-06T10:32:54Z</time>
      </trkpt>
      <trkpt lat="44.8873" lon="-0.7692">
        <ele>38</ele>
        <time>2017-12-06T10:32:55Z</time>
      </trkpt>
      <trkpt lat="44.88726" lon="-0.76914">
        <ele>38.2</ele>
        <time>2017-12-06T10:32:56Z</time>
      </trkpt>
      <trkpt lat="44.88721" lon="-0.76908">
        <ele>38.5</ele>
        <time>2017-12-06T10:32:57Z</time>
      </trkpt>
      <trkpt lat="44.88718" lon="-0.76902">
        <ele>38.8</ele>
        <time>2017-12-06T10:32:58Z</time>
      </trkpt>
      <trkpt lat="44.88715" lon="-0.76895">
        <ele>39.1</ele>
        <time>2017-12-06T10:32:59Z</time>
      </trkpt>
      <trkpt lat="44.88713" lon="-0.76887">
        <ele>39.3</ele>
        <time>2017-12-06T10:33:00Z</time>
      </trkpt>
      <trkpt lat="44.88711" lon="-0.76881">
        <ele>39.6</ele>
        <time>2017-12-06T10:33:01Z</time>
      </trkpt>
      <trkpt lat="44.88711" lon="-0.76876">
        <ele>39.8</ele>
        <time>2017-12-06T10:33:02Z</time>
      </trkpt>
      <trkpt lat="44.88711" lon="-0.7687">
        <ele>40</ele>
        <time>2017-12-06T10:33:03Z</time>
      </trkpt>
      <trkpt lat="44.8871" lon="-0.76863">
        <ele>40</ele>
        <time>2017-12-06T10:33:05Z</time>
      </trkpt>
      <trkpt lat="44.88708" lon="-0.76858">
        <ele>40</ele>
        <time>2017-12-06T10:33:06Z</time>
      </trkpt>
      <trkpt lat="44.88705" lon="-0.76854">
        <ele>39.9</ele>
        <time>2017-12-06T10:33:07Z</time>
      </trkpt>
      <trkpt lat="44.88703" lon="-0.7685">
        <ele>39.7</ele>
        <time>2017-12-06T10:33:08Z</time>
      </trkpt>
      <trkpt lat="44.887" lon="-0.76846">
        <ele>39.6</ele>
        <time>2017-12-06T10:33:09Z</time>
      </trkpt>
      <trkpt lat="44.88697" lon="-0.76844">
        <ele>39.5</ele>
        <time>2017-12-06T10:33:10Z</time>
      </trkpt>
      <trkpt lat="44.88693" lon="-0.76844">
        <ele>39.4</ele>
        <time>2017-12-06T10:33:11Z</time>
      </trkpt>
      <trkpt lat="44.88688" lon="-0.76848">
        <ele>38.9</ele>
        <time>2017-12-06T10:33:12Z</time>
      </trkpt>
      <trkpt lat="44.88682" lon="-0.76849">
        <ele>38.5</ele>
        <time>2017-12-06T10:33:13Z</time>
      </trkpt>
      <trkpt lat="44.88675" lon="-0.76849">
        <ele>38</ele>
        <time>2017-12-06T10:33:14Z</time>
      </trkpt>
      <trkpt lat="44.88669" lon="-0.76849">
        <ele>37.8</ele>
        <time>2017-12-06T10:33:15Z</time>
      </trkpt>
      <trkpt lat="44.88663" lon="-0.76848">
        <ele>37.6</ele>
        <time>2017-12-06T10:33:16Z</time>
      </trkpt>
      <trkpt lat="44.88657" lon="-0.76846">
        <ele>37.5</ele>
        <time>2017-12-06T10:33:17Z</time>
      </trkpt>
      <trkpt lat="44.88653" lon="-0.76844">
        <ele>37.5</ele>
        <time>2017-12-06T10:33:18Z</time>
      </trkpt>
      <trkpt lat="44.88649" lon="-0.76841">
        <ele>37.4</ele>
        <time>2017-12-06T10:33:19Z</time>
      </trkpt>
      <trkpt lat="44.88644" lon="-0.76838">
        <ele>37.4</ele>
        <time>2017-12-06T10:33:20Z</time>
      </trkpt>
      <trkpt lat="44.88641" lon="-0.76833">
        <ele>37.4</ele>
        <time>2017-12-06T10:33:21Z</time>
      </trkpt>
      <trkpt lat="44.8864" lon="-0.76829">
        <ele>37.3</ele>
        <time>2017-12-06T10:33:22Z</time>
      </trkpt>
      <trkpt lat="44.88639" lon="-0.76824">
        <ele>37.3</ele>
        <time>2017-12-06T10:33:23Z</time>
      </trkpt>
      <trkpt lat="44.88637" lon="-0.76818">
        <ele>37.3</ele>
        <time>2017-12-06T10:33:24Z</time>
      </trkpt>
      <trkpt lat="44.88634" lon="-0.76812">
        <ele>37.3</ele>
        <time>2017-12-06T10:33:25Z</time>
      </trkpt>
      <trkpt lat="44.88631" lon="-0.76806">
        <ele>37.2</ele>
        <time>2017-12-06T10:33:26Z</time>
      </trkpt>
      <trkpt lat="44.88623" lon="-0.76801">
        <ele>37.2</ele>
        <time>2017-12-06T10:33:27Z</time>
      </trkpt>
      <trkpt lat="44.88619" lon="-0.76797">
        <ele>37.2</ele>
        <time>2017-12-06T10:33:28Z</time>
      </trkpt>
      <trkpt lat="44.88618" lon="-0.76792">
        <ele>37.1</ele>
        <time>2017-12-06T10:33:29Z</time>
      </trkpt>
      <trkpt lat="44.88617" lon="-0.76787">
        <ele>37.1</ele>
        <time>2017-12-06T10:33:30Z</time>
      </trkpt>
      <trkpt lat="44.88617" lon="-0.76782">
        <ele>37.1</ele>
        <time>2017-12-06T10:33:31Z</time>
      </trkpt>
      <trkpt lat="44.88618" lon="-0.76777">
        <ele>37</ele>
        <time>2017-12-06T10:33:32Z</time>
      </trkpt>
      <trkpt lat="44.88618" lon="-0.76772">
        <ele>37</ele>
        <time>2017-12-06T10:33:33Z</time>
      </trkpt>
      <trkpt lat="44.88618" lon="-0.76768">
        <ele>37</ele>
        <time>2017-12-06T10:33:34Z</time>
      </trkpt>
      <trkpt lat="44.88619" lon="-0.76763">
        <ele>37</ele>
        <time>2017-12-06T10:33:35Z</time>
      </trkpt>
      <trkpt lat="44.88618" lon="-0.76757">
        <ele>36.9</ele>
        <time>2017-12-06T10:33:36Z</time>
      </trkpt>
      <trkpt lat="44.88618" lon="-0.76751">
        <ele>36.9</ele>
        <time>2017-12-06T10:33:37Z</time>
      </trkpt>
      <trkpt lat="44.88618" lon="-0.76746">
        <ele>36.9</ele>
        <time>2017-12-06T10:33:38Z</time>
      </trkpt>
      <trkpt lat="44.88617" lon="-0.7674">
        <ele>36.9</ele>
        <time>2017-12-06T10:33:39Z</time>
      </trkpt>
      <trkpt lat="44.88613" lon="-0.76732">
        <ele>36.8</ele>
        <time>2017-12-06T10:33:40Z</time>
      </trkpt>
      <trkpt lat="44.8861" lon="-0.76724">
        <ele>36.8</ele>
        <time>2017-12-06T10:33:41Z</time>
      </trkpt>
      <trkpt lat="44.88604" lon="-0.76717">
        <ele>36.8</ele>
        <time>2017-12-06T10:33:42Z</time>
      </trkpt>
      <trkpt lat="44.886" lon="-0.7671">
        <ele>36.8</ele>
        <time>2017-12-06T10:33:43Z</time>
      </trkpt>
      <trkpt lat="44.88599" lon="-0.76703">
        <ele>36.8</ele>
        <time>2017-12-06T10:33:44Z</time>
      </trkpt>
      <trkpt lat="44.88597" lon="-0.76697">
        <ele>36.7</ele>
        <time>2017-12-06T10:33:45Z</time>
      </trkpt>
      <trkpt lat="44.88596" lon="-0.76693">
        <ele>36.7</ele>
        <time>2017-12-06T10:33:46Z</time>
      </trkpt>
      <trkpt lat="44.88593" lon="-0.76688">
        <ele>36.7</ele>
        <time>2017-12-06T10:33:47Z</time>
      </trkpt>
      <trkpt lat="44.8859" lon="-0.76685">
        <ele>36.7</ele>
        <time>2017-12-06T10:33:48Z</time>
      </trkpt>
      <trkpt lat="44.88589" lon="-0.7668">
        <ele>36.7</ele>
        <time>2017-12-06T10:33:49Z</time>
      </trkpt>
      <trkpt lat="44.88587" lon="-0.76673">
        <ele>36.6</ele>
        <time>2017-12-06T10:33:50Z</time>
      </trkpt>
      <trkpt lat="44.88583" lon="-0.7667">
        <ele>36.6</ele>
        <time>2017-12-06T10:33:51Z</time>
      </trkpt>
      <trkpt lat="44.8858" lon="-0.76666">
        <ele>36.5</ele>
        <time>2017-12-06T10:33:52Z</time>
      </trkpt>
      <trkpt lat="44.88578" lon="-0.76659">
        <ele>36.4</ele>
        <time>2017-12-06T10:33:53Z</time>
      </trkpt>
      <trkpt lat="44.88581" lon="-0.76654">
        <ele>36.2</ele>
        <time>2017-12-06T10:33:54Z</time>
      </trkpt>
      <trkpt lat="44.88581" lon="-0.76648">
        <ele>36</ele>
        <time>2017-12-06T10:33:55Z</time>
      </trkpt>
      <trkpt lat="44.88583" lon="-0.76644">
        <ele>35.7</ele>
        <time>2017-12-06T10:33:56Z</time>
      </trkpt>
      <trkpt lat="44.8858" lon="-0.76638">
        <ele>35.3</ele>
        <time>2017-12-06T10:33:57Z</time>
      </trkpt>
      <trkpt lat="44.8858" lon="-0.76633">
        <ele>35.1</ele>
        <time>2017-12-06T10:33:58Z</time>
      </trkpt>
      <trkpt lat="44.88579" lon="-0.76628">
        <ele>34.8</ele>
        <time>2017-12-06T10:33:59Z</time>
      </trkpt>
      <trkpt lat="44.88577" lon="-0.76619">
        <ele>34.7</ele>
        <time>2017-12-06T10:34:00Z</time>
      </trkpt>
      <trkpt lat="44.88576" lon="-0.76612">
        <ele>34.6</ele>
        <time>2017-12-06T10:34:01Z</time>
      </trkpt>
      <trkpt lat="44.88574" lon="-0.76604">
        <ele>34.4</ele>
        <time>2017-12-06T10:34:02Z</time>
      </trkpt>
      <trkpt lat="44.88574" lon="-0.76598">
        <ele>34.4</ele>
        <time>2017-12-06T10:34:03Z</time>
      </trkpt>
      <trkpt lat="44.88575" lon="-0.76592">
        <ele>34.4</ele>
        <time>2017-12-06T10:34:04Z</time>
      </trkpt>
      <trkpt lat="44.88579" lon="-0.7659">
        <ele>34.3</ele>
        <time>2017-12-06T10:34:05Z</time>
      </trkpt>
      <trkpt lat="44.88583" lon="-0.76584">
        <ele>34.3</ele>
        <time>2017-12-06T10:34:07Z</time>
      </trkpt>
      <trkpt lat="44.88585" lon="-0.76579">
        <ele>34.3</ele>
        <time>2017-12-06T10:34:08Z</time>
      </trkpt>
      <trkpt lat="44.88587" lon="-0.76575">
        <ele>34.3</ele>
        <time>2017-12-06T10:34:09Z</time>
      </trkpt>
      <trkpt lat="44.8859" lon="-0.76571">
        <ele>34.2</ele>
        <time>2017-12-06T10:34:10Z</time>
      </trkpt>
      <trkpt lat="44.88593" lon="-0.76567">
        <ele>34.2</ele>
        <time>2017-12-06T10:34:11Z</time>
      </trkpt>
      <trkpt lat="44.88595" lon="-0.76558">
        <ele>34.2</ele>
        <time>2017-12-06T10:34:12Z</time>
      </trkpt>
      <trkpt lat="44.88597" lon="-0.7655">
        <ele>34.1</ele>
        <time>2017-12-06T10:34:13Z</time>
      </trkpt>
      <trkpt lat="44.88599" lon="-0.76542">
        <ele>34.1</ele>
        <time>2017-12-06T10:34:14Z</time>
      </trkpt>
      <trkpt lat="44.88601" lon="-0.76533">
        <ele>34.1</ele>
        <time>2017-12-06T10:34:15Z</time>
      </trkpt>
      <trkpt lat="44.88604" lon="-0.76526">
        <ele>34</ele>
        <time>2017-12-06T10:34:16Z</time>
      </trkpt>
      <trkpt lat="44.88606" lon="-0.76517">
        <ele>33.7</ele>
        <time>2017-12-06T10:34:17Z</time>
      </trkpt>
      <trkpt lat="44.88608" lon="-0.76509">
        <ele>33.4</ele>
        <time>2017-12-06T10:34:18Z</time>
      </trkpt>
      <trkpt lat="44.88609" lon="-0.76502">
        <ele>33.2</ele>
        <time>2017-12-06T10:34:19Z</time>
      </trkpt>
      <trkpt lat="44.88608" lon="-0.76498">
        <ele>33</ele>
        <time>2017-12-06T10:34:20Z</time>
      </trkpt>
      <trkpt lat="44.88602" lon="-0.76493">
        <ele>32.7</ele>
        <time>2017-12-06T10:34:21Z</time>
      </trkpt>
      <trkpt lat="44.88601" lon="-0.76487">
        <ele>32.6</ele>
        <time>2017-12-06T10:34:22Z</time>
      </trkpt>
      <trkpt lat="44.88599" lon="-0.76482">
        <ele>32.4</ele>
        <time>2017-12-06T10:34:23Z</time>
      </trkpt>
      <trkpt lat="44.88597" lon="-0.76477">
        <ele>32.2</ele>
        <time>2017-12-06T10:34:24Z</time>
      </trkpt>
      <trkpt lat="44.88594" lon="-0.76472">
        <ele>32.2</ele>
        <time>2017-12-06T10:34:25Z</time>
      </trkpt>
      <trkpt lat="44.88593" lon="-0.76466">
        <ele>32.3</ele>
        <time>2017-12-06T10:34:26Z</time>
      </trkpt>
      <trkpt lat="44.88591" lon="-0.7646">
        <ele>32.3</ele>
        <time>2017-12-06T10:34:27Z</time>
      </trkpt>
      <trkpt lat="44.88586" lon="-0.76457">
        <ele>32.4</ele>
        <time>2017-12-06T10:34:28Z</time>
      </trkpt>
      <trkpt lat="44.88581" lon="-0.76454">
        <ele>32.3</ele>
        <time>2017-12-06T10:34:29Z</time>
      </trkpt>
      <trkpt lat="44.88575" lon="-0.76452">
        <ele>32.1</ele>
        <time>2017-12-06T10:34:30Z</time>
      </trkpt>
      <trkpt lat="44.88568" lon="-0.76451">
        <ele>31.7</ele>
        <time>2017-12-06T10:34:31Z</time>
      </trkpt>
      <trkpt lat="44.88563" lon="-0.76448">
        <ele>31.6</ele>
        <time>2017-12-06T10:34:32Z</time>
      </trkpt>
      <trkpt lat="44.88558" lon="-0.76445">
        <ele>31.6</ele>
        <time>2017-12-06T10:34:33Z</time>
      </trkpt>
      <trkpt lat="44.88552" lon="-0.76442">
        <ele>31.6</ele>
        <time>2017-12-06T10:34:34Z</time>
      </trkpt>
      <trkpt lat="44.8855" lon="-0.76439">
        <ele>31.6</ele>
        <time>2017-12-06T10:34:35Z</time>
      </trkpt>
      <trkpt lat="44.88547" lon="-0.76436">
        <ele>31.6</ele>
        <time>2017-12-06T10:34:36Z</time>
      </trkpt>
      <trkpt lat="44.88542" lon="-0.7643">
        <ele>31.7</ele>
        <time>2017-12-06T10:34:37Z</time>
      </trkpt>
      <trkpt lat="44.88539" lon="-0.76425">
        <ele>31.7</ele>
        <time>2017-12-06T10:34:38Z</time>
      </trkpt>
      <trkpt lat="44.88536" lon="-0.7642">
        <ele>31.8</ele>
        <time>2017-12-06T10:34:39Z</time>
      </trkpt>
      <trkpt lat="44.88532" lon="-0.76416">
        <ele>31.9</ele>
        <time>2017-12-06T10:34:40Z</time>
      </trkpt>
      <trkpt lat="44.88526" lon="-0.76411">
        <ele>32.1</ele>
        <time>2017-12-06T10:34:41Z</time>
      </trkpt>
      <trkpt lat="44.88521" lon="-0.76407">
        <ele>32.2</ele>
        <time>2017-12-06T10:34:42Z</time>
      </trkpt>
      <trkpt lat="44.88517" lon="-0.76401">
        <ele>32.2</ele>
        <time>2017-12-06T10:34:43Z</time>
      </trkpt>
      <trkpt lat="44.88513" lon="-0.76396">
        <ele>32.3</ele>
        <time>2017-12-06T10:34:44Z</time>
      </trkpt>
      <trkpt lat="44.8851" lon="-0.7639">
        <ele>32.5</ele>
        <time>2017-12-06T10:34:45Z</time>
      </trkpt>
      <trkpt lat="44.88505" lon="-0.76387">
        <ele>32.6</ele>
        <time>2017-12-06T10:34:46Z</time>
      </trkpt>
      <trkpt lat="44.88502" lon="-0.76385">
        <ele>32.7</ele>
        <time>2017-12-06T10:34:47Z</time>
      </trkpt>
      <trkpt lat="44.88496" lon="-0.76381">
        <ele>32.8</ele>
        <time>2017-12-06T10:34:48Z</time>
      </trkpt>
      <trkpt lat="44.88491" lon="-0.76376">
        <ele>32.9</ele>
        <time>2017-12-06T10:34:49Z</time>
      </trkpt>
      <trkpt lat="44.88489" lon="-0.76373">
        <ele>32.9</ele>
        <time>2017-12-06T10:34:50Z</time>
      </trkpt>
      <trkpt lat="44.88488" lon="-0.76368">
        <ele>33</ele>
        <time>2017-12-06T10:34:51Z</time>
      </trkpt>
      <trkpt lat="44.88484" lon="-0.76362">
        <ele>33</ele>
        <time>2017-12-06T10:34:52Z</time>
      </trkpt>
      <trkpt lat="44.88479" lon="-0.76356">
        <ele>33.1</ele>
        <time>2017-12-06T10:34:53Z</time>
      </trkpt>
      <trkpt lat="44.88476" lon="-0.76349">
        <ele>33.1</ele>
        <time>2017-12-06T10:34:54Z</time>
      </trkpt>
      <trkpt lat="44.88471" lon="-0.76341">
        <ele>33.1</ele>
        <time>2017-12-06T10:34:55Z</time>
      </trkpt>
      <trkpt lat="44.88468" lon="-0.76335">
        <ele>33.1</ele>
        <time>2017-12-06T10:34:56Z</time>
      </trkpt>
      <trkpt lat="44.88466" lon="-0.76328">
        <ele>33</ele>
        <time>2017-12-06T10:34:57Z</time>
      </trkpt>
      <trkpt lat="44.88464" lon="-0.76321">
        <ele>33</ele>
        <time>2017-12-06T10:34:58Z</time>
      </trkpt>
      <trkpt lat="44.88462" lon="-0.76313">
        <ele>32.9</ele>
        <time>2017-12-06T10:34:59Z</time>
      </trkpt>
      <trkpt lat="44.8846" lon="-0.76306">
        <ele>32.8</ele>
        <time>2017-12-06T10:35:00Z</time>
      </trkpt>
      <trkpt lat="44.88457" lon="-0.76299">
        <ele>32.6</ele>
        <time>2017-12-06T10:35:01Z</time>
      </trkpt>
      <trkpt lat="44.88455" lon="-0.76293">
        <ele>32.4</ele>
        <time>2017-12-06T10:35:02Z</time>
      </trkpt>
      <trkpt lat="44.88453" lon="-0.76287">
        <ele>32.3</ele>
        <time>2017-12-06T10:35:03Z</time>
      </trkpt>
      <trkpt lat="44.8845" lon="-0.76279">
        <ele>32.2</ele>
        <time>2017-12-06T10:35:04Z</time>
      </trkpt>
      <trkpt lat="44.88448" lon="-0.76274">
        <ele>32.2</ele>
        <time>2017-12-06T10:35:05Z</time>
      </trkpt>
      <trkpt lat="44.88444" lon="-0.76268">
        <ele>32.2</ele>
        <time>2017-12-06T10:35:06Z</time>
      </trkpt>
      <trkpt lat="44.88441" lon="-0.76263">
        <ele>32.2</ele>
        <time>2017-12-06T10:35:07Z</time>
      </trkpt>
      <trkpt lat="44.88437" lon="-0.76257">
        <ele>32.3</ele>
        <time>2017-12-06T10:35:08Z</time>
      </trkpt>
      <trkpt lat="44.88432" lon="-0.76251">
        <ele>32.5</ele>
        <time>2017-12-06T10:35:09Z</time>
      </trkpt>
      <trkpt lat="44.88428" lon="-0.76245">
        <ele>32.6</ele>
        <time>2017-12-06T10:35:10Z</time>
      </trkpt>
      <trkpt lat="44.88424" lon="-0.76239">
        <ele>32.7</ele>
        <time>2017-12-06T10:35:11Z</time>
      </trkpt>
      <trkpt lat="44.88423" lon="-0.76231">
        <ele>32.7</ele>
        <time>2017-12-06T10:35:12Z</time>
      </trkpt>
      <trkpt lat="44.8842" lon="-0.76224">
        <ele>32.8</ele>
        <time>2017-12-06T10:35:13Z</time>
      </trkpt>
      <trkpt lat="44.88417" lon="-0.76217">
        <ele>32.8</ele>
        <time>2017-12-06T10:35:14Z</time>
      </trkpt>
      <trkpt lat="44.88414" lon="-0.76211">
        <ele>32.9</ele>
        <time>2017-12-06T10:35:15Z</time>
      </trkpt>
      <trkpt lat="44.88414" lon="-0.76205">
        <ele>32.9</ele>
        <time>2017-12-06T10:35:16Z</time>
      </trkpt>
      <trkpt lat="44.88413" lon="-0.76198">
        <ele>32.9</ele>
        <time>2017-12-06T10:35:17Z</time>
      </trkpt>
      <trkpt lat="44.88411" lon="-0.76191">
        <ele>33</ele>
        <time>2017-12-06T10:35:18Z</time>
      </trkpt>
      <trkpt lat="44.88408" lon="-0.76183">
        <ele>33.1</ele>
        <time>2017-12-06T10:35:19Z</time>
      </trkpt>
      <trkpt lat="44.88403" lon="-0.76177">
        <ele>33.1</ele>
        <time>2017-12-06T10:35:20Z</time>
      </trkpt>
      <trkpt lat="44.88398" lon="-0.76171">
        <ele>33.2</ele>
        <time>2017-12-06T10:35:21Z</time>
      </trkpt>
      <trkpt lat="44.88393" lon="-0.76164">
        <ele>33.3</ele>
        <time>2017-12-06T10:35:22Z</time>
      </trkpt>
      <trkpt lat="44.8839" lon="-0.76157">
        <ele>33.3</ele>
        <time>2017-12-06T10:35:23Z</time>
      </trkpt>
      <trkpt lat="44.88388" lon="-0.76151">
        <ele>33.4</ele>
        <time>2017-12-06T10:35:24Z</time>
      </trkpt>
      <trkpt lat="44.88385" lon="-0.76143">
        <ele>33.5</ele>
        <time>2017-12-06T10:35:25Z</time>
      </trkpt>
      <trkpt lat="44.88385" lon="-0.76138">
        <ele>33.5</ele>
        <time>2017-12-06T10:35:26Z</time>
      </trkpt>
      <trkpt lat="44.88386" lon="-0.76133">
        <ele>33.6</ele>
        <time>2017-12-06T10:35:27Z</time>
      </trkpt>
      <trkpt lat="44.88384" lon="-0.76128">
        <ele>33.6</ele>
        <time>2017-12-06T10:35:28Z</time>
      </trkpt>
      <trkpt lat="44.88383" lon="-0.76122">
        <ele>33.7</ele>
        <time>2017-12-06T10:35:29Z</time>
      </trkpt>
      <trkpt lat="44.88381" lon="-0.76117">
        <ele>33.8</ele>
        <time>2017-12-06T10:35:30Z</time>
      </trkpt>
      <trkpt lat="44.88381" lon="-0.7611">
        <ele>34</ele>
        <time>2017-12-06T10:35:31Z</time>
      </trkpt>
      <trkpt lat="44.8838" lon="-0.76102">
        <ele>34</ele>
        <time>2017-12-06T10:35:32Z</time>
      </trkpt>
      <trkpt lat="44.88379" lon="-0.76095">
        <ele>33.9</ele>
        <time>2017-12-06T10:35:33Z</time>
      </trkpt>
      <trkpt lat="44.8838" lon="-0.76087">
        <ele>33.9</ele>
        <time>2017-12-06T10:35:34Z</time>
      </trkpt>
      <trkpt lat="44.88382" lon="-0.7608">
        <ele>33.8</ele>
        <time>2017-12-06T10:35:35Z</time>
      </trkpt>
      <trkpt lat="44.88382" lon="-0.76073">
        <ele>33.7</ele>
        <time>2017-12-06T10:35:36Z</time>
      </trkpt>
      <trkpt lat="44.88382" lon="-0.76065">
        <ele>33.6</ele>
        <time>2017-12-06T10:35:37Z</time>
      </trkpt>
      <trkpt lat="44.88382" lon="-0.76058">
        <ele>33.5</ele>
        <time>2017-12-06T10:35:38Z</time>
      </trkpt>
      <trkpt lat="44.88379" lon="-0.7605">
        <ele>33.3</ele>
        <time>2017-12-06T10:35:39Z</time>
      </trkpt>
      <trkpt lat="44.88377" lon="-0.76044">
        <ele>32.9</ele>
        <time>2017-12-06T10:35:40Z</time>
      </trkpt>
      <trkpt lat="44.88377" lon="-0.76036">
        <ele>32.5</ele>
        <time>2017-12-06T10:35:41Z</time>
      </trkpt>
      <trkpt lat="44.88377" lon="-0.76029">
        <ele>32.2</ele>
        <time>2017-12-06T10:35:42Z</time>
      </trkpt>
      <trkpt lat="44.88376" lon="-0.76023">
        <ele>32.1</ele>
        <time>2017-12-06T10:35:43Z</time>
      </trkpt>
      <trkpt lat="44.88374" lon="-0.76017">
        <ele>32</ele>
        <time>2017-12-06T10:35:44Z</time>
      </trkpt>
      <trkpt lat="44.88372" lon="-0.7601">
        <ele>31.9</ele>
        <time>2017-12-06T10:35:45Z</time>
      </trkpt>
      <trkpt lat="44.88368" lon="-0.76004">
        <ele>31.9</ele>
        <time>2017-12-06T10:35:46Z</time>
      </trkpt>
      <trkpt lat="44.88367" lon="-0.75996">
        <ele>31.9</ele>
        <time>2017-12-06T10:35:47Z</time>
      </trkpt>
      <trkpt lat="44.88363" lon="-0.75989">
        <ele>31.8</ele>
        <time>2017-12-06T10:35:48Z</time>
      </trkpt>
      <trkpt lat="44.8836" lon="-0.75981">
        <ele>31.8</ele>
        <time>2017-12-06T10:35:49Z</time>
      </trkpt>
      <trkpt lat="44.88356" lon="-0.75973">
        <ele>31.8</ele>
        <time>2017-12-06T10:35:50Z</time>
      </trkpt>
      <trkpt lat="44.88354" lon="-0.75965">
        <ele>31.8</ele>
        <time>2017-12-06T10:35:51Z</time>
      </trkpt>
      <trkpt lat="44.88352" lon="-0.75956">
        <ele>31.8</ele>
        <time>2017-12-06T10:35:52Z</time>
      </trkpt>
      <trkpt lat="44.88353" lon="-0.75948">
        <ele>31.8</ele>
        <time>2017-12-06T10:35:53Z</time>
      </trkpt>
      <trkpt lat="44.88354" lon="-0.75941">
        <ele>31.8</ele>
        <time>2017-12-06T10:35:54Z</time>
      </trkpt>
      <trkpt lat="44.88354" lon="-0.75935">
        <ele>31.7</ele>
        <time>2017-12-06T10:35:55Z</time>
      </trkpt>
      <trkpt lat="44.88351" lon="-0.7593">
        <ele>31.7</ele>
        <time>2017-12-06T10:35:56Z</time>
      </trkpt>
      <trkpt lat="44.88348" lon="-0.75924">
        <ele>31.7</ele>
        <time>2017-12-06T10:35:57Z</time>
      </trkpt>
      <trkpt lat="44.88345" lon="-0.7592">
        <ele>31.7</ele>
        <time>2017-12-06T10:35:58Z</time>
      </trkpt>
      <trkpt lat="44.8834" lon="-0.75917">
        <ele>31.7</ele>
        <time>2017-12-06T10:35:59Z</time>
      </trkpt>
      <trkpt lat="44.88335" lon="-0.75915">
        <ele>31.7</ele>
        <time>2017-12-06T10:36:00Z</time>
      </trkpt>
      <trkpt lat="44.8833" lon="-0.75913">
        <ele>31.7</ele>
        <time>2017-12-06T10:36:01Z</time>
      </trkpt>
      <trkpt lat="44.88325" lon="-0.75909">
        <ele>31.7</ele>
        <time>2017-12-06T10:36:02Z</time>
      </trkpt>
      <trkpt lat="44.88321" lon="-0.75903">
        <ele>31.7</ele>
        <time>2017-12-06T10:36:03Z</time>
      </trkpt>
      <trkpt lat="44.88318" lon="-0.75897">
        <ele>31.7</ele>
        <time>2017-12-06T10:36:04Z</time>
      </trkpt>
      <trkpt lat="44.88314" lon="-0.75895">
        <ele>31.7</ele>
        <time>2017-12-06T10:36:05Z</time>
      </trkpt>
      <trkpt lat="44.88309" lon="-0.75895">
        <ele>31.7</ele>
        <time>2017-12-06T10:36:06Z</time>
      </trkpt>
      <trkpt lat="44.88304" lon="-0.75893">
        <ele>31.7</ele>
        <time>2017-12-06T10:36:07Z</time>
      </trkpt>
      <trkpt lat="44.88301" lon="-0.75891">
        <ele>31.7</ele>
        <time>2017-12-06T10:36:08Z</time>
      </trkpt>
      <trkpt lat="44.88297" lon="-0.7589">
        <ele>31.7</ele>
        <time>2017-12-06T10:36:09Z</time>
      </trkpt>
      <trkpt lat="44.88295" lon="-0.75888">
        <ele>31.7</ele>
        <time>2017-12-06T10:36:10Z</time>
      </trkpt>
      <trkpt lat="44.88292" lon="-0.75884">
        <ele>31.8</ele>
        <time>2017-12-06T10:36:11Z</time>
      </trkpt>
      <trkpt lat="44.8829" lon="-0.75881">
        <ele>31.9</ele>
        <time>2017-12-06T10:36:12Z</time>
      </trkpt>
      <trkpt lat="44.88287" lon="-0.7588">
        <ele>31.9</ele>
        <time>2017-12-06T10:36:13Z</time>
      </trkpt>
      <trkpt lat="44.88285" lon="-0.75878">
        <ele>32</ele>
        <time>2017-12-06T10:36:14Z</time>
      </trkpt>
      <trkpt lat="44.88282" lon="-0.75874">
        <ele>32.2</ele>
        <time>2017-12-06T10:36:16Z</time>
      </trkpt>
      <trkpt lat="44.8828" lon="-0.75868">
        <ele>32.6</ele>
        <time>2017-12-06T10:36:18Z</time>
      </trkpt>
      <trkpt lat="44.88279" lon="-0.7586">
        <ele>33.1</ele>
        <time>2017-12-06T10:36:20Z</time>
      </trkpt>
      <trkpt lat="44.88277" lon="-0.75856">
        <ele>33.3</ele>
        <time>2017-12-06T10:36:21Z</time>
      </trkpt>
      <trkpt lat="44.88275" lon="-0.75852">
        <ele>33.4</ele>
        <time>2017-12-06T10:36:22Z</time>
      </trkpt>
      <trkpt lat="44.88275" lon="-0.75849">
        <ele>33.5</ele>
        <time>2017-12-06T10:36:23Z</time>
      </trkpt>
      <trkpt lat="44.88273" lon="-0.75842">
        <ele>33.7</ele>
        <time>2017-12-06T10:36:25Z</time>
      </trkpt>
      <trkpt lat="44.88272" lon="-0.75838">
        <ele>33.9</ele>
        <time>2017-12-06T10:36:26Z</time>
      </trkpt>
      <trkpt lat="44.88271" lon="-0.75833">
        <ele>34.2</ele>
        <time>2017-12-06T10:36:27Z</time>
      </trkpt>
      <trkpt lat="44.8827" lon="-0.75828">
        <ele>34.6</ele>
        <time>2017-12-06T10:36:28Z</time>
      </trkpt>
      <trkpt lat="44.88269" lon="-0.75823">
        <ele>34.9</ele>
        <time>2017-12-06T10:36:29Z</time>
      </trkpt>
      <trkpt lat="44.88267" lon="-0.75818">
        <ele>35.1</ele>
        <time>2017-12-06T10:36:30Z</time>
      </trkpt>
      <trkpt lat="44.88264" lon="-0.75814">
        <ele>35.3</ele>
        <time>2017-12-06T10:36:31Z</time>
      </trkpt>
      <trkpt lat="44.88261" lon="-0.7581">
        <ele>35.4</ele>
        <time>2017-12-06T10:36:32Z</time>
      </trkpt>
      <trkpt lat="44.88259" lon="-0.75805">
        <ele>35.4</ele>
        <time>2017-12-06T10:36:33Z</time>
      </trkpt>
      <trkpt lat="44.88256" lon="-0.75799">
        <ele>35.5</ele>
        <time>2017-12-06T10:36:34Z</time>
      </trkpt>
      <trkpt lat="44.88253" lon="-0.75794">
        <ele>35.5</ele>
        <time>2017-12-06T10:36:35Z</time>
      </trkpt>
      <trkpt lat="44.88251" lon="-0.75789">
        <ele>35.5</ele>
        <time>2017-12-06T10:36:36Z</time>
      </trkpt>
      <trkpt lat="44.88248" lon="-0.75784">
        <ele>35.5</ele>
        <time>2017-12-06T10:36:37Z</time>
      </trkpt>
      <trkpt lat="44.88245" lon="-0.7578">
        <ele>35.5</ele>
        <time>2017-12-06T10:36:38Z</time>
      </trkpt>
      <trkpt lat="44.88242" lon="-0.75774">
        <ele>35.5</ele>
        <time>2017-12-06T10:36:39Z</time>
      </trkpt>
      <trkpt lat="44.88241" lon="-0.75768">
        <ele>35.5</ele>
        <time>2017-12-06T10:36:40Z</time>
      </trkpt>
      <trkpt lat="44.88241" lon="-0.75761">
        <ele>35.5</ele>
        <time>2017-12-06T10:36:41Z</time>
      </trkpt>
      <trkpt lat="44.88239" lon="-0.75754">
        <ele>35.4</ele>
        <time>2017-12-06T10:36:42Z</time>
      </trkpt>
      <trkpt lat="44.88239" lon="-0.75747">
        <ele>35.2</ele>
        <time>2017-12-06T10:36:43Z</time>
      </trkpt>
      <trkpt lat="44.8824" lon="-0.7574">
        <ele>35.1</ele>
        <time>2017-12-06T10:36:44Z</time>
      </trkpt>
      <trkpt lat="44.8824" lon="-0.75732">
        <ele>34.9</ele>
        <time>2017-12-06T10:36:45Z</time>
      </trkpt>
      <trkpt lat="44.8824" lon="-0.75724">
        <ele>34.7</ele>
        <time>2017-12-06T10:36:46Z</time>
      </trkpt>
      <trkpt lat="44.88239" lon="-0.75715">
        <ele>34.2</ele>
        <time>2017-12-06T10:36:47Z</time>
      </trkpt>
      <trkpt lat="44.88239" lon="-0.75708">
        <ele>33.8</ele>
        <time>2017-12-06T10:36:48Z</time>
      </trkpt>
      <trkpt lat="44.8824" lon="-0.75701">
        <ele>33.4</ele>
        <time>2017-12-06T10:36:49Z</time>
      </trkpt>
      <trkpt lat="44.88237" lon="-0.75697">
        <ele>33.2</ele>
        <time>2017-12-06T10:36:50Z</time>
      </trkpt>
      <trkpt lat="44.88234" lon="-0.75694">
        <ele>33</ele>
        <time>2017-12-06T10:36:51Z</time>
      </trkpt>
      <trkpt lat="44.88231" lon="-0.75689">
        <ele>32.6</ele>
        <time>2017-12-06T10:36:52Z</time>
      </trkpt>
      <trkpt lat="44.88232" lon="-0.75685">
        <ele>32.4</ele>
        <time>2017-12-06T10:36:53Z</time>
      </trkpt>
      <trkpt lat="44.88232" lon="-0.75681">
        <ele>32.1</ele>
        <time>2017-12-06T10:36:54Z</time>
      </trkpt>
      <trkpt lat="44.88232" lon="-0.75676">
        <ele>31.8</ele>
        <time>2017-12-06T10:36:55Z</time>
      </trkpt>
      <trkpt lat="44.88231" lon="-0.75672">
        <ele>31.6</ele>
        <time>2017-12-06T10:36:56Z</time>
      </trkpt>
      <trkpt lat="44.88232" lon="-0.75666">
        <ele>31.4</ele>
        <time>2017-12-06T10:36:57Z</time>
      </trkpt>
      <trkpt lat="44.88231" lon="-0.75661">
        <ele>31.3</ele>
        <time>2017-12-06T10:36:58Z</time>
      </trkpt>
      <trkpt lat="44.8823" lon="-0.75655">
        <ele>31.2</ele>
        <time>2017-12-06T10:36:59Z</time>
      </trkpt>
      <trkpt lat="44.88228" lon="-0.75649">
        <ele>31.1</ele>
        <time>2017-12-06T10:37:00Z</time>
      </trkpt>
      <trkpt lat="44.88226" lon="-0.75643">
        <ele>31</ele>
        <time>2017-12-06T10:37:01Z</time>
      </trkpt>
      <trkpt lat="44.88223" lon="-0.75637">
        <ele>31</ele>
        <time>2017-12-06T10:37:02Z</time>
      </trkpt>
      <trkpt lat="44.88221" lon="-0.75632">
        <ele>31</ele>
        <time>2017-12-06T10:37:03Z</time>
      </trkpt>
      <trkpt lat="44.8822" lon="-0.75626">
        <ele>31</ele>
        <time>2017-12-06T10:37:04Z</time>
      </trkpt>
      <trkpt lat="44.88219" lon="-0.75619">
        <ele>31</ele>
        <time>2017-12-06T10:37:05Z</time>
      </trkpt>
      <trkpt lat="44.88218" lon="-0.75614">
        <ele>31</ele>
        <time>2017-12-06T10:37:06Z</time>
      </trkpt>
      <trkpt lat="44.88217" lon="-0.7561">
        <ele>31</ele>
        <time>2017-12-06T10:37:07Z</time>
      </trkpt>
      <trkpt lat="44.88218" lon="-0.75605">
        <ele>31</ele>
        <time>2017-12-06T10:37:08Z</time>
      </trkpt>
      <trkpt lat="44.88217" lon="-0.75599">
        <ele>30.9</ele>
        <time>2017-12-06T10:37:09Z</time>
      </trkpt>
      <trkpt lat="44.88214" lon="-0.75595">
        <ele>30.9</ele>
        <time>2017-12-06T10:37:10Z</time>
      </trkpt>
      <trkpt lat="44.88211" lon="-0.75591">
        <ele>30.9</ele>
        <time>2017-12-06T10:37:11Z</time>
      </trkpt>
      <trkpt lat="44.88207" lon="-0.75587">
        <ele>30.9</ele>
        <time>2017-12-06T10:37:12Z</time>
      </trkpt>
      <trkpt lat="44.88206" lon="-0.7558">
        <ele>30.9</ele>
        <time>2017-12-06T10:37:13Z</time>
      </trkpt>
      <trkpt lat="44.88206" lon="-0.75575">
        <ele>30.9</ele>
        <time>2017-12-06T10:37:14Z</time>
      </trkpt>
      <trkpt lat="44.88205" lon="-0.7557">
        <ele>30.9</ele>
        <time>2017-12-06T10:37:15Z</time>
      </trkpt>
      <trkpt lat="44.88203" lon="-0.75565">
        <ele>30.9</ele>
        <time>2017-12-06T10:37:16Z</time>
      </trkpt>
      <trkpt lat="44.88202" lon="-0.7556">
        <ele>30.9</ele>
        <time>2017-12-06T10:37:17Z</time>
      </trkpt>
      <trkpt lat="44.882" lon="-0.75555">
        <ele>30.9</ele>
        <time>2017-12-06T10:37:18Z</time>
      </trkpt>
      <trkpt lat="44.88199" lon="-0.75551">
        <ele>31</ele>
        <time>2017-12-06T10:37:19Z</time>
      </trkpt>
      <trkpt lat="44.88196" lon="-0.75544">
        <ele>31.1</ele>
        <time>2017-12-06T10:37:20Z</time>
      </trkpt>
      <trkpt lat="44.88194" lon="-0.75538">
        <ele>31.2</ele>
        <time>2017-12-06T10:37:21Z</time>
      </trkpt>
      <trkpt lat="44.88191" lon="-0.75532">
        <ele>31.5</ele>
        <time>2017-12-06T10:37:22Z</time>
      </trkpt>
      <trkpt lat="44.88189" lon="-0.75525">
        <ele>32</ele>
        <time>2017-12-06T10:37:23Z</time>
      </trkpt>
      <trkpt lat="44.88189" lon="-0.75521">
        <ele>32.1</ele>
        <time>2017-12-06T10:37:24Z</time>
      </trkpt>
      <trkpt lat="44.88188" lon="-0.75517">
        <ele>32.3</ele>
        <time>2017-12-06T10:37:25Z</time>
      </trkpt>
      <trkpt lat="44.88188" lon="-0.75509">
        <ele>32.5</ele>
        <time>2017-12-06T10:37:27Z</time>
      </trkpt>
      <trkpt lat="44.88185" lon="-0.75505">
        <ele>32.5</ele>
        <time>2017-12-06T10:37:28Z</time>
      </trkpt>
      <trkpt lat="44.88184" lon="-0.75499">
        <ele>32.4</ele>
        <time>2017-12-06T10:37:29Z</time>
      </trkpt>
      <trkpt lat="44.88184" lon="-0.75493">
        <ele>32.4</ele>
        <time>2017-12-06T10:37:30Z</time>
      </trkpt>
      <trkpt lat="44.88183" lon="-0.75486">
        <ele>32.3</ele>
        <time>2017-12-06T10:37:31Z</time>
      </trkpt>
      <trkpt lat="44.88183" lon="-0.75479">
        <ele>32.3</ele>
        <time>2017-12-06T10:37:32Z</time>
      </trkpt>
      <trkpt lat="44.88185" lon="-0.7547">
        <ele>32.1</ele>
        <time>2017-12-06T10:37:33Z</time>
      </trkpt>
      <trkpt lat="44.88186" lon="-0.75463">
        <ele>31.9</ele>
        <time>2017-12-06T10:37:34Z</time>
      </trkpt>
      <trkpt lat="44.88188" lon="-0.75456">
        <ele>31.4</ele>
        <time>2017-12-06T10:37:35Z</time>
      </trkpt>
      <trkpt lat="44.88189" lon="-0.75449">
        <ele>31.1</ele>
        <time>2017-12-06T10:37:36Z</time>
      </trkpt>
      <trkpt lat="44.88191" lon="-0.75444">
        <ele>30.8</ele>
        <time>2017-12-06T10:37:37Z</time>
      </trkpt>
      <trkpt lat="44.88192" lon="-0.75439">
        <ele>30.7</ele>
        <time>2017-12-06T10:37:38Z</time>
      </trkpt>
      <trkpt lat="44.88193" lon="-0.75435">
        <ele>30.6</ele>
        <time>2017-12-06T10:37:39Z</time>
      </trkpt>
      <trkpt lat="44.88192" lon="-0.75427">
        <ele>30.6</ele>
        <time>2017-12-06T10:37:41Z</time>
      </trkpt>
      <trkpt lat="44.88191" lon="-0.75421">
        <ele>30.6</ele>
        <time>2017-12-06T10:37:42Z</time>
      </trkpt>
      <trkpt lat="44.88191" lon="-0.75416">
        <ele>30.6</ele>
        <time>2017-12-06T10:37:43Z</time>
      </trkpt>
      <trkpt lat="44.88193" lon="-0.75411">
        <ele>30.6</ele>
        <time>2017-12-06T10:37:45Z</time>
      </trkpt>
      <trkpt lat="44.88194" lon="-0.75404">
        <ele>30.6</ele>
        <time>2017-12-06T10:37:47Z</time>
      </trkpt>
      <trkpt lat="44.88195" lon="-0.754">
        <ele>30.6</ele>
        <time>2017-12-06T10:37:48Z</time>
      </trkpt>
      <trkpt lat="44.88197" lon="-0.75396">
        <ele>30.7</ele>
        <time>2017-12-06T10:37:49Z</time>
      </trkpt>
      <trkpt lat="44.88198" lon="-0.7539">
        <ele>30.7</ele>
        <time>2017-12-06T10:37:51Z</time>
      </trkpt>
      <trkpt lat="44.88196" lon="-0.75385">
        <ele>30.8</ele>
        <time>2017-12-06T10:37:52Z</time>
      </trkpt>
      <trkpt lat="44.88196" lon="-0.75379">
        <ele>30.9</ele>
        <time>2017-12-06T10:37:53Z</time>
      </trkpt>
      <trkpt lat="44.88196" lon="-0.75373">
        <ele>31.1</ele>
        <time>2017-12-06T10:37:54Z</time>
      </trkpt>
      <trkpt lat="44.88195" lon="-0.75369">
        <ele>31.3</ele>
        <time>2017-12-06T10:37:55Z</time>
      </trkpt>
      <trkpt lat="44.88194" lon="-0.75361">
        <ele>31.8</ele>
        <time>2017-12-06T10:37:57Z</time>
      </trkpt>
      <trkpt lat="44.88195" lon="-0.75355">
        <ele>32</ele>
        <time>2017-12-06T10:37:58Z</time>
      </trkpt>
      <trkpt lat="44.88197" lon="-0.7535">
        <ele>32.1</ele>
        <time>2017-12-06T10:37:59Z</time>
      </trkpt>
      <trkpt lat="44.88199" lon="-0.75346">
        <ele>32.2</ele>
        <time>2017-12-06T10:38:00Z</time>
      </trkpt>
      <trkpt lat="44.88201" lon="-0.75343">
        <ele>32.2</ele>
        <time>2017-12-06T10:38:01Z</time>
      </trkpt>
      <trkpt lat="44.88203" lon="-0.7534">
        <ele>32.2</ele>
        <time>2017-12-06T10:38:02Z</time>
      </trkpt>
      <trkpt lat="44.88205" lon="-0.75336">
        <ele>32.2</ele>
        <time>2017-12-06T10:38:03Z</time>
      </trkpt>
      <trkpt lat="44.88206" lon="-0.75332">
        <ele>32.2</ele>
        <time>2017-12-06T10:38:04Z</time>
      </trkpt>
      <trkpt lat="44.88208" lon="-0.75327">
        <ele>32.2</ele>
        <time>2017-12-06T10:38:05Z</time>
      </trkpt>
      <trkpt lat="44.88209" lon="-0.75321">
        <ele>32.1</ele>
        <time>2017-12-06T10:38:06Z</time>
      </trkpt>
      <trkpt lat="44.88211" lon="-0.75314">
        <ele>32</ele>
        <time>2017-12-06T10:38:07Z</time>
      </trkpt>
      <trkpt lat="44.88211" lon="-0.75307">
        <ele>31.8</ele>
        <time>2017-12-06T10:38:08Z</time>
      </trkpt>
      <trkpt lat="44.88209" lon="-0.75301">
        <ele>31.6</ele>
        <time>2017-12-06T10:38:09Z</time>
      </trkpt>
      <trkpt lat="44.88206" lon="-0.75294">
        <ele>31.3</ele>
        <time>2017-12-06T10:38:10Z</time>
      </trkpt>
      <trkpt lat="44.88203" lon="-0.75286">
        <ele>30.9</ele>
        <time>2017-12-06T10:38:11Z</time>
      </trkpt>
      <trkpt lat="44.88201" lon="-0.75279">
        <ele>30.6</ele>
        <time>2017-12-06T10:38:12Z</time>
      </trkpt>
      <trkpt lat="44.88199" lon="-0.75274">
        <ele>30.4</ele>
        <time>2017-12-06T10:38:13Z</time>
      </trkpt>
      <trkpt lat="44.88195" lon="-0.75269">
        <ele>30.3</ele>
        <time>2017-12-06T10:38:14Z</time>
      </trkpt>
      <trkpt lat="44.88191" lon="-0.75266">
        <ele>30.1</ele>
        <time>2017-12-06T10:38:15Z</time>
      </trkpt>
      <trkpt lat="44.88187" lon="-0.75261">
        <ele>30</ele>
        <time>2017-12-06T10:38:16Z</time>
      </trkpt>
      <trkpt lat="44.88182" lon="-0.75256">
        <ele>30</ele>
        <time>2017-12-06T10:38:17Z</time>
      </trkpt>
      <trkpt lat="44.88179" lon="-0.75249">
        <ele>29.9</ele>
        <time>2017-12-06T10:38:18Z</time>
      </trkpt>
      <trkpt lat="44.88175" lon="-0.75243">
        <ele>29.9</ele>
        <time>2017-12-06T10:38:19Z</time>
      </trkpt>
      <trkpt lat="44.88171" lon="-0.75239">
        <ele>29.9</ele>
        <time>2017-12-06T10:38:20Z</time>
      </trkpt>
      <trkpt lat="44.88168" lon="-0.75234">
        <ele>29.8</ele>
        <time>2017-12-06T10:38:21Z</time>
      </trkpt>
      <trkpt lat="44.88166" lon="-0.75227">
        <ele>29.7</ele>
        <time>2017-12-06T10:38:22Z</time>
      </trkpt>
      <trkpt lat="44.88164" lon="-0.75221">
        <ele>29.7</ele>
        <time>2017-12-06T10:38:23Z</time>
      </trkpt>
      <trkpt lat="44.88162" lon="-0.75214">
        <ele>29.6</ele>
        <time>2017-12-06T10:38:24Z</time>
      </trkpt>
      <trkpt lat="44.88161" lon="-0.75209">
        <ele>29.6</ele>
        <time>2017-12-06T10:38:25Z</time>
      </trkpt>
      <trkpt lat="44.8816" lon="-0.75206">
        <ele>29.5</ele>
        <time>2017-12-06T10:38:26Z</time>
      </trkpt>
      <trkpt lat="44.88158" lon="-0.75203">
        <ele>29.6</ele>
        <time>2017-12-06T10:38:27Z</time>
      </trkpt>
      <trkpt lat="44.88155" lon="-0.75199">
        <ele>29.5</ele>
        <time>2017-12-06T10:38:29Z</time>
      </trkpt>
      <trkpt lat="44.88154" lon="-0.75194">
        <ele>29.4</ele>
        <time>2017-12-06T10:38:31Z</time>
      </trkpt>
      <trkpt lat="44.88152" lon="-0.75189">
        <ele>29.5</ele>
        <time>2017-12-06T10:38:33Z</time>
      </trkpt>
      <trkpt lat="44.88151" lon="-0.75184">
        <ele>29.5</ele>
        <time>2017-12-06T10:38:35Z</time>
      </trkpt>
      <trkpt lat="44.88152" lon="-0.75179">
        <ele>29.5</ele>
        <time>2017-12-06T10:38:37Z</time>
      </trkpt>
      <trkpt lat="44.88153" lon="-0.75173">
        <ele>29.6</ele>
        <time>2017-12-06T10:38:39Z</time>
      </trkpt>
      <trkpt lat="44.88152" lon="-0.75169">
        <ele>29.6</ele>
        <time>2017-12-06T10:38:40Z</time>
      </trkpt>
      <trkpt lat="44.8815" lon="-0.75166">
        <ele>29.6</ele>
        <time>2017-12-06T10:38:41Z</time>
      </trkpt>
      <trkpt lat="44.88149" lon="-0.7516">
        <ele>29.6</ele>
        <time>2017-12-06T10:38:43Z</time>
      </trkpt>
      <trkpt lat="44.88147" lon="-0.75156">
        <ele>29.6</ele>
        <time>2017-12-06T10:38:44Z</time>
      </trkpt>
      <trkpt lat="44.88146" lon="-0.75152">
        <ele>29.6</ele>
        <time>2017-12-06T10:38:45Z</time>
      </trkpt>
      <trkpt lat="44.88143" lon="-0.75145">
        <ele>29.5</ele>
        <time>2017-12-06T10:38:47Z</time>
      </trkpt>
      <trkpt lat="44.88139" lon="-0.75141">
        <ele>29.4</ele>
        <time>2017-12-06T10:38:49Z</time>
      </trkpt>
      <trkpt lat="44.88136" lon="-0.75138">
        <ele>29.4</ele>
        <time>2017-12-06T10:38:50Z</time>
      </trkpt>
      <trkpt lat="44.88133" lon="-0.75134">
        <ele>29.4</ele>
        <time>2017-12-06T10:38:51Z</time>
      </trkpt>
      <trkpt lat="44.88128" lon="-0.75128">
        <ele>29.3</ele>
        <time>2017-12-06T10:38:53Z</time>
      </trkpt>
      <trkpt lat="44.88125" lon="-0.75125">
        <ele>29.2</ele>
        <time>2017-12-06T10:38:54Z</time>
      </trkpt>
      <trkpt lat="44.88122" lon="-0.75123">
        <ele>29.1</ele>
        <time>2017-12-06T10:38:55Z</time>
      </trkpt>
      <trkpt lat="44.8812" lon="-0.7512">
        <ele>29</ele>
        <time>2017-12-06T10:38:56Z</time>
      </trkpt>
      <trkpt lat="44.88116" lon="-0.75114">
        <ele>29</ele>
        <time>2017-12-06T10:38:57Z</time>
      </trkpt>
      <trkpt lat="44.88112" lon="-0.75109">
        <ele>28.9</ele>
        <time>2017-12-06T10:38:58Z</time>
      </trkpt>
      <trkpt lat="44.8811" lon="-0.75104">
        <ele>28.8</ele>
        <time>2017-12-06T10:38:59Z</time>
      </trkpt>
      <trkpt lat="44.88106" lon="-0.751">
        <ele>28.8</ele>
        <time>2017-12-06T10:39:00Z</time>
      </trkpt>
      <trkpt lat="44.88104" lon="-0.75094">
        <ele>28.7</ele>
        <time>2017-12-06T10:39:01Z</time>
      </trkpt>
      <trkpt lat="44.88102" lon="-0.75089">
        <ele>28.8</ele>
        <time>2017-12-06T10:39:02Z</time>
      </trkpt>
      <trkpt lat="44.881" lon="-0.75085">
        <ele>28.6</ele>
        <time>2017-12-06T10:39:03Z</time>
      </trkpt>
      <trkpt lat="44.88098" lon="-0.75082">
        <ele>28.5</ele>
        <time>2017-12-06T10:39:04Z</time>
      </trkpt>
      <trkpt lat="44.88095" lon="-0.75078">
        <ele>28.3</ele>
        <time>2017-12-06T10:39:05Z</time>
      </trkpt>
      <trkpt lat="44.88093" lon="-0.75076">
        <ele>28.2</ele>
        <time>2017-12-06T10:39:06Z</time>
      </trkpt>
      <trkpt lat="44.88091" lon="-0.75072">
        <ele>28</ele>
        <time>2017-12-06T10:39:07Z</time>
      </trkpt>
      <trkpt lat="44.8809" lon="-0.75064">
        <ele>27.8</ele>
        <time>2017-12-06T10:39:09Z</time>
      </trkpt>
      <trkpt lat="44.88089" lon="-0.75059">
        <ele>27.7</ele>
        <time>2017-12-06T10:39:10Z</time>
      </trkpt>
      <trkpt lat="44.88085" lon="-0.75052">
        <ele>27.6</ele>
        <time>2017-12-06T10:39:12Z</time>
      </trkpt>
      <trkpt lat="44.88083" lon="-0.75049">
        <ele>27.5</ele>
        <time>2017-12-06T10:39:13Z</time>
      </trkpt>
      <trkpt lat="44.88081" lon="-0.75045">
        <ele>27.5</ele>
        <time>2017-12-06T10:39:14Z</time>
      </trkpt>
      <trkpt lat="44.88075" lon="-0.75043">
        <ele>27.4</ele>
        <time>2017-12-06T10:39:15Z</time>
      </trkpt>
      <trkpt lat="44.88071" lon="-0.7504">
        <ele>27.4</ele>
        <time>2017-12-06T10:39:16Z</time>
      </trkpt>
      <trkpt lat="44.88067" lon="-0.75037">
        <ele>27.3</ele>
        <time>2017-12-06T10:39:17Z</time>
      </trkpt>
      <trkpt lat="44.88063" lon="-0.75034">
        <ele>27.3</ele>
        <time>2017-12-06T10:39:18Z</time>
      </trkpt>
      <trkpt lat="44.88059" lon="-0.75031">
        <ele>27.2</ele>
        <time>2017-12-06T10:39:19Z</time>
      </trkpt>
      <trkpt lat="44.88056" lon="-0.75028">
        <ele>27.2</ele>
        <time>2017-12-06T10:39:20Z</time>
      </trkpt>
      <trkpt lat="44.88052" lon="-0.75026">
        <ele>27.2</ele>
        <time>2017-12-06T10:39:21Z</time>
      </trkpt>
      <trkpt lat="44.88047" lon="-0.75022">
        <ele>27.2</ele>
        <time>2017-12-06T10:39:22Z</time>
      </trkpt>
      <trkpt lat="44.88042" lon="-0.75019">
        <ele>27.1</ele>
        <time>2017-12-06T10:39:23Z</time>
      </trkpt>
      <trkpt lat="44.88038" lon="-0.75016">
        <ele>27.1</ele>
        <time>2017-12-06T10:39:24Z</time>
      </trkpt>
      <trkpt lat="44.88033" lon="-0.75013">
        <ele>27.1</ele>
        <time>2017-12-06T10:39:25Z</time>
      </trkpt>
      <trkpt lat="44.8803" lon="-0.75009">
        <ele>27.1</ele>
        <time>2017-12-06T10:39:26Z</time>
      </trkpt>
      <trkpt lat="44.88029" lon="-0.75005">
        <ele>27.1</ele>
        <time>2017-12-06T10:39:27Z</time>
      </trkpt>
      <trkpt lat="44.88029" lon="-0.74999">
        <ele>26.9</ele>
        <time>2017-12-06T10:39:28Z</time>
      </trkpt>
      <trkpt lat="44.8803" lon="-0.74994">
        <ele>26.8</ele>
        <time>2017-12-06T10:39:29Z</time>
      </trkpt>
      <trkpt lat="44.88033" lon="-0.7499">
        <ele>26.8</ele>
        <time>2017-12-06T10:39:30Z</time>
      </trkpt>
      <trkpt lat="44.88036" lon="-0.74986">
        <ele>26.8</ele>
        <time>2017-12-06T10:39:31Z</time>
      </trkpt>
      <trkpt lat="44.88038" lon="-0.74982">
        <ele>26.7</ele>
        <time>2017-12-06T10:39:32Z</time>
      </trkpt>
      <trkpt lat="44.88041" lon="-0.74977">
        <ele>26.7</ele>
        <time>2017-12-06T10:39:33Z</time>
      </trkpt>
      <trkpt lat="44.88043" lon="-0.74973">
        <ele>26.7</ele>
        <time>2017-12-06T10:39:34Z</time>
      </trkpt>
      <trkpt lat="44.88046" lon="-0.74969">
        <ele>26.7</ele>
        <time>2017-12-06T10:39:35Z</time>
      </trkpt>
      <trkpt lat="44.88049" lon="-0.74964">
        <ele>26.7</ele>
        <time>2017-12-06T10:39:36Z</time>
      </trkpt>
      <trkpt lat="44.88052" lon="-0.74959">
        <ele>26.8</ele>
        <time>2017-12-06T10:39:37Z</time>
      </trkpt>
      <trkpt lat="44.88056" lon="-0.74954">
        <ele>27.1</ele>
        <time>2017-12-06T10:39:38Z</time>
      </trkpt>
      <trkpt lat="44.88059" lon="-0.74949">
        <ele>27.4</ele>
        <time>2017-12-06T10:39:39Z</time>
      </trkpt>
      <trkpt lat="44.88062" lon="-0.74944">
        <ele>27.7</ele>
        <time>2017-12-06T10:39:40Z</time>
      </trkpt>
      <trkpt lat="44.88066" lon="-0.74938">
        <ele>28.1</ele>
        <time>2017-12-06T10:39:41Z</time>
      </trkpt>
      <trkpt lat="44.88068" lon="-0.74934">
        <ele>28.3</ele>
        <time>2017-12-06T10:39:42Z</time>
      </trkpt>
      <trkpt lat="44.88072" lon="-0.7493">
        <ele>28.4</ele>
        <time>2017-12-06T10:39:43Z</time>
      </trkpt>
      <trkpt lat="44.88074" lon="-0.74926">
        <ele>28.5</ele>
        <time>2017-12-06T10:39:44Z</time>
      </trkpt>
      <trkpt lat="44.88078" lon="-0.7492">
        <ele>28.5</ele>
        <time>2017-12-06T10:39:45Z</time>
      </trkpt>
      <trkpt lat="44.88081" lon="-0.74915">
        <ele>28.4</ele>
        <time>2017-12-06T10:39:46Z</time>
      </trkpt>
      <trkpt lat="44.88085" lon="-0.74909">
        <ele>28.4</ele>
        <time>2017-12-06T10:39:47Z</time>
      </trkpt>
      <trkpt lat="44.88088" lon="-0.74903">
        <ele>28.4</ele>
        <time>2017-12-06T10:39:48Z</time>
      </trkpt>
      <trkpt lat="44.88092" lon="-0.74897">
        <ele>28.3</ele>
        <time>2017-12-06T10:39:49Z</time>
      </trkpt>
      <trkpt lat="44.88096" lon="-0.74891">
        <ele>28.3</ele>
        <time>2017-12-06T10:39:50Z</time>
      </trkpt>
      <trkpt lat="44.881" lon="-0.74885">
        <ele>28.2</ele>
        <time>2017-12-06T10:39:51Z</time>
      </trkpt>
      <trkpt lat="44.88104" lon="-0.7488">
        <ele>28.2</ele>
        <time>2017-12-06T10:39:52Z</time>
      </trkpt>
      <trkpt lat="44.88108" lon="-0.74875">
        <ele>28.2</ele>
        <time>2017-12-06T10:39:53Z</time>
      </trkpt>
      <trkpt lat="44.88112" lon="-0.7487">
        <ele>28.1</ele>
        <time>2017-12-06T10:39:54Z</time>
      </trkpt>
      <trkpt lat="44.88116" lon="-0.74865">
        <ele>28.1</ele>
        <time>2017-12-06T10:39:55Z</time>
      </trkpt>
      <trkpt lat="44.8812" lon="-0.74859">
        <ele>28.1</ele>
        <time>2017-12-06T10:39:56Z</time>
      </trkpt>
      <trkpt lat="44.88124" lon="-0.74854">
        <ele>28</ele>
        <time>2017-12-06T10:39:57Z</time>
      </trkpt>
      <trkpt lat="44.88129" lon="-0.74848">
        <ele>28</ele>
        <time>2017-12-06T10:39:58Z</time>
      </trkpt>
      <trkpt lat="44.88132" lon="-0.74845">
        <ele>28</ele>
        <time>2017-12-06T10:39:59Z</time>
      </trkpt>
      <trkpt lat="44.88136" lon="-0.74839">
        <ele>27.9</ele>
        <time>2017-12-06T10:40:00Z</time>
      </trkpt>
      <trkpt lat="44.8814" lon="-0.74834">
        <ele>27.9</ele>
        <time>2017-12-06T10:40:01Z</time>
      </trkpt>
      <trkpt lat="44.88144" lon="-0.74829">
        <ele>27.9</ele>
        <time>2017-12-06T10:40:02Z</time>
      </trkpt>
      <trkpt lat="44.88148" lon="-0.74825">
        <ele>27.8</ele>
        <time>2017-12-06T10:40:03Z</time>
      </trkpt>
      <trkpt lat="44.88152" lon="-0.7482">
        <ele>27.8</ele>
        <time>2017-12-06T10:40:04Z</time>
      </trkpt>
      <trkpt lat="44.88156" lon="-0.74815">
        <ele>27.8</ele>
        <time>2017-12-06T10:40:05Z</time>
      </trkpt>
      <trkpt lat="44.8816" lon="-0.7481">
        <ele>27.7</ele>
        <time>2017-12-06T10:40:06Z</time>
      </trkpt>
      <trkpt lat="44.88164" lon="-0.74805">
        <ele>27.7</ele>
        <time>2017-12-06T10:40:07Z</time>
      </trkpt>
      <trkpt lat="44.88167" lon="-0.74799">
        <ele>27.6</ele>
        <time>2017-12-06T10:40:08Z</time>
      </trkpt>
      <trkpt lat="44.88171" lon="-0.74794">
        <ele>27.6</ele>
        <time>2017-12-06T10:40:09Z</time>
      </trkpt>
      <trkpt lat="44.88175" lon="-0.7479">
        <ele>27.6</ele>
        <time>2017-12-06T10:40:10Z</time>
      </trkpt>
      <trkpt lat="44.88179" lon="-0.74785">
        <ele>27.5</ele>
        <time>2017-12-06T10:40:11Z</time>
      </trkpt>
      <trkpt lat="44.88183" lon="-0.7478">
        <ele>27.5</ele>
        <time>2017-12-06T10:40:12Z</time>
      </trkpt>
      <trkpt lat="44.88187" lon="-0.74775">
        <ele>27.4</ele>
        <time>2017-12-06T10:40:13Z</time>
      </trkpt>
      <trkpt lat="44.88191" lon="-0.74772">
        <ele>27.4</ele>
        <time>2017-12-06T10:40:14Z</time>
      </trkpt>
      <trkpt lat="44.88195" lon="-0.74768">
        <ele>27.3</ele>
        <time>2017-12-06T10:40:15Z</time>
      </trkpt>
      <trkpt lat="44.882" lon="-0.74764">
        <ele>27.3</ele>
        <time>2017-12-06T10:40:16Z</time>
      </trkpt>
      <trkpt lat="44.88204" lon="-0.7476">
        <ele>27.2</ele>
        <time>2017-12-06T10:40:17Z</time>
      </trkpt>
      <trkpt lat="44.88208" lon="-0.74755">
        <ele>27.2</ele>
        <time>2017-12-06T10:40:18Z</time>
      </trkpt>
      <trkpt lat="44.88212" lon="-0.7475">
        <ele>27.1</ele>
        <time>2017-12-06T10:40:19Z</time>
      </trkpt>
      <trkpt lat="44.88217" lon="-0.74748">
        <ele>27.4</ele>
        <time>2017-12-06T10:40:20Z</time>
      </trkpt>
      <trkpt lat="44.88222" lon="-0.74748">
        <ele>27.5</ele>
        <time>2017-12-06T10:40:21Z</time>
      </trkpt>
      <trkpt lat="44.88227" lon="-0.7475">
        <ele>27.7</ele>
        <time>2017-12-06T10:40:22Z</time>
      </trkpt>
      <trkpt lat="44.8823" lon="-0.74753">
        <ele>27.8</ele>
        <time>2017-12-06T10:40:23Z</time>
      </trkpt>
      <trkpt lat="44.88235" lon="-0.74755">
        <ele>28</ele>
        <time>2017-12-06T10:40:24Z</time>
      </trkpt>
      <trkpt lat="44.8824" lon="-0.74757">
        <ele>28.2</ele>
        <time>2017-12-06T10:40:25Z</time>
      </trkpt>
      <trkpt lat="44.88245" lon="-0.7476">
        <ele>28.3</ele>
        <time>2017-12-06T10:40:26Z</time>
      </trkpt>
      <trkpt lat="44.8825" lon="-0.74763">
        <ele>28.5</ele>
        <time>2017-12-06T10:40:27Z</time>
      </trkpt>
      <trkpt lat="44.88255" lon="-0.74765">
        <ele>28.7</ele>
        <time>2017-12-06T10:40:28Z</time>
      </trkpt>
      <trkpt lat="44.88259" lon="-0.74768">
        <ele>28.8</ele>
        <time>2017-12-06T10:40:29Z</time>
      </trkpt>
      <trkpt lat="44.88264" lon="-0.74771">
        <ele>29</ele>
        <time>2017-12-06T10:40:30Z</time>
      </trkpt>
      <trkpt lat="44.88267" lon="-0.74775">
        <ele>29.1</ele>
        <time>2017-12-06T10:40:31Z</time>
      </trkpt>
      <trkpt lat="44.88271" lon="-0.74779">
        <ele>29.3</ele>
        <time>2017-12-06T10:40:32Z</time>
      </trkpt>
      <trkpt lat="44.88275" lon="-0.74783">
        <ele>29.5</ele>
        <time>2017-12-06T10:40:33Z</time>
      </trkpt>
      <trkpt lat="44.8828" lon="-0.74787">
        <ele>29.6</ele>
        <time>2017-12-06T10:40:34Z</time>
      </trkpt>
      <trkpt lat="44.88284" lon="-0.74791">
        <ele>29.8</ele>
        <time>2017-12-06T10:40:35Z</time>
      </trkpt>
      <trkpt lat="44.88288" lon="-0.74794">
        <ele>29.9</ele>
        <time>2017-12-06T10:40:36Z</time>
      </trkpt>
      <trkpt lat="44.88292" lon="-0.74798">
        <ele>30.1</ele>
        <time>2017-12-06T10:40:37Z</time>
      </trkpt>
      <trkpt lat="44.88296" lon="-0.74801">
        <ele>30.2</ele>
        <time>2017-12-06T10:40:38Z</time>
      </trkpt>
      <trkpt lat="44.88301" lon="-0.74805">
        <ele>30.5</ele>
        <time>2017-12-06T10:40:39Z</time>
      </trkpt>
      <trkpt lat="44.88305" lon="-0.74809">
        <ele>30.7</ele>
        <time>2017-12-06T10:40:40Z</time>
      </trkpt>
      <trkpt lat="44.8831" lon="-0.74813">
        <ele>31.2</ele>
        <time>2017-12-06T10:40:41Z</time>
      </trkpt>
      <trkpt lat="44.88313" lon="-0.74817">
        <ele>31.4</ele>
        <time>2017-12-06T10:40:42Z</time>
      </trkpt>
      <trkpt lat="44.88318" lon="-0.74821">
        <ele>31.6</ele>
        <time>2017-12-06T10:40:43Z</time>
      </trkpt>
      <trkpt lat="44.88322" lon="-0.74823">
        <ele>31.8</ele>
        <time>2017-12-06T10:40:44Z</time>
      </trkpt>
      <trkpt lat="44.88325" lon="-0.74822">
        <ele>32</ele>
        <time>2017-12-06T10:40:45Z</time>
      </trkpt>
      <trkpt lat="44.88327" lon="-0.74818">
        <ele>32</ele>
        <time>2017-12-06T10:40:46Z</time>
      </trkpt>
      <trkpt lat="44.88328" lon="-0.74813">
        <ele>32.1</ele>
        <time>2017-12-06T10:40:47Z</time>
      </trkpt>
      <trkpt lat="44.8833" lon="-0.74809">
        <ele>32.2</ele>
        <time>2017-12-06T10:40:48Z</time>
      </trkpt>
      <trkpt lat="44.88334" lon="-0.74805">
        <ele>32.2</ele>
        <time>2017-12-06T10:40:49Z</time>
      </trkpt>
      <trkpt lat="44.88337" lon="-0.74801">
        <ele>32.3</ele>
        <time>2017-12-06T10:40:50Z</time>
      </trkpt>
      <trkpt lat="44.88341" lon="-0.74797">
        <ele>32.4</ele>
        <time>2017-12-06T10:40:51Z</time>
      </trkpt>
      <trkpt lat="44.88344" lon="-0.74793">
        <ele>32.4</ele>
        <time>2017-12-06T10:40:52Z</time>
      </trkpt>
      <trkpt lat="44.88348" lon="-0.74788">
        <ele>32.5</ele>
        <time>2017-12-06T10:40:53Z</time>
      </trkpt>
      <trkpt lat="44.88352" lon="-0.74784">
        <ele>32.6</ele>
        <time>2017-12-06T10:40:54Z</time>
      </trkpt>
      <trkpt lat="44.88355" lon="-0.74779">
        <ele>32.6</ele>
        <time>2017-12-06T10:40:55Z</time>
      </trkpt>
      <trkpt lat="44.88358" lon="-0.74774">
        <ele>32.7</ele>
        <time>2017-12-06T10:40:56Z</time>
      </trkpt>
      <trkpt lat="44.88361" lon="-0.74769">
        <ele>32.7</ele>
        <time>2017-12-06T10:40:57Z</time>
      </trkpt>
      <trkpt lat="44.88365" lon="-0.74764">
        <ele>32.8</ele>
        <time>2017-12-06T10:40:58Z</time>
      </trkpt>
      <trkpt lat="44.88368" lon="-0.74759">
        <ele>32.8</ele>
        <time>2017-12-06T10:40:59Z</time>
      </trkpt>
      <trkpt lat="44.88371" lon="-0.74754">
        <ele>32.9</ele>
        <time>2017-12-06T10:41:00Z</time>
      </trkpt>
      <trkpt lat="44.88376" lon="-0.74749">
        <ele>33</ele>
        <time>2017-12-06T10:41:01Z</time>
      </trkpt>
      <trkpt lat="44.88379" lon="-0.74744">
        <ele>33</ele>
        <time>2017-12-06T10:41:02Z</time>
      </trkpt>
      <trkpt lat="44.88383" lon="-0.74739">
        <ele>33.1</ele>
        <time>2017-12-06T10:41:03Z</time>
      </trkpt>
      <trkpt lat="44.88387" lon="-0.74734">
        <ele>33.1</ele>
        <time>2017-12-06T10:41:04Z</time>
      </trkpt>
      <trkpt lat="44.88391" lon="-0.74729">
        <ele>33.2</ele>
        <time>2017-12-06T10:41:05Z</time>
      </trkpt>
      <trkpt lat="44.88395" lon="-0.74724">
        <ele>33.2</ele>
        <time>2017-12-06T10:41:06Z</time>
      </trkpt>
      <trkpt lat="44.88399" lon="-0.74719">
        <ele>33.3</ele>
        <time>2017-12-06T10:41:07Z</time>
      </trkpt>
      <trkpt lat="44.88403" lon="-0.74714">
        <ele>33.3</ele>
        <time>2017-12-06T10:41:08Z</time>
      </trkpt>
      <trkpt lat="44.88407" lon="-0.7471">
        <ele>33.3</ele>
        <time>2017-12-06T10:41:09Z</time>
      </trkpt>
      <trkpt lat="44.8841" lon="-0.74705">
        <ele>33.4</ele>
        <time>2017-12-06T10:41:10Z</time>
      </trkpt>
      <trkpt lat="44.88414" lon="-0.74701">
        <ele>33.4</ele>
        <time>2017-12-06T10:41:11Z</time>
      </trkpt>
      <trkpt lat="44.88418" lon="-0.74695">
        <ele>33.4</ele>
        <time>2017-12-06T10:41:12Z</time>
      </trkpt>
      <trkpt lat="44.88421" lon="-0.74689">
        <ele>33.4</ele>
        <time>2017-12-06T10:41:13Z</time>
      </trkpt>
      <trkpt lat="44.88425" lon="-0.74685">
        <ele>33.3</ele>
        <time>2017-12-06T10:41:14Z</time>
      </trkpt>
      <trkpt lat="44.88428" lon="-0.74682">
        <ele>33.3</ele>
        <time>2017-12-06T10:41:15Z</time>
      </trkpt>
      <trkpt lat="44.88432" lon="-0.74677">
        <ele>33.2</ele>
        <time>2017-12-06T10:41:16Z</time>
      </trkpt>
      <trkpt lat="44.88436" lon="-0.74671">
        <ele>33.1</ele>
        <time>2017-12-06T10:41:17Z</time>
      </trkpt>
      <trkpt lat="44.8844" lon="-0.74666">
        <ele>33.1</ele>
        <time>2017-12-06T10:41:18Z</time>
      </trkpt>
      <trkpt lat="44.88444" lon="-0.7466">
        <ele>33.1</ele>
        <time>2017-12-06T10:41:19Z</time>
      </trkpt>
      <trkpt lat="44.88448" lon="-0.74655">
        <ele>33.1</ele>
        <time>2017-12-06T10:41:20Z</time>
      </trkpt>
      <trkpt lat="44.88452" lon="-0.74649">
        <ele>33.2</ele>
        <time>2017-12-06T10:41:21Z</time>
      </trkpt>
      <trkpt lat="44.88455" lon="-0.74643">
        <ele>33.3</ele>
        <time>2017-12-06T10:41:22Z</time>
      </trkpt>
      <trkpt lat="44.88459" lon="-0.74638">
        <ele>33.4</ele>
        <time>2017-12-06T10:41:23Z</time>
      </trkpt>
      <trkpt lat="44.88462" lon="-0.74633">
        <ele>33.4</ele>
        <time>2017-12-06T10:41:24Z</time>
      </trkpt>
      <trkpt lat="44.88466" lon="-0.74629">
        <ele>33.5</ele>
        <time>2017-12-06T10:41:25Z</time>
      </trkpt>
      <trkpt lat="44.88469" lon="-0.74624">
        <ele>33.6</ele>
        <time>2017-12-06T10:41:26Z</time>
      </trkpt>
      <trkpt lat="44.88473" lon="-0.74619">
        <ele>33.7</ele>
        <time>2017-12-06T10:41:27Z</time>
      </trkpt>
      <trkpt lat="44.88477" lon="-0.74614">
        <ele>33.8</ele>
        <time>2017-12-06T10:41:28Z</time>
      </trkpt>
      <trkpt lat="44.88481" lon="-0.7461">
        <ele>33.9</ele>
        <time>2017-12-06T10:41:29Z</time>
      </trkpt>
      <trkpt lat="44.88486" lon="-0.74609">
        <ele>34</ele>
        <time>2017-12-06T10:41:30Z</time>
      </trkpt>
      <trkpt lat="44.88491" lon="-0.74607">
        <ele>33.9</ele>
        <time>2017-12-06T10:41:31Z</time>
      </trkpt>
      <trkpt lat="44.88496" lon="-0.74606">
        <ele>33.7</ele>
        <time>2017-12-06T10:41:32Z</time>
      </trkpt>
      <trkpt lat="44.885" lon="-0.74605">
        <ele>33.6</ele>
        <time>2017-12-06T10:41:33Z</time>
      </trkpt>
      <trkpt lat="44.88505" lon="-0.74605">
        <ele>33.5</ele>
        <time>2017-12-06T10:41:34Z</time>
      </trkpt>
      <trkpt lat="44.8851" lon="-0.74604">
        <ele>33.4</ele>
        <time>2017-12-06T10:41:35Z</time>
      </trkpt>
      <trkpt lat="44.88515" lon="-0.74604">
        <ele>33.2</ele>
        <time>2017-12-06T10:41:36Z</time>
      </trkpt>
      <trkpt lat="44.8852" lon="-0.74603">
        <ele>32.9</ele>
        <time>2017-12-06T10:41:37Z</time>
      </trkpt>
      <trkpt lat="44.88524" lon="-0.74604">
        <ele>32.8</ele>
        <time>2017-12-06T10:41:38Z</time>
      </trkpt>
      <trkpt lat="44.88529" lon="-0.74602">
        <ele>32.7</ele>
        <time>2017-12-06T10:41:39Z</time>
      </trkpt>
      <trkpt lat="44.88534" lon="-0.746">
        <ele>32.5</ele>
        <time>2017-12-06T10:41:40Z</time>
      </trkpt>
      <trkpt lat="44.8854" lon="-0.746">
        <ele>32.3</ele>
        <time>2017-12-06T10:41:41Z</time>
      </trkpt>
      <trkpt lat="44.88545" lon="-0.74599">
        <ele>32.1</ele>
        <time>2017-12-06T10:41:42Z</time>
      </trkpt>
      <trkpt lat="44.8855" lon="-0.74599">
        <ele>31.9</ele>
        <time>2017-12-06T10:41:43Z</time>
      </trkpt>
      <trkpt lat="44.88555" lon="-0.74599">
        <ele>31.7</ele>
        <time>2017-12-06T10:41:44Z</time>
      </trkpt>
      <trkpt lat="44.8856" lon="-0.74597">
        <ele>31.5</ele>
        <time>2017-12-06T10:41:45Z</time>
      </trkpt>
      <trkpt lat="44.88565" lon="-0.74596">
        <ele>31.3</ele>
        <time>2017-12-06T10:41:46Z</time>
      </trkpt>
      <trkpt lat="44.8857" lon="-0.74595">
        <ele>31.2</ele>
        <time>2017-12-06T10:41:47Z</time>
      </trkpt>
      <trkpt lat="44.88575" lon="-0.74593">
        <ele>30.9</ele>
        <time>2017-12-06T10:41:48Z</time>
      </trkpt>
      <trkpt lat="44.8858" lon="-0.74592">
        <ele>30.8</ele>
        <time>2017-12-06T10:41:49Z</time>
      </trkpt>
      <trkpt lat="44.88584" lon="-0.74593">
        <ele>30.7</ele>
        <time>2017-12-06T10:41:50Z</time>
      </trkpt>
      <trkpt lat="44.88589" lon="-0.74592">
        <ele>30.6</ele>
        <time>2017-12-06T10:41:51Z</time>
      </trkpt>
      <trkpt lat="44.88593" lon="-0.74592">
        <ele>30.5</ele>
        <time>2017-12-06T10:41:52Z</time>
      </trkpt>
      <trkpt lat="44.88599" lon="-0.74591">
        <ele>30.3</ele>
        <time>2017-12-06T10:41:53Z</time>
      </trkpt>
      <trkpt lat="44.88603" lon="-0.7459">
        <ele>30.2</ele>
        <time>2017-12-06T10:41:54Z</time>
      </trkpt>
      <trkpt lat="44.88608" lon="-0.7459">
        <ele>30.1</ele>
        <time>2017-12-06T10:41:55Z</time>
      </trkpt>
      <trkpt lat="44.88611" lon="-0.7459">
        <ele>30</ele>
        <time>2017-12-06T10:41:56Z</time>
      </trkpt>
      <trkpt lat="44.88616" lon="-0.74589">
        <ele>29.9</ele>
        <time>2017-12-06T10:41:57Z</time>
      </trkpt>
      <trkpt lat="44.88621" lon="-0.74588">
        <ele>29.8</ele>
        <time>2017-12-06T10:41:58Z</time>
      </trkpt>
      <trkpt lat="44.88624" lon="-0.74588">
        <ele>29.7</ele>
        <time>2017-12-06T10:41:59Z</time>
      </trkpt>
      <trkpt lat="44.88629" lon="-0.74587">
        <ele>29.6</ele>
        <time>2017-12-06T10:42:00Z</time>
      </trkpt>
      <trkpt lat="44.88632" lon="-0.74586">
        <ele>29.5</ele>
        <time>2017-12-06T10:42:01Z</time>
      </trkpt>
      <trkpt lat="44.88638" lon="-0.74586">
        <ele>29.4</ele>
        <time>2017-12-06T10:42:02Z</time>
      </trkpt>
      <trkpt lat="44.88643" lon="-0.74587">
        <ele>29.1</ele>
        <time>2017-12-06T10:42:03Z</time>
      </trkpt>
      <trkpt lat="44.88648" lon="-0.74586">
        <ele>28.9</ele>
        <time>2017-12-06T10:42:04Z</time>
      </trkpt>
      <trkpt lat="44.88652" lon="-0.74585">
        <ele>28.7</ele>
        <time>2017-12-06T10:42:05Z</time>
      </trkpt>
      <trkpt lat="44.88656" lon="-0.74582">
        <ele>28.5</ele>
        <time>2017-12-06T10:42:06Z</time>
      </trkpt>
      <trkpt lat="44.8866" lon="-0.74582">
        <ele>28.3</ele>
        <time>2017-12-06T10:42:07Z</time>
      </trkpt>
      <trkpt lat="44.88663" lon="-0.74584">
        <ele>28.2</ele>
        <time>2017-12-06T10:42:08Z</time>
      </trkpt>
      <trkpt lat="44.88666" lon="-0.74588">
        <ele>28.3</ele>
        <time>2017-12-06T10:42:09Z</time>
      </trkpt>
      <trkpt lat="44.88668" lon="-0.74592">
        <ele>28.4</ele>
        <time>2017-12-06T10:42:10Z</time>
      </trkpt>
      <trkpt lat="44.88669" lon="-0.74597">
        <ele>28.5</ele>
        <time>2017-12-06T10:42:11Z</time>
      </trkpt>
      <trkpt lat="44.8867" lon="-0.74603">
        <ele>28.6</ele>
        <time>2017-12-06T10:42:12Z</time>
      </trkpt>
      <trkpt lat="44.8867" lon="-0.74608">
        <ele>28.8</ele>
        <time>2017-12-06T10:42:13Z</time>
      </trkpt>
      <trkpt lat="44.88671" lon="-0.74613">
        <ele>28.9</ele>
        <time>2017-12-06T10:42:14Z</time>
      </trkpt>
      <trkpt lat="44.88673" lon="-0.74618">
        <ele>29</ele>
        <time>2017-12-06T10:42:15Z</time>
      </trkpt>
      <trkpt lat="44.88674" lon="-0.74623">
        <ele>29.1</ele>
        <time>2017-12-06T10:42:16Z</time>
      </trkpt>
      <trkpt lat="44.88676" lon="-0.74628">
        <ele>29.4</ele>
        <time>2017-12-06T10:42:17Z</time>
      </trkpt>
      <trkpt lat="44.88677" lon="-0.74633">
        <ele>29.7</ele>
        <time>2017-12-06T10:42:18Z</time>
      </trkpt>
      <trkpt lat="44.88679" lon="-0.74637">
        <ele>29.9</ele>
        <time>2017-12-06T10:42:19Z</time>
      </trkpt>
      <trkpt lat="44.88681" lon="-0.74641">
        <ele>30.1</ele>
        <time>2017-12-06T10:42:20Z</time>
      </trkpt>
      <trkpt lat="44.88682" lon="-0.74647">
        <ele>30.4</ele>
        <time>2017-12-06T10:42:22Z</time>
      </trkpt>
      <trkpt lat="44.88679" lon="-0.74646">
        <ele>30.4</ele>
        <time>2017-12-06T10:43:14Z</time>
      </trkpt>
    </trkseg>
  </trk>
</gpx>